<?xml version="1.0" encoding="UTF-8" standalone="no" ?>
<gpx xmlns="http://www.topografix.com/GPX/1/1" xmlns:xsi="http://www.w3.org/2001/XMLSchema-instance" xsi:schemaLocation="http://www.topografix.com/GPX/1/1 http://www.topografix.com/GPX/1/1/gpx.xsd" version="1.1" creator="VisuGPX - https://www.visugpx.com">
  <metadata>
    <name>Drailhes du Diable_08052022</name>
  </metadata>
  <trk>
    <name><![CDATA[Drailhes du Diable_08052022]]></name>
    <extensions>
      <line xmlns="http://www.topografix.com/GPX/gpx_style/0/2">
        <color>0000FF</color>
        <width>4</width>
      </line>
    </extensions>
    <trkseg>
      <trkpt lat="43.70431" lon="3.56076">
        <ele>66</ele>
        <time>2022-05-12T06:38:52.000Z</time>
      </trkpt>
      <trkpt lat="43.70429" lon="3.56075">
        <ele>64</ele>
        <time>2022-05-12T06:38:52.189Z</time>
      </trkpt>
      <trkpt lat="43.70435" lon="3.56076">
        <ele>64</ele>
        <time>2022-05-12T06:38:53.295Z</time>
      </trkpt>
      <trkpt lat="43.70439" lon="3.56076">
        <ele>64</ele>
        <time>2022-05-12T06:38:54.027Z</time>
      </trkpt>
      <trkpt lat="43.70442" lon="3.56076">
        <ele>64</ele>
        <time>2022-05-12T06:38:54.576Z</time>
      </trkpt>
      <trkpt lat="43.70446" lon="3.56076">
        <ele>64</ele>
        <time>2022-05-12T06:38:55.308Z</time>
      </trkpt>
      <trkpt lat="43.70449" lon="3.56076">
        <ele>64</ele>
        <time>2022-05-12T06:38:55.856Z</time>
      </trkpt>
      <trkpt lat="43.70452" lon="3.56075">
        <ele>64</ele>
        <time>2022-05-12T06:38:56.421Z</time>
      </trkpt>
      <trkpt lat="43.70456" lon="3.56075">
        <ele>64</ele>
        <time>2022-05-12T06:38:57.153Z</time>
      </trkpt>
      <trkpt lat="43.7046" lon="3.56075">
        <ele>64</ele>
        <time>2022-05-12T06:38:57.885Z</time>
      </trkpt>
      <trkpt lat="43.70463" lon="3.56075">
        <ele>64</ele>
        <time>2022-05-12T06:38:58.434Z</time>
      </trkpt>
      <trkpt lat="43.70467" lon="3.56075">
        <ele>65</ele>
        <time>2022-05-12T06:39:01.256Z</time>
      </trkpt>
      <trkpt lat="43.7047" lon="3.56075">
        <ele>65</ele>
        <time>2022-05-12T06:39:01.805Z</time>
      </trkpt>
      <trkpt lat="43.70474" lon="3.56074">
        <ele>65</ele>
        <time>2022-05-12T06:39:02.549Z</time>
      </trkpt>
      <trkpt lat="43.70478" lon="3.56074">
        <ele>65</ele>
        <time>2022-05-12T06:39:03.281Z</time>
      </trkpt>
      <trkpt lat="43.70481" lon="3.56073">
        <ele>65</ele>
        <time>2022-05-12T06:39:03.845Z</time>
      </trkpt>
      <trkpt lat="43.70485" lon="3.56073">
        <ele>65</ele>
        <time>2022-05-12T06:39:04.577Z</time>
      </trkpt>
      <trkpt lat="43.70488" lon="3.56073">
        <ele>65</ele>
        <time>2022-05-12T06:39:05.126Z</time>
      </trkpt>
      <trkpt lat="43.70491" lon="3.56072">
        <ele>65</ele>
        <time>2022-05-12T06:39:05.691Z</time>
      </trkpt>
      <trkpt lat="43.70494" lon="3.56072">
        <ele>65</ele>
        <time>2022-05-12T06:39:06.239Z</time>
      </trkpt>
      <trkpt lat="43.70498" lon="3.56072">
        <ele>65</ele>
        <time>2022-05-12T06:39:06.971Z</time>
      </trkpt>
      <trkpt lat="43.70501" lon="3.56073">
        <ele>65</ele>
        <time>2022-05-12T06:39:07.536Z</time>
      </trkpt>
      <trkpt lat="43.70504" lon="3.56072">
        <ele>65</ele>
        <time>2022-05-12T06:39:08.100Z</time>
      </trkpt>
      <trkpt lat="43.70507" lon="3.56072">
        <ele>65</ele>
        <time>2022-05-12T06:39:08.649Z</time>
      </trkpt>
      <trkpt lat="43.7051" lon="3.56071">
        <ele>65</ele>
        <time>2022-05-12T06:39:09.214Z</time>
      </trkpt>
      <trkpt lat="43.70513" lon="3.56071">
        <ele>65</ele>
        <time>2022-05-12T06:39:09.763Z</time>
      </trkpt>
      <trkpt lat="43.70517" lon="3.56071">
        <ele>65</ele>
        <time>2022-05-12T06:39:10.495Z</time>
      </trkpt>
      <trkpt lat="43.7052" lon="3.56071">
        <ele>65</ele>
        <time>2022-05-12T06:39:11.044Z</time>
      </trkpt>
      <trkpt lat="43.70523" lon="3.56071">
        <ele>65</ele>
        <time>2022-05-12T06:39:11.592Z</time>
      </trkpt>
      <trkpt lat="43.70527" lon="3.56071">
        <ele>65</ele>
        <time>2022-05-12T06:39:12.324Z</time>
      </trkpt>
      <trkpt lat="43.7053" lon="3.5607">
        <ele>65</ele>
        <time>2022-05-12T06:39:12.889Z</time>
      </trkpt>
      <trkpt lat="43.70533" lon="3.5607">
        <ele>65</ele>
        <time>2022-05-12T06:39:13.438Z</time>
      </trkpt>
      <trkpt lat="43.70536" lon="3.5607">
        <ele>66</ele>
        <time>2022-05-12T06:39:15.555Z</time>
      </trkpt>
      <trkpt lat="43.70539" lon="3.5607">
        <ele>66</ele>
        <time>2022-05-12T06:39:16.104Z</time>
      </trkpt>
      <trkpt lat="43.70542" lon="3.5607">
        <ele>66</ele>
        <time>2022-05-12T06:39:16.653Z</time>
      </trkpt>
      <trkpt lat="43.70544" lon="3.56071">
        <ele>66</ele>
        <time>2022-05-12T06:39:17.042Z</time>
      </trkpt>
      <trkpt lat="43.70547" lon="3.56071">
        <ele>66</ele>
        <time>2022-05-12T06:39:17.590Z</time>
      </trkpt>
      <trkpt lat="43.7055" lon="3.56072">
        <ele>66</ele>
        <time>2022-05-12T06:39:18.155Z</time>
      </trkpt>
      <trkpt lat="43.70553" lon="3.56072">
        <ele>66</ele>
        <time>2022-05-12T06:39:18.704Z</time>
      </trkpt>
      <trkpt lat="43.70555" lon="3.56074">
        <ele>66</ele>
        <time>2022-05-12T06:39:19.155Z</time>
      </trkpt>
      <trkpt lat="43.70557" lon="3.56075">
        <ele>66</ele>
        <time>2022-05-12T06:39:19.545Z</time>
      </trkpt>
      <trkpt lat="43.70559" lon="3.56076">
        <ele>66</ele>
        <time>2022-05-12T06:39:19.934Z</time>
      </trkpt>
      <trkpt lat="43.70561" lon="3.56078">
        <ele>66</ele>
        <time>2022-05-12T06:39:20.385Z</time>
      </trkpt>
      <trkpt lat="43.70563" lon="3.5608">
        <ele>66</ele>
        <time>2022-05-12T06:39:20.837Z</time>
      </trkpt>
      <trkpt lat="43.70565" lon="3.56081">
        <ele>66</ele>
        <time>2022-05-12T06:39:21.226Z</time>
      </trkpt>
      <trkpt lat="43.70566" lon="3.56083">
        <ele>66</ele>
        <time>2022-05-12T06:39:21.547Z</time>
      </trkpt>
      <trkpt lat="43.70568" lon="3.56085">
        <ele>66</ele>
        <time>2022-05-12T06:39:21.999Z</time>
      </trkpt>
      <trkpt lat="43.7057" lon="3.56086">
        <ele>66</ele>
        <time>2022-05-12T06:39:22.388Z</time>
      </trkpt>
      <trkpt lat="43.70572" lon="3.56087">
        <ele>66</ele>
        <time>2022-05-12T06:39:22.777Z</time>
      </trkpt>
      <trkpt lat="43.70574" lon="3.56089">
        <ele>66</ele>
        <time>2022-05-12T06:39:23.229Z</time>
      </trkpt>
      <trkpt lat="43.70575" lon="3.56091">
        <ele>66</ele>
        <time>2022-05-12T06:39:23.550Z</time>
      </trkpt>
      <trkpt lat="43.70576" lon="3.56094">
        <ele>66</ele>
        <time>2022-05-12T06:39:23.987Z</time>
      </trkpt>
      <trkpt lat="43.70576" lon="3.56096">
        <ele>67</ele>
        <time>2022-05-12T06:39:25.007Z</time>
      </trkpt>
      <trkpt lat="43.70577" lon="3.561">
        <ele>67</ele>
        <time>2022-05-12T06:39:25.567Z</time>
      </trkpt>
      <trkpt lat="43.70576" lon="3.56103">
        <ele>67</ele>
        <time>2022-05-12T06:39:26.004Z</time>
      </trkpt>
      <trkpt lat="43.70575" lon="3.56106">
        <ele>67</ele>
        <time>2022-05-12T06:39:26.441Z</time>
      </trkpt>
      <trkpt lat="43.70574" lon="3.5611">
        <ele>67</ele>
        <time>2022-05-12T06:39:27.001Z</time>
      </trkpt>
      <trkpt lat="43.70573" lon="3.56113">
        <ele>67</ele>
        <time>2022-05-12T06:39:27.438Z</time>
      </trkpt>
      <trkpt lat="43.70572" lon="3.56116">
        <ele>67</ele>
        <time>2022-05-12T06:39:27.875Z</time>
      </trkpt>
      <trkpt lat="43.7057" lon="3.56119">
        <ele>67</ele>
        <time>2022-05-12T06:39:28.414Z</time>
      </trkpt>
      <trkpt lat="43.70569" lon="3.56122">
        <ele>67</ele>
        <time>2022-05-12T06:39:28.851Z</time>
      </trkpt>
      <trkpt lat="43.70568" lon="3.56126">
        <ele>67</ele>
        <time>2022-05-12T06:39:29.411Z</time>
      </trkpt>
      <trkpt lat="43.70566" lon="3.56129">
        <ele>67</ele>
        <time>2022-05-12T06:39:29.951Z</time>
      </trkpt>
      <trkpt lat="43.70565" lon="3.56132">
        <ele>67</ele>
        <time>2022-05-12T06:39:30.388Z</time>
      </trkpt>
      <trkpt lat="43.70563" lon="3.56135">
        <ele>67</ele>
        <time>2022-05-12T06:39:30.928Z</time>
      </trkpt>
      <trkpt lat="43.70562" lon="3.56139">
        <ele>67</ele>
        <time>2022-05-12T06:39:31.487Z</time>
      </trkpt>
      <trkpt lat="43.70561" lon="3.56142">
        <ele>67</ele>
        <time>2022-05-12T06:39:31.924Z</time>
      </trkpt>
      <trkpt lat="43.70559" lon="3.56145">
        <ele>67</ele>
        <time>2022-05-12T06:39:32.464Z</time>
      </trkpt>
      <trkpt lat="43.70558" lon="3.56149">
        <ele>67</ele>
        <time>2022-05-12T06:39:33.024Z</time>
      </trkpt>
      <trkpt lat="43.70557" lon="3.56152">
        <ele>67</ele>
        <time>2022-05-12T06:39:33.461Z</time>
      </trkpt>
      <trkpt lat="43.70556" lon="3.56155">
        <ele>67</ele>
        <time>2022-05-12T06:39:33.898Z</time>
      </trkpt>
      <trkpt lat="43.70554" lon="3.56159">
        <ele>67</ele>
        <time>2022-05-12T06:39:34.541Z</time>
      </trkpt>
      <trkpt lat="43.70553" lon="3.56162">
        <ele>67</ele>
        <time>2022-05-12T06:39:34.978Z</time>
      </trkpt>
      <trkpt lat="43.70552" lon="3.56166">
        <ele>67</ele>
        <time>2022-05-12T06:39:35.538Z</time>
      </trkpt>
      <trkpt lat="43.70551" lon="3.56169">
        <ele>67</ele>
        <time>2022-05-12T06:39:35.975Z</time>
      </trkpt>
      <trkpt lat="43.70549" lon="3.56173">
        <ele>67</ele>
        <time>2022-05-12T06:39:36.618Z</time>
      </trkpt>
      <trkpt lat="43.70548" lon="3.56176">
        <ele>67</ele>
        <time>2022-05-12T06:39:37.055Z</time>
      </trkpt>
      <trkpt lat="43.70546" lon="3.5618">
        <ele>67</ele>
        <time>2022-05-12T06:39:37.698Z</time>
      </trkpt>
      <trkpt lat="43.70545" lon="3.56183">
        <ele>67</ele>
        <time>2022-05-12T06:39:38.135Z</time>
      </trkpt>
      <trkpt lat="43.70544" lon="3.56187">
        <ele>67</ele>
        <time>2022-05-12T06:39:38.695Z</time>
      </trkpt>
      <trkpt lat="43.70543" lon="3.56191">
        <ele>67</ele>
        <time>2022-05-12T06:39:39.255Z</time>
      </trkpt>
      <trkpt lat="43.70543" lon="3.56195">
        <ele>67</ele>
        <time>2022-05-12T06:39:39.784Z</time>
      </trkpt>
      <trkpt lat="43.70543" lon="3.562">
        <ele>67</ele>
        <time>2022-05-12T06:39:40.445Z</time>
      </trkpt>
      <trkpt lat="43.70543" lon="3.56204">
        <ele>67</ele>
        <time>2022-05-12T06:39:40.974Z</time>
      </trkpt>
      <trkpt lat="43.70543" lon="3.56209">
        <ele>67</ele>
        <time>2022-05-12T06:39:41.635Z</time>
      </trkpt>
      <trkpt lat="43.70543" lon="3.56213">
        <ele>67</ele>
        <time>2022-05-12T06:39:42.164Z</time>
      </trkpt>
      <trkpt lat="43.70544" lon="3.56218">
        <ele>67</ele>
        <time>2022-05-12T06:39:42.850Z</time>
      </trkpt>
      <trkpt lat="43.70545" lon="3.56223">
        <ele>67</ele>
        <time>2022-05-12T06:39:43.537Z</time>
      </trkpt>
      <trkpt lat="43.70546" lon="3.56229">
        <ele>67</ele>
        <time>2022-05-12T06:39:44.351Z</time>
      </trkpt>
      <trkpt lat="43.70548" lon="3.56236">
        <ele>67</ele>
        <time>2022-05-12T06:39:45.347Z</time>
      </trkpt>
      <trkpt lat="43.7055" lon="3.56243">
        <ele>67</ele>
        <time>2022-05-12T06:39:46.342Z</time>
      </trkpt>
      <trkpt lat="43.70552" lon="3.5625">
        <ele>67</ele>
        <time>2022-05-12T06:39:47.338Z</time>
      </trkpt>
      <trkpt lat="43.70554" lon="3.56258">
        <ele>68</ele>
        <time>2022-05-12T06:39:51.656Z</time>
      </trkpt>
      <trkpt lat="43.70556" lon="3.56266">
        <ele>68</ele>
        <time>2022-05-12T06:39:52.775Z</time>
      </trkpt>
      <trkpt lat="43.70558" lon="3.56273">
        <ele>68</ele>
        <time>2022-05-12T06:39:53.771Z</time>
      </trkpt>
      <trkpt lat="43.70561" lon="3.5628">
        <ele>68</ele>
        <time>2022-05-12T06:39:54.847Z</time>
      </trkpt>
      <trkpt lat="43.70562" lon="3.56287">
        <ele>68</ele>
        <time>2022-05-12T06:39:55.791Z</time>
      </trkpt>
      <trkpt lat="43.70563" lon="3.56294">
        <ele>68</ele>
        <time>2022-05-12T06:39:56.735Z</time>
      </trkpt>
      <trkpt lat="43.70563" lon="3.563">
        <ele>68</ele>
        <time>2022-05-12T06:39:57.528Z</time>
      </trkpt>
      <trkpt lat="43.70563" lon="3.56306">
        <ele>68</ele>
        <time>2022-05-12T06:39:58.322Z</time>
      </trkpt>
      <trkpt lat="43.70562" lon="3.56312">
        <ele>68</ele>
        <time>2022-05-12T06:39:59.136Z</time>
      </trkpt>
      <trkpt lat="43.7056" lon="3.56317">
        <ele>68</ele>
        <time>2022-05-12T06:39:59.892Z</time>
      </trkpt>
      <trkpt lat="43.70559" lon="3.56323">
        <ele>69</ele>
        <time>2022-05-12T06:40:03.033Z</time>
      </trkpt>
      <trkpt lat="43.70558" lon="3.56328">
        <ele>69</ele>
        <time>2022-05-12T06:40:03.719Z</time>
      </trkpt>
      <trkpt lat="43.70556" lon="3.56333">
        <ele>69</ele>
        <time>2022-05-12T06:40:04.475Z</time>
      </trkpt>
      <trkpt lat="43.70555" lon="3.56339">
        <ele>69</ele>
        <time>2022-05-12T06:40:05.290Z</time>
      </trkpt>
      <trkpt lat="43.70553" lon="3.56344">
        <ele>69</ele>
        <time>2022-05-12T06:40:06.045Z</time>
      </trkpt>
      <trkpt lat="43.70552" lon="3.5635">
        <ele>69</ele>
        <time>2022-05-12T06:40:06.860Z</time>
      </trkpt>
      <trkpt lat="43.70551" lon="3.56355">
        <ele>69</ele>
        <time>2022-05-12T06:40:07.546Z</time>
      </trkpt>
      <trkpt lat="43.70549" lon="3.56361">
        <ele>69</ele>
        <time>2022-05-12T06:40:08.420Z</time>
      </trkpt>
      <trkpt lat="43.70548" lon="3.56366">
        <ele>69</ele>
        <time>2022-05-12T06:40:09.106Z</time>
      </trkpt>
      <trkpt lat="43.70547" lon="3.56372">
        <ele>69</ele>
        <time>2022-05-12T06:40:09.920Z</time>
      </trkpt>
      <trkpt lat="43.70546" lon="3.56377">
        <ele>70</ele>
        <time>2022-05-12T06:40:12.567Z</time>
      </trkpt>
      <trkpt lat="43.70545" lon="3.56383">
        <ele>70</ele>
        <time>2022-05-12T06:40:13.381Z</time>
      </trkpt>
      <trkpt lat="43.70544" lon="3.56388">
        <ele>70</ele>
        <time>2022-05-12T06:40:14.067Z</time>
      </trkpt>
      <trkpt lat="43.70543" lon="3.56394">
        <ele>70</ele>
        <time>2022-05-12T06:40:14.882Z</time>
      </trkpt>
      <trkpt lat="43.70542" lon="3.564">
        <ele>70</ele>
        <time>2022-05-12T06:40:15.696Z</time>
      </trkpt>
      <trkpt lat="43.70541" lon="3.56406">
        <ele>70</ele>
        <time>2022-05-12T06:40:16.510Z</time>
      </trkpt>
      <trkpt lat="43.7054" lon="3.56411">
        <ele>70</ele>
        <time>2022-05-12T06:40:17.197Z</time>
      </trkpt>
      <trkpt lat="43.70539" lon="3.56417">
        <ele>70</ele>
        <time>2022-05-12T06:40:18.011Z</time>
      </trkpt>
      <trkpt lat="43.70538" lon="3.56422">
        <ele>70</ele>
        <time>2022-05-12T06:40:18.697Z</time>
      </trkpt>
      <trkpt lat="43.70538" lon="3.56427">
        <ele>70</ele>
        <time>2022-05-12T06:40:19.358Z</time>
      </trkpt>
      <trkpt lat="43.70537" lon="3.56433">
        <ele>71</ele>
        <time>2022-05-12T06:40:22.500Z</time>
      </trkpt>
      <trkpt lat="43.70536" lon="3.56439">
        <ele>71</ele>
        <time>2022-05-12T06:40:23.314Z</time>
      </trkpt>
      <trkpt lat="43.70535" lon="3.56444">
        <ele>71</ele>
        <time>2022-05-12T06:40:24.000Z</time>
      </trkpt>
      <trkpt lat="43.70534" lon="3.5645">
        <ele>71</ele>
        <time>2022-05-12T06:40:24.815Z</time>
      </trkpt>
      <trkpt lat="43.70533" lon="3.56456">
        <ele>71</ele>
        <time>2022-05-12T06:40:25.629Z</time>
      </trkpt>
      <trkpt lat="43.70532" lon="3.56461">
        <ele>71</ele>
        <time>2022-05-12T06:40:26.315Z</time>
      </trkpt>
      <trkpt lat="43.70531" lon="3.56467">
        <ele>71</ele>
        <time>2022-05-12T06:40:27.129Z</time>
      </trkpt>
      <trkpt lat="43.7053" lon="3.56472">
        <ele>71</ele>
        <time>2022-05-12T06:40:27.816Z</time>
      </trkpt>
      <trkpt lat="43.70529" lon="3.56477">
        <ele>71</ele>
        <time>2022-05-12T06:40:28.502Z</time>
      </trkpt>
      <trkpt lat="43.70527" lon="3.56483">
        <ele>71</ele>
        <time>2022-05-12T06:40:29.376Z</time>
      </trkpt>
      <trkpt lat="43.70526" lon="3.56488">
        <ele>72</ele>
        <time>2022-05-12T06:40:32.022Z</time>
      </trkpt>
      <trkpt lat="43.70524" lon="3.56493">
        <ele>72</ele>
        <time>2022-05-12T06:40:32.778Z</time>
      </trkpt>
      <trkpt lat="43.70522" lon="3.56497">
        <ele>72</ele>
        <time>2022-05-12T06:40:33.421Z</time>
      </trkpt>
      <trkpt lat="43.7052" lon="3.56501">
        <ele>72</ele>
        <time>2022-05-12T06:40:34.064Z</time>
      </trkpt>
      <trkpt lat="43.70516" lon="3.56504">
        <ele>72</ele>
        <time>2022-05-12T06:40:34.897Z</time>
      </trkpt>
      <trkpt lat="43.70513" lon="3.56508">
        <ele>72</ele>
        <time>2022-05-12T06:40:35.659Z</time>
      </trkpt>
      <trkpt lat="43.7051" lon="3.56512">
        <ele>72</ele>
        <time>2022-05-12T06:40:36.422Z</time>
      </trkpt>
      <trkpt lat="43.70507" lon="3.56517">
        <ele>72</ele>
        <time>2022-05-12T06:40:37.281Z</time>
      </trkpt>
      <trkpt lat="43.70505" lon="3.56524">
        <ele>72</ele>
        <time>2022-05-12T06:40:38.277Z</time>
      </trkpt>
      <trkpt lat="43.70503" lon="3.56531">
        <ele>72</ele>
        <time>2022-05-12T06:40:39.272Z</time>
      </trkpt>
      <trkpt lat="43.70502" lon="3.56538">
        <ele>72</ele>
        <time>2022-05-12T06:40:40.216Z</time>
      </trkpt>
      <trkpt lat="43.705" lon="3.56545">
        <ele>72</ele>
        <time>2022-05-12T06:40:41.211Z</time>
      </trkpt>
      <trkpt lat="43.70498" lon="3.56552">
        <ele>72</ele>
        <time>2022-05-12T06:40:42.207Z</time>
      </trkpt>
      <trkpt lat="43.70497" lon="3.56559">
        <ele>72</ele>
        <time>2022-05-12T06:40:43.151Z</time>
      </trkpt>
      <trkpt lat="43.70496" lon="3.56566">
        <ele>72</ele>
        <time>2022-05-12T06:40:44.094Z</time>
      </trkpt>
      <trkpt lat="43.70495" lon="3.56573">
        <ele>72</ele>
        <time>2022-05-12T06:40:45.038Z</time>
      </trkpt>
      <trkpt lat="43.70494" lon="3.56579">
        <ele>72</ele>
        <time>2022-05-12T06:40:45.852Z</time>
      </trkpt>
      <trkpt lat="43.70494" lon="3.56585">
        <ele>72</ele>
        <time>2022-05-12T06:40:46.646Z</time>
      </trkpt>
      <trkpt lat="43.70493" lon="3.56592">
        <ele>72</ele>
        <time>2022-05-12T06:40:47.590Z</time>
      </trkpt>
      <trkpt lat="43.70493" lon="3.56598">
        <ele>72</ele>
        <time>2022-05-12T06:40:48.383Z</time>
      </trkpt>
      <trkpt lat="43.70493" lon="3.56604">
        <ele>73</ele>
        <time>2022-05-12T06:40:51.444Z</time>
      </trkpt>
      <trkpt lat="43.70493" lon="3.5661">
        <ele>73</ele>
        <time>2022-05-12T06:40:52.238Z</time>
      </trkpt>
      <trkpt lat="43.70493" lon="3.56616">
        <ele>73</ele>
        <time>2022-05-12T06:40:53.031Z</time>
      </trkpt>
      <trkpt lat="43.70492" lon="3.56623">
        <ele>73</ele>
        <time>2022-05-12T06:40:53.975Z</time>
      </trkpt>
      <trkpt lat="43.70492" lon="3.56629">
        <ele>73</ele>
        <time>2022-05-12T06:40:54.769Z</time>
      </trkpt>
      <trkpt lat="43.70492" lon="3.56636">
        <ele>73</ele>
        <time>2022-05-12T06:40:55.695Z</time>
      </trkpt>
      <trkpt lat="43.70491" lon="3.56643">
        <ele>73</ele>
        <time>2022-05-12T06:40:56.638Z</time>
      </trkpt>
      <trkpt lat="43.70491" lon="3.5665">
        <ele>73</ele>
        <time>2022-05-12T06:40:57.564Z</time>
      </trkpt>
      <trkpt lat="43.70491" lon="3.56657">
        <ele>73</ele>
        <time>2022-05-12T06:40:58.490Z</time>
      </trkpt>
      <trkpt lat="43.7049" lon="3.56664">
        <ele>73</ele>
        <time>2022-05-12T06:40:59.434Z</time>
      </trkpt>
      <trkpt lat="43.7049" lon="3.56671">
        <ele>72</ele>
        <time>2022-05-12T06:40:59.884Z</time>
      </trkpt>
      <trkpt lat="43.70489" lon="3.56678">
        <ele>72</ele>
        <time>2022-05-12T06:41:00.828Z</time>
      </trkpt>
      <trkpt lat="43.70489" lon="3.56685">
        <ele>72</ele>
        <time>2022-05-12T06:41:01.754Z</time>
      </trkpt>
      <trkpt lat="43.70489" lon="3.56692">
        <ele>72</ele>
        <time>2022-05-12T06:41:02.680Z</time>
      </trkpt>
      <trkpt lat="43.70489" lon="3.56698">
        <ele>72</ele>
        <time>2022-05-12T06:41:03.473Z</time>
      </trkpt>
      <trkpt lat="43.70489" lon="3.56705">
        <ele>72</ele>
        <time>2022-05-12T06:41:04.399Z</time>
      </trkpt>
      <trkpt lat="43.70489" lon="3.56712">
        <ele>72</ele>
        <time>2022-05-12T06:41:05.325Z</time>
      </trkpt>
      <trkpt lat="43.70489" lon="3.56718">
        <ele>72</ele>
        <time>2022-05-12T06:41:06.118Z</time>
      </trkpt>
      <trkpt lat="43.70489" lon="3.56724">
        <ele>72</ele>
        <time>2022-05-12T06:41:06.912Z</time>
      </trkpt>
      <trkpt lat="43.70489" lon="3.56731">
        <ele>72</ele>
        <time>2022-05-12T06:41:07.838Z</time>
      </trkpt>
      <trkpt lat="43.70489" lon="3.56737">
        <ele>72</ele>
        <time>2022-05-12T06:41:08.631Z</time>
      </trkpt>
      <trkpt lat="43.70489" lon="3.56743">
        <ele>72</ele>
        <time>2022-05-12T06:41:09.425Z</time>
      </trkpt>
      <trkpt lat="43.70489" lon="3.56749">
        <ele>72</ele>
        <time>2022-05-12T06:41:10.219Z</time>
      </trkpt>
      <trkpt lat="43.70489" lon="3.56755">
        <ele>72</ele>
        <time>2022-05-12T06:41:11.012Z</time>
      </trkpt>
      <trkpt lat="43.70489" lon="3.56761">
        <ele>72</ele>
        <time>2022-05-12T06:41:11.806Z</time>
      </trkpt>
      <trkpt lat="43.70489" lon="3.56768">
        <ele>72</ele>
        <time>2022-05-12T06:41:12.732Z</time>
      </trkpt>
      <trkpt lat="43.70489" lon="3.56774">
        <ele>72</ele>
        <time>2022-05-12T06:41:13.525Z</time>
      </trkpt>
      <trkpt lat="43.70489" lon="3.56781">
        <ele>72</ele>
        <time>2022-05-12T06:41:14.451Z</time>
      </trkpt>
      <trkpt lat="43.70489" lon="3.56787">
        <ele>72</ele>
        <time>2022-05-12T06:41:15.244Z</time>
      </trkpt>
      <trkpt lat="43.70489" lon="3.56793">
        <ele>72</ele>
        <time>2022-05-12T06:41:16.038Z</time>
      </trkpt>
      <trkpt lat="43.70489" lon="3.568">
        <ele>72</ele>
        <time>2022-05-12T06:41:16.964Z</time>
      </trkpt>
      <trkpt lat="43.70489" lon="3.56806">
        <ele>72</ele>
        <time>2022-05-12T06:41:17.757Z</time>
      </trkpt>
      <trkpt lat="43.7049" lon="3.56812">
        <ele>72</ele>
        <time>2022-05-12T06:41:18.572Z</time>
      </trkpt>
      <trkpt lat="43.7049" lon="3.56818">
        <ele>72</ele>
        <time>2022-05-12T06:41:19.365Z</time>
      </trkpt>
      <trkpt lat="43.7049" lon="3.56824">
        <ele>72</ele>
        <time>2022-05-12T06:41:20.159Z</time>
      </trkpt>
      <trkpt lat="43.70491" lon="3.56829">
        <ele>72</ele>
        <time>2022-05-12T06:41:20.845Z</time>
      </trkpt>
      <trkpt lat="43.70491" lon="3.56835">
        <ele>72</ele>
        <time>2022-05-12T06:41:21.639Z</time>
      </trkpt>
      <trkpt lat="43.70491" lon="3.5684">
        <ele>72</ele>
        <time>2022-05-12T06:41:22.300Z</time>
      </trkpt>
      <trkpt lat="43.70491" lon="3.56845">
        <ele>72</ele>
        <time>2022-05-12T06:41:22.961Z</time>
      </trkpt>
      <trkpt lat="43.70491" lon="3.56849">
        <ele>72</ele>
        <time>2022-05-12T06:41:23.490Z</time>
      </trkpt>
      <trkpt lat="43.7049" lon="3.56854">
        <ele>72</ele>
        <time>2022-05-12T06:41:24.177Z</time>
      </trkpt>
      <trkpt lat="43.70488" lon="3.56859">
        <ele>72</ele>
        <time>2022-05-12T06:41:24.932Z</time>
      </trkpt>
      <trkpt lat="43.70486" lon="3.56863">
        <ele>72</ele>
        <time>2022-05-12T06:41:25.576Z</time>
      </trkpt>
      <trkpt lat="43.70484" lon="3.56868">
        <ele>72</ele>
        <time>2022-05-12T06:41:26.331Z</time>
      </trkpt>
      <trkpt lat="43.70481" lon="3.56872">
        <ele>72</ele>
        <time>2022-05-12T06:41:27.094Z</time>
      </trkpt>
      <trkpt lat="43.70478" lon="3.56876">
        <ele>72</ele>
        <time>2022-05-12T06:41:27.856Z</time>
      </trkpt>
      <trkpt lat="43.70475" lon="3.5688">
        <ele>72</ele>
        <time>2022-05-12T06:41:28.618Z</time>
      </trkpt>
      <trkpt lat="43.70472" lon="3.56884">
        <ele>72</ele>
        <time>2022-05-12T06:41:29.381Z</time>
      </trkpt>
      <trkpt lat="43.70469" lon="3.56889">
        <ele>72</ele>
        <time>2022-05-12T06:41:30.240Z</time>
      </trkpt>
      <trkpt lat="43.70467" lon="3.56893">
        <ele>72</ele>
        <time>2022-05-12T06:41:30.883Z</time>
      </trkpt>
      <trkpt lat="43.70465" lon="3.56898">
        <ele>72</ele>
        <time>2022-05-12T06:41:31.639Z</time>
      </trkpt>
      <trkpt lat="43.70463" lon="3.56903">
        <ele>72</ele>
        <time>2022-05-12T06:41:32.395Z</time>
      </trkpt>
      <trkpt lat="43.70461" lon="3.56908">
        <ele>72</ele>
        <time>2022-05-12T06:41:33.151Z</time>
      </trkpt>
      <trkpt lat="43.7046" lon="3.56913">
        <ele>72</ele>
        <time>2022-05-12T06:41:33.837Z</time>
      </trkpt>
      <trkpt lat="43.70458" lon="3.56918">
        <ele>72</ele>
        <time>2022-05-12T06:41:34.593Z</time>
      </trkpt>
      <trkpt lat="43.70457" lon="3.56924">
        <ele>72</ele>
        <time>2022-05-12T06:41:35.407Z</time>
      </trkpt>
      <trkpt lat="43.70456" lon="3.56929">
        <ele>72</ele>
        <time>2022-05-12T06:41:36.093Z</time>
      </trkpt>
      <trkpt lat="43.70455" lon="3.56935">
        <ele>72</ele>
        <time>2022-05-12T06:41:36.908Z</time>
      </trkpt>
      <trkpt lat="43.70454" lon="3.56941">
        <ele>72</ele>
        <time>2022-05-12T06:41:37.722Z</time>
      </trkpt>
      <trkpt lat="43.70453" lon="3.56947">
        <ele>72</ele>
        <time>2022-05-12T06:41:38.536Z</time>
      </trkpt>
      <trkpt lat="43.70452" lon="3.56952">
        <ele>72</ele>
        <time>2022-05-12T06:41:39.223Z</time>
      </trkpt>
      <trkpt lat="43.70451" lon="3.56958">
        <ele>72</ele>
        <time>2022-05-12T06:41:40.037Z</time>
      </trkpt>
      <trkpt lat="43.70451" lon="3.56963">
        <ele>72</ele>
        <time>2022-05-12T06:41:40.698Z</time>
      </trkpt>
      <trkpt lat="43.70451" lon="3.56968">
        <ele>72</ele>
        <time>2022-05-12T06:41:41.360Z</time>
      </trkpt>
      <trkpt lat="43.70452" lon="3.56973">
        <ele>72</ele>
        <time>2022-05-12T06:41:42.046Z</time>
      </trkpt>
      <trkpt lat="43.70452" lon="3.56979">
        <ele>72</ele>
        <time>2022-05-12T06:41:42.839Z</time>
      </trkpt>
      <trkpt lat="43.70453" lon="3.56984">
        <ele>72</ele>
        <time>2022-05-12T06:41:43.526Z</time>
      </trkpt>
      <trkpt lat="43.70454" lon="3.56989">
        <ele>72</ele>
        <time>2022-05-12T06:41:44.212Z</time>
      </trkpt>
      <trkpt lat="43.70455" lon="3.56995">
        <ele>72</ele>
        <time>2022-05-12T06:41:45.026Z</time>
      </trkpt>
      <trkpt lat="43.70456" lon="3.57">
        <ele>72</ele>
        <time>2022-05-12T06:41:45.712Z</time>
      </trkpt>
      <trkpt lat="43.70457" lon="3.57006">
        <ele>72</ele>
        <time>2022-05-12T06:41:46.527Z</time>
      </trkpt>
      <trkpt lat="43.70458" lon="3.57012">
        <ele>72</ele>
        <time>2022-05-12T06:41:47.341Z</time>
      </trkpt>
      <trkpt lat="43.70459" lon="3.57017">
        <ele>72</ele>
        <time>2022-05-12T06:41:48.027Z</time>
      </trkpt>
      <trkpt lat="43.7046" lon="3.57024">
        <ele>72</ele>
        <time>2022-05-12T06:41:48.971Z</time>
      </trkpt>
      <trkpt lat="43.70461" lon="3.5703">
        <ele>72</ele>
        <time>2022-05-12T06:41:49.785Z</time>
      </trkpt>
      <trkpt lat="43.70462" lon="3.57037">
        <ele>72</ele>
        <time>2022-05-12T06:41:50.729Z</time>
      </trkpt>
      <trkpt lat="43.70463" lon="3.57045">
        <ele>72</ele>
        <time>2022-05-12T06:41:51.803Z</time>
      </trkpt>
      <trkpt lat="43.70464" lon="3.57052">
        <ele>72</ele>
        <time>2022-05-12T06:41:52.747Z</time>
      </trkpt>
      <trkpt lat="43.70465" lon="3.57059">
        <ele>72</ele>
        <time>2022-05-12T06:41:53.690Z</time>
      </trkpt>
      <trkpt lat="43.70467" lon="3.57065">
        <ele>72</ele>
        <time>2022-05-12T06:41:54.564Z</time>
      </trkpt>
      <trkpt lat="43.70468" lon="3.57072">
        <ele>71</ele>
        <time>2022-05-12T06:41:55.023Z</time>
      </trkpt>
      <trkpt lat="43.70469" lon="3.57078">
        <ele>71</ele>
        <time>2022-05-12T06:41:55.838Z</time>
      </trkpt>
      <trkpt lat="43.7047" lon="3.57084">
        <ele>71</ele>
        <time>2022-05-12T06:41:56.652Z</time>
      </trkpt>
      <trkpt lat="43.70472" lon="3.5709">
        <ele>71</ele>
        <time>2022-05-12T06:41:57.526Z</time>
      </trkpt>
      <trkpt lat="43.70473" lon="3.57096">
        <ele>71</ele>
        <time>2022-05-12T06:41:58.341Z</time>
      </trkpt>
      <trkpt lat="43.70474" lon="3.57102">
        <ele>71</ele>
        <time>2022-05-12T06:41:59.155Z</time>
      </trkpt>
      <trkpt lat="43.70475" lon="3.57108">
        <ele>71</ele>
        <time>2022-05-12T06:41:59.969Z</time>
      </trkpt>
      <trkpt lat="43.70476" lon="3.57114">
        <ele>71</ele>
        <time>2022-05-12T06:42:00.784Z</time>
      </trkpt>
      <trkpt lat="43.70477" lon="3.5712">
        <ele>71</ele>
        <time>2022-05-12T06:42:01.598Z</time>
      </trkpt>
      <trkpt lat="43.70477" lon="3.57126">
        <ele>71</ele>
        <time>2022-05-12T06:42:02.392Z</time>
      </trkpt>
      <trkpt lat="43.70477" lon="3.57133">
        <ele>71</ele>
        <time>2022-05-12T06:42:03.317Z</time>
      </trkpt>
      <trkpt lat="43.70478" lon="3.57139">
        <ele>71</ele>
        <time>2022-05-12T06:42:04.132Z</time>
      </trkpt>
      <trkpt lat="43.70478" lon="3.57146">
        <ele>71</ele>
        <time>2022-05-12T06:42:05.058Z</time>
      </trkpt>
      <trkpt lat="43.70479" lon="3.57152">
        <ele>71</ele>
        <time>2022-05-12T06:42:05.872Z</time>
      </trkpt>
      <trkpt lat="43.70479" lon="3.57158">
        <ele>71</ele>
        <time>2022-05-12T06:42:06.666Z</time>
      </trkpt>
      <trkpt lat="43.7048" lon="3.57165">
        <ele>71</ele>
        <time>2022-05-12T06:42:07.609Z</time>
      </trkpt>
      <trkpt lat="43.7048" lon="3.57171">
        <ele>71</ele>
        <time>2022-05-12T06:42:08.403Z</time>
      </trkpt>
      <trkpt lat="43.7048" lon="3.57177">
        <ele>71</ele>
        <time>2022-05-12T06:42:09.197Z</time>
      </trkpt>
      <trkpt lat="43.7048" lon="3.57183">
        <ele>71</ele>
        <time>2022-05-12T06:42:09.990Z</time>
      </trkpt>
      <trkpt lat="43.70481" lon="3.5719">
        <ele>71</ele>
        <time>2022-05-12T06:42:10.934Z</time>
      </trkpt>
      <trkpt lat="43.70481" lon="3.57196">
        <ele>70</ele>
        <time>2022-05-12T06:42:11.320Z</time>
      </trkpt>
      <trkpt lat="43.70481" lon="3.57203">
        <ele>70</ele>
        <time>2022-05-12T06:42:12.246Z</time>
      </trkpt>
      <trkpt lat="43.70481" lon="3.57209">
        <ele>70</ele>
        <time>2022-05-12T06:42:13.039Z</time>
      </trkpt>
      <trkpt lat="43.70481" lon="3.57216">
        <ele>70</ele>
        <time>2022-05-12T06:42:13.965Z</time>
      </trkpt>
      <trkpt lat="43.70481" lon="3.57223">
        <ele>70</ele>
        <time>2022-05-12T06:42:14.891Z</time>
      </trkpt>
      <trkpt lat="43.70482" lon="3.5723">
        <ele>70</ele>
        <time>2022-05-12T06:42:15.835Z</time>
      </trkpt>
      <trkpt lat="43.70482" lon="3.57236">
        <ele>70</ele>
        <time>2022-05-12T06:42:16.628Z</time>
      </trkpt>
      <trkpt lat="43.70483" lon="3.57243">
        <ele>70</ele>
        <time>2022-05-12T06:42:17.572Z</time>
      </trkpt>
      <trkpt lat="43.70483" lon="3.5725">
        <ele>70</ele>
        <time>2022-05-12T06:42:18.498Z</time>
      </trkpt>
      <trkpt lat="43.70484" lon="3.57256">
        <ele>70</ele>
        <time>2022-05-12T06:42:19.312Z</time>
      </trkpt>
      <trkpt lat="43.70484" lon="3.57262">
        <ele>70</ele>
        <time>2022-05-12T06:42:20.106Z</time>
      </trkpt>
      <trkpt lat="43.70485" lon="3.57269">
        <ele>70</ele>
        <time>2022-05-12T06:42:21.050Z</time>
      </trkpt>
      <trkpt lat="43.70485" lon="3.57275">
        <ele>70</ele>
        <time>2022-05-12T06:42:21.843Z</time>
      </trkpt>
      <trkpt lat="43.70485" lon="3.57281">
        <ele>70</ele>
        <time>2022-05-12T06:42:22.637Z</time>
      </trkpt>
      <trkpt lat="43.70486" lon="3.57287">
        <ele>70</ele>
        <time>2022-05-12T06:42:23.451Z</time>
      </trkpt>
      <trkpt lat="43.70487" lon="3.57293">
        <ele>70</ele>
        <time>2022-05-12T06:42:24.266Z</time>
      </trkpt>
      <trkpt lat="43.70487" lon="3.57299">
        <ele>70</ele>
        <time>2022-05-12T06:42:25.059Z</time>
      </trkpt>
      <trkpt lat="43.70488" lon="3.57304">
        <ele>70</ele>
        <time>2022-05-12T06:42:25.745Z</time>
      </trkpt>
      <trkpt lat="43.70488" lon="3.57309">
        <ele>70</ele>
        <time>2022-05-12T06:42:26.407Z</time>
      </trkpt>
      <trkpt lat="43.70489" lon="3.57315">
        <ele>70</ele>
        <time>2022-05-12T06:42:27.221Z</time>
      </trkpt>
      <trkpt lat="43.70489" lon="3.5732">
        <ele>70</ele>
        <time>2022-05-12T06:42:27.882Z</time>
      </trkpt>
      <trkpt lat="43.70489" lon="3.57324">
        <ele>70</ele>
        <time>2022-05-12T06:42:28.411Z</time>
      </trkpt>
      <trkpt lat="43.7049" lon="3.57329">
        <ele>70</ele>
        <time>2022-05-12T06:42:29.098Z</time>
      </trkpt>
      <trkpt lat="43.7049" lon="3.57333">
        <ele>70</ele>
        <time>2022-05-12T06:42:29.627Z</time>
      </trkpt>
      <trkpt lat="43.70491" lon="3.57338">
        <ele>70</ele>
        <time>2022-05-12T06:42:30.313Z</time>
      </trkpt>
      <trkpt lat="43.70491" lon="3.57342">
        <ele>70</ele>
        <time>2022-05-12T06:42:30.842Z</time>
      </trkpt>
      <trkpt lat="43.70492" lon="3.57345">
        <ele>70</ele>
        <time>2022-05-12T06:42:31.279Z</time>
      </trkpt>
      <trkpt lat="43.70494" lon="3.57347">
        <ele>70</ele>
        <time>2022-05-12T06:42:31.730Z</time>
      </trkpt>
      <trkpt lat="43.70497" lon="3.57348">
        <ele>70</ele>
        <time>2022-05-12T06:42:32.295Z</time>
      </trkpt>
      <trkpt lat="43.70501" lon="3.5735">
        <ele>72</ele>
        <time>2022-05-12T06:42:35.296Z</time>
      </trkpt>
      <trkpt lat="43.70503" lon="3.57354">
        <ele>72</ele>
        <time>2022-05-12T06:42:35.940Z</time>
      </trkpt>
      <trkpt lat="43.70505" lon="3.5736">
        <ele>72</ele>
        <time>2022-05-12T06:42:36.813Z</time>
      </trkpt>
      <trkpt lat="43.70506" lon="3.57366">
        <ele>72</ele>
        <time>2022-05-12T06:42:37.628Z</time>
      </trkpt>
      <trkpt lat="43.70506" lon="3.57373">
        <ele>72</ele>
        <time>2022-05-12T06:42:38.554Z</time>
      </trkpt>
      <trkpt lat="43.70507" lon="3.5738">
        <ele>72</ele>
        <time>2022-05-12T06:42:39.497Z</time>
      </trkpt>
      <trkpt lat="43.70507" lon="3.57387">
        <ele>72</ele>
        <time>2022-05-12T06:42:40.423Z</time>
      </trkpt>
      <trkpt lat="43.70508" lon="3.57394">
        <ele>72</ele>
        <time>2022-05-12T06:42:41.367Z</time>
      </trkpt>
      <trkpt lat="43.70508" lon="3.57401">
        <ele>72</ele>
        <time>2022-05-12T06:42:42.293Z</time>
      </trkpt>
      <trkpt lat="43.70509" lon="3.57409">
        <ele>72</ele>
        <time>2022-05-12T06:42:43.367Z</time>
      </trkpt>
      <trkpt lat="43.70509" lon="3.57416">
        <ele>72</ele>
        <time>2022-05-12T06:42:44.292Z</time>
      </trkpt>
      <trkpt lat="43.7051" lon="3.57424">
        <ele>72</ele>
        <time>2022-05-12T06:42:45.366Z</time>
      </trkpt>
      <trkpt lat="43.7051" lon="3.57431">
        <ele>72</ele>
        <time>2022-05-12T06:42:46.292Z</time>
      </trkpt>
      <trkpt lat="43.7051" lon="3.57438">
        <ele>72</ele>
        <time>2022-05-12T06:42:47.218Z</time>
      </trkpt>
      <trkpt lat="43.70511" lon="3.57446">
        <ele>72</ele>
        <time>2022-05-12T06:42:48.292Z</time>
      </trkpt>
      <trkpt lat="43.70511" lon="3.57453">
        <ele>72</ele>
        <time>2022-05-12T06:42:49.218Z</time>
      </trkpt>
      <trkpt lat="43.70512" lon="3.5746">
        <ele>72</ele>
        <time>2022-05-12T06:42:50.161Z</time>
      </trkpt>
      <trkpt lat="43.70512" lon="3.57468">
        <ele>72</ele>
        <time>2022-05-12T06:42:51.219Z</time>
      </trkpt>
      <trkpt lat="43.70513" lon="3.57475">
        <ele>72</ele>
        <time>2022-05-12T06:42:52.163Z</time>
      </trkpt>
      <trkpt lat="43.70513" lon="3.57482">
        <ele>72</ele>
        <time>2022-05-12T06:42:53.089Z</time>
      </trkpt>
      <trkpt lat="43.70513" lon="3.57489">
        <ele>72</ele>
        <time>2022-05-12T06:42:54.015Z</time>
      </trkpt>
      <trkpt lat="43.70514" lon="3.57496">
        <ele>72</ele>
        <time>2022-05-12T06:42:54.959Z</time>
      </trkpt>
      <trkpt lat="43.70514" lon="3.57503">
        <ele>72</ele>
        <time>2022-05-12T06:42:55.884Z</time>
      </trkpt>
      <trkpt lat="43.70515" lon="3.5751">
        <ele>72</ele>
        <time>2022-05-12T06:42:56.828Z</time>
      </trkpt>
      <trkpt lat="43.70515" lon="3.57517">
        <ele>72</ele>
        <time>2022-05-12T06:42:57.754Z</time>
      </trkpt>
      <trkpt lat="43.70516" lon="3.57523">
        <ele>72</ele>
        <time>2022-05-12T06:42:58.568Z</time>
      </trkpt>
      <trkpt lat="43.70516" lon="3.5753">
        <ele>72</ele>
        <time>2022-05-12T06:42:59.494Z</time>
      </trkpt>
      <trkpt lat="43.70516" lon="3.57537">
        <ele>72</ele>
        <time>2022-05-12T06:43:00.420Z</time>
      </trkpt>
      <trkpt lat="43.70516" lon="3.57544">
        <ele>72</ele>
        <time>2022-05-12T06:43:01.346Z</time>
      </trkpt>
      <trkpt lat="43.70516" lon="3.5755">
        <ele>72</ele>
        <time>2022-05-12T06:43:02.139Z</time>
      </trkpt>
      <trkpt lat="43.70516" lon="3.57557">
        <ele>72</ele>
        <time>2022-05-12T06:43:03.065Z</time>
      </trkpt>
      <trkpt lat="43.70516" lon="3.57564">
        <ele>72</ele>
        <time>2022-05-12T06:43:03.991Z</time>
      </trkpt>
      <trkpt lat="43.70515" lon="3.5757">
        <ele>72</ele>
        <time>2022-05-12T06:43:04.805Z</time>
      </trkpt>
      <trkpt lat="43.70514" lon="3.57577">
        <ele>72</ele>
        <time>2022-05-12T06:43:05.749Z</time>
      </trkpt>
      <trkpt lat="43.70513" lon="3.57583">
        <ele>72</ele>
        <time>2022-05-12T06:43:06.564Z</time>
      </trkpt>
      <trkpt lat="43.70513" lon="3.5759">
        <ele>72</ele>
        <time>2022-05-12T06:43:07.489Z</time>
      </trkpt>
      <trkpt lat="43.70512" lon="3.57596">
        <ele>72</ele>
        <time>2022-05-12T06:43:08.304Z</time>
      </trkpt>
      <trkpt lat="43.70511" lon="3.57602">
        <ele>72</ele>
        <time>2022-05-12T06:43:09.118Z</time>
      </trkpt>
      <trkpt lat="43.70511" lon="3.57608">
        <ele>72</ele>
        <time>2022-05-12T06:43:09.912Z</time>
      </trkpt>
      <trkpt lat="43.7051" lon="3.57614">
        <ele>72</ele>
        <time>2022-05-12T06:43:10.726Z</time>
      </trkpt>
      <trkpt lat="43.7051" lon="3.5762">
        <ele>72</ele>
        <time>2022-05-12T06:43:11.520Z</time>
      </trkpt>
      <trkpt lat="43.70509" lon="3.57627">
        <ele>72</ele>
        <time>2022-05-12T06:43:12.463Z</time>
      </trkpt>
      <trkpt lat="43.70508" lon="3.57633">
        <ele>72</ele>
        <time>2022-05-12T06:43:13.278Z</time>
      </trkpt>
      <trkpt lat="43.70508" lon="3.57639">
        <ele>72</ele>
        <time>2022-05-12T06:43:14.071Z</time>
      </trkpt>
      <trkpt lat="43.70508" lon="3.57645">
        <ele>72</ele>
        <time>2022-05-12T06:43:14.865Z</time>
      </trkpt>
      <trkpt lat="43.70507" lon="3.57651">
        <ele>72</ele>
        <time>2022-05-12T06:43:15.679Z</time>
      </trkpt>
      <trkpt lat="43.70507" lon="3.57658">
        <ele>72</ele>
        <time>2022-05-12T06:43:16.605Z</time>
      </trkpt>
      <trkpt lat="43.70507" lon="3.57664">
        <ele>72</ele>
        <time>2022-05-12T06:43:17.399Z</time>
      </trkpt>
      <trkpt lat="43.70507" lon="3.5767">
        <ele>72</ele>
        <time>2022-05-12T06:43:18.192Z</time>
      </trkpt>
      <trkpt lat="43.70507" lon="3.57677">
        <ele>72</ele>
        <time>2022-05-12T06:43:19.118Z</time>
      </trkpt>
      <trkpt lat="43.70507" lon="3.57683">
        <ele>72</ele>
        <time>2022-05-12T06:43:19.912Z</time>
      </trkpt>
      <trkpt lat="43.70506" lon="3.5769">
        <ele>73</ele>
        <time>2022-05-12T06:43:23.552Z</time>
      </trkpt>
      <trkpt lat="43.70506" lon="3.57696">
        <ele>73</ele>
        <time>2022-05-12T06:43:24.345Z</time>
      </trkpt>
      <trkpt lat="43.70506" lon="3.57702">
        <ele>73</ele>
        <time>2022-05-12T06:43:25.139Z</time>
      </trkpt>
      <trkpt lat="43.70507" lon="3.57708">
        <ele>73</ele>
        <time>2022-05-12T06:43:25.953Z</time>
      </trkpt>
      <trkpt lat="43.70507" lon="3.57715">
        <ele>73</ele>
        <time>2022-05-12T06:43:26.879Z</time>
      </trkpt>
      <trkpt lat="43.70507" lon="3.57721">
        <ele>73</ele>
        <time>2022-05-12T06:43:27.673Z</time>
      </trkpt>
      <trkpt lat="43.70507" lon="3.57727">
        <ele>73</ele>
        <time>2022-05-12T06:43:28.466Z</time>
      </trkpt>
      <trkpt lat="43.70507" lon="3.57733">
        <ele>73</ele>
        <time>2022-05-12T06:43:29.260Z</time>
      </trkpt>
      <trkpt lat="43.70507" lon="3.57739">
        <ele>73</ele>
        <time>2022-05-12T06:43:30.053Z</time>
      </trkpt>
      <trkpt lat="43.70507" lon="3.57745">
        <ele>73</ele>
        <time>2022-05-12T06:43:30.847Z</time>
      </trkpt>
      <trkpt lat="43.70507" lon="3.57751">
        <ele>74</ele>
        <time>2022-05-12T06:43:33.908Z</time>
      </trkpt>
      <trkpt lat="43.70507" lon="3.57758">
        <ele>74</ele>
        <time>2022-05-12T06:43:34.834Z</time>
      </trkpt>
      <trkpt lat="43.70507" lon="3.57764">
        <ele>74</ele>
        <time>2022-05-12T06:43:35.627Z</time>
      </trkpt>
      <trkpt lat="43.70507" lon="3.5777">
        <ele>74</ele>
        <time>2022-05-12T06:43:36.421Z</time>
      </trkpt>
      <trkpt lat="43.70507" lon="3.57776">
        <ele>74</ele>
        <time>2022-05-12T06:43:37.214Z</time>
      </trkpt>
      <trkpt lat="43.70507" lon="3.57782">
        <ele>74</ele>
        <time>2022-05-12T06:43:38.008Z</time>
      </trkpt>
      <trkpt lat="43.70507" lon="3.57788">
        <ele>74</ele>
        <time>2022-05-12T06:43:38.802Z</time>
      </trkpt>
      <trkpt lat="43.70508" lon="3.57795">
        <ele>74</ele>
        <time>2022-05-12T06:43:39.745Z</time>
      </trkpt>
      <trkpt lat="43.70508" lon="3.57801">
        <ele>74</ele>
        <time>2022-05-12T06:43:40.539Z</time>
      </trkpt>
      <trkpt lat="43.70508" lon="3.57807">
        <ele>74</ele>
        <time>2022-05-12T06:43:41.332Z</time>
      </trkpt>
      <trkpt lat="43.70508" lon="3.57813">
        <ele>75</ele>
        <time>2022-05-12T06:43:44.393Z</time>
      </trkpt>
      <trkpt lat="43.70508" lon="3.57819">
        <ele>75</ele>
        <time>2022-05-12T06:43:45.187Z</time>
      </trkpt>
      <trkpt lat="43.70508" lon="3.57826">
        <ele>75</ele>
        <time>2022-05-12T06:43:46.113Z</time>
      </trkpt>
      <trkpt lat="43.70507" lon="3.57832">
        <ele>75</ele>
        <time>2022-05-12T06:43:46.927Z</time>
      </trkpt>
      <trkpt lat="43.70507" lon="3.57838">
        <ele>75</ele>
        <time>2022-05-12T06:43:47.721Z</time>
      </trkpt>
      <trkpt lat="43.70506" lon="3.57844">
        <ele>75</ele>
        <time>2022-05-12T06:43:48.535Z</time>
      </trkpt>
      <trkpt lat="43.70506" lon="3.5785">
        <ele>75</ele>
        <time>2022-05-12T06:43:49.329Z</time>
      </trkpt>
      <trkpt lat="43.70505" lon="3.57856">
        <ele>75</ele>
        <time>2022-05-12T06:43:50.143Z</time>
      </trkpt>
      <trkpt lat="43.70504" lon="3.57863">
        <ele>75</ele>
        <time>2022-05-12T06:43:51.087Z</time>
      </trkpt>
      <trkpt lat="43.70504" lon="3.57869">
        <ele>75</ele>
        <time>2022-05-12T06:43:51.880Z</time>
      </trkpt>
      <trkpt lat="43.70503" lon="3.57875">
        <ele>76</ele>
        <time>2022-05-12T06:43:55.022Z</time>
      </trkpt>
      <trkpt lat="43.70502" lon="3.57881">
        <ele>76</ele>
        <time>2022-05-12T06:43:55.836Z</time>
      </trkpt>
      <trkpt lat="43.70502" lon="3.57887">
        <ele>76</ele>
        <time>2022-05-12T06:43:56.630Z</time>
      </trkpt>
      <trkpt lat="43.70501" lon="3.57893">
        <ele>76</ele>
        <time>2022-05-12T06:43:57.444Z</time>
      </trkpt>
      <trkpt lat="43.70501" lon="3.57899">
        <ele>76</ele>
        <time>2022-05-12T06:43:58.237Z</time>
      </trkpt>
      <trkpt lat="43.705" lon="3.57905">
        <ele>76</ele>
        <time>2022-05-12T06:43:59.052Z</time>
      </trkpt>
      <trkpt lat="43.70499" lon="3.57911">
        <ele>76</ele>
        <time>2022-05-12T06:43:59.866Z</time>
      </trkpt>
      <trkpt lat="43.70499" lon="3.57916">
        <ele>76</ele>
        <time>2022-05-12T06:44:00.528Z</time>
      </trkpt>
      <trkpt lat="43.70498" lon="3.57922">
        <ele>76</ele>
        <time>2022-05-12T06:44:01.342Z</time>
      </trkpt>
      <trkpt lat="43.70498" lon="3.57928">
        <ele>76</ele>
        <time>2022-05-12T06:44:02.136Z</time>
      </trkpt>
      <trkpt lat="43.70497" lon="3.57934">
        <ele>77</ele>
        <time>2022-05-12T06:44:05.277Z</time>
      </trkpt>
      <trkpt lat="43.70496" lon="3.57939">
        <ele>77</ele>
        <time>2022-05-12T06:44:05.963Z</time>
      </trkpt>
      <trkpt lat="43.70496" lon="3.57945">
        <ele>77</ele>
        <time>2022-05-12T06:44:06.756Z</time>
      </trkpt>
      <trkpt lat="43.70495" lon="3.57951">
        <ele>77</ele>
        <time>2022-05-12T06:44:07.571Z</time>
      </trkpt>
      <trkpt lat="43.70495" lon="3.57957">
        <ele>77</ele>
        <time>2022-05-12T06:44:08.364Z</time>
      </trkpt>
      <trkpt lat="43.70494" lon="3.57962">
        <ele>77</ele>
        <time>2022-05-12T06:44:09.051Z</time>
      </trkpt>
      <trkpt lat="43.70493" lon="3.57968">
        <ele>77</ele>
        <time>2022-05-12T06:44:09.865Z</time>
      </trkpt>
      <trkpt lat="43.70493" lon="3.57974">
        <ele>77</ele>
        <time>2022-05-12T06:44:10.659Z</time>
      </trkpt>
      <trkpt lat="43.70492" lon="3.5798">
        <ele>77</ele>
        <time>2022-05-12T06:44:11.473Z</time>
      </trkpt>
      <trkpt lat="43.70492" lon="3.57985">
        <ele>77</ele>
        <time>2022-05-12T06:44:12.134Z</time>
      </trkpt>
      <trkpt lat="43.70492" lon="3.57991">
        <ele>77</ele>
        <time>2022-05-12T06:44:12.928Z</time>
      </trkpt>
      <trkpt lat="43.70492" lon="3.57997">
        <ele>77</ele>
        <time>2022-05-12T06:44:13.721Z</time>
      </trkpt>
      <trkpt lat="43.70491" lon="3.58003">
        <ele>77</ele>
        <time>2022-05-12T06:44:14.536Z</time>
      </trkpt>
      <trkpt lat="43.70491" lon="3.58009">
        <ele>77</ele>
        <time>2022-05-12T06:44:15.329Z</time>
      </trkpt>
      <trkpt lat="43.70491" lon="3.58015">
        <ele>77</ele>
        <time>2022-05-12T06:44:16.123Z</time>
      </trkpt>
      <trkpt lat="43.70491" lon="3.58021">
        <ele>77</ele>
        <time>2022-05-12T06:44:16.916Z</time>
      </trkpt>
      <trkpt lat="43.70491" lon="3.58027">
        <ele>77</ele>
        <time>2022-05-12T06:44:17.710Z</time>
      </trkpt>
      <trkpt lat="43.70491" lon="3.58033">
        <ele>77</ele>
        <time>2022-05-12T06:44:18.504Z</time>
      </trkpt>
      <trkpt lat="43.7049" lon="3.58039">
        <ele>77</ele>
        <time>2022-05-12T06:44:19.318Z</time>
      </trkpt>
      <trkpt lat="43.7049" lon="3.58044">
        <ele>77</ele>
        <time>2022-05-12T06:44:19.979Z</time>
      </trkpt>
      <trkpt lat="43.7049" lon="3.5805">
        <ele>78</ele>
        <time>2022-05-12T06:44:23.040Z</time>
      </trkpt>
      <trkpt lat="43.70489" lon="3.58056">
        <ele>78</ele>
        <time>2022-05-12T06:44:23.855Z</time>
      </trkpt>
      <trkpt lat="43.70489" lon="3.58062">
        <ele>78</ele>
        <time>2022-05-12T06:44:24.648Z</time>
      </trkpt>
      <trkpt lat="43.70489" lon="3.58067">
        <ele>78</ele>
        <time>2022-05-12T06:44:25.310Z</time>
      </trkpt>
      <trkpt lat="43.70488" lon="3.58073">
        <ele>78</ele>
        <time>2022-05-12T06:44:26.124Z</time>
      </trkpt>
      <trkpt lat="43.70488" lon="3.58079">
        <ele>78</ele>
        <time>2022-05-12T06:44:26.917Z</time>
      </trkpt>
      <trkpt lat="43.70488" lon="3.58084">
        <ele>78</ele>
        <time>2022-05-12T06:44:27.579Z</time>
      </trkpt>
      <trkpt lat="43.70487" lon="3.5809">
        <ele>78</ele>
        <time>2022-05-12T06:44:28.393Z</time>
      </trkpt>
      <trkpt lat="43.70487" lon="3.58095">
        <ele>78</ele>
        <time>2022-05-12T06:44:29.054Z</time>
      </trkpt>
      <trkpt lat="43.70487" lon="3.58101">
        <ele>78</ele>
        <time>2022-05-12T06:44:29.848Z</time>
      </trkpt>
      <trkpt lat="43.70486" lon="3.58107">
        <ele>79</ele>
        <time>2022-05-12T06:44:32.989Z</time>
      </trkpt>
      <trkpt lat="43.70486" lon="3.58112">
        <ele>79</ele>
        <time>2022-05-12T06:44:33.651Z</time>
      </trkpt>
      <trkpt lat="43.70486" lon="3.58118">
        <ele>79</ele>
        <time>2022-05-12T06:44:34.444Z</time>
      </trkpt>
      <trkpt lat="43.70486" lon="3.58124">
        <ele>79</ele>
        <time>2022-05-12T06:44:35.238Z</time>
      </trkpt>
      <trkpt lat="43.70487" lon="3.5813">
        <ele>79</ele>
        <time>2022-05-12T06:44:36.052Z</time>
      </trkpt>
      <trkpt lat="43.70487" lon="3.58135">
        <ele>79</ele>
        <time>2022-05-12T06:44:36.713Z</time>
      </trkpt>
      <trkpt lat="43.70488" lon="3.58141">
        <ele>79</ele>
        <time>2022-05-12T06:44:37.528Z</time>
      </trkpt>
      <trkpt lat="43.7049" lon="3.58146">
        <ele>79</ele>
        <time>2022-05-12T06:44:38.284Z</time>
      </trkpt>
      <trkpt lat="43.70493" lon="3.58149">
        <ele>79</ele>
        <time>2022-05-12T06:44:38.961Z</time>
      </trkpt>
      <trkpt lat="43.70496" lon="3.58151">
        <ele>79</ele>
        <time>2022-05-12T06:44:39.570Z</time>
      </trkpt>
      <trkpt lat="43.705" lon="3.58152">
        <ele>80</ele>
        <time>2022-05-12T06:44:42.439Z</time>
      </trkpt>
      <trkpt lat="43.70505" lon="3.58152">
        <ele>80</ele>
        <time>2022-05-12T06:44:43.353Z</time>
      </trkpt>
      <trkpt lat="43.70509" lon="3.58152">
        <ele>80</ele>
        <time>2022-05-12T06:44:44.085Z</time>
      </trkpt>
      <trkpt lat="43.70513" lon="3.58152">
        <ele>80</ele>
        <time>2022-05-12T06:44:44.817Z</time>
      </trkpt>
      <trkpt lat="43.70517" lon="3.58152">
        <ele>80</ele>
        <time>2022-05-12T06:44:45.549Z</time>
      </trkpt>
      <trkpt lat="43.70521" lon="3.58152">
        <ele>80</ele>
        <time>2022-05-12T06:44:46.281Z</time>
      </trkpt>
      <trkpt lat="43.70525" lon="3.58152">
        <ele>80</ele>
        <time>2022-05-12T06:44:47.013Z</time>
      </trkpt>
      <trkpt lat="43.70529" lon="3.58152">
        <ele>80</ele>
        <time>2022-05-12T06:44:47.744Z</time>
      </trkpt>
      <trkpt lat="43.70533" lon="3.58152">
        <ele>80</ele>
        <time>2022-05-12T06:44:48.476Z</time>
      </trkpt>
      <trkpt lat="43.70538" lon="3.58152">
        <ele>80</ele>
        <time>2022-05-12T06:44:49.391Z</time>
      </trkpt>
      <trkpt lat="43.70542" lon="3.58152">
        <ele>80</ele>
        <time>2022-05-12T06:44:50.123Z</time>
      </trkpt>
      <trkpt lat="43.70546" lon="3.58152">
        <ele>80</ele>
        <time>2022-05-12T06:44:50.855Z</time>
      </trkpt>
      <trkpt lat="43.7055" lon="3.58151">
        <ele>80</ele>
        <time>2022-05-12T06:44:51.598Z</time>
      </trkpt>
      <trkpt lat="43.70554" lon="3.58151">
        <ele>80</ele>
        <time>2022-05-12T06:44:52.330Z</time>
      </trkpt>
      <trkpt lat="43.70559" lon="3.58151">
        <ele>80</ele>
        <time>2022-05-12T06:44:53.245Z</time>
      </trkpt>
      <trkpt lat="43.70563" lon="3.58151">
        <ele>80</ele>
        <time>2022-05-12T06:44:53.977Z</time>
      </trkpt>
      <trkpt lat="43.70567" lon="3.58151">
        <ele>80</ele>
        <time>2022-05-12T06:44:54.709Z</time>
      </trkpt>
      <trkpt lat="43.70571" lon="3.58151">
        <ele>80</ele>
        <time>2022-05-12T06:44:55.441Z</time>
      </trkpt>
      <trkpt lat="43.70576" lon="3.58151">
        <ele>80</ele>
        <time>2022-05-12T06:44:56.355Z</time>
      </trkpt>
      <trkpt lat="43.7058" lon="3.58151">
        <ele>80</ele>
        <time>2022-05-12T06:44:57.087Z</time>
      </trkpt>
      <trkpt lat="43.70584" lon="3.58152">
        <ele>80</ele>
        <time>2022-05-12T06:44:57.831Z</time>
      </trkpt>
      <trkpt lat="43.70588" lon="3.58152">
        <ele>80</ele>
        <time>2022-05-12T06:44:58.563Z</time>
      </trkpt>
      <trkpt lat="43.70593" lon="3.58152">
        <ele>80</ele>
        <time>2022-05-12T06:44:59.478Z</time>
      </trkpt>
      <trkpt lat="43.70597" lon="3.58153">
        <ele>80</ele>
        <time>2022-05-12T06:45:00.221Z</time>
      </trkpt>
      <trkpt lat="43.70601" lon="3.58153">
        <ele>80</ele>
        <time>2022-05-12T06:45:00.953Z</time>
      </trkpt>
      <trkpt lat="43.70605" lon="3.58154">
        <ele>80</ele>
        <time>2022-05-12T06:45:01.697Z</time>
      </trkpt>
      <trkpt lat="43.70609" lon="3.58155">
        <ele>80</ele>
        <time>2022-05-12T06:45:02.440Z</time>
      </trkpt>
      <trkpt lat="43.70613" lon="3.58157">
        <ele>80</ele>
        <time>2022-05-12T06:45:03.219Z</time>
      </trkpt>
      <trkpt lat="43.70617" lon="3.58158">
        <ele>80</ele>
        <time>2022-05-12T06:45:03.962Z</time>
      </trkpt>
      <trkpt lat="43.70621" lon="3.58159">
        <ele>80</ele>
        <time>2022-05-12T06:45:04.706Z</time>
      </trkpt>
      <trkpt lat="43.70625" lon="3.5816">
        <ele>82</ele>
        <time>2022-05-12T06:45:07.574Z</time>
      </trkpt>
      <trkpt lat="43.70629" lon="3.58161">
        <ele>82</ele>
        <time>2022-05-12T06:45:08.318Z</time>
      </trkpt>
      <trkpt lat="43.70633" lon="3.58162">
        <ele>82</ele>
        <time>2022-05-12T06:45:09.062Z</time>
      </trkpt>
      <trkpt lat="43.70637" lon="3.58164">
        <ele>82</ele>
        <time>2022-05-12T06:45:09.840Z</time>
      </trkpt>
      <trkpt lat="43.70641" lon="3.58165">
        <ele>82</ele>
        <time>2022-05-12T06:45:10.584Z</time>
      </trkpt>
      <trkpt lat="43.70644" lon="3.58166">
        <ele>82</ele>
        <time>2022-05-12T06:45:11.148Z</time>
      </trkpt>
      <trkpt lat="43.70648" lon="3.58167">
        <ele>82</ele>
        <time>2022-05-12T06:45:11.892Z</time>
      </trkpt>
      <trkpt lat="43.70651" lon="3.58169">
        <ele>82</ele>
        <time>2022-05-12T06:45:12.501Z</time>
      </trkpt>
      <trkpt lat="43.70655" lon="3.5817">
        <ele>82</ele>
        <time>2022-05-12T06:45:13.245Z</time>
      </trkpt>
      <trkpt lat="43.70658" lon="3.58172">
        <ele>82</ele>
        <time>2022-05-12T06:45:13.854Z</time>
      </trkpt>
      <trkpt lat="43.70661" lon="3.58173">
        <ele>83</ele>
        <time>2022-05-12T06:45:16.032Z</time>
      </trkpt>
      <trkpt lat="43.70665" lon="3.58174">
        <ele>83</ele>
        <time>2022-05-12T06:45:16.776Z</time>
      </trkpt>
      <trkpt lat="43.70668" lon="3.58176">
        <ele>83</ele>
        <time>2022-05-12T06:45:17.385Z</time>
      </trkpt>
      <trkpt lat="43.70672" lon="3.58177">
        <ele>83</ele>
        <time>2022-05-12T06:45:18.129Z</time>
      </trkpt>
      <trkpt lat="43.70675" lon="3.58178">
        <ele>83</ele>
        <time>2022-05-12T06:45:18.693Z</time>
      </trkpt>
      <trkpt lat="43.70678" lon="3.5818">
        <ele>83</ele>
        <time>2022-05-12T06:45:19.302Z</time>
      </trkpt>
      <trkpt lat="43.70681" lon="3.58181">
        <ele>83</ele>
        <time>2022-05-12T06:45:19.867Z</time>
      </trkpt>
      <trkpt lat="43.70684" lon="3.58183">
        <ele>83</ele>
        <time>2022-05-12T06:45:20.476Z</time>
      </trkpt>
      <trkpt lat="43.70687" lon="3.58185">
        <ele>83</ele>
        <time>2022-05-12T06:45:21.086Z</time>
      </trkpt>
      <trkpt lat="43.7069" lon="3.58186">
        <ele>83</ele>
        <time>2022-05-12T06:45:21.650Z</time>
      </trkpt>
      <trkpt lat="43.70693" lon="3.58188">
        <ele>85</ele>
        <time>2022-05-12T06:45:24.000Z</time>
      </trkpt>
      <trkpt lat="43.70696" lon="3.5819">
        <ele>85</ele>
        <time>2022-05-12T06:45:24.610Z</time>
      </trkpt>
      <trkpt lat="43.70699" lon="3.58191">
        <ele>85</ele>
        <time>2022-05-12T06:45:25.174Z</time>
      </trkpt>
      <trkpt lat="43.70702" lon="3.58193">
        <ele>85</ele>
        <time>2022-05-12T06:45:25.783Z</time>
      </trkpt>
      <trkpt lat="43.70705" lon="3.58194">
        <ele>85</ele>
        <time>2022-05-12T06:45:26.348Z</time>
      </trkpt>
      <trkpt lat="43.70708" lon="3.58195">
        <ele>85</ele>
        <time>2022-05-12T06:45:26.913Z</time>
      </trkpt>
      <trkpt lat="43.70712" lon="3.58196">
        <ele>85</ele>
        <time>2022-05-12T06:45:27.656Z</time>
      </trkpt>
      <trkpt lat="43.70715" lon="3.58197">
        <ele>85</ele>
        <time>2022-05-12T06:45:28.221Z</time>
      </trkpt>
      <trkpt lat="43.70718" lon="3.58197">
        <ele>85</ele>
        <time>2022-05-12T06:45:28.770Z</time>
      </trkpt>
      <trkpt lat="43.70721" lon="3.58198">
        <ele>85</ele>
        <time>2022-05-12T06:45:29.334Z</time>
      </trkpt>
      <trkpt lat="43.70724" lon="3.58198">
        <ele>86</ele>
        <time>2022-05-12T06:45:31.451Z</time>
      </trkpt>
      <trkpt lat="43.70727" lon="3.58199">
        <ele>86</ele>
        <time>2022-05-12T06:45:32.016Z</time>
      </trkpt>
      <trkpt lat="43.7073" lon="3.58199">
        <ele>86</ele>
        <time>2022-05-12T06:45:32.565Z</time>
      </trkpt>
      <trkpt lat="43.70733" lon="3.58199">
        <ele>86</ele>
        <time>2022-05-12T06:45:33.114Z</time>
      </trkpt>
      <trkpt lat="43.70736" lon="3.58199">
        <ele>86</ele>
        <time>2022-05-12T06:45:33.663Z</time>
      </trkpt>
      <trkpt lat="43.70739" lon="3.582">
        <ele>86</ele>
        <time>2022-05-12T06:45:34.227Z</time>
      </trkpt>
      <trkpt lat="43.70742" lon="3.582">
        <ele>86</ele>
        <time>2022-05-12T06:45:34.776Z</time>
      </trkpt>
      <trkpt lat="43.70745" lon="3.582">
        <ele>86</ele>
        <time>2022-05-12T06:45:35.325Z</time>
      </trkpt>
      <trkpt lat="43.70747" lon="3.58201">
        <ele>86</ele>
        <time>2022-05-12T06:45:35.714Z</time>
      </trkpt>
      <trkpt lat="43.7075" lon="3.58201">
        <ele>87</ele>
        <time>2022-05-12T06:45:37.831Z</time>
      </trkpt>
      <trkpt lat="43.70753" lon="3.58201">
        <ele>87</ele>
        <time>2022-05-12T06:45:38.380Z</time>
      </trkpt>
      <trkpt lat="43.70756" lon="3.58201">
        <ele>87</ele>
        <time>2022-05-12T06:45:38.929Z</time>
      </trkpt>
      <trkpt lat="43.7076" lon="3.58201">
        <ele>87</ele>
        <time>2022-05-12T06:45:39.661Z</time>
      </trkpt>
      <trkpt lat="43.70763" lon="3.58201">
        <ele>87</ele>
        <time>2022-05-12T06:45:40.210Z</time>
      </trkpt>
      <trkpt lat="43.70766" lon="3.58201">
        <ele>87</ele>
        <time>2022-05-12T06:45:40.758Z</time>
      </trkpt>
      <trkpt lat="43.70768" lon="3.58201">
        <ele>87</ele>
        <time>2022-05-12T06:45:41.124Z</time>
      </trkpt>
      <trkpt lat="43.70771" lon="3.58201">
        <ele>87</ele>
        <time>2022-05-12T06:45:41.673Z</time>
      </trkpt>
      <trkpt lat="43.70774" lon="3.58201">
        <ele>87</ele>
        <time>2022-05-12T06:45:42.222Z</time>
      </trkpt>
      <trkpt lat="43.70777" lon="3.58201">
        <ele>87</ele>
        <time>2022-05-12T06:45:42.771Z</time>
      </trkpt>
      <trkpt lat="43.7078" lon="3.58201">
        <ele>89</ele>
        <time>2022-05-12T06:45:44.888Z</time>
      </trkpt>
      <trkpt lat="43.70782" lon="3.58201">
        <ele>89</ele>
        <time>2022-05-12T06:45:45.254Z</time>
      </trkpt>
      <trkpt lat="43.70785" lon="3.58201">
        <ele>89</ele>
        <time>2022-05-12T06:45:45.803Z</time>
      </trkpt>
      <trkpt lat="43.70787" lon="3.58201">
        <ele>89</ele>
        <time>2022-05-12T06:45:46.169Z</time>
      </trkpt>
      <trkpt lat="43.7079" lon="3.58201">
        <ele>89</ele>
        <time>2022-05-12T06:45:46.718Z</time>
      </trkpt>
      <trkpt lat="43.70793" lon="3.58201">
        <ele>89</ele>
        <time>2022-05-12T06:45:47.267Z</time>
      </trkpt>
      <trkpt lat="43.70795" lon="3.58201">
        <ele>89</ele>
        <time>2022-05-12T06:45:47.632Z</time>
      </trkpt>
      <trkpt lat="43.70798" lon="3.58201">
        <ele>89</ele>
        <time>2022-05-12T06:45:48.181Z</time>
      </trkpt>
      <trkpt lat="43.70801" lon="3.58201">
        <ele>89</ele>
        <time>2022-05-12T06:45:48.730Z</time>
      </trkpt>
      <trkpt lat="43.70804" lon="3.58201">
        <ele>89</ele>
        <time>2022-05-12T06:45:49.279Z</time>
      </trkpt>
      <trkpt lat="43.70807" lon="3.58201">
        <ele>89</ele>
        <time>2022-05-12T06:45:49.828Z</time>
      </trkpt>
      <trkpt lat="43.7081" lon="3.58201">
        <ele>90</ele>
        <time>2022-05-12T06:45:51.945Z</time>
      </trkpt>
      <trkpt lat="43.70812" lon="3.58201">
        <ele>90</ele>
        <time>2022-05-12T06:45:52.311Z</time>
      </trkpt>
      <trkpt lat="43.70815" lon="3.58201">
        <ele>90</ele>
        <time>2022-05-12T06:45:52.860Z</time>
      </trkpt>
      <trkpt lat="43.70818" lon="3.58201">
        <ele>90</ele>
        <time>2022-05-12T06:45:53.409Z</time>
      </trkpt>
      <trkpt lat="43.70821" lon="3.58201">
        <ele>90</ele>
        <time>2022-05-12T06:45:53.958Z</time>
      </trkpt>
      <trkpt lat="43.70824" lon="3.58201">
        <ele>90</ele>
        <time>2022-05-12T06:45:54.506Z</time>
      </trkpt>
      <trkpt lat="43.70826" lon="3.58201">
        <ele>90</ele>
        <time>2022-05-12T06:45:54.872Z</time>
      </trkpt>
      <trkpt lat="43.70829" lon="3.58201">
        <ele>90</ele>
        <time>2022-05-12T06:45:55.421Z</time>
      </trkpt>
      <trkpt lat="43.70832" lon="3.58201">
        <ele>90</ele>
        <time>2022-05-12T06:45:55.970Z</time>
      </trkpt>
      <trkpt lat="43.70835" lon="3.58201">
        <ele>92</ele>
        <time>2022-05-12T06:45:58.087Z</time>
      </trkpt>
      <trkpt lat="43.70837" lon="3.58201">
        <ele>92</ele>
        <time>2022-05-12T06:45:58.453Z</time>
      </trkpt>
      <trkpt lat="43.7084" lon="3.58201">
        <ele>92</ele>
        <time>2022-05-12T06:45:59.002Z</time>
      </trkpt>
      <trkpt lat="43.70842" lon="3.58202">
        <ele>92</ele>
        <time>2022-05-12T06:45:59.391Z</time>
      </trkpt>
      <trkpt lat="43.70845" lon="3.58202">
        <ele>92</ele>
        <time>2022-05-12T06:45:59.940Z</time>
      </trkpt>
      <trkpt lat="43.70847" lon="3.58202">
        <ele>92</ele>
        <time>2022-05-12T06:46:00.306Z</time>
      </trkpt>
      <trkpt lat="43.7085" lon="3.58202">
        <ele>92</ele>
        <time>2022-05-12T06:46:00.855Z</time>
      </trkpt>
      <trkpt lat="43.70853" lon="3.58202">
        <ele>92</ele>
        <time>2022-05-12T06:46:01.404Z</time>
      </trkpt>
      <trkpt lat="43.70855" lon="3.58202">
        <ele>92</ele>
        <time>2022-05-12T06:46:01.770Z</time>
      </trkpt>
      <trkpt lat="43.70858" lon="3.58202">
        <ele>92</ele>
        <time>2022-05-12T06:46:02.318Z</time>
      </trkpt>
      <trkpt lat="43.7086" lon="3.58202">
        <ele>92</ele>
        <time>2022-05-12T06:46:02.684Z</time>
      </trkpt>
      <trkpt lat="43.70863" lon="3.58202">
        <ele>93</ele>
        <time>2022-05-12T06:46:04.801Z</time>
      </trkpt>
      <trkpt lat="43.70866" lon="3.58201">
        <ele>93</ele>
        <time>2022-05-12T06:46:05.366Z</time>
      </trkpt>
      <trkpt lat="43.70868" lon="3.58201">
        <ele>93</ele>
        <time>2022-05-12T06:46:05.732Z</time>
      </trkpt>
      <trkpt lat="43.70871" lon="3.582">
        <ele>93</ele>
        <time>2022-05-12T06:46:06.297Z</time>
      </trkpt>
      <trkpt lat="43.70873" lon="3.582">
        <ele>93</ele>
        <time>2022-05-12T06:46:06.662Z</time>
      </trkpt>
      <trkpt lat="43.70876" lon="3.58199">
        <ele>93</ele>
        <time>2022-05-12T06:46:07.227Z</time>
      </trkpt>
      <trkpt lat="43.70878" lon="3.58199">
        <ele>93</ele>
        <time>2022-05-12T06:46:07.593Z</time>
      </trkpt>
      <trkpt lat="43.70881" lon="3.58199">
        <ele>93</ele>
        <time>2022-05-12T06:46:08.142Z</time>
      </trkpt>
      <trkpt lat="43.70883" lon="3.58199">
        <ele>93</ele>
        <time>2022-05-12T06:46:08.508Z</time>
      </trkpt>
      <trkpt lat="43.70886" lon="3.58198">
        <ele>93</ele>
        <time>2022-05-12T06:46:09.072Z</time>
      </trkpt>
      <trkpt lat="43.70888" lon="3.58198">
        <ele>95</ele>
        <time>2022-05-12T06:46:10.484Z</time>
      </trkpt>
      <trkpt lat="43.70891" lon="3.58198">
        <ele>95</ele>
        <time>2022-05-12T06:46:11.033Z</time>
      </trkpt>
      <trkpt lat="43.70893" lon="3.58198">
        <ele>95</ele>
        <time>2022-05-12T06:46:11.399Z</time>
      </trkpt>
      <trkpt lat="43.70896" lon="3.58198">
        <ele>95</ele>
        <time>2022-05-12T06:46:11.947Z</time>
      </trkpt>
      <trkpt lat="43.70898" lon="3.58198">
        <ele>95</ele>
        <time>2022-05-12T06:46:12.313Z</time>
      </trkpt>
      <trkpt lat="43.70901" lon="3.58198">
        <ele>95</ele>
        <time>2022-05-12T06:46:12.862Z</time>
      </trkpt>
      <trkpt lat="43.70903" lon="3.58197">
        <ele>95</ele>
        <time>2022-05-12T06:46:13.251Z</time>
      </trkpt>
      <trkpt lat="43.70906" lon="3.58198">
        <ele>95</ele>
        <time>2022-05-12T06:46:13.816Z</time>
      </trkpt>
      <trkpt lat="43.70908" lon="3.58198">
        <ele>95</ele>
        <time>2022-05-12T06:46:14.182Z</time>
      </trkpt>
      <trkpt lat="43.7091" lon="3.58198">
        <ele>97</ele>
        <time>2022-05-12T06:46:15.593Z</time>
      </trkpt>
      <trkpt lat="43.70913" lon="3.58199">
        <ele>97</ele>
        <time>2022-05-12T06:46:16.158Z</time>
      </trkpt>
      <trkpt lat="43.70915" lon="3.58199">
        <ele>97</ele>
        <time>2022-05-12T06:46:16.524Z</time>
      </trkpt>
      <trkpt lat="43.70918" lon="3.58199">
        <ele>97</ele>
        <time>2022-05-12T06:46:17.073Z</time>
      </trkpt>
      <trkpt lat="43.7092" lon="3.582">
        <ele>97</ele>
        <time>2022-05-12T06:46:17.462Z</time>
      </trkpt>
      <trkpt lat="43.70923" lon="3.582">
        <ele>97</ele>
        <time>2022-05-12T06:46:18.010Z</time>
      </trkpt>
      <trkpt lat="43.70925" lon="3.58201">
        <ele>97</ele>
        <time>2022-05-12T06:46:18.400Z</time>
      </trkpt>
      <trkpt lat="43.70928" lon="3.58201">
        <ele>97</ele>
        <time>2022-05-12T06:46:18.948Z</time>
      </trkpt>
      <trkpt lat="43.7093" lon="3.58202">
        <ele>97</ele>
        <time>2022-05-12T06:46:19.338Z</time>
      </trkpt>
      <trkpt lat="43.70932" lon="3.58202">
        <ele>97</ele>
        <time>2022-05-12T06:46:19.703Z</time>
      </trkpt>
      <trkpt lat="43.70934" lon="3.58203">
        <ele>98</ele>
        <time>2022-05-12T06:46:21.204Z</time>
      </trkpt>
      <trkpt lat="43.70936" lon="3.58204">
        <ele>98</ele>
        <time>2022-05-12T06:46:21.593Z</time>
      </trkpt>
      <trkpt lat="43.70939" lon="3.58205">
        <ele>98</ele>
        <time>2022-05-12T06:46:22.158Z</time>
      </trkpt>
      <trkpt lat="43.70941" lon="3.58206">
        <ele>98</ele>
        <time>2022-05-12T06:46:22.547Z</time>
      </trkpt>
      <trkpt lat="43.70943" lon="3.58206">
        <ele>98</ele>
        <time>2022-05-12T06:46:22.913Z</time>
      </trkpt>
      <trkpt lat="43.70945" lon="3.58206">
        <ele>98</ele>
        <time>2022-05-12T06:46:23.279Z</time>
      </trkpt>
      <trkpt lat="43.70947" lon="3.58207">
        <ele>98</ele>
        <time>2022-05-12T06:46:23.668Z</time>
      </trkpt>
      <trkpt lat="43.7095" lon="3.58208">
        <ele>98</ele>
        <time>2022-05-12T06:46:24.232Z</time>
      </trkpt>
      <trkpt lat="43.70952" lon="3.58208">
        <ele>98</ele>
        <time>2022-05-12T06:46:24.598Z</time>
      </trkpt>
      <trkpt lat="43.70954" lon="3.58209">
        <ele>98</ele>
        <time>2022-05-12T06:46:24.987Z</time>
      </trkpt>
      <trkpt lat="43.70956" lon="3.58209">
        <ele>100</ele>
        <time>2022-05-12T06:46:26.399Z</time>
      </trkpt>
      <trkpt lat="43.70959" lon="3.58209">
        <ele>100</ele>
        <time>2022-05-12T06:46:26.948Z</time>
      </trkpt>
      <trkpt lat="43.70961" lon="3.58208">
        <ele>100</ele>
        <time>2022-05-12T06:46:27.337Z</time>
      </trkpt>
      <trkpt lat="43.70964" lon="3.58208">
        <ele>100</ele>
        <time>2022-05-12T06:46:27.886Z</time>
      </trkpt>
      <trkpt lat="43.70966" lon="3.58209">
        <ele>100</ele>
        <time>2022-05-12T06:46:28.275Z</time>
      </trkpt>
      <trkpt lat="43.70969" lon="3.58208">
        <ele>100</ele>
        <time>2022-05-12T06:46:28.839Z</time>
      </trkpt>
      <trkpt lat="43.70971" lon="3.58208">
        <ele>100</ele>
        <time>2022-05-12T06:46:29.205Z</time>
      </trkpt>
      <trkpt lat="43.70973" lon="3.58208">
        <ele>100</ele>
        <time>2022-05-12T06:46:29.571Z</time>
      </trkpt>
      <trkpt lat="43.70976" lon="3.58208">
        <ele>100</ele>
        <time>2022-05-12T06:46:30.120Z</time>
      </trkpt>
      <trkpt lat="43.70978" lon="3.58207">
        <ele>100</ele>
        <time>2022-05-12T06:46:30.509Z</time>
      </trkpt>
      <trkpt lat="43.70981" lon="3.58207">
        <ele>102</ele>
        <time>2022-05-12T06:46:32.626Z</time>
      </trkpt>
      <trkpt lat="43.70983" lon="3.58207">
        <ele>102</ele>
        <time>2022-05-12T06:46:32.992Z</time>
      </trkpt>
      <trkpt lat="43.70985" lon="3.58206">
        <ele>102</ele>
        <time>2022-05-12T06:46:33.381Z</time>
      </trkpt>
      <trkpt lat="43.70988" lon="3.58206">
        <ele>102</ele>
        <time>2022-05-12T06:46:33.930Z</time>
      </trkpt>
      <trkpt lat="43.7099" lon="3.58206">
        <ele>102</ele>
        <time>2022-05-12T06:46:34.296Z</time>
      </trkpt>
      <trkpt lat="43.70992" lon="3.58206">
        <ele>102</ele>
        <time>2022-05-12T06:46:34.662Z</time>
      </trkpt>
      <trkpt lat="43.70994" lon="3.58205">
        <ele>102</ele>
        <time>2022-05-12T06:46:35.051Z</time>
      </trkpt>
      <trkpt lat="43.70996" lon="3.58205">
        <ele>102</ele>
        <time>2022-05-12T06:46:35.417Z</time>
      </trkpt>
      <trkpt lat="43.70998" lon="3.58204">
        <ele>102</ele>
        <time>2022-05-12T06:46:35.806Z</time>
      </trkpt>
      <trkpt lat="43.71" lon="3.58204">
        <ele>102</ele>
        <time>2022-05-12T06:46:36.172Z</time>
      </trkpt>
      <trkpt lat="43.71002" lon="3.58203">
        <ele>102</ele>
        <time>2022-05-12T06:46:36.561Z</time>
      </trkpt>
      <trkpt lat="43.71004" lon="3.58202">
        <ele>103</ele>
        <time>2022-05-12T06:46:38.062Z</time>
      </trkpt>
      <trkpt lat="43.71006" lon="3.58202">
        <ele>103</ele>
        <time>2022-05-12T06:46:38.428Z</time>
      </trkpt>
      <trkpt lat="43.71008" lon="3.58201">
        <ele>103</ele>
        <time>2022-05-12T06:46:38.817Z</time>
      </trkpt>
      <trkpt lat="43.7101" lon="3.582">
        <ele>103</ele>
        <time>2022-05-12T06:46:39.206Z</time>
      </trkpt>
      <trkpt lat="43.71012" lon="3.58199">
        <ele>103</ele>
        <time>2022-05-12T06:46:39.595Z</time>
      </trkpt>
      <trkpt lat="43.71014" lon="3.58198">
        <ele>103</ele>
        <time>2022-05-12T06:46:39.984Z</time>
      </trkpt>
      <trkpt lat="43.71016" lon="3.58198">
        <ele>103</ele>
        <time>2022-05-12T06:46:40.350Z</time>
      </trkpt>
      <trkpt lat="43.71018" lon="3.58198">
        <ele>103</ele>
        <time>2022-05-12T06:46:40.716Z</time>
      </trkpt>
      <trkpt lat="43.7102" lon="3.58198">
        <ele>103</ele>
        <time>2022-05-12T06:46:41.082Z</time>
      </trkpt>
      <trkpt lat="43.71022" lon="3.58199">
        <ele>103</ele>
        <time>2022-05-12T06:46:41.471Z</time>
      </trkpt>
      <trkpt lat="43.71024" lon="3.58199">
        <ele>106</ele>
        <time>2022-05-12T06:46:42.882Z</time>
      </trkpt>
      <trkpt lat="43.71027" lon="3.58199">
        <ele>106</ele>
        <time>2022-05-12T06:46:43.431Z</time>
      </trkpt>
      <trkpt lat="43.71029" lon="3.58199">
        <ele>106</ele>
        <time>2022-05-12T06:46:43.797Z</time>
      </trkpt>
      <trkpt lat="43.71031" lon="3.582">
        <ele>106</ele>
        <time>2022-05-12T06:46:44.186Z</time>
      </trkpt>
      <trkpt lat="43.71033" lon="3.582">
        <ele>106</ele>
        <time>2022-05-12T06:46:44.552Z</time>
      </trkpt>
      <trkpt lat="43.71035" lon="3.58199">
        <ele>106</ele>
        <time>2022-05-12T06:46:44.941Z</time>
      </trkpt>
      <trkpt lat="43.71037" lon="3.58199">
        <ele>106</ele>
        <time>2022-05-12T06:46:45.307Z</time>
      </trkpt>
      <trkpt lat="43.7104" lon="3.58199">
        <ele>106</ele>
        <time>2022-05-12T06:46:45.856Z</time>
      </trkpt>
      <trkpt lat="43.71042" lon="3.582">
        <ele>106</ele>
        <time>2022-05-12T06:46:46.245Z</time>
      </trkpt>
      <trkpt lat="43.71044" lon="3.582">
        <ele>108</ele>
        <time>2022-05-12T06:46:47.656Z</time>
      </trkpt>
      <trkpt lat="43.71046" lon="3.582">
        <ele>108</ele>
        <time>2022-05-12T06:46:48.022Z</time>
      </trkpt>
      <trkpt lat="43.71049" lon="3.582">
        <ele>108</ele>
        <time>2022-05-12T06:46:48.571Z</time>
      </trkpt>
      <trkpt lat="43.71051" lon="3.582">
        <ele>108</ele>
        <time>2022-05-12T06:46:48.937Z</time>
      </trkpt>
      <trkpt lat="43.71053" lon="3.582">
        <ele>108</ele>
        <time>2022-05-12T06:46:49.303Z</time>
      </trkpt>
      <trkpt lat="43.71056" lon="3.582">
        <ele>108</ele>
        <time>2022-05-12T06:46:49.852Z</time>
      </trkpt>
      <trkpt lat="43.71058" lon="3.582">
        <ele>108</ele>
        <time>2022-05-12T06:46:50.218Z</time>
      </trkpt>
      <trkpt lat="43.7106" lon="3.58199">
        <ele>108</ele>
        <time>2022-05-12T06:46:50.607Z</time>
      </trkpt>
      <trkpt lat="43.71062" lon="3.58199">
        <ele>108</ele>
        <time>2022-05-12T06:46:50.973Z</time>
      </trkpt>
      <trkpt lat="43.71064" lon="3.58199">
        <ele>108</ele>
        <time>2022-05-12T06:46:51.339Z</time>
      </trkpt>
      <trkpt lat="43.71066" lon="3.58199">
        <ele>108</ele>
        <time>2022-05-12T06:46:51.705Z</time>
      </trkpt>
      <trkpt lat="43.71068" lon="3.58199">
        <ele>109</ele>
        <time>2022-05-12T06:46:53.116Z</time>
      </trkpt>
      <trkpt lat="43.7107" lon="3.58198">
        <ele>109</ele>
        <time>2022-05-12T06:46:53.505Z</time>
      </trkpt>
      <trkpt lat="43.71072" lon="3.58198">
        <ele>109</ele>
        <time>2022-05-12T06:46:53.871Z</time>
      </trkpt>
      <trkpt lat="43.71074" lon="3.58198">
        <ele>109</ele>
        <time>2022-05-12T06:46:54.237Z</time>
      </trkpt>
      <trkpt lat="43.71076" lon="3.58197">
        <ele>109</ele>
        <time>2022-05-12T06:46:54.626Z</time>
      </trkpt>
      <trkpt lat="43.71078" lon="3.58197">
        <ele>109</ele>
        <time>2022-05-12T06:46:54.992Z</time>
      </trkpt>
      <trkpt lat="43.7108" lon="3.58197">
        <ele>109</ele>
        <time>2022-05-12T06:46:55.358Z</time>
      </trkpt>
      <trkpt lat="43.71082" lon="3.58197">
        <ele>109</ele>
        <time>2022-05-12T06:46:55.724Z</time>
      </trkpt>
      <trkpt lat="43.71084" lon="3.58196">
        <ele>109</ele>
        <time>2022-05-12T06:46:56.113Z</time>
      </trkpt>
      <trkpt lat="43.71086" lon="3.58195">
        <ele>109</ele>
        <time>2022-05-12T06:46:56.502Z</time>
      </trkpt>
      <trkpt lat="43.71088" lon="3.58195">
        <ele>111</ele>
        <time>2022-05-12T06:46:57.913Z</time>
      </trkpt>
      <trkpt lat="43.7109" lon="3.58194">
        <ele>111</ele>
        <time>2022-05-12T06:46:58.302Z</time>
      </trkpt>
      <trkpt lat="43.71093" lon="3.58193">
        <ele>111</ele>
        <time>2022-05-12T06:46:58.867Z</time>
      </trkpt>
      <trkpt lat="43.71095" lon="3.58193">
        <ele>111</ele>
        <time>2022-05-12T06:46:59.233Z</time>
      </trkpt>
      <trkpt lat="43.71097" lon="3.58192">
        <ele>111</ele>
        <time>2022-05-12T06:46:59.622Z</time>
      </trkpt>
      <trkpt lat="43.711" lon="3.58191">
        <ele>111</ele>
        <time>2022-05-12T06:47:00.187Z</time>
      </trkpt>
      <trkpt lat="43.71102" lon="3.58191">
        <ele>111</ele>
        <time>2022-05-12T06:47:00.552Z</time>
      </trkpt>
      <trkpt lat="43.71104" lon="3.58191">
        <ele>111</ele>
        <time>2022-05-12T06:47:00.918Z</time>
      </trkpt>
      <trkpt lat="43.71106" lon="3.58191">
        <ele>113</ele>
        <time>2022-05-12T06:47:02.330Z</time>
      </trkpt>
      <trkpt lat="43.71108" lon="3.58192">
        <ele>113</ele>
        <time>2022-05-12T06:47:02.719Z</time>
      </trkpt>
      <trkpt lat="43.71112" lon="3.58193">
        <ele>113</ele>
        <time>2022-05-12T06:47:03.463Z</time>
      </trkpt>
      <trkpt lat="43.71113" lon="3.58194">
        <ele>113</ele>
        <time>2022-05-12T06:47:03.688Z</time>
      </trkpt>
      <trkpt lat="43.71114" lon="3.58197">
        <ele>113</ele>
        <time>2022-05-12T06:47:04.125Z</time>
      </trkpt>
      <trkpt lat="43.71115" lon="3.582">
        <ele>113</ele>
        <time>2022-05-12T06:47:04.562Z</time>
      </trkpt>
      <trkpt lat="43.71116" lon="3.58205">
        <ele>113</ele>
        <time>2022-05-12T06:47:05.248Z</time>
      </trkpt>
      <trkpt lat="43.71117" lon="3.58209">
        <ele>113</ele>
        <time>2022-05-12T06:47:05.808Z</time>
      </trkpt>
      <trkpt lat="43.71117" lon="3.58213">
        <ele>113</ele>
        <time>2022-05-12T06:47:06.337Z</time>
      </trkpt>
      <trkpt lat="43.71118" lon="3.58218">
        <ele>115</ele>
        <time>2022-05-12T06:47:08.983Z</time>
      </trkpt>
      <trkpt lat="43.71119" lon="3.58222">
        <ele>115</ele>
        <time>2022-05-12T06:47:09.543Z</time>
      </trkpt>
      <trkpt lat="43.7112" lon="3.58226">
        <ele>115</ele>
        <time>2022-05-12T06:47:10.103Z</time>
      </trkpt>
      <trkpt lat="43.71121" lon="3.58231">
        <ele>115</ele>
        <time>2022-05-12T06:47:10.789Z</time>
      </trkpt>
      <trkpt lat="43.71123" lon="3.58235">
        <ele>115</ele>
        <time>2022-05-12T06:47:11.432Z</time>
      </trkpt>
      <trkpt lat="43.71124" lon="3.5824">
        <ele>115</ele>
        <time>2022-05-12T06:47:12.118Z</time>
      </trkpt>
      <trkpt lat="43.71125" lon="3.58245">
        <ele>115</ele>
        <time>2022-05-12T06:47:12.804Z</time>
      </trkpt>
      <trkpt lat="43.71127" lon="3.5825">
        <ele>115</ele>
        <time>2022-05-12T06:47:13.560Z</time>
      </trkpt>
      <trkpt lat="43.71128" lon="3.58254">
        <ele>115</ele>
        <time>2022-05-12T06:47:14.120Z</time>
      </trkpt>
      <trkpt lat="43.7113" lon="3.58259">
        <ele>115</ele>
        <time>2022-05-12T06:47:14.875Z</time>
      </trkpt>
      <trkpt lat="43.71132" lon="3.58264">
        <ele>115</ele>
        <time>2022-05-12T06:47:15.631Z</time>
      </trkpt>
      <trkpt lat="43.71133" lon="3.58268">
        <ele>115</ele>
        <time>2022-05-12T06:47:16.191Z</time>
      </trkpt>
      <trkpt lat="43.71135" lon="3.58273">
        <ele>115</ele>
        <time>2022-05-12T06:47:16.947Z</time>
      </trkpt>
      <trkpt lat="43.71136" lon="3.58278">
        <ele>115</ele>
        <time>2022-05-12T06:47:17.633Z</time>
      </trkpt>
      <trkpt lat="43.71137" lon="3.58282">
        <ele>115</ele>
        <time>2022-05-12T06:47:18.192Z</time>
      </trkpt>
      <trkpt lat="43.71139" lon="3.58287">
        <ele>115</ele>
        <time>2022-05-12T06:47:18.948Z</time>
      </trkpt>
      <trkpt lat="43.7114" lon="3.58292">
        <ele>115</ele>
        <time>2022-05-12T06:47:19.634Z</time>
      </trkpt>
      <trkpt lat="43.71141" lon="3.58297">
        <ele>115</ele>
        <time>2022-05-12T06:47:20.320Z</time>
      </trkpt>
      <trkpt lat="43.71143" lon="3.58302">
        <ele>115</ele>
        <time>2022-05-12T06:47:21.076Z</time>
      </trkpt>
      <trkpt lat="43.71144" lon="3.58306">
        <ele>116</ele>
        <time>2022-05-12T06:47:23.235Z</time>
      </trkpt>
      <trkpt lat="43.71145" lon="3.58311">
        <ele>116</ele>
        <time>2022-05-12T06:47:23.921Z</time>
      </trkpt>
      <trkpt lat="43.71146" lon="3.58317">
        <ele>116</ele>
        <time>2022-05-12T06:47:24.735Z</time>
      </trkpt>
      <trkpt lat="43.71146" lon="3.58322">
        <ele>116</ele>
        <time>2022-05-12T06:47:25.397Z</time>
      </trkpt>
      <trkpt lat="43.71146" lon="3.58328">
        <ele>116</ele>
        <time>2022-05-12T06:47:26.190Z</time>
      </trkpt>
      <trkpt lat="43.71146" lon="3.58334">
        <ele>116</ele>
        <time>2022-05-12T06:47:26.984Z</time>
      </trkpt>
      <trkpt lat="43.71146" lon="3.5834">
        <ele>116</ele>
        <time>2022-05-12T06:47:27.777Z</time>
      </trkpt>
      <trkpt lat="43.71147" lon="3.58347">
        <ele>116</ele>
        <time>2022-05-12T06:47:28.721Z</time>
      </trkpt>
      <trkpt lat="43.71147" lon="3.58353">
        <ele>116</ele>
        <time>2022-05-12T06:47:29.514Z</time>
      </trkpt>
      <trkpt lat="43.71149" lon="3.5836">
        <ele>116</ele>
        <time>2022-05-12T06:47:30.510Z</time>
      </trkpt>
      <trkpt lat="43.7115" lon="3.58366">
        <ele>115</ele>
        <time>2022-05-12T06:47:30.906Z</time>
      </trkpt>
      <trkpt lat="43.71152" lon="3.58373">
        <ele>115</ele>
        <time>2022-05-12T06:47:31.901Z</time>
      </trkpt>
      <trkpt lat="43.71153" lon="3.58379">
        <ele>115</ele>
        <time>2022-05-12T06:47:32.716Z</time>
      </trkpt>
      <trkpt lat="43.71155" lon="3.58386">
        <ele>115</ele>
        <time>2022-05-12T06:47:33.711Z</time>
      </trkpt>
      <trkpt lat="43.71156" lon="3.58393">
        <ele>115</ele>
        <time>2022-05-12T06:47:34.655Z</time>
      </trkpt>
      <trkpt lat="43.71158" lon="3.58399">
        <ele>115</ele>
        <time>2022-05-12T06:47:35.528Z</time>
      </trkpt>
      <trkpt lat="43.7116" lon="3.58406">
        <ele>115</ele>
        <time>2022-05-12T06:47:36.524Z</time>
      </trkpt>
      <trkpt lat="43.71162" lon="3.58412">
        <ele>115</ele>
        <time>2022-05-12T06:47:37.398Z</time>
      </trkpt>
      <trkpt lat="43.71164" lon="3.58419">
        <ele>115</ele>
        <time>2022-05-12T06:47:38.393Z</time>
      </trkpt>
      <trkpt lat="43.71165" lon="3.58426">
        <ele>115</ele>
        <time>2022-05-12T06:47:39.337Z</time>
      </trkpt>
      <trkpt lat="43.71167" lon="3.58433">
        <ele>115</ele>
        <time>2022-05-12T06:47:40.332Z</time>
      </trkpt>
      <trkpt lat="43.71169" lon="3.5844">
        <ele>114</ele>
        <time>2022-05-12T06:47:40.817Z</time>
      </trkpt>
      <trkpt lat="43.7117" lon="3.58447">
        <ele>114</ele>
        <time>2022-05-12T06:47:41.760Z</time>
      </trkpt>
      <trkpt lat="43.71172" lon="3.58455">
        <ele>114</ele>
        <time>2022-05-12T06:47:42.880Z</time>
      </trkpt>
      <trkpt lat="43.71173" lon="3.58462">
        <ele>114</ele>
        <time>2022-05-12T06:47:43.823Z</time>
      </trkpt>
      <trkpt lat="43.71175" lon="3.58469">
        <ele>114</ele>
        <time>2022-05-12T06:47:44.819Z</time>
      </trkpt>
      <trkpt lat="43.71177" lon="3.58477">
        <ele>114</ele>
        <time>2022-05-12T06:47:45.938Z</time>
      </trkpt>
      <trkpt lat="43.71178" lon="3.58484">
        <ele>114</ele>
        <time>2022-05-12T06:47:46.882Z</time>
      </trkpt>
      <trkpt lat="43.7118" lon="3.58491">
        <ele>114</ele>
        <time>2022-05-12T06:47:47.877Z</time>
      </trkpt>
      <trkpt lat="43.71181" lon="3.58499">
        <ele>114</ele>
        <time>2022-05-12T06:47:48.951Z</time>
      </trkpt>
      <trkpt lat="43.71183" lon="3.58506">
        <ele>114</ele>
        <time>2022-05-12T06:47:49.946Z</time>
      </trkpt>
      <trkpt lat="43.71184" lon="3.58513">
        <ele>113</ele>
        <time>2022-05-12T06:47:50.405Z</time>
      </trkpt>
      <trkpt lat="43.71186" lon="3.5852">
        <ele>113</ele>
        <time>2022-05-12T06:47:51.401Z</time>
      </trkpt>
      <trkpt lat="43.71187" lon="3.58527">
        <ele>113</ele>
        <time>2022-05-12T06:47:52.345Z</time>
      </trkpt>
      <trkpt lat="43.71188" lon="3.58534">
        <ele>113</ele>
        <time>2022-05-12T06:47:53.288Z</time>
      </trkpt>
      <trkpt lat="43.71189" lon="3.58541">
        <ele>113</ele>
        <time>2022-05-12T06:47:54.232Z</time>
      </trkpt>
      <trkpt lat="43.7119" lon="3.58549">
        <ele>113</ele>
        <time>2022-05-12T06:47:55.305Z</time>
      </trkpt>
      <trkpt lat="43.71191" lon="3.58556">
        <ele>113</ele>
        <time>2022-05-12T06:47:56.249Z</time>
      </trkpt>
      <trkpt lat="43.71191" lon="3.58564">
        <ele>113</ele>
        <time>2022-05-12T06:47:57.307Z</time>
      </trkpt>
      <trkpt lat="43.71191" lon="3.58572">
        <ele>113</ele>
        <time>2022-05-12T06:47:58.365Z</time>
      </trkpt>
      <trkpt lat="43.71191" lon="3.58579">
        <ele>113</ele>
        <time>2022-05-12T06:47:59.291Z</time>
      </trkpt>
      <trkpt lat="43.7119" lon="3.58587">
        <ele>112</ele>
        <time>2022-05-12T06:47:59.813Z</time>
      </trkpt>
      <trkpt lat="43.71189" lon="3.58595">
        <ele>112</ele>
        <time>2022-05-12T06:48:00.887Z</time>
      </trkpt>
      <trkpt lat="43.71189" lon="3.58602">
        <ele>112</ele>
        <time>2022-05-12T06:48:01.813Z</time>
      </trkpt>
      <trkpt lat="43.71188" lon="3.5861">
        <ele>112</ele>
        <time>2022-05-12T06:48:02.886Z</time>
      </trkpt>
      <trkpt lat="43.71187" lon="3.58617">
        <ele>112</ele>
        <time>2022-05-12T06:48:03.830Z</time>
      </trkpt>
      <trkpt lat="43.71187" lon="3.58624">
        <ele>112</ele>
        <time>2022-05-12T06:48:04.756Z</time>
      </trkpt>
      <trkpt lat="43.71186" lon="3.58631">
        <ele>112</ele>
        <time>2022-05-12T06:48:05.699Z</time>
      </trkpt>
      <trkpt lat="43.71186" lon="3.58638">
        <ele>112</ele>
        <time>2022-05-12T06:48:06.625Z</time>
      </trkpt>
      <trkpt lat="43.71186" lon="3.58645">
        <ele>112</ele>
        <time>2022-05-12T06:48:07.551Z</time>
      </trkpt>
      <trkpt lat="43.71186" lon="3.58652">
        <ele>111</ele>
        <time>2022-05-12T06:48:08.001Z</time>
      </trkpt>
      <trkpt lat="43.71186" lon="3.58659">
        <ele>111</ele>
        <time>2022-05-12T06:48:08.927Z</time>
      </trkpt>
      <trkpt lat="43.71186" lon="3.58665">
        <ele>111</ele>
        <time>2022-05-12T06:48:09.720Z</time>
      </trkpt>
      <trkpt lat="43.71185" lon="3.58672">
        <ele>111</ele>
        <time>2022-05-12T06:48:10.664Z</time>
      </trkpt>
      <trkpt lat="43.71186" lon="3.58677">
        <ele>111</ele>
        <time>2022-05-12T06:48:11.350Z</time>
      </trkpt>
      <trkpt lat="43.71186" lon="3.58682">
        <ele>111</ele>
        <time>2022-05-12T06:48:12.011Z</time>
      </trkpt>
      <trkpt lat="43.71187" lon="3.58686">
        <ele>111</ele>
        <time>2022-05-12T06:48:12.571Z</time>
      </trkpt>
      <trkpt lat="43.71189" lon="3.5869">
        <ele>111</ele>
        <time>2022-05-12T06:48:13.214Z</time>
      </trkpt>
      <trkpt lat="43.7119" lon="3.58694">
        <ele>111</ele>
        <time>2022-05-12T06:48:13.774Z</time>
      </trkpt>
      <trkpt lat="43.71192" lon="3.58698">
        <ele>111</ele>
        <time>2022-05-12T06:48:14.417Z</time>
      </trkpt>
      <trkpt lat="43.71193" lon="3.58701">
        <ele>111</ele>
        <time>2022-05-12T06:48:14.854Z</time>
      </trkpt>
      <trkpt lat="43.71195" lon="3.58705">
        <ele>111</ele>
        <time>2022-05-12T06:48:15.497Z</time>
      </trkpt>
      <trkpt lat="43.71196" lon="3.58708">
        <ele>111</ele>
        <time>2022-05-12T06:48:15.934Z</time>
      </trkpt>
      <trkpt lat="43.71198" lon="3.58711">
        <ele>111</ele>
        <time>2022-05-12T06:48:16.474Z</time>
      </trkpt>
      <trkpt lat="43.71199" lon="3.58715">
        <ele>111</ele>
        <time>2022-05-12T06:48:17.034Z</time>
      </trkpt>
      <trkpt lat="43.71201" lon="3.58718">
        <ele>111</ele>
        <time>2022-05-12T06:48:17.573Z</time>
      </trkpt>
      <trkpt lat="43.71202" lon="3.58721">
        <ele>111</ele>
        <time>2022-05-12T06:48:18.010Z</time>
      </trkpt>
      <trkpt lat="43.71204" lon="3.58723">
        <ele>111</ele>
        <time>2022-05-12T06:48:18.462Z</time>
      </trkpt>
      <trkpt lat="43.71205" lon="3.58726">
        <ele>111</ele>
        <time>2022-05-12T06:48:18.899Z</time>
      </trkpt>
      <trkpt lat="43.71207" lon="3.58729">
        <ele>111</ele>
        <time>2022-05-12T06:48:19.438Z</time>
      </trkpt>
      <trkpt lat="43.71208" lon="3.58732">
        <ele>111</ele>
        <time>2022-05-12T06:48:19.875Z</time>
      </trkpt>
      <trkpt lat="43.7121" lon="3.58734">
        <ele>112</ele>
        <time>2022-05-12T06:48:21.617Z</time>
      </trkpt>
      <trkpt lat="43.71212" lon="3.58736">
        <ele>112</ele>
        <time>2022-05-12T06:48:22.068Z</time>
      </trkpt>
      <trkpt lat="43.71213" lon="3.58738">
        <ele>112</ele>
        <time>2022-05-12T06:48:22.390Z</time>
      </trkpt>
      <trkpt lat="43.71215" lon="3.5874">
        <ele>112</ele>
        <time>2022-05-12T06:48:22.841Z</time>
      </trkpt>
      <trkpt lat="43.71217" lon="3.58741">
        <ele>112</ele>
        <time>2022-05-12T06:48:23.230Z</time>
      </trkpt>
      <trkpt lat="43.71218" lon="3.58743">
        <ele>112</ele>
        <time>2022-05-12T06:48:23.552Z</time>
      </trkpt>
      <trkpt lat="43.7122" lon="3.58744">
        <ele>112</ele>
        <time>2022-05-12T06:48:23.941Z</time>
      </trkpt>
      <trkpt lat="43.71221" lon="3.58746">
        <ele>112</ele>
        <time>2022-05-12T06:48:24.263Z</time>
      </trkpt>
      <trkpt lat="43.71223" lon="3.58748">
        <ele>112</ele>
        <time>2022-05-12T06:48:24.714Z</time>
      </trkpt>
      <trkpt lat="43.71224" lon="3.58749">
        <ele>112</ele>
        <time>2022-05-12T06:48:24.940Z</time>
      </trkpt>
      <trkpt lat="43.71226" lon="3.58751">
        <ele>114</ele>
        <time>2022-05-12T06:48:26.681Z</time>
      </trkpt>
      <trkpt lat="43.71227" lon="3.58752">
        <ele>114</ele>
        <time>2022-05-12T06:48:26.907Z</time>
      </trkpt>
      <trkpt lat="43.71229" lon="3.58754">
        <ele>114</ele>
        <time>2022-05-12T06:48:27.359Z</time>
      </trkpt>
      <trkpt lat="43.71231" lon="3.58757">
        <ele>114</ele>
        <time>2022-05-12T06:48:27.898Z</time>
      </trkpt>
      <trkpt lat="43.71233" lon="3.5876">
        <ele>114</ele>
        <time>2022-05-12T06:48:28.438Z</time>
      </trkpt>
      <trkpt lat="43.71235" lon="3.58763">
        <ele>114</ele>
        <time>2022-05-12T06:48:28.978Z</time>
      </trkpt>
      <trkpt lat="43.71237" lon="3.58767">
        <ele>115</ele>
        <time>2022-05-12T06:48:31.459Z</time>
      </trkpt>
      <trkpt lat="43.7124" lon="3.5877">
        <ele>115</ele>
        <time>2022-05-12T06:48:32.136Z</time>
      </trkpt>
      <trkpt lat="43.71242" lon="3.58773">
        <ele>115</ele>
        <time>2022-05-12T06:48:32.676Z</time>
      </trkpt>
      <trkpt lat="43.71244" lon="3.58776">
        <ele>115</ele>
        <time>2022-05-12T06:48:33.216Z</time>
      </trkpt>
      <trkpt lat="43.71246" lon="3.58779">
        <ele>115</ele>
        <time>2022-05-12T06:48:33.755Z</time>
      </trkpt>
      <trkpt lat="43.71248" lon="3.58782">
        <ele>116</ele>
        <time>2022-05-12T06:48:35.837Z</time>
      </trkpt>
      <trkpt lat="43.7125" lon="3.58785">
        <ele>116</ele>
        <time>2022-05-12T06:48:36.377Z</time>
      </trkpt>
      <trkpt lat="43.71252" lon="3.58788">
        <ele>116</ele>
        <time>2022-05-12T06:48:36.916Z</time>
      </trkpt>
      <trkpt lat="43.71255" lon="3.5879">
        <ele>116</ele>
        <time>2022-05-12T06:48:37.526Z</time>
      </trkpt>
      <trkpt lat="43.71257" lon="3.58793">
        <ele>116</ele>
        <time>2022-05-12T06:48:38.065Z</time>
      </trkpt>
      <trkpt lat="43.71259" lon="3.58796">
        <ele>118</ele>
        <time>2022-05-12T06:48:40.147Z</time>
      </trkpt>
      <trkpt lat="43.7126" lon="3.58798">
        <ele>118</ele>
        <time>2022-05-12T06:48:40.469Z</time>
      </trkpt>
      <trkpt lat="43.71263" lon="3.58801">
        <ele>118</ele>
        <time>2022-05-12T06:48:41.146Z</time>
      </trkpt>
      <trkpt lat="43.71265" lon="3.58804">
        <ele>118</ele>
        <time>2022-05-12T06:48:41.686Z</time>
      </trkpt>
      <trkpt lat="43.71267" lon="3.58807">
        <ele>118</ele>
        <time>2022-05-12T06:48:42.225Z</time>
      </trkpt>
      <trkpt lat="43.71269" lon="3.58811">
        <ele>118</ele>
        <time>2022-05-12T06:48:42.869Z</time>
      </trkpt>
      <trkpt lat="43.71271" lon="3.58814">
        <ele>120</ele>
        <time>2022-05-12T06:48:44.950Z</time>
      </trkpt>
      <trkpt lat="43.71273" lon="3.58818">
        <ele>120</ele>
        <time>2022-05-12T06:48:45.594Z</time>
      </trkpt>
      <trkpt lat="43.71275" lon="3.58821">
        <ele>120</ele>
        <time>2022-05-12T06:48:46.133Z</time>
      </trkpt>
      <trkpt lat="43.71277" lon="3.58824">
        <ele>120</ele>
        <time>2022-05-12T06:48:46.673Z</time>
      </trkpt>
      <trkpt lat="43.71279" lon="3.58827">
        <ele>122</ele>
        <time>2022-05-12T06:48:48.755Z</time>
      </trkpt>
      <trkpt lat="43.71281" lon="3.58831">
        <ele>122</ele>
        <time>2022-05-12T06:48:49.398Z</time>
      </trkpt>
      <trkpt lat="43.71283" lon="3.58834">
        <ele>122</ele>
        <time>2022-05-12T06:48:49.938Z</time>
      </trkpt>
      <trkpt lat="43.71285" lon="3.58837">
        <ele>122</ele>
        <time>2022-05-12T06:48:50.477Z</time>
      </trkpt>
      <trkpt lat="43.71287" lon="3.58841">
        <ele>122</ele>
        <time>2022-05-12T06:48:51.121Z</time>
      </trkpt>
      <trkpt lat="43.71288" lon="3.58844">
        <ele>124</ele>
        <time>2022-05-12T06:48:52.806Z</time>
      </trkpt>
      <trkpt lat="43.7129" lon="3.58847">
        <ele>124</ele>
        <time>2022-05-12T06:48:53.346Z</time>
      </trkpt>
      <trkpt lat="43.71292" lon="3.5885">
        <ele>124</ele>
        <time>2022-05-12T06:48:53.885Z</time>
      </trkpt>
      <trkpt lat="43.71294" lon="3.58854">
        <ele>124</ele>
        <time>2022-05-12T06:48:54.528Z</time>
      </trkpt>
      <trkpt lat="43.71296" lon="3.58857">
        <ele>124</ele>
        <time>2022-05-12T06:48:55.068Z</time>
      </trkpt>
      <trkpt lat="43.71298" lon="3.5886">
        <ele>126</ele>
        <time>2022-05-12T06:48:57.150Z</time>
      </trkpt>
      <trkpt lat="43.713" lon="3.58863">
        <ele>126</ele>
        <time>2022-05-12T06:48:57.690Z</time>
      </trkpt>
      <trkpt lat="43.71301" lon="3.58866">
        <ele>126</ele>
        <time>2022-05-12T06:48:58.127Z</time>
      </trkpt>
      <trkpt lat="43.71303" lon="3.5887">
        <ele>126</ele>
        <time>2022-05-12T06:48:58.770Z</time>
      </trkpt>
      <trkpt lat="43.71305" lon="3.58874">
        <ele>126</ele>
        <time>2022-05-12T06:48:59.413Z</time>
      </trkpt>
      <trkpt lat="43.71308" lon="3.58877">
        <ele>127</ele>
        <time>2022-05-12T06:49:02.025Z</time>
      </trkpt>
      <trkpt lat="43.7131" lon="3.58881">
        <ele>127</ele>
        <time>2022-05-12T06:49:02.668Z</time>
      </trkpt>
      <trkpt lat="43.71312" lon="3.58884">
        <ele>127</ele>
        <time>2022-05-12T06:49:03.208Z</time>
      </trkpt>
      <trkpt lat="43.71315" lon="3.58887">
        <ele>127</ele>
        <time>2022-05-12T06:49:03.885Z</time>
      </trkpt>
      <trkpt lat="43.71317" lon="3.5889">
        <ele>127</ele>
        <time>2022-05-12T06:49:04.425Z</time>
      </trkpt>
      <trkpt lat="43.7132" lon="3.58893">
        <ele>127</ele>
        <time>2022-05-12T06:49:05.102Z</time>
      </trkpt>
      <trkpt lat="43.71321" lon="3.58895">
        <ele>129</ele>
        <time>2022-05-12T06:49:06.343Z</time>
      </trkpt>
      <trkpt lat="43.71322" lon="3.58896">
        <ele>129</ele>
        <time>2022-05-12T06:49:06.568Z</time>
      </trkpt>
      <trkpt lat="43.71323" lon="3.58898">
        <ele>129</ele>
        <time>2022-05-12T06:49:06.890Z</time>
      </trkpt>
      <trkpt lat="43.71325" lon="3.589">
        <ele>129</ele>
        <time>2022-05-12T06:49:07.342Z</time>
      </trkpt>
      <trkpt lat="43.71326" lon="3.58902">
        <ele>129</ele>
        <time>2022-05-12T06:49:07.663Z</time>
      </trkpt>
      <trkpt lat="43.71328" lon="3.58904">
        <ele>129</ele>
        <time>2022-05-12T06:49:08.115Z</time>
      </trkpt>
      <trkpt lat="43.71329" lon="3.58906">
        <ele>129</ele>
        <time>2022-05-12T06:49:08.436Z</time>
      </trkpt>
      <trkpt lat="43.71331" lon="3.58908">
        <ele>129</ele>
        <time>2022-05-12T06:49:08.888Z</time>
      </trkpt>
      <trkpt lat="43.71333" lon="3.5891">
        <ele>129</ele>
        <time>2022-05-12T06:49:09.339Z</time>
      </trkpt>
      <trkpt lat="43.71335" lon="3.58913">
        <ele>129</ele>
        <time>2022-05-12T06:49:09.879Z</time>
      </trkpt>
      <trkpt lat="43.71337" lon="3.58916">
        <ele>129</ele>
        <time>2022-05-12T06:49:10.419Z</time>
      </trkpt>
      <trkpt lat="43.7134" lon="3.58919">
        <ele>129</ele>
        <time>2022-05-12T06:49:11.096Z</time>
      </trkpt>
      <trkpt lat="43.71342" lon="3.58922">
        <ele>129</ele>
        <time>2022-05-12T06:49:11.636Z</time>
      </trkpt>
      <trkpt lat="43.71344" lon="3.58925">
        <ele>129</ele>
        <time>2022-05-12T06:49:12.175Z</time>
      </trkpt>
      <trkpt lat="43.71347" lon="3.58928">
        <ele>129</ele>
        <time>2022-05-12T06:49:12.853Z</time>
      </trkpt>
      <trkpt lat="43.71349" lon="3.58931">
        <ele>129</ele>
        <time>2022-05-12T06:49:13.392Z</time>
      </trkpt>
      <trkpt lat="43.71352" lon="3.58933">
        <ele>129</ele>
        <time>2022-05-12T06:49:14.002Z</time>
      </trkpt>
      <trkpt lat="43.71354" lon="3.58936">
        <ele>129</ele>
        <time>2022-05-12T06:49:14.541Z</time>
      </trkpt>
      <trkpt lat="43.71357" lon="3.58939">
        <ele>129</ele>
        <time>2022-05-12T06:49:15.219Z</time>
      </trkpt>
      <trkpt lat="43.7136" lon="3.58942">
        <ele>129</ele>
        <time>2022-05-12T06:49:15.896Z</time>
      </trkpt>
      <trkpt lat="43.71363" lon="3.58946">
        <ele>130</ele>
        <time>2022-05-12T06:49:18.836Z</time>
      </trkpt>
      <trkpt lat="43.71365" lon="3.58949">
        <ele>130</ele>
        <time>2022-05-12T06:49:19.376Z</time>
      </trkpt>
      <trkpt lat="43.71368" lon="3.58953">
        <ele>130</ele>
        <time>2022-05-12T06:49:20.138Z</time>
      </trkpt>
      <trkpt lat="43.71371" lon="3.58957">
        <ele>130</ele>
        <time>2022-05-12T06:49:20.900Z</time>
      </trkpt>
      <trkpt lat="43.71373" lon="3.5896">
        <ele>130</ele>
        <time>2022-05-12T06:49:21.440Z</time>
      </trkpt>
      <trkpt lat="43.71376" lon="3.58964">
        <ele>130</ele>
        <time>2022-05-12T06:49:22.202Z</time>
      </trkpt>
      <trkpt lat="43.71378" lon="3.58968">
        <ele>130</ele>
        <time>2022-05-12T06:49:22.845Z</time>
      </trkpt>
      <trkpt lat="43.7138" lon="3.58973">
        <ele>130</ele>
        <time>2022-05-12T06:49:23.601Z</time>
      </trkpt>
      <trkpt lat="43.71382" lon="3.58977">
        <ele>130</ele>
        <time>2022-05-12T06:49:24.244Z</time>
      </trkpt>
      <trkpt lat="43.71384" lon="3.58982">
        <ele>130</ele>
        <time>2022-05-12T06:49:25.000Z</time>
      </trkpt>
      <trkpt lat="43.71386" lon="3.58987">
        <ele>130</ele>
        <time>2022-05-12T06:49:25.756Z</time>
      </trkpt>
      <trkpt lat="43.71388" lon="3.58991">
        <ele>130</ele>
        <time>2022-05-12T06:49:26.399Z</time>
      </trkpt>
      <trkpt lat="43.7139" lon="3.58996">
        <ele>130</ele>
        <time>2022-05-12T06:49:27.155Z</time>
      </trkpt>
      <trkpt lat="43.71391" lon="3.59">
        <ele>130</ele>
        <time>2022-05-12T06:49:27.714Z</time>
      </trkpt>
      <trkpt lat="43.71393" lon="3.59005">
        <ele>130</ele>
        <time>2022-05-12T06:49:28.470Z</time>
      </trkpt>
      <trkpt lat="43.71395" lon="3.59009">
        <ele>130</ele>
        <time>2022-05-12T06:49:29.113Z</time>
      </trkpt>
      <trkpt lat="43.71397" lon="3.59014">
        <ele>130</ele>
        <time>2022-05-12T06:49:29.869Z</time>
      </trkpt>
      <trkpt lat="43.71399" lon="3.59018">
        <ele>130</ele>
        <time>2022-05-12T06:49:30.512Z</time>
      </trkpt>
      <trkpt lat="43.714" lon="3.59023">
        <ele>130</ele>
        <time>2022-05-12T06:49:31.198Z</time>
      </trkpt>
      <trkpt lat="43.71402" lon="3.59027">
        <ele>130</ele>
        <time>2022-05-12T06:49:31.841Z</time>
      </trkpt>
      <trkpt lat="43.71404" lon="3.59031">
        <ele>130</ele>
        <time>2022-05-12T06:49:32.485Z</time>
      </trkpt>
      <trkpt lat="43.71405" lon="3.59036">
        <ele>130</ele>
        <time>2022-05-12T06:49:33.171Z</time>
      </trkpt>
      <trkpt lat="43.71407" lon="3.5904">
        <ele>130</ele>
        <time>2022-05-12T06:49:33.814Z</time>
      </trkpt>
      <trkpt lat="43.71408" lon="3.59044">
        <ele>130</ele>
        <time>2022-05-12T06:49:34.374Z</time>
      </trkpt>
      <trkpt lat="43.71409" lon="3.59049">
        <ele>130</ele>
        <time>2022-05-12T06:49:35.060Z</time>
      </trkpt>
      <trkpt lat="43.7141" lon="3.59054">
        <ele>130</ele>
        <time>2022-05-12T06:49:35.746Z</time>
      </trkpt>
      <trkpt lat="43.7141" lon="3.59059">
        <ele>130</ele>
        <time>2022-05-12T06:49:36.407Z</time>
      </trkpt>
      <trkpt lat="43.71411" lon="3.59064">
        <ele>130</ele>
        <time>2022-05-12T06:49:37.093Z</time>
      </trkpt>
      <trkpt lat="43.71411" lon="3.59069">
        <ele>130</ele>
        <time>2022-05-12T06:49:37.754Z</time>
      </trkpt>
      <trkpt lat="43.71412" lon="3.59074">
        <ele>130</ele>
        <time>2022-05-12T06:49:38.440Z</time>
      </trkpt>
      <trkpt lat="43.71412" lon="3.59079">
        <ele>130</ele>
        <time>2022-05-12T06:49:39.101Z</time>
      </trkpt>
      <trkpt lat="43.71414" lon="3.59084">
        <ele>130</ele>
        <time>2022-05-12T06:49:39.857Z</time>
      </trkpt>
      <trkpt lat="43.71415" lon="3.59089">
        <ele>130</ele>
        <time>2022-05-12T06:49:40.543Z</time>
      </trkpt>
      <trkpt lat="43.71417" lon="3.59094">
        <ele>130</ele>
        <time>2022-05-12T06:49:41.299Z</time>
      </trkpt>
      <trkpt lat="43.71419" lon="3.59097">
        <ele>130</ele>
        <time>2022-05-12T06:49:41.839Z</time>
      </trkpt>
      <trkpt lat="43.71421" lon="3.59101">
        <ele>130</ele>
        <time>2022-05-12T06:49:42.482Z</time>
      </trkpt>
      <trkpt lat="43.71424" lon="3.59103">
        <ele>130</ele>
        <time>2022-05-12T06:49:43.091Z</time>
      </trkpt>
      <trkpt lat="43.71428" lon="3.59105">
        <ele>130</ele>
        <time>2022-05-12T06:49:43.869Z</time>
      </trkpt>
      <trkpt lat="43.71432" lon="3.59106">
        <ele>130</ele>
        <time>2022-05-12T06:49:44.613Z</time>
      </trkpt>
      <trkpt lat="43.71436" lon="3.59107">
        <ele>130</ele>
        <time>2022-05-12T06:49:45.357Z</time>
      </trkpt>
      <trkpt lat="43.71441" lon="3.59108">
        <ele>130</ele>
        <time>2022-05-12T06:49:46.281Z</time>
      </trkpt>
      <trkpt lat="43.71445" lon="3.59108">
        <ele>130</ele>
        <time>2022-05-12T06:49:47.013Z</time>
      </trkpt>
      <trkpt lat="43.71449" lon="3.59108">
        <ele>130</ele>
        <time>2022-05-12T06:49:47.745Z</time>
      </trkpt>
      <trkpt lat="43.71453" lon="3.59108">
        <ele>130</ele>
        <time>2022-05-12T06:49:48.476Z</time>
      </trkpt>
      <trkpt lat="43.71457" lon="3.59107">
        <ele>130</ele>
        <time>2022-05-12T06:49:49.220Z</time>
      </trkpt>
      <trkpt lat="43.71461" lon="3.59107">
        <ele>130</ele>
        <time>2022-05-12T06:49:49.952Z</time>
      </trkpt>
      <trkpt lat="43.71465" lon="3.59107">
        <ele>130</ele>
        <time>2022-05-12T06:49:50.684Z</time>
      </trkpt>
      <trkpt lat="43.71469" lon="3.59107">
        <ele>130</ele>
        <time>2022-05-12T06:49:51.416Z</time>
      </trkpt>
      <trkpt lat="43.71472" lon="3.59107">
        <ele>130</ele>
        <time>2022-05-12T06:49:51.964Z</time>
      </trkpt>
      <trkpt lat="43.71475" lon="3.59106">
        <ele>129</ele>
        <time>2022-05-12T06:49:52.239Z</time>
      </trkpt>
      <trkpt lat="43.71478" lon="3.59106">
        <ele>129</ele>
        <time>2022-05-12T06:49:52.788Z</time>
      </trkpt>
      <trkpt lat="43.7148" lon="3.59106">
        <ele>129</ele>
        <time>2022-05-12T06:49:53.154Z</time>
      </trkpt>
      <trkpt lat="43.71483" lon="3.59105">
        <ele>129</ele>
        <time>2022-05-12T06:49:53.719Z</time>
      </trkpt>
      <trkpt lat="43.71486" lon="3.59105">
        <ele>129</ele>
        <time>2022-05-12T06:49:54.267Z</time>
      </trkpt>
      <trkpt lat="43.71488" lon="3.59105">
        <ele>129</ele>
        <time>2022-05-12T06:49:54.633Z</time>
      </trkpt>
      <trkpt lat="43.71491" lon="3.59104">
        <ele>129</ele>
        <time>2022-05-12T06:49:55.198Z</time>
      </trkpt>
      <trkpt lat="43.71493" lon="3.59104">
        <ele>129</ele>
        <time>2022-05-12T06:49:55.564Z</time>
      </trkpt>
      <trkpt lat="43.71496" lon="3.59104">
        <ele>129</ele>
        <time>2022-05-12T06:49:56.113Z</time>
      </trkpt>
      <trkpt lat="43.71499" lon="3.59103">
        <ele>129</ele>
        <time>2022-05-12T06:49:56.677Z</time>
      </trkpt>
      <trkpt lat="43.71502" lon="3.59103">
        <ele>130</ele>
        <time>2022-05-12T06:49:58.794Z</time>
      </trkpt>
      <trkpt lat="43.71505" lon="3.59103">
        <ele>130</ele>
        <time>2022-05-12T06:49:59.343Z</time>
      </trkpt>
      <trkpt lat="43.71508" lon="3.59103">
        <ele>130</ele>
        <time>2022-05-12T06:49:59.892Z</time>
      </trkpt>
      <trkpt lat="43.71511" lon="3.59103">
        <ele>130</ele>
        <time>2022-05-12T06:50:00.441Z</time>
      </trkpt>
      <trkpt lat="43.71514" lon="3.59103">
        <ele>130</ele>
        <time>2022-05-12T06:50:00.990Z</time>
      </trkpt>
      <trkpt lat="43.71516" lon="3.59103">
        <ele>130</ele>
        <time>2022-05-12T06:50:01.356Z</time>
      </trkpt>
      <trkpt lat="43.71519" lon="3.59103">
        <ele>130</ele>
        <time>2022-05-12T06:50:01.905Z</time>
      </trkpt>
      <trkpt lat="43.71522" lon="3.59103">
        <ele>130</ele>
        <time>2022-05-12T06:50:02.454Z</time>
      </trkpt>
      <trkpt lat="43.71525" lon="3.59103">
        <ele>130</ele>
        <time>2022-05-12T06:50:03.002Z</time>
      </trkpt>
      <trkpt lat="43.71528" lon="3.59103">
        <ele>130</ele>
        <time>2022-05-12T06:50:03.551Z</time>
      </trkpt>
      <trkpt lat="43.71531" lon="3.59104">
        <ele>130</ele>
        <time>2022-05-12T06:50:04.116Z</time>
      </trkpt>
      <trkpt lat="43.71533" lon="3.59105">
        <ele>132</ele>
        <time>2022-05-12T06:50:05.617Z</time>
      </trkpt>
      <trkpt lat="43.71535" lon="3.59107">
        <ele>132</ele>
        <time>2022-05-12T06:50:06.068Z</time>
      </trkpt>
      <trkpt lat="43.71537" lon="3.59111">
        <ele>132</ele>
        <time>2022-05-12T06:50:06.711Z</time>
      </trkpt>
      <trkpt lat="43.71538" lon="3.59116">
        <ele>132</ele>
        <time>2022-05-12T06:50:07.397Z</time>
      </trkpt>
      <trkpt lat="43.71536" lon="3.59121">
        <ele>132</ele>
        <time>2022-05-12T06:50:08.153Z</time>
      </trkpt>
      <trkpt lat="43.71535" lon="3.59124">
        <ele>132</ele>
        <time>2022-05-12T06:50:08.590Z</time>
      </trkpt>
      <trkpt lat="43.71534" lon="3.59127">
        <ele>132</ele>
        <time>2022-05-12T06:50:09.027Z</time>
      </trkpt>
      <trkpt lat="43.71532" lon="3.5913">
        <ele>132</ele>
        <time>2022-05-12T06:50:09.566Z</time>
      </trkpt>
      <trkpt lat="43.71531" lon="3.59132">
        <ele>132</ele>
        <time>2022-05-12T06:50:09.888Z</time>
      </trkpt>
      <trkpt lat="43.7153" lon="3.59134">
        <ele>132</ele>
        <time>2022-05-12T06:50:10.210Z</time>
      </trkpt>
      <trkpt lat="43.71528" lon="3.59136">
        <ele>132</ele>
        <time>2022-05-12T06:50:10.661Z</time>
      </trkpt>
      <trkpt lat="43.71527" lon="3.59138">
        <ele>132</ele>
        <time>2022-05-12T06:50:10.983Z</time>
      </trkpt>
      <trkpt lat="43.71525" lon="3.5914">
        <ele>132</ele>
        <time>2022-05-12T06:50:11.434Z</time>
      </trkpt>
      <trkpt lat="43.71524" lon="3.59142">
        <ele>132</ele>
        <time>2022-05-12T06:50:11.756Z</time>
      </trkpt>
      <trkpt lat="43.71523" lon="3.59144">
        <ele>132</ele>
        <time>2022-05-12T06:50:12.077Z</time>
      </trkpt>
      <trkpt lat="43.71521" lon="3.59146">
        <ele>132</ele>
        <time>2022-05-12T06:50:12.529Z</time>
      </trkpt>
      <trkpt lat="43.7152" lon="3.59147">
        <ele>132</ele>
        <time>2022-05-12T06:50:12.755Z</time>
      </trkpt>
      <trkpt lat="43.71518" lon="3.59149">
        <ele>132</ele>
        <time>2022-05-12T06:50:13.206Z</time>
      </trkpt>
      <trkpt lat="43.71516" lon="3.59151">
        <ele>132</ele>
        <time>2022-05-12T06:50:13.658Z</time>
      </trkpt>
      <trkpt lat="43.71514" lon="3.59154">
        <ele>132</ele>
        <time>2022-05-12T06:50:14.197Z</time>
      </trkpt>
      <trkpt lat="43.71512" lon="3.59156">
        <ele>134</ele>
        <time>2022-05-12T06:50:15.939Z</time>
      </trkpt>
      <trkpt lat="43.71511" lon="3.59158">
        <ele>134</ele>
        <time>2022-05-12T06:50:16.260Z</time>
      </trkpt>
      <trkpt lat="43.71509" lon="3.59161">
        <ele>134</ele>
        <time>2022-05-12T06:50:16.800Z</time>
      </trkpt>
      <trkpt lat="43.71507" lon="3.59165">
        <ele>134</ele>
        <time>2022-05-12T06:50:17.443Z</time>
      </trkpt>
      <trkpt lat="43.71505" lon="3.59168">
        <ele>134</ele>
        <time>2022-05-12T06:50:17.983Z</time>
      </trkpt>
      <trkpt lat="43.71502" lon="3.59172">
        <ele>134</ele>
        <time>2022-05-12T06:50:18.745Z</time>
      </trkpt>
      <trkpt lat="43.715" lon="3.59175">
        <ele>136</ele>
        <time>2022-05-12T06:50:20.827Z</time>
      </trkpt>
      <trkpt lat="43.71498" lon="3.59178">
        <ele>136</ele>
        <time>2022-05-12T06:50:21.367Z</time>
      </trkpt>
      <trkpt lat="43.71496" lon="3.59182">
        <ele>136</ele>
        <time>2022-05-12T06:50:22.010Z</time>
      </trkpt>
      <trkpt lat="43.71495" lon="3.59184">
        <ele>136</ele>
        <time>2022-05-12T06:50:22.331Z</time>
      </trkpt>
      <trkpt lat="43.71493" lon="3.59188">
        <ele>136</ele>
        <time>2022-05-12T06:50:22.975Z</time>
      </trkpt>
      <trkpt lat="43.71492" lon="3.5919">
        <ele>136</ele>
        <time>2022-05-12T06:50:23.296Z</time>
      </trkpt>
      <trkpt lat="43.71491" lon="3.59193">
        <ele>137</ele>
        <time>2022-05-12T06:50:24.981Z</time>
      </trkpt>
      <trkpt lat="43.7149" lon="3.59195">
        <ele>137</ele>
        <time>2022-05-12T06:50:25.303Z</time>
      </trkpt>
      <trkpt lat="43.71489" lon="3.59197">
        <ele>137</ele>
        <time>2022-05-12T06:50:25.625Z</time>
      </trkpt>
      <trkpt lat="43.71488" lon="3.59199">
        <ele>137</ele>
        <time>2022-05-12T06:50:25.946Z</time>
      </trkpt>
      <trkpt lat="43.71486" lon="3.59201">
        <ele>137</ele>
        <time>2022-05-12T06:50:26.398Z</time>
      </trkpt>
      <trkpt lat="43.71485" lon="3.59203">
        <ele>137</ele>
        <time>2022-05-12T06:50:26.719Z</time>
      </trkpt>
      <trkpt lat="43.71484" lon="3.59205">
        <ele>137</ele>
        <time>2022-05-12T06:50:27.041Z</time>
      </trkpt>
      <trkpt lat="43.71483" lon="3.59207">
        <ele>137</ele>
        <time>2022-05-12T06:50:27.362Z</time>
      </trkpt>
      <trkpt lat="43.71481" lon="3.59209">
        <ele>137</ele>
        <time>2022-05-12T06:50:27.814Z</time>
      </trkpt>
      <trkpt lat="43.7148" lon="3.59211">
        <ele>139</ele>
        <time>2022-05-12T06:50:29.054Z</time>
      </trkpt>
      <trkpt lat="43.71479" lon="3.59213">
        <ele>139</ele>
        <time>2022-05-12T06:50:29.376Z</time>
      </trkpt>
      <trkpt lat="43.71477" lon="3.59215">
        <ele>139</ele>
        <time>2022-05-12T06:50:29.827Z</time>
      </trkpt>
      <trkpt lat="43.71475" lon="3.59216">
        <ele>139</ele>
        <time>2022-05-12T06:50:30.217Z</time>
      </trkpt>
      <trkpt lat="43.71473" lon="3.59218">
        <ele>139</ele>
        <time>2022-05-12T06:50:30.668Z</time>
      </trkpt>
      <trkpt lat="43.71472" lon="3.5922">
        <ele>139</ele>
        <time>2022-05-12T06:50:30.990Z</time>
      </trkpt>
      <trkpt lat="43.7147" lon="3.59221">
        <ele>139</ele>
        <time>2022-05-12T06:50:31.379Z</time>
      </trkpt>
      <trkpt lat="43.71468" lon="3.59223">
        <ele>139</ele>
        <time>2022-05-12T06:50:31.830Z</time>
      </trkpt>
      <trkpt lat="43.71467" lon="3.59225">
        <ele>139</ele>
        <time>2022-05-12T06:50:32.152Z</time>
      </trkpt>
      <trkpt lat="43.71465" lon="3.59226">
        <ele>139</ele>
        <time>2022-05-12T06:50:32.541Z</time>
      </trkpt>
      <trkpt lat="43.71463" lon="3.59228">
        <ele>139</ele>
        <time>2022-05-12T06:50:32.992Z</time>
      </trkpt>
      <trkpt lat="43.71461" lon="3.5923">
        <ele>141</ele>
        <time>2022-05-12T06:50:34.734Z</time>
      </trkpt>
      <trkpt lat="43.71459" lon="3.59231">
        <ele>141</ele>
        <time>2022-05-12T06:50:35.123Z</time>
      </trkpt>
      <trkpt lat="43.71456" lon="3.59233">
        <ele>141</ele>
        <time>2022-05-12T06:50:35.732Z</time>
      </trkpt>
      <trkpt lat="43.71454" lon="3.59235">
        <ele>141</ele>
        <time>2022-05-12T06:50:36.184Z</time>
      </trkpt>
      <trkpt lat="43.71451" lon="3.59237">
        <ele>141</ele>
        <time>2022-05-12T06:50:36.793Z</time>
      </trkpt>
      <trkpt lat="43.71448" lon="3.5924">
        <ele>141</ele>
        <time>2022-05-12T06:50:37.470Z</time>
      </trkpt>
      <trkpt lat="43.71445" lon="3.59242">
        <ele>141</ele>
        <time>2022-05-12T06:50:38.079Z</time>
      </trkpt>
      <trkpt lat="43.71442" lon="3.59245">
        <ele>141</ele>
        <time>2022-05-12T06:50:38.757Z</time>
      </trkpt>
      <trkpt lat="43.71439" lon="3.59248">
        <ele>141</ele>
        <time>2022-05-12T06:50:39.434Z</time>
      </trkpt>
      <trkpt lat="43.71436" lon="3.59251">
        <ele>141</ele>
        <time>2022-05-12T06:50:40.111Z</time>
      </trkpt>
      <trkpt lat="43.71433" lon="3.59255">
        <ele>141</ele>
        <time>2022-05-12T06:50:40.873Z</time>
      </trkpt>
      <trkpt lat="43.71431" lon="3.59259">
        <ele>141</ele>
        <time>2022-05-12T06:50:41.517Z</time>
      </trkpt>
      <trkpt lat="43.71428" lon="3.59264">
        <ele>141</ele>
        <time>2022-05-12T06:50:42.376Z</time>
      </trkpt>
      <trkpt lat="43.71425" lon="3.59269">
        <ele>141</ele>
        <time>2022-05-12T06:50:43.235Z</time>
      </trkpt>
      <trkpt lat="43.71423" lon="3.59274">
        <ele>141</ele>
        <time>2022-05-12T06:50:43.991Z</time>
      </trkpt>
      <trkpt lat="43.7142" lon="3.59281">
        <ele>141</ele>
        <time>2022-05-12T06:50:45.067Z</time>
      </trkpt>
      <trkpt lat="43.71419" lon="3.5929">
        <ele>141</ele>
        <time>2022-05-12T06:50:46.271Z</time>
      </trkpt>
      <trkpt lat="43.71417" lon="3.59299">
        <ele>141</ele>
        <time>2022-05-12T06:50:47.516Z</time>
      </trkpt>
      <trkpt lat="43.71416" lon="3.59308">
        <ele>141</ele>
        <time>2022-05-12T06:50:48.721Z</time>
      </trkpt>
      <trkpt lat="43.71415" lon="3.59317">
        <ele>141</ele>
        <time>2022-05-12T06:50:49.925Z</time>
      </trkpt>
      <trkpt lat="43.71414" lon="3.59326">
        <ele>141</ele>
        <time>2022-05-12T06:50:51.129Z</time>
      </trkpt>
      <trkpt lat="43.71412" lon="3.59333">
        <ele>141</ele>
        <time>2022-05-12T06:50:52.124Z</time>
      </trkpt>
      <trkpt lat="43.7141" lon="3.5934">
        <ele>141</ele>
        <time>2022-05-12T06:50:53.120Z</time>
      </trkpt>
      <trkpt lat="43.71409" lon="3.59346">
        <ele>141</ele>
        <time>2022-05-12T06:50:53.934Z</time>
      </trkpt>
      <trkpt lat="43.71409" lon="3.59352">
        <ele>141</ele>
        <time>2022-05-12T06:50:54.727Z</time>
      </trkpt>
      <trkpt lat="43.7141" lon="3.59358">
        <ele>141</ele>
        <time>2022-05-12T06:50:55.542Z</time>
      </trkpt>
      <trkpt lat="43.71414" lon="3.59365">
        <ele>141</ele>
        <time>2022-05-12T06:50:56.722Z</time>
      </trkpt>
      <trkpt lat="43.71418" lon="3.59372">
        <ele>141</ele>
        <time>2022-05-12T06:50:57.902Z</time>
      </trkpt>
      <trkpt lat="43.71422" lon="3.59379">
        <ele>141</ele>
        <time>2022-05-12T06:50:59.082Z</time>
      </trkpt>
      <trkpt lat="43.71426" lon="3.59386">
        <ele>138</ele>
        <time>2022-05-12T06:50:59.656Z</time>
      </trkpt>
      <trkpt lat="43.7143" lon="3.59393">
        <ele>138</ele>
        <time>2022-05-12T06:51:00.836Z</time>
      </trkpt>
      <trkpt lat="43.71434" lon="3.59399">
        <ele>138</ele>
        <time>2022-05-12T06:51:01.915Z</time>
      </trkpt>
      <trkpt lat="43.71437" lon="3.59405">
        <ele>138</ele>
        <time>2022-05-12T06:51:02.880Z</time>
      </trkpt>
      <trkpt lat="43.71441" lon="3.59411">
        <ele>138</ele>
        <time>2022-05-12T06:51:03.960Z</time>
      </trkpt>
      <trkpt lat="43.71444" lon="3.59417">
        <ele>138</ele>
        <time>2022-05-12T06:51:04.924Z</time>
      </trkpt>
      <trkpt lat="43.71447" lon="3.59424">
        <ele>138</ele>
        <time>2022-05-12T06:51:06.001Z</time>
      </trkpt>
      <trkpt lat="43.7145" lon="3.5943">
        <ele>138</ele>
        <time>2022-05-12T06:51:06.965Z</time>
      </trkpt>
      <trkpt lat="43.71453" lon="3.59436">
        <ele>138</ele>
        <time>2022-05-12T06:51:07.930Z</time>
      </trkpt>
      <trkpt lat="43.71456" lon="3.59442">
        <ele>138</ele>
        <time>2022-05-12T06:51:08.895Z</time>
      </trkpt>
      <trkpt lat="43.71459" lon="3.5945">
        <ele>135</ele>
        <time>2022-05-12T06:51:09.475Z</time>
      </trkpt>
      <trkpt lat="43.71462" lon="3.59458">
        <ele>135</ele>
        <time>2022-05-12T06:51:10.667Z</time>
      </trkpt>
      <trkpt lat="43.71465" lon="3.59468">
        <ele>135</ele>
        <time>2022-05-12T06:51:12.099Z</time>
      </trkpt>
      <trkpt lat="43.71468" lon="3.59479">
        <ele>135</ele>
        <time>2022-05-12T06:51:13.653Z</time>
      </trkpt>
      <trkpt lat="43.71471" lon="3.5949">
        <ele>135</ele>
        <time>2022-05-12T06:51:15.208Z</time>
      </trkpt>
      <trkpt lat="43.71471" lon="3.59501">
        <ele>135</ele>
        <time>2022-05-12T06:51:16.663Z</time>
      </trkpt>
      <trkpt lat="43.7147" lon="3.59511">
        <ele>135</ele>
        <time>2022-05-12T06:51:17.998Z</time>
      </trkpt>
      <trkpt lat="43.71466" lon="3.59519">
        <ele>135</ele>
        <time>2022-05-12T06:51:19.284Z</time>
      </trkpt>
      <trkpt lat="43.71463" lon="3.59526">
        <ele>135</ele>
        <time>2022-05-12T06:51:20.360Z</time>
      </trkpt>
      <trkpt lat="43.71459" lon="3.59532">
        <ele>135</ele>
        <time>2022-05-12T06:51:21.440Z</time>
      </trkpt>
      <trkpt lat="43.71457" lon="3.59537">
        <ele>135</ele>
        <time>2022-05-12T06:51:22.195Z</time>
      </trkpt>
      <trkpt lat="43.71455" lon="3.59541">
        <ele>130</ele>
        <time>2022-05-12T06:51:22.508Z</time>
      </trkpt>
      <trkpt lat="43.71453" lon="3.59546">
        <ele>130</ele>
        <time>2022-05-12T06:51:23.264Z</time>
      </trkpt>
      <trkpt lat="43.71453" lon="3.59549">
        <ele>130</ele>
        <time>2022-05-12T06:51:23.661Z</time>
      </trkpt>
      <trkpt lat="43.71453" lon="3.59553">
        <ele>130</ele>
        <time>2022-05-12T06:51:24.190Z</time>
      </trkpt>
      <trkpt lat="43.71452" lon="3.59556">
        <ele>130</ele>
        <time>2022-05-12T06:51:24.627Z</time>
      </trkpt>
      <trkpt lat="43.71452" lon="3.5956">
        <ele>130</ele>
        <time>2022-05-12T06:51:25.156Z</time>
      </trkpt>
      <trkpt lat="43.71453" lon="3.59563">
        <ele>130</ele>
        <time>2022-05-12T06:51:25.592Z</time>
      </trkpt>
      <trkpt lat="43.71453" lon="3.59566">
        <ele>130</ele>
        <time>2022-05-12T06:51:25.989Z</time>
      </trkpt>
      <trkpt lat="43.71454" lon="3.59569">
        <ele>130</ele>
        <time>2022-05-12T06:51:26.426Z</time>
      </trkpt>
      <trkpt lat="43.71454" lon="3.59572">
        <ele>130</ele>
        <time>2022-05-12T06:51:26.823Z</time>
      </trkpt>
      <trkpt lat="43.71454" lon="3.59575">
        <ele>128</ele>
        <time>2022-05-12T06:51:27.016Z</time>
      </trkpt>
      <trkpt lat="43.71454" lon="3.59577">
        <ele>128</ele>
        <time>2022-05-12T06:51:27.280Z</time>
      </trkpt>
      <trkpt lat="43.71454" lon="3.5958">
        <ele>128</ele>
        <time>2022-05-12T06:51:27.677Z</time>
      </trkpt>
      <trkpt lat="43.71454" lon="3.59583">
        <ele>128</ele>
        <time>2022-05-12T06:51:28.074Z</time>
      </trkpt>
      <trkpt lat="43.71454" lon="3.59585">
        <ele>128</ele>
        <time>2022-05-12T06:51:28.338Z</time>
      </trkpt>
      <trkpt lat="43.71454" lon="3.59588">
        <ele>128</ele>
        <time>2022-05-12T06:51:28.735Z</time>
      </trkpt>
      <trkpt lat="43.71453" lon="3.5959">
        <ele>128</ele>
        <time>2022-05-12T06:51:29.057Z</time>
      </trkpt>
      <trkpt lat="43.71453" lon="3.59593">
        <ele>128</ele>
        <time>2022-05-12T06:51:29.453Z</time>
      </trkpt>
      <trkpt lat="43.71453" lon="3.59595">
        <ele>128</ele>
        <time>2022-05-12T06:51:29.718Z</time>
      </trkpt>
      <trkpt lat="43.71452" lon="3.59598">
        <ele>128</ele>
        <time>2022-05-12T06:51:30.155Z</time>
      </trkpt>
      <trkpt lat="43.7145" lon="3.59602">
        <ele>128</ele>
        <time>2022-05-12T06:51:30.798Z</time>
      </trkpt>
      <trkpt lat="43.7145" lon="3.59606">
        <ele>128</ele>
        <time>2022-05-12T06:51:31.327Z</time>
      </trkpt>
      <trkpt lat="43.71449" lon="3.59611">
        <ele>128</ele>
        <time>2022-05-12T06:51:32.013Z</time>
      </trkpt>
      <trkpt lat="43.71448" lon="3.59616">
        <ele>128</ele>
        <time>2022-05-12T06:51:32.699Z</time>
      </trkpt>
      <trkpt lat="43.71448" lon="3.5962">
        <ele>129</ele>
        <time>2022-05-12T06:51:34.739Z</time>
      </trkpt>
      <trkpt lat="43.71448" lon="3.59624">
        <ele>129</ele>
        <time>2022-05-12T06:51:35.268Z</time>
      </trkpt>
      <trkpt lat="43.71447" lon="3.59628">
        <ele>129</ele>
        <time>2022-05-12T06:51:35.828Z</time>
      </trkpt>
      <trkpt lat="43.71447" lon="3.59632">
        <ele>129</ele>
        <time>2022-05-12T06:51:36.357Z</time>
      </trkpt>
      <trkpt lat="43.71448" lon="3.59636">
        <ele>129</ele>
        <time>2022-05-12T06:51:36.917Z</time>
      </trkpt>
      <trkpt lat="43.71449" lon="3.59641">
        <ele>130</ele>
        <time>2022-05-12T06:51:39.563Z</time>
      </trkpt>
      <trkpt lat="43.71449" lon="3.59645">
        <ele>130</ele>
        <time>2022-05-12T06:51:40.092Z</time>
      </trkpt>
      <trkpt lat="43.71449" lon="3.5965">
        <ele>130</ele>
        <time>2022-05-12T06:51:40.753Z</time>
      </trkpt>
      <trkpt lat="43.71449" lon="3.59654">
        <ele>130</ele>
        <time>2022-05-12T06:51:41.282Z</time>
      </trkpt>
      <trkpt lat="43.71449" lon="3.59658">
        <ele>130</ele>
        <time>2022-05-12T06:51:41.811Z</time>
      </trkpt>
      <trkpt lat="43.71448" lon="3.59662">
        <ele>130</ele>
        <time>2022-05-12T06:51:42.371Z</time>
      </trkpt>
      <trkpt lat="43.71448" lon="3.59667">
        <ele>131</ele>
        <time>2022-05-12T06:51:44.921Z</time>
      </trkpt>
      <trkpt lat="43.71448" lon="3.59671">
        <ele>131</ele>
        <time>2022-05-12T06:51:45.450Z</time>
      </trkpt>
      <trkpt lat="43.71448" lon="3.59676">
        <ele>131</ele>
        <time>2022-05-12T06:51:46.111Z</time>
      </trkpt>
      <trkpt lat="43.71447" lon="3.5968">
        <ele>131</ele>
        <time>2022-05-12T06:51:46.671Z</time>
      </trkpt>
      <trkpt lat="43.71447" lon="3.59685">
        <ele>131</ele>
        <time>2022-05-12T06:51:47.332Z</time>
      </trkpt>
      <trkpt lat="43.71447" lon="3.5969">
        <ele>131</ele>
        <time>2022-05-12T06:51:47.993Z</time>
      </trkpt>
      <trkpt lat="43.71447" lon="3.59695">
        <ele>131</ele>
        <time>2022-05-12T06:51:48.654Z</time>
      </trkpt>
      <trkpt lat="43.71448" lon="3.59699">
        <ele>131</ele>
        <time>2022-05-12T06:51:49.214Z</time>
      </trkpt>
      <trkpt lat="43.71447" lon="3.59704">
        <ele>131</ele>
        <time>2022-05-12T06:51:49.900Z</time>
      </trkpt>
      <trkpt lat="43.71447" lon="3.59708">
        <ele>132</ele>
        <time>2022-05-12T06:51:51.940Z</time>
      </trkpt>
      <trkpt lat="43.71447" lon="3.59712">
        <ele>132</ele>
        <time>2022-05-12T06:51:52.469Z</time>
      </trkpt>
      <trkpt lat="43.71448" lon="3.59717">
        <ele>132</ele>
        <time>2022-05-12T06:51:53.155Z</time>
      </trkpt>
      <trkpt lat="43.71448" lon="3.59721">
        <ele>132</ele>
        <time>2022-05-12T06:51:53.684Z</time>
      </trkpt>
      <trkpt lat="43.71447" lon="3.59726">
        <ele>132</ele>
        <time>2022-05-12T06:51:54.370Z</time>
      </trkpt>
      <trkpt lat="43.71446" lon="3.59731">
        <ele>132</ele>
        <time>2022-05-12T06:51:55.057Z</time>
      </trkpt>
      <trkpt lat="43.71446" lon="3.59736">
        <ele>134</ele>
        <time>2022-05-12T06:51:57.607Z</time>
      </trkpt>
      <trkpt lat="43.71446" lon="3.59738">
        <ele>134</ele>
        <time>2022-05-12T06:51:57.871Z</time>
      </trkpt>
      <trkpt lat="43.71445" lon="3.59743">
        <ele>134</ele>
        <time>2022-05-12T06:51:58.557Z</time>
      </trkpt>
      <trkpt lat="43.71444" lon="3.59748">
        <ele>134</ele>
        <time>2022-05-12T06:51:59.243Z</time>
      </trkpt>
      <trkpt lat="43.71443" lon="3.59752">
        <ele>134</ele>
        <time>2022-05-12T06:51:59.803Z</time>
      </trkpt>
      <trkpt lat="43.71443" lon="3.59757">
        <ele>135</ele>
        <time>2022-05-12T06:52:02.354Z</time>
      </trkpt>
      <trkpt lat="43.71442" lon="3.59762">
        <ele>135</ele>
        <time>2022-05-12T06:52:03.040Z</time>
      </trkpt>
      <trkpt lat="43.71441" lon="3.59766">
        <ele>135</ele>
        <time>2022-05-12T06:52:03.599Z</time>
      </trkpt>
      <trkpt lat="43.7144" lon="3.5977">
        <ele>135</ele>
        <time>2022-05-12T06:52:04.159Z</time>
      </trkpt>
      <trkpt lat="43.7144" lon="3.59775">
        <ele>135</ele>
        <time>2022-05-12T06:52:04.820Z</time>
      </trkpt>
      <trkpt lat="43.71439" lon="3.59779">
        <ele>136</ele>
        <time>2022-05-12T06:52:06.979Z</time>
      </trkpt>
      <trkpt lat="43.71438" lon="3.59784">
        <ele>136</ele>
        <time>2022-05-12T06:52:07.665Z</time>
      </trkpt>
      <trkpt lat="43.71438" lon="3.59786">
        <ele>136</ele>
        <time>2022-05-12T06:52:07.930Z</time>
      </trkpt>
      <trkpt lat="43.71437" lon="3.59791">
        <ele>136</ele>
        <time>2022-05-12T06:52:08.616Z</time>
      </trkpt>
      <trkpt lat="43.71437" lon="3.59795">
        <ele>136</ele>
        <time>2022-05-12T06:52:09.145Z</time>
      </trkpt>
      <trkpt lat="43.71436" lon="3.59799">
        <ele>136</ele>
        <time>2022-05-12T06:52:09.704Z</time>
      </trkpt>
      <trkpt lat="43.71435" lon="3.59804">
        <ele>136</ele>
        <time>2022-05-12T06:52:10.390Z</time>
      </trkpt>
      <trkpt lat="43.71435" lon="3.59808">
        <ele>136</ele>
        <time>2022-05-12T06:52:10.919Z</time>
      </trkpt>
      <trkpt lat="43.71434" lon="3.59812">
        <ele>136</ele>
        <time>2022-05-12T06:52:11.479Z</time>
      </trkpt>
      <trkpt lat="43.71432" lon="3.59816">
        <ele>136</ele>
        <time>2022-05-12T06:52:12.122Z</time>
      </trkpt>
      <trkpt lat="43.71431" lon="3.5982">
        <ele>136</ele>
        <time>2022-05-12T06:52:12.682Z</time>
      </trkpt>
      <trkpt lat="43.71431" lon="3.59824">
        <ele>138</ele>
        <time>2022-05-12T06:52:14.722Z</time>
      </trkpt>
      <trkpt lat="43.71431" lon="3.59828">
        <ele>138</ele>
        <time>2022-05-12T06:52:15.251Z</time>
      </trkpt>
      <trkpt lat="43.7143" lon="3.59832">
        <ele>138</ele>
        <time>2022-05-12T06:52:15.811Z</time>
      </trkpt>
      <trkpt lat="43.71429" lon="3.59837">
        <ele>138</ele>
        <time>2022-05-12T06:52:16.497Z</time>
      </trkpt>
      <trkpt lat="43.71429" lon="3.59842">
        <ele>139</ele>
        <time>2022-05-12T06:52:19.047Z</time>
      </trkpt>
      <trkpt lat="43.71429" lon="3.59846">
        <ele>139</ele>
        <time>2022-05-12T06:52:19.576Z</time>
      </trkpt>
      <trkpt lat="43.7143" lon="3.59851">
        <ele>139</ele>
        <time>2022-05-12T06:52:20.262Z</time>
      </trkpt>
      <trkpt lat="43.7143" lon="3.59856">
        <ele>139</ele>
        <time>2022-05-12T06:52:20.924Z</time>
      </trkpt>
      <trkpt lat="43.7143" lon="3.5986">
        <ele>139</ele>
        <time>2022-05-12T06:52:21.453Z</time>
      </trkpt>
      <trkpt lat="43.71431" lon="3.59865">
        <ele>139</ele>
        <time>2022-05-12T06:52:22.139Z</time>
      </trkpt>
      <trkpt lat="43.71431" lon="3.59869">
        <ele>141</ele>
        <time>2022-05-12T06:52:24.179Z</time>
      </trkpt>
      <trkpt lat="43.71431" lon="3.59873">
        <ele>141</ele>
        <time>2022-05-12T06:52:24.708Z</time>
      </trkpt>
      <trkpt lat="43.71431" lon="3.59878">
        <ele>141</ele>
        <time>2022-05-12T06:52:25.369Z</time>
      </trkpt>
      <trkpt lat="43.71431" lon="3.59882">
        <ele>141</ele>
        <time>2022-05-12T06:52:25.898Z</time>
      </trkpt>
      <trkpt lat="43.71431" lon="3.59887">
        <ele>141</ele>
        <time>2022-05-12T06:52:26.559Z</time>
      </trkpt>
      <trkpt lat="43.7143" lon="3.59892">
        <ele>142</ele>
        <time>2022-05-12T06:52:29.205Z</time>
      </trkpt>
      <trkpt lat="43.7143" lon="3.59897">
        <ele>142</ele>
        <time>2022-05-12T06:52:29.867Z</time>
      </trkpt>
      <trkpt lat="43.71429" lon="3.59901">
        <ele>142</ele>
        <time>2022-05-12T06:52:30.426Z</time>
      </trkpt>
      <trkpt lat="43.71428" lon="3.59905">
        <ele>142</ele>
        <time>2022-05-12T06:52:30.986Z</time>
      </trkpt>
      <trkpt lat="43.71426" lon="3.5991">
        <ele>142</ele>
        <time>2022-05-12T06:52:31.742Z</time>
      </trkpt>
      <trkpt lat="43.71425" lon="3.59914">
        <ele>143</ele>
        <time>2022-05-12T06:52:33.901Z</time>
      </trkpt>
      <trkpt lat="43.71423" lon="3.59918">
        <ele>143</ele>
        <time>2022-05-12T06:52:34.544Z</time>
      </trkpt>
      <trkpt lat="43.71421" lon="3.59922">
        <ele>143</ele>
        <time>2022-05-12T06:52:35.187Z</time>
      </trkpt>
      <trkpt lat="43.71419" lon="3.59926">
        <ele>143</ele>
        <time>2022-05-12T06:52:35.830Z</time>
      </trkpt>
      <trkpt lat="43.71417" lon="3.5993">
        <ele>144</ele>
        <time>2022-05-12T06:52:38.311Z</time>
      </trkpt>
      <trkpt lat="43.71416" lon="3.59932">
        <ele>144</ele>
        <time>2022-05-12T06:52:38.633Z</time>
      </trkpt>
      <trkpt lat="43.71415" lon="3.59934">
        <ele>144</ele>
        <time>2022-05-12T06:52:38.954Z</time>
      </trkpt>
      <trkpt lat="43.71414" lon="3.59938">
        <ele>144</ele>
        <time>2022-05-12T06:52:39.514Z</time>
      </trkpt>
      <trkpt lat="43.71414" lon="3.59943">
        <ele>144</ele>
        <time>2022-05-12T06:52:40.175Z</time>
      </trkpt>
      <trkpt lat="43.71415" lon="3.59946">
        <ele>144</ele>
        <time>2022-05-12T06:52:40.612Z</time>
      </trkpt>
      <trkpt lat="43.71417" lon="3.59949">
        <ele>146</ele>
        <time>2022-05-12T06:52:42.694Z</time>
      </trkpt>
      <trkpt lat="43.7142" lon="3.59952">
        <ele>146</ele>
        <time>2022-05-12T06:52:43.371Z</time>
      </trkpt>
      <trkpt lat="43.71422" lon="3.59954">
        <ele>146</ele>
        <time>2022-05-12T06:52:43.823Z</time>
      </trkpt>
      <trkpt lat="43.71425" lon="3.59956">
        <ele>146</ele>
        <time>2022-05-12T06:52:44.432Z</time>
      </trkpt>
      <trkpt lat="43.71428" lon="3.59959">
        <ele>146</ele>
        <time>2022-05-12T06:52:45.109Z</time>
      </trkpt>
      <trkpt lat="43.71429" lon="3.59962">
        <ele>147</ele>
        <time>2022-05-12T06:52:46.794Z</time>
      </trkpt>
      <trkpt lat="43.71432" lon="3.59965">
        <ele>147</ele>
        <time>2022-05-12T06:52:47.471Z</time>
      </trkpt>
      <trkpt lat="43.71433" lon="3.59968">
        <ele>147</ele>
        <time>2022-05-12T06:52:47.908Z</time>
      </trkpt>
      <trkpt lat="43.71433" lon="3.59972">
        <ele>147</ele>
        <time>2022-05-12T06:52:48.437Z</time>
      </trkpt>
      <trkpt lat="43.71431" lon="3.59975">
        <ele>147</ele>
        <time>2022-05-12T06:52:48.977Z</time>
      </trkpt>
      <trkpt lat="43.71429" lon="3.59978">
        <ele>150</ele>
        <time>2022-05-12T06:52:51.059Z</time>
      </trkpt>
      <trkpt lat="43.71428" lon="3.59981">
        <ele>150</ele>
        <time>2022-05-12T06:52:51.496Z</time>
      </trkpt>
      <trkpt lat="43.71426" lon="3.59984">
        <ele>150</ele>
        <time>2022-05-12T06:52:52.035Z</time>
      </trkpt>
      <trkpt lat="43.71424" lon="3.59987">
        <ele>150</ele>
        <time>2022-05-12T06:52:52.575Z</time>
      </trkpt>
      <trkpt lat="43.71422" lon="3.59989">
        <ele>150</ele>
        <time>2022-05-12T06:52:53.027Z</time>
      </trkpt>
      <trkpt lat="43.7142" lon="3.59992">
        <ele>150</ele>
        <time>2022-05-12T06:52:53.566Z</time>
      </trkpt>
      <trkpt lat="43.71418" lon="3.59995">
        <ele>152</ele>
        <time>2022-05-12T06:52:55.648Z</time>
      </trkpt>
      <trkpt lat="43.71416" lon="3.59997">
        <ele>152</ele>
        <time>2022-05-12T06:52:56.099Z</time>
      </trkpt>
      <trkpt lat="43.71414" lon="3.6">
        <ele>152</ele>
        <time>2022-05-12T06:52:56.639Z</time>
      </trkpt>
      <trkpt lat="43.71412" lon="3.60003">
        <ele>152</ele>
        <time>2022-05-12T06:52:57.179Z</time>
      </trkpt>
      <trkpt lat="43.7141" lon="3.60006">
        <ele>154</ele>
        <time>2022-05-12T06:52:59.261Z</time>
      </trkpt>
      <trkpt lat="43.71408" lon="3.60009">
        <ele>154</ele>
        <time>2022-05-12T06:52:59.800Z</time>
      </trkpt>
      <trkpt lat="43.71407" lon="3.60013">
        <ele>154</ele>
        <time>2022-05-12T06:53:00.360Z</time>
      </trkpt>
      <trkpt lat="43.71407" lon="3.60016">
        <ele>154</ele>
        <time>2022-05-12T06:53:00.757Z</time>
      </trkpt>
      <trkpt lat="43.71409" lon="3.60019">
        <ele>154</ele>
        <time>2022-05-12T06:53:01.296Z</time>
      </trkpt>
      <trkpt lat="43.71411" lon="3.60021">
        <ele>154</ele>
        <time>2022-05-12T06:53:01.748Z</time>
      </trkpt>
      <trkpt lat="43.71414" lon="3.60022">
        <ele>157</ele>
        <time>2022-05-12T06:53:03.926Z</time>
      </trkpt>
      <trkpt lat="43.71416" lon="3.60024">
        <ele>157</ele>
        <time>2022-05-12T06:53:04.377Z</time>
      </trkpt>
      <trkpt lat="43.71419" lon="3.60025">
        <ele>157</ele>
        <time>2022-05-12T06:53:04.942Z</time>
      </trkpt>
      <trkpt lat="43.71421" lon="3.60026">
        <ele>157</ele>
        <time>2022-05-12T06:53:05.331Z</time>
      </trkpt>
      <trkpt lat="43.71424" lon="3.60028">
        <ele>157</ele>
        <time>2022-05-12T06:53:05.940Z</time>
      </trkpt>
      <trkpt lat="43.71426" lon="3.60029">
        <ele>158</ele>
        <time>2022-05-12T06:53:07.441Z</time>
      </trkpt>
      <trkpt lat="43.71429" lon="3.60031">
        <ele>158</ele>
        <time>2022-05-12T06:53:08.050Z</time>
      </trkpt>
      <trkpt lat="43.71432" lon="3.60032">
        <ele>158</ele>
        <time>2022-05-12T06:53:08.615Z</time>
      </trkpt>
      <trkpt lat="43.71434" lon="3.60034">
        <ele>158</ele>
        <time>2022-05-12T06:53:09.066Z</time>
      </trkpt>
      <trkpt lat="43.71436" lon="3.60037">
        <ele>160</ele>
        <time>2022-05-12T06:53:11.148Z</time>
      </trkpt>
      <trkpt lat="43.71438" lon="3.6004">
        <ele>160</ele>
        <time>2022-05-12T06:53:11.688Z</time>
      </trkpt>
      <trkpt lat="43.71438" lon="3.60043">
        <ele>160</ele>
        <time>2022-05-12T06:53:12.084Z</time>
      </trkpt>
      <trkpt lat="43.71437" lon="3.60047">
        <ele>160</ele>
        <time>2022-05-12T06:53:12.644Z</time>
      </trkpt>
      <trkpt lat="43.71435" lon="3.6005">
        <ele>160</ele>
        <time>2022-05-12T06:53:13.184Z</time>
      </trkpt>
      <trkpt lat="43.71433" lon="3.60053">
        <ele>163</ele>
        <time>2022-05-12T06:53:15.265Z</time>
      </trkpt>
      <trkpt lat="43.71431" lon="3.60056">
        <ele>163</ele>
        <time>2022-05-12T06:53:15.805Z</time>
      </trkpt>
      <trkpt lat="43.71429" lon="3.60058">
        <ele>163</ele>
        <time>2022-05-12T06:53:16.257Z</time>
      </trkpt>
      <trkpt lat="43.71426" lon="3.6006">
        <ele>163</ele>
        <time>2022-05-12T06:53:16.866Z</time>
      </trkpt>
      <trkpt lat="43.71424" lon="3.60062">
        <ele>163</ele>
        <time>2022-05-12T06:53:17.317Z</time>
      </trkpt>
      <trkpt lat="43.71422" lon="3.60065">
        <ele>165</ele>
        <time>2022-05-12T06:53:19.399Z</time>
      </trkpt>
      <trkpt lat="43.7142" lon="3.60068">
        <ele>165</ele>
        <time>2022-05-12T06:53:19.939Z</time>
      </trkpt>
      <trkpt lat="43.71419" lon="3.60072">
        <ele>165</ele>
        <time>2022-05-12T06:53:20.499Z</time>
      </trkpt>
      <trkpt lat="43.71417" lon="3.60074">
        <ele>165</ele>
        <time>2022-05-12T06:53:20.950Z</time>
      </trkpt>
      <trkpt lat="43.71414" lon="3.60076">
        <ele>165</ele>
        <time>2022-05-12T06:53:21.559Z</time>
      </trkpt>
      <trkpt lat="43.71412" lon="3.60079">
        <ele>165</ele>
        <time>2022-05-12T06:53:22.099Z</time>
      </trkpt>
      <trkpt lat="43.71411" lon="3.60082">
        <ele>167</ele>
        <time>2022-05-12T06:53:23.784Z</time>
      </trkpt>
      <trkpt lat="43.71409" lon="3.60085">
        <ele>167</ele>
        <time>2022-05-12T06:53:24.324Z</time>
      </trkpt>
      <trkpt lat="43.71407" lon="3.60087">
        <ele>167</ele>
        <time>2022-05-12T06:53:24.775Z</time>
      </trkpt>
      <trkpt lat="43.71404" lon="3.60089">
        <ele>167</ele>
        <time>2022-05-12T06:53:25.385Z</time>
      </trkpt>
      <trkpt lat="43.71403" lon="3.60092">
        <ele>167</ele>
        <time>2022-05-12T06:53:25.822Z</time>
      </trkpt>
      <trkpt lat="43.71402" lon="3.60096">
        <ele>170</ele>
        <time>2022-05-12T06:53:27.980Z</time>
      </trkpt>
      <trkpt lat="43.71401" lon="3.60099">
        <ele>170</ele>
        <time>2022-05-12T06:53:28.417Z</time>
      </trkpt>
      <trkpt lat="43.71402" lon="3.60103">
        <ele>170</ele>
        <time>2022-05-12T06:53:28.977Z</time>
      </trkpt>
      <trkpt lat="43.71403" lon="3.60105">
        <ele>170</ele>
        <time>2022-05-12T06:53:29.299Z</time>
      </trkpt>
      <trkpt lat="43.71405" lon="3.60107">
        <ele>171</ele>
        <time>2022-05-12T06:53:31.040Z</time>
      </trkpt>
      <trkpt lat="43.71407" lon="3.6011">
        <ele>171</ele>
        <time>2022-05-12T06:53:31.580Z</time>
      </trkpt>
      <trkpt lat="43.71408" lon="3.60113">
        <ele>171</ele>
        <time>2022-05-12T06:53:32.017Z</time>
      </trkpt>
      <trkpt lat="43.7141" lon="3.60115">
        <ele>171</ele>
        <time>2022-05-12T06:53:32.468Z</time>
      </trkpt>
      <trkpt lat="43.71411" lon="3.60118">
        <ele>171</ele>
        <time>2022-05-12T06:53:32.905Z</time>
      </trkpt>
      <trkpt lat="43.71413" lon="3.6012">
        <ele>171</ele>
        <time>2022-05-12T06:53:33.357Z</time>
      </trkpt>
      <trkpt lat="43.71415" lon="3.60123">
        <ele>174</ele>
        <time>2022-05-12T06:53:35.438Z</time>
      </trkpt>
      <trkpt lat="43.71418" lon="3.60126">
        <ele>174</ele>
        <time>2022-05-12T06:53:36.116Z</time>
      </trkpt>
      <trkpt lat="43.71421" lon="3.60128">
        <ele>174</ele>
        <time>2022-05-12T06:53:36.725Z</time>
      </trkpt>
      <trkpt lat="43.71423" lon="3.60131">
        <ele>174</ele>
        <time>2022-05-12T06:53:37.264Z</time>
      </trkpt>
      <trkpt lat="43.71425" lon="3.60134">
        <ele>174</ele>
        <time>2022-05-12T06:53:37.804Z</time>
      </trkpt>
      <trkpt lat="43.71427" lon="3.60137">
        <ele>175</ele>
        <time>2022-05-12T06:53:39.886Z</time>
      </trkpt>
      <trkpt lat="43.71429" lon="3.60139">
        <ele>175</ele>
        <time>2022-05-12T06:53:40.337Z</time>
      </trkpt>
      <trkpt lat="43.71431" lon="3.60142">
        <ele>175</ele>
        <time>2022-05-12T06:53:40.877Z</time>
      </trkpt>
      <trkpt lat="43.71433" lon="3.60145">
        <ele>175</ele>
        <time>2022-05-12T06:53:41.417Z</time>
      </trkpt>
      <trkpt lat="43.71434" lon="3.60148">
        <ele>177</ele>
        <time>2022-05-12T06:53:43.102Z</time>
      </trkpt>
      <trkpt lat="43.71436" lon="3.60151">
        <ele>177</ele>
        <time>2022-05-12T06:53:43.642Z</time>
      </trkpt>
      <trkpt lat="43.71438" lon="3.60155">
        <ele>177</ele>
        <time>2022-05-12T06:53:44.285Z</time>
      </trkpt>
      <trkpt lat="43.7144" lon="3.60159">
        <ele>177</ele>
        <time>2022-05-12T06:53:44.928Z</time>
      </trkpt>
      <trkpt lat="43.71441" lon="3.60163">
        <ele>177</ele>
        <time>2022-05-12T06:53:45.488Z</time>
      </trkpt>
      <trkpt lat="43.71443" lon="3.60167">
        <ele>178</ele>
        <time>2022-05-12T06:53:47.969Z</time>
      </trkpt>
      <trkpt lat="43.71444" lon="3.60171">
        <ele>178</ele>
        <time>2022-05-12T06:53:48.528Z</time>
      </trkpt>
      <trkpt lat="43.71445" lon="3.60175">
        <ele>178</ele>
        <time>2022-05-12T06:53:49.088Z</time>
      </trkpt>
      <trkpt lat="43.71447" lon="3.60179">
        <ele>178</ele>
        <time>2022-05-12T06:53:49.731Z</time>
      </trkpt>
      <trkpt lat="43.71449" lon="3.6018">
        <ele>178</ele>
        <time>2022-05-12T06:53:50.120Z</time>
      </trkpt>
      <trkpt lat="43.71451" lon="3.60181">
        <ele>178</ele>
        <time>2022-05-12T06:53:50.509Z</time>
      </trkpt>
      <trkpt lat="43.71453" lon="3.60181">
        <ele>178</ele>
        <time>2022-05-12T06:53:50.875Z</time>
      </trkpt>
      <trkpt lat="43.71456" lon="3.60182">
        <ele>179</ele>
        <time>2022-05-12T06:53:53.053Z</time>
      </trkpt>
      <trkpt lat="43.7146" lon="3.60183">
        <ele>179</ele>
        <time>2022-05-12T06:53:53.797Z</time>
      </trkpt>
      <trkpt lat="43.71462" lon="3.60184">
        <ele>179</ele>
        <time>2022-05-12T06:53:54.186Z</time>
      </trkpt>
      <trkpt lat="43.71465" lon="3.60186">
        <ele>179</ele>
        <time>2022-05-12T06:53:54.795Z</time>
      </trkpt>
      <trkpt lat="43.71468" lon="3.60187">
        <ele>180</ele>
        <time>2022-05-12T06:53:56.973Z</time>
      </trkpt>
      <trkpt lat="43.7147" lon="3.60189">
        <ele>180</ele>
        <time>2022-05-12T06:53:57.424Z</time>
      </trkpt>
      <trkpt lat="43.71472" lon="3.60192">
        <ele>180</ele>
        <time>2022-05-12T06:53:57.964Z</time>
      </trkpt>
      <trkpt lat="43.71475" lon="3.60194">
        <ele>180</ele>
        <time>2022-05-12T06:53:58.573Z</time>
      </trkpt>
      <trkpt lat="43.71478" lon="3.60197">
        <ele>180</ele>
        <time>2022-05-12T06:53:59.250Z</time>
      </trkpt>
      <trkpt lat="43.71481" lon="3.60199">
        <ele>180</ele>
        <time>2022-05-12T06:53:59.860Z</time>
      </trkpt>
      <trkpt lat="43.71483" lon="3.60202">
        <ele>180</ele>
        <time>2022-05-12T06:54:00.399Z</time>
      </trkpt>
      <trkpt lat="43.71486" lon="3.60205">
        <ele>180</ele>
        <time>2022-05-12T06:54:01.077Z</time>
      </trkpt>
      <trkpt lat="43.71489" lon="3.60207">
        <ele>180</ele>
        <time>2022-05-12T06:54:01.686Z</time>
      </trkpt>
      <trkpt lat="43.71492" lon="3.6021">
        <ele>180</ele>
        <time>2022-05-12T06:54:02.363Z</time>
      </trkpt>
      <trkpt lat="43.71495" lon="3.60212">
        <ele>180</ele>
        <time>2022-05-12T06:54:02.972Z</time>
      </trkpt>
      <trkpt lat="43.71497" lon="3.60214">
        <ele>182</ele>
        <time>2022-05-12T06:54:04.714Z</time>
      </trkpt>
      <trkpt lat="43.715" lon="3.60217">
        <ele>182</ele>
        <time>2022-05-12T06:54:05.391Z</time>
      </trkpt>
      <trkpt lat="43.71503" lon="3.60219">
        <ele>182</ele>
        <time>2022-05-12T06:54:06.000Z</time>
      </trkpt>
      <trkpt lat="43.71505" lon="3.60222">
        <ele>182</ele>
        <time>2022-05-12T06:54:06.540Z</time>
      </trkpt>
      <trkpt lat="43.71508" lon="3.60226">
        <ele>182</ele>
        <time>2022-05-12T06:54:07.302Z</time>
      </trkpt>
      <trkpt lat="43.71509" lon="3.60227">
        <ele>182</ele>
        <time>2022-05-12T06:54:07.528Z</time>
      </trkpt>
      <trkpt lat="43.71511" lon="3.60228">
        <ele>182</ele>
        <time>2022-05-12T06:54:07.917Z</time>
      </trkpt>
      <trkpt lat="43.71513" lon="3.60229">
        <ele>183</ele>
        <time>2022-05-12T06:54:09.418Z</time>
      </trkpt>
      <trkpt lat="43.71515" lon="3.6023">
        <ele>183</ele>
        <time>2022-05-12T06:54:09.807Z</time>
      </trkpt>
      <trkpt lat="43.71517" lon="3.60231">
        <ele>183</ele>
        <time>2022-05-12T06:54:10.196Z</time>
      </trkpt>
      <trkpt lat="43.71519" lon="3.60232">
        <ele>183</ele>
        <time>2022-05-12T06:54:10.585Z</time>
      </trkpt>
      <trkpt lat="43.71521" lon="3.60233">
        <ele>183</ele>
        <time>2022-05-12T06:54:10.974Z</time>
      </trkpt>
      <trkpt lat="43.71523" lon="3.60233">
        <ele>183</ele>
        <time>2022-05-12T06:54:11.340Z</time>
      </trkpt>
      <trkpt lat="43.71525" lon="3.60234">
        <ele>183</ele>
        <time>2022-05-12T06:54:11.729Z</time>
      </trkpt>
      <trkpt lat="43.71527" lon="3.60234">
        <ele>183</ele>
        <time>2022-05-12T06:54:12.095Z</time>
      </trkpt>
      <trkpt lat="43.7153" lon="3.60235">
        <ele>183</ele>
        <time>2022-05-12T06:54:12.660Z</time>
      </trkpt>
      <trkpt lat="43.71532" lon="3.60236">
        <ele>183</ele>
        <time>2022-05-12T06:54:13.049Z</time>
      </trkpt>
      <trkpt lat="43.71535" lon="3.60236">
        <ele>183</ele>
        <time>2022-05-12T06:54:13.598Z</time>
      </trkpt>
      <trkpt lat="43.71539" lon="3.60237">
        <ele>183</ele>
        <time>2022-05-12T06:54:14.341Z</time>
      </trkpt>
      <trkpt lat="43.71542" lon="3.60236">
        <ele>183</ele>
        <time>2022-05-12T06:54:14.906Z</time>
      </trkpt>
      <trkpt lat="43.71545" lon="3.60236">
        <ele>184</ele>
        <time>2022-05-12T06:54:17.023Z</time>
      </trkpt>
      <trkpt lat="43.71548" lon="3.60237">
        <ele>184</ele>
        <time>2022-05-12T06:54:17.588Z</time>
      </trkpt>
      <trkpt lat="43.7155" lon="3.60237">
        <ele>184</ele>
        <time>2022-05-12T06:54:17.954Z</time>
      </trkpt>
      <trkpt lat="43.71554" lon="3.60237">
        <ele>184</ele>
        <time>2022-05-12T06:54:18.685Z</time>
      </trkpt>
      <trkpt lat="43.71556" lon="3.60237">
        <ele>184</ele>
        <time>2022-05-12T06:54:19.051Z</time>
      </trkpt>
      <trkpt lat="43.71565" lon="3.60235">
        <ele>185</ele>
        <time>2022-05-12T06:54:23.841Z</time>
      </trkpt>
      <trkpt lat="43.71568" lon="3.60234">
        <ele>185</ele>
        <time>2022-05-12T06:54:24.406Z</time>
      </trkpt>
      <trkpt lat="43.7157" lon="3.60234">
        <ele>185</ele>
        <time>2022-05-12T06:54:24.772Z</time>
      </trkpt>
      <trkpt lat="43.71572" lon="3.60233">
        <ele>185</ele>
        <time>2022-05-12T06:54:25.161Z</time>
      </trkpt>
      <trkpt lat="43.71574" lon="3.60234">
        <ele>185</ele>
        <time>2022-05-12T06:54:25.550Z</time>
      </trkpt>
      <trkpt lat="43.71576" lon="3.60234">
        <ele>185</ele>
        <time>2022-05-12T06:54:25.916Z</time>
      </trkpt>
      <trkpt lat="43.71578" lon="3.60234">
        <ele>185</ele>
        <time>2022-05-12T06:54:26.282Z</time>
      </trkpt>
      <trkpt lat="43.7158" lon="3.60234">
        <ele>185</ele>
        <time>2022-05-12T06:54:26.648Z</time>
      </trkpt>
      <trkpt lat="43.71582" lon="3.60233">
        <ele>185</ele>
        <time>2022-05-12T06:54:27.037Z</time>
      </trkpt>
      <trkpt lat="43.71584" lon="3.60233">
        <ele>185</ele>
        <time>2022-05-12T06:54:27.403Z</time>
      </trkpt>
      <trkpt lat="43.71586" lon="3.60233">
        <ele>187</ele>
        <time>2022-05-12T06:54:28.814Z</time>
      </trkpt>
      <trkpt lat="43.71588" lon="3.60233">
        <ele>187</ele>
        <time>2022-05-12T06:54:29.180Z</time>
      </trkpt>
      <trkpt lat="43.7159" lon="3.60233">
        <ele>187</ele>
        <time>2022-05-12T06:54:29.546Z</time>
      </trkpt>
      <trkpt lat="43.71592" lon="3.60233">
        <ele>187</ele>
        <time>2022-05-12T06:54:29.912Z</time>
      </trkpt>
      <trkpt lat="43.71594" lon="3.60233">
        <ele>187</ele>
        <time>2022-05-12T06:54:30.278Z</time>
      </trkpt>
      <trkpt lat="43.71595" lon="3.60233">
        <ele>187</ele>
        <time>2022-05-12T06:54:30.461Z</time>
      </trkpt>
      <trkpt lat="43.71597" lon="3.60232">
        <ele>187</ele>
        <time>2022-05-12T06:54:30.850Z</time>
      </trkpt>
      <trkpt lat="43.716" lon="3.60232">
        <ele>187</ele>
        <time>2022-05-12T06:54:31.399Z</time>
      </trkpt>
      <trkpt lat="43.71602" lon="3.60232">
        <ele>187</ele>
        <time>2022-05-12T06:54:31.764Z</time>
      </trkpt>
      <trkpt lat="43.71604" lon="3.60232">
        <ele>188</ele>
        <time>2022-05-12T06:54:33.176Z</time>
      </trkpt>
      <trkpt lat="43.71606" lon="3.60231">
        <ele>188</ele>
        <time>2022-05-12T06:54:33.565Z</time>
      </trkpt>
      <trkpt lat="43.71608" lon="3.60231">
        <ele>188</ele>
        <time>2022-05-12T06:54:33.931Z</time>
      </trkpt>
      <trkpt lat="43.7161" lon="3.60231">
        <ele>188</ele>
        <time>2022-05-12T06:54:34.297Z</time>
      </trkpt>
      <trkpt lat="43.71612" lon="3.6023">
        <ele>188</ele>
        <time>2022-05-12T06:54:34.686Z</time>
      </trkpt>
      <trkpt lat="43.71616" lon="3.60229">
        <ele>188</ele>
        <time>2022-05-12T06:54:35.430Z</time>
      </trkpt>
      <trkpt lat="43.71617" lon="3.60228">
        <ele>188</ele>
        <time>2022-05-12T06:54:35.655Z</time>
      </trkpt>
      <trkpt lat="43.71619" lon="3.60228">
        <ele>188</ele>
        <time>2022-05-12T06:54:36.021Z</time>
      </trkpt>
      <trkpt lat="43.71621" lon="3.60228">
        <ele>188</ele>
        <time>2022-05-12T06:54:36.387Z</time>
      </trkpt>
      <trkpt lat="43.71623" lon="3.60228">
        <ele>188</ele>
        <time>2022-05-12T06:54:36.753Z</time>
      </trkpt>
      <trkpt lat="43.71625" lon="3.60227">
        <ele>189</ele>
        <time>2022-05-12T06:54:38.254Z</time>
      </trkpt>
      <trkpt lat="43.71628" lon="3.60226">
        <ele>189</ele>
        <time>2022-05-12T06:54:38.818Z</time>
      </trkpt>
      <trkpt lat="43.71632" lon="3.60225">
        <ele>189</ele>
        <time>2022-05-12T06:54:39.562Z</time>
      </trkpt>
      <trkpt lat="43.71634" lon="3.60224">
        <ele>189</ele>
        <time>2022-05-12T06:54:39.951Z</time>
      </trkpt>
      <trkpt lat="43.71637" lon="3.60224">
        <ele>189</ele>
        <time>2022-05-12T06:54:40.500Z</time>
      </trkpt>
      <trkpt lat="43.7164" lon="3.60223">
        <ele>190</ele>
        <time>2022-05-12T06:54:42.678Z</time>
      </trkpt>
      <trkpt lat="43.71642" lon="3.60222">
        <ele>190</ele>
        <time>2022-05-12T06:54:43.067Z</time>
      </trkpt>
      <trkpt lat="43.71645" lon="3.60221">
        <ele>190</ele>
        <time>2022-05-12T06:54:43.631Z</time>
      </trkpt>
      <trkpt lat="43.71647" lon="3.6022">
        <ele>190</ele>
        <time>2022-05-12T06:54:44.020Z</time>
      </trkpt>
      <trkpt lat="43.7165" lon="3.6022">
        <ele>190</ele>
        <time>2022-05-12T06:54:44.569Z</time>
      </trkpt>
      <trkpt lat="43.71652" lon="3.6022">
        <ele>190</ele>
        <time>2022-05-12T06:54:44.935Z</time>
      </trkpt>
      <trkpt lat="43.71655" lon="3.60219">
        <ele>190</ele>
        <time>2022-05-12T06:54:45.500Z</time>
      </trkpt>
      <trkpt lat="43.71658" lon="3.60218">
        <ele>190</ele>
        <time>2022-05-12T06:54:46.064Z</time>
      </trkpt>
      <trkpt lat="43.71661" lon="3.60217">
        <ele>190</ele>
        <time>2022-05-12T06:54:46.629Z</time>
      </trkpt>
      <trkpt lat="43.71663" lon="3.60216">
        <ele>192</ele>
        <time>2022-05-12T06:54:48.130Z</time>
      </trkpt>
      <trkpt lat="43.71666" lon="3.60215">
        <ele>192</ele>
        <time>2022-05-12T06:54:48.694Z</time>
      </trkpt>
      <trkpt lat="43.71668" lon="3.60215">
        <ele>192</ele>
        <time>2022-05-12T06:54:49.060Z</time>
      </trkpt>
      <trkpt lat="43.71671" lon="3.60214">
        <ele>192</ele>
        <time>2022-05-12T06:54:49.625Z</time>
      </trkpt>
      <trkpt lat="43.71673" lon="3.60212">
        <ele>192</ele>
        <time>2022-05-12T06:54:50.076Z</time>
      </trkpt>
      <trkpt lat="43.71675" lon="3.60212">
        <ele>192</ele>
        <time>2022-05-12T06:54:50.442Z</time>
      </trkpt>
      <trkpt lat="43.71678" lon="3.60211">
        <ele>192</ele>
        <time>2022-05-12T06:54:51.007Z</time>
      </trkpt>
      <trkpt lat="43.7168" lon="3.6021">
        <ele>192</ele>
        <time>2022-05-12T06:54:51.396Z</time>
      </trkpt>
      <trkpt lat="43.71683" lon="3.6021">
        <ele>192</ele>
        <time>2022-05-12T06:54:51.945Z</time>
      </trkpt>
      <trkpt lat="43.71685" lon="3.60209">
        <ele>194</ele>
        <time>2022-05-12T06:54:53.445Z</time>
      </trkpt>
      <trkpt lat="43.71687" lon="3.60208">
        <ele>194</ele>
        <time>2022-05-12T06:54:53.834Z</time>
      </trkpt>
      <trkpt lat="43.71689" lon="3.60208">
        <ele>194</ele>
        <time>2022-05-12T06:54:54.200Z</time>
      </trkpt>
      <trkpt lat="43.71691" lon="3.60207">
        <ele>194</ele>
        <time>2022-05-12T06:54:54.589Z</time>
      </trkpt>
      <trkpt lat="43.71693" lon="3.60207">
        <ele>194</ele>
        <time>2022-05-12T06:54:54.955Z</time>
      </trkpt>
      <trkpt lat="43.71696" lon="3.60206">
        <ele>194</ele>
        <time>2022-05-12T06:54:55.520Z</time>
      </trkpt>
      <trkpt lat="43.71698" lon="3.60205">
        <ele>194</ele>
        <time>2022-05-12T06:54:55.909Z</time>
      </trkpt>
      <trkpt lat="43.717" lon="3.60205">
        <ele>194</ele>
        <time>2022-05-12T06:54:56.275Z</time>
      </trkpt>
      <trkpt lat="43.71703" lon="3.60204">
        <ele>194</ele>
        <time>2022-05-12T06:54:56.839Z</time>
      </trkpt>
      <trkpt lat="43.71705" lon="3.60204">
        <ele>194</ele>
        <time>2022-05-12T06:54:57.205Z</time>
      </trkpt>
      <trkpt lat="43.71707" lon="3.60203">
        <ele>195</ele>
        <time>2022-05-12T06:54:58.706Z</time>
      </trkpt>
      <trkpt lat="43.7171" lon="3.60203">
        <ele>195</ele>
        <time>2022-05-12T06:54:59.255Z</time>
      </trkpt>
      <trkpt lat="43.71713" lon="3.60202">
        <ele>195</ele>
        <time>2022-05-12T06:54:59.820Z</time>
      </trkpt>
      <trkpt lat="43.71715" lon="3.60202">
        <ele>195</ele>
        <time>2022-05-12T06:55:00.185Z</time>
      </trkpt>
      <trkpt lat="43.71717" lon="3.60203">
        <ele>195</ele>
        <time>2022-05-12T06:55:00.575Z</time>
      </trkpt>
      <trkpt lat="43.71719" lon="3.60203">
        <ele>195</ele>
        <time>2022-05-12T06:55:00.940Z</time>
      </trkpt>
      <trkpt lat="43.71722" lon="3.60204">
        <ele>195</ele>
        <time>2022-05-12T06:55:01.505Z</time>
      </trkpt>
      <trkpt lat="43.71724" lon="3.60205">
        <ele>195</ele>
        <time>2022-05-12T06:55:01.894Z</time>
      </trkpt>
      <trkpt lat="43.71726" lon="3.60206">
        <ele>195</ele>
        <time>2022-05-12T06:55:02.283Z</time>
      </trkpt>
      <trkpt lat="43.71729" lon="3.60208">
        <ele>195</ele>
        <time>2022-05-12T06:55:02.892Z</time>
      </trkpt>
      <trkpt lat="43.71731" lon="3.60209">
        <ele>196</ele>
        <time>2022-05-12T06:55:04.393Z</time>
      </trkpt>
      <trkpt lat="43.71734" lon="3.60211">
        <ele>196</ele>
        <time>2022-05-12T06:55:05.002Z</time>
      </trkpt>
      <trkpt lat="43.71736" lon="3.60212">
        <ele>196</ele>
        <time>2022-05-12T06:55:05.392Z</time>
      </trkpt>
      <trkpt lat="43.71738" lon="3.60213">
        <ele>196</ele>
        <time>2022-05-12T06:55:05.781Z</time>
      </trkpt>
      <trkpt lat="43.71741" lon="3.60214">
        <ele>196</ele>
        <time>2022-05-12T06:55:06.345Z</time>
      </trkpt>
      <trkpt lat="43.71743" lon="3.60214">
        <ele>196</ele>
        <time>2022-05-12T06:55:06.711Z</time>
      </trkpt>
      <trkpt lat="43.71746" lon="3.60215">
        <ele>196</ele>
        <time>2022-05-12T06:55:07.276Z</time>
      </trkpt>
      <trkpt lat="43.7175" lon="3.60212">
        <ele>196</ele>
        <time>2022-05-12T06:55:08.108Z</time>
      </trkpt>
      <trkpt lat="43.71752" lon="3.6021">
        <ele>198</ele>
        <time>2022-05-12T06:55:09.850Z</time>
      </trkpt>
      <trkpt lat="43.71753" lon="3.60208">
        <ele>198</ele>
        <time>2022-05-12T06:55:10.171Z</time>
      </trkpt>
      <trkpt lat="43.71755" lon="3.60205">
        <ele>198</ele>
        <time>2022-05-12T06:55:10.711Z</time>
      </trkpt>
      <trkpt lat="43.71756" lon="3.60203">
        <ele>198</ele>
        <time>2022-05-12T06:55:11.032Z</time>
      </trkpt>
      <trkpt lat="43.71758" lon="3.60201">
        <ele>198</ele>
        <time>2022-05-12T06:55:11.484Z</time>
      </trkpt>
      <trkpt lat="43.71759" lon="3.60198">
        <ele>198</ele>
        <time>2022-05-12T06:55:11.921Z</time>
      </trkpt>
      <trkpt lat="43.7176" lon="3.60196">
        <ele>198</ele>
        <time>2022-05-12T06:55:12.242Z</time>
      </trkpt>
      <trkpt lat="43.71762" lon="3.60193">
        <ele>198</ele>
        <time>2022-05-12T06:55:12.782Z</time>
      </trkpt>
      <trkpt lat="43.71764" lon="3.6019">
        <ele>198</ele>
        <time>2022-05-12T06:55:13.322Z</time>
      </trkpt>
      <trkpt lat="43.71766" lon="3.60188">
        <ele>198</ele>
        <time>2022-05-12T06:55:13.773Z</time>
      </trkpt>
      <trkpt lat="43.71768" lon="3.60186">
        <ele>198</ele>
        <time>2022-05-12T06:55:14.225Z</time>
      </trkpt>
      <trkpt lat="43.7177" lon="3.60184">
        <ele>198</ele>
        <time>2022-05-12T06:55:14.676Z</time>
      </trkpt>
      <trkpt lat="43.71772" lon="3.60183">
        <ele>198</ele>
        <time>2022-05-12T06:55:15.065Z</time>
      </trkpt>
      <trkpt lat="43.71774" lon="3.60182">
        <ele>198</ele>
        <time>2022-05-12T06:55:15.454Z</time>
      </trkpt>
      <trkpt lat="43.71776" lon="3.60181">
        <ele>198</ele>
        <time>2022-05-12T06:55:15.843Z</time>
      </trkpt>
      <trkpt lat="43.71779" lon="3.6018">
        <ele>198</ele>
        <time>2022-05-12T06:55:16.408Z</time>
      </trkpt>
      <trkpt lat="43.71781" lon="3.60179">
        <ele>198</ele>
        <time>2022-05-12T06:55:16.797Z</time>
      </trkpt>
      <trkpt lat="43.71784" lon="3.60179">
        <ele>198</ele>
        <time>2022-05-12T06:55:17.346Z</time>
      </trkpt>
      <trkpt lat="43.71787" lon="3.60179">
        <ele>198</ele>
        <time>2022-05-12T06:55:17.895Z</time>
      </trkpt>
      <trkpt lat="43.7179" lon="3.60179">
        <ele>198</ele>
        <time>2022-05-12T06:55:18.444Z</time>
      </trkpt>
      <trkpt lat="43.71794" lon="3.60179">
        <ele>200</ele>
        <time>2022-05-12T06:55:21.266Z</time>
      </trkpt>
      <trkpt lat="43.71798" lon="3.60178">
        <ele>200</ele>
        <time>2022-05-12T06:55:22.010Z</time>
      </trkpt>
      <trkpt lat="43.71801" lon="3.60177">
        <ele>200</ele>
        <time>2022-05-12T06:55:22.575Z</time>
      </trkpt>
      <trkpt lat="43.71805" lon="3.60175">
        <ele>200</ele>
        <time>2022-05-12T06:55:23.353Z</time>
      </trkpt>
      <trkpt lat="43.71809" lon="3.60172">
        <ele>200</ele>
        <time>2022-05-12T06:55:24.185Z</time>
      </trkpt>
      <trkpt lat="43.71813" lon="3.60169">
        <ele>200</ele>
        <time>2022-05-12T06:55:25.018Z</time>
      </trkpt>
      <trkpt lat="43.71817" lon="3.60166">
        <ele>200</ele>
        <time>2022-05-12T06:55:25.850Z</time>
      </trkpt>
      <trkpt lat="43.7182" lon="3.60163">
        <ele>200</ele>
        <time>2022-05-12T06:55:26.527Z</time>
      </trkpt>
      <trkpt lat="43.71824" lon="3.6016">
        <ele>200</ele>
        <time>2022-05-12T06:55:27.360Z</time>
      </trkpt>
      <trkpt lat="43.71827" lon="3.60157">
        <ele>200</ele>
        <time>2022-05-12T06:55:28.037Z</time>
      </trkpt>
      <trkpt lat="43.71831" lon="3.60154">
        <ele>201</ele>
        <time>2022-05-12T06:55:31.248Z</time>
      </trkpt>
      <trkpt lat="43.71835" lon="3.60152">
        <ele>201</ele>
        <time>2022-05-12T06:55:32.026Z</time>
      </trkpt>
      <trkpt lat="43.71838" lon="3.60149">
        <ele>201</ele>
        <time>2022-05-12T06:55:32.703Z</time>
      </trkpt>
      <trkpt lat="43.71842" lon="3.60146">
        <ele>201</ele>
        <time>2022-05-12T06:55:33.536Z</time>
      </trkpt>
      <trkpt lat="43.71846" lon="3.60144">
        <ele>201</ele>
        <time>2022-05-12T06:55:34.314Z</time>
      </trkpt>
      <trkpt lat="43.7185" lon="3.60143">
        <ele>201</ele>
        <time>2022-05-12T06:55:35.058Z</time>
      </trkpt>
      <trkpt lat="43.71854" lon="3.60141">
        <ele>201</ele>
        <time>2022-05-12T06:55:35.836Z</time>
      </trkpt>
      <trkpt lat="43.71858" lon="3.60141">
        <ele>201</ele>
        <time>2022-05-12T06:55:36.568Z</time>
      </trkpt>
      <trkpt lat="43.71862" lon="3.6014">
        <ele>201</ele>
        <time>2022-05-12T06:55:37.311Z</time>
      </trkpt>
      <trkpt lat="43.71866" lon="3.60139">
        <ele>201</ele>
        <time>2022-05-12T06:55:38.055Z</time>
      </trkpt>
      <trkpt lat="43.7187" lon="3.60138">
        <ele>201</ele>
        <time>2022-05-12T06:55:38.799Z</time>
      </trkpt>
      <trkpt lat="43.71873" lon="3.60136">
        <ele>201</ele>
        <time>2022-05-12T06:55:39.408Z</time>
      </trkpt>
      <trkpt lat="43.71876" lon="3.60134">
        <ele>201</ele>
        <time>2022-05-12T06:55:40.017Z</time>
      </trkpt>
      <trkpt lat="43.71879" lon="3.60133">
        <ele>201</ele>
        <time>2022-05-12T06:55:40.582Z</time>
      </trkpt>
      <trkpt lat="43.71882" lon="3.60132">
        <ele>201</ele>
        <time>2022-05-12T06:55:41.146Z</time>
      </trkpt>
      <trkpt lat="43.71884" lon="3.60131">
        <ele>201</ele>
        <time>2022-05-12T06:55:41.535Z</time>
      </trkpt>
      <trkpt lat="43.71887" lon="3.60131">
        <ele>201</ele>
        <time>2022-05-12T06:55:42.084Z</time>
      </trkpt>
      <trkpt lat="43.71889" lon="3.60129">
        <ele>201</ele>
        <time>2022-05-12T06:55:42.536Z</time>
      </trkpt>
      <trkpt lat="43.71893" lon="3.60127">
        <ele>201</ele>
        <time>2022-05-12T06:55:43.314Z</time>
      </trkpt>
      <trkpt lat="43.71896" lon="3.60125">
        <ele>201</ele>
        <time>2022-05-12T06:55:43.923Z</time>
      </trkpt>
      <trkpt lat="43.719" lon="3.60123">
        <ele>201</ele>
        <time>2022-05-12T06:55:44.701Z</time>
      </trkpt>
      <trkpt lat="43.71905" lon="3.6012">
        <ele>201</ele>
        <time>2022-05-12T06:55:45.698Z</time>
      </trkpt>
      <trkpt lat="43.71911" lon="3.60118">
        <ele>201</ele>
        <time>2022-05-12T06:55:46.828Z</time>
      </trkpt>
      <trkpt lat="43.71917" lon="3.60117">
        <ele>201</ele>
        <time>2022-05-12T06:55:47.933Z</time>
      </trkpt>
      <trkpt lat="43.71923" lon="3.60116">
        <ele>201</ele>
        <time>2022-05-12T06:55:49.039Z</time>
      </trkpt>
      <trkpt lat="43.7193" lon="3.60116">
        <ele>201</ele>
        <time>2022-05-12T06:55:50.320Z</time>
      </trkpt>
      <trkpt lat="43.71936" lon="3.60116">
        <ele>201</ele>
        <time>2022-05-12T06:55:51.417Z</time>
      </trkpt>
      <trkpt lat="43.71942" lon="3.60117">
        <ele>201</ele>
        <time>2022-05-12T06:55:52.523Z</time>
      </trkpt>
      <trkpt lat="43.71948" lon="3.60119">
        <ele>201</ele>
        <time>2022-05-12T06:55:53.652Z</time>
      </trkpt>
      <trkpt lat="43.71954" lon="3.60121">
        <ele>201</ele>
        <time>2022-05-12T06:55:54.781Z</time>
      </trkpt>
      <trkpt lat="43.7196" lon="3.60122">
        <ele>201</ele>
        <time>2022-05-12T06:55:55.887Z</time>
      </trkpt>
      <trkpt lat="43.71965" lon="3.60123">
        <ele>200</ele>
        <time>2022-05-12T06:55:56.337Z</time>
      </trkpt>
      <trkpt lat="43.7197" lon="3.60124">
        <ele>200</ele>
        <time>2022-05-12T06:55:57.261Z</time>
      </trkpt>
      <trkpt lat="43.71976" lon="3.60125">
        <ele>200</ele>
        <time>2022-05-12T06:55:58.367Z</time>
      </trkpt>
      <trkpt lat="43.71981" lon="3.60125">
        <ele>200</ele>
        <time>2022-05-12T06:55:59.282Z</time>
      </trkpt>
      <trkpt lat="43.71986" lon="3.60125">
        <ele>200</ele>
        <time>2022-05-12T06:56:00.196Z</time>
      </trkpt>
      <trkpt lat="43.7199" lon="3.60125">
        <ele>200</ele>
        <time>2022-05-12T06:56:00.928Z</time>
      </trkpt>
      <trkpt lat="43.71995" lon="3.60124">
        <ele>200</ele>
        <time>2022-05-12T06:56:01.853Z</time>
      </trkpt>
      <trkpt lat="43.71999" lon="3.60123">
        <ele>200</ele>
        <time>2022-05-12T06:56:02.596Z</time>
      </trkpt>
      <trkpt lat="43.72004" lon="3.60121">
        <ele>200</ele>
        <time>2022-05-12T06:56:03.548Z</time>
      </trkpt>
      <trkpt lat="43.72008" lon="3.6012">
        <ele>200</ele>
        <time>2022-05-12T06:56:04.292Z</time>
      </trkpt>
      <trkpt lat="43.72012" lon="3.6012">
        <ele>200</ele>
        <time>2022-05-12T06:56:05.024Z</time>
      </trkpt>
      <trkpt lat="43.72016" lon="3.60119">
        <ele>200</ele>
        <time>2022-05-12T06:56:05.768Z</time>
      </trkpt>
      <trkpt lat="43.7202" lon="3.6012">
        <ele>200</ele>
        <time>2022-05-12T06:56:06.511Z</time>
      </trkpt>
      <trkpt lat="43.72023" lon="3.6012">
        <ele>200</ele>
        <time>2022-05-12T06:56:07.060Z</time>
      </trkpt>
      <trkpt lat="43.72026" lon="3.60121">
        <ele>200</ele>
        <time>2022-05-12T06:56:07.625Z</time>
      </trkpt>
      <trkpt lat="43.72029" lon="3.60121">
        <ele>200</ele>
        <time>2022-05-12T06:56:08.174Z</time>
      </trkpt>
      <trkpt lat="43.72032" lon="3.60122">
        <ele>200</ele>
        <time>2022-05-12T06:56:08.738Z</time>
      </trkpt>
      <trkpt lat="43.72035" lon="3.60122">
        <ele>200</ele>
        <time>2022-05-12T06:56:09.287Z</time>
      </trkpt>
      <trkpt lat="43.72037" lon="3.60123">
        <ele>200</ele>
        <time>2022-05-12T06:56:09.676Z</time>
      </trkpt>
      <trkpt lat="43.7204" lon="3.60124">
        <ele>200</ele>
        <time>2022-05-12T06:56:10.241Z</time>
      </trkpt>
      <trkpt lat="43.72043" lon="3.60125">
        <ele>201</ele>
        <time>2022-05-12T06:56:12.418Z</time>
      </trkpt>
      <trkpt lat="43.72045" lon="3.60126">
        <ele>201</ele>
        <time>2022-05-12T06:56:12.807Z</time>
      </trkpt>
      <trkpt lat="43.72048" lon="3.60127">
        <ele>201</ele>
        <time>2022-05-12T06:56:13.372Z</time>
      </trkpt>
      <trkpt lat="43.7205" lon="3.60128">
        <ele>201</ele>
        <time>2022-05-12T06:56:13.761Z</time>
      </trkpt>
      <trkpt lat="43.72052" lon="3.60129">
        <ele>201</ele>
        <time>2022-05-12T06:56:14.150Z</time>
      </trkpt>
      <trkpt lat="43.72055" lon="3.6013">
        <ele>201</ele>
        <time>2022-05-12T06:56:14.715Z</time>
      </trkpt>
      <trkpt lat="43.72057" lon="3.60132">
        <ele>201</ele>
        <time>2022-05-12T06:56:15.166Z</time>
      </trkpt>
      <trkpt lat="43.7206" lon="3.60133">
        <ele>201</ele>
        <time>2022-05-12T06:56:15.731Z</time>
      </trkpt>
      <trkpt lat="43.72063" lon="3.60134">
        <ele>201</ele>
        <time>2022-05-12T06:56:16.295Z</time>
      </trkpt>
      <trkpt lat="43.72065" lon="3.60136">
        <ele>202</ele>
        <time>2022-05-12T06:56:18.037Z</time>
      </trkpt>
      <trkpt lat="43.72068" lon="3.60138">
        <ele>202</ele>
        <time>2022-05-12T06:56:18.646Z</time>
      </trkpt>
      <trkpt lat="43.7207" lon="3.60141">
        <ele>202</ele>
        <time>2022-05-12T06:56:19.186Z</time>
      </trkpt>
      <trkpt lat="43.72071" lon="3.60143">
        <ele>202</ele>
        <time>2022-05-12T06:56:19.507Z</time>
      </trkpt>
      <trkpt lat="43.72073" lon="3.60145">
        <ele>202</ele>
        <time>2022-05-12T06:56:19.959Z</time>
      </trkpt>
      <trkpt lat="43.72075" lon="3.60148">
        <ele>202</ele>
        <time>2022-05-12T06:56:20.498Z</time>
      </trkpt>
      <trkpt lat="43.72077" lon="3.6015">
        <ele>202</ele>
        <time>2022-05-12T06:56:20.950Z</time>
      </trkpt>
      <trkpt lat="43.72079" lon="3.60152">
        <ele>202</ele>
        <time>2022-05-12T06:56:21.401Z</time>
      </trkpt>
      <trkpt lat="43.72081" lon="3.60153">
        <ele>202</ele>
        <time>2022-05-12T06:56:21.791Z</time>
      </trkpt>
      <trkpt lat="43.72084" lon="3.60154">
        <ele>202</ele>
        <time>2022-05-12T06:56:22.355Z</time>
      </trkpt>
      <trkpt lat="43.72086" lon="3.60156">
        <ele>204</ele>
        <time>2022-05-12T06:56:24.096Z</time>
      </trkpt>
      <trkpt lat="43.72088" lon="3.60157">
        <ele>204</ele>
        <time>2022-05-12T06:56:24.486Z</time>
      </trkpt>
      <trkpt lat="43.7209" lon="3.60159">
        <ele>204</ele>
        <time>2022-05-12T06:56:24.937Z</time>
      </trkpt>
      <trkpt lat="43.72092" lon="3.60161">
        <ele>204</ele>
        <time>2022-05-12T06:56:25.389Z</time>
      </trkpt>
      <trkpt lat="43.72094" lon="3.60163">
        <ele>204</ele>
        <time>2022-05-12T06:56:25.840Z</time>
      </trkpt>
      <trkpt lat="43.72096" lon="3.60164">
        <ele>204</ele>
        <time>2022-05-12T06:56:26.229Z</time>
      </trkpt>
      <trkpt lat="43.72098" lon="3.60165">
        <ele>204</ele>
        <time>2022-05-12T06:56:26.618Z</time>
      </trkpt>
      <trkpt lat="43.721" lon="3.60166">
        <ele>204</ele>
        <time>2022-05-12T06:56:27.007Z</time>
      </trkpt>
      <trkpt lat="43.72102" lon="3.60168">
        <ele>204</ele>
        <time>2022-05-12T06:56:27.459Z</time>
      </trkpt>
      <trkpt lat="43.72104" lon="3.60169">
        <ele>204</ele>
        <time>2022-05-12T06:56:27.848Z</time>
      </trkpt>
      <trkpt lat="43.72105" lon="3.60171">
        <ele>206</ele>
        <time>2022-05-12T06:56:29.088Z</time>
      </trkpt>
      <trkpt lat="43.72108" lon="3.60174">
        <ele>206</ele>
        <time>2022-05-12T06:56:29.765Z</time>
      </trkpt>
      <trkpt lat="43.7211" lon="3.60175">
        <ele>206</ele>
        <time>2022-05-12T06:56:30.154Z</time>
      </trkpt>
      <trkpt lat="43.72111" lon="3.60177">
        <ele>206</ele>
        <time>2022-05-12T06:56:30.476Z</time>
      </trkpt>
      <trkpt lat="43.72112" lon="3.60179">
        <ele>206</ele>
        <time>2022-05-12T06:56:30.798Z</time>
      </trkpt>
      <trkpt lat="43.72114" lon="3.60183">
        <ele>206</ele>
        <time>2022-05-12T06:56:31.441Z</time>
      </trkpt>
      <trkpt lat="43.72116" lon="3.60186">
        <ele>206</ele>
        <time>2022-05-12T06:56:31.980Z</time>
      </trkpt>
      <trkpt lat="43.72119" lon="3.60187">
        <ele>208</ele>
        <time>2022-05-12T06:56:34.158Z</time>
      </trkpt>
      <trkpt lat="43.72121" lon="3.60188">
        <ele>208</ele>
        <time>2022-05-12T06:56:34.547Z</time>
      </trkpt>
      <trkpt lat="43.72124" lon="3.60188">
        <ele>208</ele>
        <time>2022-05-12T06:56:35.096Z</time>
      </trkpt>
      <trkpt lat="43.72126" lon="3.60188">
        <ele>208</ele>
        <time>2022-05-12T06:56:35.462Z</time>
      </trkpt>
      <trkpt lat="43.72128" lon="3.60188">
        <ele>208</ele>
        <time>2022-05-12T06:56:35.828Z</time>
      </trkpt>
      <trkpt lat="43.7213" lon="3.60188">
        <ele>208</ele>
        <time>2022-05-12T06:56:36.194Z</time>
      </trkpt>
      <trkpt lat="43.72132" lon="3.60189">
        <ele>208</ele>
        <time>2022-05-12T06:56:36.583Z</time>
      </trkpt>
      <trkpt lat="43.72134" lon="3.60189">
        <ele>208</ele>
        <time>2022-05-12T06:56:36.949Z</time>
      </trkpt>
      <trkpt lat="43.72136" lon="3.60189">
        <ele>208</ele>
        <time>2022-05-12T06:56:37.315Z</time>
      </trkpt>
      <trkpt lat="43.72139" lon="3.6019">
        <ele>210</ele>
        <time>2022-05-12T06:56:39.492Z</time>
      </trkpt>
      <trkpt lat="43.72141" lon="3.6019">
        <ele>210</ele>
        <time>2022-05-12T06:56:39.858Z</time>
      </trkpt>
      <trkpt lat="43.72143" lon="3.6019">
        <ele>210</ele>
        <time>2022-05-12T06:56:40.224Z</time>
      </trkpt>
      <trkpt lat="43.72145" lon="3.6019">
        <ele>210</ele>
        <time>2022-05-12T06:56:40.590Z</time>
      </trkpt>
      <trkpt lat="43.72148" lon="3.6019">
        <ele>210</ele>
        <time>2022-05-12T06:56:41.139Z</time>
      </trkpt>
      <trkpt lat="43.7215" lon="3.6019">
        <ele>210</ele>
        <time>2022-05-12T06:56:41.505Z</time>
      </trkpt>
      <trkpt lat="43.72152" lon="3.6019">
        <ele>210</ele>
        <time>2022-05-12T06:56:41.871Z</time>
      </trkpt>
      <trkpt lat="43.72154" lon="3.6019">
        <ele>210</ele>
        <time>2022-05-12T06:56:42.237Z</time>
      </trkpt>
      <trkpt lat="43.72156" lon="3.6019">
        <ele>210</ele>
        <time>2022-05-12T06:56:42.603Z</time>
      </trkpt>
      <trkpt lat="43.72158" lon="3.60191">
        <ele>210</ele>
        <time>2022-05-12T06:56:42.992Z</time>
      </trkpt>
      <trkpt lat="43.7216" lon="3.60192">
        <ele>211</ele>
        <time>2022-05-12T06:56:44.492Z</time>
      </trkpt>
      <trkpt lat="43.72162" lon="3.60193">
        <ele>211</ele>
        <time>2022-05-12T06:56:44.881Z</time>
      </trkpt>
      <trkpt lat="43.72164" lon="3.60194">
        <ele>211</ele>
        <time>2022-05-12T06:56:45.270Z</time>
      </trkpt>
      <trkpt lat="43.72166" lon="3.60196">
        <ele>211</ele>
        <time>2022-05-12T06:56:45.722Z</time>
      </trkpt>
      <trkpt lat="43.72168" lon="3.60196">
        <ele>211</ele>
        <time>2022-05-12T06:56:46.088Z</time>
      </trkpt>
      <trkpt lat="43.72171" lon="3.60198">
        <ele>211</ele>
        <time>2022-05-12T06:56:46.697Z</time>
      </trkpt>
      <trkpt lat="43.72172" lon="3.602">
        <ele>211</ele>
        <time>2022-05-12T06:56:47.019Z</time>
      </trkpt>
      <trkpt lat="43.72174" lon="3.60202">
        <ele>211</ele>
        <time>2022-05-12T06:56:47.470Z</time>
      </trkpt>
      <trkpt lat="43.72175" lon="3.60204">
        <ele>211</ele>
        <time>2022-05-12T06:56:47.792Z</time>
      </trkpt>
      <trkpt lat="43.72177" lon="3.60206">
        <ele>211</ele>
        <time>2022-05-12T06:56:48.243Z</time>
      </trkpt>
      <trkpt lat="43.72179" lon="3.60208">
        <ele>212</ele>
        <time>2022-05-12T06:56:49.985Z</time>
      </trkpt>
      <trkpt lat="43.72181" lon="3.60209">
        <ele>212</ele>
        <time>2022-05-12T06:56:50.374Z</time>
      </trkpt>
      <trkpt lat="43.72183" lon="3.6021">
        <ele>212</ele>
        <time>2022-05-12T06:56:50.763Z</time>
      </trkpt>
      <trkpt lat="43.72185" lon="3.60211">
        <ele>212</ele>
        <time>2022-05-12T06:56:51.152Z</time>
      </trkpt>
      <trkpt lat="43.72187" lon="3.60212">
        <ele>212</ele>
        <time>2022-05-12T06:56:51.541Z</time>
      </trkpt>
      <trkpt lat="43.72189" lon="3.60213">
        <ele>212</ele>
        <time>2022-05-12T06:56:51.930Z</time>
      </trkpt>
      <trkpt lat="43.72191" lon="3.60214">
        <ele>212</ele>
        <time>2022-05-12T06:56:52.319Z</time>
      </trkpt>
      <trkpt lat="43.72193" lon="3.60215">
        <ele>212</ele>
        <time>2022-05-12T06:56:52.708Z</time>
      </trkpt>
      <trkpt lat="43.72195" lon="3.60216">
        <ele>212</ele>
        <time>2022-05-12T06:56:53.097Z</time>
      </trkpt>
      <trkpt lat="43.72197" lon="3.60217">
        <ele>212</ele>
        <time>2022-05-12T06:56:53.486Z</time>
      </trkpt>
      <trkpt lat="43.72199" lon="3.60218">
        <ele>213</ele>
        <time>2022-05-12T06:56:54.987Z</time>
      </trkpt>
      <trkpt lat="43.72201" lon="3.6022">
        <ele>213</ele>
        <time>2022-05-12T06:56:55.438Z</time>
      </trkpt>
      <trkpt lat="43.72203" lon="3.60221">
        <ele>213</ele>
        <time>2022-05-12T06:56:55.828Z</time>
      </trkpt>
      <trkpt lat="43.72205" lon="3.60222">
        <ele>213</ele>
        <time>2022-05-12T06:56:56.217Z</time>
      </trkpt>
      <trkpt lat="43.72207" lon="3.60223">
        <ele>213</ele>
        <time>2022-05-12T06:56:56.606Z</time>
      </trkpt>
      <trkpt lat="43.72209" lon="3.60225">
        <ele>213</ele>
        <time>2022-05-12T06:56:57.057Z</time>
      </trkpt>
      <trkpt lat="43.72211" lon="3.60226">
        <ele>213</ele>
        <time>2022-05-12T06:56:57.446Z</time>
      </trkpt>
      <trkpt lat="43.72213" lon="3.60227">
        <ele>213</ele>
        <time>2022-05-12T06:56:57.835Z</time>
      </trkpt>
      <trkpt lat="43.72215" lon="3.60228">
        <ele>213</ele>
        <time>2022-05-12T06:56:58.224Z</time>
      </trkpt>
      <trkpt lat="43.72217" lon="3.60229">
        <ele>213</ele>
        <time>2022-05-12T06:56:58.613Z</time>
      </trkpt>
      <trkpt lat="43.72219" lon="3.60231">
        <ele>214</ele>
        <time>2022-05-12T06:57:00.355Z</time>
      </trkpt>
      <trkpt lat="43.72221" lon="3.60232">
        <ele>214</ele>
        <time>2022-05-12T06:57:00.744Z</time>
      </trkpt>
      <trkpt lat="43.72223" lon="3.60233">
        <ele>214</ele>
        <time>2022-05-12T06:57:01.133Z</time>
      </trkpt>
      <trkpt lat="43.72225" lon="3.60234">
        <ele>214</ele>
        <time>2022-05-12T06:57:01.522Z</time>
      </trkpt>
      <trkpt lat="43.72227" lon="3.60235">
        <ele>214</ele>
        <time>2022-05-12T06:57:01.911Z</time>
      </trkpt>
      <trkpt lat="43.72229" lon="3.60237">
        <ele>214</ele>
        <time>2022-05-12T06:57:02.363Z</time>
      </trkpt>
      <trkpt lat="43.72231" lon="3.60238">
        <ele>214</ele>
        <time>2022-05-12T06:57:02.752Z</time>
      </trkpt>
      <trkpt lat="43.72233" lon="3.60239">
        <ele>214</ele>
        <time>2022-05-12T06:57:03.141Z</time>
      </trkpt>
      <trkpt lat="43.72235" lon="3.60241">
        <ele>214</ele>
        <time>2022-05-12T06:57:03.592Z</time>
      </trkpt>
      <trkpt lat="43.72238" lon="3.60242">
        <ele>214</ele>
        <time>2022-05-12T06:57:04.157Z</time>
      </trkpt>
      <trkpt lat="43.7224" lon="3.60244">
        <ele>214</ele>
        <time>2022-05-12T06:57:04.608Z</time>
      </trkpt>
      <trkpt lat="43.72242" lon="3.60245">
        <ele>214</ele>
        <time>2022-05-12T06:57:04.997Z</time>
      </trkpt>
      <trkpt lat="43.72243" lon="3.60246">
        <ele>214</ele>
        <time>2022-05-12T06:57:05.223Z</time>
      </trkpt>
      <trkpt lat="43.72246" lon="3.60248">
        <ele>214</ele>
        <time>2022-05-12T06:57:05.832Z</time>
      </trkpt>
      <trkpt lat="43.72248" lon="3.6025">
        <ele>214</ele>
        <time>2022-05-12T06:57:06.284Z</time>
      </trkpt>
      <trkpt lat="43.7225" lon="3.60252">
        <ele>214</ele>
        <time>2022-05-12T06:57:06.735Z</time>
      </trkpt>
      <trkpt lat="43.72253" lon="3.60253">
        <ele>214</ele>
        <time>2022-05-12T06:57:07.300Z</time>
      </trkpt>
      <trkpt lat="43.72255" lon="3.60255">
        <ele>214</ele>
        <time>2022-05-12T06:57:07.751Z</time>
      </trkpt>
      <trkpt lat="43.72257" lon="3.60256">
        <ele>214</ele>
        <time>2022-05-12T06:57:08.140Z</time>
      </trkpt>
      <trkpt lat="43.7226" lon="3.60257">
        <ele>214</ele>
        <time>2022-05-12T06:57:08.705Z</time>
      </trkpt>
      <trkpt lat="43.72262" lon="3.60257">
        <ele>214</ele>
        <time>2022-05-12T06:57:09.071Z</time>
      </trkpt>
      <trkpt lat="43.72264" lon="3.60258">
        <ele>214</ele>
        <time>2022-05-12T06:57:09.460Z</time>
      </trkpt>
      <trkpt lat="43.72267" lon="3.6026">
        <ele>214</ele>
        <time>2022-05-12T06:57:10.069Z</time>
      </trkpt>
      <trkpt lat="43.72269" lon="3.6026">
        <ele>214</ele>
        <time>2022-05-12T06:57:10.435Z</time>
      </trkpt>
      <trkpt lat="43.72271" lon="3.60261">
        <ele>214</ele>
        <time>2022-05-12T06:57:10.824Z</time>
      </trkpt>
      <trkpt lat="43.72273" lon="3.60262">
        <ele>214</ele>
        <time>2022-05-12T06:57:11.213Z</time>
      </trkpt>
      <trkpt lat="43.72275" lon="3.60263">
        <ele>214</ele>
        <time>2022-05-12T06:57:11.602Z</time>
      </trkpt>
      <trkpt lat="43.72278" lon="3.60264">
        <ele>214</ele>
        <time>2022-05-12T06:57:12.167Z</time>
      </trkpt>
      <trkpt lat="43.7228" lon="3.60264">
        <ele>214</ele>
        <time>2022-05-12T06:57:12.533Z</time>
      </trkpt>
      <trkpt lat="43.72282" lon="3.60265">
        <ele>214</ele>
        <time>2022-05-12T06:57:12.922Z</time>
      </trkpt>
      <trkpt lat="43.72284" lon="3.60266">
        <ele>214</ele>
        <time>2022-05-12T06:57:13.311Z</time>
      </trkpt>
      <trkpt lat="43.72287" lon="3.60267">
        <ele>216</ele>
        <time>2022-05-12T06:57:15.489Z</time>
      </trkpt>
      <trkpt lat="43.7229" lon="3.60268">
        <ele>216</ele>
        <time>2022-05-12T06:57:16.053Z</time>
      </trkpt>
      <trkpt lat="43.72292" lon="3.60268">
        <ele>216</ele>
        <time>2022-05-12T06:57:16.419Z</time>
      </trkpt>
      <trkpt lat="43.72295" lon="3.60269">
        <ele>216</ele>
        <time>2022-05-12T06:57:16.984Z</time>
      </trkpt>
      <trkpt lat="43.72297" lon="3.6027">
        <ele>216</ele>
        <time>2022-05-12T06:57:17.373Z</time>
      </trkpt>
      <trkpt lat="43.723" lon="3.60271">
        <ele>216</ele>
        <time>2022-05-12T06:57:17.937Z</time>
      </trkpt>
      <trkpt lat="43.72302" lon="3.60271">
        <ele>216</ele>
        <time>2022-05-12T06:57:18.303Z</time>
      </trkpt>
      <trkpt lat="43.72304" lon="3.60272">
        <ele>216</ele>
        <time>2022-05-12T06:57:18.692Z</time>
      </trkpt>
      <trkpt lat="43.72306" lon="3.60273">
        <ele>216</ele>
        <time>2022-05-12T06:57:19.081Z</time>
      </trkpt>
      <trkpt lat="43.72308" lon="3.60274">
        <ele>216</ele>
        <time>2022-05-12T06:57:19.471Z</time>
      </trkpt>
      <trkpt lat="43.72311" lon="3.60275">
        <ele>216</ele>
        <time>2022-05-12T06:57:20.035Z</time>
      </trkpt>
      <trkpt lat="43.72313" lon="3.60276">
        <ele>216</ele>
        <time>2022-05-12T06:57:20.424Z</time>
      </trkpt>
      <trkpt lat="43.72316" lon="3.60277">
        <ele>216</ele>
        <time>2022-05-12T06:57:20.989Z</time>
      </trkpt>
      <trkpt lat="43.72318" lon="3.60278">
        <ele>216</ele>
        <time>2022-05-12T06:57:21.378Z</time>
      </trkpt>
      <trkpt lat="43.7232" lon="3.6028">
        <ele>216</ele>
        <time>2022-05-12T06:57:21.829Z</time>
      </trkpt>
      <trkpt lat="43.72322" lon="3.60281">
        <ele>216</ele>
        <time>2022-05-12T06:57:22.218Z</time>
      </trkpt>
      <trkpt lat="43.72325" lon="3.60282">
        <ele>216</ele>
        <time>2022-05-12T06:57:22.783Z</time>
      </trkpt>
      <trkpt lat="43.72328" lon="3.60283">
        <ele>216</ele>
        <time>2022-05-12T06:57:23.348Z</time>
      </trkpt>
      <trkpt lat="43.7233" lon="3.60284">
        <ele>216</ele>
        <time>2022-05-12T06:57:23.737Z</time>
      </trkpt>
      <trkpt lat="43.72333" lon="3.60284">
        <ele>216</ele>
        <time>2022-05-12T06:57:24.285Z</time>
      </trkpt>
      <trkpt lat="43.72335" lon="3.60285">
        <ele>216</ele>
        <time>2022-05-12T06:57:24.675Z</time>
      </trkpt>
      <trkpt lat="43.72338" lon="3.60286">
        <ele>216</ele>
        <time>2022-05-12T06:57:25.239Z</time>
      </trkpt>
      <trkpt lat="43.7234" lon="3.60287">
        <ele>216</ele>
        <time>2022-05-12T06:57:25.628Z</time>
      </trkpt>
      <trkpt lat="43.72343" lon="3.60287">
        <ele>216</ele>
        <time>2022-05-12T06:57:26.177Z</time>
      </trkpt>
      <trkpt lat="43.72345" lon="3.60288">
        <ele>216</ele>
        <time>2022-05-12T06:57:26.566Z</time>
      </trkpt>
      <trkpt lat="43.72348" lon="3.60289">
        <ele>216</ele>
        <time>2022-05-12T06:57:27.131Z</time>
      </trkpt>
      <trkpt lat="43.72351" lon="3.6029">
        <ele>216</ele>
        <time>2022-05-12T06:57:27.695Z</time>
      </trkpt>
      <trkpt lat="43.72354" lon="3.6029">
        <ele>216</ele>
        <time>2022-05-12T06:57:28.244Z</time>
      </trkpt>
      <trkpt lat="43.72357" lon="3.60291">
        <ele>216</ele>
        <time>2022-05-12T06:57:28.809Z</time>
      </trkpt>
      <trkpt lat="43.7236" lon="3.60291">
        <ele>217</ele>
        <time>2022-05-12T06:57:30.926Z</time>
      </trkpt>
      <trkpt lat="43.72363" lon="3.60292">
        <ele>217</ele>
        <time>2022-05-12T06:57:31.490Z</time>
      </trkpt>
      <trkpt lat="43.72366" lon="3.60293">
        <ele>217</ele>
        <time>2022-05-12T06:57:32.055Z</time>
      </trkpt>
      <trkpt lat="43.72369" lon="3.60294">
        <ele>217</ele>
        <time>2022-05-12T06:57:32.620Z</time>
      </trkpt>
      <trkpt lat="43.72371" lon="3.60297">
        <ele>217</ele>
        <time>2022-05-12T06:57:33.159Z</time>
      </trkpt>
      <trkpt lat="43.72374" lon="3.60299">
        <ele>217</ele>
        <time>2022-05-12T06:57:33.768Z</time>
      </trkpt>
      <trkpt lat="43.72376" lon="3.60303">
        <ele>217</ele>
        <time>2022-05-12T06:57:34.412Z</time>
      </trkpt>
      <trkpt lat="43.72379" lon="3.60305">
        <ele>217</ele>
        <time>2022-05-12T06:57:35.021Z</time>
      </trkpt>
      <trkpt lat="43.72382" lon="3.60308">
        <ele>217</ele>
        <time>2022-05-12T06:57:35.698Z</time>
      </trkpt>
      <trkpt lat="43.72385" lon="3.60309">
        <ele>217</ele>
        <time>2022-05-12T06:57:36.263Z</time>
      </trkpt>
      <trkpt lat="43.72388" lon="3.60311">
        <ele>217</ele>
        <time>2022-05-12T06:57:36.872Z</time>
      </trkpt>
      <trkpt lat="43.72391" lon="3.60313">
        <ele>217</ele>
        <time>2022-05-12T06:57:37.481Z</time>
      </trkpt>
      <trkpt lat="43.72393" lon="3.60314">
        <ele>217</ele>
        <time>2022-05-12T06:57:37.870Z</time>
      </trkpt>
      <trkpt lat="43.72394" lon="3.60316">
        <ele>217</ele>
        <time>2022-05-12T06:57:38.192Z</time>
      </trkpt>
      <trkpt lat="43.72397" lon="3.60318">
        <ele>217</ele>
        <time>2022-05-12T06:57:38.801Z</time>
      </trkpt>
      <trkpt lat="43.724" lon="3.6032">
        <ele>217</ele>
        <time>2022-05-12T06:57:39.410Z</time>
      </trkpt>
      <trkpt lat="43.72403" lon="3.60323">
        <ele>217</ele>
        <time>2022-05-12T06:57:40.087Z</time>
      </trkpt>
      <trkpt lat="43.72406" lon="3.60325">
        <ele>217</ele>
        <time>2022-05-12T06:57:40.697Z</time>
      </trkpt>
      <trkpt lat="43.7241" lon="3.60329">
        <ele>217</ele>
        <time>2022-05-12T06:57:41.600Z</time>
      </trkpt>
      <trkpt lat="43.72414" lon="3.60333">
        <ele>217</ele>
        <time>2022-05-12T06:57:42.503Z</time>
      </trkpt>
      <trkpt lat="43.72419" lon="3.60339">
        <ele>217</ele>
        <time>2022-05-12T06:57:43.713Z</time>
      </trkpt>
      <trkpt lat="43.72422" lon="3.60346">
        <ele>215</ele>
        <time>2022-05-12T06:57:44.237Z</time>
      </trkpt>
      <trkpt lat="43.72426" lon="3.60352">
        <ele>215</ele>
        <time>2022-05-12T06:57:45.316Z</time>
      </trkpt>
      <trkpt lat="43.72431" lon="3.60358">
        <ele>215</ele>
        <time>2022-05-12T06:57:46.527Z</time>
      </trkpt>
      <trkpt lat="43.72435" lon="3.60364">
        <ele>215</ele>
        <time>2022-05-12T06:57:47.607Z</time>
      </trkpt>
      <trkpt lat="43.72438" lon="3.60367">
        <ele>215</ele>
        <time>2022-05-12T06:57:48.284Z</time>
      </trkpt>
      <trkpt lat="43.72439" lon="3.60369">
        <ele>215</ele>
        <time>2022-05-12T06:57:48.605Z</time>
      </trkpt>
      <trkpt lat="43.72441" lon="3.60372">
        <ele>215</ele>
        <time>2022-05-12T06:57:49.145Z</time>
      </trkpt>
      <trkpt lat="43.7244" lon="3.60376">
        <ele>214</ele>
        <time>2022-05-12T06:57:49.417Z</time>
      </trkpt>
      <trkpt lat="43.72439" lon="3.60378">
        <ele>214</ele>
        <time>2022-05-12T06:57:49.739Z</time>
      </trkpt>
      <trkpt lat="43.72437" lon="3.60382">
        <ele>214</ele>
        <time>2022-05-12T06:57:50.382Z</time>
      </trkpt>
      <trkpt lat="43.72436" lon="3.60385">
        <ele>214</ele>
        <time>2022-05-12T06:57:50.819Z</time>
      </trkpt>
      <trkpt lat="43.72436" lon="3.60387">
        <ele>214</ele>
        <time>2022-05-12T06:57:51.083Z</time>
      </trkpt>
      <trkpt lat="43.72435" lon="3.60389">
        <ele>214</ele>
        <time>2022-05-12T06:57:51.405Z</time>
      </trkpt>
      <trkpt lat="43.72434" lon="3.60392">
        <ele>214</ele>
        <time>2022-05-12T06:57:51.842Z</time>
      </trkpt>
      <trkpt lat="43.72433" lon="3.60395">
        <ele>214</ele>
        <time>2022-05-12T06:57:52.278Z</time>
      </trkpt>
      <trkpt lat="43.72432" lon="3.60399">
        <ele>214</ele>
        <time>2022-05-12T06:57:52.838Z</time>
      </trkpt>
      <trkpt lat="43.72431" lon="3.60402">
        <ele>213</ele>
        <time>2022-05-12T06:57:53.051Z</time>
      </trkpt>
      <trkpt lat="43.7243" lon="3.60407">
        <ele>213</ele>
        <time>2022-05-12T06:57:53.737Z</time>
      </trkpt>
      <trkpt lat="43.7243" lon="3.60411">
        <ele>213</ele>
        <time>2022-05-12T06:57:54.265Z</time>
      </trkpt>
      <trkpt lat="43.72431" lon="3.60415">
        <ele>213</ele>
        <time>2022-05-12T06:57:54.825Z</time>
      </trkpt>
      <trkpt lat="43.72432" lon="3.60418">
        <ele>213</ele>
        <time>2022-05-12T06:57:55.262Z</time>
      </trkpt>
      <trkpt lat="43.72433" lon="3.60422">
        <ele>213</ele>
        <time>2022-05-12T06:57:55.822Z</time>
      </trkpt>
      <trkpt lat="43.72434" lon="3.60427">
        <ele>213</ele>
        <time>2022-05-12T06:57:56.507Z</time>
      </trkpt>
      <trkpt lat="43.72434" lon="3.60431">
        <ele>213</ele>
        <time>2022-05-12T06:57:57.036Z</time>
      </trkpt>
      <trkpt lat="43.72434" lon="3.60435">
        <ele>213</ele>
        <time>2022-05-12T06:57:57.565Z</time>
      </trkpt>
      <trkpt lat="43.72433" lon="3.60439">
        <ele>213</ele>
        <time>2022-05-12T06:57:58.125Z</time>
      </trkpt>
      <trkpt lat="43.72433" lon="3.60443">
        <ele>213</ele>
        <time>2022-05-12T06:57:58.654Z</time>
      </trkpt>
      <trkpt lat="43.72432" lon="3.60447">
        <ele>212</ele>
        <time>2022-05-12T06:57:58.926Z</time>
      </trkpt>
      <trkpt lat="43.72431" lon="3.60451">
        <ele>212</ele>
        <time>2022-05-12T06:57:59.486Z</time>
      </trkpt>
      <trkpt lat="43.7243" lon="3.60454">
        <ele>212</ele>
        <time>2022-05-12T06:57:59.922Z</time>
      </trkpt>
      <trkpt lat="43.72428" lon="3.60457">
        <ele>212</ele>
        <time>2022-05-12T06:58:00.462Z</time>
      </trkpt>
      <trkpt lat="43.72427" lon="3.6046">
        <ele>212</ele>
        <time>2022-05-12T06:58:00.899Z</time>
      </trkpt>
      <trkpt lat="43.72425" lon="3.60463">
        <ele>212</ele>
        <time>2022-05-12T06:58:01.439Z</time>
      </trkpt>
      <trkpt lat="43.72424" lon="3.60465">
        <ele>212</ele>
        <time>2022-05-12T06:58:01.760Z</time>
      </trkpt>
      <trkpt lat="43.72423" lon="3.60468">
        <ele>212</ele>
        <time>2022-05-12T06:58:02.197Z</time>
      </trkpt>
      <trkpt lat="43.72422" lon="3.60472">
        <ele>212</ele>
        <time>2022-05-12T06:58:02.757Z</time>
      </trkpt>
      <trkpt lat="43.72421" lon="3.60475">
        <ele>212</ele>
        <time>2022-05-12T06:58:03.193Z</time>
      </trkpt>
      <trkpt lat="43.72419" lon="3.60478">
        <ele>212</ele>
        <time>2022-05-12T06:58:03.733Z</time>
      </trkpt>
      <trkpt lat="43.72418" lon="3.60482">
        <ele>212</ele>
        <time>2022-05-12T06:58:04.293Z</time>
      </trkpt>
      <trkpt lat="43.72417" lon="3.60485">
        <ele>212</ele>
        <time>2022-05-12T06:58:04.730Z</time>
      </trkpt>
      <trkpt lat="43.72415" lon="3.60487">
        <ele>212</ele>
        <time>2022-05-12T06:58:05.181Z</time>
      </trkpt>
      <trkpt lat="43.72413" lon="3.6049">
        <ele>212</ele>
        <time>2022-05-12T06:58:05.721Z</time>
      </trkpt>
      <trkpt lat="43.7241" lon="3.60491">
        <ele>212</ele>
        <time>2022-05-12T06:58:06.285Z</time>
      </trkpt>
      <trkpt lat="43.72408" lon="3.60493">
        <ele>212</ele>
        <time>2022-05-12T06:58:06.737Z</time>
      </trkpt>
      <trkpt lat="43.72406" lon="3.60495">
        <ele>212</ele>
        <time>2022-05-12T06:58:07.188Z</time>
      </trkpt>
      <trkpt lat="43.72403" lon="3.60497">
        <ele>212</ele>
        <time>2022-05-12T06:58:07.797Z</time>
      </trkpt>
      <trkpt lat="43.72401" lon="3.60498">
        <ele>211</ele>
        <time>2022-05-12T06:58:07.987Z</time>
      </trkpt>
      <trkpt lat="43.72399" lon="3.605">
        <ele>211</ele>
        <time>2022-05-12T06:58:08.438Z</time>
      </trkpt>
      <trkpt lat="43.72396" lon="3.60501">
        <ele>211</ele>
        <time>2022-05-12T06:58:09.003Z</time>
      </trkpt>
      <trkpt lat="43.72394" lon="3.60503">
        <ele>211</ele>
        <time>2022-05-12T06:58:09.454Z</time>
      </trkpt>
      <trkpt lat="43.72391" lon="3.60505">
        <ele>211</ele>
        <time>2022-05-12T06:58:10.064Z</time>
      </trkpt>
      <trkpt lat="43.72389" lon="3.60506">
        <ele>211</ele>
        <time>2022-05-12T06:58:10.453Z</time>
      </trkpt>
      <trkpt lat="43.72386" lon="3.60508">
        <ele>211</ele>
        <time>2022-05-12T06:58:11.062Z</time>
      </trkpt>
      <trkpt lat="43.72383" lon="3.6051">
        <ele>211</ele>
        <time>2022-05-12T06:58:11.671Z</time>
      </trkpt>
      <trkpt lat="43.72381" lon="3.60511">
        <ele>211</ele>
        <time>2022-05-12T06:58:12.060Z</time>
      </trkpt>
      <trkpt lat="43.72378" lon="3.60512">
        <ele>211</ele>
        <time>2022-05-12T06:58:12.625Z</time>
      </trkpt>
      <trkpt lat="43.72375" lon="3.60512">
        <ele>211</ele>
        <time>2022-05-12T06:58:13.174Z</time>
      </trkpt>
      <trkpt lat="43.72372" lon="3.60512">
        <ele>211</ele>
        <time>2022-05-12T06:58:13.723Z</time>
      </trkpt>
      <trkpt lat="43.72369" lon="3.60512">
        <ele>211</ele>
        <time>2022-05-12T06:58:14.271Z</time>
      </trkpt>
      <trkpt lat="43.72366" lon="3.60511">
        <ele>211</ele>
        <time>2022-05-12T06:58:14.836Z</time>
      </trkpt>
      <trkpt lat="43.72363" lon="3.6051">
        <ele>211</ele>
        <time>2022-05-12T06:58:15.401Z</time>
      </trkpt>
      <trkpt lat="43.72361" lon="3.60509">
        <ele>211</ele>
        <time>2022-05-12T06:58:15.790Z</time>
      </trkpt>
      <trkpt lat="43.72359" lon="3.60507">
        <ele>211</ele>
        <time>2022-05-12T06:58:16.241Z</time>
      </trkpt>
      <trkpt lat="43.72357" lon="3.60505">
        <ele>211</ele>
        <time>2022-05-12T06:58:16.693Z</time>
      </trkpt>
      <trkpt lat="43.72355" lon="3.60502">
        <ele>211</ele>
        <time>2022-05-12T06:58:17.232Z</time>
      </trkpt>
      <trkpt lat="43.72354" lon="3.60501">
        <ele>211</ele>
        <time>2022-05-12T06:58:17.458Z</time>
      </trkpt>
      <trkpt lat="43.7235" lon="3.60502">
        <ele>210</ele>
        <time>2022-05-12T06:58:17.820Z</time>
      </trkpt>
      <trkpt lat="43.72348" lon="3.60503">
        <ele>210</ele>
        <time>2022-05-12T06:58:18.209Z</time>
      </trkpt>
      <trkpt lat="43.72346" lon="3.60505">
        <ele>210</ele>
        <time>2022-05-12T06:58:18.660Z</time>
      </trkpt>
      <trkpt lat="43.72344" lon="3.60507">
        <ele>210</ele>
        <time>2022-05-12T06:58:19.112Z</time>
      </trkpt>
      <trkpt lat="43.72341" lon="3.60511">
        <ele>210</ele>
        <time>2022-05-12T06:58:19.874Z</time>
      </trkpt>
      <trkpt lat="43.72338" lon="3.60514">
        <ele>210</ele>
        <time>2022-05-12T06:58:20.551Z</time>
      </trkpt>
      <trkpt lat="43.72336" lon="3.60517">
        <ele>210</ele>
        <time>2022-05-12T06:58:21.091Z</time>
      </trkpt>
      <trkpt lat="43.72333" lon="3.60521">
        <ele>210</ele>
        <time>2022-05-12T06:58:21.853Z</time>
      </trkpt>
      <trkpt lat="43.72331" lon="3.60525">
        <ele>210</ele>
        <time>2022-05-12T06:58:22.496Z</time>
      </trkpt>
      <trkpt lat="43.72328" lon="3.60529">
        <ele>210</ele>
        <time>2022-05-12T06:58:23.258Z</time>
      </trkpt>
      <trkpt lat="43.72324" lon="3.60533">
        <ele>210</ele>
        <time>2022-05-12T06:58:24.161Z</time>
      </trkpt>
      <trkpt lat="43.7232" lon="3.60535">
        <ele>210</ele>
        <time>2022-05-12T06:58:24.940Z</time>
      </trkpt>
      <trkpt lat="43.72316" lon="3.60538">
        <ele>210</ele>
        <time>2022-05-12T06:58:25.772Z</time>
      </trkpt>
      <trkpt lat="43.72312" lon="3.6054">
        <ele>210</ele>
        <time>2022-05-12T06:58:26.550Z</time>
      </trkpt>
      <trkpt lat="43.72308" lon="3.60543">
        <ele>210</ele>
        <time>2022-05-12T06:58:27.383Z</time>
      </trkpt>
      <trkpt lat="43.72304" lon="3.60545">
        <ele>210</ele>
        <time>2022-05-12T06:58:28.161Z</time>
      </trkpt>
      <trkpt lat="43.72299" lon="3.60547">
        <ele>210</ele>
        <time>2022-05-12T06:58:29.113Z</time>
      </trkpt>
      <trkpt lat="43.72294" lon="3.60549">
        <ele>210</ele>
        <time>2022-05-12T06:58:30.065Z</time>
      </trkpt>
      <trkpt lat="43.72289" lon="3.60551">
        <ele>210</ele>
        <time>2022-05-12T06:58:31.017Z</time>
      </trkpt>
      <trkpt lat="43.72284" lon="3.60552">
        <ele>209</ele>
        <time>2022-05-12T06:58:31.467Z</time>
      </trkpt>
      <trkpt lat="43.72279" lon="3.60553">
        <ele>209</ele>
        <time>2022-05-12T06:58:32.392Z</time>
      </trkpt>
      <trkpt lat="43.72274" lon="3.60555">
        <ele>209</ele>
        <time>2022-05-12T06:58:33.344Z</time>
      </trkpt>
      <trkpt lat="43.72269" lon="3.60558">
        <ele>209</ele>
        <time>2022-05-12T06:58:34.341Z</time>
      </trkpt>
      <trkpt lat="43.72264" lon="3.60562">
        <ele>209</ele>
        <time>2022-05-12T06:58:35.398Z</time>
      </trkpt>
      <trkpt lat="43.72259" lon="3.60566">
        <ele>209</ele>
        <time>2022-05-12T06:58:36.454Z</time>
      </trkpt>
      <trkpt lat="43.72255" lon="3.6057">
        <ele>209</ele>
        <time>2022-05-12T06:58:37.357Z</time>
      </trkpt>
      <trkpt lat="43.7225" lon="3.60574">
        <ele>209</ele>
        <time>2022-05-12T06:58:38.414Z</time>
      </trkpt>
      <trkpt lat="43.72246" lon="3.6058">
        <ele>209</ele>
        <time>2022-05-12T06:58:39.493Z</time>
      </trkpt>
      <trkpt lat="43.72244" lon="3.60587">
        <ele>209</ele>
        <time>2022-05-12T06:58:40.488Z</time>
      </trkpt>
      <trkpt lat="43.72243" lon="3.60595">
        <ele>208</ele>
        <time>2022-05-12T06:58:41.011Z</time>
      </trkpt>
      <trkpt lat="43.72242" lon="3.60602">
        <ele>208</ele>
        <time>2022-05-12T06:58:41.954Z</time>
      </trkpt>
      <trkpt lat="43.72241" lon="3.6061">
        <ele>208</ele>
        <time>2022-05-12T06:58:43.028Z</time>
      </trkpt>
      <trkpt lat="43.72241" lon="3.60617">
        <ele>208</ele>
        <time>2022-05-12T06:58:43.953Z</time>
      </trkpt>
      <trkpt lat="43.72241" lon="3.60622">
        <ele>208</ele>
        <time>2022-05-12T06:58:44.614Z</time>
      </trkpt>
      <trkpt lat="43.72241" lon="3.60628">
        <ele>208</ele>
        <time>2022-05-12T06:58:45.408Z</time>
      </trkpt>
      <trkpt lat="43.72241" lon="3.60633">
        <ele>208</ele>
        <time>2022-05-12T06:58:46.069Z</time>
      </trkpt>
      <trkpt lat="43.72242" lon="3.60638">
        <ele>208</ele>
        <time>2022-05-12T06:58:46.755Z</time>
      </trkpt>
      <trkpt lat="43.72243" lon="3.60643">
        <ele>208</ele>
        <time>2022-05-12T06:58:47.441Z</time>
      </trkpt>
      <trkpt lat="43.72244" lon="3.60648">
        <ele>208</ele>
        <time>2022-05-12T06:58:48.127Z</time>
      </trkpt>
      <trkpt lat="43.72244" lon="3.60654">
        <ele>206</ele>
        <time>2022-05-12T06:58:48.513Z</time>
      </trkpt>
      <trkpt lat="43.72244" lon="3.60659">
        <ele>206</ele>
        <time>2022-05-12T06:58:49.174Z</time>
      </trkpt>
      <trkpt lat="43.72244" lon="3.60665">
        <ele>206</ele>
        <time>2022-05-12T06:58:49.967Z</time>
      </trkpt>
      <trkpt lat="43.72243" lon="3.60671">
        <ele>206</ele>
        <time>2022-05-12T06:58:50.781Z</time>
      </trkpt>
      <trkpt lat="43.72242" lon="3.60677">
        <ele>206</ele>
        <time>2022-05-12T06:58:51.596Z</time>
      </trkpt>
      <trkpt lat="43.72243" lon="3.60683">
        <ele>206</ele>
        <time>2022-05-12T06:58:52.410Z</time>
      </trkpt>
      <trkpt lat="43.72245" lon="3.60688">
        <ele>206</ele>
        <time>2022-05-12T06:58:53.165Z</time>
      </trkpt>
      <trkpt lat="43.72247" lon="3.60692">
        <ele>206</ele>
        <time>2022-05-12T06:58:53.809Z</time>
      </trkpt>
      <trkpt lat="43.72251" lon="3.60697">
        <ele>206</ele>
        <time>2022-05-12T06:58:54.795Z</time>
      </trkpt>
      <trkpt lat="43.72254" lon="3.60701">
        <ele>206</ele>
        <time>2022-05-12T06:58:55.557Z</time>
      </trkpt>
      <trkpt lat="43.72258" lon="3.60704">
        <ele>205</ele>
        <time>2022-05-12T06:58:55.962Z</time>
      </trkpt>
      <trkpt lat="43.72262" lon="3.60707">
        <ele>205</ele>
        <time>2022-05-12T06:58:56.794Z</time>
      </trkpt>
      <trkpt lat="43.72266" lon="3.6071">
        <ele>205</ele>
        <time>2022-05-12T06:58:57.627Z</time>
      </trkpt>
      <trkpt lat="43.7227" lon="3.60714">
        <ele>205</ele>
        <time>2022-05-12T06:58:58.530Z</time>
      </trkpt>
      <trkpt lat="43.72274" lon="3.60717">
        <ele>205</ele>
        <time>2022-05-12T06:58:59.362Z</time>
      </trkpt>
      <trkpt lat="43.72278" lon="3.60718">
        <ele>205</ele>
        <time>2022-05-12T06:59:00.106Z</time>
      </trkpt>
      <trkpt lat="43.72283" lon="3.60719">
        <ele>205</ele>
        <time>2022-05-12T06:59:01.030Z</time>
      </trkpt>
      <trkpt lat="43.72287" lon="3.60721">
        <ele>205</ele>
        <time>2022-05-12T06:59:01.808Z</time>
      </trkpt>
      <trkpt lat="43.72291" lon="3.60723">
        <ele>205</ele>
        <time>2022-05-12T06:59:02.587Z</time>
      </trkpt>
      <trkpt lat="43.72295" lon="3.60724">
        <ele>205</ele>
        <time>2022-05-12T06:59:03.330Z</time>
      </trkpt>
      <trkpt lat="43.72299" lon="3.60725">
        <ele>205</ele>
        <time>2022-05-12T06:59:04.074Z</time>
      </trkpt>
      <trkpt lat="43.72303" lon="3.60725">
        <ele>205</ele>
        <time>2022-05-12T06:59:04.806Z</time>
      </trkpt>
      <trkpt lat="43.72307" lon="3.60725">
        <ele>205</ele>
        <time>2022-05-12T06:59:05.538Z</time>
      </trkpt>
      <trkpt lat="43.72311" lon="3.60724">
        <ele>205</ele>
        <time>2022-05-12T06:59:06.281Z</time>
      </trkpt>
      <trkpt lat="43.72315" lon="3.60723">
        <ele>205</ele>
        <time>2022-05-12T06:59:07.025Z</time>
      </trkpt>
      <trkpt lat="43.72318" lon="3.60722">
        <ele>205</ele>
        <time>2022-05-12T06:59:07.589Z</time>
      </trkpt>
      <trkpt lat="43.72321" lon="3.60719">
        <ele>205</ele>
        <time>2022-05-12T06:59:08.267Z</time>
      </trkpt>
      <trkpt lat="43.72324" lon="3.60717">
        <ele>205</ele>
        <time>2022-05-12T06:59:08.876Z</time>
      </trkpt>
      <trkpt lat="43.72328" lon="3.60715">
        <ele>205</ele>
        <time>2022-05-12T06:59:09.654Z</time>
      </trkpt>
      <trkpt lat="43.72332" lon="3.60714">
        <ele>205</ele>
        <time>2022-05-12T06:59:10.398Z</time>
      </trkpt>
      <trkpt lat="43.72336" lon="3.60715">
        <ele>204</ele>
        <time>2022-05-12T06:59:10.760Z</time>
      </trkpt>
      <trkpt lat="43.7234" lon="3.60716">
        <ele>204</ele>
        <time>2022-05-12T06:59:11.503Z</time>
      </trkpt>
      <trkpt lat="43.72344" lon="3.60717">
        <ele>204</ele>
        <time>2022-05-12T06:59:12.247Z</time>
      </trkpt>
      <trkpt lat="43.72348" lon="3.60718">
        <ele>204</ele>
        <time>2022-05-12T06:59:12.991Z</time>
      </trkpt>
      <trkpt lat="43.72352" lon="3.60719">
        <ele>204</ele>
        <time>2022-05-12T06:59:13.734Z</time>
      </trkpt>
      <trkpt lat="43.72356" lon="3.6072">
        <ele>204</ele>
        <time>2022-05-12T06:59:14.478Z</time>
      </trkpt>
      <trkpt lat="43.72359" lon="3.60721">
        <ele>204</ele>
        <time>2022-05-12T06:59:15.043Z</time>
      </trkpt>
      <trkpt lat="43.72362" lon="3.60723">
        <ele>204</ele>
        <time>2022-05-12T06:59:15.652Z</time>
      </trkpt>
      <trkpt lat="43.72363" lon="3.60726">
        <ele>204</ele>
        <time>2022-05-12T06:59:16.089Z</time>
      </trkpt>
      <trkpt lat="43.72364" lon="3.60731">
        <ele>204</ele>
        <time>2022-05-12T06:59:16.775Z</time>
      </trkpt>
      <trkpt lat="43.72366" lon="3.60736">
        <ele>204</ele>
        <time>2022-05-12T06:59:17.530Z</time>
      </trkpt>
      <trkpt lat="43.72366" lon="3.60742">
        <ele>204</ele>
        <time>2022-05-12T06:59:18.324Z</time>
      </trkpt>
      <trkpt lat="43.72366" lon="3.60749">
        <ele>204</ele>
        <time>2022-05-12T06:59:19.249Z</time>
      </trkpt>
      <trkpt lat="43.72365" lon="3.60756">
        <ele>204</ele>
        <time>2022-05-12T06:59:20.193Z</time>
      </trkpt>
      <trkpt lat="43.72363" lon="3.60763">
        <ele>204</ele>
        <time>2022-05-12T06:59:21.188Z</time>
      </trkpt>
      <trkpt lat="43.72362" lon="3.6077">
        <ele>204</ele>
        <time>2022-05-12T06:59:22.131Z</time>
      </trkpt>
      <trkpt lat="43.72361" lon="3.60778">
        <ele>204</ele>
        <time>2022-05-12T06:59:23.205Z</time>
      </trkpt>
      <trkpt lat="43.72361" lon="3.60785">
        <ele>204</ele>
        <time>2022-05-12T06:59:24.130Z</time>
      </trkpt>
      <trkpt lat="43.7236" lon="3.60792">
        <ele>204</ele>
        <time>2022-05-12T06:59:25.074Z</time>
      </trkpt>
      <trkpt lat="43.7236" lon="3.60799">
        <ele>204</ele>
        <time>2022-05-12T06:59:25.999Z</time>
      </trkpt>
      <trkpt lat="43.72359" lon="3.60805">
        <ele>203</ele>
        <time>2022-05-12T06:59:26.395Z</time>
      </trkpt>
      <trkpt lat="43.72358" lon="3.60811">
        <ele>203</ele>
        <time>2022-05-12T06:59:27.210Z</time>
      </trkpt>
      <trkpt lat="43.72356" lon="3.60816">
        <ele>203</ele>
        <time>2022-05-12T06:59:27.965Z</time>
      </trkpt>
      <trkpt lat="43.72354" lon="3.60821">
        <ele>203</ele>
        <time>2022-05-12T06:59:28.721Z</time>
      </trkpt>
      <trkpt lat="43.72351" lon="3.60825">
        <ele>203</ele>
        <time>2022-05-12T06:59:29.483Z</time>
      </trkpt>
      <trkpt lat="43.72349" lon="3.6083">
        <ele>203</ele>
        <time>2022-05-12T06:59:30.239Z</time>
      </trkpt>
      <trkpt lat="43.72346" lon="3.60834">
        <ele>203</ele>
        <time>2022-05-12T06:59:31.001Z</time>
      </trkpt>
      <trkpt lat="43.72343" lon="3.60838">
        <ele>203</ele>
        <time>2022-05-12T06:59:31.763Z</time>
      </trkpt>
      <trkpt lat="43.7234" lon="3.60842">
        <ele>203</ele>
        <time>2022-05-12T06:59:32.525Z</time>
      </trkpt>
      <trkpt lat="43.72337" lon="3.60845">
        <ele>203</ele>
        <time>2022-05-12T06:59:33.203Z</time>
      </trkpt>
      <trkpt lat="43.72333" lon="3.60848">
        <ele>203</ele>
        <time>2022-05-12T06:59:34.035Z</time>
      </trkpt>
      <trkpt lat="43.72329" lon="3.6085">
        <ele>202</ele>
        <time>2022-05-12T06:59:34.414Z</time>
      </trkpt>
      <trkpt lat="43.72327" lon="3.60854">
        <ele>202</ele>
        <time>2022-05-12T06:59:35.057Z</time>
      </trkpt>
      <trkpt lat="43.72326" lon="3.60856">
        <ele>202</ele>
        <time>2022-05-12T06:59:35.378Z</time>
      </trkpt>
      <trkpt lat="43.72327" lon="3.6086">
        <ele>202</ele>
        <time>2022-05-12T06:59:35.938Z</time>
      </trkpt>
      <trkpt lat="43.72328" lon="3.60862">
        <ele>202</ele>
        <time>2022-05-12T06:59:36.260Z</time>
      </trkpt>
      <trkpt lat="43.7233" lon="3.60863">
        <ele>202</ele>
        <time>2022-05-12T06:59:36.649Z</time>
      </trkpt>
      <trkpt lat="43.72333" lon="3.60864">
        <ele>202</ele>
        <time>2022-05-12T06:59:37.213Z</time>
      </trkpt>
      <trkpt lat="43.72335" lon="3.60866">
        <ele>202</ele>
        <time>2022-05-12T06:59:37.665Z</time>
      </trkpt>
      <trkpt lat="43.72338" lon="3.60868">
        <ele>202</ele>
        <time>2022-05-12T06:59:38.274Z</time>
      </trkpt>
      <trkpt lat="43.72341" lon="3.60871">
        <ele>200</ele>
        <time>2022-05-12T06:59:38.603Z</time>
      </trkpt>
      <trkpt lat="43.72345" lon="3.60874">
        <ele>200</ele>
        <time>2022-05-12T06:59:39.436Z</time>
      </trkpt>
      <trkpt lat="43.72348" lon="3.60878">
        <ele>200</ele>
        <time>2022-05-12T06:59:40.198Z</time>
      </trkpt>
      <trkpt lat="43.72352" lon="3.60881">
        <ele>200</ele>
        <time>2022-05-12T06:59:41.030Z</time>
      </trkpt>
      <trkpt lat="43.72355" lon="3.60885">
        <ele>200</ele>
        <time>2022-05-12T06:59:41.793Z</time>
      </trkpt>
      <trkpt lat="43.72359" lon="3.60888">
        <ele>200</ele>
        <time>2022-05-12T06:59:42.625Z</time>
      </trkpt>
      <trkpt lat="43.72362" lon="3.60892">
        <ele>200</ele>
        <time>2022-05-12T06:59:43.387Z</time>
      </trkpt>
      <trkpt lat="43.72365" lon="3.60896">
        <ele>200</ele>
        <time>2022-05-12T06:59:44.150Z</time>
      </trkpt>
      <trkpt lat="43.72367" lon="3.60902">
        <ele>200</ele>
        <time>2022-05-12T06:59:45.023Z</time>
      </trkpt>
      <trkpt lat="43.72368" lon="3.60908">
        <ele>200</ele>
        <time>2022-05-12T06:59:45.837Z</time>
      </trkpt>
      <trkpt lat="43.72369" lon="3.60915">
        <ele>200</ele>
        <time>2022-05-12T06:59:46.781Z</time>
      </trkpt>
      <trkpt lat="43.72368" lon="3.60922">
        <ele>200</ele>
        <time>2022-05-12T06:59:47.724Z</time>
      </trkpt>
      <trkpt lat="43.72366" lon="3.60931">
        <ele>200</ele>
        <time>2022-05-12T06:59:48.969Z</time>
      </trkpt>
      <trkpt lat="43.72365" lon="3.60939">
        <ele>200</ele>
        <time>2022-05-12T06:59:50.043Z</time>
      </trkpt>
      <trkpt lat="43.72364" lon="3.60947">
        <ele>200</ele>
        <time>2022-05-12T06:59:51.116Z</time>
      </trkpt>
      <trkpt lat="43.72362" lon="3.60955">
        <ele>200</ele>
        <time>2022-05-12T06:59:52.235Z</time>
      </trkpt>
      <trkpt lat="43.72361" lon="3.60962">
        <ele>200</ele>
        <time>2022-05-12T06:59:53.179Z</time>
      </trkpt>
      <trkpt lat="43.72359" lon="3.6097">
        <ele>200</ele>
        <time>2022-05-12T06:59:54.298Z</time>
      </trkpt>
      <trkpt lat="43.72358" lon="3.60977">
        <ele>200</ele>
        <time>2022-05-12T06:59:55.242Z</time>
      </trkpt>
      <trkpt lat="43.72357" lon="3.60985">
        <ele>199</ele>
        <time>2022-05-12T06:59:55.764Z</time>
      </trkpt>
      <trkpt lat="43.72356" lon="3.60993">
        <ele>199</ele>
        <time>2022-05-12T06:59:56.837Z</time>
      </trkpt>
      <trkpt lat="43.72355" lon="3.61001">
        <ele>199</ele>
        <time>2022-05-12T06:59:57.911Z</time>
      </trkpt>
      <trkpt lat="43.72354" lon="3.61009">
        <ele>199</ele>
        <time>2022-05-12T06:59:58.984Z</time>
      </trkpt>
      <trkpt lat="43.72353" lon="3.61017">
        <ele>199</ele>
        <time>2022-05-12T07:00:00.058Z</time>
      </trkpt>
      <trkpt lat="43.72351" lon="3.61023">
        <ele>199</ele>
        <time>2022-05-12T07:00:00.932Z</time>
      </trkpt>
      <trkpt lat="43.7235" lon="3.61027">
        <ele>199</ele>
        <time>2022-05-12T07:00:01.491Z</time>
      </trkpt>
      <trkpt lat="43.72351" lon="3.61032">
        <ele>199</ele>
        <time>2022-05-12T07:00:02.177Z</time>
      </trkpt>
      <trkpt lat="43.72352" lon="3.61034">
        <ele>199</ele>
        <time>2022-05-12T07:00:02.499Z</time>
      </trkpt>
      <trkpt lat="43.72353" lon="3.61037">
        <ele>197</ele>
        <time>2022-05-12T07:00:02.711Z</time>
      </trkpt>
      <trkpt lat="43.72354" lon="3.61039">
        <ele>197</ele>
        <time>2022-05-12T07:00:03.033Z</time>
      </trkpt>
      <trkpt lat="43.72355" lon="3.61042">
        <ele>197</ele>
        <time>2022-05-12T07:00:03.470Z</time>
      </trkpt>
      <trkpt lat="43.72356" lon="3.61044">
        <ele>197</ele>
        <time>2022-05-12T07:00:03.791Z</time>
      </trkpt>
      <trkpt lat="43.72357" lon="3.61047">
        <ele>197</ele>
        <time>2022-05-12T07:00:04.228Z</time>
      </trkpt>
      <trkpt lat="43.72358" lon="3.6105">
        <ele>197</ele>
        <time>2022-05-12T07:00:04.665Z</time>
      </trkpt>
      <trkpt lat="43.72359" lon="3.61051">
        <ele>197</ele>
        <time>2022-05-12T07:00:04.891Z</time>
      </trkpt>
      <trkpt lat="43.7236" lon="3.61055">
        <ele>197</ele>
        <time>2022-05-12T07:00:05.450Z</time>
      </trkpt>
      <trkpt lat="43.72361" lon="3.61058">
        <ele>196</ele>
        <time>2022-05-12T07:00:05.663Z</time>
      </trkpt>
      <trkpt lat="43.72362" lon="3.61061">
        <ele>196</ele>
        <time>2022-05-12T07:00:06.100Z</time>
      </trkpt>
      <trkpt lat="43.72364" lon="3.61062">
        <ele>196</ele>
        <time>2022-05-12T07:00:06.489Z</time>
      </trkpt>
      <trkpt lat="43.72366" lon="3.61063">
        <ele>196</ele>
        <time>2022-05-12T07:00:06.878Z</time>
      </trkpt>
      <trkpt lat="43.72368" lon="3.61062">
        <ele>196</ele>
        <time>2022-05-12T07:00:07.267Z</time>
      </trkpt>
      <trkpt lat="43.7237" lon="3.61059">
        <ele>196</ele>
        <time>2022-05-12T07:00:07.806Z</time>
      </trkpt>
      <trkpt lat="43.72371" lon="3.61056">
        <ele>194</ele>
        <time>2022-05-12T07:00:08.019Z</time>
      </trkpt>
      <trkpt lat="43.72372" lon="3.61053">
        <ele>194</ele>
        <time>2022-05-12T07:00:08.456Z</time>
      </trkpt>
      <trkpt lat="43.72373" lon="3.61051">
        <ele>194</ele>
        <time>2022-05-12T07:00:08.777Z</time>
      </trkpt>
      <trkpt lat="43.72375" lon="3.61049">
        <ele>194</ele>
        <time>2022-05-12T07:00:09.229Z</time>
      </trkpt>
      <trkpt lat="43.72377" lon="3.61047">
        <ele>194</ele>
        <time>2022-05-12T07:00:09.680Z</time>
      </trkpt>
      <trkpt lat="43.72378" lon="3.61045">
        <ele>194</ele>
        <time>2022-05-12T07:00:10.002Z</time>
      </trkpt>
      <trkpt lat="43.72379" lon="3.61043">
        <ele>194</ele>
        <time>2022-05-12T07:00:10.323Z</time>
      </trkpt>
      <trkpt lat="43.7238" lon="3.6104">
        <ele>194</ele>
        <time>2022-05-12T07:00:10.760Z</time>
      </trkpt>
      <trkpt lat="43.72381" lon="3.61037">
        <ele>194</ele>
        <time>2022-05-12T07:00:11.197Z</time>
      </trkpt>
      <trkpt lat="43.7239" lon="3.61027">
        <ele>193</ele>
        <time>2022-05-12T07:00:12.225Z</time>
      </trkpt>
      <trkpt lat="43.72392" lon="3.61024">
        <ele>193</ele>
        <time>2022-05-12T07:00:12.764Z</time>
      </trkpt>
      <trkpt lat="43.72393" lon="3.61021">
        <ele>193</ele>
        <time>2022-05-12T07:00:13.201Z</time>
      </trkpt>
      <trkpt lat="43.72394" lon="3.61018">
        <ele>193</ele>
        <time>2022-05-12T07:00:13.638Z</time>
      </trkpt>
      <trkpt lat="43.72395" lon="3.61015">
        <ele>193</ele>
        <time>2022-05-12T07:00:14.075Z</time>
      </trkpt>
      <trkpt lat="43.72396" lon="3.61012">
        <ele>193</ele>
        <time>2022-05-12T07:00:14.512Z</time>
      </trkpt>
      <trkpt lat="43.72398" lon="3.61009">
        <ele>193</ele>
        <time>2022-05-12T07:00:15.051Z</time>
      </trkpt>
      <trkpt lat="43.72399" lon="3.61007">
        <ele>193</ele>
        <time>2022-05-12T07:00:15.373Z</time>
      </trkpt>
      <trkpt lat="43.724" lon="3.61005">
        <ele>192</ele>
        <time>2022-05-12T07:00:15.529Z</time>
      </trkpt>
      <trkpt lat="43.72402" lon="3.61">
        <ele>192</ele>
        <time>2022-05-12T07:00:16.285Z</time>
      </trkpt>
      <trkpt lat="43.72403" lon="3.60998">
        <ele>192</ele>
        <time>2022-05-12T07:00:16.607Z</time>
      </trkpt>
      <trkpt lat="43.72403" lon="3.60995">
        <ele>192</ele>
        <time>2022-05-12T07:00:17.003Z</time>
      </trkpt>
      <trkpt lat="43.72405" lon="3.60993">
        <ele>192</ele>
        <time>2022-05-12T07:00:17.455Z</time>
      </trkpt>
      <trkpt lat="43.72406" lon="3.6099">
        <ele>192</ele>
        <time>2022-05-12T07:00:17.891Z</time>
      </trkpt>
      <trkpt lat="43.72408" lon="3.60987">
        <ele>192</ele>
        <time>2022-05-12T07:00:18.431Z</time>
      </trkpt>
      <trkpt lat="43.72409" lon="3.60984">
        <ele>192</ele>
        <time>2022-05-12T07:00:18.868Z</time>
      </trkpt>
      <trkpt lat="43.7241" lon="3.60982">
        <ele>192</ele>
        <time>2022-05-12T07:00:19.190Z</time>
      </trkpt>
      <trkpt lat="43.72411" lon="3.60979">
        <ele>192</ele>
        <time>2022-05-12T07:00:19.626Z</time>
      </trkpt>
      <trkpt lat="43.72412" lon="3.60975">
        <ele>192</ele>
        <time>2022-05-12T07:00:20.186Z</time>
      </trkpt>
      <trkpt lat="43.72412" lon="3.60972">
        <ele>192</ele>
        <time>2022-05-12T07:00:20.583Z</time>
      </trkpt>
      <trkpt lat="43.72413" lon="3.6097">
        <ele>192</ele>
        <time>2022-05-12T07:00:20.904Z</time>
      </trkpt>
      <trkpt lat="43.72414" lon="3.60967">
        <ele>192</ele>
        <time>2022-05-12T07:00:21.341Z</time>
      </trkpt>
      <trkpt lat="43.72413" lon="3.60964">
        <ele>192</ele>
        <time>2022-05-12T07:00:21.778Z</time>
      </trkpt>
      <trkpt lat="43.72412" lon="3.60959">
        <ele>192</ele>
        <time>2022-05-12T07:00:22.464Z</time>
      </trkpt>
      <trkpt lat="43.72412" lon="3.60956">
        <ele>192</ele>
        <time>2022-05-12T07:00:22.860Z</time>
      </trkpt>
      <trkpt lat="43.72412" lon="3.60952">
        <ele>192</ele>
        <time>2022-05-12T07:00:23.389Z</time>
      </trkpt>
      <trkpt lat="43.72412" lon="3.6095">
        <ele>192</ele>
        <time>2022-05-12T07:00:23.654Z</time>
      </trkpt>
      <trkpt lat="43.72412" lon="3.60945">
        <ele>193</ele>
        <time>2022-05-12T07:00:26.204Z</time>
      </trkpt>
      <trkpt lat="43.72412" lon="3.60942">
        <ele>193</ele>
        <time>2022-05-12T07:00:26.600Z</time>
      </trkpt>
      <trkpt lat="43.72413" lon="3.6094">
        <ele>193</ele>
        <time>2022-05-12T07:00:26.922Z</time>
      </trkpt>
      <trkpt lat="43.72414" lon="3.60937">
        <ele>193</ele>
        <time>2022-05-12T07:00:27.359Z</time>
      </trkpt>
      <trkpt lat="43.72414" lon="3.60934">
        <ele>193</ele>
        <time>2022-05-12T07:00:27.755Z</time>
      </trkpt>
      <trkpt lat="43.72414" lon="3.60931">
        <ele>193</ele>
        <time>2022-05-12T07:00:28.152Z</time>
      </trkpt>
      <trkpt lat="43.72414" lon="3.60928">
        <ele>193</ele>
        <time>2022-05-12T07:00:28.549Z</time>
      </trkpt>
      <trkpt lat="43.72414" lon="3.60925">
        <ele>193</ele>
        <time>2022-05-12T07:00:28.945Z</time>
      </trkpt>
      <trkpt lat="43.72415" lon="3.60922">
        <ele>193</ele>
        <time>2022-05-12T07:00:29.382Z</time>
      </trkpt>
      <trkpt lat="43.72416" lon="3.60919">
        <ele>192</ele>
        <time>2022-05-12T07:00:29.595Z</time>
      </trkpt>
      <trkpt lat="43.72418" lon="3.60915">
        <ele>192</ele>
        <time>2022-05-12T07:00:30.238Z</time>
      </trkpt>
      <trkpt lat="43.72419" lon="3.60912">
        <ele>192</ele>
        <time>2022-05-12T07:00:30.675Z</time>
      </trkpt>
      <trkpt lat="43.7242" lon="3.60909">
        <ele>192</ele>
        <time>2022-05-12T07:00:31.111Z</time>
      </trkpt>
      <trkpt lat="43.7242" lon="3.60906">
        <ele>192</ele>
        <time>2022-05-12T07:00:31.508Z</time>
      </trkpt>
      <trkpt lat="43.7242" lon="3.60903">
        <ele>192</ele>
        <time>2022-05-12T07:00:31.905Z</time>
      </trkpt>
      <trkpt lat="43.7242" lon="3.609">
        <ele>192</ele>
        <time>2022-05-12T07:00:32.301Z</time>
      </trkpt>
      <trkpt lat="43.72421" lon="3.60896">
        <ele>192</ele>
        <time>2022-05-12T07:00:32.861Z</time>
      </trkpt>
      <trkpt lat="43.7242" lon="3.60893">
        <ele>192</ele>
        <time>2022-05-12T07:00:33.298Z</time>
      </trkpt>
      <trkpt lat="43.7242" lon="3.60889">
        <ele>192</ele>
        <time>2022-05-12T07:00:33.827Z</time>
      </trkpt>
      <trkpt lat="43.7242" lon="3.60885">
        <ele>193</ele>
        <time>2022-05-12T07:00:35.867Z</time>
      </trkpt>
      <trkpt lat="43.7242" lon="3.60881">
        <ele>193</ele>
        <time>2022-05-12T07:00:36.396Z</time>
      </trkpt>
      <trkpt lat="43.7242" lon="3.60878">
        <ele>193</ele>
        <time>2022-05-12T07:00:36.792Z</time>
      </trkpt>
      <trkpt lat="43.7242" lon="3.60874">
        <ele>193</ele>
        <time>2022-05-12T07:00:37.321Z</time>
      </trkpt>
      <trkpt lat="43.72421" lon="3.60871">
        <ele>193</ele>
        <time>2022-05-12T07:00:37.758Z</time>
      </trkpt>
      <trkpt lat="43.72422" lon="3.60867">
        <ele>193</ele>
        <time>2022-05-12T07:00:38.318Z</time>
      </trkpt>
      <trkpt lat="43.72421" lon="3.60864">
        <ele>193</ele>
        <time>2022-05-12T07:00:38.754Z</time>
      </trkpt>
      <trkpt lat="43.72415" lon="3.60853">
        <ele>193</ele>
        <time>2022-05-12T07:00:40.577Z</time>
      </trkpt>
      <trkpt lat="43.72413" lon="3.60851">
        <ele>193</ele>
        <time>2022-05-12T07:00:41.028Z</time>
      </trkpt>
      <trkpt lat="43.72411" lon="3.60848">
        <ele>193</ele>
        <time>2022-05-12T07:00:41.568Z</time>
      </trkpt>
      <trkpt lat="43.72409" lon="3.60845">
        <ele>193</ele>
        <time>2022-05-12T07:00:42.107Z</time>
      </trkpt>
      <trkpt lat="43.72406" lon="3.60843">
        <ele>193</ele>
        <time>2022-05-12T07:00:42.717Z</time>
      </trkpt>
      <trkpt lat="43.72404" lon="3.60842">
        <ele>193</ele>
        <time>2022-05-12T07:00:43.106Z</time>
      </trkpt>
      <trkpt lat="43.72402" lon="3.6084">
        <ele>193</ele>
        <time>2022-05-12T07:00:43.557Z</time>
      </trkpt>
      <trkpt lat="43.724" lon="3.60839">
        <ele>193</ele>
        <time>2022-05-12T07:00:43.946Z</time>
      </trkpt>
      <trkpt lat="43.72398" lon="3.60838">
        <ele>193</ele>
        <time>2022-05-12T07:00:44.335Z</time>
      </trkpt>
      <trkpt lat="43.72396" lon="3.60837">
        <ele>193</ele>
        <time>2022-05-12T07:00:44.724Z</time>
      </trkpt>
      <trkpt lat="43.72394" lon="3.60835">
        <ele>193</ele>
        <time>2022-05-12T07:00:45.176Z</time>
      </trkpt>
      <trkpt lat="43.72393" lon="3.60833">
        <ele>193</ele>
        <time>2022-05-12T07:00:45.497Z</time>
      </trkpt>
      <trkpt lat="43.72391" lon="3.60832">
        <ele>193</ele>
        <time>2022-05-12T07:00:45.887Z</time>
      </trkpt>
      <trkpt lat="43.72391" lon="3.60827">
        <ele>193</ele>
        <time>2022-05-12T07:00:46.548Z</time>
      </trkpt>
      <trkpt lat="43.72391" lon="3.60822">
        <ele>193</ele>
        <time>2022-05-12T07:00:47.209Z</time>
      </trkpt>
      <trkpt lat="43.72391" lon="3.60812">
        <ele>193</ele>
        <time>2022-05-12T07:00:48.531Z</time>
      </trkpt>
      <trkpt lat="43.72391" lon="3.60809">
        <ele>193</ele>
        <time>2022-05-12T07:00:48.928Z</time>
      </trkpt>
      <trkpt lat="43.7239" lon="3.60807">
        <ele>193</ele>
        <time>2022-05-12T07:00:49.249Z</time>
      </trkpt>
      <trkpt lat="43.72389" lon="3.60803">
        <ele>193</ele>
        <time>2022-05-12T07:00:49.809Z</time>
      </trkpt>
      <trkpt lat="43.72388" lon="3.608">
        <ele>193</ele>
        <time>2022-05-12T07:00:50.246Z</time>
      </trkpt>
      <trkpt lat="43.72387" lon="3.60797">
        <ele>193</ele>
        <time>2022-05-12T07:00:50.682Z</time>
      </trkpt>
      <trkpt lat="43.72387" lon="3.60793">
        <ele>193</ele>
        <time>2022-05-12T07:00:51.211Z</time>
      </trkpt>
      <trkpt lat="43.72387" lon="3.6079">
        <ele>193</ele>
        <time>2022-05-12T07:00:51.608Z</time>
      </trkpt>
      <trkpt lat="43.72388" lon="3.60787">
        <ele>193</ele>
        <time>2022-05-12T07:00:52.045Z</time>
      </trkpt>
      <trkpt lat="43.72389" lon="3.60784">
        <ele>193</ele>
        <time>2022-05-12T07:00:52.482Z</time>
      </trkpt>
      <trkpt lat="43.7239" lon="3.60781">
        <ele>193</ele>
        <time>2022-05-12T07:00:52.918Z</time>
      </trkpt>
      <trkpt lat="43.72392" lon="3.60779">
        <ele>193</ele>
        <time>2022-05-12T07:00:53.370Z</time>
      </trkpt>
      <trkpt lat="43.72395" lon="3.60777">
        <ele>193</ele>
        <time>2022-05-12T07:00:53.979Z</time>
      </trkpt>
      <trkpt lat="43.72397" lon="3.60775">
        <ele>193</ele>
        <time>2022-05-12T07:00:54.431Z</time>
      </trkpt>
      <trkpt lat="43.72399" lon="3.60774">
        <ele>193</ele>
        <time>2022-05-12T07:00:54.820Z</time>
      </trkpt>
      <trkpt lat="43.72401" lon="3.60773">
        <ele>193</ele>
        <time>2022-05-12T07:00:55.209Z</time>
      </trkpt>
      <trkpt lat="43.72403" lon="3.60773">
        <ele>193</ele>
        <time>2022-05-12T07:00:55.575Z</time>
      </trkpt>
      <trkpt lat="43.72405" lon="3.60773">
        <ele>193</ele>
        <time>2022-05-12T07:00:55.941Z</time>
      </trkpt>
      <trkpt lat="43.72407" lon="3.60773">
        <ele>193</ele>
        <time>2022-05-12T07:00:56.307Z</time>
      </trkpt>
      <trkpt lat="43.72409" lon="3.60773">
        <ele>193</ele>
        <time>2022-05-12T07:00:56.672Z</time>
      </trkpt>
      <trkpt lat="43.72411" lon="3.60774">
        <ele>194</ele>
        <time>2022-05-12T07:00:58.173Z</time>
      </trkpt>
      <trkpt lat="43.72413" lon="3.60774">
        <ele>194</ele>
        <time>2022-05-12T07:00:58.539Z</time>
      </trkpt>
      <trkpt lat="43.72415" lon="3.60774">
        <ele>194</ele>
        <time>2022-05-12T07:00:58.905Z</time>
      </trkpt>
      <trkpt lat="43.72417" lon="3.60774">
        <ele>194</ele>
        <time>2022-05-12T07:00:59.271Z</time>
      </trkpt>
      <trkpt lat="43.72419" lon="3.60773">
        <ele>194</ele>
        <time>2022-05-12T07:00:59.660Z</time>
      </trkpt>
      <trkpt lat="43.72421" lon="3.60771">
        <ele>194</ele>
        <time>2022-05-12T07:01:00.111Z</time>
      </trkpt>
      <trkpt lat="43.72424" lon="3.6077">
        <ele>194</ele>
        <time>2022-05-12T07:01:00.676Z</time>
      </trkpt>
      <trkpt lat="43.72426" lon="3.6077">
        <ele>194</ele>
        <time>2022-05-12T07:01:01.042Z</time>
      </trkpt>
      <trkpt lat="43.72429" lon="3.60768">
        <ele>194</ele>
        <time>2022-05-12T07:01:01.651Z</time>
      </trkpt>
      <trkpt lat="43.7243" lon="3.60766">
        <ele>194</ele>
        <time>2022-05-12T07:01:01.973Z</time>
      </trkpt>
      <trkpt lat="43.72432" lon="3.60765">
        <ele>194</ele>
        <time>2022-05-12T07:01:02.362Z</time>
      </trkpt>
      <trkpt lat="43.72434" lon="3.60763">
        <ele>194</ele>
        <time>2022-05-12T07:01:02.813Z</time>
      </trkpt>
      <trkpt lat="43.72437" lon="3.6076">
        <ele>194</ele>
        <time>2022-05-12T07:01:03.490Z</time>
      </trkpt>
      <trkpt lat="43.72438" lon="3.60759">
        <ele>194</ele>
        <time>2022-05-12T07:01:03.716Z</time>
      </trkpt>
      <trkpt lat="43.72441" lon="3.60757">
        <ele>194</ele>
        <time>2022-05-12T07:01:04.325Z</time>
      </trkpt>
      <trkpt lat="43.72443" lon="3.60754">
        <ele>194</ele>
        <time>2022-05-12T07:01:04.865Z</time>
      </trkpt>
      <trkpt lat="43.72444" lon="3.60752">
        <ele>194</ele>
        <time>2022-05-12T07:01:05.187Z</time>
      </trkpt>
      <trkpt lat="43.72444" lon="3.60747">
        <ele>195</ele>
        <time>2022-05-12T07:01:07.737Z</time>
      </trkpt>
      <trkpt lat="43.72443" lon="3.60744">
        <ele>195</ele>
        <time>2022-05-12T07:01:08.173Z</time>
      </trkpt>
      <trkpt lat="43.72442" lon="3.60739">
        <ele>195</ele>
        <time>2022-05-12T07:01:08.859Z</time>
      </trkpt>
      <trkpt lat="43.72442" lon="3.60735">
        <ele>195</ele>
        <time>2022-05-12T07:01:09.388Z</time>
      </trkpt>
      <trkpt lat="43.72443" lon="3.60732">
        <ele>195</ele>
        <time>2022-05-12T07:01:09.825Z</time>
      </trkpt>
      <trkpt lat="43.72445" lon="3.60728">
        <ele>195</ele>
        <time>2022-05-12T07:01:10.468Z</time>
      </trkpt>
      <trkpt lat="43.72446" lon="3.60724">
        <ele>195</ele>
        <time>2022-05-12T07:01:11.028Z</time>
      </trkpt>
      <trkpt lat="43.72448" lon="3.60721">
        <ele>195</ele>
        <time>2022-05-12T07:01:11.567Z</time>
      </trkpt>
      <trkpt lat="43.72451" lon="3.60719">
        <ele>195</ele>
        <time>2022-05-12T07:01:12.177Z</time>
      </trkpt>
      <trkpt lat="43.72453" lon="3.60716">
        <ele>195</ele>
        <time>2022-05-12T07:01:12.716Z</time>
      </trkpt>
      <trkpt lat="43.72455" lon="3.60713">
        <ele>195</ele>
        <time>2022-05-12T07:01:13.256Z</time>
      </trkpt>
      <trkpt lat="43.72457" lon="3.60709">
        <ele>195</ele>
        <time>2022-05-12T07:01:13.899Z</time>
      </trkpt>
      <trkpt lat="43.72459" lon="3.60705">
        <ele>195</ele>
        <time>2022-05-12T07:01:14.542Z</time>
      </trkpt>
      <trkpt lat="43.72461" lon="3.607">
        <ele>195</ele>
        <time>2022-05-12T07:01:15.298Z</time>
      </trkpt>
      <trkpt lat="43.72462" lon="3.60696">
        <ele>195</ele>
        <time>2022-05-12T07:01:15.858Z</time>
      </trkpt>
      <trkpt lat="43.72464" lon="3.60691">
        <ele>195</ele>
        <time>2022-05-12T07:01:16.613Z</time>
      </trkpt>
      <trkpt lat="43.72467" lon="3.60686">
        <ele>195</ele>
        <time>2022-05-12T07:01:17.472Z</time>
      </trkpt>
      <trkpt lat="43.72469" lon="3.60682">
        <ele>195</ele>
        <time>2022-05-12T07:01:18.115Z</time>
      </trkpt>
      <trkpt lat="43.72471" lon="3.60678">
        <ele>195</ele>
        <time>2022-05-12T07:01:18.759Z</time>
      </trkpt>
      <trkpt lat="43.72474" lon="3.60673">
        <ele>195</ele>
        <time>2022-05-12T07:01:19.618Z</time>
      </trkpt>
      <trkpt lat="43.72477" lon="3.60668">
        <ele>195</ele>
        <time>2022-05-12T07:01:20.477Z</time>
      </trkpt>
      <trkpt lat="43.7248" lon="3.60663">
        <ele>195</ele>
        <time>2022-05-12T07:01:21.336Z</time>
      </trkpt>
      <trkpt lat="43.72483" lon="3.60658">
        <ele>195</ele>
        <time>2022-05-12T07:01:22.196Z</time>
      </trkpt>
      <trkpt lat="43.72485" lon="3.60652">
        <ele>195</ele>
        <time>2022-05-12T07:01:23.069Z</time>
      </trkpt>
      <trkpt lat="43.72487" lon="3.60647">
        <ele>195</ele>
        <time>2022-05-12T07:01:23.825Z</time>
      </trkpt>
      <trkpt lat="43.7249" lon="3.60643">
        <ele>195</ele>
        <time>2022-05-12T07:01:24.587Z</time>
      </trkpt>
      <trkpt lat="43.72493" lon="3.60639">
        <ele>195</ele>
        <time>2022-05-12T07:01:25.349Z</time>
      </trkpt>
      <trkpt lat="43.72496" lon="3.60635">
        <ele>195</ele>
        <time>2022-05-12T07:01:26.111Z</time>
      </trkpt>
      <trkpt lat="43.725" lon="3.60632">
        <ele>195</ele>
        <time>2022-05-12T07:01:26.944Z</time>
      </trkpt>
      <trkpt lat="43.72505" lon="3.60631">
        <ele>195</ele>
        <time>2022-05-12T07:01:27.868Z</time>
      </trkpt>
      <trkpt lat="43.72509" lon="3.6063">
        <ele>195</ele>
        <time>2022-05-12T07:01:28.612Z</time>
      </trkpt>
      <trkpt lat="43.72513" lon="3.60629">
        <ele>195</ele>
        <time>2022-05-12T07:01:29.356Z</time>
      </trkpt>
      <trkpt lat="43.72516" lon="3.60627">
        <ele>195</ele>
        <time>2022-05-12T07:01:29.965Z</time>
      </trkpt>
      <trkpt lat="43.72518" lon="3.60624">
        <ele>195</ele>
        <time>2022-05-12T07:01:30.504Z</time>
      </trkpt>
      <trkpt lat="43.72519" lon="3.6062">
        <ele>195</ele>
        <time>2022-05-12T07:01:31.064Z</time>
      </trkpt>
      <trkpt lat="43.72519" lon="3.60616">
        <ele>195</ele>
        <time>2022-05-12T07:01:31.593Z</time>
      </trkpt>
      <trkpt lat="43.72519" lon="3.60612">
        <ele>195</ele>
        <time>2022-05-12T07:01:32.122Z</time>
      </trkpt>
      <trkpt lat="43.72519" lon="3.60608">
        <ele>195</ele>
        <time>2022-05-12T07:01:32.651Z</time>
      </trkpt>
      <trkpt lat="43.72519" lon="3.60603">
        <ele>195</ele>
        <time>2022-05-12T07:01:33.312Z</time>
      </trkpt>
      <trkpt lat="43.7252" lon="3.60599">
        <ele>195</ele>
        <time>2022-05-12T07:01:33.871Z</time>
      </trkpt>
      <trkpt lat="43.72521" lon="3.60595">
        <ele>195</ele>
        <time>2022-05-12T07:01:34.431Z</time>
      </trkpt>
      <trkpt lat="43.72524" lon="3.60593">
        <ele>195</ele>
        <time>2022-05-12T07:01:35.040Z</time>
      </trkpt>
      <trkpt lat="43.72527" lon="3.6059">
        <ele>195</ele>
        <time>2022-05-12T07:01:35.717Z</time>
      </trkpt>
      <trkpt lat="43.72529" lon="3.60587">
        <ele>195</ele>
        <time>2022-05-12T07:01:36.257Z</time>
      </trkpt>
      <trkpt lat="43.72532" lon="3.60585">
        <ele>195</ele>
        <time>2022-05-12T07:01:36.866Z</time>
      </trkpt>
      <trkpt lat="43.72533" lon="3.60582">
        <ele>195</ele>
        <time>2022-05-12T07:01:37.303Z</time>
      </trkpt>
      <trkpt lat="43.72535" lon="3.60578">
        <ele>195</ele>
        <time>2022-05-12T07:01:37.946Z</time>
      </trkpt>
      <trkpt lat="43.72537" lon="3.60575">
        <ele>195</ele>
        <time>2022-05-12T07:01:38.486Z</time>
      </trkpt>
      <trkpt lat="43.72538" lon="3.60572">
        <ele>195</ele>
        <time>2022-05-12T07:01:38.923Z</time>
      </trkpt>
      <trkpt lat="43.7254" lon="3.60568">
        <ele>196</ele>
        <time>2022-05-12T07:01:41.403Z</time>
      </trkpt>
      <trkpt lat="43.72542" lon="3.60565">
        <ele>196</ele>
        <time>2022-05-12T07:01:41.943Z</time>
      </trkpt>
      <trkpt lat="43.72544" lon="3.60563">
        <ele>196</ele>
        <time>2022-05-12T07:01:42.394Z</time>
      </trkpt>
      <trkpt lat="43.72547" lon="3.60561">
        <ele>196</ele>
        <time>2022-05-12T07:01:43.004Z</time>
      </trkpt>
      <trkpt lat="43.72549" lon="3.60559">
        <ele>196</ele>
        <time>2022-05-12T07:01:43.455Z</time>
      </trkpt>
      <trkpt lat="43.72552" lon="3.60557">
        <ele>196</ele>
        <time>2022-05-12T07:01:44.064Z</time>
      </trkpt>
      <trkpt lat="43.72555" lon="3.60555">
        <ele>196</ele>
        <time>2022-05-12T07:01:44.674Z</time>
      </trkpt>
      <trkpt lat="43.72557" lon="3.60552">
        <ele>196</ele>
        <time>2022-05-12T07:01:45.213Z</time>
      </trkpt>
      <trkpt lat="43.7256" lon="3.60549">
        <ele>196</ele>
        <time>2022-05-12T07:01:45.890Z</time>
      </trkpt>
      <trkpt lat="43.72562" lon="3.60546">
        <ele>196</ele>
        <time>2022-05-12T07:01:46.430Z</time>
      </trkpt>
      <trkpt lat="43.72565" lon="3.60544">
        <ele>196</ele>
        <time>2022-05-12T07:01:47.039Z</time>
      </trkpt>
      <trkpt lat="43.72568" lon="3.60541">
        <ele>196</ele>
        <time>2022-05-12T07:01:47.717Z</time>
      </trkpt>
      <trkpt lat="43.72571" lon="3.60538">
        <ele>196</ele>
        <time>2022-05-12T07:01:48.394Z</time>
      </trkpt>
      <trkpt lat="43.72575" lon="3.60535">
        <ele>196</ele>
        <time>2022-05-12T07:01:49.226Z</time>
      </trkpt>
      <trkpt lat="43.72578" lon="3.60532">
        <ele>196</ele>
        <time>2022-05-12T07:01:49.903Z</time>
      </trkpt>
      <trkpt lat="43.72582" lon="3.60528">
        <ele>196</ele>
        <time>2022-05-12T07:01:50.806Z</time>
      </trkpt>
      <trkpt lat="43.72585" lon="3.60526">
        <ele>196</ele>
        <time>2022-05-12T07:01:51.416Z</time>
      </trkpt>
      <trkpt lat="43.72586" lon="3.60525">
        <ele>196</ele>
        <time>2022-05-12T07:01:51.641Z</time>
      </trkpt>
      <trkpt lat="43.72589" lon="3.60525">
        <ele>196</ele>
        <time>2022-05-12T07:01:52.190Z</time>
      </trkpt>
      <trkpt lat="43.72591" lon="3.60527">
        <ele>196</ele>
        <time>2022-05-12T07:01:52.642Z</time>
      </trkpt>
      <trkpt lat="43.72593" lon="3.60527">
        <ele>196</ele>
        <time>2022-05-12T07:01:53.008Z</time>
      </trkpt>
      <trkpt lat="43.72595" lon="3.60526">
        <ele>197</ele>
        <time>2022-05-12T07:01:54.508Z</time>
      </trkpt>
      <trkpt lat="43.72596" lon="3.60524">
        <ele>197</ele>
        <time>2022-05-12T07:01:54.830Z</time>
      </trkpt>
      <trkpt lat="43.72597" lon="3.6052">
        <ele>197</ele>
        <time>2022-05-12T07:01:55.389Z</time>
      </trkpt>
      <trkpt lat="43.72599" lon="3.60516">
        <ele>197</ele>
        <time>2022-05-12T07:01:56.033Z</time>
      </trkpt>
      <trkpt lat="43.72601" lon="3.60512">
        <ele>197</ele>
        <time>2022-05-12T07:01:56.676Z</time>
      </trkpt>
      <trkpt lat="43.72604" lon="3.60509">
        <ele>197</ele>
        <time>2022-05-12T07:01:57.353Z</time>
      </trkpt>
      <trkpt lat="43.72606" lon="3.60506">
        <ele>197</ele>
        <time>2022-05-12T07:01:57.892Z</time>
      </trkpt>
      <trkpt lat="43.72609" lon="3.60503">
        <ele>197</ele>
        <time>2022-05-12T07:01:58.570Z</time>
      </trkpt>
      <trkpt lat="43.72611" lon="3.60501">
        <ele>197</ele>
        <time>2022-05-12T07:01:59.021Z</time>
      </trkpt>
      <trkpt lat="43.72613" lon="3.60497">
        <ele>198</ele>
        <time>2022-05-12T07:02:01.502Z</time>
      </trkpt>
      <trkpt lat="43.72616" lon="3.60494">
        <ele>198</ele>
        <time>2022-05-12T07:02:02.179Z</time>
      </trkpt>
      <trkpt lat="43.72619" lon="3.60493">
        <ele>198</ele>
        <time>2022-05-12T07:02:02.743Z</time>
      </trkpt>
      <trkpt lat="43.72623" lon="3.60492">
        <ele>198</ele>
        <time>2022-05-12T07:02:03.487Z</time>
      </trkpt>
      <trkpt lat="43.72626" lon="3.60491">
        <ele>198</ele>
        <time>2022-05-12T07:02:04.052Z</time>
      </trkpt>
      <trkpt lat="43.72628" lon="3.60489">
        <ele>198</ele>
        <time>2022-05-12T07:02:04.503Z</time>
      </trkpt>
      <trkpt lat="43.72631" lon="3.60487">
        <ele>198</ele>
        <time>2022-05-12T07:02:05.112Z</time>
      </trkpt>
      <trkpt lat="43.72634" lon="3.60485">
        <ele>198</ele>
        <time>2022-05-12T07:02:05.722Z</time>
      </trkpt>
      <trkpt lat="43.72637" lon="3.60485">
        <ele>198</ele>
        <time>2022-05-12T07:02:06.271Z</time>
      </trkpt>
      <trkpt lat="43.7264" lon="3.60484">
        <ele>198</ele>
        <time>2022-05-12T07:02:06.835Z</time>
      </trkpt>
      <trkpt lat="43.72643" lon="3.60483">
        <ele>199</ele>
        <time>2022-05-12T07:02:09.013Z</time>
      </trkpt>
      <trkpt lat="43.72646" lon="3.60483">
        <ele>199</ele>
        <time>2022-05-12T07:02:09.562Z</time>
      </trkpt>
      <trkpt lat="43.72648" lon="3.60482">
        <ele>199</ele>
        <time>2022-05-12T07:02:09.951Z</time>
      </trkpt>
      <trkpt lat="43.72651" lon="3.60481">
        <ele>199</ele>
        <time>2022-05-12T07:02:10.515Z</time>
      </trkpt>
      <trkpt lat="43.72654" lon="3.60479">
        <ele>199</ele>
        <time>2022-05-12T07:02:11.125Z</time>
      </trkpt>
      <trkpt lat="43.72658" lon="3.60477">
        <ele>199</ele>
        <time>2022-05-12T07:02:11.903Z</time>
      </trkpt>
      <trkpt lat="43.72661" lon="3.60475">
        <ele>199</ele>
        <time>2022-05-12T07:02:12.512Z</time>
      </trkpt>
      <trkpt lat="43.72664" lon="3.60475">
        <ele>199</ele>
        <time>2022-05-12T07:02:13.061Z</time>
      </trkpt>
      <trkpt lat="43.72667" lon="3.60475">
        <ele>199</ele>
        <time>2022-05-12T07:02:13.610Z</time>
      </trkpt>
      <trkpt lat="43.7267" lon="3.60474">
        <ele>199</ele>
        <time>2022-05-12T07:02:14.174Z</time>
      </trkpt>
      <trkpt lat="43.72672" lon="3.60472">
        <ele>200</ele>
        <time>2022-05-12T07:02:15.916Z</time>
      </trkpt>
      <trkpt lat="43.72675" lon="3.6047">
        <ele>200</ele>
        <time>2022-05-12T07:02:16.525Z</time>
      </trkpt>
      <trkpt lat="43.72677" lon="3.60467">
        <ele>200</ele>
        <time>2022-05-12T07:02:17.065Z</time>
      </trkpt>
      <trkpt lat="43.72679" lon="3.60465">
        <ele>200</ele>
        <time>2022-05-12T07:02:17.516Z</time>
      </trkpt>
      <trkpt lat="43.72682" lon="3.60462">
        <ele>200</ele>
        <time>2022-05-12T07:02:18.193Z</time>
      </trkpt>
      <trkpt lat="43.72684" lon="3.6046">
        <ele>200</ele>
        <time>2022-05-12T07:02:18.645Z</time>
      </trkpt>
      <trkpt lat="43.72686" lon="3.60457">
        <ele>200</ele>
        <time>2022-05-12T07:02:19.184Z</time>
      </trkpt>
      <trkpt lat="43.72687" lon="3.60454">
        <ele>200</ele>
        <time>2022-05-12T07:02:19.621Z</time>
      </trkpt>
      <trkpt lat="43.72689" lon="3.60451">
        <ele>200</ele>
        <time>2022-05-12T07:02:20.161Z</time>
      </trkpt>
      <trkpt lat="43.72691" lon="3.60448">
        <ele>200</ele>
        <time>2022-05-12T07:02:20.700Z</time>
      </trkpt>
      <trkpt lat="43.72692" lon="3.60444">
        <ele>201</ele>
        <time>2022-05-12T07:02:22.859Z</time>
      </trkpt>
      <trkpt lat="43.72693" lon="3.60441">
        <ele>201</ele>
        <time>2022-05-12T07:02:23.296Z</time>
      </trkpt>
      <trkpt lat="43.72694" lon="3.60437">
        <ele>201</ele>
        <time>2022-05-12T07:02:23.855Z</time>
      </trkpt>
      <trkpt lat="43.72695" lon="3.60433">
        <ele>201</ele>
        <time>2022-05-12T07:02:24.415Z</time>
      </trkpt>
      <trkpt lat="43.72697" lon="3.6043">
        <ele>201</ele>
        <time>2022-05-12T07:02:24.955Z</time>
      </trkpt>
      <trkpt lat="43.72698" lon="3.60426">
        <ele>201</ele>
        <time>2022-05-12T07:02:25.514Z</time>
      </trkpt>
      <trkpt lat="43.727" lon="3.60423">
        <ele>201</ele>
        <time>2022-05-12T07:02:26.054Z</time>
      </trkpt>
      <trkpt lat="43.72702" lon="3.60419">
        <ele>201</ele>
        <time>2022-05-12T07:02:26.697Z</time>
      </trkpt>
      <trkpt lat="43.72703" lon="3.60415">
        <ele>201</ele>
        <time>2022-05-12T07:02:27.256Z</time>
      </trkpt>
      <trkpt lat="43.72705" lon="3.60411">
        <ele>201</ele>
        <time>2022-05-12T07:02:27.900Z</time>
      </trkpt>
      <trkpt lat="43.72706" lon="3.60407">
        <ele>201</ele>
        <time>2022-05-12T07:02:28.459Z</time>
      </trkpt>
      <trkpt lat="43.72709" lon="3.60402">
        <ele>202</ele>
        <time>2022-05-12T07:02:31.773Z</time>
      </trkpt>
      <trkpt lat="43.72712" lon="3.60399">
        <ele>202</ele>
        <time>2022-05-12T07:02:32.451Z</time>
      </trkpt>
      <trkpt lat="43.72714" lon="3.60396">
        <ele>202</ele>
        <time>2022-05-12T07:02:32.990Z</time>
      </trkpt>
      <trkpt lat="43.72715" lon="3.60393">
        <ele>202</ele>
        <time>2022-05-12T07:02:33.427Z</time>
      </trkpt>
      <trkpt lat="43.72718" lon="3.6039">
        <ele>202</ele>
        <time>2022-05-12T07:02:34.104Z</time>
      </trkpt>
      <trkpt lat="43.72719" lon="3.60387">
        <ele>202</ele>
        <time>2022-05-12T07:02:34.541Z</time>
      </trkpt>
      <trkpt lat="43.72725" lon="3.60385">
        <ele>202</ele>
        <time>2022-05-12T07:02:35.670Z</time>
      </trkpt>
      <trkpt lat="43.72727" lon="3.60386">
        <ele>203</ele>
        <time>2022-05-12T07:02:37.171Z</time>
      </trkpt>
      <trkpt lat="43.72729" lon="3.60386">
        <ele>203</ele>
        <time>2022-05-12T07:02:37.537Z</time>
      </trkpt>
      <trkpt lat="43.72732" lon="3.60386">
        <ele>203</ele>
        <time>2022-05-12T07:02:38.086Z</time>
      </trkpt>
      <trkpt lat="43.72734" lon="3.60385">
        <ele>203</ele>
        <time>2022-05-12T07:02:38.475Z</time>
      </trkpt>
      <trkpt lat="43.72736" lon="3.60383">
        <ele>203</ele>
        <time>2022-05-12T07:02:38.926Z</time>
      </trkpt>
      <trkpt lat="43.72738" lon="3.60381">
        <ele>203</ele>
        <time>2022-05-12T07:02:39.378Z</time>
      </trkpt>
      <trkpt lat="43.72741" lon="3.60378">
        <ele>203</ele>
        <time>2022-05-12T07:02:40.055Z</time>
      </trkpt>
      <trkpt lat="43.72742" lon="3.60375">
        <ele>203</ele>
        <time>2022-05-12T07:02:40.492Z</time>
      </trkpt>
      <trkpt lat="43.72743" lon="3.60371">
        <ele>203</ele>
        <time>2022-05-12T07:02:41.051Z</time>
      </trkpt>
      <trkpt lat="43.72743" lon="3.60368">
        <ele>203</ele>
        <time>2022-05-12T07:02:41.448Z</time>
      </trkpt>
      <trkpt lat="43.72743" lon="3.60364">
        <ele>204</ele>
        <time>2022-05-12T07:02:43.488Z</time>
      </trkpt>
      <trkpt lat="43.72742" lon="3.6036">
        <ele>204</ele>
        <time>2022-05-12T07:02:44.047Z</time>
      </trkpt>
      <trkpt lat="43.72743" lon="3.60357">
        <ele>204</ele>
        <time>2022-05-12T07:02:44.484Z</time>
      </trkpt>
      <trkpt lat="43.72745" lon="3.60354">
        <ele>204</ele>
        <time>2022-05-12T07:02:45.024Z</time>
      </trkpt>
      <trkpt lat="43.72746" lon="3.60352">
        <ele>204</ele>
        <time>2022-05-12T07:02:45.345Z</time>
      </trkpt>
      <trkpt lat="43.72748" lon="3.60349">
        <ele>204</ele>
        <time>2022-05-12T07:02:45.885Z</time>
      </trkpt>
      <trkpt lat="43.7275" lon="3.60347">
        <ele>204</ele>
        <time>2022-05-12T07:02:46.336Z</time>
      </trkpt>
      <trkpt lat="43.72752" lon="3.60346">
        <ele>204</ele>
        <time>2022-05-12T07:02:46.725Z</time>
      </trkpt>
      <trkpt lat="43.72757" lon="3.60346">
        <ele>204</ele>
        <time>2022-05-12T07:02:47.640Z</time>
      </trkpt>
      <trkpt lat="43.7276" lon="3.60346">
        <ele>204</ele>
        <time>2022-05-12T07:02:48.189Z</time>
      </trkpt>
      <trkpt lat="43.72764" lon="3.60345">
        <ele>204</ele>
        <time>2022-05-12T07:02:48.933Z</time>
      </trkpt>
      <trkpt lat="43.72767" lon="3.60344">
        <ele>204</ele>
        <time>2022-05-12T07:02:49.497Z</time>
      </trkpt>
      <trkpt lat="43.7277" lon="3.60343">
        <ele>204</ele>
        <time>2022-05-12T07:02:50.062Z</time>
      </trkpt>
      <trkpt lat="43.72774" lon="3.60341">
        <ele>204</ele>
        <time>2022-05-12T07:02:50.840Z</time>
      </trkpt>
      <trkpt lat="43.72778" lon="3.60339">
        <ele>204</ele>
        <time>2022-05-12T07:02:51.618Z</time>
      </trkpt>
      <trkpt lat="43.72781" lon="3.60337">
        <ele>204</ele>
        <time>2022-05-12T07:02:52.227Z</time>
      </trkpt>
      <trkpt lat="43.72784" lon="3.60336">
        <ele>204</ele>
        <time>2022-05-12T07:02:52.792Z</time>
      </trkpt>
      <trkpt lat="43.72787" lon="3.60334">
        <ele>204</ele>
        <time>2022-05-12T07:02:53.401Z</time>
      </trkpt>
      <trkpt lat="43.72789" lon="3.60331">
        <ele>204</ele>
        <time>2022-05-12T07:02:53.941Z</time>
      </trkpt>
      <trkpt lat="43.72791" lon="3.60329">
        <ele>205</ele>
        <time>2022-05-12T07:02:55.682Z</time>
      </trkpt>
      <trkpt lat="43.72793" lon="3.60327">
        <ele>205</ele>
        <time>2022-05-12T07:02:56.134Z</time>
      </trkpt>
      <trkpt lat="43.72796" lon="3.60325">
        <ele>205</ele>
        <time>2022-05-12T07:02:56.743Z</time>
      </trkpt>
      <trkpt lat="43.72798" lon="3.60323">
        <ele>205</ele>
        <time>2022-05-12T07:02:57.194Z</time>
      </trkpt>
      <trkpt lat="43.728" lon="3.60321">
        <ele>205</ele>
        <time>2022-05-12T07:02:57.646Z</time>
      </trkpt>
      <trkpt lat="43.72802" lon="3.6032">
        <ele>205</ele>
        <time>2022-05-12T07:02:58.035Z</time>
      </trkpt>
      <trkpt lat="43.72805" lon="3.60318">
        <ele>205</ele>
        <time>2022-05-12T07:02:58.644Z</time>
      </trkpt>
      <trkpt lat="43.72807" lon="3.60317">
        <ele>205</ele>
        <time>2022-05-12T07:02:59.033Z</time>
      </trkpt>
      <trkpt lat="43.7281" lon="3.60316">
        <ele>205</ele>
        <time>2022-05-12T07:02:59.598Z</time>
      </trkpt>
      <trkpt lat="43.72813" lon="3.60315">
        <ele>206</ele>
        <time>2022-05-12T07:03:01.775Z</time>
      </trkpt>
      <trkpt lat="43.72815" lon="3.60315">
        <ele>206</ele>
        <time>2022-05-12T07:03:02.141Z</time>
      </trkpt>
      <trkpt lat="43.72818" lon="3.60315">
        <ele>206</ele>
        <time>2022-05-12T07:03:02.690Z</time>
      </trkpt>
      <trkpt lat="43.72821" lon="3.60315">
        <ele>206</ele>
        <time>2022-05-12T07:03:03.239Z</time>
      </trkpt>
      <trkpt lat="43.72824" lon="3.60315">
        <ele>206</ele>
        <time>2022-05-12T07:03:03.788Z</time>
      </trkpt>
      <trkpt lat="43.72827" lon="3.60314">
        <ele>206</ele>
        <time>2022-05-12T07:03:04.353Z</time>
      </trkpt>
      <trkpt lat="43.7283" lon="3.60314">
        <ele>206</ele>
        <time>2022-05-12T07:03:04.901Z</time>
      </trkpt>
      <trkpt lat="43.72833" lon="3.60313">
        <ele>206</ele>
        <time>2022-05-12T07:03:05.466Z</time>
      </trkpt>
      <trkpt lat="43.72836" lon="3.60312">
        <ele>206</ele>
        <time>2022-05-12T07:03:06.031Z</time>
      </trkpt>
      <trkpt lat="43.7284" lon="3.60311">
        <ele>206</ele>
        <time>2022-05-12T07:03:06.774Z</time>
      </trkpt>
      <trkpt lat="43.72843" lon="3.6031">
        <ele>206</ele>
        <time>2022-05-12T07:03:07.339Z</time>
      </trkpt>
      <trkpt lat="43.72847" lon="3.6031">
        <ele>206</ele>
        <time>2022-05-12T07:03:08.071Z</time>
      </trkpt>
      <trkpt lat="43.72851" lon="3.6031">
        <ele>206</ele>
        <time>2022-05-12T07:03:08.803Z</time>
      </trkpt>
      <trkpt lat="43.72854" lon="3.6031">
        <ele>206</ele>
        <time>2022-05-12T07:03:09.351Z</time>
      </trkpt>
      <trkpt lat="43.72857" lon="3.60311">
        <ele>206</ele>
        <time>2022-05-12T07:03:09.916Z</time>
      </trkpt>
      <trkpt lat="43.7286" lon="3.60311">
        <ele>206</ele>
        <time>2022-05-12T07:03:10.465Z</time>
      </trkpt>
      <trkpt lat="43.72863" lon="3.60312">
        <ele>206</ele>
        <time>2022-05-12T07:03:11.029Z</time>
      </trkpt>
      <trkpt lat="43.72866" lon="3.60314">
        <ele>206</ele>
        <time>2022-05-12T07:03:11.639Z</time>
      </trkpt>
      <trkpt lat="43.72868" lon="3.60316">
        <ele>206</ele>
        <time>2022-05-12T07:03:12.090Z</time>
      </trkpt>
      <trkpt lat="43.72871" lon="3.60318">
        <ele>206</ele>
        <time>2022-05-12T07:03:12.699Z</time>
      </trkpt>
      <trkpt lat="43.72873" lon="3.6032">
        <ele>207</ele>
        <time>2022-05-12T07:03:14.441Z</time>
      </trkpt>
      <trkpt lat="43.72875" lon="3.60321">
        <ele>207</ele>
        <time>2022-05-12T07:03:14.830Z</time>
      </trkpt>
      <trkpt lat="43.72878" lon="3.60321">
        <ele>207</ele>
        <time>2022-05-12T07:03:15.379Z</time>
      </trkpt>
      <trkpt lat="43.72881" lon="3.60322">
        <ele>207</ele>
        <time>2022-05-12T07:03:15.943Z</time>
      </trkpt>
      <trkpt lat="43.72883" lon="3.60322">
        <ele>207</ele>
        <time>2022-05-12T07:03:16.309Z</time>
      </trkpt>
      <trkpt lat="43.72886" lon="3.60324">
        <ele>207</ele>
        <time>2022-05-12T07:03:16.918Z</time>
      </trkpt>
      <trkpt lat="43.72888" lon="3.60327">
        <ele>207</ele>
        <time>2022-05-12T07:03:17.458Z</time>
      </trkpt>
      <trkpt lat="43.72889" lon="3.60331">
        <ele>207</ele>
        <time>2022-05-12T07:03:18.018Z</time>
      </trkpt>
      <trkpt lat="43.72891" lon="3.60334">
        <ele>207</ele>
        <time>2022-05-12T07:03:18.557Z</time>
      </trkpt>
      <trkpt lat="43.72893" lon="3.60338">
        <ele>207</ele>
        <time>2022-05-12T07:03:19.200Z</time>
      </trkpt>
      <trkpt lat="43.72895" lon="3.60341">
        <ele>207</ele>
        <time>2022-05-12T07:03:19.740Z</time>
      </trkpt>
      <trkpt lat="43.72897" lon="3.60345">
        <ele>207</ele>
        <time>2022-05-12T07:03:20.383Z</time>
      </trkpt>
      <trkpt lat="43.72898" lon="3.60349">
        <ele>207</ele>
        <time>2022-05-12T07:03:20.943Z</time>
      </trkpt>
      <trkpt lat="43.72899" lon="3.60353">
        <ele>207</ele>
        <time>2022-05-12T07:03:21.502Z</time>
      </trkpt>
      <trkpt lat="43.72901" lon="3.60356">
        <ele>207</ele>
        <time>2022-05-12T07:03:22.042Z</time>
      </trkpt>
      <trkpt lat="43.72903" lon="3.6036">
        <ele>207</ele>
        <time>2022-05-12T07:03:22.685Z</time>
      </trkpt>
      <trkpt lat="43.72904" lon="3.60364">
        <ele>207</ele>
        <time>2022-05-12T07:03:23.245Z</time>
      </trkpt>
      <trkpt lat="43.72906" lon="3.60369">
        <ele>207</ele>
        <time>2022-05-12T07:03:24.000Z</time>
      </trkpt>
      <trkpt lat="43.72908" lon="3.60373">
        <ele>207</ele>
        <time>2022-05-12T07:03:24.643Z</time>
      </trkpt>
      <trkpt lat="43.7291" lon="3.60376">
        <ele>207</ele>
        <time>2022-05-12T07:03:25.183Z</time>
      </trkpt>
      <trkpt lat="43.72911" lon="3.6038">
        <ele>207</ele>
        <time>2022-05-12T07:03:25.742Z</time>
      </trkpt>
      <trkpt lat="43.72912" lon="3.60383">
        <ele>208</ele>
        <time>2022-05-12T07:03:27.427Z</time>
      </trkpt>
      <trkpt lat="43.72913" lon="3.60386">
        <ele>208</ele>
        <time>2022-05-12T07:03:27.864Z</time>
      </trkpt>
      <trkpt lat="43.72914" lon="3.60389">
        <ele>208</ele>
        <time>2022-05-12T07:03:28.301Z</time>
      </trkpt>
      <trkpt lat="43.72916" lon="3.60392">
        <ele>208</ele>
        <time>2022-05-12T07:03:28.840Z</time>
      </trkpt>
      <trkpt lat="43.72917" lon="3.60394">
        <ele>208</ele>
        <time>2022-05-12T07:03:29.162Z</time>
      </trkpt>
      <trkpt lat="43.72918" lon="3.60397">
        <ele>208</ele>
        <time>2022-05-12T07:03:29.599Z</time>
      </trkpt>
      <trkpt lat="43.72919" lon="3.604">
        <ele>208</ele>
        <time>2022-05-12T07:03:30.035Z</time>
      </trkpt>
      <trkpt lat="43.7292" lon="3.60403">
        <ele>208</ele>
        <time>2022-05-12T07:03:30.472Z</time>
      </trkpt>
      <trkpt lat="43.72921" lon="3.60406">
        <ele>208</ele>
        <time>2022-05-12T07:03:30.909Z</time>
      </trkpt>
      <trkpt lat="43.72921" lon="3.6041">
        <ele>208</ele>
        <time>2022-05-12T07:03:31.438Z</time>
      </trkpt>
      <trkpt lat="43.72921" lon="3.60414">
        <ele>209</ele>
        <time>2022-05-12T07:03:33.478Z</time>
      </trkpt>
      <trkpt lat="43.72921" lon="3.60417">
        <ele>209</ele>
        <time>2022-05-12T07:03:33.874Z</time>
      </trkpt>
      <trkpt lat="43.72922" lon="3.6042">
        <ele>209</ele>
        <time>2022-05-12T07:03:34.311Z</time>
      </trkpt>
      <trkpt lat="43.72922" lon="3.60423">
        <ele>209</ele>
        <time>2022-05-12T07:03:34.708Z</time>
      </trkpt>
      <trkpt lat="43.72922" lon="3.60426">
        <ele>209</ele>
        <time>2022-05-12T07:03:35.104Z</time>
      </trkpt>
      <trkpt lat="43.72922" lon="3.6043">
        <ele>209</ele>
        <time>2022-05-12T07:03:35.633Z</time>
      </trkpt>
      <trkpt lat="43.72923" lon="3.60433">
        <ele>209</ele>
        <time>2022-05-12T07:03:36.070Z</time>
      </trkpt>
      <trkpt lat="43.72923" lon="3.60437">
        <ele>209</ele>
        <time>2022-05-12T07:03:36.599Z</time>
      </trkpt>
      <trkpt lat="43.72923" lon="3.6044">
        <ele>209</ele>
        <time>2022-05-12T07:03:36.995Z</time>
      </trkpt>
      <trkpt lat="43.72924" lon="3.60443">
        <ele>210</ele>
        <time>2022-05-12T07:03:38.680Z</time>
      </trkpt>
      <trkpt lat="43.72924" lon="3.60446">
        <ele>210</ele>
        <time>2022-05-12T07:03:39.077Z</time>
      </trkpt>
      <trkpt lat="43.72925" lon="3.6045">
        <ele>210</ele>
        <time>2022-05-12T07:03:39.636Z</time>
      </trkpt>
      <trkpt lat="43.72925" lon="3.60453">
        <ele>210</ele>
        <time>2022-05-12T07:03:40.033Z</time>
      </trkpt>
      <trkpt lat="43.72925" lon="3.60457">
        <ele>210</ele>
        <time>2022-05-12T07:03:40.562Z</time>
      </trkpt>
      <trkpt lat="43.72925" lon="3.6046">
        <ele>210</ele>
        <time>2022-05-12T07:03:40.958Z</time>
      </trkpt>
      <trkpt lat="43.72926" lon="3.60463">
        <ele>210</ele>
        <time>2022-05-12T07:03:41.395Z</time>
      </trkpt>
      <trkpt lat="43.72928" lon="3.60466">
        <ele>210</ele>
        <time>2022-05-12T07:03:41.935Z</time>
      </trkpt>
      <trkpt lat="43.72929" lon="3.60469">
        <ele>210</ele>
        <time>2022-05-12T07:03:42.372Z</time>
      </trkpt>
      <trkpt lat="43.7293" lon="3.60472">
        <ele>210</ele>
        <time>2022-05-12T07:03:42.808Z</time>
      </trkpt>
      <trkpt lat="43.72932" lon="3.60474">
        <ele>212</ele>
        <time>2022-05-12T07:03:44.550Z</time>
      </trkpt>
      <trkpt lat="43.72934" lon="3.60477">
        <ele>212</ele>
        <time>2022-05-12T07:03:45.089Z</time>
      </trkpt>
      <trkpt lat="43.72935" lon="3.6048">
        <ele>212</ele>
        <time>2022-05-12T07:03:45.526Z</time>
      </trkpt>
      <trkpt lat="43.72937" lon="3.60483">
        <ele>212</ele>
        <time>2022-05-12T07:03:46.066Z</time>
      </trkpt>
      <trkpt lat="43.72938" lon="3.60487">
        <ele>212</ele>
        <time>2022-05-12T07:03:46.625Z</time>
      </trkpt>
      <trkpt lat="43.72938" lon="3.6049">
        <ele>212</ele>
        <time>2022-05-12T07:03:47.022Z</time>
      </trkpt>
      <trkpt lat="43.72939" lon="3.60494">
        <ele>212</ele>
        <time>2022-05-12T07:03:47.582Z</time>
      </trkpt>
      <trkpt lat="43.7294" lon="3.60497">
        <ele>212</ele>
        <time>2022-05-12T07:03:48.018Z</time>
      </trkpt>
      <trkpt lat="43.7294" lon="3.60501">
        <ele>212</ele>
        <time>2022-05-12T07:03:48.547Z</time>
      </trkpt>
      <trkpt lat="43.7294" lon="3.60505">
        <ele>212</ele>
        <time>2022-05-12T07:03:49.076Z</time>
      </trkpt>
      <trkpt lat="43.7294" lon="3.60509">
        <ele>212</ele>
        <time>2022-05-12T07:03:49.605Z</time>
      </trkpt>
      <trkpt lat="43.7294" lon="3.60513">
        <ele>213</ele>
        <time>2022-05-12T07:03:51.645Z</time>
      </trkpt>
      <trkpt lat="43.7294" lon="3.60517">
        <ele>213</ele>
        <time>2022-05-12T07:03:52.174Z</time>
      </trkpt>
      <trkpt lat="43.72939" lon="3.60521">
        <ele>213</ele>
        <time>2022-05-12T07:03:52.733Z</time>
      </trkpt>
      <trkpt lat="43.72939" lon="3.60524">
        <ele>213</ele>
        <time>2022-05-12T07:03:53.130Z</time>
      </trkpt>
      <trkpt lat="43.72939" lon="3.60528">
        <ele>213</ele>
        <time>2022-05-12T07:03:53.659Z</time>
      </trkpt>
      <trkpt lat="43.7294" lon="3.60531">
        <ele>213</ele>
        <time>2022-05-12T07:03:54.095Z</time>
      </trkpt>
      <trkpt lat="43.72941" lon="3.60536">
        <ele>213</ele>
        <time>2022-05-12T07:03:54.781Z</time>
      </trkpt>
      <trkpt lat="43.72942" lon="3.60539">
        <ele>213</ele>
        <time>2022-05-12T07:03:55.218Z</time>
      </trkpt>
      <trkpt lat="43.72942" lon="3.60542">
        <ele>213</ele>
        <time>2022-05-12T07:03:55.615Z</time>
      </trkpt>
      <trkpt lat="43.72943" lon="3.60545">
        <ele>214</ele>
        <time>2022-05-12T07:03:57.299Z</time>
      </trkpt>
      <trkpt lat="43.72943" lon="3.60549">
        <ele>214</ele>
        <time>2022-05-12T07:03:57.828Z</time>
      </trkpt>
      <trkpt lat="43.72945" lon="3.60553">
        <ele>214</ele>
        <time>2022-05-12T07:03:58.471Z</time>
      </trkpt>
      <trkpt lat="43.72946" lon="3.60555">
        <ele>214</ele>
        <time>2022-05-12T07:03:58.793Z</time>
      </trkpt>
      <trkpt lat="43.72947" lon="3.60558">
        <ele>214</ele>
        <time>2022-05-12T07:03:59.230Z</time>
      </trkpt>
      <trkpt lat="43.72947" lon="3.60562">
        <ele>214</ele>
        <time>2022-05-12T07:03:59.759Z</time>
      </trkpt>
      <trkpt lat="43.72948" lon="3.60565">
        <ele>214</ele>
        <time>2022-05-12T07:04:00.195Z</time>
      </trkpt>
      <trkpt lat="43.72949" lon="3.60567">
        <ele>214</ele>
        <time>2022-05-12T07:04:00.517Z</time>
      </trkpt>
      <trkpt lat="43.7295" lon="3.6057">
        <ele>214</ele>
        <time>2022-05-12T07:04:00.954Z</time>
      </trkpt>
      <trkpt lat="43.72952" lon="3.60572">
        <ele>214</ele>
        <time>2022-05-12T07:04:01.405Z</time>
      </trkpt>
      <trkpt lat="43.72953" lon="3.60575">
        <ele>214</ele>
        <time>2022-05-12T07:04:01.842Z</time>
      </trkpt>
      <trkpt lat="43.72954" lon="3.60577">
        <ele>214</ele>
        <time>2022-05-12T07:04:02.163Z</time>
      </trkpt>
      <trkpt lat="43.72958" lon="3.60578">
        <ele>214</ele>
        <time>2022-05-12T07:04:02.907Z</time>
      </trkpt>
      <trkpt lat="43.7296" lon="3.60579">
        <ele>214</ele>
        <time>2022-05-12T07:04:03.296Z</time>
      </trkpt>
      <trkpt lat="43.72962" lon="3.6058">
        <ele>214</ele>
        <time>2022-05-12T07:04:03.685Z</time>
      </trkpt>
      <trkpt lat="43.72964" lon="3.60582">
        <ele>214</ele>
        <time>2022-05-12T07:04:04.137Z</time>
      </trkpt>
      <trkpt lat="43.72965" lon="3.60585">
        <ele>214</ele>
        <time>2022-05-12T07:04:04.573Z</time>
      </trkpt>
      <trkpt lat="43.72967" lon="3.60587">
        <ele>214</ele>
        <time>2022-05-12T07:04:05.025Z</time>
      </trkpt>
      <trkpt lat="43.72969" lon="3.60588">
        <ele>214</ele>
        <time>2022-05-12T07:04:05.414Z</time>
      </trkpt>
      <trkpt lat="43.72971" lon="3.6059">
        <ele>215</ele>
        <time>2022-05-12T07:04:07.155Z</time>
      </trkpt>
      <trkpt lat="43.72973" lon="3.60592">
        <ele>215</ele>
        <time>2022-05-12T07:04:07.607Z</time>
      </trkpt>
      <trkpt lat="43.72974" lon="3.60594">
        <ele>215</ele>
        <time>2022-05-12T07:04:07.928Z</time>
      </trkpt>
      <trkpt lat="43.72976" lon="3.60596">
        <ele>215</ele>
        <time>2022-05-12T07:04:08.380Z</time>
      </trkpt>
      <trkpt lat="43.72978" lon="3.60598">
        <ele>215</ele>
        <time>2022-05-12T07:04:08.831Z</time>
      </trkpt>
      <trkpt lat="43.72979" lon="3.60601">
        <ele>215</ele>
        <time>2022-05-12T07:04:09.268Z</time>
      </trkpt>
      <trkpt lat="43.7298" lon="3.60603">
        <ele>215</ele>
        <time>2022-05-12T07:04:09.590Z</time>
      </trkpt>
      <trkpt lat="43.72981" lon="3.60606">
        <ele>215</ele>
        <time>2022-05-12T07:04:10.026Z</time>
      </trkpt>
      <trkpt lat="43.72983" lon="3.60608">
        <ele>215</ele>
        <time>2022-05-12T07:04:10.478Z</time>
      </trkpt>
      <trkpt lat="43.72984" lon="3.60611">
        <ele>215</ele>
        <time>2022-05-12T07:04:10.915Z</time>
      </trkpt>
      <trkpt lat="43.72985" lon="3.60614">
        <ele>216</ele>
        <time>2022-05-12T07:04:12.599Z</time>
      </trkpt>
      <trkpt lat="43.72987" lon="3.60616">
        <ele>216</ele>
        <time>2022-05-12T07:04:13.051Z</time>
      </trkpt>
      <trkpt lat="43.72988" lon="3.60619">
        <ele>216</ele>
        <time>2022-05-12T07:04:13.488Z</time>
      </trkpt>
      <trkpt lat="43.72989" lon="3.60622">
        <ele>216</ele>
        <time>2022-05-12T07:04:13.924Z</time>
      </trkpt>
      <trkpt lat="43.7299" lon="3.60625">
        <ele>216</ele>
        <time>2022-05-12T07:04:14.361Z</time>
      </trkpt>
      <trkpt lat="43.72991" lon="3.60627">
        <ele>216</ele>
        <time>2022-05-12T07:04:14.683Z</time>
      </trkpt>
      <trkpt lat="43.72992" lon="3.6063">
        <ele>216</ele>
        <time>2022-05-12T07:04:15.119Z</time>
      </trkpt>
      <trkpt lat="43.72993" lon="3.60633">
        <ele>216</ele>
        <time>2022-05-12T07:04:15.556Z</time>
      </trkpt>
      <trkpt lat="43.72993" lon="3.60636">
        <ele>216</ele>
        <time>2022-05-12T07:04:15.953Z</time>
      </trkpt>
      <trkpt lat="43.72993" lon="3.6064">
        <ele>216</ele>
        <time>2022-05-12T07:04:16.482Z</time>
      </trkpt>
      <trkpt lat="43.72993" lon="3.60643">
        <ele>217</ele>
        <time>2022-05-12T07:04:18.012Z</time>
      </trkpt>
      <trkpt lat="43.72994" lon="3.60646">
        <ele>217</ele>
        <time>2022-05-12T07:04:18.448Z</time>
      </trkpt>
      <trkpt lat="43.72995" lon="3.60649">
        <ele>217</ele>
        <time>2022-05-12T07:04:18.885Z</time>
      </trkpt>
      <trkpt lat="43.72995" lon="3.60652">
        <ele>217</ele>
        <time>2022-05-12T07:04:19.282Z</time>
      </trkpt>
      <trkpt lat="43.72994" lon="3.60655">
        <ele>217</ele>
        <time>2022-05-12T07:04:19.718Z</time>
      </trkpt>
      <trkpt lat="43.72993" lon="3.60657">
        <ele>217</ele>
        <time>2022-05-12T07:04:20.040Z</time>
      </trkpt>
      <trkpt lat="43.72993" lon="3.6066">
        <ele>217</ele>
        <time>2022-05-12T07:04:20.437Z</time>
      </trkpt>
      <trkpt lat="43.72992" lon="3.60663">
        <ele>217</ele>
        <time>2022-05-12T07:04:20.873Z</time>
      </trkpt>
      <trkpt lat="43.72992" lon="3.60665">
        <ele>217</ele>
        <time>2022-05-12T07:04:21.138Z</time>
      </trkpt>
      <trkpt lat="43.72993" lon="3.6067">
        <ele>217</ele>
        <time>2022-05-12T07:04:21.824Z</time>
      </trkpt>
      <trkpt lat="43.72994" lon="3.60673">
        <ele>217</ele>
        <time>2022-05-12T07:04:22.261Z</time>
      </trkpt>
      <trkpt lat="43.72994" lon="3.60676">
        <ele>217</ele>
        <time>2022-05-12T07:04:22.657Z</time>
      </trkpt>
      <trkpt lat="43.72994" lon="3.60679">
        <ele>217</ele>
        <time>2022-05-12T07:04:23.054Z</time>
      </trkpt>
      <trkpt lat="43.72993" lon="3.60682">
        <ele>217</ele>
        <time>2022-05-12T07:04:23.491Z</time>
      </trkpt>
      <trkpt lat="43.72993" lon="3.60685">
        <ele>217</ele>
        <time>2022-05-12T07:04:23.887Z</time>
      </trkpt>
      <trkpt lat="43.72993" lon="3.60688">
        <ele>217</ele>
        <time>2022-05-12T07:04:24.284Z</time>
      </trkpt>
      <trkpt lat="43.72993" lon="3.60691">
        <ele>217</ele>
        <time>2022-05-12T07:04:24.680Z</time>
      </trkpt>
      <trkpt lat="43.72993" lon="3.60694">
        <ele>217</ele>
        <time>2022-05-12T07:04:25.077Z</time>
      </trkpt>
      <trkpt lat="43.72993" lon="3.60696">
        <ele>219</ele>
        <time>2022-05-12T07:04:26.097Z</time>
      </trkpt>
      <trkpt lat="43.72993" lon="3.60699">
        <ele>219</ele>
        <time>2022-05-12T07:04:26.494Z</time>
      </trkpt>
      <trkpt lat="43.72992" lon="3.60702">
        <ele>219</ele>
        <time>2022-05-12T07:04:26.930Z</time>
      </trkpt>
      <trkpt lat="43.72992" lon="3.60704">
        <ele>219</ele>
        <time>2022-05-12T07:04:27.195Z</time>
      </trkpt>
      <trkpt lat="43.72993" lon="3.60707">
        <ele>219</ele>
        <time>2022-05-12T07:04:27.631Z</time>
      </trkpt>
      <trkpt lat="43.72994" lon="3.6071">
        <ele>219</ele>
        <time>2022-05-12T07:04:28.068Z</time>
      </trkpt>
      <trkpt lat="43.72996" lon="3.60712">
        <ele>219</ele>
        <time>2022-05-12T07:04:28.520Z</time>
      </trkpt>
      <trkpt lat="43.72997" lon="3.60714">
        <ele>219</ele>
        <time>2022-05-12T07:04:28.841Z</time>
      </trkpt>
      <trkpt lat="43.72999" lon="3.60716">
        <ele>219</ele>
        <time>2022-05-12T07:04:29.293Z</time>
      </trkpt>
      <trkpt lat="43.73001" lon="3.60718">
        <ele>219</ele>
        <time>2022-05-12T07:04:29.744Z</time>
      </trkpt>
      <trkpt lat="43.73002" lon="3.6072">
        <ele>219</ele>
        <time>2022-05-12T07:04:30.066Z</time>
      </trkpt>
      <trkpt lat="43.73004" lon="3.60721">
        <ele>220</ele>
        <time>2022-05-12T07:04:31.566Z</time>
      </trkpt>
      <trkpt lat="43.73005" lon="3.60723">
        <ele>220</ele>
        <time>2022-05-12T07:04:31.888Z</time>
      </trkpt>
      <trkpt lat="43.73006" lon="3.60726">
        <ele>220</ele>
        <time>2022-05-12T07:04:32.325Z</time>
      </trkpt>
      <trkpt lat="43.73006" lon="3.60728">
        <ele>220</ele>
        <time>2022-05-12T07:04:32.589Z</time>
      </trkpt>
      <trkpt lat="43.73007" lon="3.60731">
        <ele>220</ele>
        <time>2022-05-12T07:04:33.026Z</time>
      </trkpt>
      <trkpt lat="43.73007" lon="3.60733">
        <ele>220</ele>
        <time>2022-05-12T07:04:33.290Z</time>
      </trkpt>
      <trkpt lat="43.73007" lon="3.60736">
        <ele>220</ele>
        <time>2022-05-12T07:04:33.687Z</time>
      </trkpt>
      <trkpt lat="43.73007" lon="3.60739">
        <ele>220</ele>
        <time>2022-05-12T07:04:34.084Z</time>
      </trkpt>
      <trkpt lat="43.73007" lon="3.60741">
        <ele>220</ele>
        <time>2022-05-12T07:04:34.348Z</time>
      </trkpt>
      <trkpt lat="43.73007" lon="3.60744">
        <ele>221</ele>
        <time>2022-05-12T07:04:35.878Z</time>
      </trkpt>
      <trkpt lat="43.73007" lon="3.60747">
        <ele>221</ele>
        <time>2022-05-12T07:04:36.274Z</time>
      </trkpt>
      <trkpt lat="43.73008" lon="3.60749">
        <ele>221</ele>
        <time>2022-05-12T07:04:36.596Z</time>
      </trkpt>
      <trkpt lat="43.73008" lon="3.60752">
        <ele>221</ele>
        <time>2022-05-12T07:04:36.993Z</time>
      </trkpt>
      <trkpt lat="43.7301" lon="3.60755">
        <ele>221</ele>
        <time>2022-05-12T07:04:37.532Z</time>
      </trkpt>
      <trkpt lat="43.73012" lon="3.60757">
        <ele>221</ele>
        <time>2022-05-12T07:04:37.984Z</time>
      </trkpt>
      <trkpt lat="43.73014" lon="3.60758">
        <ele>221</ele>
        <time>2022-05-12T07:04:38.373Z</time>
      </trkpt>
      <trkpt lat="43.73016" lon="3.60759">
        <ele>221</ele>
        <time>2022-05-12T07:04:38.762Z</time>
      </trkpt>
      <trkpt lat="43.73018" lon="3.6076">
        <ele>221</ele>
        <time>2022-05-12T07:04:39.151Z</time>
      </trkpt>
      <trkpt lat="43.7302" lon="3.60761">
        <ele>221</ele>
        <time>2022-05-12T07:04:39.540Z</time>
      </trkpt>
      <trkpt lat="43.73021" lon="3.60763">
        <ele>221</ele>
        <time>2022-05-12T07:04:39.861Z</time>
      </trkpt>
      <trkpt lat="43.73021" lon="3.60766">
        <ele>221</ele>
        <time>2022-05-12T07:04:40.258Z</time>
      </trkpt>
      <trkpt lat="43.73021" lon="3.60769">
        <ele>221</ele>
        <time>2022-05-12T07:04:40.655Z</time>
      </trkpt>
      <trkpt lat="43.7302" lon="3.60772">
        <ele>221</ele>
        <time>2022-05-12T07:04:41.092Z</time>
      </trkpt>
      <trkpt lat="43.73018" lon="3.60775">
        <ele>221</ele>
        <time>2022-05-12T07:04:41.631Z</time>
      </trkpt>
      <trkpt lat="43.73016" lon="3.60776">
        <ele>221</ele>
        <time>2022-05-12T07:04:42.020Z</time>
      </trkpt>
      <trkpt lat="43.73014" lon="3.60777">
        <ele>221</ele>
        <time>2022-05-12T07:04:42.409Z</time>
      </trkpt>
      <trkpt lat="43.73012" lon="3.60778">
        <ele>221</ele>
        <time>2022-05-12T07:04:42.798Z</time>
      </trkpt>
      <trkpt lat="43.7301" lon="3.60781">
        <ele>222</ele>
        <time>2022-05-12T07:04:44.880Z</time>
      </trkpt>
      <trkpt lat="43.73009" lon="3.60785">
        <ele>222</ele>
        <time>2022-05-12T07:04:45.439Z</time>
      </trkpt>
      <trkpt lat="43.7301" lon="3.6079">
        <ele>222</ele>
        <time>2022-05-12T07:04:46.125Z</time>
      </trkpt>
      <trkpt lat="43.73009" lon="3.60793">
        <ele>222</ele>
        <time>2022-05-12T07:04:46.562Z</time>
      </trkpt>
      <trkpt lat="43.73009" lon="3.60796">
        <ele>222</ele>
        <time>2022-05-12T07:04:46.959Z</time>
      </trkpt>
      <trkpt lat="43.73008" lon="3.608">
        <ele>222</ele>
        <time>2022-05-12T07:04:47.518Z</time>
      </trkpt>
      <trkpt lat="43.73011" lon="3.608">
        <ele>223</ele>
        <time>2022-05-12T07:04:49.635Z</time>
      </trkpt>
      <trkpt lat="43.73015" lon="3.60802">
        <ele>224</ele>
        <time>2022-05-12T07:04:52.637Z</time>
      </trkpt>
      <trkpt lat="43.73016" lon="3.60803">
        <ele>224</ele>
        <time>2022-05-12T07:04:52.862Z</time>
      </trkpt>
      <trkpt lat="43.73016" lon="3.60804">
        <ele>225</ele>
        <time>2022-05-12T07:04:53.372Z</time>
      </trkpt>
      <trkpt lat="43.73013" lon="3.60799">
        <ele>229</ele>
        <time>2022-05-12T07:04:56.686Z</time>
      </trkpt>
      <trkpt lat="43.73014" lon="3.60798">
        <ele>229</ele>
        <time>2022-05-12T07:04:56.912Z</time>
      </trkpt>
      <trkpt lat="43.73019" lon="3.60791">
        <ele>229</ele>
        <time>2022-05-12T07:04:58.213Z</time>
      </trkpt>
      <trkpt lat="43.73021" lon="3.60787">
        <ele>229</ele>
        <time>2022-05-12T07:04:58.856Z</time>
      </trkpt>
      <trkpt lat="43.73022" lon="3.60785">
        <ele>229</ele>
        <time>2022-05-12T07:04:59.178Z</time>
      </trkpt>
      <trkpt lat="43.73023" lon="3.60783">
        <ele>229</ele>
        <time>2022-05-12T07:04:59.500Z</time>
      </trkpt>
      <trkpt lat="43.73024" lon="3.60781">
        <ele>229</ele>
        <time>2022-05-12T07:04:59.821Z</time>
      </trkpt>
      <trkpt lat="43.73026" lon="3.60778">
        <ele>229</ele>
        <time>2022-05-12T07:05:00.361Z</time>
      </trkpt>
      <trkpt lat="43.73027" lon="3.60776">
        <ele>229</ele>
        <time>2022-05-12T07:05:00.682Z</time>
      </trkpt>
      <trkpt lat="43.73028" lon="3.60773">
        <ele>229</ele>
        <time>2022-05-12T07:05:01.119Z</time>
      </trkpt>
      <trkpt lat="43.73029" lon="3.60771">
        <ele>229</ele>
        <time>2022-05-12T07:05:01.441Z</time>
      </trkpt>
      <trkpt lat="43.73029" lon="3.60768">
        <ele>229</ele>
        <time>2022-05-12T07:05:01.837Z</time>
      </trkpt>
      <trkpt lat="43.7303" lon="3.60765">
        <ele>229</ele>
        <time>2022-05-12T07:05:02.274Z</time>
      </trkpt>
      <trkpt lat="43.73031" lon="3.60762">
        <ele>229</ele>
        <time>2022-05-12T07:05:02.711Z</time>
      </trkpt>
      <trkpt lat="43.73032" lon="3.60759">
        <ele>229</ele>
        <time>2022-05-12T07:05:03.148Z</time>
      </trkpt>
      <trkpt lat="43.73034" lon="3.60755">
        <ele>229</ele>
        <time>2022-05-12T07:05:03.791Z</time>
      </trkpt>
      <trkpt lat="43.73035" lon="3.60752">
        <ele>229</ele>
        <time>2022-05-12T07:05:04.227Z</time>
      </trkpt>
      <trkpt lat="43.73035" lon="3.60749">
        <ele>229</ele>
        <time>2022-05-12T07:05:04.624Z</time>
      </trkpt>
      <trkpt lat="43.73036" lon="3.60747">
        <ele>229</ele>
        <time>2022-05-12T07:05:04.946Z</time>
      </trkpt>
      <trkpt lat="43.73036" lon="3.60744">
        <ele>229</ele>
        <time>2022-05-12T07:05:05.342Z</time>
      </trkpt>
      <trkpt lat="43.73037" lon="3.60741">
        <ele>229</ele>
        <time>2022-05-12T07:05:05.779Z</time>
      </trkpt>
      <trkpt lat="43.73037" lon="3.60739">
        <ele>230</ele>
        <time>2022-05-12T07:05:06.799Z</time>
      </trkpt>
      <trkpt lat="43.73038" lon="3.60736">
        <ele>230</ele>
        <time>2022-05-12T07:05:07.236Z</time>
      </trkpt>
      <trkpt lat="43.73039" lon="3.60734">
        <ele>230</ele>
        <time>2022-05-12T07:05:07.557Z</time>
      </trkpt>
      <trkpt lat="43.7304" lon="3.60731">
        <ele>230</ele>
        <time>2022-05-12T07:05:07.994Z</time>
      </trkpt>
      <trkpt lat="43.73042" lon="3.60729">
        <ele>230</ele>
        <time>2022-05-12T07:05:08.445Z</time>
      </trkpt>
      <trkpt lat="43.73044" lon="3.60728">
        <ele>230</ele>
        <time>2022-05-12T07:05:08.834Z</time>
      </trkpt>
      <trkpt lat="43.73046" lon="3.60726">
        <ele>230</ele>
        <time>2022-05-12T07:05:09.286Z</time>
      </trkpt>
      <trkpt lat="43.73047" lon="3.60725">
        <ele>230</ele>
        <time>2022-05-12T07:05:09.512Z</time>
      </trkpt>
      <trkpt lat="43.73049" lon="3.60724">
        <ele>230</ele>
        <time>2022-05-12T07:05:09.901Z</time>
      </trkpt>
      <trkpt lat="43.73052" lon="3.60724">
        <ele>230</ele>
        <time>2022-05-12T07:05:10.450Z</time>
      </trkpt>
      <trkpt lat="43.73054" lon="3.60724">
        <ele>231</ele>
        <time>2022-05-12T07:05:11.861Z</time>
      </trkpt>
      <trkpt lat="43.73056" lon="3.60725">
        <ele>231</ele>
        <time>2022-05-12T07:05:12.250Z</time>
      </trkpt>
      <trkpt lat="43.73058" lon="3.60726">
        <ele>231</ele>
        <time>2022-05-12T07:05:12.639Z</time>
      </trkpt>
      <trkpt lat="43.73058" lon="3.60729">
        <ele>231</ele>
        <time>2022-05-12T07:05:13.036Z</time>
      </trkpt>
      <trkpt lat="43.73058" lon="3.60732">
        <ele>231</ele>
        <time>2022-05-12T07:05:13.432Z</time>
      </trkpt>
      <trkpt lat="43.73058" lon="3.60734">
        <ele>231</ele>
        <time>2022-05-12T07:05:13.697Z</time>
      </trkpt>
      <trkpt lat="43.73058" lon="3.60737">
        <ele>231</ele>
        <time>2022-05-12T07:05:14.093Z</time>
      </trkpt>
      <trkpt lat="43.73058" lon="3.6074">
        <ele>231</ele>
        <time>2022-05-12T07:05:14.490Z</time>
      </trkpt>
      <trkpt lat="43.73058" lon="3.60743">
        <ele>231</ele>
        <time>2022-05-12T07:05:14.887Z</time>
      </trkpt>
      <trkpt lat="43.73057" lon="3.60746">
        <ele>231</ele>
        <time>2022-05-12T07:05:15.323Z</time>
      </trkpt>
      <trkpt lat="43.73057" lon="3.60749">
        <ele>232</ele>
        <time>2022-05-12T07:05:16.853Z</time>
      </trkpt>
      <trkpt lat="43.73056" lon="3.60752">
        <ele>232</ele>
        <time>2022-05-12T07:05:17.290Z</time>
      </trkpt>
      <trkpt lat="43.73056" lon="3.60755">
        <ele>232</ele>
        <time>2022-05-12T07:05:17.687Z</time>
      </trkpt>
      <trkpt lat="43.73056" lon="3.60758">
        <ele>232</ele>
        <time>2022-05-12T07:05:18.083Z</time>
      </trkpt>
      <trkpt lat="43.73055" lon="3.60761">
        <ele>232</ele>
        <time>2022-05-12T07:05:18.520Z</time>
      </trkpt>
      <trkpt lat="43.73055" lon="3.60764">
        <ele>232</ele>
        <time>2022-05-12T07:05:18.917Z</time>
      </trkpt>
      <trkpt lat="43.73055" lon="3.60768">
        <ele>232</ele>
        <time>2022-05-12T07:05:19.445Z</time>
      </trkpt>
      <trkpt lat="43.73055" lon="3.60771">
        <ele>232</ele>
        <time>2022-05-12T07:05:19.842Z</time>
      </trkpt>
      <trkpt lat="43.73055" lon="3.60774">
        <ele>232</ele>
        <time>2022-05-12T07:05:20.239Z</time>
      </trkpt>
      <trkpt lat="43.73055" lon="3.60777">
        <ele>232</ele>
        <time>2022-05-12T07:05:20.635Z</time>
      </trkpt>
      <trkpt lat="43.73055" lon="3.6078">
        <ele>232</ele>
        <time>2022-05-12T07:05:21.032Z</time>
      </trkpt>
      <trkpt lat="43.73056" lon="3.60783">
        <ele>232</ele>
        <time>2022-05-12T07:05:21.469Z</time>
      </trkpt>
      <trkpt lat="43.73056" lon="3.60786">
        <ele>232</ele>
        <time>2022-05-12T07:05:21.865Z</time>
      </trkpt>
      <trkpt lat="43.73057" lon="3.60789">
        <ele>232</ele>
        <time>2022-05-12T07:05:22.302Z</time>
      </trkpt>
      <trkpt lat="43.73058" lon="3.60792">
        <ele>232</ele>
        <time>2022-05-12T07:05:22.739Z</time>
      </trkpt>
      <trkpt lat="43.73059" lon="3.60794">
        <ele>232</ele>
        <time>2022-05-12T07:05:23.060Z</time>
      </trkpt>
      <trkpt lat="43.7306" lon="3.60797">
        <ele>232</ele>
        <time>2022-05-12T07:05:23.497Z</time>
      </trkpt>
      <trkpt lat="43.7306" lon="3.60799">
        <ele>232</ele>
        <time>2022-05-12T07:05:23.762Z</time>
      </trkpt>
      <trkpt lat="43.73061" lon="3.60802">
        <ele>232</ele>
        <time>2022-05-12T07:05:24.198Z</time>
      </trkpt>
      <trkpt lat="43.73062" lon="3.60804">
        <ele>232</ele>
        <time>2022-05-12T07:05:24.520Z</time>
      </trkpt>
      <trkpt lat="43.73063" lon="3.60806">
        <ele>233</ele>
        <time>2022-05-12T07:05:25.760Z</time>
      </trkpt>
      <trkpt lat="43.73065" lon="3.60808">
        <ele>233</ele>
        <time>2022-05-12T07:05:26.212Z</time>
      </trkpt>
      <trkpt lat="43.73066" lon="3.6081">
        <ele>233</ele>
        <time>2022-05-12T07:05:26.533Z</time>
      </trkpt>
      <trkpt lat="43.73067" lon="3.60813">
        <ele>233</ele>
        <time>2022-05-12T07:05:26.970Z</time>
      </trkpt>
      <trkpt lat="43.73069" lon="3.60816">
        <ele>233</ele>
        <time>2022-05-12T07:05:27.509Z</time>
      </trkpt>
      <trkpt lat="43.7307" lon="3.60818">
        <ele>233</ele>
        <time>2022-05-12T07:05:27.831Z</time>
      </trkpt>
      <trkpt lat="43.73072" lon="3.60821">
        <ele>233</ele>
        <time>2022-05-12T07:05:28.371Z</time>
      </trkpt>
      <trkpt lat="43.73073" lon="3.60823">
        <ele>233</ele>
        <time>2022-05-12T07:05:28.692Z</time>
      </trkpt>
      <trkpt lat="43.73075" lon="3.60824">
        <ele>233</ele>
        <time>2022-05-12T07:05:29.081Z</time>
      </trkpt>
      <trkpt lat="43.73077" lon="3.60826">
        <ele>233</ele>
        <time>2022-05-12T07:05:29.533Z</time>
      </trkpt>
      <trkpt lat="43.73079" lon="3.60828">
        <ele>234</ele>
        <time>2022-05-12T07:05:31.274Z</time>
      </trkpt>
      <trkpt lat="43.73081" lon="3.6083">
        <ele>234</ele>
        <time>2022-05-12T07:05:31.725Z</time>
      </trkpt>
      <trkpt lat="43.73082" lon="3.60832">
        <ele>234</ele>
        <time>2022-05-12T07:05:32.047Z</time>
      </trkpt>
      <trkpt lat="43.73084" lon="3.60834">
        <ele>234</ele>
        <time>2022-05-12T07:05:32.498Z</time>
      </trkpt>
      <trkpt lat="43.73085" lon="3.60837">
        <ele>234</ele>
        <time>2022-05-12T07:05:32.935Z</time>
      </trkpt>
      <trkpt lat="43.73086" lon="3.60839">
        <ele>234</ele>
        <time>2022-05-12T07:05:33.257Z</time>
      </trkpt>
      <trkpt lat="43.73088" lon="3.60841">
        <ele>234</ele>
        <time>2022-05-12T07:05:33.708Z</time>
      </trkpt>
      <trkpt lat="43.73089" lon="3.60843">
        <ele>234</ele>
        <time>2022-05-12T07:05:34.030Z</time>
      </trkpt>
      <trkpt lat="43.7309" lon="3.60845">
        <ele>234</ele>
        <time>2022-05-12T07:05:34.351Z</time>
      </trkpt>
      <trkpt lat="43.73091" lon="3.60848">
        <ele>234</ele>
        <time>2022-05-12T07:05:34.788Z</time>
      </trkpt>
      <trkpt lat="43.73092" lon="3.6085">
        <ele>234</ele>
        <time>2022-05-12T07:05:35.110Z</time>
      </trkpt>
      <trkpt lat="43.73093" lon="3.60852">
        <ele>236</ele>
        <time>2022-05-12T07:05:36.350Z</time>
      </trkpt>
      <trkpt lat="43.73095" lon="3.60854">
        <ele>236</ele>
        <time>2022-05-12T07:05:36.801Z</time>
      </trkpt>
      <trkpt lat="43.73096" lon="3.60856">
        <ele>236</ele>
        <time>2022-05-12T07:05:37.123Z</time>
      </trkpt>
      <trkpt lat="43.73098" lon="3.60858">
        <ele>236</ele>
        <time>2022-05-12T07:05:37.574Z</time>
      </trkpt>
      <trkpt lat="43.73099" lon="3.6086">
        <ele>236</ele>
        <time>2022-05-12T07:05:37.896Z</time>
      </trkpt>
      <trkpt lat="43.731" lon="3.60862">
        <ele>236</ele>
        <time>2022-05-12T07:05:38.217Z</time>
      </trkpt>
      <trkpt lat="43.73102" lon="3.60864">
        <ele>236</ele>
        <time>2022-05-12T07:05:38.669Z</time>
      </trkpt>
      <trkpt lat="43.73103" lon="3.60866">
        <ele>236</ele>
        <time>2022-05-12T07:05:38.990Z</time>
      </trkpt>
      <trkpt lat="43.73105" lon="3.60867">
        <ele>236</ele>
        <time>2022-05-12T07:05:39.379Z</time>
      </trkpt>
      <trkpt lat="43.73106" lon="3.60869">
        <ele>237</ele>
        <time>2022-05-12T07:05:40.620Z</time>
      </trkpt>
      <trkpt lat="43.73109" lon="3.60871">
        <ele>237</ele>
        <time>2022-05-12T07:05:41.229Z</time>
      </trkpt>
      <trkpt lat="43.7311" lon="3.60873">
        <ele>237</ele>
        <time>2022-05-12T07:05:41.550Z</time>
      </trkpt>
      <trkpt lat="43.73112" lon="3.60874">
        <ele>237</ele>
        <time>2022-05-12T07:05:41.939Z</time>
      </trkpt>
      <trkpt lat="43.73115" lon="3.60877">
        <ele>237</ele>
        <time>2022-05-12T07:05:42.617Z</time>
      </trkpt>
      <trkpt lat="43.73118" lon="3.60879">
        <ele>237</ele>
        <time>2022-05-12T07:05:43.226Z</time>
      </trkpt>
      <trkpt lat="43.73121" lon="3.60881">
        <ele>239</ele>
        <time>2022-05-12T07:05:45.576Z</time>
      </trkpt>
      <trkpt lat="43.73123" lon="3.60883">
        <ele>239</ele>
        <time>2022-05-12T07:05:46.027Z</time>
      </trkpt>
      <trkpt lat="43.73126" lon="3.60886">
        <ele>239</ele>
        <time>2022-05-12T07:05:46.704Z</time>
      </trkpt>
      <trkpt lat="43.73128" lon="3.60888">
        <ele>239</ele>
        <time>2022-05-12T07:05:47.156Z</time>
      </trkpt>
      <trkpt lat="43.73131" lon="3.6089">
        <ele>239</ele>
        <time>2022-05-12T07:05:47.765Z</time>
      </trkpt>
      <trkpt lat="43.73133" lon="3.60892">
        <ele>240</ele>
        <time>2022-05-12T07:05:49.506Z</time>
      </trkpt>
      <trkpt lat="43.73135" lon="3.60895">
        <ele>240</ele>
        <time>2022-05-12T07:05:50.046Z</time>
      </trkpt>
      <trkpt lat="43.73137" lon="3.60898">
        <ele>240</ele>
        <time>2022-05-12T07:05:50.586Z</time>
      </trkpt>
      <trkpt lat="43.7314" lon="3.60901">
        <ele>240</ele>
        <time>2022-05-12T07:05:51.263Z</time>
      </trkpt>
      <trkpt lat="43.73142" lon="3.60904">
        <ele>240</ele>
        <time>2022-05-12T07:05:51.802Z</time>
      </trkpt>
      <trkpt lat="43.73144" lon="3.60908">
        <ele>242</ele>
        <time>2022-05-12T07:05:54.283Z</time>
      </trkpt>
      <trkpt lat="43.73145" lon="3.60912">
        <ele>242</ele>
        <time>2022-05-12T07:05:54.842Z</time>
      </trkpt>
      <trkpt lat="43.73146" lon="3.60916">
        <ele>242</ele>
        <time>2022-05-12T07:05:55.402Z</time>
      </trkpt>
      <trkpt lat="43.73147" lon="3.6092">
        <ele>242</ele>
        <time>2022-05-12T07:05:55.962Z</time>
      </trkpt>
      <trkpt lat="43.73148" lon="3.60924">
        <ele>242</ele>
        <time>2022-05-12T07:05:56.521Z</time>
      </trkpt>
      <trkpt lat="43.73149" lon="3.60927">
        <ele>244</ele>
        <time>2022-05-12T07:05:58.206Z</time>
      </trkpt>
      <trkpt lat="43.73151" lon="3.60931">
        <ele>244</ele>
        <time>2022-05-12T07:05:58.849Z</time>
      </trkpt>
      <trkpt lat="43.73152" lon="3.60934">
        <ele>244</ele>
        <time>2022-05-12T07:05:59.286Z</time>
      </trkpt>
      <trkpt lat="43.73153" lon="3.60938">
        <ele>244</ele>
        <time>2022-05-12T07:05:59.845Z</time>
      </trkpt>
      <trkpt lat="43.73154" lon="3.60941">
        <ele>244</ele>
        <time>2022-05-12T07:06:00.282Z</time>
      </trkpt>
      <trkpt lat="43.73156" lon="3.60945">
        <ele>244</ele>
        <time>2022-05-12T07:06:00.925Z</time>
      </trkpt>
      <trkpt lat="43.73158" lon="3.60949">
        <ele>246</ele>
        <time>2022-05-12T07:06:03.406Z</time>
      </trkpt>
      <trkpt lat="43.73159" lon="3.60952">
        <ele>246</ele>
        <time>2022-05-12T07:06:03.842Z</time>
      </trkpt>
      <trkpt lat="43.73161" lon="3.60956">
        <ele>246</ele>
        <time>2022-05-12T07:06:04.485Z</time>
      </trkpt>
      <trkpt lat="43.73163" lon="3.60959">
        <ele>246</ele>
        <time>2022-05-12T07:06:05.025Z</time>
      </trkpt>
      <trkpt lat="43.73165" lon="3.60961">
        <ele>247</ele>
        <time>2022-05-12T07:06:06.766Z</time>
      </trkpt>
      <trkpt lat="43.73167" lon="3.60964">
        <ele>247</ele>
        <time>2022-05-12T07:06:07.306Z</time>
      </trkpt>
      <trkpt lat="43.73169" lon="3.60966">
        <ele>247</ele>
        <time>2022-05-12T07:06:07.757Z</time>
      </trkpt>
      <trkpt lat="43.73171" lon="3.60969">
        <ele>247</ele>
        <time>2022-05-12T07:06:08.297Z</time>
      </trkpt>
      <trkpt lat="43.73173" lon="3.60971">
        <ele>247</ele>
        <time>2022-05-12T07:06:08.748Z</time>
      </trkpt>
      <trkpt lat="43.73175" lon="3.60974">
        <ele>249</ele>
        <time>2022-05-12T07:06:10.830Z</time>
      </trkpt>
      <trkpt lat="43.73177" lon="3.60975">
        <ele>249</ele>
        <time>2022-05-12T07:06:11.219Z</time>
      </trkpt>
      <trkpt lat="43.7318" lon="3.60977">
        <ele>249</ele>
        <time>2022-05-12T07:06:11.828Z</time>
      </trkpt>
      <trkpt lat="43.73182" lon="3.60979">
        <ele>249</ele>
        <time>2022-05-12T07:06:12.280Z</time>
      </trkpt>
      <trkpt lat="43.73184" lon="3.60981">
        <ele>249</ele>
        <time>2022-05-12T07:06:12.731Z</time>
      </trkpt>
      <trkpt lat="43.73186" lon="3.60982">
        <ele>249</ele>
        <time>2022-05-12T07:06:13.120Z</time>
      </trkpt>
      <trkpt lat="43.73188" lon="3.60983">
        <ele>251</ele>
        <time>2022-05-12T07:06:14.621Z</time>
      </trkpt>
      <trkpt lat="43.73191" lon="3.60985">
        <ele>251</ele>
        <time>2022-05-12T07:06:15.230Z</time>
      </trkpt>
      <trkpt lat="43.73193" lon="3.60987">
        <ele>251</ele>
        <time>2022-05-12T07:06:15.681Z</time>
      </trkpt>
      <trkpt lat="43.73195" lon="3.60988">
        <ele>251</ele>
        <time>2022-05-12T07:06:16.071Z</time>
      </trkpt>
      <trkpt lat="43.73198" lon="3.6099">
        <ele>253</ele>
        <time>2022-05-12T07:06:18.420Z</time>
      </trkpt>
      <trkpt lat="43.732" lon="3.60992">
        <ele>253</ele>
        <time>2022-05-12T07:06:18.872Z</time>
      </trkpt>
      <trkpt lat="43.73203" lon="3.60993">
        <ele>253</ele>
        <time>2022-05-12T07:06:19.436Z</time>
      </trkpt>
      <trkpt lat="43.73204" lon="3.60994">
        <ele>253</ele>
        <time>2022-05-12T07:06:19.662Z</time>
      </trkpt>
      <trkpt lat="43.73207" lon="3.60995">
        <ele>253</ele>
        <time>2022-05-12T07:06:20.227Z</time>
      </trkpt>
      <trkpt lat="43.73209" lon="3.60997">
        <ele>256</ele>
        <time>2022-05-12T07:06:21.968Z</time>
      </trkpt>
      <trkpt lat="43.73211" lon="3.60998">
        <ele>256</ele>
        <time>2022-05-12T07:06:22.357Z</time>
      </trkpt>
      <trkpt lat="43.73214" lon="3.60998">
        <ele>256</ele>
        <time>2022-05-12T07:06:22.906Z</time>
      </trkpt>
      <trkpt lat="43.73216" lon="3.60999">
        <ele>256</ele>
        <time>2022-05-12T07:06:23.295Z</time>
      </trkpt>
      <trkpt lat="43.73219" lon="3.61">
        <ele>256</ele>
        <time>2022-05-12T07:06:23.860Z</time>
      </trkpt>
      <trkpt lat="43.73221" lon="3.61">
        <ele>257</ele>
        <time>2022-05-12T07:06:25.271Z</time>
      </trkpt>
      <trkpt lat="43.73223" lon="3.61">
        <ele>257</ele>
        <time>2022-05-12T07:06:25.637Z</time>
      </trkpt>
      <trkpt lat="43.73226" lon="3.61">
        <ele>257</ele>
        <time>2022-05-12T07:06:26.186Z</time>
      </trkpt>
      <trkpt lat="43.73229" lon="3.61">
        <ele>257</ele>
        <time>2022-05-12T07:06:26.735Z</time>
      </trkpt>
      <trkpt lat="43.73232" lon="3.61">
        <ele>257</ele>
        <time>2022-05-12T07:06:27.284Z</time>
      </trkpt>
      <trkpt lat="43.73234" lon="3.60999">
        <ele>259</ele>
        <time>2022-05-12T07:06:28.784Z</time>
      </trkpt>
      <trkpt lat="43.73237" lon="3.60999">
        <ele>259</ele>
        <time>2022-05-12T07:06:29.333Z</time>
      </trkpt>
      <trkpt lat="43.73241" lon="3.60999">
        <ele>259</ele>
        <time>2022-05-12T07:06:30.065Z</time>
      </trkpt>
      <trkpt lat="43.73244" lon="3.60998">
        <ele>259</ele>
        <time>2022-05-12T07:06:30.630Z</time>
      </trkpt>
      <trkpt lat="43.73246" lon="3.60997">
        <ele>259</ele>
        <time>2022-05-12T07:06:31.019Z</time>
      </trkpt>
      <trkpt lat="43.7325" lon="3.60998">
        <ele>261</ele>
        <time>2022-05-12T07:06:33.887Z</time>
      </trkpt>
      <trkpt lat="43.73252" lon="3.60998">
        <ele>261</ele>
        <time>2022-05-12T07:06:34.253Z</time>
      </trkpt>
      <trkpt lat="43.73254" lon="3.60998">
        <ele>261</ele>
        <time>2022-05-12T07:06:34.619Z</time>
      </trkpt>
      <trkpt lat="43.73256" lon="3.60998">
        <ele>261</ele>
        <time>2022-05-12T07:06:34.985Z</time>
      </trkpt>
      <trkpt lat="43.73258" lon="3.60998">
        <ele>261</ele>
        <time>2022-05-12T07:06:35.351Z</time>
      </trkpt>
      <trkpt lat="43.7326" lon="3.60999">
        <ele>261</ele>
        <time>2022-05-12T07:06:35.740Z</time>
      </trkpt>
      <trkpt lat="43.73262" lon="3.60999">
        <ele>261</ele>
        <time>2022-05-12T07:06:36.106Z</time>
      </trkpt>
      <trkpt lat="43.73264" lon="3.60999">
        <ele>261</ele>
        <time>2022-05-12T07:06:36.472Z</time>
      </trkpt>
      <trkpt lat="43.73266" lon="3.60999">
        <ele>261</ele>
        <time>2022-05-12T07:06:36.838Z</time>
      </trkpt>
      <trkpt lat="43.73268" lon="3.60999">
        <ele>261</ele>
        <time>2022-05-12T07:06:37.203Z</time>
      </trkpt>
      <trkpt lat="43.7327" lon="3.60999">
        <ele>261</ele>
        <time>2022-05-12T07:06:37.569Z</time>
      </trkpt>
      <trkpt lat="43.73272" lon="3.60999">
        <ele>263</ele>
        <time>2022-05-12T07:06:38.981Z</time>
      </trkpt>
      <trkpt lat="43.73274" lon="3.60999">
        <ele>263</ele>
        <time>2022-05-12T07:06:39.347Z</time>
      </trkpt>
      <trkpt lat="43.73276" lon="3.61">
        <ele>263</ele>
        <time>2022-05-12T07:06:39.736Z</time>
      </trkpt>
      <trkpt lat="43.73277" lon="3.61">
        <ele>263</ele>
        <time>2022-05-12T07:06:39.919Z</time>
      </trkpt>
      <trkpt lat="43.73279" lon="3.61001">
        <ele>263</ele>
        <time>2022-05-12T07:06:40.308Z</time>
      </trkpt>
      <trkpt lat="43.73283" lon="3.61002">
        <ele>263</ele>
        <time>2022-05-12T07:06:41.051Z</time>
      </trkpt>
      <trkpt lat="43.73285" lon="3.61002">
        <ele>263</ele>
        <time>2022-05-12T07:06:41.417Z</time>
      </trkpt>
      <trkpt lat="43.73287" lon="3.61003">
        <ele>263</ele>
        <time>2022-05-12T07:06:41.806Z</time>
      </trkpt>
      <trkpt lat="43.73288" lon="3.61004">
        <ele>265</ele>
        <time>2022-05-12T07:06:42.677Z</time>
      </trkpt>
      <trkpt lat="43.7329" lon="3.61004">
        <ele>265</ele>
        <time>2022-05-12T07:06:43.043Z</time>
      </trkpt>
      <trkpt lat="43.73292" lon="3.61005">
        <ele>265</ele>
        <time>2022-05-12T07:06:43.432Z</time>
      </trkpt>
      <trkpt lat="43.73295" lon="3.61007">
        <ele>265</ele>
        <time>2022-05-12T07:06:44.041Z</time>
      </trkpt>
      <trkpt lat="43.73298" lon="3.61009">
        <ele>265</ele>
        <time>2022-05-12T07:06:44.651Z</time>
      </trkpt>
      <trkpt lat="43.73301" lon="3.61011">
        <ele>265</ele>
        <time>2022-05-12T07:06:45.260Z</time>
      </trkpt>
      <trkpt lat="43.73304" lon="3.61013">
        <ele>266</ele>
        <time>2022-05-12T07:06:47.610Z</time>
      </trkpt>
      <trkpt lat="43.73307" lon="3.61016">
        <ele>266</ele>
        <time>2022-05-12T07:06:48.287Z</time>
      </trkpt>
      <trkpt lat="43.73309" lon="3.61018">
        <ele>266</ele>
        <time>2022-05-12T07:06:48.738Z</time>
      </trkpt>
      <trkpt lat="43.73312" lon="3.61021">
        <ele>266</ele>
        <time>2022-05-12T07:06:49.415Z</time>
      </trkpt>
      <trkpt lat="43.73315" lon="3.61024">
        <ele>266</ele>
        <time>2022-05-12T07:06:50.093Z</time>
      </trkpt>
      <trkpt lat="43.73316" lon="3.61026">
        <ele>266</ele>
        <time>2022-05-12T07:06:50.414Z</time>
      </trkpt>
      <trkpt lat="43.73317" lon="3.61028">
        <ele>266</ele>
        <time>2022-05-12T07:06:50.736Z</time>
      </trkpt>
      <trkpt lat="43.73319" lon="3.6103">
        <ele>268</ele>
        <time>2022-05-12T07:06:52.477Z</time>
      </trkpt>
      <trkpt lat="43.7332" lon="3.61031">
        <ele>268</ele>
        <time>2022-05-12T07:06:52.703Z</time>
      </trkpt>
      <trkpt lat="43.73322" lon="3.61033">
        <ele>268</ele>
        <time>2022-05-12T07:06:53.154Z</time>
      </trkpt>
      <trkpt lat="43.73323" lon="3.61035">
        <ele>268</ele>
        <time>2022-05-12T07:06:53.476Z</time>
      </trkpt>
      <trkpt lat="43.73324" lon="3.61036">
        <ele>268</ele>
        <time>2022-05-12T07:06:53.701Z</time>
      </trkpt>
      <trkpt lat="43.73326" lon="3.61038">
        <ele>268</ele>
        <time>2022-05-12T07:06:54.153Z</time>
      </trkpt>
      <trkpt lat="43.73327" lon="3.6104">
        <ele>268</ele>
        <time>2022-05-12T07:06:54.474Z</time>
      </trkpt>
      <trkpt lat="43.73328" lon="3.61041">
        <ele>268</ele>
        <time>2022-05-12T07:06:54.700Z</time>
      </trkpt>
      <trkpt lat="43.7333" lon="3.61043">
        <ele>268</ele>
        <time>2022-05-12T07:06:55.152Z</time>
      </trkpt>
      <trkpt lat="43.73331" lon="3.61045">
        <ele>269</ele>
        <time>2022-05-12T07:06:56.392Z</time>
      </trkpt>
      <trkpt lat="43.73333" lon="3.61046">
        <ele>269</ele>
        <time>2022-05-12T07:06:56.781Z</time>
      </trkpt>
      <trkpt lat="43.73334" lon="3.61048">
        <ele>269</ele>
        <time>2022-05-12T07:06:57.102Z</time>
      </trkpt>
      <trkpt lat="43.73335" lon="3.6105">
        <ele>269</ele>
        <time>2022-05-12T07:06:57.424Z</time>
      </trkpt>
      <trkpt lat="43.73337" lon="3.61052">
        <ele>269</ele>
        <time>2022-05-12T07:06:57.875Z</time>
      </trkpt>
      <trkpt lat="43.73338" lon="3.61053">
        <ele>269</ele>
        <time>2022-05-12T07:06:58.101Z</time>
      </trkpt>
      <trkpt lat="43.7334" lon="3.61055">
        <ele>269</ele>
        <time>2022-05-12T07:06:58.552Z</time>
      </trkpt>
      <trkpt lat="43.73341" lon="3.61056">
        <ele>269</ele>
        <time>2022-05-12T07:06:58.778Z</time>
      </trkpt>
      <trkpt lat="43.73343" lon="3.61058">
        <ele>269</ele>
        <time>2022-05-12T07:06:59.230Z</time>
      </trkpt>
      <trkpt lat="43.73345" lon="3.61059">
        <ele>269</ele>
        <time>2022-05-12T07:06:59.619Z</time>
      </trkpt>
      <trkpt lat="43.73348" lon="3.61061">
        <ele>271</ele>
        <time>2022-05-12T07:07:01.969Z</time>
      </trkpt>
      <trkpt lat="43.7335" lon="3.61062">
        <ele>271</ele>
        <time>2022-05-12T07:07:02.358Z</time>
      </trkpt>
      <trkpt lat="43.73351" lon="3.61063">
        <ele>271</ele>
        <time>2022-05-12T07:07:02.583Z</time>
      </trkpt>
      <trkpt lat="43.73355" lon="3.61065">
        <ele>271</ele>
        <time>2022-05-12T07:07:03.361Z</time>
      </trkpt>
      <trkpt lat="43.73358" lon="3.61067">
        <ele>271</ele>
        <time>2022-05-12T07:07:03.971Z</time>
      </trkpt>
      <trkpt lat="43.7336" lon="3.61068">
        <ele>271</ele>
        <time>2022-05-12T07:07:04.360Z</time>
      </trkpt>
      <trkpt lat="43.73362" lon="3.61069">
        <ele>271</ele>
        <time>2022-05-12T07:07:04.749Z</time>
      </trkpt>
      <trkpt lat="43.73364" lon="3.6107">
        <ele>272</ele>
        <time>2022-05-12T07:07:06.250Z</time>
      </trkpt>
      <trkpt lat="43.73366" lon="3.61071">
        <ele>272</ele>
        <time>2022-05-12T07:07:06.639Z</time>
      </trkpt>
      <trkpt lat="43.73367" lon="3.61072">
        <ele>272</ele>
        <time>2022-05-12T07:07:06.864Z</time>
      </trkpt>
      <trkpt lat="43.73369" lon="3.61074">
        <ele>272</ele>
        <time>2022-05-12T07:07:07.316Z</time>
      </trkpt>
      <trkpt lat="43.73371" lon="3.61075">
        <ele>272</ele>
        <time>2022-05-12T07:07:07.705Z</time>
      </trkpt>
      <trkpt lat="43.73373" lon="3.61077">
        <ele>272</ele>
        <time>2022-05-12T07:07:08.156Z</time>
      </trkpt>
      <trkpt lat="43.73375" lon="3.61079">
        <ele>272</ele>
        <time>2022-05-12T07:07:08.608Z</time>
      </trkpt>
      <trkpt lat="43.73376" lon="3.6108">
        <ele>272</ele>
        <time>2022-05-12T07:07:08.833Z</time>
      </trkpt>
      <trkpt lat="43.73378" lon="3.61082">
        <ele>272</ele>
        <time>2022-05-12T07:07:09.285Z</time>
      </trkpt>
      <trkpt lat="43.73379" lon="3.61085">
        <ele>272</ele>
        <time>2022-05-12T07:07:09.722Z</time>
      </trkpt>
      <trkpt lat="43.73381" lon="3.61087">
        <ele>274</ele>
        <time>2022-05-12T07:07:11.463Z</time>
      </trkpt>
      <trkpt lat="43.73382" lon="3.61089">
        <ele>274</ele>
        <time>2022-05-12T07:07:11.784Z</time>
      </trkpt>
      <trkpt lat="43.73383" lon="3.61092">
        <ele>274</ele>
        <time>2022-05-12T07:07:12.221Z</time>
      </trkpt>
      <trkpt lat="43.73384" lon="3.61094">
        <ele>274</ele>
        <time>2022-05-12T07:07:12.543Z</time>
      </trkpt>
      <trkpt lat="43.73386" lon="3.61097">
        <ele>274</ele>
        <time>2022-05-12T07:07:13.082Z</time>
      </trkpt>
      <trkpt lat="43.73387" lon="3.61099">
        <ele>274</ele>
        <time>2022-05-12T07:07:13.404Z</time>
      </trkpt>
      <trkpt lat="43.73388" lon="3.61102">
        <ele>274</ele>
        <time>2022-05-12T07:07:13.841Z</time>
      </trkpt>
      <trkpt lat="43.73389" lon="3.61105">
        <ele>274</ele>
        <time>2022-05-12T07:07:14.277Z</time>
      </trkpt>
      <trkpt lat="43.7339" lon="3.61108">
        <ele>274</ele>
        <time>2022-05-12T07:07:14.714Z</time>
      </trkpt>
      <trkpt lat="43.73391" lon="3.61111">
        <ele>274</ele>
        <time>2022-05-12T07:07:15.151Z</time>
      </trkpt>
      <trkpt lat="43.73392" lon="3.61114">
        <ele>275</ele>
        <time>2022-05-12T07:07:16.836Z</time>
      </trkpt>
      <trkpt lat="43.73393" lon="3.61117">
        <ele>275</ele>
        <time>2022-05-12T07:07:17.272Z</time>
      </trkpt>
      <trkpt lat="43.73394" lon="3.6112">
        <ele>275</ele>
        <time>2022-05-12T07:07:17.709Z</time>
      </trkpt>
      <trkpt lat="43.73395" lon="3.61123">
        <ele>275</ele>
        <time>2022-05-12T07:07:18.146Z</time>
      </trkpt>
      <trkpt lat="43.73396" lon="3.61126">
        <ele>275</ele>
        <time>2022-05-12T07:07:18.583Z</time>
      </trkpt>
      <trkpt lat="43.73397" lon="3.6113">
        <ele>275</ele>
        <time>2022-05-12T07:07:19.142Z</time>
      </trkpt>
      <trkpt lat="43.73398" lon="3.61133">
        <ele>275</ele>
        <time>2022-05-12T07:07:19.579Z</time>
      </trkpt>
      <trkpt lat="43.73399" lon="3.61137">
        <ele>275</ele>
        <time>2022-05-12T07:07:20.138Z</time>
      </trkpt>
      <trkpt lat="43.73401" lon="3.6114">
        <ele>275</ele>
        <time>2022-05-12T07:07:20.678Z</time>
      </trkpt>
      <trkpt lat="43.73402" lon="3.61144">
        <ele>275</ele>
        <time>2022-05-12T07:07:21.238Z</time>
      </trkpt>
      <trkpt lat="43.73403" lon="3.61147">
        <ele>276</ele>
        <time>2022-05-12T07:07:22.922Z</time>
      </trkpt>
      <trkpt lat="43.73405" lon="3.6115">
        <ele>276</ele>
        <time>2022-05-12T07:07:23.462Z</time>
      </trkpt>
      <trkpt lat="43.73407" lon="3.61154">
        <ele>276</ele>
        <time>2022-05-12T07:07:24.105Z</time>
      </trkpt>
      <trkpt lat="43.73409" lon="3.61156">
        <ele>276</ele>
        <time>2022-05-12T07:07:24.556Z</time>
      </trkpt>
      <trkpt lat="43.73411" lon="3.61159">
        <ele>276</ele>
        <time>2022-05-12T07:07:25.096Z</time>
      </trkpt>
      <trkpt lat="43.73414" lon="3.61162">
        <ele>276</ele>
        <time>2022-05-12T07:07:25.773Z</time>
      </trkpt>
      <trkpt lat="43.73416" lon="3.61164">
        <ele>276</ele>
        <time>2022-05-12T07:07:26.225Z</time>
      </trkpt>
      <trkpt lat="43.73419" lon="3.61166">
        <ele>276</ele>
        <time>2022-05-12T07:07:26.834Z</time>
      </trkpt>
      <trkpt lat="43.73421" lon="3.61169">
        <ele>276</ele>
        <time>2022-05-12T07:07:27.373Z</time>
      </trkpt>
      <trkpt lat="43.73423" lon="3.61171">
        <ele>276</ele>
        <time>2022-05-12T07:07:27.825Z</time>
      </trkpt>
      <trkpt lat="43.73425" lon="3.61174">
        <ele>277</ele>
        <time>2022-05-12T07:07:29.906Z</time>
      </trkpt>
      <trkpt lat="43.73427" lon="3.61177">
        <ele>277</ele>
        <time>2022-05-12T07:07:30.446Z</time>
      </trkpt>
      <trkpt lat="43.73429" lon="3.61179">
        <ele>277</ele>
        <time>2022-05-12T07:07:30.897Z</time>
      </trkpt>
      <trkpt lat="43.73431" lon="3.61182">
        <ele>277</ele>
        <time>2022-05-12T07:07:31.437Z</time>
      </trkpt>
      <trkpt lat="43.73433" lon="3.61184">
        <ele>277</ele>
        <time>2022-05-12T07:07:31.888Z</time>
      </trkpt>
      <trkpt lat="43.73436" lon="3.61186">
        <ele>277</ele>
        <time>2022-05-12T07:07:32.498Z</time>
      </trkpt>
      <trkpt lat="43.73438" lon="3.61189">
        <ele>277</ele>
        <time>2022-05-12T07:07:33.037Z</time>
      </trkpt>
      <trkpt lat="43.7344" lon="3.61191">
        <ele>277</ele>
        <time>2022-05-12T07:07:33.489Z</time>
      </trkpt>
      <trkpt lat="43.73443" lon="3.61193">
        <ele>277</ele>
        <time>2022-05-12T07:07:34.098Z</time>
      </trkpt>
      <trkpt lat="43.73445" lon="3.61195">
        <ele>277</ele>
        <time>2022-05-12T07:07:34.549Z</time>
      </trkpt>
      <trkpt lat="43.73448" lon="3.61197">
        <ele>279</ele>
        <time>2022-05-12T07:07:36.899Z</time>
      </trkpt>
      <trkpt lat="43.7345" lon="3.612">
        <ele>279</ele>
        <time>2022-05-12T07:07:37.439Z</time>
      </trkpt>
      <trkpt lat="43.73452" lon="3.61202">
        <ele>279</ele>
        <time>2022-05-12T07:07:37.890Z</time>
      </trkpt>
      <trkpt lat="43.73454" lon="3.61205">
        <ele>279</ele>
        <time>2022-05-12T07:07:38.430Z</time>
      </trkpt>
      <trkpt lat="43.73457" lon="3.61208">
        <ele>279</ele>
        <time>2022-05-12T07:07:39.107Z</time>
      </trkpt>
      <trkpt lat="43.73459" lon="3.6121">
        <ele>279</ele>
        <time>2022-05-12T07:07:39.558Z</time>
      </trkpt>
      <trkpt lat="43.73461" lon="3.61213">
        <ele>279</ele>
        <time>2022-05-12T07:07:40.098Z</time>
      </trkpt>
      <trkpt lat="43.73463" lon="3.61216">
        <ele>279</ele>
        <time>2022-05-12T07:07:40.638Z</time>
      </trkpt>
      <trkpt lat="43.73465" lon="3.61219">
        <ele>279</ele>
        <time>2022-05-12T07:07:41.177Z</time>
      </trkpt>
      <trkpt lat="43.73467" lon="3.61222">
        <ele>279</ele>
        <time>2022-05-12T07:07:41.717Z</time>
      </trkpt>
      <trkpt lat="43.73469" lon="3.61226">
        <ele>280</ele>
        <time>2022-05-12T07:07:44.197Z</time>
      </trkpt>
      <trkpt lat="43.73471" lon="3.61229">
        <ele>280</ele>
        <time>2022-05-12T07:07:44.737Z</time>
      </trkpt>
      <trkpt lat="43.73472" lon="3.61232">
        <ele>280</ele>
        <time>2022-05-12T07:07:45.174Z</time>
      </trkpt>
      <trkpt lat="43.73474" lon="3.61236">
        <ele>280</ele>
        <time>2022-05-12T07:07:45.817Z</time>
      </trkpt>
      <trkpt lat="43.73476" lon="3.61239">
        <ele>280</ele>
        <time>2022-05-12T07:07:46.356Z</time>
      </trkpt>
      <trkpt lat="43.73478" lon="3.61243">
        <ele>280</ele>
        <time>2022-05-12T07:07:46.999Z</time>
      </trkpt>
      <trkpt lat="43.7348" lon="3.61247">
        <ele>280</ele>
        <time>2022-05-12T07:07:47.642Z</time>
      </trkpt>
      <trkpt lat="43.73482" lon="3.61251">
        <ele>280</ele>
        <time>2022-05-12T07:07:48.285Z</time>
      </trkpt>
      <trkpt lat="43.73483" lon="3.61255">
        <ele>280</ele>
        <time>2022-05-12T07:07:48.845Z</time>
      </trkpt>
      <trkpt lat="43.73485" lon="3.61259">
        <ele>280</ele>
        <time>2022-05-12T07:07:49.488Z</time>
      </trkpt>
      <trkpt lat="43.73487" lon="3.61263">
        <ele>281</ele>
        <time>2022-05-12T07:07:51.968Z</time>
      </trkpt>
      <trkpt lat="43.73489" lon="3.61266">
        <ele>281</ele>
        <time>2022-05-12T07:07:52.508Z</time>
      </trkpt>
      <trkpt lat="43.73491" lon="3.6127">
        <ele>281</ele>
        <time>2022-05-12T07:07:53.151Z</time>
      </trkpt>
      <trkpt lat="43.73493" lon="3.61274">
        <ele>281</ele>
        <time>2022-05-12T07:07:53.794Z</time>
      </trkpt>
      <trkpt lat="43.73495" lon="3.61278">
        <ele>281</ele>
        <time>2022-05-12T07:07:54.437Z</time>
      </trkpt>
      <trkpt lat="43.73497" lon="3.61281">
        <ele>281</ele>
        <time>2022-05-12T07:07:54.977Z</time>
      </trkpt>
      <trkpt lat="43.73499" lon="3.61285">
        <ele>281</ele>
        <time>2022-05-12T07:07:55.620Z</time>
      </trkpt>
      <trkpt lat="43.73501" lon="3.61288">
        <ele>281</ele>
        <time>2022-05-12T07:07:56.159Z</time>
      </trkpt>
      <trkpt lat="43.73503" lon="3.61292">
        <ele>281</ele>
        <time>2022-05-12T07:07:56.802Z</time>
      </trkpt>
      <trkpt lat="43.73506" lon="3.61296">
        <ele>281</ele>
        <time>2022-05-12T07:07:57.564Z</time>
      </trkpt>
      <trkpt lat="43.73508" lon="3.61299">
        <ele>281</ele>
        <time>2022-05-12T07:07:58.104Z</time>
      </trkpt>
      <trkpt lat="43.7351" lon="3.61302">
        <ele>282</ele>
        <time>2022-05-12T07:08:00.185Z</time>
      </trkpt>
      <trkpt lat="43.73513" lon="3.61305">
        <ele>282</ele>
        <time>2022-05-12T07:08:00.863Z</time>
      </trkpt>
      <trkpt lat="43.73515" lon="3.61308">
        <ele>282</ele>
        <time>2022-05-12T07:08:01.402Z</time>
      </trkpt>
      <trkpt lat="43.73517" lon="3.6131">
        <ele>282</ele>
        <time>2022-05-12T07:08:01.854Z</time>
      </trkpt>
      <trkpt lat="43.73518" lon="3.6131">
        <ele>282</ele>
        <time>2022-05-12T07:08:02.037Z</time>
      </trkpt>
      <trkpt lat="43.73521" lon="3.61308">
        <ele>282</ele>
        <time>2022-05-12T07:08:02.646Z</time>
      </trkpt>
      <trkpt lat="43.73521" lon="3.61304">
        <ele>282</ele>
        <time>2022-05-12T07:08:03.175Z</time>
      </trkpt>
      <trkpt lat="43.73522" lon="3.61299">
        <ele>283</ele>
        <time>2022-05-12T07:08:05.820Z</time>
      </trkpt>
      <trkpt lat="43.73524" lon="3.61295">
        <ele>283</ele>
        <time>2022-05-12T07:08:06.463Z</time>
      </trkpt>
      <trkpt lat="43.73525" lon="3.61291">
        <ele>283</ele>
        <time>2022-05-12T07:08:07.023Z</time>
      </trkpt>
      <trkpt lat="43.73526" lon="3.61287">
        <ele>283</ele>
        <time>2022-05-12T07:08:07.582Z</time>
      </trkpt>
      <trkpt lat="43.73527" lon="3.61282">
        <ele>284</ele>
        <time>2022-05-12T07:08:10.227Z</time>
      </trkpt>
      <trkpt lat="43.73528" lon="3.61278">
        <ele>284</ele>
        <time>2022-05-12T07:08:10.787Z</time>
      </trkpt>
      <trkpt lat="43.73529" lon="3.61274">
        <ele>284</ele>
        <time>2022-05-12T07:08:11.346Z</time>
      </trkpt>
      <trkpt lat="43.73531" lon="3.61269">
        <ele>284</ele>
        <time>2022-05-12T07:08:12.102Z</time>
      </trkpt>
      <trkpt lat="43.73531" lon="3.61267">
        <ele>284</ele>
        <time>2022-05-12T07:08:12.366Z</time>
      </trkpt>
      <trkpt lat="43.73533" lon="3.61262">
        <ele>284</ele>
        <time>2022-05-12T07:08:13.122Z</time>
      </trkpt>
      <trkpt lat="43.73534" lon="3.61257">
        <ele>286</ele>
        <time>2022-05-12T07:08:15.767Z</time>
      </trkpt>
      <trkpt lat="43.73534" lon="3.61255">
        <ele>286</ele>
        <time>2022-05-12T07:08:16.032Z</time>
      </trkpt>
      <trkpt lat="43.73534" lon="3.61252">
        <ele>286</ele>
        <time>2022-05-12T07:08:16.428Z</time>
      </trkpt>
      <trkpt lat="43.73534" lon="3.61249">
        <ele>286</ele>
        <time>2022-05-12T07:08:16.825Z</time>
      </trkpt>
      <trkpt lat="43.73534" lon="3.61246">
        <ele>286</ele>
        <time>2022-05-12T07:08:17.221Z</time>
      </trkpt>
      <trkpt lat="43.73535" lon="3.61244">
        <ele>286</ele>
        <time>2022-05-12T07:08:17.543Z</time>
      </trkpt>
      <trkpt lat="43.73535" lon="3.61241">
        <ele>286</ele>
        <time>2022-05-12T07:08:17.939Z</time>
      </trkpt>
      <trkpt lat="43.73535" lon="3.61238">
        <ele>286</ele>
        <time>2022-05-12T07:08:18.336Z</time>
      </trkpt>
      <trkpt lat="43.73536" lon="3.61235">
        <ele>286</ele>
        <time>2022-05-12T07:08:18.773Z</time>
      </trkpt>
      <trkpt lat="43.73537" lon="3.61232">
        <ele>286</ele>
        <time>2022-05-12T07:08:19.210Z</time>
      </trkpt>
      <trkpt lat="43.73538" lon="3.61229">
        <ele>287</ele>
        <time>2022-05-12T07:08:20.894Z</time>
      </trkpt>
      <trkpt lat="43.73539" lon="3.61226">
        <ele>287</ele>
        <time>2022-05-12T07:08:21.331Z</time>
      </trkpt>
      <trkpt lat="43.73539" lon="3.61223">
        <ele>287</ele>
        <time>2022-05-12T07:08:21.727Z</time>
      </trkpt>
      <trkpt lat="43.7354" lon="3.6122">
        <ele>287</ele>
        <time>2022-05-12T07:08:22.164Z</time>
      </trkpt>
      <trkpt lat="43.73541" lon="3.61218">
        <ele>287</ele>
        <time>2022-05-12T07:08:22.486Z</time>
      </trkpt>
      <trkpt lat="43.73542" lon="3.61215">
        <ele>287</ele>
        <time>2022-05-12T07:08:22.922Z</time>
      </trkpt>
      <trkpt lat="43.73543" lon="3.61212">
        <ele>287</ele>
        <time>2022-05-12T07:08:23.359Z</time>
      </trkpt>
      <trkpt lat="43.73545" lon="3.61209">
        <ele>287</ele>
        <time>2022-05-12T07:08:23.899Z</time>
      </trkpt>
      <trkpt lat="43.73546" lon="3.61207">
        <ele>287</ele>
        <time>2022-05-12T07:08:24.220Z</time>
      </trkpt>
      <trkpt lat="43.73547" lon="3.61204">
        <ele>288</ele>
        <time>2022-05-12T07:08:25.905Z</time>
      </trkpt>
      <trkpt lat="43.73547" lon="3.61202">
        <ele>288</ele>
        <time>2022-05-12T07:08:26.169Z</time>
      </trkpt>
      <trkpt lat="43.73548" lon="3.61199">
        <ele>288</ele>
        <time>2022-05-12T07:08:26.606Z</time>
      </trkpt>
      <trkpt lat="43.73549" lon="3.61195">
        <ele>288</ele>
        <time>2022-05-12T07:08:27.166Z</time>
      </trkpt>
      <trkpt lat="43.73549" lon="3.61192">
        <ele>288</ele>
        <time>2022-05-12T07:08:27.562Z</time>
      </trkpt>
      <trkpt lat="43.7355" lon="3.61189">
        <ele>288</ele>
        <time>2022-05-12T07:08:27.999Z</time>
      </trkpt>
      <trkpt lat="43.73551" lon="3.61185">
        <ele>288</ele>
        <time>2022-05-12T07:08:28.559Z</time>
      </trkpt>
      <trkpt lat="43.73552" lon="3.61181">
        <ele>288</ele>
        <time>2022-05-12T07:08:29.118Z</time>
      </trkpt>
      <trkpt lat="43.73553" lon="3.61177">
        <ele>288</ele>
        <time>2022-05-12T07:08:29.678Z</time>
      </trkpt>
      <trkpt lat="43.73554" lon="3.61174">
        <ele>288</ele>
        <time>2022-05-12T07:08:30.114Z</time>
      </trkpt>
      <trkpt lat="43.73555" lon="3.6117">
        <ele>289</ele>
        <time>2022-05-12T07:08:32.273Z</time>
      </trkpt>
      <trkpt lat="43.73556" lon="3.61167">
        <ele>289</ele>
        <time>2022-05-12T07:08:32.709Z</time>
      </trkpt>
      <trkpt lat="43.73557" lon="3.61164">
        <ele>289</ele>
        <time>2022-05-12T07:08:33.146Z</time>
      </trkpt>
      <trkpt lat="43.73558" lon="3.6116">
        <ele>289</ele>
        <time>2022-05-12T07:08:33.706Z</time>
      </trkpt>
      <trkpt lat="43.73559" lon="3.61157">
        <ele>289</ele>
        <time>2022-05-12T07:08:34.142Z</time>
      </trkpt>
      <trkpt lat="43.7356" lon="3.61153">
        <ele>289</ele>
        <time>2022-05-12T07:08:34.702Z</time>
      </trkpt>
      <trkpt lat="43.73561" lon="3.61149">
        <ele>289</ele>
        <time>2022-05-12T07:08:35.261Z</time>
      </trkpt>
      <trkpt lat="43.73562" lon="3.61146">
        <ele>289</ele>
        <time>2022-05-12T07:08:35.698Z</time>
      </trkpt>
      <trkpt lat="43.73563" lon="3.61142">
        <ele>289</ele>
        <time>2022-05-12T07:08:36.258Z</time>
      </trkpt>
      <trkpt lat="43.73563" lon="3.61139">
        <ele>289</ele>
        <time>2022-05-12T07:08:36.654Z</time>
      </trkpt>
      <trkpt lat="43.73564" lon="3.61136">
        <ele>290</ele>
        <time>2022-05-12T07:08:38.339Z</time>
      </trkpt>
      <trkpt lat="43.73565" lon="3.61133">
        <ele>290</ele>
        <time>2022-05-12T07:08:38.776Z</time>
      </trkpt>
      <trkpt lat="43.73566" lon="3.61129">
        <ele>290</ele>
        <time>2022-05-12T07:08:39.335Z</time>
      </trkpt>
      <trkpt lat="43.73567" lon="3.61126">
        <ele>290</ele>
        <time>2022-05-12T07:08:39.772Z</time>
      </trkpt>
      <trkpt lat="43.73568" lon="3.61122">
        <ele>290</ele>
        <time>2022-05-12T07:08:40.331Z</time>
      </trkpt>
      <trkpt lat="43.73569" lon="3.61119">
        <ele>290</ele>
        <time>2022-05-12T07:08:40.768Z</time>
      </trkpt>
      <trkpt lat="43.7357" lon="3.61115">
        <ele>290</ele>
        <time>2022-05-12T07:08:41.328Z</time>
      </trkpt>
      <trkpt lat="43.73571" lon="3.61111">
        <ele>290</ele>
        <time>2022-05-12T07:08:41.887Z</time>
      </trkpt>
      <trkpt lat="43.73572" lon="3.61108">
        <ele>290</ele>
        <time>2022-05-12T07:08:42.324Z</time>
      </trkpt>
      <trkpt lat="43.73574" lon="3.61103">
        <ele>290</ele>
        <time>2022-05-12T07:08:43.080Z</time>
      </trkpt>
      <trkpt lat="43.73575" lon="3.61099">
        <ele>289</ele>
        <time>2022-05-12T07:08:43.352Z</time>
      </trkpt>
      <trkpt lat="43.73576" lon="3.61094">
        <ele>289</ele>
        <time>2022-05-12T07:08:44.038Z</time>
      </trkpt>
      <trkpt lat="43.73577" lon="3.61088">
        <ele>289</ele>
        <time>2022-05-12T07:08:44.852Z</time>
      </trkpt>
      <trkpt lat="43.73579" lon="3.61083">
        <ele>289</ele>
        <time>2022-05-12T07:08:45.607Z</time>
      </trkpt>
      <trkpt lat="43.7358" lon="3.61078">
        <ele>289</ele>
        <time>2022-05-12T07:08:46.293Z</time>
      </trkpt>
      <trkpt lat="43.73581" lon="3.61074">
        <ele>289</ele>
        <time>2022-05-12T07:08:46.852Z</time>
      </trkpt>
      <trkpt lat="43.73583" lon="3.61069">
        <ele>289</ele>
        <time>2022-05-12T07:08:47.608Z</time>
      </trkpt>
      <trkpt lat="43.73584" lon="3.61063">
        <ele>289</ele>
        <time>2022-05-12T07:08:48.422Z</time>
      </trkpt>
      <trkpt lat="43.73585" lon="3.61058">
        <ele>289</ele>
        <time>2022-05-12T07:08:49.108Z</time>
      </trkpt>
      <trkpt lat="43.73587" lon="3.61052">
        <ele>289</ele>
        <time>2022-05-12T07:08:49.981Z</time>
      </trkpt>
      <trkpt lat="43.73588" lon="3.61046">
        <ele>288</ele>
        <time>2022-05-12T07:08:50.377Z</time>
      </trkpt>
      <trkpt lat="43.7359" lon="3.61039">
        <ele>288</ele>
        <time>2022-05-12T07:08:51.372Z</time>
      </trkpt>
      <trkpt lat="43.73592" lon="3.61033">
        <ele>288</ele>
        <time>2022-05-12T07:08:52.246Z</time>
      </trkpt>
      <trkpt lat="43.73594" lon="3.61026">
        <ele>288</ele>
        <time>2022-05-12T07:08:53.241Z</time>
      </trkpt>
      <trkpt lat="43.73596" lon="3.61019">
        <ele>288</ele>
        <time>2022-05-12T07:08:54.236Z</time>
      </trkpt>
      <trkpt lat="43.73598" lon="3.61012">
        <ele>288</ele>
        <time>2022-05-12T07:08:55.231Z</time>
      </trkpt>
      <trkpt lat="43.736" lon="3.61006">
        <ele>288</ele>
        <time>2022-05-12T07:08:56.105Z</time>
      </trkpt>
      <trkpt lat="43.73602" lon="3.60998">
        <ele>288</ele>
        <time>2022-05-12T07:08:57.224Z</time>
      </trkpt>
      <trkpt lat="43.73603" lon="3.6099">
        <ele>288</ele>
        <time>2022-05-12T07:08:58.297Z</time>
      </trkpt>
      <trkpt lat="43.73606" lon="3.60982">
        <ele>288</ele>
        <time>2022-05-12T07:08:59.488Z</time>
      </trkpt>
      <trkpt lat="43.73608" lon="3.60973">
        <ele>287</ele>
        <time>2022-05-12T07:09:00.094Z</time>
      </trkpt>
      <trkpt lat="43.7361" lon="3.60964">
        <ele>287</ele>
        <time>2022-05-12T07:09:01.339Z</time>
      </trkpt>
      <trkpt lat="43.73613" lon="3.60955">
        <ele>287</ele>
        <time>2022-05-12T07:09:02.649Z</time>
      </trkpt>
      <trkpt lat="43.73615" lon="3.60946">
        <ele>287</ele>
        <time>2022-05-12T07:09:03.894Z</time>
      </trkpt>
      <trkpt lat="43.73617" lon="3.60938">
        <ele>287</ele>
        <time>2022-05-12T07:09:05.013Z</time>
      </trkpt>
      <trkpt lat="43.7362" lon="3.60929">
        <ele>287</ele>
        <time>2022-05-12T07:09:06.323Z</time>
      </trkpt>
      <trkpt lat="43.73622" lon="3.60921">
        <ele>287</ele>
        <time>2022-05-12T07:09:07.442Z</time>
      </trkpt>
      <trkpt lat="43.73625" lon="3.60914">
        <ele>287</ele>
        <time>2022-05-12T07:09:08.518Z</time>
      </trkpt>
      <trkpt lat="43.73627" lon="3.60907">
        <ele>287</ele>
        <time>2022-05-12T07:09:09.513Z</time>
      </trkpt>
      <trkpt lat="43.73629" lon="3.609">
        <ele>287</ele>
        <time>2022-05-12T07:09:10.508Z</time>
      </trkpt>
      <trkpt lat="43.73632" lon="3.60894">
        <ele>287</ele>
        <time>2022-05-12T07:09:11.473Z</time>
      </trkpt>
      <trkpt lat="43.73634" lon="3.60887">
        <ele>286</ele>
        <time>2022-05-12T07:09:11.957Z</time>
      </trkpt>
      <trkpt lat="43.73636" lon="3.60881">
        <ele>286</ele>
        <time>2022-05-12T07:09:12.831Z</time>
      </trkpt>
      <trkpt lat="43.73637" lon="3.60875">
        <ele>286</ele>
        <time>2022-05-12T07:09:13.644Z</time>
      </trkpt>
      <trkpt lat="43.73639" lon="3.60869">
        <ele>286</ele>
        <time>2022-05-12T07:09:14.518Z</time>
      </trkpt>
      <trkpt lat="43.7364" lon="3.60863">
        <ele>286</ele>
        <time>2022-05-12T07:09:15.332Z</time>
      </trkpt>
      <trkpt lat="43.73641" lon="3.60858">
        <ele>286</ele>
        <time>2022-05-12T07:09:16.018Z</time>
      </trkpt>
      <trkpt lat="43.73643" lon="3.60853">
        <ele>286</ele>
        <time>2022-05-12T07:09:16.773Z</time>
      </trkpt>
      <trkpt lat="43.73644" lon="3.60848">
        <ele>286</ele>
        <time>2022-05-12T07:09:17.459Z</time>
      </trkpt>
      <trkpt lat="43.73645" lon="3.60843">
        <ele>286</ele>
        <time>2022-05-12T07:09:18.145Z</time>
      </trkpt>
      <trkpt lat="43.73647" lon="3.60839">
        <ele>284</ele>
        <time>2022-05-12T07:09:18.458Z</time>
      </trkpt>
      <trkpt lat="43.73649" lon="3.60833">
        <ele>284</ele>
        <time>2022-05-12T07:09:19.331Z</time>
      </trkpt>
      <trkpt lat="43.7365" lon="3.60828">
        <ele>284</ele>
        <time>2022-05-12T07:09:20.017Z</time>
      </trkpt>
      <trkpt lat="43.73651" lon="3.60823">
        <ele>284</ele>
        <time>2022-05-12T07:09:20.703Z</time>
      </trkpt>
      <trkpt lat="43.73653" lon="3.60817">
        <ele>284</ele>
        <time>2022-05-12T07:09:21.576Z</time>
      </trkpt>
      <trkpt lat="43.73654" lon="3.60811">
        <ele>284</ele>
        <time>2022-05-12T07:09:22.390Z</time>
      </trkpt>
      <trkpt lat="43.73656" lon="3.60804">
        <ele>284</ele>
        <time>2022-05-12T07:09:23.385Z</time>
      </trkpt>
      <trkpt lat="43.73658" lon="3.60797">
        <ele>284</ele>
        <time>2022-05-12T07:09:24.381Z</time>
      </trkpt>
      <trkpt lat="43.7366" lon="3.6079">
        <ele>284</ele>
        <time>2022-05-12T07:09:25.376Z</time>
      </trkpt>
      <trkpt lat="43.73662" lon="3.60784">
        <ele>284</ele>
        <time>2022-05-12T07:09:26.249Z</time>
      </trkpt>
      <trkpt lat="43.73664" lon="3.60778">
        <ele>282</ele>
        <time>2022-05-12T07:09:26.674Z</time>
      </trkpt>
      <trkpt lat="43.73666" lon="3.60771">
        <ele>282</ele>
        <time>2022-05-12T07:09:27.669Z</time>
      </trkpt>
      <trkpt lat="43.73668" lon="3.60764">
        <ele>282</ele>
        <time>2022-05-12T07:09:28.664Z</time>
      </trkpt>
      <trkpt lat="43.7367" lon="3.60757">
        <ele>282</ele>
        <time>2022-05-12T07:09:29.659Z</time>
      </trkpt>
      <trkpt lat="43.73672" lon="3.6075">
        <ele>282</ele>
        <time>2022-05-12T07:09:30.654Z</time>
      </trkpt>
      <trkpt lat="43.73674" lon="3.60743">
        <ele>282</ele>
        <time>2022-05-12T07:09:31.649Z</time>
      </trkpt>
      <trkpt lat="43.73676" lon="3.60735">
        <ele>282</ele>
        <time>2022-05-12T07:09:32.769Z</time>
      </trkpt>
      <trkpt lat="43.73679" lon="3.60726">
        <ele>282</ele>
        <time>2022-05-12T07:09:34.079Z</time>
      </trkpt>
      <trkpt lat="43.73681" lon="3.60718">
        <ele>282</ele>
        <time>2022-05-12T07:09:35.198Z</time>
      </trkpt>
      <trkpt lat="43.73683" lon="3.60709">
        <ele>282</ele>
        <time>2022-05-12T07:09:36.443Z</time>
      </trkpt>
      <trkpt lat="43.73685" lon="3.60701">
        <ele>280</ele>
        <time>2022-05-12T07:09:36.987Z</time>
      </trkpt>
      <trkpt lat="43.73687" lon="3.60693">
        <ele>280</ele>
        <time>2022-05-12T07:09:38.106Z</time>
      </trkpt>
      <trkpt lat="43.73689" lon="3.60685">
        <ele>280</ele>
        <time>2022-05-12T07:09:39.225Z</time>
      </trkpt>
      <trkpt lat="43.73691" lon="3.60676">
        <ele>280</ele>
        <time>2022-05-12T07:09:40.470Z</time>
      </trkpt>
      <trkpt lat="43.73694" lon="3.60668">
        <ele>280</ele>
        <time>2022-05-12T07:09:41.661Z</time>
      </trkpt>
      <trkpt lat="43.73697" lon="3.60659">
        <ele>280</ele>
        <time>2022-05-12T07:09:42.972Z</time>
      </trkpt>
      <trkpt lat="43.73699" lon="3.60651">
        <ele>280</ele>
        <time>2022-05-12T07:09:44.091Z</time>
      </trkpt>
      <trkpt lat="43.73701" lon="3.60642">
        <ele>280</ele>
        <time>2022-05-12T07:09:45.335Z</time>
      </trkpt>
      <trkpt lat="43.73703" lon="3.60634">
        <ele>280</ele>
        <time>2022-05-12T07:09:46.454Z</time>
      </trkpt>
      <trkpt lat="43.73706" lon="3.60626">
        <ele>280</ele>
        <time>2022-05-12T07:09:47.646Z</time>
      </trkpt>
      <trkpt lat="43.73708" lon="3.60618">
        <ele>275</ele>
        <time>2022-05-12T07:09:48.190Z</time>
      </trkpt>
      <trkpt lat="43.7371" lon="3.6061">
        <ele>275</ele>
        <time>2022-05-12T07:09:49.309Z</time>
      </trkpt>
      <trkpt lat="43.73712" lon="3.60602">
        <ele>275</ele>
        <time>2022-05-12T07:09:50.428Z</time>
      </trkpt>
      <trkpt lat="43.73714" lon="3.60594">
        <ele>275</ele>
        <time>2022-05-12T07:09:51.548Z</time>
      </trkpt>
      <trkpt lat="43.73716" lon="3.60587">
        <ele>275</ele>
        <time>2022-05-12T07:09:52.543Z</time>
      </trkpt>
      <trkpt lat="43.73717" lon="3.60579">
        <ele>275</ele>
        <time>2022-05-12T07:09:53.616Z</time>
      </trkpt>
      <trkpt lat="43.73719" lon="3.60572">
        <ele>275</ele>
        <time>2022-05-12T07:09:54.611Z</time>
      </trkpt>
      <trkpt lat="43.73721" lon="3.60564">
        <ele>275</ele>
        <time>2022-05-12T07:09:55.730Z</time>
      </trkpt>
      <trkpt lat="43.73724" lon="3.60556">
        <ele>275</ele>
        <time>2022-05-12T07:09:56.921Z</time>
      </trkpt>
      <trkpt lat="43.73726" lon="3.60547">
        <ele>275</ele>
        <time>2022-05-12T07:09:58.166Z</time>
      </trkpt>
      <trkpt lat="43.73729" lon="3.60539">
        <ele>270</ele>
        <time>2022-05-12T07:09:58.746Z</time>
      </trkpt>
      <trkpt lat="43.73731" lon="3.60531">
        <ele>270</ele>
        <time>2022-05-12T07:09:59.865Z</time>
      </trkpt>
      <trkpt lat="43.73734" lon="3.60522">
        <ele>270</ele>
        <time>2022-05-12T07:10:01.175Z</time>
      </trkpt>
      <trkpt lat="43.73737" lon="3.60513">
        <ele>270</ele>
        <time>2022-05-12T07:10:02.485Z</time>
      </trkpt>
      <trkpt lat="43.73739" lon="3.60504">
        <ele>270</ele>
        <time>2022-05-12T07:10:03.730Z</time>
      </trkpt>
      <trkpt lat="43.73741" lon="3.60497">
        <ele>270</ele>
        <time>2022-05-12T07:10:04.725Z</time>
      </trkpt>
      <trkpt lat="43.73743" lon="3.6049">
        <ele>270</ele>
        <time>2022-05-12T07:10:05.720Z</time>
      </trkpt>
      <trkpt lat="43.73744" lon="3.60484">
        <ele>270</ele>
        <time>2022-05-12T07:10:06.534Z</time>
      </trkpt>
      <trkpt lat="43.73745" lon="3.60479">
        <ele>270</ele>
        <time>2022-05-12T07:10:07.220Z</time>
      </trkpt>
      <trkpt lat="43.73746" lon="3.60474">
        <ele>270</ele>
        <time>2022-05-12T07:10:07.906Z</time>
      </trkpt>
      <trkpt lat="43.73747" lon="3.6047">
        <ele>264</ele>
        <time>2022-05-12T07:10:08.178Z</time>
      </trkpt>
      <trkpt lat="43.73748" lon="3.60467">
        <ele>264</ele>
        <time>2022-05-12T07:10:08.615Z</time>
      </trkpt>
      <trkpt lat="43.73748" lon="3.60463">
        <ele>264</ele>
        <time>2022-05-12T07:10:09.144Z</time>
      </trkpt>
      <trkpt lat="43.73746" lon="3.60462">
        <ele>264</ele>
        <time>2022-05-12T07:10:09.533Z</time>
      </trkpt>
      <trkpt lat="43.73743" lon="3.60464">
        <ele>264</ele>
        <time>2022-05-12T07:10:10.142Z</time>
      </trkpt>
      <trkpt lat="43.73741" lon="3.60465">
        <ele>264</ele>
        <time>2022-05-12T07:10:10.531Z</time>
      </trkpt>
      <trkpt lat="43.73739" lon="3.60467">
        <ele>259</ele>
        <time>2022-05-12T07:10:10.751Z</time>
      </trkpt>
      <trkpt lat="43.73737" lon="3.60468">
        <ele>259</ele>
        <time>2022-05-12T07:10:11.140Z</time>
      </trkpt>
      <trkpt lat="43.73734" lon="3.6047">
        <ele>259</ele>
        <time>2022-05-12T07:10:11.749Z</time>
      </trkpt>
      <trkpt lat="43.73731" lon="3.6047">
        <ele>259</ele>
        <time>2022-05-12T07:10:12.298Z</time>
      </trkpt>
      <trkpt lat="43.73727" lon="3.60471">
        <ele>259</ele>
        <time>2022-05-12T07:10:13.041Z</time>
      </trkpt>
      <trkpt lat="43.73724" lon="3.60471">
        <ele>259</ele>
        <time>2022-05-12T07:10:13.590Z</time>
      </trkpt>
      <trkpt lat="43.73721" lon="3.60468">
        <ele>259</ele>
        <time>2022-05-12T07:10:14.267Z</time>
      </trkpt>
      <trkpt lat="43.7372" lon="3.60463">
        <ele>259</ele>
        <time>2022-05-12T07:10:14.953Z</time>
      </trkpt>
      <trkpt lat="43.73719" lon="3.60459">
        <ele>259</ele>
        <time>2022-05-12T07:10:15.513Z</time>
      </trkpt>
      <trkpt lat="43.73717" lon="3.60455">
        <ele>259</ele>
        <time>2022-05-12T07:10:16.156Z</time>
      </trkpt>
      <trkpt lat="43.73715" lon="3.60452">
        <ele>258</ele>
        <time>2022-05-12T07:10:16.418Z</time>
      </trkpt>
      <trkpt lat="43.73712" lon="3.60449">
        <ele>258</ele>
        <time>2022-05-12T07:10:17.095Z</time>
      </trkpt>
      <trkpt lat="43.73709" lon="3.60448">
        <ele>258</ele>
        <time>2022-05-12T07:10:17.660Z</time>
      </trkpt>
      <trkpt lat="43.73706" lon="3.60447">
        <ele>258</ele>
        <time>2022-05-12T07:10:18.225Z</time>
      </trkpt>
      <trkpt lat="43.73704" lon="3.60445">
        <ele>258</ele>
        <time>2022-05-12T07:10:18.676Z</time>
      </trkpt>
      <trkpt lat="43.73701" lon="3.60445">
        <ele>258</ele>
        <time>2022-05-12T07:10:19.225Z</time>
      </trkpt>
      <trkpt lat="43.73699" lon="3.60446">
        <ele>258</ele>
        <time>2022-05-12T07:10:19.614Z</time>
      </trkpt>
      <trkpt lat="43.73697" lon="3.60447">
        <ele>258</ele>
        <time>2022-05-12T07:10:20.003Z</time>
      </trkpt>
      <trkpt lat="43.73694" lon="3.60447">
        <ele>258</ele>
        <time>2022-05-12T07:10:20.552Z</time>
      </trkpt>
      <trkpt lat="43.73691" lon="3.60446">
        <ele>258</ele>
        <time>2022-05-12T07:10:21.117Z</time>
      </trkpt>
      <trkpt lat="43.73688" lon="3.60445">
        <ele>255</ele>
        <time>2022-05-12T07:10:21.391Z</time>
      </trkpt>
      <trkpt lat="43.73685" lon="3.60446">
        <ele>255</ele>
        <time>2022-05-12T07:10:21.956Z</time>
      </trkpt>
      <trkpt lat="43.73682" lon="3.60447">
        <ele>255</ele>
        <time>2022-05-12T07:10:22.520Z</time>
      </trkpt>
      <trkpt lat="43.73679" lon="3.60449">
        <ele>255</ele>
        <time>2022-05-12T07:10:23.130Z</time>
      </trkpt>
      <trkpt lat="43.73677" lon="3.60452">
        <ele>255</ele>
        <time>2022-05-12T07:10:23.669Z</time>
      </trkpt>
      <trkpt lat="43.73675" lon="3.60454">
        <ele>255</ele>
        <time>2022-05-12T07:10:24.121Z</time>
      </trkpt>
      <trkpt lat="43.73672" lon="3.60457">
        <ele>255</ele>
        <time>2022-05-12T07:10:24.798Z</time>
      </trkpt>
      <trkpt lat="43.7367" lon="3.6046">
        <ele>255</ele>
        <time>2022-05-12T07:10:25.337Z</time>
      </trkpt>
      <trkpt lat="43.73667" lon="3.60464">
        <ele>255</ele>
        <time>2022-05-12T07:10:26.100Z</time>
      </trkpt>
      <trkpt lat="43.73665" lon="3.60466">
        <ele>255</ele>
        <time>2022-05-12T07:10:26.551Z</time>
      </trkpt>
      <trkpt lat="43.73664" lon="3.60468">
        <ele>253</ele>
        <time>2022-05-12T07:10:26.707Z</time>
      </trkpt>
      <trkpt lat="43.73662" lon="3.6047">
        <ele>253</ele>
        <time>2022-05-12T07:10:27.159Z</time>
      </trkpt>
      <trkpt lat="43.73659" lon="3.60471">
        <ele>253</ele>
        <time>2022-05-12T07:10:27.723Z</time>
      </trkpt>
      <trkpt lat="43.73657" lon="3.60472">
        <ele>253</ele>
        <time>2022-05-12T07:10:28.112Z</time>
      </trkpt>
      <trkpt lat="43.73653" lon="3.60474">
        <ele>253</ele>
        <time>2022-05-12T07:10:28.891Z</time>
      </trkpt>
      <trkpt lat="43.7365" lon="3.60476">
        <ele>253</ele>
        <time>2022-05-12T07:10:29.500Z</time>
      </trkpt>
      <trkpt lat="43.73646" lon="3.60478">
        <ele>253</ele>
        <time>2022-05-12T07:10:30.278Z</time>
      </trkpt>
      <trkpt lat="43.73641" lon="3.6048">
        <ele>253</ele>
        <time>2022-05-12T07:10:31.230Z</time>
      </trkpt>
      <trkpt lat="43.73638" lon="3.60482">
        <ele>253</ele>
        <time>2022-05-12T07:10:31.839Z</time>
      </trkpt>
      <trkpt lat="43.73635" lon="3.60484">
        <ele>253</ele>
        <time>2022-05-12T07:10:32.449Z</time>
      </trkpt>
      <trkpt lat="43.73632" lon="3.60485">
        <ele>252</ele>
        <time>2022-05-12T07:10:32.723Z</time>
      </trkpt>
      <trkpt lat="43.73628" lon="3.60485">
        <ele>252</ele>
        <time>2022-05-12T07:10:33.455Z</time>
      </trkpt>
      <trkpt lat="43.73625" lon="3.60485">
        <ele>252</ele>
        <time>2022-05-12T07:10:34.004Z</time>
      </trkpt>
      <trkpt lat="43.73621" lon="3.60486">
        <ele>252</ele>
        <time>2022-05-12T07:10:34.748Z</time>
      </trkpt>
      <trkpt lat="43.73617" lon="3.60486">
        <ele>252</ele>
        <time>2022-05-12T07:10:35.480Z</time>
      </trkpt>
      <trkpt lat="43.73613" lon="3.60485">
        <ele>252</ele>
        <time>2022-05-12T07:10:36.223Z</time>
      </trkpt>
      <trkpt lat="43.73608" lon="3.60485">
        <ele>252</ele>
        <time>2022-05-12T07:10:37.138Z</time>
      </trkpt>
      <trkpt lat="43.73603" lon="3.60484">
        <ele>252</ele>
        <time>2022-05-12T07:10:38.062Z</time>
      </trkpt>
      <trkpt lat="43.73598" lon="3.60483">
        <ele>252</ele>
        <time>2022-05-12T07:10:38.987Z</time>
      </trkpt>
      <trkpt lat="43.73593" lon="3.60483">
        <ele>252</ele>
        <time>2022-05-12T07:10:39.901Z</time>
      </trkpt>
      <trkpt lat="43.73587" lon="3.60482">
        <ele>251</ele>
        <time>2022-05-12T07:10:40.439Z</time>
      </trkpt>
      <trkpt lat="43.73582" lon="3.60482">
        <ele>251</ele>
        <time>2022-05-12T07:10:41.354Z</time>
      </trkpt>
      <trkpt lat="43.73577" lon="3.60483">
        <ele>251</ele>
        <time>2022-05-12T07:10:42.279Z</time>
      </trkpt>
      <trkpt lat="43.73571" lon="3.60482">
        <ele>251</ele>
        <time>2022-05-12T07:10:43.384Z</time>
      </trkpt>
      <trkpt lat="43.73566" lon="3.60483">
        <ele>251</ele>
        <time>2022-05-12T07:10:44.309Z</time>
      </trkpt>
      <trkpt lat="43.73561" lon="3.60484">
        <ele>251</ele>
        <time>2022-05-12T07:10:45.233Z</time>
      </trkpt>
      <trkpt lat="43.73555" lon="3.60484">
        <ele>251</ele>
        <time>2022-05-12T07:10:46.331Z</time>
      </trkpt>
      <trkpt lat="43.73549" lon="3.60484">
        <ele>251</ele>
        <time>2022-05-12T07:10:47.428Z</time>
      </trkpt>
      <trkpt lat="43.73544" lon="3.60483">
        <ele>251</ele>
        <time>2022-05-12T07:10:48.353Z</time>
      </trkpt>
      <trkpt lat="43.73539" lon="3.60481">
        <ele>251</ele>
        <time>2022-05-12T07:10:49.305Z</time>
      </trkpt>
      <trkpt lat="43.73533" lon="3.6048">
        <ele>249</ele>
        <time>2022-05-12T07:10:49.843Z</time>
      </trkpt>
      <trkpt lat="43.73528" lon="3.60481">
        <ele>249</ele>
        <time>2022-05-12T07:10:50.767Z</time>
      </trkpt>
      <trkpt lat="43.73523" lon="3.60481">
        <ele>249</ele>
        <time>2022-05-12T07:10:51.682Z</time>
      </trkpt>
      <trkpt lat="43.73518" lon="3.6048">
        <ele>249</ele>
        <time>2022-05-12T07:10:52.606Z</time>
      </trkpt>
      <trkpt lat="43.73514" lon="3.60479">
        <ele>249</ele>
        <time>2022-05-12T07:10:53.350Z</time>
      </trkpt>
      <trkpt lat="43.73509" lon="3.60477">
        <ele>249</ele>
        <time>2022-05-12T07:10:54.302Z</time>
      </trkpt>
      <trkpt lat="43.73504" lon="3.60477">
        <ele>249</ele>
        <time>2022-05-12T07:10:55.217Z</time>
      </trkpt>
      <trkpt lat="43.73499" lon="3.60476">
        <ele>249</ele>
        <time>2022-05-12T07:10:56.141Z</time>
      </trkpt>
      <trkpt lat="43.73494" lon="3.60477">
        <ele>249</ele>
        <time>2022-05-12T07:10:57.066Z</time>
      </trkpt>
      <trkpt lat="43.73489" lon="3.60477">
        <ele>249</ele>
        <time>2022-05-12T07:10:57.980Z</time>
      </trkpt>
      <trkpt lat="43.73485" lon="3.60478">
        <ele>247</ele>
        <time>2022-05-12T07:10:58.342Z</time>
      </trkpt>
      <trkpt lat="43.7348" lon="3.60479">
        <ele>247</ele>
        <time>2022-05-12T07:10:59.266Z</time>
      </trkpt>
      <trkpt lat="43.73475" lon="3.6048">
        <ele>247</ele>
        <time>2022-05-12T07:11:00.191Z</time>
      </trkpt>
      <trkpt lat="43.7347" lon="3.6048">
        <ele>247</ele>
        <time>2022-05-12T07:11:01.106Z</time>
      </trkpt>
      <trkpt lat="43.73465" lon="3.60479">
        <ele>247</ele>
        <time>2022-05-12T07:11:02.030Z</time>
      </trkpt>
      <trkpt lat="43.7346" lon="3.60477">
        <ele>247</ele>
        <time>2022-05-12T07:11:02.982Z</time>
      </trkpt>
      <trkpt lat="43.73455" lon="3.60476">
        <ele>247</ele>
        <time>2022-05-12T07:11:03.906Z</time>
      </trkpt>
      <trkpt lat="43.73451" lon="3.60476">
        <ele>247</ele>
        <time>2022-05-12T07:11:04.638Z</time>
      </trkpt>
      <trkpt lat="43.73446" lon="3.60475">
        <ele>247</ele>
        <time>2022-05-12T07:11:05.563Z</time>
      </trkpt>
      <trkpt lat="43.73441" lon="3.60475">
        <ele>247</ele>
        <time>2022-05-12T07:11:06.477Z</time>
      </trkpt>
      <trkpt lat="43.73436" lon="3.60475">
        <ele>244</ele>
        <time>2022-05-12T07:11:06.922Z</time>
      </trkpt>
      <trkpt lat="43.73431" lon="3.60478">
        <ele>244</ele>
        <time>2022-05-12T07:11:07.919Z</time>
      </trkpt>
      <trkpt lat="43.73427" lon="3.60479">
        <ele>244</ele>
        <time>2022-05-12T07:11:08.663Z</time>
      </trkpt>
      <trkpt lat="43.73422" lon="3.60479">
        <ele>244</ele>
        <time>2022-05-12T07:11:09.578Z</time>
      </trkpt>
      <trkpt lat="43.73418" lon="3.6048">
        <ele>244</ele>
        <time>2022-05-12T07:11:10.322Z</time>
      </trkpt>
      <trkpt lat="43.73414" lon="3.60482">
        <ele>244</ele>
        <time>2022-05-12T07:11:11.100Z</time>
      </trkpt>
      <trkpt lat="43.7341" lon="3.60484">
        <ele>244</ele>
        <time>2022-05-12T07:11:11.878Z</time>
      </trkpt>
      <trkpt lat="43.73406" lon="3.60485">
        <ele>244</ele>
        <time>2022-05-12T07:11:12.622Z</time>
      </trkpt>
      <trkpt lat="43.73401" lon="3.60485">
        <ele>244</ele>
        <time>2022-05-12T07:11:13.536Z</time>
      </trkpt>
      <trkpt lat="43.73397" lon="3.60486">
        <ele>244</ele>
        <time>2022-05-12T07:11:14.280Z</time>
      </trkpt>
      <trkpt lat="43.73392" lon="3.60486">
        <ele>242</ele>
        <time>2022-05-12T07:11:14.725Z</time>
      </trkpt>
      <trkpt lat="43.73387" lon="3.60486">
        <ele>242</ele>
        <time>2022-05-12T07:11:15.640Z</time>
      </trkpt>
      <trkpt lat="43.73382" lon="3.60486">
        <ele>242</ele>
        <time>2022-05-12T07:11:16.555Z</time>
      </trkpt>
      <trkpt lat="43.73377" lon="3.60487">
        <ele>242</ele>
        <time>2022-05-12T07:11:17.479Z</time>
      </trkpt>
      <trkpt lat="43.73372" lon="3.60486">
        <ele>242</ele>
        <time>2022-05-12T07:11:18.403Z</time>
      </trkpt>
      <trkpt lat="43.73367" lon="3.60484">
        <ele>242</ele>
        <time>2022-05-12T07:11:19.356Z</time>
      </trkpt>
      <trkpt lat="43.73362" lon="3.60482">
        <ele>242</ele>
        <time>2022-05-12T07:11:20.308Z</time>
      </trkpt>
      <trkpt lat="43.73357" lon="3.6048">
        <ele>242</ele>
        <time>2022-05-12T07:11:21.260Z</time>
      </trkpt>
      <trkpt lat="43.73353" lon="3.60478">
        <ele>242</ele>
        <time>2022-05-12T07:11:22.038Z</time>
      </trkpt>
      <trkpt lat="43.73348" lon="3.60478">
        <ele>242</ele>
        <time>2022-05-12T07:11:22.953Z</time>
      </trkpt>
      <trkpt lat="43.73343" lon="3.60477">
        <ele>240</ele>
        <time>2022-05-12T07:11:23.403Z</time>
      </trkpt>
      <trkpt lat="43.73339" lon="3.60477">
        <ele>240</ele>
        <time>2022-05-12T07:11:24.135Z</time>
      </trkpt>
      <trkpt lat="43.73334" lon="3.60477">
        <ele>240</ele>
        <time>2022-05-12T07:11:25.049Z</time>
      </trkpt>
      <trkpt lat="43.73329" lon="3.60474">
        <ele>240</ele>
        <time>2022-05-12T07:11:26.046Z</time>
      </trkpt>
      <trkpt lat="43.73326" lon="3.6047">
        <ele>240</ele>
        <time>2022-05-12T07:11:26.809Z</time>
      </trkpt>
      <trkpt lat="43.73323" lon="3.60465">
        <ele>240</ele>
        <time>2022-05-12T07:11:27.668Z</time>
      </trkpt>
      <trkpt lat="43.73321" lon="3.6046">
        <ele>240</ele>
        <time>2022-05-12T07:11:28.423Z</time>
      </trkpt>
      <trkpt lat="43.73318" lon="3.60456">
        <ele>240</ele>
        <time>2022-05-12T07:11:29.185Z</time>
      </trkpt>
      <trkpt lat="43.73316" lon="3.60453">
        <ele>240</ele>
        <time>2022-05-12T07:11:29.725Z</time>
      </trkpt>
      <trkpt lat="43.73313" lon="3.60451">
        <ele>240</ele>
        <time>2022-05-12T07:11:30.334Z</time>
      </trkpt>
      <trkpt lat="43.73311" lon="3.60447">
        <ele>238</ele>
        <time>2022-05-12T07:11:30.647Z</time>
      </trkpt>
      <trkpt lat="43.73308" lon="3.60445">
        <ele>238</ele>
        <time>2022-05-12T07:11:31.256Z</time>
      </trkpt>
      <trkpt lat="43.73305" lon="3.60443">
        <ele>238</ele>
        <time>2022-05-12T07:11:31.866Z</time>
      </trkpt>
      <trkpt lat="43.73302" lon="3.6044">
        <ele>238</ele>
        <time>2022-05-12T07:11:32.543Z</time>
      </trkpt>
      <trkpt lat="43.73299" lon="3.60438">
        <ele>238</ele>
        <time>2022-05-12T07:11:33.152Z</time>
      </trkpt>
      <trkpt lat="43.73296" lon="3.60435">
        <ele>238</ele>
        <time>2022-05-12T07:11:33.829Z</time>
      </trkpt>
      <trkpt lat="43.73294" lon="3.60433">
        <ele>238</ele>
        <time>2022-05-12T07:11:34.281Z</time>
      </trkpt>
      <trkpt lat="43.73292" lon="3.60429">
        <ele>238</ele>
        <time>2022-05-12T07:11:34.924Z</time>
      </trkpt>
      <trkpt lat="43.7329" lon="3.60425">
        <ele>238</ele>
        <time>2022-05-12T07:11:35.567Z</time>
      </trkpt>
      <trkpt lat="43.73289" lon="3.60423">
        <ele>238</ele>
        <time>2022-05-12T07:11:35.888Z</time>
      </trkpt>
      <trkpt lat="43.73287" lon="3.60422">
        <ele>236</ele>
        <time>2022-05-12T07:11:36.078Z</time>
      </trkpt>
      <trkpt lat="43.73284" lon="3.6042">
        <ele>236</ele>
        <time>2022-05-12T07:11:36.687Z</time>
      </trkpt>
      <trkpt lat="43.73282" lon="3.60419">
        <ele>236</ele>
        <time>2022-05-12T07:11:37.076Z</time>
      </trkpt>
      <trkpt lat="43.73279" lon="3.60418">
        <ele>236</ele>
        <time>2022-05-12T07:11:37.641Z</time>
      </trkpt>
      <trkpt lat="43.73277" lon="3.60417">
        <ele>236</ele>
        <time>2022-05-12T07:11:38.030Z</time>
      </trkpt>
      <trkpt lat="43.73274" lon="3.60417">
        <ele>236</ele>
        <time>2022-05-12T07:11:38.578Z</time>
      </trkpt>
      <trkpt lat="43.73271" lon="3.60418">
        <ele>236</ele>
        <time>2022-05-12T07:11:39.143Z</time>
      </trkpt>
      <trkpt lat="43.73269" lon="3.6042">
        <ele>236</ele>
        <time>2022-05-12T07:11:39.594Z</time>
      </trkpt>
      <trkpt lat="43.73266" lon="3.60422">
        <ele>236</ele>
        <time>2022-05-12T07:11:40.204Z</time>
      </trkpt>
      <trkpt lat="43.73263" lon="3.60424">
        <ele>234</ele>
        <time>2022-05-12T07:11:40.500Z</time>
      </trkpt>
      <trkpt lat="43.7326" lon="3.60424">
        <ele>234</ele>
        <time>2022-05-12T07:11:41.049Z</time>
      </trkpt>
      <trkpt lat="43.73257" lon="3.60423">
        <ele>234</ele>
        <time>2022-05-12T07:11:41.614Z</time>
      </trkpt>
      <trkpt lat="43.73253" lon="3.60422">
        <ele>234</ele>
        <time>2022-05-12T07:11:42.357Z</time>
      </trkpt>
      <trkpt lat="43.73249" lon="3.60422">
        <ele>234</ele>
        <time>2022-05-12T07:11:43.089Z</time>
      </trkpt>
      <trkpt lat="43.73245" lon="3.60421">
        <ele>234</ele>
        <time>2022-05-12T07:11:43.833Z</time>
      </trkpt>
      <trkpt lat="43.73241" lon="3.60419">
        <ele>234</ele>
        <time>2022-05-12T07:11:44.611Z</time>
      </trkpt>
      <trkpt lat="43.73236" lon="3.60416">
        <ele>234</ele>
        <time>2022-05-12T07:11:45.608Z</time>
      </trkpt>
      <trkpt lat="43.73232" lon="3.60414">
        <ele>234</ele>
        <time>2022-05-12T07:11:46.386Z</time>
      </trkpt>
      <trkpt lat="43.73227" lon="3.60413">
        <ele>234</ele>
        <time>2022-05-12T07:11:47.310Z</time>
      </trkpt>
      <trkpt lat="43.73224" lon="3.60413">
        <ele>232</ele>
        <time>2022-05-12T07:11:47.578Z</time>
      </trkpt>
      <trkpt lat="43.7322" lon="3.60411">
        <ele>232</ele>
        <time>2022-05-12T07:11:48.356Z</time>
      </trkpt>
      <trkpt lat="43.73216" lon="3.60407">
        <ele>232</ele>
        <time>2022-05-12T07:11:49.259Z</time>
      </trkpt>
      <trkpt lat="43.73212" lon="3.60403">
        <ele>232</ele>
        <time>2022-05-12T07:11:50.161Z</time>
      </trkpt>
      <trkpt lat="43.73208" lon="3.60398">
        <ele>232</ele>
        <time>2022-05-12T07:11:51.148Z</time>
      </trkpt>
      <trkpt lat="43.73204" lon="3.60392">
        <ele>232</ele>
        <time>2022-05-12T07:11:52.227Z</time>
      </trkpt>
      <trkpt lat="43.73201" lon="3.60386">
        <ele>232</ele>
        <time>2022-05-12T07:11:53.191Z</time>
      </trkpt>
      <trkpt lat="43.73197" lon="3.6038">
        <ele>232</ele>
        <time>2022-05-12T07:11:54.271Z</time>
      </trkpt>
      <trkpt lat="43.73192" lon="3.60374">
        <ele>232</ele>
        <time>2022-05-12T07:11:55.481Z</time>
      </trkpt>
      <trkpt lat="43.73188" lon="3.60369">
        <ele>232</ele>
        <time>2022-05-12T07:11:56.468Z</time>
      </trkpt>
      <trkpt lat="43.73184" lon="3.60363">
        <ele>230</ele>
        <time>2022-05-12T07:11:56.993Z</time>
      </trkpt>
      <trkpt lat="43.7318" lon="3.60358">
        <ele>230</ele>
        <time>2022-05-12T07:11:57.979Z</time>
      </trkpt>
      <trkpt lat="43.73177" lon="3.60352">
        <ele>230</ele>
        <time>2022-05-12T07:11:58.944Z</time>
      </trkpt>
      <trkpt lat="43.73173" lon="3.60348">
        <ele>230</ele>
        <time>2022-05-12T07:11:59.846Z</time>
      </trkpt>
      <trkpt lat="43.73169" lon="3.60343">
        <ele>230</ele>
        <time>2022-05-12T07:12:00.833Z</time>
      </trkpt>
      <trkpt lat="43.73165" lon="3.60339">
        <ele>230</ele>
        <time>2022-05-12T07:12:01.736Z</time>
      </trkpt>
      <trkpt lat="43.7316" lon="3.60334">
        <ele>230</ele>
        <time>2022-05-12T07:12:02.864Z</time>
      </trkpt>
      <trkpt lat="43.73156" lon="3.60329">
        <ele>230</ele>
        <time>2022-05-12T07:12:03.850Z</time>
      </trkpt>
      <trkpt lat="43.73152" lon="3.60324">
        <ele>230</ele>
        <time>2022-05-12T07:12:04.836Z</time>
      </trkpt>
      <trkpt lat="43.73148" lon="3.60318">
        <ele>230</ele>
        <time>2022-05-12T07:12:05.916Z</time>
      </trkpt>
      <trkpt lat="43.73144" lon="3.60314">
        <ele>228</ele>
        <time>2022-05-12T07:12:06.355Z</time>
      </trkpt>
      <trkpt lat="43.7314" lon="3.60309">
        <ele>228</ele>
        <time>2022-05-12T07:12:07.341Z</time>
      </trkpt>
      <trkpt lat="43.73135" lon="3.60305">
        <ele>228</ele>
        <time>2022-05-12T07:12:08.398Z</time>
      </trkpt>
      <trkpt lat="43.73131" lon="3.60301">
        <ele>228</ele>
        <time>2022-05-12T07:12:09.301Z</time>
      </trkpt>
      <trkpt lat="43.73127" lon="3.60296">
        <ele>228</ele>
        <time>2022-05-12T07:12:10.287Z</time>
      </trkpt>
      <trkpt lat="43.73123" lon="3.6029">
        <ele>228</ele>
        <time>2022-05-12T07:12:11.366Z</time>
      </trkpt>
      <trkpt lat="43.73119" lon="3.60285">
        <ele>228</ele>
        <time>2022-05-12T07:12:12.352Z</time>
      </trkpt>
      <trkpt lat="43.73115" lon="3.60279">
        <ele>228</ele>
        <time>2022-05-12T07:12:13.432Z</time>
      </trkpt>
      <trkpt lat="43.73112" lon="3.60273">
        <ele>228</ele>
        <time>2022-05-12T07:12:14.396Z</time>
      </trkpt>
      <trkpt lat="43.73109" lon="3.60266">
        <ele>228</ele>
        <time>2022-05-12T07:12:15.472Z</time>
      </trkpt>
      <trkpt lat="43.73106" lon="3.6026">
        <ele>225</ele>
        <time>2022-05-12T07:12:15.942Z</time>
      </trkpt>
      <trkpt lat="43.73103" lon="3.60254">
        <ele>225</ele>
        <time>2022-05-12T07:12:16.906Z</time>
      </trkpt>
      <trkpt lat="43.731" lon="3.60249">
        <ele>225</ele>
        <time>2022-05-12T07:12:17.765Z</time>
      </trkpt>
      <trkpt lat="43.73096" lon="3.60245">
        <ele>225</ele>
        <time>2022-05-12T07:12:18.668Z</time>
      </trkpt>
      <trkpt lat="43.73091" lon="3.60242">
        <ele>225</ele>
        <time>2022-05-12T07:12:19.665Z</time>
      </trkpt>
      <trkpt lat="43.73086" lon="3.60239">
        <ele>225</ele>
        <time>2022-05-12T07:12:20.662Z</time>
      </trkpt>
      <trkpt lat="43.73081" lon="3.60235">
        <ele>225</ele>
        <time>2022-05-12T07:12:21.719Z</time>
      </trkpt>
      <trkpt lat="43.73076" lon="3.60232">
        <ele>225</ele>
        <time>2022-05-12T07:12:22.716Z</time>
      </trkpt>
      <trkpt lat="43.7307" lon="3.60229">
        <ele>225</ele>
        <time>2022-05-12T07:12:23.883Z</time>
      </trkpt>
      <trkpt lat="43.73065" lon="3.60225">
        <ele>225</ele>
        <time>2022-05-12T07:12:24.940Z</time>
      </trkpt>
      <trkpt lat="43.7306" lon="3.6022">
        <ele>223</ele>
        <time>2022-05-12T07:12:25.489Z</time>
      </trkpt>
      <trkpt lat="43.73056" lon="3.60216">
        <ele>223</ele>
        <time>2022-05-12T07:12:26.392Z</time>
      </trkpt>
      <trkpt lat="43.73052" lon="3.60211">
        <ele>223</ele>
        <time>2022-05-12T07:12:27.378Z</time>
      </trkpt>
      <trkpt lat="43.73048" lon="3.60206">
        <ele>223</ele>
        <time>2022-05-12T07:12:28.364Z</time>
      </trkpt>
      <trkpt lat="43.73045" lon="3.60201">
        <ele>223</ele>
        <time>2022-05-12T07:12:29.224Z</time>
      </trkpt>
      <trkpt lat="43.73042" lon="3.60199">
        <ele>223</ele>
        <time>2022-05-12T07:12:29.833Z</time>
      </trkpt>
      <trkpt lat="43.73039" lon="3.60197">
        <ele>223</ele>
        <time>2022-05-12T07:12:30.442Z</time>
      </trkpt>
      <trkpt lat="43.73035" lon="3.60197">
        <ele>223</ele>
        <time>2022-05-12T07:12:31.174Z</time>
      </trkpt>
      <trkpt lat="43.73031" lon="3.60197">
        <ele>223</ele>
        <time>2022-05-12T07:12:31.906Z</time>
      </trkpt>
      <trkpt lat="43.73027" lon="3.60196">
        <ele>223</ele>
        <time>2022-05-12T07:12:32.649Z</time>
      </trkpt>
      <trkpt lat="43.73023" lon="3.60194">
        <ele>221</ele>
        <time>2022-05-12T07:12:33.028Z</time>
      </trkpt>
      <trkpt lat="43.73019" lon="3.60193">
        <ele>221</ele>
        <time>2022-05-12T07:12:33.772Z</time>
      </trkpt>
      <trkpt lat="43.73014" lon="3.60192">
        <ele>221</ele>
        <time>2022-05-12T07:12:34.696Z</time>
      </trkpt>
      <trkpt lat="43.7301" lon="3.60191">
        <ele>221</ele>
        <time>2022-05-12T07:12:35.440Z</time>
      </trkpt>
      <trkpt lat="43.73005" lon="3.6019">
        <ele>221</ele>
        <time>2022-05-12T07:12:36.364Z</time>
      </trkpt>
      <trkpt lat="43.73001" lon="3.6019">
        <ele>221</ele>
        <time>2022-05-12T07:12:37.096Z</time>
      </trkpt>
      <trkpt lat="43.72996" lon="3.60191">
        <ele>221</ele>
        <time>2022-05-12T07:12:38.020Z</time>
      </trkpt>
      <trkpt lat="43.72992" lon="3.60191">
        <ele>221</ele>
        <time>2022-05-12T07:12:38.752Z</time>
      </trkpt>
      <trkpt lat="43.72988" lon="3.60191">
        <ele>221</ele>
        <time>2022-05-12T07:12:39.484Z</time>
      </trkpt>
      <trkpt lat="43.72983" lon="3.60191">
        <ele>221</ele>
        <time>2022-05-12T07:12:40.399Z</time>
      </trkpt>
      <trkpt lat="43.72979" lon="3.6019">
        <ele>220</ele>
        <time>2022-05-12T07:12:40.760Z</time>
      </trkpt>
      <trkpt lat="43.72974" lon="3.60189">
        <ele>220</ele>
        <time>2022-05-12T07:12:41.685Z</time>
      </trkpt>
      <trkpt lat="43.7297" lon="3.60187">
        <ele>220</ele>
        <time>2022-05-12T07:12:42.463Z</time>
      </trkpt>
      <trkpt lat="43.72965" lon="3.60185">
        <ele>220</ele>
        <time>2022-05-12T07:12:43.415Z</time>
      </trkpt>
      <trkpt lat="43.7296" lon="3.60182">
        <ele>220</ele>
        <time>2022-05-12T07:12:44.412Z</time>
      </trkpt>
      <trkpt lat="43.72955" lon="3.60178">
        <ele>220</ele>
        <time>2022-05-12T07:12:45.469Z</time>
      </trkpt>
      <trkpt lat="43.7295" lon="3.60174">
        <ele>220</ele>
        <time>2022-05-12T07:12:46.525Z</time>
      </trkpt>
      <trkpt lat="43.72945" lon="3.6017">
        <ele>220</ele>
        <time>2022-05-12T07:12:47.582Z</time>
      </trkpt>
      <trkpt lat="43.72941" lon="3.60165">
        <ele>220</ele>
        <time>2022-05-12T07:12:48.568Z</time>
      </trkpt>
      <trkpt lat="43.72936" lon="3.6016">
        <ele>220</ele>
        <time>2022-05-12T07:12:49.697Z</time>
      </trkpt>
      <trkpt lat="43.72932" lon="3.60155">
        <ele>217</ele>
        <time>2022-05-12T07:12:50.177Z</time>
      </trkpt>
      <trkpt lat="43.72928" lon="3.60151">
        <ele>217</ele>
        <time>2022-05-12T07:12:51.080Z</time>
      </trkpt>
      <trkpt lat="43.72924" lon="3.60147">
        <ele>217</ele>
        <time>2022-05-12T07:12:51.983Z</time>
      </trkpt>
      <trkpt lat="43.72919" lon="3.60144">
        <ele>217</ele>
        <time>2022-05-12T07:12:52.980Z</time>
      </trkpt>
      <trkpt lat="43.72915" lon="3.60142">
        <ele>217</ele>
        <time>2022-05-12T07:12:53.758Z</time>
      </trkpt>
      <trkpt lat="43.72912" lon="3.6014">
        <ele>217</ele>
        <time>2022-05-12T07:12:54.367Z</time>
      </trkpt>
      <trkpt lat="43.72908" lon="3.60138">
        <ele>217</ele>
        <time>2022-05-12T07:12:55.145Z</time>
      </trkpt>
      <trkpt lat="43.72905" lon="3.60137">
        <ele>217</ele>
        <time>2022-05-12T07:12:55.710Z</time>
      </trkpt>
      <trkpt lat="43.72901" lon="3.60137">
        <ele>217</ele>
        <time>2022-05-12T07:12:56.442Z</time>
      </trkpt>
      <trkpt lat="43.72898" lon="3.60136">
        <ele>217</ele>
        <time>2022-05-12T07:12:57.006Z</time>
      </trkpt>
      <trkpt lat="43.72894" lon="3.60135">
        <ele>216</ele>
        <time>2022-05-12T07:12:57.368Z</time>
      </trkpt>
      <trkpt lat="43.7289" lon="3.60134">
        <ele>216</ele>
        <time>2022-05-12T07:12:58.112Z</time>
      </trkpt>
      <trkpt lat="43.72886" lon="3.60132">
        <ele>216</ele>
        <time>2022-05-12T07:12:58.890Z</time>
      </trkpt>
      <trkpt lat="43.72883" lon="3.60131">
        <ele>216</ele>
        <time>2022-05-12T07:12:59.454Z</time>
      </trkpt>
      <trkpt lat="43.7288" lon="3.6013">
        <ele>216</ele>
        <time>2022-05-12T07:13:00.019Z</time>
      </trkpt>
      <trkpt lat="43.72877" lon="3.60129">
        <ele>216</ele>
        <time>2022-05-12T07:13:00.584Z</time>
      </trkpt>
      <trkpt lat="43.72876" lon="3.60127">
        <ele>216</ele>
        <time>2022-05-12T07:13:00.905Z</time>
      </trkpt>
      <trkpt lat="43.72875" lon="3.60124">
        <ele>216</ele>
        <time>2022-05-12T07:13:01.342Z</time>
      </trkpt>
      <trkpt lat="43.72875" lon="3.60121">
        <ele>216</ele>
        <time>2022-05-12T07:13:01.739Z</time>
      </trkpt>
      <trkpt lat="43.72876" lon="3.60118">
        <ele>216</ele>
        <time>2022-05-12T07:13:02.175Z</time>
      </trkpt>
      <trkpt lat="43.72877" lon="3.60115">
        <ele>216</ele>
        <time>2022-05-12T07:13:02.612Z</time>
      </trkpt>
      <trkpt lat="43.72879" lon="3.60112">
        <ele>216</ele>
        <time>2022-05-12T07:13:03.152Z</time>
      </trkpt>
      <trkpt lat="43.72881" lon="3.60109">
        <ele>216</ele>
        <time>2022-05-12T07:13:03.691Z</time>
      </trkpt>
      <trkpt lat="43.72883" lon="3.60106">
        <ele>216</ele>
        <time>2022-05-12T07:13:04.231Z</time>
      </trkpt>
      <trkpt lat="43.72885" lon="3.60102">
        <ele>216</ele>
        <time>2022-05-12T07:13:04.874Z</time>
      </trkpt>
      <trkpt lat="43.72888" lon="3.60099">
        <ele>216</ele>
        <time>2022-05-12T07:13:05.551Z</time>
      </trkpt>
      <trkpt lat="43.7289" lon="3.60095">
        <ele>216</ele>
        <time>2022-05-12T07:13:06.194Z</time>
      </trkpt>
      <trkpt lat="43.72893" lon="3.60091">
        <ele>216</ele>
        <time>2022-05-12T07:13:06.957Z</time>
      </trkpt>
      <trkpt lat="43.72895" lon="3.60087">
        <ele>216</ele>
        <time>2022-05-12T07:13:07.600Z</time>
      </trkpt>
      <trkpt lat="43.72897" lon="3.60082">
        <ele>216</ele>
        <time>2022-05-12T07:13:08.355Z</time>
      </trkpt>
      <trkpt lat="43.729" lon="3.60077">
        <ele>216</ele>
        <time>2022-05-12T07:13:09.214Z</time>
      </trkpt>
      <trkpt lat="43.72903" lon="3.60072">
        <ele>216</ele>
        <time>2022-05-12T07:13:10.074Z</time>
      </trkpt>
      <trkpt lat="43.72906" lon="3.60067">
        <ele>216</ele>
        <time>2022-05-12T07:13:10.933Z</time>
      </trkpt>
      <trkpt lat="43.7291" lon="3.60061">
        <ele>216</ele>
        <time>2022-05-12T07:13:12.012Z</time>
      </trkpt>
      <trkpt lat="43.72913" lon="3.60055">
        <ele>216</ele>
        <time>2022-05-12T07:13:12.977Z</time>
      </trkpt>
      <trkpt lat="43.72917" lon="3.6005">
        <ele>216</ele>
        <time>2022-05-12T07:13:13.963Z</time>
      </trkpt>
      <trkpt lat="43.72921" lon="3.60044">
        <ele>216</ele>
        <time>2022-05-12T07:13:15.042Z</time>
      </trkpt>
      <trkpt lat="43.72925" lon="3.60039">
        <ele>216</ele>
        <time>2022-05-12T07:13:16.028Z</time>
      </trkpt>
      <trkpt lat="43.72929" lon="3.60034">
        <ele>216</ele>
        <time>2022-05-12T07:13:17.015Z</time>
      </trkpt>
      <trkpt lat="43.72932" lon="3.60029">
        <ele>216</ele>
        <time>2022-05-12T07:13:17.874Z</time>
      </trkpt>
      <trkpt lat="43.72936" lon="3.60023">
        <ele>215</ele>
        <time>2022-05-12T07:13:18.399Z</time>
      </trkpt>
      <trkpt lat="43.72939" lon="3.60018">
        <ele>215</ele>
        <time>2022-05-12T07:13:19.258Z</time>
      </trkpt>
      <trkpt lat="43.72943" lon="3.60012">
        <ele>215</ele>
        <time>2022-05-12T07:13:20.337Z</time>
      </trkpt>
      <trkpt lat="43.72946" lon="3.60007">
        <ele>215</ele>
        <time>2022-05-12T07:13:21.197Z</time>
      </trkpt>
      <trkpt lat="43.7295" lon="3.60002">
        <ele>215</ele>
        <time>2022-05-12T07:13:22.183Z</time>
      </trkpt>
      <trkpt lat="43.72953" lon="3.59997">
        <ele>215</ele>
        <time>2022-05-12T07:13:23.042Z</time>
      </trkpt>
      <trkpt lat="43.72956" lon="3.59992">
        <ele>215</ele>
        <time>2022-05-12T07:13:23.901Z</time>
      </trkpt>
      <trkpt lat="43.72959" lon="3.59986">
        <ele>215</ele>
        <time>2022-05-12T07:13:24.866Z</time>
      </trkpt>
      <trkpt lat="43.72962" lon="3.59981">
        <ele>215</ele>
        <time>2022-05-12T07:13:25.725Z</time>
      </trkpt>
      <trkpt lat="43.72966" lon="3.59975">
        <ele>215</ele>
        <time>2022-05-12T07:13:26.804Z</time>
      </trkpt>
      <trkpt lat="43.7297" lon="3.5997">
        <ele>216</ele>
        <time>2022-05-12T07:13:30.608Z</time>
      </trkpt>
      <trkpt lat="43.72973" lon="3.59965">
        <ele>216</ele>
        <time>2022-05-12T07:13:31.467Z</time>
      </trkpt>
      <trkpt lat="43.72977" lon="3.59961">
        <ele>216</ele>
        <time>2022-05-12T07:13:32.370Z</time>
      </trkpt>
      <trkpt lat="43.7298" lon="3.59956">
        <ele>216</ele>
        <time>2022-05-12T07:13:33.230Z</time>
      </trkpt>
      <trkpt lat="43.72984" lon="3.59952">
        <ele>216</ele>
        <time>2022-05-12T07:13:34.132Z</time>
      </trkpt>
      <trkpt lat="43.72988" lon="3.59948">
        <ele>216</ele>
        <time>2022-05-12T07:13:35.035Z</time>
      </trkpt>
      <trkpt lat="43.72993" lon="3.59945">
        <ele>216</ele>
        <time>2022-05-12T07:13:36.032Z</time>
      </trkpt>
      <trkpt lat="43.72998" lon="3.59942">
        <ele>216</ele>
        <time>2022-05-12T07:13:37.029Z</time>
      </trkpt>
      <trkpt lat="43.73003" lon="3.59939">
        <ele>216</ele>
        <time>2022-05-12T07:13:38.027Z</time>
      </trkpt>
      <trkpt lat="43.73008" lon="3.59935">
        <ele>216</ele>
        <time>2022-05-12T07:13:39.083Z</time>
      </trkpt>
      <trkpt lat="43.73013" lon="3.59932">
        <ele>216</ele>
        <time>2022-05-12T07:13:40.080Z</time>
      </trkpt>
      <trkpt lat="43.73019" lon="3.59929">
        <ele>216</ele>
        <time>2022-05-12T07:13:41.247Z</time>
      </trkpt>
      <trkpt lat="43.73024" lon="3.59925">
        <ele>216</ele>
        <time>2022-05-12T07:13:42.304Z</time>
      </trkpt>
      <trkpt lat="43.7303" lon="3.59922">
        <ele>216</ele>
        <time>2022-05-12T07:13:43.471Z</time>
      </trkpt>
      <trkpt lat="43.73035" lon="3.59919">
        <ele>216</ele>
        <time>2022-05-12T07:13:44.468Z</time>
      </trkpt>
      <trkpt lat="43.73039" lon="3.59914">
        <ele>216</ele>
        <time>2022-05-12T07:13:45.455Z</time>
      </trkpt>
      <trkpt lat="43.73042" lon="3.59907">
        <ele>216</ele>
        <time>2022-05-12T07:13:46.531Z</time>
      </trkpt>
      <trkpt lat="43.73044" lon="3.599">
        <ele>216</ele>
        <time>2022-05-12T07:13:47.526Z</time>
      </trkpt>
      <trkpt lat="43.73043" lon="3.59893">
        <ele>216</ele>
        <time>2022-05-12T07:13:48.469Z</time>
      </trkpt>
      <trkpt lat="43.73041" lon="3.59887">
        <ele>216</ele>
        <time>2022-05-12T07:13:49.343Z</time>
      </trkpt>
      <trkpt lat="43.73037" lon="3.59883">
        <ele>215</ele>
        <time>2022-05-12T07:13:49.782Z</time>
      </trkpt>
      <trkpt lat="43.73033" lon="3.5988">
        <ele>215</ele>
        <time>2022-05-12T07:13:50.614Z</time>
      </trkpt>
      <trkpt lat="43.73029" lon="3.59878">
        <ele>215</ele>
        <time>2022-05-12T07:13:51.392Z</time>
      </trkpt>
      <trkpt lat="43.73026" lon="3.59875">
        <ele>215</ele>
        <time>2022-05-12T07:13:52.070Z</time>
      </trkpt>
      <trkpt lat="43.73022" lon="3.59873">
        <ele>215</ele>
        <time>2022-05-12T07:13:52.848Z</time>
      </trkpt>
      <trkpt lat="43.73019" lon="3.59871">
        <ele>215</ele>
        <time>2022-05-12T07:13:53.457Z</time>
      </trkpt>
      <trkpt lat="43.73016" lon="3.5987">
        <ele>215</ele>
        <time>2022-05-12T07:13:54.022Z</time>
      </trkpt>
      <trkpt lat="43.73013" lon="3.59868">
        <ele>215</ele>
        <time>2022-05-12T07:13:54.631Z</time>
      </trkpt>
      <trkpt lat="43.7301" lon="3.59867">
        <ele>215</ele>
        <time>2022-05-12T07:13:55.195Z</time>
      </trkpt>
      <trkpt lat="43.73007" lon="3.59866">
        <ele>215</ele>
        <time>2022-05-12T07:13:55.760Z</time>
      </trkpt>
      <trkpt lat="43.73005" lon="3.59865">
        <ele>216</ele>
        <time>2022-05-12T07:13:57.261Z</time>
      </trkpt>
      <trkpt lat="43.73002" lon="3.59864">
        <ele>216</ele>
        <time>2022-05-12T07:13:57.825Z</time>
      </trkpt>
      <trkpt lat="43.73" lon="3.59863">
        <ele>216</ele>
        <time>2022-05-12T07:13:58.214Z</time>
      </trkpt>
      <trkpt lat="43.72997" lon="3.59862">
        <ele>216</ele>
        <time>2022-05-12T07:13:58.779Z</time>
      </trkpt>
      <trkpt lat="43.72995" lon="3.59861">
        <ele>216</ele>
        <time>2022-05-12T07:13:59.168Z</time>
      </trkpt>
      <trkpt lat="43.72993" lon="3.5986">
        <ele>216</ele>
        <time>2022-05-12T07:13:59.557Z</time>
      </trkpt>
      <trkpt lat="43.72991" lon="3.59859">
        <ele>216</ele>
        <time>2022-05-12T07:13:59.946Z</time>
      </trkpt>
      <trkpt lat="43.72989" lon="3.59858">
        <ele>216</ele>
        <time>2022-05-12T07:14:00.335Z</time>
      </trkpt>
      <trkpt lat="43.72987" lon="3.59857">
        <ele>216</ele>
        <time>2022-05-12T07:14:00.724Z</time>
      </trkpt>
      <trkpt lat="43.72985" lon="3.59857">
        <ele>216</ele>
        <time>2022-05-12T07:14:01.090Z</time>
      </trkpt>
      <trkpt lat="43.72984" lon="3.59856">
        <ele>217</ele>
        <time>2022-05-12T07:14:01.961Z</time>
      </trkpt>
      <trkpt lat="43.72982" lon="3.59855">
        <ele>217</ele>
        <time>2022-05-12T07:14:02.350Z</time>
      </trkpt>
      <trkpt lat="43.7298" lon="3.59854">
        <ele>217</ele>
        <time>2022-05-12T07:14:02.739Z</time>
      </trkpt>
      <trkpt lat="43.72978" lon="3.59854">
        <ele>217</ele>
        <time>2022-05-12T07:14:03.105Z</time>
      </trkpt>
      <trkpt lat="43.72976" lon="3.59852">
        <ele>217</ele>
        <time>2022-05-12T07:14:03.556Z</time>
      </trkpt>
      <trkpt lat="43.72974" lon="3.59851">
        <ele>217</ele>
        <time>2022-05-12T07:14:03.945Z</time>
      </trkpt>
      <trkpt lat="43.72973" lon="3.59849">
        <ele>217</ele>
        <time>2022-05-12T07:14:04.267Z</time>
      </trkpt>
      <trkpt lat="43.72971" lon="3.59848">
        <ele>217</ele>
        <time>2022-05-12T07:14:04.656Z</time>
      </trkpt>
      <trkpt lat="43.72969" lon="3.59846">
        <ele>217</ele>
        <time>2022-05-12T07:14:05.107Z</time>
      </trkpt>
      <trkpt lat="43.72967" lon="3.59845">
        <ele>217</ele>
        <time>2022-05-12T07:14:05.496Z</time>
      </trkpt>
      <trkpt lat="43.72966" lon="3.59843">
        <ele>219</ele>
        <time>2022-05-12T07:14:06.737Z</time>
      </trkpt>
      <trkpt lat="43.72964" lon="3.59842">
        <ele>219</ele>
        <time>2022-05-12T07:14:07.126Z</time>
      </trkpt>
      <trkpt lat="43.72963" lon="3.5984">
        <ele>219</ele>
        <time>2022-05-12T07:14:07.447Z</time>
      </trkpt>
      <trkpt lat="43.72961" lon="3.59839">
        <ele>219</ele>
        <time>2022-05-12T07:14:07.836Z</time>
      </trkpt>
      <trkpt lat="43.72959" lon="3.59837">
        <ele>219</ele>
        <time>2022-05-12T07:14:08.288Z</time>
      </trkpt>
      <trkpt lat="43.72958" lon="3.59836">
        <ele>219</ele>
        <time>2022-05-12T07:14:08.514Z</time>
      </trkpt>
      <trkpt lat="43.72955" lon="3.59832">
        <ele>219</ele>
        <time>2022-05-12T07:14:09.276Z</time>
      </trkpt>
      <trkpt lat="43.72953" lon="3.59829">
        <ele>219</ele>
        <time>2022-05-12T07:14:09.815Z</time>
      </trkpt>
      <trkpt lat="43.72952" lon="3.59826">
        <ele>221</ele>
        <time>2022-05-12T07:14:11.500Z</time>
      </trkpt>
      <trkpt lat="43.72951" lon="3.59824">
        <ele>221</ele>
        <time>2022-05-12T07:14:11.822Z</time>
      </trkpt>
      <trkpt lat="43.7295" lon="3.5982">
        <ele>221</ele>
        <time>2022-05-12T07:14:12.381Z</time>
      </trkpt>
      <trkpt lat="43.72949" lon="3.59816">
        <ele>221</ele>
        <time>2022-05-12T07:14:12.941Z</time>
      </trkpt>
      <trkpt lat="43.72948" lon="3.59812">
        <ele>221</ele>
        <time>2022-05-12T07:14:13.500Z</time>
      </trkpt>
      <trkpt lat="43.72947" lon="3.59809">
        <ele>221</ele>
        <time>2022-05-12T07:14:13.937Z</time>
      </trkpt>
      <trkpt lat="43.72946" lon="3.59805">
        <ele>222</ele>
        <time>2022-05-12T07:14:16.096Z</time>
      </trkpt>
      <trkpt lat="43.72945" lon="3.59801">
        <ele>222</ele>
        <time>2022-05-12T07:14:16.655Z</time>
      </trkpt>
      <trkpt lat="43.72944" lon="3.59798">
        <ele>222</ele>
        <time>2022-05-12T07:14:17.092Z</time>
      </trkpt>
      <trkpt lat="43.72943" lon="3.59794">
        <ele>222</ele>
        <time>2022-05-12T07:14:17.652Z</time>
      </trkpt>
      <trkpt lat="43.72942" lon="3.59791">
        <ele>222</ele>
        <time>2022-05-12T07:14:18.088Z</time>
      </trkpt>
      <trkpt lat="43.72942" lon="3.59788">
        <ele>224</ele>
        <time>2022-05-12T07:14:19.618Z</time>
      </trkpt>
      <trkpt lat="43.72941" lon="3.59784">
        <ele>224</ele>
        <time>2022-05-12T07:14:20.178Z</time>
      </trkpt>
      <trkpt lat="43.72941" lon="3.5978">
        <ele>224</ele>
        <time>2022-05-12T07:14:20.707Z</time>
      </trkpt>
      <trkpt lat="43.72941" lon="3.59777">
        <ele>224</ele>
        <time>2022-05-12T07:14:21.103Z</time>
      </trkpt>
      <trkpt lat="43.7294" lon="3.59774">
        <ele>224</ele>
        <time>2022-05-12T07:14:21.540Z</time>
      </trkpt>
      <trkpt lat="43.72939" lon="3.5977">
        <ele>225</ele>
        <time>2022-05-12T07:14:23.698Z</time>
      </trkpt>
      <trkpt lat="43.72938" lon="3.59767">
        <ele>225</ele>
        <time>2022-05-12T07:14:24.135Z</time>
      </trkpt>
      <trkpt lat="43.72937" lon="3.59764">
        <ele>225</ele>
        <time>2022-05-12T07:14:24.572Z</time>
      </trkpt>
      <trkpt lat="43.72936" lon="3.5976">
        <ele>225</ele>
        <time>2022-05-12T07:14:25.132Z</time>
      </trkpt>
      <trkpt lat="43.72936" lon="3.59756">
        <ele>225</ele>
        <time>2022-05-12T07:14:25.660Z</time>
      </trkpt>
      <trkpt lat="43.72936" lon="3.59753">
        <ele>227</ele>
        <time>2022-05-12T07:14:27.190Z</time>
      </trkpt>
      <trkpt lat="43.72936" lon="3.5975">
        <ele>227</ele>
        <time>2022-05-12T07:14:27.587Z</time>
      </trkpt>
      <trkpt lat="43.72936" lon="3.59747">
        <ele>227</ele>
        <time>2022-05-12T07:14:27.984Z</time>
      </trkpt>
      <trkpt lat="43.72936" lon="3.59743">
        <ele>227</ele>
        <time>2022-05-12T07:14:28.512Z</time>
      </trkpt>
      <trkpt lat="43.72935" lon="3.5974">
        <ele>227</ele>
        <time>2022-05-12T07:14:28.949Z</time>
      </trkpt>
      <trkpt lat="43.72934" lon="3.59737">
        <ele>229</ele>
        <time>2022-05-12T07:14:30.634Z</time>
      </trkpt>
      <trkpt lat="43.72933" lon="3.59735">
        <ele>229</ele>
        <time>2022-05-12T07:14:30.955Z</time>
      </trkpt>
      <trkpt lat="43.72932" lon="3.59732">
        <ele>229</ele>
        <time>2022-05-12T07:14:31.392Z</time>
      </trkpt>
      <trkpt lat="43.72932" lon="3.59728">
        <ele>229</ele>
        <time>2022-05-12T07:14:31.921Z</time>
      </trkpt>
      <trkpt lat="43.72932" lon="3.59725">
        <ele>229</ele>
        <time>2022-05-12T07:14:32.318Z</time>
      </trkpt>
      <trkpt lat="43.72933" lon="3.59722">
        <ele>231</ele>
        <time>2022-05-12T07:14:34.002Z</time>
      </trkpt>
      <trkpt lat="43.72932" lon="3.59718">
        <ele>231</ele>
        <time>2022-05-12T07:14:34.562Z</time>
      </trkpt>
      <trkpt lat="43.72931" lon="3.59715">
        <ele>231</ele>
        <time>2022-05-12T07:14:34.999Z</time>
      </trkpt>
      <trkpt lat="43.72931" lon="3.59712">
        <ele>231</ele>
        <time>2022-05-12T07:14:35.395Z</time>
      </trkpt>
      <trkpt lat="43.72931" lon="3.59708">
        <ele>231</ele>
        <time>2022-05-12T07:14:35.924Z</time>
      </trkpt>
      <trkpt lat="43.72931" lon="3.59705">
        <ele>233</ele>
        <time>2022-05-12T07:14:37.454Z</time>
      </trkpt>
      <trkpt lat="43.72931" lon="3.59701">
        <ele>233</ele>
        <time>2022-05-12T07:14:37.983Z</time>
      </trkpt>
      <trkpt lat="43.72932" lon="3.59698">
        <ele>233</ele>
        <time>2022-05-12T07:14:38.420Z</time>
      </trkpt>
      <trkpt lat="43.72933" lon="3.59695">
        <ele>233</ele>
        <time>2022-05-12T07:14:38.857Z</time>
      </trkpt>
      <trkpt lat="43.72933" lon="3.59692">
        <ele>233</ele>
        <time>2022-05-12T07:14:39.253Z</time>
      </trkpt>
      <trkpt lat="43.72933" lon="3.59689">
        <ele>235</ele>
        <time>2022-05-12T07:14:40.783Z</time>
      </trkpt>
      <trkpt lat="43.72934" lon="3.59686">
        <ele>235</ele>
        <time>2022-05-12T07:14:41.220Z</time>
      </trkpt>
      <trkpt lat="43.72935" lon="3.59684">
        <ele>235</ele>
        <time>2022-05-12T07:14:41.541Z</time>
      </trkpt>
      <trkpt lat="43.72936" lon="3.59681">
        <ele>235</ele>
        <time>2022-05-12T07:14:41.978Z</time>
      </trkpt>
      <trkpt lat="43.72935" lon="3.59677">
        <ele>235</ele>
        <time>2022-05-12T07:14:42.538Z</time>
      </trkpt>
      <trkpt lat="43.72935" lon="3.59674">
        <ele>237</ele>
        <time>2022-05-12T07:14:44.068Z</time>
      </trkpt>
      <trkpt lat="43.72935" lon="3.59671">
        <ele>237</ele>
        <time>2022-05-12T07:14:44.464Z</time>
      </trkpt>
      <trkpt lat="43.72937" lon="3.59668">
        <ele>237</ele>
        <time>2022-05-12T07:14:45.004Z</time>
      </trkpt>
      <trkpt lat="43.72938" lon="3.59665">
        <ele>237</ele>
        <time>2022-05-12T07:14:45.441Z</time>
      </trkpt>
      <trkpt lat="43.72938" lon="3.59662">
        <ele>237</ele>
        <time>2022-05-12T07:14:45.837Z</time>
      </trkpt>
      <trkpt lat="43.72938" lon="3.59658">
        <ele>239</ele>
        <time>2022-05-12T07:14:47.877Z</time>
      </trkpt>
      <trkpt lat="43.72938" lon="3.59655">
        <ele>239</ele>
        <time>2022-05-12T07:14:48.274Z</time>
      </trkpt>
      <trkpt lat="43.7294" lon="3.59652">
        <ele>239</ele>
        <time>2022-05-12T07:14:48.813Z</time>
      </trkpt>
      <trkpt lat="43.72941" lon="3.5965">
        <ele>239</ele>
        <time>2022-05-12T07:14:49.135Z</time>
      </trkpt>
      <trkpt lat="43.72941" lon="3.59646">
        <ele>239</ele>
        <time>2022-05-12T07:14:49.664Z</time>
      </trkpt>
      <trkpt lat="43.72941" lon="3.59643">
        <ele>241</ele>
        <time>2022-05-12T07:14:51.193Z</time>
      </trkpt>
      <trkpt lat="43.72941" lon="3.59639">
        <ele>241</ele>
        <time>2022-05-12T07:14:51.722Z</time>
      </trkpt>
      <trkpt lat="43.72942" lon="3.59636">
        <ele>241</ele>
        <time>2022-05-12T07:14:52.159Z</time>
      </trkpt>
      <trkpt lat="43.72944" lon="3.59634">
        <ele>241</ele>
        <time>2022-05-12T07:14:52.611Z</time>
      </trkpt>
      <trkpt lat="43.72944" lon="3.59631">
        <ele>241</ele>
        <time>2022-05-12T07:14:53.007Z</time>
      </trkpt>
      <trkpt lat="43.72944" lon="3.59628">
        <ele>242</ele>
        <time>2022-05-12T07:14:54.537Z</time>
      </trkpt>
      <trkpt lat="43.72945" lon="3.59625">
        <ele>242</ele>
        <time>2022-05-12T07:14:54.974Z</time>
      </trkpt>
      <trkpt lat="43.72946" lon="3.59622">
        <ele>242</ele>
        <time>2022-05-12T07:14:55.411Z</time>
      </trkpt>
      <trkpt lat="43.72947" lon="3.59619">
        <ele>242</ele>
        <time>2022-05-12T07:14:55.847Z</time>
      </trkpt>
      <trkpt lat="43.72948" lon="3.59616">
        <ele>242</ele>
        <time>2022-05-12T07:14:56.284Z</time>
      </trkpt>
      <trkpt lat="43.72948" lon="3.59613">
        <ele>244</ele>
        <time>2022-05-12T07:14:57.814Z</time>
      </trkpt>
      <trkpt lat="43.72948" lon="3.5961">
        <ele>244</ele>
        <time>2022-05-12T07:14:58.211Z</time>
      </trkpt>
      <trkpt lat="43.72949" lon="3.59607">
        <ele>244</ele>
        <time>2022-05-12T07:14:58.647Z</time>
      </trkpt>
      <trkpt lat="43.7295" lon="3.59604">
        <ele>244</ele>
        <time>2022-05-12T07:14:59.084Z</time>
      </trkpt>
      <trkpt lat="43.72951" lon="3.59601">
        <ele>244</ele>
        <time>2022-05-12T07:14:59.521Z</time>
      </trkpt>
      <trkpt lat="43.72952" lon="3.59598">
        <ele>245</ele>
        <time>2022-05-12T07:15:01.206Z</time>
      </trkpt>
      <trkpt lat="43.72952" lon="3.59594">
        <ele>245</ele>
        <time>2022-05-12T07:15:01.735Z</time>
      </trkpt>
      <trkpt lat="43.72953" lon="3.5959">
        <ele>245</ele>
        <time>2022-05-12T07:15:02.294Z</time>
      </trkpt>
      <trkpt lat="43.72955" lon="3.59587">
        <ele>245</ele>
        <time>2022-05-12T07:15:02.834Z</time>
      </trkpt>
      <trkpt lat="43.72956" lon="3.59584">
        <ele>245</ele>
        <time>2022-05-12T07:15:03.271Z</time>
      </trkpt>
      <trkpt lat="43.72957" lon="3.5958">
        <ele>247</ele>
        <time>2022-05-12T07:15:05.429Z</time>
      </trkpt>
      <trkpt lat="43.72957" lon="3.59576">
        <ele>247</ele>
        <time>2022-05-12T07:15:05.958Z</time>
      </trkpt>
      <trkpt lat="43.72957" lon="3.59572">
        <ele>247</ele>
        <time>2022-05-12T07:15:06.487Z</time>
      </trkpt>
      <trkpt lat="43.72958" lon="3.59569">
        <ele>247</ele>
        <time>2022-05-12T07:15:06.923Z</time>
      </trkpt>
      <trkpt lat="43.72959" lon="3.59565">
        <ele>247</ele>
        <time>2022-05-12T07:15:07.483Z</time>
      </trkpt>
      <trkpt lat="43.7296" lon="3.59562">
        <ele>248</ele>
        <time>2022-05-12T07:15:09.168Z</time>
      </trkpt>
      <trkpt lat="43.7296" lon="3.59559">
        <ele>248</ele>
        <time>2022-05-12T07:15:09.564Z</time>
      </trkpt>
      <trkpt lat="43.72961" lon="3.59555">
        <ele>248</ele>
        <time>2022-05-12T07:15:10.124Z</time>
      </trkpt>
      <trkpt lat="43.72962" lon="3.59552">
        <ele>248</ele>
        <time>2022-05-12T07:15:10.561Z</time>
      </trkpt>
      <trkpt lat="43.72963" lon="3.59549">
        <ele>248</ele>
        <time>2022-05-12T07:15:10.997Z</time>
      </trkpt>
      <trkpt lat="43.72963" lon="3.59545">
        <ele>251</ele>
        <time>2022-05-12T07:15:13.037Z</time>
      </trkpt>
      <trkpt lat="43.72964" lon="3.59541">
        <ele>251</ele>
        <time>2022-05-12T07:15:13.597Z</time>
      </trkpt>
      <trkpt lat="43.72964" lon="3.59537">
        <ele>251</ele>
        <time>2022-05-12T07:15:14.126Z</time>
      </trkpt>
      <trkpt lat="43.72963" lon="3.59533">
        <ele>251</ele>
        <time>2022-05-12T07:15:14.685Z</time>
      </trkpt>
      <trkpt lat="43.72962" lon="3.5953">
        <ele>251</ele>
        <time>2022-05-12T07:15:15.122Z</time>
      </trkpt>
      <trkpt lat="43.72959" lon="3.59528">
        <ele>252</ele>
        <time>2022-05-12T07:15:17.472Z</time>
      </trkpt>
      <trkpt lat="43.72956" lon="3.59527">
        <ele>252</ele>
        <time>2022-05-12T07:15:18.037Z</time>
      </trkpt>
      <trkpt lat="43.72953" lon="3.59526">
        <ele>252</ele>
        <time>2022-05-12T07:15:18.601Z</time>
      </trkpt>
      <trkpt lat="43.72951" lon="3.59525">
        <ele>252</ele>
        <time>2022-05-12T07:15:18.990Z</time>
      </trkpt>
      <trkpt lat="43.72948" lon="3.59523">
        <ele>252</ele>
        <time>2022-05-12T07:15:19.599Z</time>
      </trkpt>
      <trkpt lat="43.72945" lon="3.59523">
        <ele>253</ele>
        <time>2022-05-12T07:15:21.717Z</time>
      </trkpt>
      <trkpt lat="43.72942" lon="3.59522">
        <ele>253</ele>
        <time>2022-05-12T07:15:22.281Z</time>
      </trkpt>
      <trkpt lat="43.72939" lon="3.59522">
        <ele>253</ele>
        <time>2022-05-12T07:15:22.830Z</time>
      </trkpt>
      <trkpt lat="43.72936" lon="3.59521">
        <ele>253</ele>
        <time>2022-05-12T07:15:23.395Z</time>
      </trkpt>
      <trkpt lat="43.72934" lon="3.5952">
        <ele>253</ele>
        <time>2022-05-12T07:15:23.784Z</time>
      </trkpt>
      <trkpt lat="43.72931" lon="3.59518">
        <ele>254</ele>
        <time>2022-05-12T07:15:26.134Z</time>
      </trkpt>
      <trkpt lat="43.72929" lon="3.59516">
        <ele>254</ele>
        <time>2022-05-12T07:15:26.585Z</time>
      </trkpt>
      <trkpt lat="43.72927" lon="3.59513">
        <ele>254</ele>
        <time>2022-05-12T07:15:27.125Z</time>
      </trkpt>
      <trkpt lat="43.72925" lon="3.59511">
        <ele>254</ele>
        <time>2022-05-12T07:15:27.576Z</time>
      </trkpt>
      <trkpt lat="43.72922" lon="3.59508">
        <ele>254</ele>
        <time>2022-05-12T07:15:28.253Z</time>
      </trkpt>
      <trkpt lat="43.7292" lon="3.59506">
        <ele>256</ele>
        <time>2022-05-12T07:15:29.995Z</time>
      </trkpt>
      <trkpt lat="43.72918" lon="3.59502">
        <ele>256</ele>
        <time>2022-05-12T07:15:30.638Z</time>
      </trkpt>
      <trkpt lat="43.72918" lon="3.59498">
        <ele>256</ele>
        <time>2022-05-12T07:15:31.167Z</time>
      </trkpt>
      <trkpt lat="43.72918" lon="3.59494">
        <ele>256</ele>
        <time>2022-05-12T07:15:31.695Z</time>
      </trkpt>
      <trkpt lat="43.72917" lon="3.59491">
        <ele>256</ele>
        <time>2022-05-12T07:15:32.132Z</time>
      </trkpt>
      <trkpt lat="43.72916" lon="3.59487">
        <ele>257</ele>
        <time>2022-05-12T07:15:34.291Z</time>
      </trkpt>
      <trkpt lat="43.72914" lon="3.59484">
        <ele>257</ele>
        <time>2022-05-12T07:15:34.830Z</time>
      </trkpt>
      <trkpt lat="43.72913" lon="3.5948">
        <ele>257</ele>
        <time>2022-05-12T07:15:35.390Z</time>
      </trkpt>
      <trkpt lat="43.72912" lon="3.59477">
        <ele>257</ele>
        <time>2022-05-12T07:15:35.827Z</time>
      </trkpt>
      <trkpt lat="43.72911" lon="3.59473">
        <ele>257</ele>
        <time>2022-05-12T07:15:36.386Z</time>
      </trkpt>
      <trkpt lat="43.7291" lon="3.5947">
        <ele>258</ele>
        <time>2022-05-12T07:15:38.071Z</time>
      </trkpt>
      <trkpt lat="43.72909" lon="3.59466">
        <ele>258</ele>
        <time>2022-05-12T07:15:38.631Z</time>
      </trkpt>
      <trkpt lat="43.72908" lon="3.59463">
        <ele>258</ele>
        <time>2022-05-12T07:15:39.067Z</time>
      </trkpt>
      <trkpt lat="43.72907" lon="3.59459">
        <ele>258</ele>
        <time>2022-05-12T07:15:39.627Z</time>
      </trkpt>
      <trkpt lat="43.72905" lon="3.59456">
        <ele>258</ele>
        <time>2022-05-12T07:15:40.167Z</time>
      </trkpt>
      <trkpt lat="43.72904" lon="3.59453">
        <ele>260</ele>
        <time>2022-05-12T07:15:41.851Z</time>
      </trkpt>
      <trkpt lat="43.72902" lon="3.5945">
        <ele>260</ele>
        <time>2022-05-12T07:15:42.391Z</time>
      </trkpt>
      <trkpt lat="43.729" lon="3.59448">
        <ele>260</ele>
        <time>2022-05-12T07:15:42.842Z</time>
      </trkpt>
      <trkpt lat="43.72898" lon="3.59445">
        <ele>260</ele>
        <time>2022-05-12T07:15:43.382Z</time>
      </trkpt>
      <trkpt lat="43.72895" lon="3.59443">
        <ele>260</ele>
        <time>2022-05-12T07:15:43.991Z</time>
      </trkpt>
      <trkpt lat="43.72893" lon="3.5944">
        <ele>262</ele>
        <time>2022-05-12T07:15:46.073Z</time>
      </trkpt>
      <trkpt lat="43.72891" lon="3.59437">
        <ele>262</ele>
        <time>2022-05-12T07:15:46.612Z</time>
      </trkpt>
      <trkpt lat="43.72888" lon="3.59434">
        <ele>262</ele>
        <time>2022-05-12T07:15:47.290Z</time>
      </trkpt>
      <trkpt lat="43.72886" lon="3.5943">
        <ele>262</ele>
        <time>2022-05-12T07:15:47.933Z</time>
      </trkpt>
      <trkpt lat="43.72884" lon="3.59427">
        <ele>262</ele>
        <time>2022-05-12T07:15:48.472Z</time>
      </trkpt>
      <trkpt lat="43.72883" lon="3.59422">
        <ele>263</ele>
        <time>2022-05-12T07:15:51.118Z</time>
      </trkpt>
      <trkpt lat="43.72882" lon="3.59418">
        <ele>263</ele>
        <time>2022-05-12T07:15:51.677Z</time>
      </trkpt>
      <trkpt lat="43.72882" lon="3.59414">
        <ele>263</ele>
        <time>2022-05-12T07:15:52.206Z</time>
      </trkpt>
      <trkpt lat="43.72883" lon="3.5941">
        <ele>263</ele>
        <time>2022-05-12T07:15:52.766Z</time>
      </trkpt>
      <trkpt lat="43.72885" lon="3.59406">
        <ele>263</ele>
        <time>2022-05-12T07:15:53.409Z</time>
      </trkpt>
      <trkpt lat="43.72887" lon="3.59403">
        <ele>265</ele>
        <time>2022-05-12T07:15:55.490Z</time>
      </trkpt>
      <trkpt lat="43.72889" lon="3.594">
        <ele>265</ele>
        <time>2022-05-12T07:15:56.030Z</time>
      </trkpt>
      <trkpt lat="43.72892" lon="3.59398">
        <ele>265</ele>
        <time>2022-05-12T07:15:56.639Z</time>
      </trkpt>
      <trkpt lat="43.72894" lon="3.59395">
        <ele>265</ele>
        <time>2022-05-12T07:15:57.179Z</time>
      </trkpt>
      <trkpt lat="43.72897" lon="3.59393">
        <ele>265</ele>
        <time>2022-05-12T07:15:57.788Z</time>
      </trkpt>
      <trkpt lat="43.729" lon="3.59391">
        <ele>266</ele>
        <time>2022-05-12T07:16:00.138Z</time>
      </trkpt>
      <trkpt lat="43.72903" lon="3.59388">
        <ele>266</ele>
        <time>2022-05-12T07:16:00.815Z</time>
      </trkpt>
      <trkpt lat="43.72905" lon="3.59386">
        <ele>266</ele>
        <time>2022-05-12T07:16:01.267Z</time>
      </trkpt>
      <trkpt lat="43.72908" lon="3.59384">
        <ele>266</ele>
        <time>2022-05-12T07:16:01.876Z</time>
      </trkpt>
      <trkpt lat="43.7291" lon="3.5938">
        <ele>266</ele>
        <time>2022-05-12T07:16:02.519Z</time>
      </trkpt>
      <trkpt lat="43.7291" lon="3.59375">
        <ele>267</ele>
        <time>2022-05-12T07:16:05.069Z</time>
      </trkpt>
      <trkpt lat="43.72909" lon="3.59371">
        <ele>267</ele>
        <time>2022-05-12T07:16:05.628Z</time>
      </trkpt>
      <trkpt lat="43.72909" lon="3.5937">
        <ele>269</ele>
        <time>2022-05-12T07:16:06.138Z</time>
      </trkpt>
      <trkpt lat="43.72907" lon="3.59363">
        <ele>268</ele>
        <time>2022-05-12T07:16:06.623Z</time>
      </trkpt>
      <trkpt lat="43.72907" lon="3.59362">
        <ele>268</ele>
        <time>2022-05-12T07:16:06.755Z</time>
      </trkpt>
      <trkpt lat="43.72907" lon="3.5936">
        <ele>268</ele>
        <time>2022-05-12T07:16:07.019Z</time>
      </trkpt>
      <trkpt lat="43.729" lon="3.59364">
        <ele>268</ele>
        <time>2022-05-12T07:16:08.405Z</time>
      </trkpt>
      <trkpt lat="43.72901" lon="3.59363">
        <ele>268</ele>
        <time>2022-05-12T07:16:08.631Z</time>
      </trkpt>
      <trkpt lat="43.72898" lon="3.59378">
        <ele>267</ele>
        <time>2022-05-12T07:16:09.632Z</time>
      </trkpt>
      <trkpt lat="43.72897" lon="3.59379">
        <ele>267</ele>
        <time>2022-05-12T07:16:09.858Z</time>
      </trkpt>
      <trkpt lat="43.7291" lon="3.59363">
        <ele>268</ele>
        <time>2022-05-12T07:16:15.710Z</time>
      </trkpt>
      <trkpt lat="43.7291" lon="3.59365">
        <ele>268</ele>
        <time>2022-05-12T07:16:15.975Z</time>
      </trkpt>
      <trkpt lat="43.72903" lon="3.59361">
        <ele>268</ele>
        <time>2022-05-12T07:16:17.360Z</time>
      </trkpt>
      <trkpt lat="43.72912" lon="3.59368">
        <ele>268</ele>
        <time>2022-05-12T07:16:19.249Z</time>
      </trkpt>
      <trkpt lat="43.72912" lon="3.59371">
        <ele>268</ele>
        <time>2022-05-12T07:16:19.646Z</time>
      </trkpt>
      <trkpt lat="43.7291" lon="3.59365">
        <ele>268</ele>
        <time>2022-05-12T07:16:20.519Z</time>
      </trkpt>
      <trkpt lat="43.7291" lon="3.59364">
        <ele>268</ele>
        <time>2022-05-12T07:16:20.651Z</time>
      </trkpt>
      <trkpt lat="43.72909" lon="3.59361">
        <ele>268</ele>
        <time>2022-05-12T07:16:21.088Z</time>
      </trkpt>
      <trkpt lat="43.7291" lon="3.59359">
        <ele>268</ele>
        <time>2022-05-12T07:16:21.410Z</time>
      </trkpt>
      <trkpt lat="43.7291" lon="3.59358">
        <ele>268</ele>
        <time>2022-05-12T07:16:21.542Z</time>
      </trkpt>
      <trkpt lat="43.72919" lon="3.59375">
        <ele>269</ele>
        <time>2022-05-12T07:16:26.971Z</time>
      </trkpt>
      <trkpt lat="43.72922" lon="3.59376">
        <ele>269</ele>
        <time>2022-05-12T07:16:27.536Z</time>
      </trkpt>
      <trkpt lat="43.72924" lon="3.59376">
        <ele>269</ele>
        <time>2022-05-12T07:16:27.902Z</time>
      </trkpt>
      <trkpt lat="43.72926" lon="3.59378">
        <ele>269</ele>
        <time>2022-05-12T07:16:28.353Z</time>
      </trkpt>
      <trkpt lat="43.72929" lon="3.5938">
        <ele>269</ele>
        <time>2022-05-12T07:16:28.962Z</time>
      </trkpt>
      <trkpt lat="43.72932" lon="3.59382">
        <ele>269</ele>
        <time>2022-05-12T07:16:29.571Z</time>
      </trkpt>
      <trkpt lat="43.72934" lon="3.59385">
        <ele>269</ele>
        <time>2022-05-12T07:16:30.111Z</time>
      </trkpt>
      <trkpt lat="43.72934" lon="3.59389">
        <ele>269</ele>
        <time>2022-05-12T07:16:30.640Z</time>
      </trkpt>
      <trkpt lat="43.72934" lon="3.59392">
        <ele>269</ele>
        <time>2022-05-12T07:16:31.037Z</time>
      </trkpt>
      <trkpt lat="43.72935" lon="3.59395">
        <ele>269</ele>
        <time>2022-05-12T07:16:31.473Z</time>
      </trkpt>
      <trkpt lat="43.72937" lon="3.59397">
        <ele>269</ele>
        <time>2022-05-12T07:16:31.925Z</time>
      </trkpt>
      <trkpt lat="43.72939" lon="3.59398">
        <ele>269</ele>
        <time>2022-05-12T07:16:32.314Z</time>
      </trkpt>
      <trkpt lat="43.72942" lon="3.59399">
        <ele>269</ele>
        <time>2022-05-12T07:16:32.878Z</time>
      </trkpt>
      <trkpt lat="43.72945" lon="3.59401">
        <ele>269</ele>
        <time>2022-05-12T07:16:33.488Z</time>
      </trkpt>
      <trkpt lat="43.72947" lon="3.59402">
        <ele>268</ele>
        <time>2022-05-12T07:16:33.677Z</time>
      </trkpt>
      <trkpt lat="43.7295" lon="3.59401">
        <ele>268</ele>
        <time>2022-05-12T07:16:34.242Z</time>
      </trkpt>
      <trkpt lat="43.72953" lon="3.59401">
        <ele>268</ele>
        <time>2022-05-12T07:16:34.790Z</time>
      </trkpt>
      <trkpt lat="43.72955" lon="3.59399">
        <ele>268</ele>
        <time>2022-05-12T07:16:35.242Z</time>
      </trkpt>
      <trkpt lat="43.72958" lon="3.59397">
        <ele>268</ele>
        <time>2022-05-12T07:16:35.851Z</time>
      </trkpt>
      <trkpt lat="43.7296" lon="3.59393">
        <ele>268</ele>
        <time>2022-05-12T07:16:36.494Z</time>
      </trkpt>
      <trkpt lat="43.72962" lon="3.5939">
        <ele>268</ele>
        <time>2022-05-12T07:16:37.034Z</time>
      </trkpt>
      <trkpt lat="43.72963" lon="3.59388">
        <ele>268</ele>
        <time>2022-05-12T07:16:37.355Z</time>
      </trkpt>
      <trkpt lat="43.72964" lon="3.59385">
        <ele>268</ele>
        <time>2022-05-12T07:16:37.792Z</time>
      </trkpt>
      <trkpt lat="43.72967" lon="3.59382">
        <ele>268</ele>
        <time>2022-05-12T07:16:38.469Z</time>
      </trkpt>
      <trkpt lat="43.72969" lon="3.59381">
        <ele>268</ele>
        <time>2022-05-12T07:16:38.858Z</time>
      </trkpt>
      <trkpt lat="43.72971" lon="3.5938">
        <ele>268</ele>
        <time>2022-05-12T07:16:39.248Z</time>
      </trkpt>
      <trkpt lat="43.72972" lon="3.59378">
        <ele>268</ele>
        <time>2022-05-12T07:16:39.569Z</time>
      </trkpt>
      <trkpt lat="43.72974" lon="3.59375">
        <ele>268</ele>
        <time>2022-05-12T07:16:40.109Z</time>
      </trkpt>
      <trkpt lat="43.72975" lon="3.59373">
        <ele>268</ele>
        <time>2022-05-12T07:16:40.430Z</time>
      </trkpt>
      <trkpt lat="43.72976" lon="3.5937">
        <ele>268</ele>
        <time>2022-05-12T07:16:40.867Z</time>
      </trkpt>
      <trkpt lat="43.72977" lon="3.59366">
        <ele>268</ele>
        <time>2022-05-12T07:16:41.427Z</time>
      </trkpt>
      <trkpt lat="43.72978" lon="3.59363">
        <ele>268</ele>
        <time>2022-05-12T07:16:41.863Z</time>
      </trkpt>
      <trkpt lat="43.72979" lon="3.5936">
        <ele>268</ele>
        <time>2022-05-12T07:16:42.300Z</time>
      </trkpt>
      <trkpt lat="43.72981" lon="3.59358">
        <ele>268</ele>
        <time>2022-05-12T07:16:42.752Z</time>
      </trkpt>
      <trkpt lat="43.72984" lon="3.59357">
        <ele>268</ele>
        <time>2022-05-12T07:16:43.316Z</time>
      </trkpt>
      <trkpt lat="43.72986" lon="3.59356">
        <ele>268</ele>
        <time>2022-05-12T07:16:43.705Z</time>
      </trkpt>
      <trkpt lat="43.72988" lon="3.59356">
        <ele>268</ele>
        <time>2022-05-12T07:16:44.071Z</time>
      </trkpt>
      <trkpt lat="43.72991" lon="3.59356">
        <ele>268</ele>
        <time>2022-05-12T07:16:44.620Z</time>
      </trkpt>
      <trkpt lat="43.72993" lon="3.59355">
        <ele>268</ele>
        <time>2022-05-12T07:16:45.009Z</time>
      </trkpt>
      <trkpt lat="43.72995" lon="3.59356">
        <ele>268</ele>
        <time>2022-05-12T07:16:45.398Z</time>
      </trkpt>
      <trkpt lat="43.72998" lon="3.59356">
        <ele>268</ele>
        <time>2022-05-12T07:16:45.947Z</time>
      </trkpt>
      <trkpt lat="43.73" lon="3.59356">
        <ele>268</ele>
        <time>2022-05-12T07:16:46.313Z</time>
      </trkpt>
      <trkpt lat="43.73002" lon="3.59356">
        <ele>268</ele>
        <time>2022-05-12T07:16:46.679Z</time>
      </trkpt>
      <trkpt lat="43.73005" lon="3.59357">
        <ele>268</ele>
        <time>2022-05-12T07:16:47.243Z</time>
      </trkpt>
      <trkpt lat="43.73007" lon="3.59357">
        <ele>268</ele>
        <time>2022-05-12T07:16:47.609Z</time>
      </trkpt>
      <trkpt lat="43.73009" lon="3.59357">
        <ele>268</ele>
        <time>2022-05-12T07:16:47.975Z</time>
      </trkpt>
      <trkpt lat="43.73012" lon="3.59357">
        <ele>268</ele>
        <time>2022-05-12T07:16:48.524Z</time>
      </trkpt>
      <trkpt lat="43.73014" lon="3.59357">
        <ele>268</ele>
        <time>2022-05-12T07:16:48.890Z</time>
      </trkpt>
      <trkpt lat="43.73017" lon="3.59356">
        <ele>268</ele>
        <time>2022-05-12T07:16:49.455Z</time>
      </trkpt>
      <trkpt lat="43.73019" lon="3.59355">
        <ele>268</ele>
        <time>2022-05-12T07:16:49.844Z</time>
      </trkpt>
      <trkpt lat="43.73022" lon="3.59354">
        <ele>268</ele>
        <time>2022-05-12T07:16:50.408Z</time>
      </trkpt>
      <trkpt lat="43.73024" lon="3.59353">
        <ele>268</ele>
        <time>2022-05-12T07:16:50.797Z</time>
      </trkpt>
      <trkpt lat="43.73027" lon="3.59352">
        <ele>268</ele>
        <time>2022-05-12T07:16:51.362Z</time>
      </trkpt>
      <trkpt lat="43.7303" lon="3.59351">
        <ele>268</ele>
        <time>2022-05-12T07:16:51.927Z</time>
      </trkpt>
      <trkpt lat="43.73033" lon="3.59351">
        <ele>268</ele>
        <time>2022-05-12T07:16:52.475Z</time>
      </trkpt>
      <trkpt lat="43.73037" lon="3.59351">
        <ele>268</ele>
        <time>2022-05-12T07:16:53.207Z</time>
      </trkpt>
      <trkpt lat="43.7304" lon="3.59352">
        <ele>268</ele>
        <time>2022-05-12T07:16:53.772Z</time>
      </trkpt>
      <trkpt lat="43.73044" lon="3.59352">
        <ele>268</ele>
        <time>2022-05-12T07:16:54.504Z</time>
      </trkpt>
      <trkpt lat="43.73048" lon="3.59353">
        <ele>268</ele>
        <time>2022-05-12T07:16:55.247Z</time>
      </trkpt>
      <trkpt lat="43.73051" lon="3.59353">
        <ele>268</ele>
        <time>2022-05-12T07:16:55.796Z</time>
      </trkpt>
      <trkpt lat="43.73055" lon="3.59354">
        <ele>268</ele>
        <time>2022-05-12T07:16:56.540Z</time>
      </trkpt>
      <trkpt lat="43.73059" lon="3.59355">
        <ele>268</ele>
        <time>2022-05-12T07:16:57.284Z</time>
      </trkpt>
      <trkpt lat="43.73063" lon="3.59355">
        <ele>268</ele>
        <time>2022-05-12T07:16:58.015Z</time>
      </trkpt>
      <trkpt lat="43.73067" lon="3.59356">
        <ele>267</ele>
        <time>2022-05-12T07:16:58.377Z</time>
      </trkpt>
      <trkpt lat="43.7307" lon="3.59357">
        <ele>267</ele>
        <time>2022-05-12T07:16:58.942Z</time>
      </trkpt>
      <trkpt lat="43.73073" lon="3.59358">
        <ele>267</ele>
        <time>2022-05-12T07:16:59.506Z</time>
      </trkpt>
      <trkpt lat="43.73075" lon="3.59361">
        <ele>267</ele>
        <time>2022-05-12T07:17:00.046Z</time>
      </trkpt>
      <trkpt lat="43.73076" lon="3.59364">
        <ele>267</ele>
        <time>2022-05-12T07:17:00.483Z</time>
      </trkpt>
      <trkpt lat="43.73077" lon="3.59368">
        <ele>267</ele>
        <time>2022-05-12T07:17:01.042Z</time>
      </trkpt>
      <trkpt lat="43.73078" lon="3.59373">
        <ele>267</ele>
        <time>2022-05-12T07:17:01.728Z</time>
      </trkpt>
      <trkpt lat="43.73078" lon="3.59377">
        <ele>267</ele>
        <time>2022-05-12T07:17:02.257Z</time>
      </trkpt>
      <trkpt lat="43.73078" lon="3.59381">
        <ele>267</ele>
        <time>2022-05-12T07:17:02.786Z</time>
      </trkpt>
      <trkpt lat="43.73077" lon="3.59385">
        <ele>267</ele>
        <time>2022-05-12T07:17:03.345Z</time>
      </trkpt>
      <trkpt lat="43.73077" lon="3.59388">
        <ele>267</ele>
        <time>2022-05-12T07:17:03.742Z</time>
      </trkpt>
      <trkpt lat="43.73076" lon="3.59392">
        <ele>267</ele>
        <time>2022-05-12T07:17:04.302Z</time>
      </trkpt>
      <trkpt lat="43.73076" lon="3.59395">
        <ele>267</ele>
        <time>2022-05-12T07:17:04.698Z</time>
      </trkpt>
      <trkpt lat="43.73076" lon="3.59399">
        <ele>267</ele>
        <time>2022-05-12T07:17:05.227Z</time>
      </trkpt>
      <trkpt lat="43.73076" lon="3.59401">
        <ele>267</ele>
        <time>2022-05-12T07:17:05.491Z</time>
      </trkpt>
      <trkpt lat="43.73077" lon="3.59404">
        <ele>267</ele>
        <time>2022-05-12T07:17:05.928Z</time>
      </trkpt>
      <trkpt lat="43.73078" lon="3.59407">
        <ele>267</ele>
        <time>2022-05-12T07:17:06.365Z</time>
      </trkpt>
      <trkpt lat="43.73079" lon="3.5941">
        <ele>267</ele>
        <time>2022-05-12T07:17:06.802Z</time>
      </trkpt>
      <trkpt lat="43.7308" lon="3.59412">
        <ele>267</ele>
        <time>2022-05-12T07:17:07.123Z</time>
      </trkpt>
      <trkpt lat="43.73081" lon="3.59416">
        <ele>267</ele>
        <time>2022-05-12T07:17:07.683Z</time>
      </trkpt>
      <trkpt lat="43.73082" lon="3.59419">
        <ele>268</ele>
        <time>2022-05-12T07:17:09.368Z</time>
      </trkpt>
      <trkpt lat="43.73082" lon="3.59422">
        <ele>268</ele>
        <time>2022-05-12T07:17:09.764Z</time>
      </trkpt>
      <trkpt lat="43.73083" lon="3.59424">
        <ele>268</ele>
        <time>2022-05-12T07:17:10.086Z</time>
      </trkpt>
      <trkpt lat="43.73084" lon="3.59427">
        <ele>268</ele>
        <time>2022-05-12T07:17:10.523Z</time>
      </trkpt>
      <trkpt lat="43.73084" lon="3.5943">
        <ele>268</ele>
        <time>2022-05-12T07:17:10.919Z</time>
      </trkpt>
      <trkpt lat="43.73085" lon="3.59433">
        <ele>268</ele>
        <time>2022-05-12T07:17:11.356Z</time>
      </trkpt>
      <trkpt lat="43.73086" lon="3.59435">
        <ele>268</ele>
        <time>2022-05-12T07:17:11.678Z</time>
      </trkpt>
      <trkpt lat="43.73087" lon="3.59438">
        <ele>268</ele>
        <time>2022-05-12T07:17:12.114Z</time>
      </trkpt>
      <trkpt lat="43.73088" lon="3.5944">
        <ele>268</ele>
        <time>2022-05-12T07:17:12.436Z</time>
      </trkpt>
      <trkpt lat="43.73089" lon="3.59442">
        <ele>268</ele>
        <time>2022-05-12T07:17:12.757Z</time>
      </trkpt>
      <trkpt lat="43.73091" lon="3.59444">
        <ele>269</ele>
        <time>2022-05-12T07:17:14.499Z</time>
      </trkpt>
      <trkpt lat="43.73092" lon="3.59447">
        <ele>269</ele>
        <time>2022-05-12T07:17:14.935Z</time>
      </trkpt>
      <trkpt lat="43.73093" lon="3.59449">
        <ele>269</ele>
        <time>2022-05-12T07:17:15.257Z</time>
      </trkpt>
      <trkpt lat="43.73095" lon="3.59451">
        <ele>269</ele>
        <time>2022-05-12T07:17:15.708Z</time>
      </trkpt>
      <trkpt lat="43.73096" lon="3.59454">
        <ele>269</ele>
        <time>2022-05-12T07:17:16.145Z</time>
      </trkpt>
      <trkpt lat="43.73097" lon="3.59456">
        <ele>269</ele>
        <time>2022-05-12T07:17:16.467Z</time>
      </trkpt>
      <trkpt lat="43.73098" lon="3.59459">
        <ele>269</ele>
        <time>2022-05-12T07:17:16.904Z</time>
      </trkpt>
      <trkpt lat="43.731" lon="3.59461">
        <ele>269</ele>
        <time>2022-05-12T07:17:17.355Z</time>
      </trkpt>
      <trkpt lat="43.73101" lon="3.59463">
        <ele>269</ele>
        <time>2022-05-12T07:17:17.677Z</time>
      </trkpt>
      <trkpt lat="43.73102" lon="3.59465">
        <ele>269</ele>
        <time>2022-05-12T07:17:17.998Z</time>
      </trkpt>
      <trkpt lat="43.73103" lon="3.59467">
        <ele>271</ele>
        <time>2022-05-12T07:17:19.238Z</time>
      </trkpt>
      <trkpt lat="43.73105" lon="3.59469">
        <ele>271</ele>
        <time>2022-05-12T07:17:19.690Z</time>
      </trkpt>
      <trkpt lat="43.73106" lon="3.59471">
        <ele>271</ele>
        <time>2022-05-12T07:17:20.011Z</time>
      </trkpt>
      <trkpt lat="43.73107" lon="3.59473">
        <ele>271</ele>
        <time>2022-05-12T07:17:20.333Z</time>
      </trkpt>
      <trkpt lat="43.73109" lon="3.59477">
        <ele>271</ele>
        <time>2022-05-12T07:17:20.976Z</time>
      </trkpt>
      <trkpt lat="43.7311" lon="3.59481">
        <ele>271</ele>
        <time>2022-05-12T07:17:21.535Z</time>
      </trkpt>
      <trkpt lat="43.7311" lon="3.59484">
        <ele>271</ele>
        <time>2022-05-12T07:17:21.932Z</time>
      </trkpt>
      <trkpt lat="43.73109" lon="3.59487">
        <ele>271</ele>
        <time>2022-05-12T07:17:22.369Z</time>
      </trkpt>
      <trkpt lat="43.73109" lon="3.5949">
        <ele>272</ele>
        <time>2022-05-12T07:17:23.899Z</time>
      </trkpt>
      <trkpt lat="43.73109" lon="3.59494">
        <ele>272</ele>
        <time>2022-05-12T07:17:24.427Z</time>
      </trkpt>
      <trkpt lat="43.73109" lon="3.59497">
        <ele>272</ele>
        <time>2022-05-12T07:17:24.824Z</time>
      </trkpt>
      <trkpt lat="43.7311" lon="3.595">
        <ele>272</ele>
        <time>2022-05-12T07:17:25.261Z</time>
      </trkpt>
      <trkpt lat="43.73112" lon="3.59505">
        <ele>272</ele>
        <time>2022-05-12T07:17:26.016Z</time>
      </trkpt>
      <trkpt lat="43.73113" lon="3.59507">
        <ele>272</ele>
        <time>2022-05-12T07:17:26.338Z</time>
      </trkpt>
      <trkpt lat="43.73113" lon="3.5951">
        <ele>274</ele>
        <time>2022-05-12T07:17:27.868Z</time>
      </trkpt>
      <trkpt lat="43.73114" lon="3.59513">
        <ele>274</ele>
        <time>2022-05-12T07:17:28.304Z</time>
      </trkpt>
      <trkpt lat="43.73115" lon="3.59516">
        <ele>274</ele>
        <time>2022-05-12T07:17:28.741Z</time>
      </trkpt>
      <trkpt lat="43.73116" lon="3.59519">
        <ele>274</ele>
        <time>2022-05-12T07:17:29.178Z</time>
      </trkpt>
      <trkpt lat="43.73117" lon="3.59522">
        <ele>274</ele>
        <time>2022-05-12T07:17:29.615Z</time>
      </trkpt>
      <trkpt lat="43.73117" lon="3.59525">
        <ele>274</ele>
        <time>2022-05-12T07:17:30.011Z</time>
      </trkpt>
      <trkpt lat="43.73118" lon="3.59529">
        <ele>274</ele>
        <time>2022-05-12T07:17:30.571Z</time>
      </trkpt>
      <trkpt lat="43.73118" lon="3.59532">
        <ele>274</ele>
        <time>2022-05-12T07:17:30.968Z</time>
      </trkpt>
      <trkpt lat="43.73119" lon="3.59536">
        <ele>274</ele>
        <time>2022-05-12T07:17:31.527Z</time>
      </trkpt>
      <trkpt lat="43.73119" lon="3.59539">
        <ele>274</ele>
        <time>2022-05-12T07:17:31.924Z</time>
      </trkpt>
      <trkpt lat="43.7312" lon="3.59543">
        <ele>274</ele>
        <time>2022-05-12T07:17:32.483Z</time>
      </trkpt>
      <trkpt lat="43.73121" lon="3.59546">
        <ele>274</ele>
        <time>2022-05-12T07:17:32.920Z</time>
      </trkpt>
      <trkpt lat="43.73122" lon="3.5955">
        <ele>274</ele>
        <time>2022-05-12T07:17:33.480Z</time>
      </trkpt>
      <trkpt lat="43.73123" lon="3.59554">
        <ele>274</ele>
        <time>2022-05-12T07:17:34.039Z</time>
      </trkpt>
      <trkpt lat="43.73124" lon="3.59558">
        <ele>274</ele>
        <time>2022-05-12T07:17:34.599Z</time>
      </trkpt>
      <trkpt lat="43.73125" lon="3.59562">
        <ele>274</ele>
        <time>2022-05-12T07:17:35.158Z</time>
      </trkpt>
      <trkpt lat="43.73127" lon="3.59564">
        <ele>274</ele>
        <time>2022-05-12T07:17:35.610Z</time>
      </trkpt>
      <trkpt lat="43.73129" lon="3.59567">
        <ele>274</ele>
        <time>2022-05-12T07:17:36.149Z</time>
      </trkpt>
      <trkpt lat="43.73131" lon="3.5957">
        <ele>274</ele>
        <time>2022-05-12T07:17:36.689Z</time>
      </trkpt>
      <trkpt lat="43.73132" lon="3.59574">
        <ele>274</ele>
        <time>2022-05-12T07:17:37.249Z</time>
      </trkpt>
      <trkpt lat="43.73132" lon="3.59578">
        <ele>275</ele>
        <time>2022-05-12T07:17:39.288Z</time>
      </trkpt>
      <trkpt lat="43.73132" lon="3.59582">
        <ele>275</ele>
        <time>2022-05-12T07:17:39.817Z</time>
      </trkpt>
      <trkpt lat="43.73133" lon="3.59585">
        <ele>275</ele>
        <time>2022-05-12T07:17:40.254Z</time>
      </trkpt>
      <trkpt lat="43.73134" lon="3.59587">
        <ele>275</ele>
        <time>2022-05-12T07:17:40.576Z</time>
      </trkpt>
      <trkpt lat="43.73136" lon="3.59589">
        <ele>275</ele>
        <time>2022-05-12T07:17:41.027Z</time>
      </trkpt>
      <trkpt lat="43.73138" lon="3.59591">
        <ele>275</ele>
        <time>2022-05-12T07:17:41.478Z</time>
      </trkpt>
      <trkpt lat="43.73141" lon="3.59593">
        <ele>275</ele>
        <time>2022-05-12T07:17:42.088Z</time>
      </trkpt>
      <trkpt lat="43.73143" lon="3.59595">
        <ele>275</ele>
        <time>2022-05-12T07:17:42.539Z</time>
      </trkpt>
      <trkpt lat="43.73146" lon="3.59597">
        <ele>275</ele>
        <time>2022-05-12T07:17:43.148Z</time>
      </trkpt>
      <trkpt lat="43.73149" lon="3.59599">
        <ele>275</ele>
        <time>2022-05-12T07:17:43.758Z</time>
      </trkpt>
      <trkpt lat="43.73151" lon="3.596">
        <ele>275</ele>
        <time>2022-05-12T07:17:44.147Z</time>
      </trkpt>
      <trkpt lat="43.73154" lon="3.59602">
        <ele>275</ele>
        <time>2022-05-12T07:17:44.756Z</time>
      </trkpt>
      <trkpt lat="43.73157" lon="3.59603">
        <ele>275</ele>
        <time>2022-05-12T07:17:45.320Z</time>
      </trkpt>
      <trkpt lat="43.73159" lon="3.59604">
        <ele>275</ele>
        <time>2022-05-12T07:17:45.710Z</time>
      </trkpt>
      <trkpt lat="43.73162" lon="3.59605">
        <ele>275</ele>
        <time>2022-05-12T07:17:46.274Z</time>
      </trkpt>
      <trkpt lat="43.73164" lon="3.59606">
        <ele>275</ele>
        <time>2022-05-12T07:17:46.663Z</time>
      </trkpt>
      <trkpt lat="43.73167" lon="3.59607">
        <ele>275</ele>
        <time>2022-05-12T07:17:47.228Z</time>
      </trkpt>
      <trkpt lat="43.7317" lon="3.59609">
        <ele>275</ele>
        <time>2022-05-12T07:17:47.837Z</time>
      </trkpt>
      <trkpt lat="43.73172" lon="3.5961">
        <ele>275</ele>
        <time>2022-05-12T07:17:48.226Z</time>
      </trkpt>
      <trkpt lat="43.73174" lon="3.59612">
        <ele>275</ele>
        <time>2022-05-12T07:17:48.677Z</time>
      </trkpt>
      <trkpt lat="43.73177" lon="3.59614">
        <ele>275</ele>
        <time>2022-05-12T07:17:49.287Z</time>
      </trkpt>
      <trkpt lat="43.73179" lon="3.59617">
        <ele>275</ele>
        <time>2022-05-12T07:17:49.826Z</time>
      </trkpt>
      <trkpt lat="43.73181" lon="3.59619">
        <ele>275</ele>
        <time>2022-05-12T07:17:50.278Z</time>
      </trkpt>
      <trkpt lat="43.73184" lon="3.59621">
        <ele>275</ele>
        <time>2022-05-12T07:17:50.887Z</time>
      </trkpt>
      <trkpt lat="43.73186" lon="3.59625">
        <ele>275</ele>
        <time>2022-05-12T07:17:51.530Z</time>
      </trkpt>
      <trkpt lat="43.73188" lon="3.59627">
        <ele>275</ele>
        <time>2022-05-12T07:17:51.982Z</time>
      </trkpt>
      <trkpt lat="43.73191" lon="3.59628">
        <ele>275</ele>
        <time>2022-05-12T07:17:52.546Z</time>
      </trkpt>
      <trkpt lat="43.73193" lon="3.59629">
        <ele>275</ele>
        <time>2022-05-12T07:17:52.935Z</time>
      </trkpt>
      <trkpt lat="43.73196" lon="3.59631">
        <ele>275</ele>
        <time>2022-05-12T07:17:53.544Z</time>
      </trkpt>
      <trkpt lat="43.732" lon="3.59632">
        <ele>275</ele>
        <time>2022-05-12T07:17:54.288Z</time>
      </trkpt>
      <trkpt lat="43.73203" lon="3.59632">
        <ele>275</ele>
        <time>2022-05-12T07:17:54.837Z</time>
      </trkpt>
      <trkpt lat="43.73205" lon="3.59633">
        <ele>275</ele>
        <time>2022-05-12T07:17:55.226Z</time>
      </trkpt>
      <trkpt lat="43.73208" lon="3.59634">
        <ele>275</ele>
        <time>2022-05-12T07:17:55.791Z</time>
      </trkpt>
      <trkpt lat="43.73211" lon="3.59634">
        <ele>275</ele>
        <time>2022-05-12T07:17:56.340Z</time>
      </trkpt>
      <trkpt lat="43.73213" lon="3.59637">
        <ele>275</ele>
        <time>2022-05-12T07:17:56.879Z</time>
      </trkpt>
      <trkpt lat="43.73214" lon="3.59639">
        <ele>275</ele>
        <time>2022-05-12T07:17:57.201Z</time>
      </trkpt>
      <trkpt lat="43.73216" lon="3.59642">
        <ele>275</ele>
        <time>2022-05-12T07:17:57.740Z</time>
      </trkpt>
      <trkpt lat="43.73219" lon="3.59644">
        <ele>275</ele>
        <time>2022-05-12T07:17:58.350Z</time>
      </trkpt>
      <trkpt lat="43.73221" lon="3.59645">
        <ele>275</ele>
        <time>2022-05-12T07:17:58.739Z</time>
      </trkpt>
      <trkpt lat="43.73224" lon="3.59645">
        <ele>275</ele>
        <time>2022-05-12T07:17:59.287Z</time>
      </trkpt>
      <trkpt lat="43.73227" lon="3.59646">
        <ele>276</ele>
        <time>2022-05-12T07:18:01.465Z</time>
      </trkpt>
      <trkpt lat="43.7323" lon="3.59647">
        <ele>276</ele>
        <time>2022-05-12T07:18:02.030Z</time>
      </trkpt>
      <trkpt lat="43.73232" lon="3.59649">
        <ele>276</ele>
        <time>2022-05-12T07:18:02.481Z</time>
      </trkpt>
      <trkpt lat="43.73234" lon="3.59651">
        <ele>276</ele>
        <time>2022-05-12T07:18:02.933Z</time>
      </trkpt>
      <trkpt lat="43.73236" lon="3.59652">
        <ele>276</ele>
        <time>2022-05-12T07:18:03.322Z</time>
      </trkpt>
      <trkpt lat="43.73239" lon="3.59653">
        <ele>276</ele>
        <time>2022-05-12T07:18:03.886Z</time>
      </trkpt>
      <trkpt lat="43.73242" lon="3.59654">
        <ele>276</ele>
        <time>2022-05-12T07:18:04.451Z</time>
      </trkpt>
      <trkpt lat="43.73245" lon="3.59654">
        <ele>276</ele>
        <time>2022-05-12T07:18:05.000Z</time>
      </trkpt>
      <trkpt lat="43.73248" lon="3.59655">
        <ele>276</ele>
        <time>2022-05-12T07:18:05.564Z</time>
      </trkpt>
      <trkpt lat="43.73251" lon="3.59656">
        <ele>276</ele>
        <time>2022-05-12T07:18:06.129Z</time>
      </trkpt>
      <trkpt lat="43.73253" lon="3.59658">
        <ele>276</ele>
        <time>2022-05-12T07:18:06.580Z</time>
      </trkpt>
      <trkpt lat="43.73256" lon="3.59659">
        <ele>276</ele>
        <time>2022-05-12T07:18:07.145Z</time>
      </trkpt>
      <trkpt lat="43.73259" lon="3.59661">
        <ele>276</ele>
        <time>2022-05-12T07:18:07.754Z</time>
      </trkpt>
      <trkpt lat="43.73262" lon="3.59663">
        <ele>276</ele>
        <time>2022-05-12T07:18:08.363Z</time>
      </trkpt>
      <trkpt lat="43.73265" lon="3.59665">
        <ele>276</ele>
        <time>2022-05-12T07:18:08.973Z</time>
      </trkpt>
      <trkpt lat="43.73267" lon="3.59668">
        <ele>276</ele>
        <time>2022-05-12T07:18:09.512Z</time>
      </trkpt>
      <trkpt lat="43.73269" lon="3.59672">
        <ele>276</ele>
        <time>2022-05-12T07:18:10.155Z</time>
      </trkpt>
      <trkpt lat="43.73272" lon="3.59675">
        <ele>276</ele>
        <time>2022-05-12T07:18:10.832Z</time>
      </trkpt>
      <trkpt lat="43.73275" lon="3.59679">
        <ele>276</ele>
        <time>2022-05-12T07:18:11.595Z</time>
      </trkpt>
      <trkpt lat="43.73277" lon="3.59683">
        <ele>276</ele>
        <time>2022-05-12T07:18:12.238Z</time>
      </trkpt>
      <trkpt lat="43.73279" lon="3.59687">
        <ele>276</ele>
        <time>2022-05-12T07:18:12.881Z</time>
      </trkpt>
      <trkpt lat="43.7328" lon="3.5969">
        <ele>276</ele>
        <time>2022-05-12T07:18:13.317Z</time>
      </trkpt>
      <trkpt lat="43.73282" lon="3.59693">
        <ele>276</ele>
        <time>2022-05-12T07:18:13.857Z</time>
      </trkpt>
      <trkpt lat="43.73285" lon="3.59696">
        <ele>276</ele>
        <time>2022-05-12T07:18:14.534Z</time>
      </trkpt>
      <trkpt lat="43.73289" lon="3.59698">
        <ele>276</ele>
        <time>2022-05-12T07:18:15.312Z</time>
      </trkpt>
      <trkpt lat="43.73292" lon="3.597">
        <ele>276</ele>
        <time>2022-05-12T07:18:15.922Z</time>
      </trkpt>
      <trkpt lat="43.73295" lon="3.59703">
        <ele>276</ele>
        <time>2022-05-12T07:18:16.599Z</time>
      </trkpt>
      <trkpt lat="43.73298" lon="3.59704">
        <ele>276</ele>
        <time>2022-05-12T07:18:17.163Z</time>
      </trkpt>
      <trkpt lat="43.73301" lon="3.59706">
        <ele>276</ele>
        <time>2022-05-12T07:18:17.773Z</time>
      </trkpt>
      <trkpt lat="43.73304" lon="3.59708">
        <ele>276</ele>
        <time>2022-05-12T07:18:18.382Z</time>
      </trkpt>
      <trkpt lat="43.73307" lon="3.5971">
        <ele>276</ele>
        <time>2022-05-12T07:18:18.991Z</time>
      </trkpt>
      <trkpt lat="43.7331" lon="3.59711">
        <ele>275</ele>
        <time>2022-05-12T07:18:19.266Z</time>
      </trkpt>
      <trkpt lat="43.73314" lon="3.59713">
        <ele>275</ele>
        <time>2022-05-12T07:18:20.044Z</time>
      </trkpt>
      <trkpt lat="43.73317" lon="3.59715">
        <ele>275</ele>
        <time>2022-05-12T07:18:20.653Z</time>
      </trkpt>
      <trkpt lat="43.7332" lon="3.59718">
        <ele>275</ele>
        <time>2022-05-12T07:18:21.330Z</time>
      </trkpt>
      <trkpt lat="43.73323" lon="3.5972">
        <ele>275</ele>
        <time>2022-05-12T07:18:21.940Z</time>
      </trkpt>
      <trkpt lat="43.73327" lon="3.59723">
        <ele>275</ele>
        <time>2022-05-12T07:18:22.772Z</time>
      </trkpt>
      <trkpt lat="43.7333" lon="3.59724">
        <ele>275</ele>
        <time>2022-05-12T07:18:23.336Z</time>
      </trkpt>
      <trkpt lat="43.73334" lon="3.59726">
        <ele>275</ele>
        <time>2022-05-12T07:18:24.115Z</time>
      </trkpt>
      <trkpt lat="43.73338" lon="3.59727">
        <ele>275</ele>
        <time>2022-05-12T07:18:24.858Z</time>
      </trkpt>
      <trkpt lat="43.7334" lon="3.59728">
        <ele>275</ele>
        <time>2022-05-12T07:18:25.247Z</time>
      </trkpt>
      <trkpt lat="43.73344" lon="3.59729">
        <ele>275</ele>
        <time>2022-05-12T07:18:25.991Z</time>
      </trkpt>
      <trkpt lat="43.73347" lon="3.5973">
        <ele>275</ele>
        <time>2022-05-12T07:18:26.556Z</time>
      </trkpt>
      <trkpt lat="43.7335" lon="3.5973">
        <ele>275</ele>
        <time>2022-05-12T07:18:27.104Z</time>
      </trkpt>
      <trkpt lat="43.73354" lon="3.59731">
        <ele>275</ele>
        <time>2022-05-12T07:18:27.848Z</time>
      </trkpt>
      <trkpt lat="43.73357" lon="3.59731">
        <ele>275</ele>
        <time>2022-05-12T07:18:28.397Z</time>
      </trkpt>
      <trkpt lat="43.73361" lon="3.59733">
        <ele>275</ele>
        <time>2022-05-12T07:18:29.175Z</time>
      </trkpt>
      <trkpt lat="43.73364" lon="3.59735">
        <ele>275</ele>
        <time>2022-05-12T07:18:29.784Z</time>
      </trkpt>
      <trkpt lat="43.73367" lon="3.59737">
        <ele>275</ele>
        <time>2022-05-12T07:18:30.394Z</time>
      </trkpt>
      <trkpt lat="43.73371" lon="3.5974">
        <ele>275</ele>
        <time>2022-05-12T07:18:31.226Z</time>
      </trkpt>
      <trkpt lat="43.73374" lon="3.59742">
        <ele>274</ele>
        <time>2022-05-12T07:18:31.522Z</time>
      </trkpt>
      <trkpt lat="43.73378" lon="3.59744">
        <ele>274</ele>
        <time>2022-05-12T07:18:32.301Z</time>
      </trkpt>
      <trkpt lat="43.73382" lon="3.59747">
        <ele>274</ele>
        <time>2022-05-12T07:18:33.133Z</time>
      </trkpt>
      <trkpt lat="43.73387" lon="3.59749">
        <ele>274</ele>
        <time>2022-05-12T07:18:34.085Z</time>
      </trkpt>
      <trkpt lat="43.73392" lon="3.59753">
        <ele>274</ele>
        <time>2022-05-12T07:18:35.142Z</time>
      </trkpt>
      <trkpt lat="43.73396" lon="3.59755">
        <ele>274</ele>
        <time>2022-05-12T07:18:35.920Z</time>
      </trkpt>
      <trkpt lat="43.734" lon="3.59756">
        <ele>274</ele>
        <time>2022-05-12T07:18:36.664Z</time>
      </trkpt>
      <trkpt lat="43.73405" lon="3.59757">
        <ele>274</ele>
        <time>2022-05-12T07:18:37.588Z</time>
      </trkpt>
      <trkpt lat="43.73409" lon="3.59756">
        <ele>274</ele>
        <time>2022-05-12T07:18:38.332Z</time>
      </trkpt>
      <trkpt lat="43.73413" lon="3.59755">
        <ele>274</ele>
        <time>2022-05-12T07:18:39.075Z</time>
      </trkpt>
      <trkpt lat="43.73416" lon="3.59754">
        <ele>273</ele>
        <time>2022-05-12T07:18:39.350Z</time>
      </trkpt>
      <trkpt lat="43.73419" lon="3.59753">
        <ele>273</ele>
        <time>2022-05-12T07:18:39.915Z</time>
      </trkpt>
      <trkpt lat="43.73422" lon="3.59754">
        <ele>273</ele>
        <time>2022-05-12T07:18:40.479Z</time>
      </trkpt>
      <trkpt lat="43.73425" lon="3.59755">
        <ele>273</ele>
        <time>2022-05-12T07:18:41.044Z</time>
      </trkpt>
      <trkpt lat="43.73428" lon="3.59756">
        <ele>273</ele>
        <time>2022-05-12T07:18:41.608Z</time>
      </trkpt>
      <trkpt lat="43.73432" lon="3.59757">
        <ele>273</ele>
        <time>2022-05-12T07:18:42.352Z</time>
      </trkpt>
      <trkpt lat="43.73435" lon="3.59757">
        <ele>273</ele>
        <time>2022-05-12T07:18:42.901Z</time>
      </trkpt>
      <trkpt lat="43.73439" lon="3.59758">
        <ele>273</ele>
        <time>2022-05-12T07:18:43.645Z</time>
      </trkpt>
      <trkpt lat="43.73442" lon="3.59758">
        <ele>273</ele>
        <time>2022-05-12T07:18:44.193Z</time>
      </trkpt>
      <trkpt lat="43.73446" lon="3.5976">
        <ele>273</ele>
        <time>2022-05-12T07:18:44.972Z</time>
      </trkpt>
      <trkpt lat="43.73449" lon="3.59761">
        <ele>272</ele>
        <time>2022-05-12T07:18:45.246Z</time>
      </trkpt>
      <trkpt lat="43.73453" lon="3.59762">
        <ele>272</ele>
        <time>2022-05-12T07:18:45.990Z</time>
      </trkpt>
      <trkpt lat="43.73457" lon="3.59763">
        <ele>272</ele>
        <time>2022-05-12T07:18:46.734Z</time>
      </trkpt>
      <trkpt lat="43.7346" lon="3.59764">
        <ele>272</ele>
        <time>2022-05-12T07:18:47.298Z</time>
      </trkpt>
      <trkpt lat="43.73464" lon="3.59765">
        <ele>272</ele>
        <time>2022-05-12T07:18:48.042Z</time>
      </trkpt>
      <trkpt lat="43.73468" lon="3.59767">
        <ele>272</ele>
        <time>2022-05-12T07:18:48.820Z</time>
      </trkpt>
      <trkpt lat="43.73471" lon="3.59769">
        <ele>272</ele>
        <time>2022-05-12T07:18:49.429Z</time>
      </trkpt>
      <trkpt lat="43.73474" lon="3.59771">
        <ele>272</ele>
        <time>2022-05-12T07:18:50.038Z</time>
      </trkpt>
      <trkpt lat="43.73477" lon="3.59774">
        <ele>272</ele>
        <time>2022-05-12T07:18:50.716Z</time>
      </trkpt>
      <trkpt lat="43.7348" lon="3.59777">
        <ele>272</ele>
        <time>2022-05-12T07:18:51.393Z</time>
      </trkpt>
      <trkpt lat="43.73482" lon="3.59782">
        <ele>272</ele>
        <time>2022-05-12T07:18:52.148Z</time>
      </trkpt>
      <trkpt lat="43.73483" lon="3.59786">
        <ele>272</ele>
        <time>2022-05-12T07:18:52.708Z</time>
      </trkpt>
      <trkpt lat="43.73486" lon="3.59789">
        <ele>272</ele>
        <time>2022-05-12T07:18:53.385Z</time>
      </trkpt>
      <trkpt lat="43.73489" lon="3.59792">
        <ele>272</ele>
        <time>2022-05-12T07:18:54.062Z</time>
      </trkpt>
      <trkpt lat="43.73492" lon="3.59794">
        <ele>272</ele>
        <time>2022-05-12T07:18:54.671Z</time>
      </trkpt>
      <trkpt lat="43.73495" lon="3.59796">
        <ele>272</ele>
        <time>2022-05-12T07:18:55.281Z</time>
      </trkpt>
      <trkpt lat="43.73499" lon="3.59799">
        <ele>272</ele>
        <time>2022-05-12T07:18:56.113Z</time>
      </trkpt>
      <trkpt lat="43.73502" lon="3.59801">
        <ele>272</ele>
        <time>2022-05-12T07:18:56.722Z</time>
      </trkpt>
      <trkpt lat="43.73505" lon="3.59803">
        <ele>272</ele>
        <time>2022-05-12T07:18:57.331Z</time>
      </trkpt>
      <trkpt lat="43.73509" lon="3.59805">
        <ele>272</ele>
        <time>2022-05-12T07:18:58.110Z</time>
      </trkpt>
      <trkpt lat="43.73512" lon="3.59808">
        <ele>272</ele>
        <time>2022-05-12T07:18:58.787Z</time>
      </trkpt>
      <trkpt lat="43.73515" lon="3.59809">
        <ele>272</ele>
        <time>2022-05-12T07:18:59.351Z</time>
      </trkpt>
      <trkpt lat="43.73517" lon="3.59809">
        <ele>272</ele>
        <time>2022-05-12T07:18:59.717Z</time>
      </trkpt>
      <trkpt lat="43.7352" lon="3.59809">
        <ele>272</ele>
        <time>2022-05-12T07:19:00.266Z</time>
      </trkpt>
      <trkpt lat="43.73524" lon="3.59811">
        <ele>272</ele>
        <time>2022-05-12T07:19:01.044Z</time>
      </trkpt>
      <trkpt lat="43.73528" lon="3.59812">
        <ele>272</ele>
        <time>2022-05-12T07:19:01.788Z</time>
      </trkpt>
      <trkpt lat="43.73531" lon="3.59813">
        <ele>272</ele>
        <time>2022-05-12T07:19:02.352Z</time>
      </trkpt>
      <trkpt lat="43.73535" lon="3.59815">
        <ele>272</ele>
        <time>2022-05-12T07:19:03.131Z</time>
      </trkpt>
      <trkpt lat="43.73539" lon="3.59818">
        <ele>272</ele>
        <time>2022-05-12T07:19:03.963Z</time>
      </trkpt>
      <trkpt lat="43.73542" lon="3.59821">
        <ele>272</ele>
        <time>2022-05-12T07:19:04.640Z</time>
      </trkpt>
      <trkpt lat="43.73546" lon="3.59824">
        <ele>272</ele>
        <time>2022-05-12T07:19:05.472Z</time>
      </trkpt>
      <trkpt lat="43.73549" lon="3.59826">
        <ele>272</ele>
        <time>2022-05-12T07:19:06.082Z</time>
      </trkpt>
      <trkpt lat="43.73553" lon="3.59828">
        <ele>272</ele>
        <time>2022-05-12T07:19:06.860Z</time>
      </trkpt>
      <trkpt lat="43.73557" lon="3.59829">
        <ele>272</ele>
        <time>2022-05-12T07:19:07.604Z</time>
      </trkpt>
      <trkpt lat="43.73561" lon="3.59831">
        <ele>272</ele>
        <time>2022-05-12T07:19:08.382Z</time>
      </trkpt>
      <trkpt lat="43.73564" lon="3.59834">
        <ele>272</ele>
        <time>2022-05-12T07:19:09.059Z</time>
      </trkpt>
      <trkpt lat="43.73568" lon="3.59836">
        <ele>272</ele>
        <time>2022-05-12T07:19:09.837Z</time>
      </trkpt>
      <trkpt lat="43.73572" lon="3.59839">
        <ele>272</ele>
        <time>2022-05-12T07:19:10.669Z</time>
      </trkpt>
      <trkpt lat="43.73576" lon="3.59841">
        <ele>272</ele>
        <time>2022-05-12T07:19:11.447Z</time>
      </trkpt>
      <trkpt lat="43.7358" lon="3.59844">
        <ele>272</ele>
        <time>2022-05-12T07:19:12.280Z</time>
      </trkpt>
      <trkpt lat="43.73583" lon="3.59846">
        <ele>271</ele>
        <time>2022-05-12T07:19:12.576Z</time>
      </trkpt>
      <trkpt lat="43.73586" lon="3.5985">
        <ele>271</ele>
        <time>2022-05-12T07:19:13.338Z</time>
      </trkpt>
      <trkpt lat="43.73589" lon="3.59855">
        <ele>271</ele>
        <time>2022-05-12T07:19:14.198Z</time>
      </trkpt>
      <trkpt lat="43.73592" lon="3.59861">
        <ele>271</ele>
        <time>2022-05-12T07:19:15.162Z</time>
      </trkpt>
      <trkpt lat="43.73594" lon="3.59868">
        <ele>271</ele>
        <time>2022-05-12T07:19:16.157Z</time>
      </trkpt>
      <trkpt lat="43.73597" lon="3.59873">
        <ele>271</ele>
        <time>2022-05-12T07:19:17.016Z</time>
      </trkpt>
      <trkpt lat="43.73601" lon="3.59876">
        <ele>271</ele>
        <time>2022-05-12T07:19:17.849Z</time>
      </trkpt>
      <trkpt lat="43.73605" lon="3.59878">
        <ele>271</ele>
        <time>2022-05-12T07:19:18.627Z</time>
      </trkpt>
      <trkpt lat="43.73608" lon="3.59879">
        <ele>271</ele>
        <time>2022-05-12T07:19:19.191Z</time>
      </trkpt>
      <trkpt lat="43.73613" lon="3.59882">
        <ele>271</ele>
        <time>2022-05-12T07:19:20.188Z</time>
      </trkpt>
      <trkpt lat="43.73617" lon="3.59884">
        <ele>270</ele>
        <time>2022-05-12T07:19:20.567Z</time>
      </trkpt>
      <trkpt lat="43.73621" lon="3.59885">
        <ele>270</ele>
        <time>2022-05-12T07:19:21.311Z</time>
      </trkpt>
      <trkpt lat="43.73625" lon="3.59888">
        <ele>270</ele>
        <time>2022-05-12T07:19:22.143Z</time>
      </trkpt>
      <trkpt lat="43.73629" lon="3.59891">
        <ele>270</ele>
        <time>2022-05-12T07:19:22.976Z</time>
      </trkpt>
      <trkpt lat="43.73634" lon="3.59893">
        <ele>270</ele>
        <time>2022-05-12T07:19:23.928Z</time>
      </trkpt>
      <trkpt lat="43.73639" lon="3.59895">
        <ele>270</ele>
        <time>2022-05-12T07:19:24.880Z</time>
      </trkpt>
      <trkpt lat="43.73645" lon="3.59896">
        <ele>270</ele>
        <time>2022-05-12T07:19:25.986Z</time>
      </trkpt>
      <trkpt lat="43.7365" lon="3.59896">
        <ele>270</ele>
        <time>2022-05-12T07:19:26.900Z</time>
      </trkpt>
      <trkpt lat="43.73656" lon="3.59897">
        <ele>270</ele>
        <time>2022-05-12T07:19:28.006Z</time>
      </trkpt>
      <trkpt lat="43.7366" lon="3.599">
        <ele>270</ele>
        <time>2022-05-12T07:19:28.839Z</time>
      </trkpt>
      <trkpt lat="43.73665" lon="3.59903">
        <ele>268</ele>
        <time>2022-05-12T07:19:29.324Z</time>
      </trkpt>
      <trkpt lat="43.73669" lon="3.59906">
        <ele>268</ele>
        <time>2022-05-12T07:19:30.156Z</time>
      </trkpt>
      <trkpt lat="43.73673" lon="3.5991">
        <ele>268</ele>
        <time>2022-05-12T07:19:31.059Z</time>
      </trkpt>
      <trkpt lat="43.73678" lon="3.59915">
        <ele>268</ele>
        <time>2022-05-12T07:19:32.188Z</time>
      </trkpt>
      <trkpt lat="43.73682" lon="3.59919">
        <ele>268</ele>
        <time>2022-05-12T07:19:33.090Z</time>
      </trkpt>
      <trkpt lat="43.73686" lon="3.59924">
        <ele>268</ele>
        <time>2022-05-12T07:19:34.077Z</time>
      </trkpt>
      <trkpt lat="43.73691" lon="3.59929">
        <ele>268</ele>
        <time>2022-05-12T07:19:35.205Z</time>
      </trkpt>
      <trkpt lat="43.73695" lon="3.59935">
        <ele>268</ele>
        <time>2022-05-12T07:19:36.284Z</time>
      </trkpt>
      <trkpt lat="43.73698" lon="3.59941">
        <ele>268</ele>
        <time>2022-05-12T07:19:37.249Z</time>
      </trkpt>
      <trkpt lat="43.73701" lon="3.59948">
        <ele>268</ele>
        <time>2022-05-12T07:19:38.325Z</time>
      </trkpt>
      <trkpt lat="43.73705" lon="3.59954">
        <ele>266</ele>
        <time>2022-05-12T07:19:38.850Z</time>
      </trkpt>
      <trkpt lat="43.73709" lon="3.5996">
        <ele>266</ele>
        <time>2022-05-12T07:19:39.929Z</time>
      </trkpt>
      <trkpt lat="43.73712" lon="3.59966">
        <ele>266</ele>
        <time>2022-05-12T07:19:40.894Z</time>
      </trkpt>
      <trkpt lat="43.73716" lon="3.59972">
        <ele>266</ele>
        <time>2022-05-12T07:19:41.973Z</time>
      </trkpt>
      <trkpt lat="43.7372" lon="3.59975">
        <ele>266</ele>
        <time>2022-05-12T07:19:42.805Z</time>
      </trkpt>
      <trkpt lat="43.73724" lon="3.59979">
        <ele>266</ele>
        <time>2022-05-12T07:19:43.708Z</time>
      </trkpt>
      <trkpt lat="43.73728" lon="3.59982">
        <ele>266</ele>
        <time>2022-05-12T07:19:44.540Z</time>
      </trkpt>
      <trkpt lat="43.73732" lon="3.59983">
        <ele>266</ele>
        <time>2022-05-12T07:19:45.284Z</time>
      </trkpt>
      <trkpt lat="43.73737" lon="3.59985">
        <ele>266</ele>
        <time>2022-05-12T07:19:46.236Z</time>
      </trkpt>
      <trkpt lat="43.73741" lon="3.59988">
        <ele>266</ele>
        <time>2022-05-12T07:19:47.069Z</time>
      </trkpt>
      <trkpt lat="43.73745" lon="3.59991">
        <ele>264</ele>
        <time>2022-05-12T07:19:47.474Z</time>
      </trkpt>
      <trkpt lat="43.73749" lon="3.59993">
        <ele>264</ele>
        <time>2022-05-12T07:19:48.252Z</time>
      </trkpt>
      <trkpt lat="43.73754" lon="3.59995">
        <ele>264</ele>
        <time>2022-05-12T07:19:49.204Z</time>
      </trkpt>
      <trkpt lat="43.73759" lon="3.59998">
        <ele>264</ele>
        <time>2022-05-12T07:19:50.201Z</time>
      </trkpt>
      <trkpt lat="43.73764" lon="3.6">
        <ele>264</ele>
        <time>2022-05-12T07:19:51.153Z</time>
      </trkpt>
      <trkpt lat="43.73768" lon="3.60003">
        <ele>264</ele>
        <time>2022-05-12T07:19:51.986Z</time>
      </trkpt>
      <trkpt lat="43.73773" lon="3.60004">
        <ele>264</ele>
        <time>2022-05-12T07:19:52.910Z</time>
      </trkpt>
      <trkpt lat="43.73778" lon="3.60005">
        <ele>264</ele>
        <time>2022-05-12T07:19:53.834Z</time>
      </trkpt>
      <trkpt lat="43.73783" lon="3.60007">
        <ele>264</ele>
        <time>2022-05-12T07:19:54.787Z</time>
      </trkpt>
      <trkpt lat="43.73788" lon="3.60009">
        <ele>264</ele>
        <time>2022-05-12T07:19:55.739Z</time>
      </trkpt>
      <trkpt lat="43.73793" lon="3.60012">
        <ele>261</ele>
        <time>2022-05-12T07:19:56.224Z</time>
      </trkpt>
      <trkpt lat="43.73798" lon="3.60015">
        <ele>261</ele>
        <time>2022-05-12T07:19:57.221Z</time>
      </trkpt>
      <trkpt lat="43.73803" lon="3.60019">
        <ele>261</ele>
        <time>2022-05-12T07:19:58.278Z</time>
      </trkpt>
      <trkpt lat="43.73808" lon="3.60024">
        <ele>261</ele>
        <time>2022-05-12T07:19:59.406Z</time>
      </trkpt>
      <trkpt lat="43.73812" lon="3.60029">
        <ele>261</ele>
        <time>2022-05-12T07:20:00.392Z</time>
      </trkpt>
      <trkpt lat="43.73816" lon="3.60033">
        <ele>261</ele>
        <time>2022-05-12T07:20:01.295Z</time>
      </trkpt>
      <trkpt lat="43.7382" lon="3.60034">
        <ele>261</ele>
        <time>2022-05-12T07:20:02.039Z</time>
      </trkpt>
      <trkpt lat="43.73826" lon="3.60035">
        <ele>261</ele>
        <time>2022-05-12T07:20:03.145Z</time>
      </trkpt>
      <trkpt lat="43.73831" lon="3.60036">
        <ele>261</ele>
        <time>2022-05-12T07:20:04.069Z</time>
      </trkpt>
      <trkpt lat="43.73836" lon="3.60037">
        <ele>261</ele>
        <time>2022-05-12T07:20:04.993Z</time>
      </trkpt>
      <trkpt lat="43.73842" lon="3.60038">
        <ele>259</ele>
        <time>2022-05-12T07:20:05.531Z</time>
      </trkpt>
      <trkpt lat="43.73848" lon="3.60039">
        <ele>259</ele>
        <time>2022-05-12T07:20:06.637Z</time>
      </trkpt>
      <trkpt lat="43.73853" lon="3.60043">
        <ele>259</ele>
        <time>2022-05-12T07:20:07.693Z</time>
      </trkpt>
      <trkpt lat="43.73857" lon="3.60047">
        <ele>259</ele>
        <time>2022-05-12T07:20:08.596Z</time>
      </trkpt>
      <trkpt lat="43.73862" lon="3.60051">
        <ele>259</ele>
        <time>2022-05-12T07:20:09.653Z</time>
      </trkpt>
      <trkpt lat="43.73865" lon="3.60054">
        <ele>259</ele>
        <time>2022-05-12T07:20:10.330Z</time>
      </trkpt>
      <trkpt lat="43.73867" lon="3.60056">
        <ele>259</ele>
        <time>2022-05-12T07:20:10.781Z</time>
      </trkpt>
      <trkpt lat="43.73865" lon="3.60038">
        <ele>258</ele>
        <time>2022-05-12T07:20:11.953Z</time>
      </trkpt>
      <trkpt lat="43.73867" lon="3.60034">
        <ele>258</ele>
        <time>2022-05-12T07:20:12.596Z</time>
      </trkpt>
      <trkpt lat="43.73868" lon="3.6003">
        <ele>258</ele>
        <time>2022-05-12T07:20:13.155Z</time>
      </trkpt>
      <trkpt lat="43.73866" lon="3.60056">
        <ele>258</ele>
        <time>2022-05-12T07:20:16.612Z</time>
      </trkpt>
      <trkpt lat="43.7387" lon="3.60026">
        <ele>258</ele>
        <time>2022-05-12T07:20:20.644Z</time>
      </trkpt>
      <trkpt lat="43.73871" lon="3.60022">
        <ele>258</ele>
        <time>2022-05-12T07:20:21.204Z</time>
      </trkpt>
      <trkpt lat="43.73873" lon="3.60018">
        <ele>258</ele>
        <time>2022-05-12T07:20:21.847Z</time>
      </trkpt>
      <trkpt lat="43.73873" lon="3.60015">
        <ele>258</ele>
        <time>2022-05-12T07:20:22.243Z</time>
      </trkpt>
      <trkpt lat="43.73873" lon="3.60011">
        <ele>258</ele>
        <time>2022-05-12T07:20:22.772Z</time>
      </trkpt>
      <trkpt lat="43.73874" lon="3.60006">
        <ele>258</ele>
        <time>2022-05-12T07:20:23.458Z</time>
      </trkpt>
      <trkpt lat="43.73874" lon="3.60003">
        <ele>258</ele>
        <time>2022-05-12T07:20:23.854Z</time>
      </trkpt>
      <trkpt lat="43.73875" lon="3.6">
        <ele>258</ele>
        <time>2022-05-12T07:20:24.291Z</time>
      </trkpt>
      <trkpt lat="43.73876" lon="3.59996">
        <ele>258</ele>
        <time>2022-05-12T07:20:24.851Z</time>
      </trkpt>
      <trkpt lat="43.73877" lon="3.59993">
        <ele>258</ele>
        <time>2022-05-12T07:20:25.287Z</time>
      </trkpt>
      <trkpt lat="43.73878" lon="3.5999">
        <ele>258</ele>
        <time>2022-05-12T07:20:25.724Z</time>
      </trkpt>
      <trkpt lat="43.73879" lon="3.59988">
        <ele>258</ele>
        <time>2022-05-12T07:20:26.046Z</time>
      </trkpt>
      <trkpt lat="43.7388" lon="3.59985">
        <ele>258</ele>
        <time>2022-05-12T07:20:26.482Z</time>
      </trkpt>
      <trkpt lat="43.7388" lon="3.59982">
        <ele>258</ele>
        <time>2022-05-12T07:20:26.879Z</time>
      </trkpt>
      <trkpt lat="43.73881" lon="3.59979">
        <ele>259</ele>
        <time>2022-05-12T07:20:28.564Z</time>
      </trkpt>
      <trkpt lat="43.73881" lon="3.59976">
        <ele>259</ele>
        <time>2022-05-12T07:20:28.960Z</time>
      </trkpt>
      <trkpt lat="43.73882" lon="3.59974">
        <ele>259</ele>
        <time>2022-05-12T07:20:29.282Z</time>
      </trkpt>
      <trkpt lat="43.73883" lon="3.59971">
        <ele>259</ele>
        <time>2022-05-12T07:20:29.718Z</time>
      </trkpt>
      <trkpt lat="43.73884" lon="3.59967">
        <ele>259</ele>
        <time>2022-05-12T07:20:30.278Z</time>
      </trkpt>
      <trkpt lat="43.73885" lon="3.59963">
        <ele>259</ele>
        <time>2022-05-12T07:20:30.837Z</time>
      </trkpt>
      <trkpt lat="43.73886" lon="3.59958">
        <ele>259</ele>
        <time>2022-05-12T07:20:31.523Z</time>
      </trkpt>
      <trkpt lat="43.73887" lon="3.59954">
        <ele>261</ele>
        <time>2022-05-12T07:20:33.681Z</time>
      </trkpt>
      <trkpt lat="43.73889" lon="3.5995">
        <ele>261</ele>
        <time>2022-05-12T07:20:34.324Z</time>
      </trkpt>
      <trkpt lat="43.73891" lon="3.59946">
        <ele>261</ele>
        <time>2022-05-12T07:20:34.967Z</time>
      </trkpt>
      <trkpt lat="43.73892" lon="3.59942">
        <ele>261</ele>
        <time>2022-05-12T07:20:35.527Z</time>
      </trkpt>
      <trkpt lat="43.73893" lon="3.59938">
        <ele>261</ele>
        <time>2022-05-12T07:20:36.086Z</time>
      </trkpt>
      <trkpt lat="43.73894" lon="3.59934">
        <ele>263</ele>
        <time>2022-05-12T07:20:38.244Z</time>
      </trkpt>
      <trkpt lat="43.73895" lon="3.5993">
        <ele>263</ele>
        <time>2022-05-12T07:20:38.804Z</time>
      </trkpt>
      <trkpt lat="43.73896" lon="3.59926">
        <ele>263</ele>
        <time>2022-05-12T07:20:39.363Z</time>
      </trkpt>
      <trkpt lat="43.73896" lon="3.59922">
        <ele>263</ele>
        <time>2022-05-12T07:20:39.892Z</time>
      </trkpt>
      <trkpt lat="43.73897" lon="3.59918">
        <ele>263</ele>
        <time>2022-05-12T07:20:40.452Z</time>
      </trkpt>
      <trkpt lat="43.73898" lon="3.59914">
        <ele>265</ele>
        <time>2022-05-12T07:20:42.610Z</time>
      </trkpt>
      <trkpt lat="43.73899" lon="3.59911">
        <ele>265</ele>
        <time>2022-05-12T07:20:43.046Z</time>
      </trkpt>
      <trkpt lat="43.739" lon="3.59908">
        <ele>265</ele>
        <time>2022-05-12T07:20:43.483Z</time>
      </trkpt>
      <trkpt lat="43.73901" lon="3.59904">
        <ele>265</ele>
        <time>2022-05-12T07:20:44.043Z</time>
      </trkpt>
      <trkpt lat="43.73902" lon="3.59901">
        <ele>265</ele>
        <time>2022-05-12T07:20:44.479Z</time>
      </trkpt>
      <trkpt lat="43.73903" lon="3.59897">
        <ele>267</ele>
        <time>2022-05-12T07:20:46.638Z</time>
      </trkpt>
      <trkpt lat="43.73904" lon="3.59894">
        <ele>267</ele>
        <time>2022-05-12T07:20:47.074Z</time>
      </trkpt>
      <trkpt lat="43.73905" lon="3.5989">
        <ele>267</ele>
        <time>2022-05-12T07:20:47.634Z</time>
      </trkpt>
      <trkpt lat="43.73905" lon="3.59886">
        <ele>267</ele>
        <time>2022-05-12T07:20:48.162Z</time>
      </trkpt>
      <trkpt lat="43.73906" lon="3.59882">
        <ele>267</ele>
        <time>2022-05-12T07:20:48.722Z</time>
      </trkpt>
      <trkpt lat="43.73907" lon="3.59878">
        <ele>268</ele>
        <time>2022-05-12T07:20:50.880Z</time>
      </trkpt>
      <trkpt lat="43.73908" lon="3.59874">
        <ele>268</ele>
        <time>2022-05-12T07:20:51.440Z</time>
      </trkpt>
      <trkpt lat="43.73909" lon="3.5987">
        <ele>268</ele>
        <time>2022-05-12T07:20:51.999Z</time>
      </trkpt>
      <trkpt lat="43.73911" lon="3.59866">
        <ele>268</ele>
        <time>2022-05-12T07:20:52.642Z</time>
      </trkpt>
      <trkpt lat="43.73912" lon="3.59863">
        <ele>268</ele>
        <time>2022-05-12T07:20:53.079Z</time>
      </trkpt>
      <trkpt lat="43.73913" lon="3.59861">
        <ele>268</ele>
        <time>2022-05-12T07:20:53.400Z</time>
      </trkpt>
      <trkpt lat="43.73913" lon="3.59858">
        <ele>269</ele>
        <time>2022-05-12T07:20:54.930Z</time>
      </trkpt>
      <trkpt lat="43.73914" lon="3.59856">
        <ele>269</ele>
        <time>2022-05-12T07:20:55.251Z</time>
      </trkpt>
      <trkpt lat="43.73915" lon="3.59853">
        <ele>269</ele>
        <time>2022-05-12T07:20:55.688Z</time>
      </trkpt>
      <trkpt lat="43.73916" lon="3.59851">
        <ele>269</ele>
        <time>2022-05-12T07:20:56.010Z</time>
      </trkpt>
      <trkpt lat="43.73917" lon="3.59847">
        <ele>269</ele>
        <time>2022-05-12T07:20:56.569Z</time>
      </trkpt>
      <trkpt lat="43.73918" lon="3.59844">
        <ele>269</ele>
        <time>2022-05-12T07:20:57.006Z</time>
      </trkpt>
      <trkpt lat="43.73919" lon="3.59839">
        <ele>269</ele>
        <time>2022-05-12T07:20:57.692Z</time>
      </trkpt>
      <trkpt lat="43.7392" lon="3.59834">
        <ele>269</ele>
        <time>2022-05-12T07:20:58.377Z</time>
      </trkpt>
      <trkpt lat="43.73922" lon="3.59829">
        <ele>269</ele>
        <time>2022-05-12T07:20:59.133Z</time>
      </trkpt>
      <trkpt lat="43.73924" lon="3.59824">
        <ele>269</ele>
        <time>2022-05-12T07:20:59.888Z</time>
      </trkpt>
      <trkpt lat="43.73925" lon="3.59819">
        <ele>269</ele>
        <time>2022-05-12T07:21:00.574Z</time>
      </trkpt>
      <trkpt lat="43.73926" lon="3.59815">
        <ele>269</ele>
        <time>2022-05-12T07:21:01.134Z</time>
      </trkpt>
      <trkpt lat="43.73926" lon="3.5981">
        <ele>269</ele>
        <time>2022-05-12T07:21:01.795Z</time>
      </trkpt>
      <trkpt lat="43.73925" lon="3.59806">
        <ele>269</ele>
        <time>2022-05-12T07:21:02.354Z</time>
      </trkpt>
      <trkpt lat="43.73923" lon="3.59802">
        <ele>269</ele>
        <time>2022-05-12T07:21:02.997Z</time>
      </trkpt>
      <trkpt lat="43.7392" lon="3.59799">
        <ele>269</ele>
        <time>2022-05-12T07:21:03.674Z</time>
      </trkpt>
      <trkpt lat="43.73918" lon="3.59796">
        <ele>269</ele>
        <time>2022-05-12T07:21:04.214Z</time>
      </trkpt>
      <trkpt lat="43.73915" lon="3.59793">
        <ele>269</ele>
        <time>2022-05-12T07:21:04.891Z</time>
      </trkpt>
      <trkpt lat="43.73912" lon="3.59791">
        <ele>269</ele>
        <time>2022-05-12T07:21:05.500Z</time>
      </trkpt>
      <trkpt lat="43.73909" lon="3.5979">
        <ele>269</ele>
        <time>2022-05-12T07:21:06.065Z</time>
      </trkpt>
      <trkpt lat="43.73905" lon="3.59788">
        <ele>269</ele>
        <time>2022-05-12T07:21:06.843Z</time>
      </trkpt>
      <trkpt lat="43.73902" lon="3.59787">
        <ele>269</ele>
        <time>2022-05-12T07:21:07.408Z</time>
      </trkpt>
      <trkpt lat="43.73898" lon="3.59785">
        <ele>269</ele>
        <time>2022-05-12T07:21:08.186Z</time>
      </trkpt>
      <trkpt lat="43.73895" lon="3.59784">
        <ele>269</ele>
        <time>2022-05-12T07:21:08.750Z</time>
      </trkpt>
      <trkpt lat="43.73891" lon="3.59782">
        <ele>269</ele>
        <time>2022-05-12T07:21:09.528Z</time>
      </trkpt>
      <trkpt lat="43.73888" lon="3.59781">
        <ele>269</ele>
        <time>2022-05-12T07:21:10.093Z</time>
      </trkpt>
      <trkpt lat="43.73884" lon="3.59779">
        <ele>269</ele>
        <time>2022-05-12T07:21:10.871Z</time>
      </trkpt>
      <trkpt lat="43.73881" lon="3.59778">
        <ele>269</ele>
        <time>2022-05-12T07:21:11.436Z</time>
      </trkpt>
      <trkpt lat="43.73877" lon="3.59776">
        <ele>269</ele>
        <time>2022-05-12T07:21:12.214Z</time>
      </trkpt>
      <trkpt lat="43.73873" lon="3.59775">
        <ele>269</ele>
        <time>2022-05-12T07:21:12.957Z</time>
      </trkpt>
      <trkpt lat="43.7387" lon="3.59774">
        <ele>268</ele>
        <time>2022-05-12T07:21:13.232Z</time>
      </trkpt>
      <trkpt lat="43.73866" lon="3.59772">
        <ele>268</ele>
        <time>2022-05-12T07:21:14.010Z</time>
      </trkpt>
      <trkpt lat="43.73863" lon="3.59772">
        <ele>268</ele>
        <time>2022-05-12T07:21:14.559Z</time>
      </trkpt>
      <trkpt lat="43.73859" lon="3.59771">
        <ele>268</ele>
        <time>2022-05-12T07:21:15.303Z</time>
      </trkpt>
      <trkpt lat="43.73855" lon="3.5977">
        <ele>268</ele>
        <time>2022-05-12T07:21:16.046Z</time>
      </trkpt>
      <trkpt lat="43.73852" lon="3.59767">
        <ele>268</ele>
        <time>2022-05-12T07:21:16.724Z</time>
      </trkpt>
      <trkpt lat="43.73848" lon="3.59764">
        <ele>268</ele>
        <time>2022-05-12T07:21:17.556Z</time>
      </trkpt>
      <trkpt lat="43.73845" lon="3.59761">
        <ele>268</ele>
        <time>2022-05-12T07:21:18.233Z</time>
      </trkpt>
      <trkpt lat="43.73841" lon="3.59758">
        <ele>268</ele>
        <time>2022-05-12T07:21:19.065Z</time>
      </trkpt>
      <trkpt lat="43.73837" lon="3.59755">
        <ele>268</ele>
        <time>2022-05-12T07:21:19.898Z</time>
      </trkpt>
      <trkpt lat="43.73833" lon="3.59754">
        <ele>268</ele>
        <time>2022-05-12T07:21:20.642Z</time>
      </trkpt>
      <trkpt lat="43.73828" lon="3.59752">
        <ele>268</ele>
        <time>2022-05-12T07:21:21.594Z</time>
      </trkpt>
      <trkpt lat="43.73824" lon="3.5975">
        <ele>268</ele>
        <time>2022-05-12T07:21:22.372Z</time>
      </trkpt>
      <trkpt lat="43.73819" lon="3.59747">
        <ele>268</ele>
        <time>2022-05-12T07:21:23.369Z</time>
      </trkpt>
      <trkpt lat="43.73815" lon="3.59743">
        <ele>268</ele>
        <time>2022-05-12T07:21:24.272Z</time>
      </trkpt>
      <trkpt lat="43.73811" lon="3.5974">
        <ele>268</ele>
        <time>2022-05-12T07:21:25.104Z</time>
      </trkpt>
      <trkpt lat="43.73808" lon="3.59736">
        <ele>268</ele>
        <time>2022-05-12T07:21:25.866Z</time>
      </trkpt>
      <trkpt lat="43.73804" lon="3.59734">
        <ele>268</ele>
        <time>2022-05-12T07:21:26.644Z</time>
      </trkpt>
      <trkpt lat="43.738" lon="3.59732">
        <ele>268</ele>
        <time>2022-05-12T07:21:27.423Z</time>
      </trkpt>
      <trkpt lat="43.73796" lon="3.59729">
        <ele>268</ele>
        <time>2022-05-12T07:21:28.255Z</time>
      </trkpt>
      <trkpt lat="43.73792" lon="3.59727">
        <ele>267</ele>
        <time>2022-05-12T07:21:28.634Z</time>
      </trkpt>
      <trkpt lat="43.73788" lon="3.59725">
        <ele>267</ele>
        <time>2022-05-12T07:21:29.412Z</time>
      </trkpt>
      <trkpt lat="43.73784" lon="3.59722">
        <ele>267</ele>
        <time>2022-05-12T07:21:30.244Z</time>
      </trkpt>
      <trkpt lat="43.7378" lon="3.59719">
        <ele>267</ele>
        <time>2022-05-12T07:21:31.076Z</time>
      </trkpt>
      <trkpt lat="43.73775" lon="3.59716">
        <ele>267</ele>
        <time>2022-05-12T07:21:32.073Z</time>
      </trkpt>
      <trkpt lat="43.73772" lon="3.59712">
        <ele>267</ele>
        <time>2022-05-12T07:21:32.836Z</time>
      </trkpt>
      <trkpt lat="43.73769" lon="3.59708">
        <ele>267</ele>
        <time>2022-05-12T07:21:33.598Z</time>
      </trkpt>
      <trkpt lat="43.73766" lon="3.59703">
        <ele>267</ele>
        <time>2022-05-12T07:21:34.457Z</time>
      </trkpt>
      <trkpt lat="43.73762" lon="3.59698">
        <ele>267</ele>
        <time>2022-05-12T07:21:35.443Z</time>
      </trkpt>
      <trkpt lat="43.73759" lon="3.59693">
        <ele>267</ele>
        <time>2022-05-12T07:21:36.302Z</time>
      </trkpt>
      <trkpt lat="43.73756" lon="3.59688">
        <ele>267</ele>
        <time>2022-05-12T07:21:37.161Z</time>
      </trkpt>
      <trkpt lat="43.73753" lon="3.59684">
        <ele>267</ele>
        <time>2022-05-12T07:21:37.923Z</time>
      </trkpt>
      <trkpt lat="43.73749" lon="3.59682">
        <ele>267</ele>
        <time>2022-05-12T07:21:38.702Z</time>
      </trkpt>
      <trkpt lat="43.73746" lon="3.59681">
        <ele>267</ele>
        <time>2022-05-12T07:21:39.266Z</time>
      </trkpt>
      <trkpt lat="43.73742" lon="3.59681">
        <ele>267</ele>
        <time>2022-05-12T07:21:39.998Z</time>
      </trkpt>
      <trkpt lat="43.73737" lon="3.59681">
        <ele>267</ele>
        <time>2022-05-12T07:21:40.913Z</time>
      </trkpt>
      <trkpt lat="43.73733" lon="3.59679">
        <ele>267</ele>
        <time>2022-05-12T07:21:41.691Z</time>
      </trkpt>
      <trkpt lat="43.73728" lon="3.59677">
        <ele>267</ele>
        <time>2022-05-12T07:21:42.643Z</time>
      </trkpt>
      <trkpt lat="43.73725" lon="3.59675">
        <ele>267</ele>
        <time>2022-05-12T07:21:43.252Z</time>
      </trkpt>
      <trkpt lat="43.73722" lon="3.59675">
        <ele>267</ele>
        <time>2022-05-12T07:21:43.801Z</time>
      </trkpt>
      <trkpt lat="43.7372" lon="3.59674">
        <ele>267</ele>
        <time>2022-05-12T07:21:44.190Z</time>
      </trkpt>
      <trkpt lat="43.73717" lon="3.59672">
        <ele>267</ele>
        <time>2022-05-12T07:21:44.799Z</time>
      </trkpt>
      <trkpt lat="43.73714" lon="3.5967">
        <ele>267</ele>
        <time>2022-05-12T07:21:45.409Z</time>
      </trkpt>
      <trkpt lat="43.73711" lon="3.59668">
        <ele>267</ele>
        <time>2022-05-12T07:21:46.018Z</time>
      </trkpt>
      <trkpt lat="43.73708" lon="3.59666">
        <ele>267</ele>
        <time>2022-05-12T07:21:46.627Z</time>
      </trkpt>
      <trkpt lat="43.73706" lon="3.59663">
        <ele>267</ele>
        <time>2022-05-12T07:21:47.167Z</time>
      </trkpt>
      <trkpt lat="43.73703" lon="3.5966">
        <ele>267</ele>
        <time>2022-05-12T07:21:47.844Z</time>
      </trkpt>
      <trkpt lat="43.73701" lon="3.59657">
        <ele>267</ele>
        <time>2022-05-12T07:21:48.383Z</time>
      </trkpt>
      <trkpt lat="43.73699" lon="3.59654">
        <ele>267</ele>
        <time>2022-05-12T07:21:48.923Z</time>
      </trkpt>
      <trkpt lat="43.73697" lon="3.59651">
        <ele>267</ele>
        <time>2022-05-12T07:21:49.463Z</time>
      </trkpt>
      <trkpt lat="43.73696" lon="3.59649">
        <ele>267</ele>
        <time>2022-05-12T07:21:49.784Z</time>
      </trkpt>
      <trkpt lat="43.73694" lon="3.59647">
        <ele>267</ele>
        <time>2022-05-12T07:21:50.236Z</time>
      </trkpt>
      <trkpt lat="43.73692" lon="3.59644">
        <ele>267</ele>
        <time>2022-05-12T07:21:50.775Z</time>
      </trkpt>
      <trkpt lat="43.7369" lon="3.59642">
        <ele>267</ele>
        <time>2022-05-12T07:21:51.227Z</time>
      </trkpt>
      <trkpt lat="43.73689" lon="3.5964">
        <ele>267</ele>
        <time>2022-05-12T07:21:51.548Z</time>
      </trkpt>
      <trkpt lat="43.73687" lon="3.59638">
        <ele>267</ele>
        <time>2022-05-12T07:21:52.000Z</time>
      </trkpt>
      <trkpt lat="43.73684" lon="3.59636">
        <ele>267</ele>
        <time>2022-05-12T07:21:52.609Z</time>
      </trkpt>
      <trkpt lat="43.73682" lon="3.59633">
        <ele>267</ele>
        <time>2022-05-12T07:21:53.148Z</time>
      </trkpt>
      <trkpt lat="43.73681" lon="3.59631">
        <ele>267</ele>
        <time>2022-05-12T07:21:53.470Z</time>
      </trkpt>
      <trkpt lat="43.73679" lon="3.5963">
        <ele>268</ele>
        <time>2022-05-12T07:21:54.971Z</time>
      </trkpt>
      <trkpt lat="43.73678" lon="3.59628">
        <ele>268</ele>
        <time>2022-05-12T07:21:55.292Z</time>
      </trkpt>
      <trkpt lat="43.73676" lon="3.59626">
        <ele>268</ele>
        <time>2022-05-12T07:21:55.744Z</time>
      </trkpt>
      <trkpt lat="43.73674" lon="3.59625">
        <ele>268</ele>
        <time>2022-05-12T07:21:56.133Z</time>
      </trkpt>
      <trkpt lat="43.73673" lon="3.59623">
        <ele>268</ele>
        <time>2022-05-12T07:21:56.454Z</time>
      </trkpt>
      <trkpt lat="43.73671" lon="3.59621">
        <ele>268</ele>
        <time>2022-05-12T07:21:56.906Z</time>
      </trkpt>
      <trkpt lat="43.7367" lon="3.59619">
        <ele>268</ele>
        <time>2022-05-12T07:21:57.227Z</time>
      </trkpt>
      <trkpt lat="43.73668" lon="3.59617">
        <ele>268</ele>
        <time>2022-05-12T07:21:57.679Z</time>
      </trkpt>
      <trkpt lat="43.73666" lon="3.59616">
        <ele>268</ele>
        <time>2022-05-12T07:21:58.068Z</time>
      </trkpt>
      <trkpt lat="43.73663" lon="3.59615">
        <ele>268</ele>
        <time>2022-05-12T07:21:58.632Z</time>
      </trkpt>
      <trkpt lat="43.73661" lon="3.59614">
        <ele>268</ele>
        <time>2022-05-12T07:21:59.021Z</time>
      </trkpt>
      <trkpt lat="43.73658" lon="3.59613">
        <ele>268</ele>
        <time>2022-05-12T07:21:59.586Z</time>
      </trkpt>
      <trkpt lat="43.73656" lon="3.59612">
        <ele>268</ele>
        <time>2022-05-12T07:21:59.975Z</time>
      </trkpt>
      <trkpt lat="43.73654" lon="3.5961">
        <ele>268</ele>
        <time>2022-05-12T07:22:00.426Z</time>
      </trkpt>
      <trkpt lat="43.73652" lon="3.59608">
        <ele>268</ele>
        <time>2022-05-12T07:22:00.878Z</time>
      </trkpt>
      <trkpt lat="43.7365" lon="3.59607">
        <ele>268</ele>
        <time>2022-05-12T07:22:01.267Z</time>
      </trkpt>
      <trkpt lat="43.73648" lon="3.59606">
        <ele>268</ele>
        <time>2022-05-12T07:22:01.656Z</time>
      </trkpt>
      <trkpt lat="43.73647" lon="3.59605">
        <ele>268</ele>
        <time>2022-05-12T07:22:01.882Z</time>
      </trkpt>
      <trkpt lat="43.73645" lon="3.59604">
        <ele>268</ele>
        <time>2022-05-12T07:22:02.271Z</time>
      </trkpt>
      <trkpt lat="43.73642" lon="3.59602">
        <ele>268</ele>
        <time>2022-05-12T07:22:02.880Z</time>
      </trkpt>
      <trkpt lat="43.7364" lon="3.59601">
        <ele>268</ele>
        <time>2022-05-12T07:22:03.269Z</time>
      </trkpt>
      <trkpt lat="43.73638" lon="3.59599">
        <ele>268</ele>
        <time>2022-05-12T07:22:03.720Z</time>
      </trkpt>
      <trkpt lat="43.73636" lon="3.59596">
        <ele>268</ele>
        <time>2022-05-12T07:22:04.260Z</time>
      </trkpt>
      <trkpt lat="43.73635" lon="3.59594">
        <ele>268</ele>
        <time>2022-05-12T07:22:04.581Z</time>
      </trkpt>
      <trkpt lat="43.73633" lon="3.59591">
        <ele>268</ele>
        <time>2022-05-12T07:22:05.121Z</time>
      </trkpt>
      <trkpt lat="43.73631" lon="3.5959">
        <ele>268</ele>
        <time>2022-05-12T07:22:05.510Z</time>
      </trkpt>
      <trkpt lat="43.73629" lon="3.59588">
        <ele>268</ele>
        <time>2022-05-12T07:22:05.962Z</time>
      </trkpt>
      <trkpt lat="43.73627" lon="3.59588">
        <ele>268</ele>
        <time>2022-05-12T07:22:06.328Z</time>
      </trkpt>
      <trkpt lat="43.73624" lon="3.59589">
        <ele>268</ele>
        <time>2022-05-12T07:22:06.892Z</time>
      </trkpt>
      <trkpt lat="43.73622" lon="3.59589">
        <ele>268</ele>
        <time>2022-05-12T07:22:07.258Z</time>
      </trkpt>
      <trkpt lat="43.7362" lon="3.59589">
        <ele>268</ele>
        <time>2022-05-12T07:22:07.624Z</time>
      </trkpt>
      <trkpt lat="43.73618" lon="3.59587">
        <ele>268</ele>
        <time>2022-05-12T07:22:08.075Z</time>
      </trkpt>
      <trkpt lat="43.73616" lon="3.59585">
        <ele>268</ele>
        <time>2022-05-12T07:22:08.527Z</time>
      </trkpt>
      <trkpt lat="43.73614" lon="3.59583">
        <ele>268</ele>
        <time>2022-05-12T07:22:08.978Z</time>
      </trkpt>
      <trkpt lat="43.73612" lon="3.59581">
        <ele>268</ele>
        <time>2022-05-12T07:22:09.430Z</time>
      </trkpt>
      <trkpt lat="43.7361" lon="3.59579">
        <ele>268</ele>
        <time>2022-05-12T07:22:09.881Z</time>
      </trkpt>
      <trkpt lat="43.73609" lon="3.59576">
        <ele>268</ele>
        <time>2022-05-12T07:22:10.318Z</time>
      </trkpt>
      <trkpt lat="43.73608" lon="3.59574">
        <ele>268</ele>
        <time>2022-05-12T07:22:10.639Z</time>
      </trkpt>
      <trkpt lat="43.73605" lon="3.59572">
        <ele>268</ele>
        <time>2022-05-12T07:22:11.249Z</time>
      </trkpt>
      <trkpt lat="43.73603" lon="3.5957">
        <ele>268</ele>
        <time>2022-05-12T07:22:11.700Z</time>
      </trkpt>
      <trkpt lat="43.73602" lon="3.59568">
        <ele>268</ele>
        <time>2022-05-12T07:22:12.022Z</time>
      </trkpt>
      <trkpt lat="43.736" lon="3.59566">
        <ele>268</ele>
        <time>2022-05-12T07:22:12.473Z</time>
      </trkpt>
      <trkpt lat="43.73599" lon="3.59564">
        <ele>268</ele>
        <time>2022-05-12T07:22:12.794Z</time>
      </trkpt>
      <trkpt lat="43.73597" lon="3.59562">
        <ele>268</ele>
        <time>2022-05-12T07:22:13.246Z</time>
      </trkpt>
      <trkpt lat="43.73595" lon="3.5956">
        <ele>268</ele>
        <time>2022-05-12T07:22:13.697Z</time>
      </trkpt>
      <trkpt lat="43.73594" lon="3.59558">
        <ele>268</ele>
        <time>2022-05-12T07:22:14.019Z</time>
      </trkpt>
      <trkpt lat="43.73592" lon="3.59557">
        <ele>268</ele>
        <time>2022-05-12T07:22:14.408Z</time>
      </trkpt>
      <trkpt lat="43.7359" lon="3.59556">
        <ele>268</ele>
        <time>2022-05-12T07:22:14.797Z</time>
      </trkpt>
      <trkpt lat="43.73588" lon="3.59555">
        <ele>268</ele>
        <time>2022-05-12T07:22:15.186Z</time>
      </trkpt>
      <trkpt lat="43.73585" lon="3.59553">
        <ele>268</ele>
        <time>2022-05-12T07:22:15.795Z</time>
      </trkpt>
      <trkpt lat="43.73582" lon="3.59551">
        <ele>268</ele>
        <time>2022-05-12T07:22:16.405Z</time>
      </trkpt>
      <trkpt lat="43.73579" lon="3.5955">
        <ele>268</ele>
        <time>2022-05-12T07:22:16.969Z</time>
      </trkpt>
      <trkpt lat="43.73577" lon="3.5955">
        <ele>268</ele>
        <time>2022-05-12T07:22:17.335Z</time>
      </trkpt>
      <trkpt lat="43.73575" lon="3.59549">
        <ele>268</ele>
        <time>2022-05-12T07:22:17.724Z</time>
      </trkpt>
      <trkpt lat="43.73573" lon="3.59549">
        <ele>268</ele>
        <time>2022-05-12T07:22:18.090Z</time>
      </trkpt>
      <trkpt lat="43.7357" lon="3.59547">
        <ele>268</ele>
        <time>2022-05-12T07:22:18.699Z</time>
      </trkpt>
      <trkpt lat="43.73566" lon="3.59546">
        <ele>268</ele>
        <time>2022-05-12T07:22:19.443Z</time>
      </trkpt>
      <trkpt lat="43.73563" lon="3.59546">
        <ele>268</ele>
        <time>2022-05-12T07:22:19.992Z</time>
      </trkpt>
      <trkpt lat="43.73562" lon="3.59546">
        <ele>268</ele>
        <time>2022-05-12T07:22:20.175Z</time>
      </trkpt>
      <trkpt lat="43.73559" lon="3.59545">
        <ele>268</ele>
        <time>2022-05-12T07:22:20.739Z</time>
      </trkpt>
      <trkpt lat="43.73557" lon="3.59545">
        <ele>268</ele>
        <time>2022-05-12T07:22:21.105Z</time>
      </trkpt>
      <trkpt lat="43.73555" lon="3.59545">
        <ele>268</ele>
        <time>2022-05-12T07:22:21.471Z</time>
      </trkpt>
      <trkpt lat="43.73553" lon="3.59544">
        <ele>268</ele>
        <time>2022-05-12T07:22:21.860Z</time>
      </trkpt>
      <trkpt lat="43.7355" lon="3.59543">
        <ele>268</ele>
        <time>2022-05-12T07:22:22.425Z</time>
      </trkpt>
      <trkpt lat="43.73548" lon="3.59541">
        <ele>268</ele>
        <time>2022-05-12T07:22:22.876Z</time>
      </trkpt>
      <trkpt lat="43.73546" lon="3.59538">
        <ele>268</ele>
        <time>2022-05-12T07:22:23.416Z</time>
      </trkpt>
      <trkpt lat="43.73544" lon="3.59536">
        <ele>268</ele>
        <time>2022-05-12T07:22:23.867Z</time>
      </trkpt>
      <trkpt lat="43.73541" lon="3.59532">
        <ele>268</ele>
        <time>2022-05-12T07:22:24.629Z</time>
      </trkpt>
      <trkpt lat="43.73539" lon="3.59529">
        <ele>268</ele>
        <time>2022-05-12T07:22:25.169Z</time>
      </trkpt>
      <trkpt lat="43.73536" lon="3.59526">
        <ele>268</ele>
        <time>2022-05-12T07:22:25.846Z</time>
      </trkpt>
      <trkpt lat="43.73534" lon="3.59523">
        <ele>268</ele>
        <time>2022-05-12T07:22:26.386Z</time>
      </trkpt>
      <trkpt lat="43.7353" lon="3.5952">
        <ele>268</ele>
        <time>2022-05-12T07:22:27.218Z</time>
      </trkpt>
      <trkpt lat="43.73527" lon="3.59517">
        <ele>268</ele>
        <time>2022-05-12T07:22:27.895Z</time>
      </trkpt>
      <trkpt lat="43.73524" lon="3.59514">
        <ele>269</ele>
        <time>2022-05-12T07:22:30.507Z</time>
      </trkpt>
      <trkpt lat="43.73521" lon="3.59512">
        <ele>269</ele>
        <time>2022-05-12T07:22:31.116Z</time>
      </trkpt>
      <trkpt lat="43.73518" lon="3.59512">
        <ele>269</ele>
        <time>2022-05-12T07:22:31.665Z</time>
      </trkpt>
      <trkpt lat="43.73516" lon="3.59512">
        <ele>269</ele>
        <time>2022-05-12T07:22:32.031Z</time>
      </trkpt>
      <trkpt lat="43.73513" lon="3.59512">
        <ele>269</ele>
        <time>2022-05-12T07:22:32.580Z</time>
      </trkpt>
      <trkpt lat="43.73509" lon="3.59513">
        <ele>269</ele>
        <time>2022-05-12T07:22:33.324Z</time>
      </trkpt>
      <trkpt lat="43.73506" lon="3.59513">
        <ele>269</ele>
        <time>2022-05-12T07:22:33.873Z</time>
      </trkpt>
      <trkpt lat="43.73503" lon="3.59514">
        <ele>269</ele>
        <time>2022-05-12T07:22:34.437Z</time>
      </trkpt>
      <trkpt lat="43.735" lon="3.59515">
        <ele>269</ele>
        <time>2022-05-12T07:22:35.002Z</time>
      </trkpt>
      <trkpt lat="43.73497" lon="3.59517">
        <ele>269</ele>
        <time>2022-05-12T07:22:35.611Z</time>
      </trkpt>
      <trkpt lat="43.73496" lon="3.5952">
        <ele>270</ele>
        <time>2022-05-12T07:22:37.296Z</time>
      </trkpt>
      <trkpt lat="43.73494" lon="3.59523">
        <ele>270</ele>
        <time>2022-05-12T07:22:37.835Z</time>
      </trkpt>
      <trkpt lat="43.73492" lon="3.59526">
        <ele>270</ele>
        <time>2022-05-12T07:22:38.375Z</time>
      </trkpt>
      <trkpt lat="43.7349" lon="3.59527">
        <ele>270</ele>
        <time>2022-05-12T07:22:38.764Z</time>
      </trkpt>
      <trkpt lat="43.73488" lon="3.59529">
        <ele>270</ele>
        <time>2022-05-12T07:22:39.215Z</time>
      </trkpt>
      <trkpt lat="43.73487" lon="3.59532">
        <ele>270</ele>
        <time>2022-05-12T07:22:39.652Z</time>
      </trkpt>
      <trkpt lat="43.73486" lon="3.59535">
        <ele>270</ele>
        <time>2022-05-12T07:22:40.089Z</time>
      </trkpt>
      <trkpt lat="43.73484" lon="3.59538">
        <ele>270</ele>
        <time>2022-05-12T07:22:40.628Z</time>
      </trkpt>
      <trkpt lat="43.73482" lon="3.59541">
        <ele>270</ele>
        <time>2022-05-12T07:22:41.168Z</time>
      </trkpt>
      <trkpt lat="43.7348" lon="3.59543">
        <ele>270</ele>
        <time>2022-05-12T07:22:41.620Z</time>
      </trkpt>
      <trkpt lat="43.73478" lon="3.59543">
        <ele>271</ele>
        <time>2022-05-12T07:22:43.031Z</time>
      </trkpt>
      <trkpt lat="43.73475" lon="3.59542">
        <ele>271</ele>
        <time>2022-05-12T07:22:43.596Z</time>
      </trkpt>
      <trkpt lat="43.73473" lon="3.59542">
        <ele>271</ele>
        <time>2022-05-12T07:22:43.961Z</time>
      </trkpt>
      <trkpt lat="43.73471" lon="3.59542">
        <ele>271</ele>
        <time>2022-05-12T07:22:44.327Z</time>
      </trkpt>
      <trkpt lat="43.73469" lon="3.59542">
        <ele>271</ele>
        <time>2022-05-12T07:22:44.693Z</time>
      </trkpt>
      <trkpt lat="43.73466" lon="3.59543">
        <ele>271</ele>
        <time>2022-05-12T07:22:45.258Z</time>
      </trkpt>
      <trkpt lat="43.73463" lon="3.59542">
        <ele>271</ele>
        <time>2022-05-12T07:22:45.822Z</time>
      </trkpt>
      <trkpt lat="43.73459" lon="3.59542">
        <ele>271</ele>
        <time>2022-05-12T07:22:46.554Z</time>
      </trkpt>
      <trkpt lat="43.73455" lon="3.5954">
        <ele>271</ele>
        <time>2022-05-12T07:22:47.332Z</time>
      </trkpt>
      <trkpt lat="43.73451" lon="3.59538">
        <ele>271</ele>
        <time>2022-05-12T07:22:48.110Z</time>
      </trkpt>
      <trkpt lat="43.73447" lon="3.59536">
        <ele>272</ele>
        <time>2022-05-12T07:22:51.112Z</time>
      </trkpt>
      <trkpt lat="43.73443" lon="3.59533">
        <ele>272</ele>
        <time>2022-05-12T07:22:51.944Z</time>
      </trkpt>
      <trkpt lat="43.73439" lon="3.59532">
        <ele>272</ele>
        <time>2022-05-12T07:22:52.688Z</time>
      </trkpt>
      <trkpt lat="43.73435" lon="3.59531">
        <ele>272</ele>
        <time>2022-05-12T07:22:53.432Z</time>
      </trkpt>
      <trkpt lat="43.7343" lon="3.59529">
        <ele>272</ele>
        <time>2022-05-12T07:22:54.384Z</time>
      </trkpt>
      <trkpt lat="43.73426" lon="3.59526">
        <ele>272</ele>
        <time>2022-05-12T07:22:55.216Z</time>
      </trkpt>
      <trkpt lat="43.73422" lon="3.59523">
        <ele>272</ele>
        <time>2022-05-12T07:22:56.049Z</time>
      </trkpt>
      <trkpt lat="43.73418" lon="3.59519">
        <ele>272</ele>
        <time>2022-05-12T07:22:56.951Z</time>
      </trkpt>
      <trkpt lat="43.73414" lon="3.59516">
        <ele>272</ele>
        <time>2022-05-12T07:22:57.784Z</time>
      </trkpt>
      <trkpt lat="43.73411" lon="3.59512">
        <ele>272</ele>
        <time>2022-05-12T07:22:58.546Z</time>
      </trkpt>
      <trkpt lat="43.73407" lon="3.59508">
        <ele>272</ele>
        <time>2022-05-12T07:22:59.449Z</time>
      </trkpt>
      <trkpt lat="43.73404" lon="3.59504">
        <ele>272</ele>
        <time>2022-05-12T07:23:00.211Z</time>
      </trkpt>
      <trkpt lat="43.734" lon="3.595">
        <ele>272</ele>
        <time>2022-05-12T07:23:01.114Z</time>
      </trkpt>
      <trkpt lat="43.73397" lon="3.59494">
        <ele>272</ele>
        <time>2022-05-12T07:23:02.078Z</time>
      </trkpt>
      <trkpt lat="43.73395" lon="3.59488">
        <ele>272</ele>
        <time>2022-05-12T07:23:02.952Z</time>
      </trkpt>
      <trkpt lat="43.73393" lon="3.59481">
        <ele>272</ele>
        <time>2022-05-12T07:23:03.947Z</time>
      </trkpt>
      <trkpt lat="43.73391" lon="3.59474">
        <ele>272</ele>
        <time>2022-05-12T07:23:04.942Z</time>
      </trkpt>
      <trkpt lat="43.73389" lon="3.5947">
        <ele>272</ele>
        <time>2022-05-12T07:23:05.585Z</time>
      </trkpt>
      <trkpt lat="43.73385" lon="3.59468">
        <ele>272</ele>
        <time>2022-05-12T07:23:06.363Z</time>
      </trkpt>
      <trkpt lat="43.73382" lon="3.59467">
        <ele>272</ele>
        <time>2022-05-12T07:23:06.928Z</time>
      </trkpt>
      <trkpt lat="43.73378" lon="3.59465">
        <ele>272</ele>
        <time>2022-05-12T07:23:07.706Z</time>
      </trkpt>
      <trkpt lat="43.73375" lon="3.59462">
        <ele>272</ele>
        <time>2022-05-12T07:23:08.383Z</time>
      </trkpt>
      <trkpt lat="43.73372" lon="3.59459">
        <ele>272</ele>
        <time>2022-05-12T07:23:09.060Z</time>
      </trkpt>
      <trkpt lat="43.73368" lon="3.59457">
        <ele>272</ele>
        <time>2022-05-12T07:23:09.839Z</time>
      </trkpt>
      <trkpt lat="43.73364" lon="3.59455">
        <ele>272</ele>
        <time>2022-05-12T07:23:10.617Z</time>
      </trkpt>
      <trkpt lat="43.73361" lon="3.59453">
        <ele>272</ele>
        <time>2022-05-12T07:23:11.226Z</time>
      </trkpt>
      <trkpt lat="43.73357" lon="3.5945">
        <ele>272</ele>
        <time>2022-05-12T07:23:12.058Z</time>
      </trkpt>
      <trkpt lat="43.73354" lon="3.59447">
        <ele>272</ele>
        <time>2022-05-12T07:23:12.735Z</time>
      </trkpt>
      <trkpt lat="43.73352" lon="3.59443">
        <ele>272</ele>
        <time>2022-05-12T07:23:13.379Z</time>
      </trkpt>
      <trkpt lat="43.7335" lon="3.59439">
        <ele>272</ele>
        <time>2022-05-12T07:23:14.022Z</time>
      </trkpt>
      <trkpt lat="43.73349" lon="3.59434">
        <ele>272</ele>
        <time>2022-05-12T07:23:14.707Z</time>
      </trkpt>
      <trkpt lat="43.73348" lon="3.59429">
        <ele>272</ele>
        <time>2022-05-12T07:23:15.393Z</time>
      </trkpt>
      <trkpt lat="43.73347" lon="3.59424">
        <ele>272</ele>
        <time>2022-05-12T07:23:16.079Z</time>
      </trkpt>
      <trkpt lat="43.73346" lon="3.59419">
        <ele>272</ele>
        <time>2022-05-12T07:23:16.765Z</time>
      </trkpt>
      <trkpt lat="43.73344" lon="3.59415">
        <ele>272</ele>
        <time>2022-05-12T07:23:17.408Z</time>
      </trkpt>
      <trkpt lat="43.73342" lon="3.59411">
        <ele>272</ele>
        <time>2022-05-12T07:23:18.051Z</time>
      </trkpt>
      <trkpt lat="43.7334" lon="3.59408">
        <ele>272</ele>
        <time>2022-05-12T07:23:18.591Z</time>
      </trkpt>
      <trkpt lat="43.73338" lon="3.59404">
        <ele>272</ele>
        <time>2022-05-12T07:23:19.234Z</time>
      </trkpt>
      <trkpt lat="43.73337" lon="3.594">
        <ele>272</ele>
        <time>2022-05-12T07:23:19.793Z</time>
      </trkpt>
      <trkpt lat="43.73336" lon="3.59396">
        <ele>272</ele>
        <time>2022-05-12T07:23:20.353Z</time>
      </trkpt>
      <trkpt lat="43.73335" lon="3.59393">
        <ele>273</ele>
        <time>2022-05-12T07:23:22.038Z</time>
      </trkpt>
      <trkpt lat="43.73333" lon="3.5939">
        <ele>273</ele>
        <time>2022-05-12T07:23:22.577Z</time>
      </trkpt>
      <trkpt lat="43.73331" lon="3.59387">
        <ele>273</ele>
        <time>2022-05-12T07:23:23.117Z</time>
      </trkpt>
      <trkpt lat="43.73328" lon="3.59385">
        <ele>273</ele>
        <time>2022-05-12T07:23:23.726Z</time>
      </trkpt>
      <trkpt lat="43.73326" lon="3.59382">
        <ele>273</ele>
        <time>2022-05-12T07:23:24.266Z</time>
      </trkpt>
      <trkpt lat="43.73324" lon="3.5938">
        <ele>273</ele>
        <time>2022-05-12T07:23:24.717Z</time>
      </trkpt>
      <trkpt lat="43.73321" lon="3.59379">
        <ele>273</ele>
        <time>2022-05-12T07:23:25.282Z</time>
      </trkpt>
      <trkpt lat="43.73318" lon="3.59376">
        <ele>273</ele>
        <time>2022-05-12T07:23:25.959Z</time>
      </trkpt>
      <trkpt lat="43.73316" lon="3.59372">
        <ele>273</ele>
        <time>2022-05-12T07:23:26.602Z</time>
      </trkpt>
      <trkpt lat="43.73315" lon="3.59368">
        <ele>273</ele>
        <time>2022-05-12T07:23:27.161Z</time>
      </trkpt>
      <trkpt lat="43.73314" lon="3.59363">
        <ele>274</ele>
        <time>2022-05-12T07:23:29.807Z</time>
      </trkpt>
      <trkpt lat="43.73312" lon="3.5936">
        <ele>274</ele>
        <time>2022-05-12T07:23:30.346Z</time>
      </trkpt>
      <trkpt lat="43.7331" lon="3.59357">
        <ele>274</ele>
        <time>2022-05-12T07:23:30.886Z</time>
      </trkpt>
      <trkpt lat="43.73308" lon="3.59353">
        <ele>274</ele>
        <time>2022-05-12T07:23:31.529Z</time>
      </trkpt>
      <trkpt lat="43.73306" lon="3.59349">
        <ele>274</ele>
        <time>2022-05-12T07:23:32.172Z</time>
      </trkpt>
      <trkpt lat="43.73304" lon="3.59346">
        <ele>274</ele>
        <time>2022-05-12T07:23:32.712Z</time>
      </trkpt>
      <trkpt lat="43.73303" lon="3.59342">
        <ele>274</ele>
        <time>2022-05-12T07:23:33.271Z</time>
      </trkpt>
      <trkpt lat="43.73301" lon="3.59338">
        <ele>274</ele>
        <time>2022-05-12T07:23:33.914Z</time>
      </trkpt>
      <trkpt lat="43.73299" lon="3.59334">
        <ele>274</ele>
        <time>2022-05-12T07:23:34.557Z</time>
      </trkpt>
      <trkpt lat="43.73298" lon="3.59331">
        <ele>274</ele>
        <time>2022-05-12T07:23:34.994Z</time>
      </trkpt>
      <trkpt lat="43.73296" lon="3.59327">
        <ele>275</ele>
        <time>2022-05-12T07:23:37.475Z</time>
      </trkpt>
      <trkpt lat="43.73294" lon="3.59323">
        <ele>275</ele>
        <time>2022-05-12T07:23:38.118Z</time>
      </trkpt>
      <trkpt lat="43.73293" lon="3.5932">
        <ele>275</ele>
        <time>2022-05-12T07:23:38.554Z</time>
      </trkpt>
      <trkpt lat="43.73291" lon="3.59317">
        <ele>275</ele>
        <time>2022-05-12T07:23:39.094Z</time>
      </trkpt>
      <trkpt lat="43.73289" lon="3.59313">
        <ele>275</ele>
        <time>2022-05-12T07:23:39.737Z</time>
      </trkpt>
      <trkpt lat="43.73287" lon="3.59311">
        <ele>275</ele>
        <time>2022-05-12T07:23:40.189Z</time>
      </trkpt>
      <trkpt lat="43.73285" lon="3.59309">
        <ele>275</ele>
        <time>2022-05-12T07:23:40.640Z</time>
      </trkpt>
      <trkpt lat="43.73282" lon="3.59307">
        <ele>275</ele>
        <time>2022-05-12T07:23:41.249Z</time>
      </trkpt>
      <trkpt lat="43.73278" lon="3.59308">
        <ele>275</ele>
        <time>2022-05-12T07:23:41.993Z</time>
      </trkpt>
      <trkpt lat="43.73275" lon="3.59309">
        <ele>275</ele>
        <time>2022-05-12T07:23:42.557Z</time>
      </trkpt>
      <trkpt lat="43.73271" lon="3.59311">
        <ele>275</ele>
        <time>2022-05-12T07:23:43.336Z</time>
      </trkpt>
      <trkpt lat="43.73266" lon="3.59313">
        <ele>275</ele>
        <time>2022-05-12T07:23:44.288Z</time>
      </trkpt>
      <trkpt lat="43.73262" lon="3.59314">
        <ele>275</ele>
        <time>2022-05-12T07:23:45.032Z</time>
      </trkpt>
      <trkpt lat="43.73258" lon="3.59315">
        <ele>275</ele>
        <time>2022-05-12T07:23:45.775Z</time>
      </trkpt>
      <trkpt lat="43.73253" lon="3.59316">
        <ele>275</ele>
        <time>2022-05-12T07:23:46.699Z</time>
      </trkpt>
      <trkpt lat="43.73248" lon="3.59316">
        <ele>275</ele>
        <time>2022-05-12T07:23:47.614Z</time>
      </trkpt>
      <trkpt lat="43.73244" lon="3.59316">
        <ele>275</ele>
        <time>2022-05-12T07:23:48.346Z</time>
      </trkpt>
      <trkpt lat="43.73239" lon="3.59317">
        <ele>275</ele>
        <time>2022-05-12T07:23:49.270Z</time>
      </trkpt>
      <trkpt lat="43.73234" lon="3.59317">
        <ele>275</ele>
        <time>2022-05-12T07:23:50.185Z</time>
      </trkpt>
      <trkpt lat="43.7323" lon="3.59317">
        <ele>275</ele>
        <time>2022-05-12T07:23:50.917Z</time>
      </trkpt>
      <trkpt lat="43.73226" lon="3.59318">
        <ele>274</ele>
        <time>2022-05-12T07:23:51.279Z</time>
      </trkpt>
      <trkpt lat="43.73223" lon="3.59316">
        <ele>274</ele>
        <time>2022-05-12T07:23:51.888Z</time>
      </trkpt>
      <trkpt lat="43.73221" lon="3.59313">
        <ele>274</ele>
        <time>2022-05-12T07:23:52.428Z</time>
      </trkpt>
      <trkpt lat="43.73221" lon="3.5931">
        <ele>274</ele>
        <time>2022-05-12T07:23:52.824Z</time>
      </trkpt>
      <trkpt lat="43.73222" lon="3.59306">
        <ele>274</ele>
        <time>2022-05-12T07:23:53.384Z</time>
      </trkpt>
      <trkpt lat="43.73224" lon="3.59304">
        <ele>274</ele>
        <time>2022-05-12T07:23:53.835Z</time>
      </trkpt>
      <trkpt lat="43.73225" lon="3.593">
        <ele>274</ele>
        <time>2022-05-12T07:23:54.395Z</time>
      </trkpt>
      <trkpt lat="43.73227" lon="3.59297">
        <ele>274</ele>
        <time>2022-05-12T07:23:54.935Z</time>
      </trkpt>
      <trkpt lat="43.73228" lon="3.59294">
        <ele>274</ele>
        <time>2022-05-12T07:23:55.371Z</time>
      </trkpt>
      <trkpt lat="43.73229" lon="3.5929">
        <ele>274</ele>
        <time>2022-05-12T07:23:55.931Z</time>
      </trkpt>
      <trkpt lat="43.7323" lon="3.59286">
        <ele>274</ele>
        <time>2022-05-12T07:23:56.490Z</time>
      </trkpt>
      <trkpt lat="43.7323" lon="3.59283">
        <ele>274</ele>
        <time>2022-05-12T07:23:56.887Z</time>
      </trkpt>
      <trkpt lat="43.7323" lon="3.59279">
        <ele>274</ele>
        <time>2022-05-12T07:23:57.416Z</time>
      </trkpt>
      <trkpt lat="43.73229" lon="3.59275">
        <ele>274</ele>
        <time>2022-05-12T07:23:57.975Z</time>
      </trkpt>
      <trkpt lat="43.73229" lon="3.59271">
        <ele>274</ele>
        <time>2022-05-12T07:23:58.504Z</time>
      </trkpt>
      <trkpt lat="43.73229" lon="3.59267">
        <ele>274</ele>
        <time>2022-05-12T07:23:59.033Z</time>
      </trkpt>
      <trkpt lat="43.73229" lon="3.59264">
        <ele>274</ele>
        <time>2022-05-12T07:23:59.430Z</time>
      </trkpt>
      <trkpt lat="43.7323" lon="3.59261">
        <ele>274</ele>
        <time>2022-05-12T07:23:59.866Z</time>
      </trkpt>
      <trkpt lat="43.7323" lon="3.59257">
        <ele>274</ele>
        <time>2022-05-12T07:24:00.395Z</time>
      </trkpt>
      <trkpt lat="43.7323" lon="3.59254">
        <ele>274</ele>
        <time>2022-05-12T07:24:00.792Z</time>
      </trkpt>
      <trkpt lat="43.7323" lon="3.59251">
        <ele>275</ele>
        <time>2022-05-12T07:24:02.322Z</time>
      </trkpt>
      <trkpt lat="43.7323" lon="3.59247">
        <ele>275</ele>
        <time>2022-05-12T07:24:02.850Z</time>
      </trkpt>
      <trkpt lat="43.7323" lon="3.59244">
        <ele>275</ele>
        <time>2022-05-12T07:24:03.247Z</time>
      </trkpt>
      <trkpt lat="43.73231" lon="3.59241">
        <ele>275</ele>
        <time>2022-05-12T07:24:03.684Z</time>
      </trkpt>
      <trkpt lat="43.73231" lon="3.59238">
        <ele>275</ele>
        <time>2022-05-12T07:24:04.080Z</time>
      </trkpt>
      <trkpt lat="43.73232" lon="3.59235">
        <ele>275</ele>
        <time>2022-05-12T07:24:04.517Z</time>
      </trkpt>
      <trkpt lat="43.73234" lon="3.59233">
        <ele>275</ele>
        <time>2022-05-12T07:24:04.969Z</time>
      </trkpt>
      <trkpt lat="43.73236" lon="3.5923">
        <ele>275</ele>
        <time>2022-05-12T07:24:05.508Z</time>
      </trkpt>
      <trkpt lat="43.73238" lon="3.59228">
        <ele>275</ele>
        <time>2022-05-12T07:24:05.960Z</time>
      </trkpt>
      <trkpt lat="43.7324" lon="3.59226">
        <ele>275</ele>
        <time>2022-05-12T07:24:06.411Z</time>
      </trkpt>
      <trkpt lat="43.73242" lon="3.59223">
        <ele>276</ele>
        <time>2022-05-12T07:24:08.492Z</time>
      </trkpt>
      <trkpt lat="43.73244" lon="3.5922">
        <ele>276</ele>
        <time>2022-05-12T07:24:09.032Z</time>
      </trkpt>
      <trkpt lat="43.73246" lon="3.59218">
        <ele>276</ele>
        <time>2022-05-12T07:24:09.484Z</time>
      </trkpt>
      <trkpt lat="43.73248" lon="3.59216">
        <ele>276</ele>
        <time>2022-05-12T07:24:09.935Z</time>
      </trkpt>
      <trkpt lat="43.73251" lon="3.59215">
        <ele>276</ele>
        <time>2022-05-12T07:24:10.500Z</time>
      </trkpt>
      <trkpt lat="43.73254" lon="3.59214">
        <ele>276</ele>
        <time>2022-05-12T07:24:11.064Z</time>
      </trkpt>
      <trkpt lat="43.73257" lon="3.59213">
        <ele>276</ele>
        <time>2022-05-12T07:24:11.629Z</time>
      </trkpt>
      <trkpt lat="43.7326" lon="3.59212">
        <ele>276</ele>
        <time>2022-05-12T07:24:12.193Z</time>
      </trkpt>
      <trkpt lat="43.73263" lon="3.59212">
        <ele>276</ele>
        <time>2022-05-12T07:24:12.742Z</time>
      </trkpt>
      <trkpt lat="43.73266" lon="3.59211">
        <ele>276</ele>
        <time>2022-05-12T07:24:13.307Z</time>
      </trkpt>
      <trkpt lat="43.73269" lon="3.5921">
        <ele>276</ele>
        <time>2022-05-12T07:24:13.871Z</time>
      </trkpt>
      <trkpt lat="43.73272" lon="3.59209">
        <ele>276</ele>
        <time>2022-05-12T07:24:14.436Z</time>
      </trkpt>
      <trkpt lat="43.73275" lon="3.59208">
        <ele>276</ele>
        <time>2022-05-12T07:24:15.000Z</time>
      </trkpt>
      <trkpt lat="43.73278" lon="3.59206">
        <ele>276</ele>
        <time>2022-05-12T07:24:15.610Z</time>
      </trkpt>
      <trkpt lat="43.7328" lon="3.59204">
        <ele>276</ele>
        <time>2022-05-12T07:24:16.061Z</time>
      </trkpt>
      <trkpt lat="43.73283" lon="3.59203">
        <ele>276</ele>
        <time>2022-05-12T07:24:16.626Z</time>
      </trkpt>
      <trkpt lat="43.73286" lon="3.59201">
        <ele>276</ele>
        <time>2022-05-12T07:24:17.235Z</time>
      </trkpt>
      <trkpt lat="43.73289" lon="3.592">
        <ele>276</ele>
        <time>2022-05-12T07:24:17.800Z</time>
      </trkpt>
      <trkpt lat="43.73292" lon="3.592">
        <ele>276</ele>
        <time>2022-05-12T07:24:18.348Z</time>
      </trkpt>
      <trkpt lat="43.73295" lon="3.59199">
        <ele>276</ele>
        <time>2022-05-12T07:24:18.913Z</time>
      </trkpt>
      <trkpt lat="43.73298" lon="3.59199">
        <ele>277</ele>
        <time>2022-05-12T07:24:21.030Z</time>
      </trkpt>
      <trkpt lat="43.733" lon="3.59199">
        <ele>277</ele>
        <time>2022-05-12T07:24:21.396Z</time>
      </trkpt>
      <trkpt lat="43.73303" lon="3.59198">
        <ele>277</ele>
        <time>2022-05-12T07:24:21.961Z</time>
      </trkpt>
      <trkpt lat="43.73306" lon="3.59198">
        <ele>277</ele>
        <time>2022-05-12T07:24:22.509Z</time>
      </trkpt>
      <trkpt lat="43.73309" lon="3.59197">
        <ele>277</ele>
        <time>2022-05-12T07:24:23.074Z</time>
      </trkpt>
      <trkpt lat="43.73312" lon="3.59197">
        <ele>277</ele>
        <time>2022-05-12T07:24:23.623Z</time>
      </trkpt>
      <trkpt lat="43.73315" lon="3.59197">
        <ele>277</ele>
        <time>2022-05-12T07:24:24.172Z</time>
      </trkpt>
      <trkpt lat="43.73319" lon="3.59196">
        <ele>277</ele>
        <time>2022-05-12T07:24:24.915Z</time>
      </trkpt>
      <trkpt lat="43.73322" lon="3.59196">
        <ele>277</ele>
        <time>2022-05-12T07:24:25.464Z</time>
      </trkpt>
      <trkpt lat="43.73325" lon="3.59196">
        <ele>277</ele>
        <time>2022-05-12T07:24:26.013Z</time>
      </trkpt>
      <trkpt lat="43.73328" lon="3.59195">
        <ele>277</ele>
        <time>2022-05-12T07:24:26.578Z</time>
      </trkpt>
      <trkpt lat="43.73331" lon="3.59195">
        <ele>277</ele>
        <time>2022-05-12T07:24:27.127Z</time>
      </trkpt>
      <trkpt lat="43.73335" lon="3.59195">
        <ele>277</ele>
        <time>2022-05-12T07:24:27.858Z</time>
      </trkpt>
      <trkpt lat="43.73339" lon="3.59194">
        <ele>277</ele>
        <time>2022-05-12T07:24:28.602Z</time>
      </trkpt>
      <trkpt lat="43.73343" lon="3.59193">
        <ele>277</ele>
        <time>2022-05-12T07:24:29.346Z</time>
      </trkpt>
      <trkpt lat="43.73347" lon="3.59192">
        <ele>277</ele>
        <time>2022-05-12T07:24:30.089Z</time>
      </trkpt>
      <trkpt lat="43.73351" lon="3.5919">
        <ele>277</ele>
        <time>2022-05-12T07:24:30.868Z</time>
      </trkpt>
      <trkpt lat="43.73354" lon="3.59188">
        <ele>277</ele>
        <time>2022-05-12T07:24:31.477Z</time>
      </trkpt>
      <trkpt lat="43.73358" lon="3.59184">
        <ele>277</ele>
        <time>2022-05-12T07:24:32.380Z</time>
      </trkpt>
      <trkpt lat="43.73361" lon="3.59181">
        <ele>277</ele>
        <time>2022-05-12T07:24:33.057Z</time>
      </trkpt>
      <trkpt lat="43.73364" lon="3.59177">
        <ele>278</ele>
        <time>2022-05-12T07:24:35.997Z</time>
      </trkpt>
      <trkpt lat="43.73366" lon="3.59174">
        <ele>278</ele>
        <time>2022-05-12T07:24:36.536Z</time>
      </trkpt>
      <trkpt lat="43.73369" lon="3.59171">
        <ele>278</ele>
        <time>2022-05-12T07:24:37.213Z</time>
      </trkpt>
      <trkpt lat="43.73372" lon="3.59166">
        <ele>278</ele>
        <time>2022-05-12T07:24:38.073Z</time>
      </trkpt>
      <trkpt lat="43.73375" lon="3.59162">
        <ele>278</ele>
        <time>2022-05-12T07:24:38.835Z</time>
      </trkpt>
      <trkpt lat="43.73378" lon="3.59158">
        <ele>278</ele>
        <time>2022-05-12T07:24:39.597Z</time>
      </trkpt>
      <trkpt lat="43.7338" lon="3.59154">
        <ele>278</ele>
        <time>2022-05-12T07:24:40.240Z</time>
      </trkpt>
      <trkpt lat="43.73382" lon="3.59149">
        <ele>278</ele>
        <time>2022-05-12T07:24:40.995Z</time>
      </trkpt>
      <trkpt lat="43.73385" lon="3.59145">
        <ele>278</ele>
        <time>2022-05-12T07:24:41.758Z</time>
      </trkpt>
      <trkpt lat="43.73392" lon="3.59133">
        <ele>279</ele>
        <time>2022-05-12T07:24:46.578Z</time>
      </trkpt>
      <trkpt lat="43.73397" lon="3.59118">
        <ele>279</ele>
        <time>2022-05-12T07:24:48.761Z</time>
      </trkpt>
      <trkpt lat="43.734" lon="3.59114">
        <ele>279</ele>
        <time>2022-05-12T07:24:49.524Z</time>
      </trkpt>
      <trkpt lat="43.73403" lon="3.5911">
        <ele>279</ele>
        <time>2022-05-12T07:24:50.286Z</time>
      </trkpt>
      <trkpt lat="43.73407" lon="3.59108">
        <ele>279</ele>
        <time>2022-05-12T07:24:51.064Z</time>
      </trkpt>
      <trkpt lat="43.7341" lon="3.59105">
        <ele>279</ele>
        <time>2022-05-12T07:24:51.741Z</time>
      </trkpt>
      <trkpt lat="43.73413" lon="3.59102">
        <ele>279</ele>
        <time>2022-05-12T07:24:52.418Z</time>
      </trkpt>
      <trkpt lat="43.73417" lon="3.59099">
        <ele>280</ele>
        <time>2022-05-12T07:24:55.629Z</time>
      </trkpt>
      <trkpt lat="43.73419" lon="3.59095">
        <ele>280</ele>
        <time>2022-05-12T07:24:56.272Z</time>
      </trkpt>
      <trkpt lat="43.73422" lon="3.59093">
        <ele>280</ele>
        <time>2022-05-12T07:24:56.881Z</time>
      </trkpt>
      <trkpt lat="43.73425" lon="3.5909">
        <ele>280</ele>
        <time>2022-05-12T07:24:57.558Z</time>
      </trkpt>
      <trkpt lat="43.73428" lon="3.59087">
        <ele>280</ele>
        <time>2022-05-12T07:24:58.235Z</time>
      </trkpt>
      <trkpt lat="43.7343" lon="3.59085">
        <ele>280</ele>
        <time>2022-05-12T07:24:58.687Z</time>
      </trkpt>
      <trkpt lat="43.73433" lon="3.59083">
        <ele>280</ele>
        <time>2022-05-12T07:24:59.296Z</time>
      </trkpt>
      <trkpt lat="43.73436" lon="3.59081">
        <ele>280</ele>
        <time>2022-05-12T07:24:59.905Z</time>
      </trkpt>
      <trkpt lat="43.73439" lon="3.59078">
        <ele>280</ele>
        <time>2022-05-12T07:25:00.582Z</time>
      </trkpt>
      <trkpt lat="43.73442" lon="3.59076">
        <ele>280</ele>
        <time>2022-05-12T07:25:01.192Z</time>
      </trkpt>
      <trkpt lat="43.73445" lon="3.59074">
        <ele>281</ele>
        <time>2022-05-12T07:25:03.542Z</time>
      </trkpt>
      <trkpt lat="43.73447" lon="3.59072">
        <ele>281</ele>
        <time>2022-05-12T07:25:03.993Z</time>
      </trkpt>
      <trkpt lat="43.7345" lon="3.5907">
        <ele>281</ele>
        <time>2022-05-12T07:25:04.602Z</time>
      </trkpt>
      <trkpt lat="43.7346" lon="3.59061">
        <ele>281</ele>
        <time>2022-05-12T07:25:06.785Z</time>
      </trkpt>
      <trkpt lat="43.73463" lon="3.59059">
        <ele>281</ele>
        <time>2022-05-12T07:25:07.394Z</time>
      </trkpt>
      <trkpt lat="43.73466" lon="3.59056">
        <ele>281</ele>
        <time>2022-05-12T07:25:08.071Z</time>
      </trkpt>
      <trkpt lat="43.7347" lon="3.59053">
        <ele>281</ele>
        <time>2022-05-12T07:25:08.903Z</time>
      </trkpt>
      <trkpt lat="43.73474" lon="3.5905">
        <ele>281</ele>
        <time>2022-05-12T07:25:09.736Z</time>
      </trkpt>
      <trkpt lat="43.73477" lon="3.59047">
        <ele>282</ele>
        <time>2022-05-12T07:25:12.348Z</time>
      </trkpt>
      <trkpt lat="43.73481" lon="3.59045">
        <ele>282</ele>
        <time>2022-05-12T07:25:13.126Z</time>
      </trkpt>
      <trkpt lat="43.73484" lon="3.59042">
        <ele>282</ele>
        <time>2022-05-12T07:25:13.803Z</time>
      </trkpt>
      <trkpt lat="43.73488" lon="3.59039">
        <ele>282</ele>
        <time>2022-05-12T07:25:14.635Z</time>
      </trkpt>
      <trkpt lat="43.73491" lon="3.59036">
        <ele>282</ele>
        <time>2022-05-12T07:25:15.313Z</time>
      </trkpt>
      <trkpt lat="43.73495" lon="3.59033">
        <ele>282</ele>
        <time>2022-05-12T07:25:16.145Z</time>
      </trkpt>
      <trkpt lat="43.73499" lon="3.5903">
        <ele>282</ele>
        <time>2022-05-12T07:25:16.977Z</time>
      </trkpt>
      <trkpt lat="43.73502" lon="3.59027">
        <ele>282</ele>
        <time>2022-05-12T07:25:17.654Z</time>
      </trkpt>
      <trkpt lat="43.73505" lon="3.59024">
        <ele>282</ele>
        <time>2022-05-12T07:25:18.332Z</time>
      </trkpt>
      <trkpt lat="43.73508" lon="3.5902">
        <ele>282</ele>
        <time>2022-05-12T07:25:19.094Z</time>
      </trkpt>
      <trkpt lat="43.73511" lon="3.59017">
        <ele>283</ele>
        <time>2022-05-12T07:25:21.706Z</time>
      </trkpt>
      <trkpt lat="43.73514" lon="3.59013">
        <ele>283</ele>
        <time>2022-05-12T07:25:22.468Z</time>
      </trkpt>
      <trkpt lat="43.73517" lon="3.5901">
        <ele>283</ele>
        <time>2022-05-12T07:25:23.145Z</time>
      </trkpt>
      <trkpt lat="43.7352" lon="3.59006">
        <ele>283</ele>
        <time>2022-05-12T07:25:23.907Z</time>
      </trkpt>
      <trkpt lat="43.73522" lon="3.59002">
        <ele>283</ele>
        <time>2022-05-12T07:25:24.550Z</time>
      </trkpt>
      <trkpt lat="43.73525" lon="3.58998">
        <ele>283</ele>
        <time>2022-05-12T07:25:25.312Z</time>
      </trkpt>
      <trkpt lat="43.73527" lon="3.58995">
        <ele>283</ele>
        <time>2022-05-12T07:25:25.852Z</time>
      </trkpt>
      <trkpt lat="43.73529" lon="3.58991">
        <ele>283</ele>
        <time>2022-05-12T07:25:26.495Z</time>
      </trkpt>
      <trkpt lat="43.7353" lon="3.58987">
        <ele>283</ele>
        <time>2022-05-12T07:25:27.055Z</time>
      </trkpt>
      <trkpt lat="43.73532" lon="3.58983">
        <ele>283</ele>
        <time>2022-05-12T07:25:27.698Z</time>
      </trkpt>
      <trkpt lat="43.73533" lon="3.5898">
        <ele>284</ele>
        <time>2022-05-12T07:25:29.382Z</time>
      </trkpt>
      <trkpt lat="43.73534" lon="3.58977">
        <ele>284</ele>
        <time>2022-05-12T07:25:29.819Z</time>
      </trkpt>
      <trkpt lat="43.73536" lon="3.58974">
        <ele>284</ele>
        <time>2022-05-12T07:25:30.359Z</time>
      </trkpt>
      <trkpt lat="43.73538" lon="3.58971">
        <ele>284</ele>
        <time>2022-05-12T07:25:30.898Z</time>
      </trkpt>
      <trkpt lat="43.73539" lon="3.58968">
        <ele>284</ele>
        <time>2022-05-12T07:25:31.335Z</time>
      </trkpt>
      <trkpt lat="43.73541" lon="3.58965">
        <ele>284</ele>
        <time>2022-05-12T07:25:31.874Z</time>
      </trkpt>
      <trkpt lat="43.73542" lon="3.58962">
        <ele>284</ele>
        <time>2022-05-12T07:25:32.311Z</time>
      </trkpt>
      <trkpt lat="43.73544" lon="3.5896">
        <ele>284</ele>
        <time>2022-05-12T07:25:32.763Z</time>
      </trkpt>
      <trkpt lat="43.73545" lon="3.58957">
        <ele>284</ele>
        <time>2022-05-12T07:25:33.199Z</time>
      </trkpt>
      <trkpt lat="43.73546" lon="3.58955">
        <ele>284</ele>
        <time>2022-05-12T07:25:33.521Z</time>
      </trkpt>
      <trkpt lat="43.73547" lon="3.58952">
        <ele>286</ele>
        <time>2022-05-12T07:25:35.206Z</time>
      </trkpt>
      <trkpt lat="43.73547" lon="3.58949">
        <ele>286</ele>
        <time>2022-05-12T07:25:35.602Z</time>
      </trkpt>
      <trkpt lat="43.73548" lon="3.58946">
        <ele>286</ele>
        <time>2022-05-12T07:25:36.039Z</time>
      </trkpt>
      <trkpt lat="43.7355" lon="3.58944">
        <ele>286</ele>
        <time>2022-05-12T07:25:36.490Z</time>
      </trkpt>
      <trkpt lat="43.73551" lon="3.58942">
        <ele>286</ele>
        <time>2022-05-12T07:25:36.812Z</time>
      </trkpt>
      <trkpt lat="43.73553" lon="3.5894">
        <ele>286</ele>
        <time>2022-05-12T07:25:37.263Z</time>
      </trkpt>
      <trkpt lat="43.73555" lon="3.58938">
        <ele>286</ele>
        <time>2022-05-12T07:25:37.715Z</time>
      </trkpt>
      <trkpt lat="43.73556" lon="3.58936">
        <ele>286</ele>
        <time>2022-05-12T07:25:38.036Z</time>
      </trkpt>
      <trkpt lat="43.73558" lon="3.58934">
        <ele>286</ele>
        <time>2022-05-12T07:25:38.488Z</time>
      </trkpt>
      <trkpt lat="43.73559" lon="3.58932">
        <ele>286</ele>
        <time>2022-05-12T07:25:38.809Z</time>
      </trkpt>
      <trkpt lat="43.73561" lon="3.58929">
        <ele>287</ele>
        <time>2022-05-12T07:25:40.891Z</time>
      </trkpt>
      <trkpt lat="43.73562" lon="3.58927">
        <ele>287</ele>
        <time>2022-05-12T07:25:41.212Z</time>
      </trkpt>
      <trkpt lat="43.73564" lon="3.58924">
        <ele>287</ele>
        <time>2022-05-12T07:25:41.752Z</time>
      </trkpt>
      <trkpt lat="43.73565" lon="3.58922">
        <ele>287</ele>
        <time>2022-05-12T07:25:42.073Z</time>
      </trkpt>
      <trkpt lat="43.73566" lon="3.58919">
        <ele>287</ele>
        <time>2022-05-12T07:25:42.510Z</time>
      </trkpt>
      <trkpt lat="43.73567" lon="3.58917">
        <ele>287</ele>
        <time>2022-05-12T07:25:42.831Z</time>
      </trkpt>
      <trkpt lat="43.73569" lon="3.58914">
        <ele>287</ele>
        <time>2022-05-12T07:25:43.371Z</time>
      </trkpt>
      <trkpt lat="43.7357" lon="3.58912">
        <ele>287</ele>
        <time>2022-05-12T07:25:43.693Z</time>
      </trkpt>
      <trkpt lat="43.73571" lon="3.5891">
        <ele>287</ele>
        <time>2022-05-12T07:25:44.014Z</time>
      </trkpt>
      <trkpt lat="43.73572" lon="3.58907">
        <ele>287</ele>
        <time>2022-05-12T07:25:44.451Z</time>
      </trkpt>
      <trkpt lat="43.73573" lon="3.58904">
        <ele>287</ele>
        <time>2022-05-12T07:25:44.888Z</time>
      </trkpt>
      <trkpt lat="43.73574" lon="3.58902">
        <ele>289</ele>
        <time>2022-05-12T07:25:46.128Z</time>
      </trkpt>
      <trkpt lat="43.73575" lon="3.58899">
        <ele>289</ele>
        <time>2022-05-12T07:25:46.565Z</time>
      </trkpt>
      <trkpt lat="43.73577" lon="3.58897">
        <ele>289</ele>
        <time>2022-05-12T07:25:47.016Z</time>
      </trkpt>
      <trkpt lat="43.73578" lon="3.58894">
        <ele>289</ele>
        <time>2022-05-12T07:25:47.453Z</time>
      </trkpt>
      <trkpt lat="43.73578" lon="3.58891">
        <ele>289</ele>
        <time>2022-05-12T07:25:47.849Z</time>
      </trkpt>
      <trkpt lat="43.7358" lon="3.58889">
        <ele>289</ele>
        <time>2022-05-12T07:25:48.301Z</time>
      </trkpt>
      <trkpt lat="43.73581" lon="3.58887">
        <ele>289</ele>
        <time>2022-05-12T07:25:48.622Z</time>
      </trkpt>
      <trkpt lat="43.73583" lon="3.58885">
        <ele>289</ele>
        <time>2022-05-12T07:25:49.074Z</time>
      </trkpt>
      <trkpt lat="43.73585" lon="3.58883">
        <ele>289</ele>
        <time>2022-05-12T07:25:49.525Z</time>
      </trkpt>
      <trkpt lat="43.73587" lon="3.58881">
        <ele>290</ele>
        <time>2022-05-12T07:25:51.266Z</time>
      </trkpt>
      <trkpt lat="43.73589" lon="3.5888">
        <ele>290</ele>
        <time>2022-05-12T07:25:51.655Z</time>
      </trkpt>
      <trkpt lat="43.73591" lon="3.58877">
        <ele>290</ele>
        <time>2022-05-12T07:25:52.195Z</time>
      </trkpt>
      <trkpt lat="43.73593" lon="3.58875">
        <ele>290</ele>
        <time>2022-05-12T07:25:52.646Z</time>
      </trkpt>
      <trkpt lat="43.73595" lon="3.58873">
        <ele>290</ele>
        <time>2022-05-12T07:25:53.098Z</time>
      </trkpt>
      <trkpt lat="43.73596" lon="3.58871">
        <ele>290</ele>
        <time>2022-05-12T07:25:53.419Z</time>
      </trkpt>
      <trkpt lat="43.73598" lon="3.58868">
        <ele>290</ele>
        <time>2022-05-12T07:25:53.959Z</time>
      </trkpt>
      <trkpt lat="43.73599" lon="3.58866">
        <ele>290</ele>
        <time>2022-05-12T07:25:54.281Z</time>
      </trkpt>
      <trkpt lat="43.73601" lon="3.58863">
        <ele>290</ele>
        <time>2022-05-12T07:25:54.820Z</time>
      </trkpt>
      <trkpt lat="43.73603" lon="3.58862">
        <ele>290</ele>
        <time>2022-05-12T07:25:55.209Z</time>
      </trkpt>
      <trkpt lat="43.73605" lon="3.5886">
        <ele>291</ele>
        <time>2022-05-12T07:25:56.950Z</time>
      </trkpt>
      <trkpt lat="43.73607" lon="3.58858">
        <ele>291</ele>
        <time>2022-05-12T07:25:57.402Z</time>
      </trkpt>
      <trkpt lat="43.73609" lon="3.58856">
        <ele>291</ele>
        <time>2022-05-12T07:25:57.853Z</time>
      </trkpt>
      <trkpt lat="43.7361" lon="3.58854">
        <ele>291</ele>
        <time>2022-05-12T07:25:58.175Z</time>
      </trkpt>
      <trkpt lat="43.73612" lon="3.58852">
        <ele>291</ele>
        <time>2022-05-12T07:25:58.626Z</time>
      </trkpt>
      <trkpt lat="43.73614" lon="3.5885">
        <ele>291</ele>
        <time>2022-05-12T07:25:59.078Z</time>
      </trkpt>
      <trkpt lat="43.73615" lon="3.58849">
        <ele>291</ele>
        <time>2022-05-12T07:25:59.303Z</time>
      </trkpt>
      <trkpt lat="43.73617" lon="3.58847">
        <ele>291</ele>
        <time>2022-05-12T07:25:59.755Z</time>
      </trkpt>
      <trkpt lat="43.73619" lon="3.58845">
        <ele>291</ele>
        <time>2022-05-12T07:26:00.206Z</time>
      </trkpt>
      <trkpt lat="43.73621" lon="3.58843">
        <ele>291</ele>
        <time>2022-05-12T07:26:00.658Z</time>
      </trkpt>
      <trkpt lat="43.73622" lon="3.58841">
        <ele>293</ele>
        <time>2022-05-12T07:26:01.898Z</time>
      </trkpt>
      <trkpt lat="43.73624" lon="3.5884">
        <ele>293</ele>
        <time>2022-05-12T07:26:02.287Z</time>
      </trkpt>
      <trkpt lat="43.73625" lon="3.58838">
        <ele>293</ele>
        <time>2022-05-12T07:26:02.608Z</time>
      </trkpt>
      <trkpt lat="43.73626" lon="3.58836">
        <ele>293</ele>
        <time>2022-05-12T07:26:02.930Z</time>
      </trkpt>
      <trkpt lat="43.73627" lon="3.58834">
        <ele>293</ele>
        <time>2022-05-12T07:26:03.251Z</time>
      </trkpt>
      <trkpt lat="43.73629" lon="3.5883">
        <ele>293</ele>
        <time>2022-05-12T07:26:03.895Z</time>
      </trkpt>
      <trkpt lat="43.73631" lon="3.58826">
        <ele>293</ele>
        <time>2022-05-12T07:26:04.538Z</time>
      </trkpt>
      <trkpt lat="43.73634" lon="3.58823">
        <ele>294</ele>
        <time>2022-05-12T07:26:07.149Z</time>
      </trkpt>
      <trkpt lat="43.73636" lon="3.5882">
        <ele>294</ele>
        <time>2022-05-12T07:26:07.689Z</time>
      </trkpt>
      <trkpt lat="43.73639" lon="3.58818">
        <ele>294</ele>
        <time>2022-05-12T07:26:08.298Z</time>
      </trkpt>
      <trkpt lat="43.73641" lon="3.58815">
        <ele>294</ele>
        <time>2022-05-12T07:26:08.838Z</time>
      </trkpt>
      <trkpt lat="43.73644" lon="3.58813">
        <ele>294</ele>
        <time>2022-05-12T07:26:09.447Z</time>
      </trkpt>
      <trkpt lat="43.73646" lon="3.58811">
        <ele>295</ele>
        <time>2022-05-12T07:26:11.188Z</time>
      </trkpt>
      <trkpt lat="43.73649" lon="3.58809">
        <ele>295</ele>
        <time>2022-05-12T07:26:11.798Z</time>
      </trkpt>
      <trkpt lat="43.73652" lon="3.58807">
        <ele>295</ele>
        <time>2022-05-12T07:26:12.407Z</time>
      </trkpt>
      <trkpt lat="43.73655" lon="3.58804">
        <ele>295</ele>
        <time>2022-05-12T07:26:13.084Z</time>
      </trkpt>
      <trkpt lat="43.73658" lon="3.58802">
        <ele>295</ele>
        <time>2022-05-12T07:26:13.693Z</time>
      </trkpt>
      <trkpt lat="43.73661" lon="3.58801">
        <ele>296</ele>
        <time>2022-05-12T07:26:15.871Z</time>
      </trkpt>
      <trkpt lat="43.73663" lon="3.58799">
        <ele>296</ele>
        <time>2022-05-12T07:26:16.322Z</time>
      </trkpt>
      <trkpt lat="43.73666" lon="3.58796">
        <ele>296</ele>
        <time>2022-05-12T07:26:16.999Z</time>
      </trkpt>
      <trkpt lat="43.73668" lon="3.58795">
        <ele>296</ele>
        <time>2022-05-12T07:26:17.388Z</time>
      </trkpt>
      <trkpt lat="43.7367" lon="3.58793">
        <ele>296</ele>
        <time>2022-05-12T07:26:17.840Z</time>
      </trkpt>
      <trkpt lat="43.73673" lon="3.58791">
        <ele>296</ele>
        <time>2022-05-12T07:26:18.449Z</time>
      </trkpt>
      <trkpt lat="43.73677" lon="3.5879">
        <ele>297</ele>
        <time>2022-05-12T07:26:21.318Z</time>
      </trkpt>
      <trkpt lat="43.73678" lon="3.5879">
        <ele>297</ele>
        <time>2022-05-12T07:26:21.501Z</time>
      </trkpt>
      <trkpt lat="43.7368" lon="3.58789">
        <ele>297</ele>
        <time>2022-05-12T07:26:21.890Z</time>
      </trkpt>
      <trkpt lat="43.73682" lon="3.58788">
        <ele>297</ele>
        <time>2022-05-12T07:26:22.279Z</time>
      </trkpt>
      <trkpt lat="43.73684" lon="3.58788">
        <ele>297</ele>
        <time>2022-05-12T07:26:22.645Z</time>
      </trkpt>
      <trkpt lat="43.73686" lon="3.58787">
        <ele>297</ele>
        <time>2022-05-12T07:26:23.034Z</time>
      </trkpt>
      <trkpt lat="43.73688" lon="3.58786">
        <ele>297</ele>
        <time>2022-05-12T07:26:23.423Z</time>
      </trkpt>
      <trkpt lat="43.7369" lon="3.58786">
        <ele>297</ele>
        <time>2022-05-12T07:26:23.789Z</time>
      </trkpt>
      <trkpt lat="43.73692" lon="3.58785">
        <ele>297</ele>
        <time>2022-05-12T07:26:24.178Z</time>
      </trkpt>
      <trkpt lat="43.73693" lon="3.58784">
        <ele>297</ele>
        <time>2022-05-12T07:26:24.403Z</time>
      </trkpt>
      <trkpt lat="43.73695" lon="3.58784">
        <ele>297</ele>
        <time>2022-05-12T07:26:24.769Z</time>
      </trkpt>
      <trkpt lat="43.73697" lon="3.58783">
        <ele>297</ele>
        <time>2022-05-12T07:26:25.158Z</time>
      </trkpt>
      <trkpt lat="43.737" lon="3.58781">
        <ele>297</ele>
        <time>2022-05-12T07:26:25.768Z</time>
      </trkpt>
      <trkpt lat="43.73703" lon="3.58779">
        <ele>297</ele>
        <time>2022-05-12T07:26:26.377Z</time>
      </trkpt>
      <trkpt lat="43.73706" lon="3.58777">
        <ele>297</ele>
        <time>2022-05-12T07:26:26.986Z</time>
      </trkpt>
      <trkpt lat="43.73708" lon="3.58774">
        <ele>297</ele>
        <time>2022-05-12T07:26:27.526Z</time>
      </trkpt>
      <trkpt lat="43.7371" lon="3.58772">
        <ele>298</ele>
        <time>2022-05-12T07:26:29.267Z</time>
      </trkpt>
      <trkpt lat="43.73712" lon="3.58769">
        <ele>298</ele>
        <time>2022-05-12T07:26:29.807Z</time>
      </trkpt>
      <trkpt lat="43.73714" lon="3.58767">
        <ele>298</ele>
        <time>2022-05-12T07:26:30.258Z</time>
      </trkpt>
      <trkpt lat="43.73716" lon="3.58764">
        <ele>298</ele>
        <time>2022-05-12T07:26:30.798Z</time>
      </trkpt>
      <trkpt lat="43.73717" lon="3.58761">
        <ele>298</ele>
        <time>2022-05-12T07:26:31.234Z</time>
      </trkpt>
      <trkpt lat="43.73719" lon="3.58758">
        <ele>300</ele>
        <time>2022-05-12T07:26:33.316Z</time>
      </trkpt>
      <trkpt lat="43.73721" lon="3.58756">
        <ele>300</ele>
        <time>2022-05-12T07:26:33.767Z</time>
      </trkpt>
      <trkpt lat="43.73723" lon="3.58753">
        <ele>300</ele>
        <time>2022-05-12T07:26:34.307Z</time>
      </trkpt>
      <trkpt lat="43.73725" lon="3.5875">
        <ele>300</ele>
        <time>2022-05-12T07:26:34.846Z</time>
      </trkpt>
      <trkpt lat="43.73727" lon="3.58749">
        <ele>300</ele>
        <time>2022-05-12T07:26:35.235Z</time>
      </trkpt>
      <trkpt lat="43.73729" lon="3.58747">
        <ele>302</ele>
        <time>2022-05-12T07:26:36.977Z</time>
      </trkpt>
      <trkpt lat="43.73732" lon="3.58745">
        <ele>302</ele>
        <time>2022-05-12T07:26:37.586Z</time>
      </trkpt>
      <trkpt lat="43.73734" lon="3.58743">
        <ele>302</ele>
        <time>2022-05-12T07:26:38.037Z</time>
      </trkpt>
      <trkpt lat="43.73737" lon="3.58741">
        <ele>302</ele>
        <time>2022-05-12T07:26:38.646Z</time>
      </trkpt>
      <trkpt lat="43.7374" lon="3.5874">
        <ele>302</ele>
        <time>2022-05-12T07:26:39.211Z</time>
      </trkpt>
      <trkpt lat="43.73742" lon="3.58739">
        <ele>302</ele>
        <time>2022-05-12T07:26:39.600Z</time>
      </trkpt>
      <trkpt lat="43.73745" lon="3.58737">
        <ele>302</ele>
        <time>2022-05-12T07:26:40.209Z</time>
      </trkpt>
      <trkpt lat="43.73747" lon="3.58735">
        <ele>302</ele>
        <time>2022-05-12T07:26:40.661Z</time>
      </trkpt>
      <trkpt lat="43.7375" lon="3.58732">
        <ele>302</ele>
        <time>2022-05-12T07:26:41.338Z</time>
      </trkpt>
      <trkpt lat="43.73752" lon="3.58729">
        <ele>302</ele>
        <time>2022-05-12T07:26:41.877Z</time>
      </trkpt>
      <trkpt lat="43.73754" lon="3.58727">
        <ele>303</ele>
        <time>2022-05-12T07:26:43.619Z</time>
      </trkpt>
      <trkpt lat="43.73757" lon="3.58725">
        <ele>303</ele>
        <time>2022-05-12T07:26:44.228Z</time>
      </trkpt>
      <trkpt lat="43.73759" lon="3.58724">
        <ele>303</ele>
        <time>2022-05-12T07:26:44.617Z</time>
      </trkpt>
      <trkpt lat="43.73762" lon="3.58722">
        <ele>303</ele>
        <time>2022-05-12T07:26:45.226Z</time>
      </trkpt>
      <trkpt lat="43.73765" lon="3.58721">
        <ele>303</ele>
        <time>2022-05-12T07:26:45.791Z</time>
      </trkpt>
      <trkpt lat="43.73768" lon="3.58719">
        <ele>305</ele>
        <time>2022-05-12T07:26:48.141Z</time>
      </trkpt>
      <trkpt lat="43.73771" lon="3.58717">
        <ele>305</ele>
        <time>2022-05-12T07:26:48.750Z</time>
      </trkpt>
      <trkpt lat="43.73774" lon="3.58716">
        <ele>305</ele>
        <time>2022-05-12T07:26:49.314Z</time>
      </trkpt>
      <trkpt lat="43.73776" lon="3.58714">
        <ele>305</ele>
        <time>2022-05-12T07:26:49.766Z</time>
      </trkpt>
      <trkpt lat="43.73779" lon="3.58713">
        <ele>305</ele>
        <time>2022-05-12T07:26:50.330Z</time>
      </trkpt>
      <trkpt lat="43.73781" lon="3.58712">
        <ele>306</ele>
        <time>2022-05-12T07:26:51.831Z</time>
      </trkpt>
      <trkpt lat="43.73783" lon="3.5871">
        <ele>306</ele>
        <time>2022-05-12T07:26:52.283Z</time>
      </trkpt>
      <trkpt lat="43.73786" lon="3.58707">
        <ele>306</ele>
        <time>2022-05-12T07:26:52.960Z</time>
      </trkpt>
      <trkpt lat="43.73788" lon="3.58705">
        <ele>306</ele>
        <time>2022-05-12T07:26:53.411Z</time>
      </trkpt>
      <trkpt lat="43.7379" lon="3.58703">
        <ele>306</ele>
        <time>2022-05-12T07:26:53.863Z</time>
      </trkpt>
      <trkpt lat="43.73792" lon="3.58701">
        <ele>308</ele>
        <time>2022-05-12T07:26:55.604Z</time>
      </trkpt>
      <trkpt lat="43.73795" lon="3.58699">
        <ele>308</ele>
        <time>2022-05-12T07:26:56.213Z</time>
      </trkpt>
      <trkpt lat="43.73797" lon="3.58697">
        <ele>308</ele>
        <time>2022-05-12T07:26:56.664Z</time>
      </trkpt>
      <trkpt lat="43.73799" lon="3.58695">
        <ele>308</ele>
        <time>2022-05-12T07:26:57.116Z</time>
      </trkpt>
      <trkpt lat="43.73802" lon="3.58693">
        <ele>308</ele>
        <time>2022-05-12T07:26:57.725Z</time>
      </trkpt>
      <trkpt lat="43.73804" lon="3.58691">
        <ele>310</ele>
        <time>2022-05-12T07:26:59.466Z</time>
      </trkpt>
      <trkpt lat="43.73807" lon="3.58689">
        <ele>310</ele>
        <time>2022-05-12T07:27:00.076Z</time>
      </trkpt>
      <trkpt lat="43.73809" lon="3.58687">
        <ele>310</ele>
        <time>2022-05-12T07:27:00.527Z</time>
      </trkpt>
      <trkpt lat="43.73811" lon="3.58684">
        <ele>310</ele>
        <time>2022-05-12T07:27:01.067Z</time>
      </trkpt>
      <trkpt lat="43.73813" lon="3.58682">
        <ele>310</ele>
        <time>2022-05-12T07:27:01.518Z</time>
      </trkpt>
      <trkpt lat="43.73815" lon="3.5868">
        <ele>311</ele>
        <time>2022-05-12T07:27:03.259Z</time>
      </trkpt>
      <trkpt lat="43.73817" lon="3.58678">
        <ele>311</ele>
        <time>2022-05-12T07:27:03.711Z</time>
      </trkpt>
      <trkpt lat="43.73819" lon="3.58676">
        <ele>311</ele>
        <time>2022-05-12T07:27:04.162Z</time>
      </trkpt>
      <trkpt lat="43.73822" lon="3.58675">
        <ele>311</ele>
        <time>2022-05-12T07:27:04.727Z</time>
      </trkpt>
      <trkpt lat="43.73824" lon="3.58673">
        <ele>311</ele>
        <time>2022-05-12T07:27:05.178Z</time>
      </trkpt>
      <trkpt lat="43.73826" lon="3.58672">
        <ele>312</ele>
        <time>2022-05-12T07:27:06.679Z</time>
      </trkpt>
      <trkpt lat="43.73829" lon="3.58669">
        <ele>312</ele>
        <time>2022-05-12T07:27:07.356Z</time>
      </trkpt>
      <trkpt lat="43.73831" lon="3.58667">
        <ele>312</ele>
        <time>2022-05-12T07:27:07.807Z</time>
      </trkpt>
      <trkpt lat="43.73832" lon="3.58664">
        <ele>312</ele>
        <time>2022-05-12T07:27:08.244Z</time>
      </trkpt>
      <trkpt lat="43.73834" lon="3.5866">
        <ele>312</ele>
        <time>2022-05-12T07:27:08.887Z</time>
      </trkpt>
      <trkpt lat="43.73836" lon="3.58658">
        <ele>313</ele>
        <time>2022-05-12T07:27:10.628Z</time>
      </trkpt>
      <trkpt lat="43.73838" lon="3.58655">
        <ele>313</ele>
        <time>2022-05-12T07:27:11.168Z</time>
      </trkpt>
      <trkpt lat="43.73841" lon="3.58653">
        <ele>313</ele>
        <time>2022-05-12T07:27:11.777Z</time>
      </trkpt>
      <trkpt lat="43.73844" lon="3.58651">
        <ele>313</ele>
        <time>2022-05-12T07:27:12.386Z</time>
      </trkpt>
      <trkpt lat="43.73847" lon="3.58649">
        <ele>313</ele>
        <time>2022-05-12T07:27:12.996Z</time>
      </trkpt>
      <trkpt lat="43.73849" lon="3.58647">
        <ele>315</ele>
        <time>2022-05-12T07:27:14.737Z</time>
      </trkpt>
      <trkpt lat="43.7385" lon="3.58646">
        <ele>315</ele>
        <time>2022-05-12T07:27:14.963Z</time>
      </trkpt>
      <trkpt lat="43.73852" lon="3.58645">
        <ele>315</ele>
        <time>2022-05-12T07:27:15.352Z</time>
      </trkpt>
      <trkpt lat="43.73854" lon="3.58644">
        <ele>315</ele>
        <time>2022-05-12T07:27:15.741Z</time>
      </trkpt>
      <trkpt lat="43.73856" lon="3.58643">
        <ele>315</ele>
        <time>2022-05-12T07:27:16.130Z</time>
      </trkpt>
      <trkpt lat="43.73858" lon="3.58642">
        <ele>315</ele>
        <time>2022-05-12T07:27:16.519Z</time>
      </trkpt>
      <trkpt lat="43.7386" lon="3.58641">
        <ele>315</ele>
        <time>2022-05-12T07:27:16.908Z</time>
      </trkpt>
      <trkpt lat="43.73863" lon="3.5864">
        <ele>315</ele>
        <time>2022-05-12T07:27:17.472Z</time>
      </trkpt>
      <trkpt lat="43.73865" lon="3.58639">
        <ele>315</ele>
        <time>2022-05-12T07:27:17.862Z</time>
      </trkpt>
      <trkpt lat="43.73867" lon="3.58638">
        <ele>315</ele>
        <time>2022-05-12T07:27:18.251Z</time>
      </trkpt>
      <trkpt lat="43.73869" lon="3.58636">
        <ele>315</ele>
        <time>2022-05-12T07:27:18.702Z</time>
      </trkpt>
      <trkpt lat="43.7387" lon="3.58635">
        <ele>315</ele>
        <time>2022-05-12T07:27:18.928Z</time>
      </trkpt>
      <trkpt lat="43.73872" lon="3.58633">
        <ele>315</ele>
        <time>2022-05-12T07:27:19.379Z</time>
      </trkpt>
      <trkpt lat="43.73874" lon="3.58631">
        <ele>315</ele>
        <time>2022-05-12T07:27:19.831Z</time>
      </trkpt>
      <trkpt lat="43.73875" lon="3.58629">
        <ele>315</ele>
        <time>2022-05-12T07:27:20.152Z</time>
      </trkpt>
      <trkpt lat="43.73877" lon="3.58628">
        <ele>315</ele>
        <time>2022-05-12T07:27:20.541Z</time>
      </trkpt>
      <trkpt lat="43.73879" lon="3.58624">
        <ele>315</ele>
        <time>2022-05-12T07:27:21.184Z</time>
      </trkpt>
      <trkpt lat="43.7388" lon="3.58623">
        <ele>315</ele>
        <time>2022-05-12T07:27:21.410Z</time>
      </trkpt>
      <trkpt lat="43.73882" lon="3.58621">
        <ele>315</ele>
        <time>2022-05-12T07:27:21.861Z</time>
      </trkpt>
      <trkpt lat="43.73884" lon="3.58617">
        <ele>316</ele>
        <time>2022-05-12T07:27:24.342Z</time>
      </trkpt>
      <trkpt lat="43.73886" lon="3.58615">
        <ele>316</ele>
        <time>2022-05-12T07:27:24.793Z</time>
      </trkpt>
      <trkpt lat="43.73889" lon="3.58613">
        <ele>316</ele>
        <time>2022-05-12T07:27:25.402Z</time>
      </trkpt>
      <trkpt lat="43.73893" lon="3.58612">
        <ele>316</ele>
        <time>2022-05-12T07:27:26.146Z</time>
      </trkpt>
      <trkpt lat="43.73894" lon="3.58611">
        <ele>316</ele>
        <time>2022-05-12T07:27:26.372Z</time>
      </trkpt>
      <trkpt lat="43.73896" lon="3.58609">
        <ele>316</ele>
        <time>2022-05-12T07:27:26.823Z</time>
      </trkpt>
      <trkpt lat="43.73898" lon="3.58607">
        <ele>316</ele>
        <time>2022-05-12T07:27:27.274Z</time>
      </trkpt>
      <trkpt lat="43.73899" lon="3.58605">
        <ele>316</ele>
        <time>2022-05-12T07:27:27.596Z</time>
      </trkpt>
      <trkpt lat="43.73901" lon="3.58603">
        <ele>316</ele>
        <time>2022-05-12T07:27:28.047Z</time>
      </trkpt>
      <trkpt lat="43.73902" lon="3.58601">
        <ele>316</ele>
        <time>2022-05-12T07:27:28.369Z</time>
      </trkpt>
      <trkpt lat="43.73903" lon="3.58599">
        <ele>316</ele>
        <time>2022-05-12T07:27:28.690Z</time>
      </trkpt>
      <trkpt lat="43.73904" lon="3.58597">
        <ele>316</ele>
        <time>2022-05-12T07:27:29.012Z</time>
      </trkpt>
      <trkpt lat="43.73906" lon="3.58595">
        <ele>316</ele>
        <time>2022-05-12T07:27:29.463Z</time>
      </trkpt>
      <trkpt lat="43.73908" lon="3.58593">
        <ele>316</ele>
        <time>2022-05-12T07:27:29.915Z</time>
      </trkpt>
      <trkpt lat="43.73909" lon="3.58592">
        <ele>316</ele>
        <time>2022-05-12T07:27:30.140Z</time>
      </trkpt>
      <trkpt lat="43.73911" lon="3.5859">
        <ele>316</ele>
        <time>2022-05-12T07:27:30.592Z</time>
      </trkpt>
      <trkpt lat="43.73913" lon="3.58589">
        <ele>317</ele>
        <time>2022-05-12T07:27:32.093Z</time>
      </trkpt>
      <trkpt lat="43.73915" lon="3.58588">
        <ele>317</ele>
        <time>2022-05-12T07:27:32.482Z</time>
      </trkpt>
      <trkpt lat="43.73917" lon="3.58587">
        <ele>317</ele>
        <time>2022-05-12T07:27:32.871Z</time>
      </trkpt>
      <trkpt lat="43.7392" lon="3.58586">
        <ele>317</ele>
        <time>2022-05-12T07:27:33.435Z</time>
      </trkpt>
      <trkpt lat="43.73922" lon="3.58585">
        <ele>317</ele>
        <time>2022-05-12T07:27:33.824Z</time>
      </trkpt>
      <trkpt lat="43.73924" lon="3.58584">
        <ele>317</ele>
        <time>2022-05-12T07:27:34.213Z</time>
      </trkpt>
      <trkpt lat="43.73927" lon="3.58583">
        <ele>317</ele>
        <time>2022-05-12T07:27:34.778Z</time>
      </trkpt>
      <trkpt lat="43.73929" lon="3.58582">
        <ele>317</ele>
        <time>2022-05-12T07:27:35.167Z</time>
      </trkpt>
      <trkpt lat="43.73933" lon="3.58581">
        <ele>317</ele>
        <time>2022-05-12T07:27:35.911Z</time>
      </trkpt>
      <trkpt lat="43.73936" lon="3.5858">
        <ele>317</ele>
        <time>2022-05-12T07:27:36.475Z</time>
      </trkpt>
      <trkpt lat="43.7394" lon="3.58578">
        <ele>317</ele>
        <time>2022-05-12T07:27:37.253Z</time>
      </trkpt>
      <trkpt lat="43.73944" lon="3.58577">
        <ele>317</ele>
        <time>2022-05-12T07:27:37.997Z</time>
      </trkpt>
      <trkpt lat="43.73949" lon="3.58575">
        <ele>317</ele>
        <time>2022-05-12T07:27:38.949Z</time>
      </trkpt>
      <trkpt lat="43.73953" lon="3.58573">
        <ele>317</ele>
        <time>2022-05-12T07:27:39.727Z</time>
      </trkpt>
      <trkpt lat="43.73957" lon="3.5857">
        <ele>317</ele>
        <time>2022-05-12T07:27:40.560Z</time>
      </trkpt>
      <trkpt lat="43.73962" lon="3.58568">
        <ele>317</ele>
        <time>2022-05-12T07:27:41.512Z</time>
      </trkpt>
      <trkpt lat="43.73966" lon="3.58567">
        <ele>317</ele>
        <time>2022-05-12T07:27:42.256Z</time>
      </trkpt>
      <trkpt lat="43.73971" lon="3.58566">
        <ele>317</ele>
        <time>2022-05-12T07:27:43.180Z</time>
      </trkpt>
      <trkpt lat="43.73976" lon="3.58565">
        <ele>317</ele>
        <time>2022-05-12T07:27:44.104Z</time>
      </trkpt>
      <trkpt lat="43.73981" lon="3.58564">
        <ele>317</ele>
        <time>2022-05-12T07:27:45.029Z</time>
      </trkpt>
      <trkpt lat="43.73987" lon="3.58563">
        <ele>317</ele>
        <time>2022-05-12T07:27:46.134Z</time>
      </trkpt>
      <trkpt lat="43.73992" lon="3.58562">
        <ele>317</ele>
        <time>2022-05-12T07:27:47.058Z</time>
      </trkpt>
      <trkpt lat="43.73998" lon="3.58561">
        <ele>317</ele>
        <time>2022-05-12T07:27:48.164Z</time>
      </trkpt>
      <trkpt lat="43.74003" lon="3.5856">
        <ele>317</ele>
        <time>2022-05-12T07:27:49.088Z</time>
      </trkpt>
      <trkpt lat="43.74008" lon="3.58559">
        <ele>317</ele>
        <time>2022-05-12T07:27:50.013Z</time>
      </trkpt>
      <trkpt lat="43.74012" lon="3.58557">
        <ele>317</ele>
        <time>2022-05-12T07:27:50.791Z</time>
      </trkpt>
      <trkpt lat="43.74017" lon="3.58555">
        <ele>317</ele>
        <time>2022-05-12T07:27:51.743Z</time>
      </trkpt>
      <trkpt lat="43.74021" lon="3.58554">
        <ele>317</ele>
        <time>2022-05-12T07:27:52.487Z</time>
      </trkpt>
      <trkpt lat="43.74025" lon="3.58553">
        <ele>317</ele>
        <time>2022-05-12T07:27:53.230Z</time>
      </trkpt>
      <trkpt lat="43.74029" lon="3.58551">
        <ele>317</ele>
        <time>2022-05-12T07:27:54.009Z</time>
      </trkpt>
      <trkpt lat="43.74033" lon="3.58548">
        <ele>316</ele>
        <time>2022-05-12T07:27:54.414Z</time>
      </trkpt>
      <trkpt lat="43.74036" lon="3.58545">
        <ele>316</ele>
        <time>2022-05-12T07:27:55.091Z</time>
      </trkpt>
      <trkpt lat="43.74039" lon="3.58542">
        <ele>316</ele>
        <time>2022-05-12T07:27:55.768Z</time>
      </trkpt>
      <trkpt lat="43.74041" lon="3.58539">
        <ele>316</ele>
        <time>2022-05-12T07:27:56.307Z</time>
      </trkpt>
      <trkpt lat="43.74042" lon="3.58536">
        <ele>316</ele>
        <time>2022-05-12T07:27:56.744Z</time>
      </trkpt>
      <trkpt lat="43.74043" lon="3.58533">
        <ele>316</ele>
        <time>2022-05-12T07:27:57.181Z</time>
      </trkpt>
      <trkpt lat="43.74043" lon="3.5853">
        <ele>316</ele>
        <time>2022-05-12T07:27:57.577Z</time>
      </trkpt>
      <trkpt lat="43.74043" lon="3.58527">
        <ele>316</ele>
        <time>2022-05-12T07:27:57.974Z</time>
      </trkpt>
      <trkpt lat="43.74043" lon="3.58524">
        <ele>316</ele>
        <time>2022-05-12T07:27:58.371Z</time>
      </trkpt>
      <trkpt lat="43.74042" lon="3.58522">
        <ele>316</ele>
        <time>2022-05-12T07:27:58.692Z</time>
      </trkpt>
      <trkpt lat="43.74041" lon="3.5852">
        <ele>317</ele>
        <time>2022-05-12T07:27:59.932Z</time>
      </trkpt>
      <trkpt lat="43.74041" lon="3.58517">
        <ele>317</ele>
        <time>2022-05-12T07:28:00.329Z</time>
      </trkpt>
      <trkpt lat="43.7404" lon="3.58513">
        <ele>317</ele>
        <time>2022-05-12T07:28:00.888Z</time>
      </trkpt>
      <trkpt lat="43.74038" lon="3.58509">
        <ele>317</ele>
        <time>2022-05-12T07:28:01.531Z</time>
      </trkpt>
      <trkpt lat="43.74037" lon="3.58505">
        <ele>317</ele>
        <time>2022-05-12T07:28:02.091Z</time>
      </trkpt>
      <trkpt lat="43.74037" lon="3.58501">
        <ele>317</ele>
        <time>2022-05-12T07:28:02.619Z</time>
      </trkpt>
      <trkpt lat="43.74036" lon="3.58496">
        <ele>320</ele>
        <time>2022-05-12T07:28:05.265Z</time>
      </trkpt>
      <trkpt lat="43.74035" lon="3.58492">
        <ele>320</ele>
        <time>2022-05-12T07:28:05.824Z</time>
      </trkpt>
      <trkpt lat="43.74035" lon="3.58488">
        <ele>320</ele>
        <time>2022-05-12T07:28:06.353Z</time>
      </trkpt>
      <trkpt lat="43.74034" lon="3.58484">
        <ele>320</ele>
        <time>2022-05-12T07:28:06.912Z</time>
      </trkpt>
      <trkpt lat="43.74033" lon="3.58479">
        <ele>320</ele>
        <time>2022-05-12T07:28:07.598Z</time>
      </trkpt>
      <trkpt lat="43.74033" lon="3.58475">
        <ele>323</ele>
        <time>2022-05-12T07:28:09.637Z</time>
      </trkpt>
      <trkpt lat="43.74033" lon="3.5847">
        <ele>323</ele>
        <time>2022-05-12T07:28:10.298Z</time>
      </trkpt>
      <trkpt lat="43.74034" lon="3.58466">
        <ele>323</ele>
        <time>2022-05-12T07:28:10.858Z</time>
      </trkpt>
      <trkpt lat="43.74035" lon="3.58462">
        <ele>323</ele>
        <time>2022-05-12T07:28:11.417Z</time>
      </trkpt>
      <trkpt lat="43.74035" lon="3.58457">
        <ele>323</ele>
        <time>2022-05-12T07:28:12.078Z</time>
      </trkpt>
      <trkpt lat="43.74035" lon="3.58452">
        <ele>324</ele>
        <time>2022-05-12T07:28:14.628Z</time>
      </trkpt>
      <trkpt lat="43.74035" lon="3.58448">
        <ele>324</ele>
        <time>2022-05-12T07:28:15.156Z</time>
      </trkpt>
      <trkpt lat="43.74033" lon="3.58444">
        <ele>324</ele>
        <time>2022-05-12T07:28:15.799Z</time>
      </trkpt>
      <trkpt lat="43.74032" lon="3.58441">
        <ele>324</ele>
        <time>2022-05-12T07:28:16.236Z</time>
      </trkpt>
      <trkpt lat="43.7403" lon="3.58438">
        <ele>324</ele>
        <time>2022-05-12T07:28:16.776Z</time>
      </trkpt>
      <trkpt lat="43.74028" lon="3.58435">
        <ele>326</ele>
        <time>2022-05-12T07:28:18.857Z</time>
      </trkpt>
      <trkpt lat="43.74025" lon="3.58433">
        <ele>326</ele>
        <time>2022-05-12T07:28:19.466Z</time>
      </trkpt>
      <trkpt lat="43.74024" lon="3.58429">
        <ele>326</ele>
        <time>2022-05-12T07:28:20.026Z</time>
      </trkpt>
      <trkpt lat="43.74023" lon="3.58425">
        <ele>326</ele>
        <time>2022-05-12T07:28:20.585Z</time>
      </trkpt>
      <trkpt lat="43.74022" lon="3.5842">
        <ele>326</ele>
        <time>2022-05-12T07:28:21.271Z</time>
      </trkpt>
      <trkpt lat="43.74021" lon="3.58416">
        <ele>327</ele>
        <time>2022-05-12T07:28:23.429Z</time>
      </trkpt>
      <trkpt lat="43.74021" lon="3.58411">
        <ele>327</ele>
        <time>2022-05-12T07:28:24.090Z</time>
      </trkpt>
      <trkpt lat="43.74021" lon="3.58406">
        <ele>327</ele>
        <time>2022-05-12T07:28:24.751Z</time>
      </trkpt>
      <trkpt lat="43.74021" lon="3.58404">
        <ele>327</ele>
        <time>2022-05-12T07:28:25.015Z</time>
      </trkpt>
      <trkpt lat="43.7402" lon="3.58401">
        <ele>327</ele>
        <time>2022-05-12T07:28:25.452Z</time>
      </trkpt>
      <trkpt lat="43.7402" lon="3.58399">
        <ele>327</ele>
        <time>2022-05-12T07:28:25.716Z</time>
      </trkpt>
      <trkpt lat="43.7402" lon="3.58396">
        <ele>327</ele>
        <time>2022-05-12T07:28:26.113Z</time>
      </trkpt>
      <trkpt lat="43.74019" lon="3.58392">
        <ele>328</ele>
        <time>2022-05-12T07:28:28.271Z</time>
      </trkpt>
      <trkpt lat="43.74018" lon="3.58389">
        <ele>328</ele>
        <time>2022-05-12T07:28:28.707Z</time>
      </trkpt>
      <trkpt lat="43.74017" lon="3.58387">
        <ele>328</ele>
        <time>2022-05-12T07:28:29.029Z</time>
      </trkpt>
      <trkpt lat="43.74016" lon="3.58385">
        <ele>328</ele>
        <time>2022-05-12T07:28:29.350Z</time>
      </trkpt>
      <trkpt lat="43.74015" lon="3.58382">
        <ele>328</ele>
        <time>2022-05-12T07:28:29.787Z</time>
      </trkpt>
      <trkpt lat="43.74014" lon="3.58379">
        <ele>328</ele>
        <time>2022-05-12T07:28:30.224Z</time>
      </trkpt>
      <trkpt lat="43.74014" lon="3.58377">
        <ele>328</ele>
        <time>2022-05-12T07:28:30.488Z</time>
      </trkpt>
      <trkpt lat="43.74013" lon="3.58374">
        <ele>328</ele>
        <time>2022-05-12T07:28:30.925Z</time>
      </trkpt>
      <trkpt lat="43.74013" lon="3.58372">
        <ele>328</ele>
        <time>2022-05-12T07:28:31.189Z</time>
      </trkpt>
      <trkpt lat="43.74012" lon="3.58369">
        <ele>330</ele>
        <time>2022-05-12T07:28:32.874Z</time>
      </trkpt>
      <trkpt lat="43.74012" lon="3.58367">
        <ele>330</ele>
        <time>2022-05-12T07:28:33.138Z</time>
      </trkpt>
      <trkpt lat="43.74011" lon="3.58365">
        <ele>330</ele>
        <time>2022-05-12T07:28:33.460Z</time>
      </trkpt>
      <trkpt lat="43.7401" lon="3.58362">
        <ele>330</ele>
        <time>2022-05-12T07:28:33.897Z</time>
      </trkpt>
      <trkpt lat="43.74009" lon="3.58359">
        <ele>330</ele>
        <time>2022-05-12T07:28:34.333Z</time>
      </trkpt>
      <trkpt lat="43.74008" lon="3.58357">
        <ele>330</ele>
        <time>2022-05-12T07:28:34.655Z</time>
      </trkpt>
      <trkpt lat="43.74007" lon="3.58355">
        <ele>330</ele>
        <time>2022-05-12T07:28:34.976Z</time>
      </trkpt>
      <trkpt lat="43.74006" lon="3.58352">
        <ele>330</ele>
        <time>2022-05-12T07:28:35.413Z</time>
      </trkpt>
      <trkpt lat="43.74005" lon="3.5835">
        <ele>330</ele>
        <time>2022-05-12T07:28:35.734Z</time>
      </trkpt>
      <trkpt lat="43.74003" lon="3.58348">
        <ele>330</ele>
        <time>2022-05-12T07:28:36.186Z</time>
      </trkpt>
      <trkpt lat="43.74002" lon="3.58346">
        <ele>331</ele>
        <time>2022-05-12T07:28:37.426Z</time>
      </trkpt>
      <trkpt lat="43.74001" lon="3.58343">
        <ele>331</ele>
        <time>2022-05-12T07:28:37.863Z</time>
      </trkpt>
      <trkpt lat="43.74" lon="3.58341">
        <ele>331</ele>
        <time>2022-05-12T07:28:38.184Z</time>
      </trkpt>
      <trkpt lat="43.73998" lon="3.58339">
        <ele>331</ele>
        <time>2022-05-12T07:28:38.636Z</time>
      </trkpt>
      <trkpt lat="43.73997" lon="3.58337">
        <ele>331</ele>
        <time>2022-05-12T07:28:38.957Z</time>
      </trkpt>
      <trkpt lat="43.73996" lon="3.58335">
        <ele>331</ele>
        <time>2022-05-12T07:28:39.279Z</time>
      </trkpt>
      <trkpt lat="43.73995" lon="3.58333">
        <ele>331</ele>
        <time>2022-05-12T07:28:39.600Z</time>
      </trkpt>
      <trkpt lat="43.73993" lon="3.58331">
        <ele>331</ele>
        <time>2022-05-12T07:28:40.052Z</time>
      </trkpt>
      <trkpt lat="43.73992" lon="3.58329">
        <ele>331</ele>
        <time>2022-05-12T07:28:40.373Z</time>
      </trkpt>
      <trkpt lat="43.7399" lon="3.58328">
        <ele>331</ele>
        <time>2022-05-12T07:28:40.762Z</time>
      </trkpt>
      <trkpt lat="43.73988" lon="3.58326">
        <ele>332</ele>
        <time>2022-05-12T07:28:42.503Z</time>
      </trkpt>
      <trkpt lat="43.73987" lon="3.58324">
        <ele>332</ele>
        <time>2022-05-12T07:28:42.825Z</time>
      </trkpt>
      <trkpt lat="43.73985" lon="3.58323">
        <ele>332</ele>
        <time>2022-05-12T07:28:43.214Z</time>
      </trkpt>
      <trkpt lat="43.73984" lon="3.58321">
        <ele>332</ele>
        <time>2022-05-12T07:28:43.535Z</time>
      </trkpt>
      <trkpt lat="43.73982" lon="3.5832">
        <ele>332</ele>
        <time>2022-05-12T07:28:43.924Z</time>
      </trkpt>
      <trkpt lat="43.7398" lon="3.58318">
        <ele>332</ele>
        <time>2022-05-12T07:28:44.376Z</time>
      </trkpt>
      <trkpt lat="43.73979" lon="3.58316">
        <ele>332</ele>
        <time>2022-05-12T07:28:44.697Z</time>
      </trkpt>
      <trkpt lat="43.73977" lon="3.58315">
        <ele>332</ele>
        <time>2022-05-12T07:28:45.086Z</time>
      </trkpt>
      <trkpt lat="43.73975" lon="3.58313">
        <ele>332</ele>
        <time>2022-05-12T07:28:45.538Z</time>
      </trkpt>
      <trkpt lat="43.73973" lon="3.58311">
        <ele>332</ele>
        <time>2022-05-12T07:28:45.989Z</time>
      </trkpt>
      <trkpt lat="43.73971" lon="3.58309">
        <ele>333</ele>
        <time>2022-05-12T07:28:47.731Z</time>
      </trkpt>
      <trkpt lat="43.73969" lon="3.58307">
        <ele>333</ele>
        <time>2022-05-12T07:28:48.182Z</time>
      </trkpt>
      <trkpt lat="43.73968" lon="3.58305">
        <ele>333</ele>
        <time>2022-05-12T07:28:48.503Z</time>
      </trkpt>
      <trkpt lat="43.73967" lon="3.58303">
        <ele>333</ele>
        <time>2022-05-12T07:28:48.825Z</time>
      </trkpt>
      <trkpt lat="43.73965" lon="3.583">
        <ele>333</ele>
        <time>2022-05-12T07:28:49.365Z</time>
      </trkpt>
      <trkpt lat="43.73964" lon="3.58298">
        <ele>333</ele>
        <time>2022-05-12T07:28:49.686Z</time>
      </trkpt>
      <trkpt lat="43.73963" lon="3.58295">
        <ele>333</ele>
        <time>2022-05-12T07:28:50.123Z</time>
      </trkpt>
      <trkpt lat="43.73961" lon="3.58292">
        <ele>333</ele>
        <time>2022-05-12T07:28:50.662Z</time>
      </trkpt>
      <trkpt lat="43.7396" lon="3.58289">
        <ele>333</ele>
        <time>2022-05-12T07:28:51.099Z</time>
      </trkpt>
      <trkpt lat="43.73959" lon="3.58285">
        <ele>333</ele>
        <time>2022-05-12T07:28:51.659Z</time>
      </trkpt>
      <trkpt lat="43.73958" lon="3.58282">
        <ele>333</ele>
        <time>2022-05-12T07:28:52.095Z</time>
      </trkpt>
      <trkpt lat="43.73957" lon="3.58278">
        <ele>333</ele>
        <time>2022-05-12T07:28:52.655Z</time>
      </trkpt>
      <trkpt lat="43.73955" lon="3.58275">
        <ele>333</ele>
        <time>2022-05-12T07:28:53.194Z</time>
      </trkpt>
      <trkpt lat="43.73954" lon="3.58273">
        <ele>333</ele>
        <time>2022-05-12T07:28:53.516Z</time>
      </trkpt>
      <trkpt lat="43.73953" lon="3.5827">
        <ele>333</ele>
        <time>2022-05-12T07:28:53.953Z</time>
      </trkpt>
      <trkpt lat="43.73952" lon="3.58268">
        <ele>333</ele>
        <time>2022-05-12T07:28:54.274Z</time>
      </trkpt>
      <trkpt lat="43.73951" lon="3.58265">
        <ele>333</ele>
        <time>2022-05-12T07:28:54.711Z</time>
      </trkpt>
      <trkpt lat="43.7395" lon="3.58262">
        <ele>333</ele>
        <time>2022-05-12T07:28:55.148Z</time>
      </trkpt>
      <trkpt lat="43.73949" lon="3.5826">
        <ele>333</ele>
        <time>2022-05-12T07:28:55.469Z</time>
      </trkpt>
      <trkpt lat="43.73948" lon="3.58257">
        <ele>333</ele>
        <time>2022-05-12T07:28:55.906Z</time>
      </trkpt>
      <trkpt lat="43.73947" lon="3.58255">
        <ele>334</ele>
        <time>2022-05-12T07:28:57.146Z</time>
      </trkpt>
      <trkpt lat="43.73945" lon="3.58252">
        <ele>334</ele>
        <time>2022-05-12T07:28:57.686Z</time>
      </trkpt>
      <trkpt lat="43.73944" lon="3.5825">
        <ele>334</ele>
        <time>2022-05-12T07:28:58.007Z</time>
      </trkpt>
      <trkpt lat="43.73943" lon="3.58247">
        <ele>334</ele>
        <time>2022-05-12T07:28:58.444Z</time>
      </trkpt>
      <trkpt lat="43.73941" lon="3.58245">
        <ele>334</ele>
        <time>2022-05-12T07:28:58.895Z</time>
      </trkpt>
      <trkpt lat="43.7394" lon="3.58242">
        <ele>334</ele>
        <time>2022-05-12T07:28:59.332Z</time>
      </trkpt>
      <trkpt lat="43.73938" lon="3.58239">
        <ele>334</ele>
        <time>2022-05-12T07:28:59.872Z</time>
      </trkpt>
      <trkpt lat="43.73937" lon="3.58236">
        <ele>334</ele>
        <time>2022-05-12T07:29:00.308Z</time>
      </trkpt>
      <trkpt lat="43.73935" lon="3.58233">
        <ele>334</ele>
        <time>2022-05-12T07:29:00.848Z</time>
      </trkpt>
      <trkpt lat="43.73934" lon="3.58229">
        <ele>334</ele>
        <time>2022-05-12T07:29:01.407Z</time>
      </trkpt>
      <trkpt lat="43.73932" lon="3.58225">
        <ele>334</ele>
        <time>2022-05-12T07:29:02.050Z</time>
      </trkpt>
      <trkpt lat="43.7393" lon="3.58221">
        <ele>334</ele>
        <time>2022-05-12T07:29:02.693Z</time>
      </trkpt>
      <trkpt lat="43.73928" lon="3.58217">
        <ele>334</ele>
        <time>2022-05-12T07:29:03.336Z</time>
      </trkpt>
      <trkpt lat="43.73924" lon="3.58214">
        <ele>334</ele>
        <time>2022-05-12T07:29:04.169Z</time>
      </trkpt>
      <trkpt lat="43.73921" lon="3.5821">
        <ele>334</ele>
        <time>2022-05-12T07:29:04.931Z</time>
      </trkpt>
      <trkpt lat="43.73918" lon="3.58205">
        <ele>334</ele>
        <time>2022-05-12T07:29:05.790Z</time>
      </trkpt>
      <trkpt lat="43.73915" lon="3.582">
        <ele>334</ele>
        <time>2022-05-12T07:29:06.649Z</time>
      </trkpt>
      <trkpt lat="43.73912" lon="3.58195">
        <ele>334</ele>
        <time>2022-05-12T07:29:07.508Z</time>
      </trkpt>
      <trkpt lat="43.7391" lon="3.58189">
        <ele>334</ele>
        <time>2022-05-12T07:29:08.382Z</time>
      </trkpt>
      <trkpt lat="43.73907" lon="3.58182">
        <ele>334</ele>
        <time>2022-05-12T07:29:09.458Z</time>
      </trkpt>
      <trkpt lat="43.73905" lon="3.58176">
        <ele>334</ele>
        <time>2022-05-12T07:29:10.331Z</time>
      </trkpt>
      <trkpt lat="43.73902" lon="3.5817">
        <ele>334</ele>
        <time>2022-05-12T07:29:11.296Z</time>
      </trkpt>
      <trkpt lat="43.73899" lon="3.58164">
        <ele>334</ele>
        <time>2022-05-12T07:29:12.260Z</time>
      </trkpt>
      <trkpt lat="43.73899" lon="3.58157">
        <ele>334</ele>
        <time>2022-05-12T07:29:13.185Z</time>
      </trkpt>
      <trkpt lat="43.739" lon="3.58151">
        <ele>334</ele>
        <time>2022-05-12T07:29:13.999Z</time>
      </trkpt>
      <trkpt lat="43.73902" lon="3.58144">
        <ele>334</ele>
        <time>2022-05-12T07:29:14.994Z</time>
      </trkpt>
      <trkpt lat="43.73903" lon="3.58138">
        <ele>334</ele>
        <time>2022-05-12T07:29:15.808Z</time>
      </trkpt>
      <trkpt lat="43.73904" lon="3.58133">
        <ele>334</ele>
        <time>2022-05-12T07:29:16.494Z</time>
      </trkpt>
      <trkpt lat="43.73906" lon="3.58131">
        <ele>334</ele>
        <time>2022-05-12T07:29:16.945Z</time>
      </trkpt>
      <trkpt lat="43.73908" lon="3.58129">
        <ele>334</ele>
        <time>2022-05-12T07:29:17.397Z</time>
      </trkpt>
      <trkpt lat="43.7391" lon="3.58128">
        <ele>334</ele>
        <time>2022-05-12T07:29:17.786Z</time>
      </trkpt>
      <trkpt lat="43.73911" lon="3.58125">
        <ele>331</ele>
        <time>2022-05-12T07:29:17.998Z</time>
      </trkpt>
      <trkpt lat="43.73913" lon="3.58122">
        <ele>331</ele>
        <time>2022-05-12T07:29:18.538Z</time>
      </trkpt>
      <trkpt lat="43.73915" lon="3.58119">
        <ele>331</ele>
        <time>2022-05-12T07:29:19.078Z</time>
      </trkpt>
      <trkpt lat="43.73918" lon="3.58118">
        <ele>331</ele>
        <time>2022-05-12T07:29:19.642Z</time>
      </trkpt>
      <trkpt lat="43.7392" lon="3.58116">
        <ele>331</ele>
        <time>2022-05-12T07:29:20.094Z</time>
      </trkpt>
      <trkpt lat="43.73923" lon="3.58114">
        <ele>331</ele>
        <time>2022-05-12T07:29:20.703Z</time>
      </trkpt>
      <trkpt lat="43.73924" lon="3.5811">
        <ele>331</ele>
        <time>2022-05-12T07:29:21.262Z</time>
      </trkpt>
      <trkpt lat="43.73925" lon="3.58105">
        <ele>331</ele>
        <time>2022-05-12T07:29:21.948Z</time>
      </trkpt>
      <trkpt lat="43.73924" lon="3.581">
        <ele>331</ele>
        <time>2022-05-12T07:29:22.634Z</time>
      </trkpt>
      <trkpt lat="43.73922" lon="3.58096">
        <ele>329</ele>
        <time>2022-05-12T07:29:22.947Z</time>
      </trkpt>
      <trkpt lat="43.7392" lon="3.58093">
        <ele>329</ele>
        <time>2022-05-12T07:29:23.486Z</time>
      </trkpt>
      <trkpt lat="43.73918" lon="3.5809">
        <ele>329</ele>
        <time>2022-05-12T07:29:24.026Z</time>
      </trkpt>
      <trkpt lat="43.73917" lon="3.58086">
        <ele>329</ele>
        <time>2022-05-12T07:29:24.586Z</time>
      </trkpt>
      <trkpt lat="43.73917" lon="3.58081">
        <ele>329</ele>
        <time>2022-05-12T07:29:25.246Z</time>
      </trkpt>
      <trkpt lat="43.73919" lon="3.58076">
        <ele>329</ele>
        <time>2022-05-12T07:29:26.002Z</time>
      </trkpt>
      <trkpt lat="43.73921" lon="3.58071">
        <ele>329</ele>
        <time>2022-05-12T07:29:26.757Z</time>
      </trkpt>
      <trkpt lat="43.73924" lon="3.58066">
        <ele>329</ele>
        <time>2022-05-12T07:29:27.617Z</time>
      </trkpt>
      <trkpt lat="43.73926" lon="3.58061">
        <ele>329</ele>
        <time>2022-05-12T07:29:28.372Z</time>
      </trkpt>
      <trkpt lat="43.73928" lon="3.58057">
        <ele>329</ele>
        <time>2022-05-12T07:29:29.015Z</time>
      </trkpt>
      <trkpt lat="43.73931" lon="3.58054">
        <ele>327</ele>
        <time>2022-05-12T07:29:29.344Z</time>
      </trkpt>
      <trkpt lat="43.73934" lon="3.58051">
        <ele>327</ele>
        <time>2022-05-12T07:29:30.022Z</time>
      </trkpt>
      <trkpt lat="43.73938" lon="3.58048">
        <ele>327</ele>
        <time>2022-05-12T07:29:30.854Z</time>
      </trkpt>
      <trkpt lat="43.73942" lon="3.58045">
        <ele>327</ele>
        <time>2022-05-12T07:29:31.686Z</time>
      </trkpt>
      <trkpt lat="43.73946" lon="3.58042">
        <ele>327</ele>
        <time>2022-05-12T07:29:32.519Z</time>
      </trkpt>
      <trkpt lat="43.73949" lon="3.58039">
        <ele>327</ele>
        <time>2022-05-12T07:29:33.196Z</time>
      </trkpt>
      <trkpt lat="43.73952" lon="3.58035">
        <ele>327</ele>
        <time>2022-05-12T07:29:33.958Z</time>
      </trkpt>
      <trkpt lat="43.73952" lon="3.58031">
        <ele>327</ele>
        <time>2022-05-12T07:29:34.487Z</time>
      </trkpt>
      <trkpt lat="43.73952" lon="3.58027">
        <ele>327</ele>
        <time>2022-05-12T07:29:35.015Z</time>
      </trkpt>
      <trkpt lat="43.7395" lon="3.58024">
        <ele>327</ele>
        <time>2022-05-12T07:29:35.555Z</time>
      </trkpt>
      <trkpt lat="43.73947" lon="3.5802">
        <ele>324</ele>
        <time>2022-05-12T07:29:35.926Z</time>
      </trkpt>
      <trkpt lat="43.73945" lon="3.58016">
        <ele>324</ele>
        <time>2022-05-12T07:29:36.569Z</time>
      </trkpt>
      <trkpt lat="43.73943" lon="3.58011">
        <ele>324</ele>
        <time>2022-05-12T07:29:37.324Z</time>
      </trkpt>
      <trkpt lat="43.73941" lon="3.58007">
        <ele>324</ele>
        <time>2022-05-12T07:29:37.967Z</time>
      </trkpt>
      <trkpt lat="43.7394" lon="3.58002">
        <ele>324</ele>
        <time>2022-05-12T07:29:38.653Z</time>
      </trkpt>
      <trkpt lat="43.73938" lon="3.57998">
        <ele>324</ele>
        <time>2022-05-12T07:29:39.296Z</time>
      </trkpt>
      <trkpt lat="43.73936" lon="3.57994">
        <ele>324</ele>
        <time>2022-05-12T07:29:39.939Z</time>
      </trkpt>
      <trkpt lat="43.73934" lon="3.57989">
        <ele>324</ele>
        <time>2022-05-12T07:29:40.695Z</time>
      </trkpt>
      <trkpt lat="43.73933" lon="3.57983">
        <ele>324</ele>
        <time>2022-05-12T07:29:41.509Z</time>
      </trkpt>
      <trkpt lat="43.73932" lon="3.57977">
        <ele>324</ele>
        <time>2022-05-12T07:29:42.323Z</time>
      </trkpt>
      <trkpt lat="43.73931" lon="3.57972">
        <ele>319</ele>
        <time>2022-05-12T07:29:42.656Z</time>
      </trkpt>
      <trkpt lat="43.7393" lon="3.57969">
        <ele>319</ele>
        <time>2022-05-12T07:29:43.093Z</time>
      </trkpt>
      <trkpt lat="43.73928" lon="3.57967">
        <ele>319</ele>
        <time>2022-05-12T07:29:43.544Z</time>
      </trkpt>
      <trkpt lat="43.73925" lon="3.57965">
        <ele>319</ele>
        <time>2022-05-12T07:29:44.154Z</time>
      </trkpt>
      <trkpt lat="43.73923" lon="3.57965">
        <ele>319</ele>
        <time>2022-05-12T07:29:44.520Z</time>
      </trkpt>
      <trkpt lat="43.73921" lon="3.57962">
        <ele>319</ele>
        <time>2022-05-12T07:29:45.059Z</time>
      </trkpt>
      <trkpt lat="43.7392" lon="3.57959">
        <ele>319</ele>
        <time>2022-05-12T07:29:45.496Z</time>
      </trkpt>
      <trkpt lat="43.73919" lon="3.57955">
        <ele>316</ele>
        <time>2022-05-12T07:29:45.768Z</time>
      </trkpt>
      <trkpt lat="43.73918" lon="3.5795">
        <ele>316</ele>
        <time>2022-05-12T07:29:46.454Z</time>
      </trkpt>
      <trkpt lat="43.73916" lon="3.57944">
        <ele>316</ele>
        <time>2022-05-12T07:29:47.327Z</time>
      </trkpt>
      <trkpt lat="43.73914" lon="3.57938">
        <ele>316</ele>
        <time>2022-05-12T07:29:48.201Z</time>
      </trkpt>
      <trkpt lat="43.73912" lon="3.57931">
        <ele>316</ele>
        <time>2022-05-12T07:29:49.196Z</time>
      </trkpt>
      <trkpt lat="43.7391" lon="3.57926">
        <ele>316</ele>
        <time>2022-05-12T07:29:49.951Z</time>
      </trkpt>
      <trkpt lat="43.73907" lon="3.57922">
        <ele>316</ele>
        <time>2022-05-12T07:29:50.713Z</time>
      </trkpt>
      <trkpt lat="43.73906" lon="3.57917">
        <ele>316</ele>
        <time>2022-05-12T07:29:51.399Z</time>
      </trkpt>
      <trkpt lat="43.73905" lon="3.57912">
        <ele>316</ele>
        <time>2022-05-12T07:29:52.085Z</time>
      </trkpt>
      <trkpt lat="43.73904" lon="3.57908">
        <ele>316</ele>
        <time>2022-05-12T07:29:52.645Z</time>
      </trkpt>
      <trkpt lat="43.73903" lon="3.57905">
        <ele>313</ele>
        <time>2022-05-12T07:29:52.857Z</time>
      </trkpt>
      <trkpt lat="43.73901" lon="3.579">
        <ele>313</ele>
        <time>2022-05-12T07:29:53.613Z</time>
      </trkpt>
      <trkpt lat="43.73899" lon="3.57896">
        <ele>313</ele>
        <time>2022-05-12T07:29:54.256Z</time>
      </trkpt>
      <trkpt lat="43.73898" lon="3.57892">
        <ele>313</ele>
        <time>2022-05-12T07:29:54.815Z</time>
      </trkpt>
      <trkpt lat="43.73897" lon="3.57888">
        <ele>313</ele>
        <time>2022-05-12T07:29:55.375Z</time>
      </trkpt>
      <trkpt lat="43.73896" lon="3.57885">
        <ele>313</ele>
        <time>2022-05-12T07:29:55.811Z</time>
      </trkpt>
      <trkpt lat="43.73895" lon="3.57881">
        <ele>313</ele>
        <time>2022-05-12T07:29:56.371Z</time>
      </trkpt>
      <trkpt lat="43.73895" lon="3.57877">
        <ele>313</ele>
        <time>2022-05-12T07:29:56.900Z</time>
      </trkpt>
      <trkpt lat="43.73894" lon="3.57874">
        <ele>310</ele>
        <time>2022-05-12T07:29:57.112Z</time>
      </trkpt>
      <trkpt lat="43.73893" lon="3.57872">
        <ele>310</ele>
        <time>2022-05-12T07:29:57.434Z</time>
      </trkpt>
      <trkpt lat="43.73892" lon="3.5787">
        <ele>310</ele>
        <time>2022-05-12T07:29:57.755Z</time>
      </trkpt>
      <trkpt lat="43.7389" lon="3.57867">
        <ele>310</ele>
        <time>2022-05-12T07:29:58.295Z</time>
      </trkpt>
      <trkpt lat="43.73889" lon="3.57864">
        <ele>307</ele>
        <time>2022-05-12T07:29:58.507Z</time>
      </trkpt>
      <trkpt lat="43.7389" lon="3.5786">
        <ele>307</ele>
        <time>2022-05-12T07:29:59.067Z</time>
      </trkpt>
      <trkpt lat="43.73889" lon="3.57857">
        <ele>307</ele>
        <time>2022-05-12T07:29:59.503Z</time>
      </trkpt>
      <trkpt lat="43.73888" lon="3.57854">
        <ele>307</ele>
        <time>2022-05-12T07:29:59.940Z</time>
      </trkpt>
      <trkpt lat="43.73887" lon="3.57851">
        <ele>307</ele>
        <time>2022-05-12T07:30:00.377Z</time>
      </trkpt>
      <trkpt lat="43.73887" lon="3.57848">
        <ele>307</ele>
        <time>2022-05-12T07:30:00.773Z</time>
      </trkpt>
      <trkpt lat="43.73886" lon="3.57845">
        <ele>307</ele>
        <time>2022-05-12T07:30:01.210Z</time>
      </trkpt>
      <trkpt lat="43.73886" lon="3.57841">
        <ele>307</ele>
        <time>2022-05-12T07:30:01.739Z</time>
      </trkpt>
      <trkpt lat="43.73885" lon="3.57838">
        <ele>307</ele>
        <time>2022-05-12T07:30:02.176Z</time>
      </trkpt>
      <trkpt lat="43.73884" lon="3.57834">
        <ele>306</ele>
        <time>2022-05-12T07:30:02.448Z</time>
      </trkpt>
      <trkpt lat="43.73883" lon="3.57831">
        <ele>306</ele>
        <time>2022-05-12T07:30:02.885Z</time>
      </trkpt>
      <trkpt lat="43.73881" lon="3.57828">
        <ele>306</ele>
        <time>2022-05-12T07:30:03.424Z</time>
      </trkpt>
      <trkpt lat="43.73879" lon="3.57825">
        <ele>306</ele>
        <time>2022-05-12T07:30:03.964Z</time>
      </trkpt>
      <trkpt lat="43.73877" lon="3.57821">
        <ele>306</ele>
        <time>2022-05-12T07:30:04.607Z</time>
      </trkpt>
      <trkpt lat="43.73875" lon="3.57817">
        <ele>306</ele>
        <time>2022-05-12T07:30:05.250Z</time>
      </trkpt>
      <trkpt lat="43.73874" lon="3.57812">
        <ele>306</ele>
        <time>2022-05-12T07:30:05.936Z</time>
      </trkpt>
      <trkpt lat="43.73872" lon="3.57807">
        <ele>306</ele>
        <time>2022-05-12T07:30:06.691Z</time>
      </trkpt>
      <trkpt lat="43.73869" lon="3.57801">
        <ele>306</ele>
        <time>2022-05-12T07:30:07.656Z</time>
      </trkpt>
      <trkpt lat="43.73865" lon="3.57796">
        <ele>306</ele>
        <time>2022-05-12T07:30:08.642Z</time>
      </trkpt>
      <trkpt lat="43.73861" lon="3.57791">
        <ele>304</ele>
        <time>2022-05-12T07:30:09.122Z</time>
      </trkpt>
      <trkpt lat="43.73857" lon="3.57788">
        <ele>304</ele>
        <time>2022-05-12T07:30:09.954Z</time>
      </trkpt>
      <trkpt lat="43.73853" lon="3.57785">
        <ele>304</ele>
        <time>2022-05-12T07:30:10.786Z</time>
      </trkpt>
      <trkpt lat="43.73849" lon="3.57782">
        <ele>304</ele>
        <time>2022-05-12T07:30:11.619Z</time>
      </trkpt>
      <trkpt lat="43.73845" lon="3.57779">
        <ele>304</ele>
        <time>2022-05-12T07:30:12.451Z</time>
      </trkpt>
      <trkpt lat="43.73841" lon="3.57776">
        <ele>304</ele>
        <time>2022-05-12T07:30:13.283Z</time>
      </trkpt>
      <trkpt lat="43.73837" lon="3.57773">
        <ele>304</ele>
        <time>2022-05-12T07:30:14.116Z</time>
      </trkpt>
      <trkpt lat="43.73834" lon="3.57771">
        <ele>304</ele>
        <time>2022-05-12T07:30:14.725Z</time>
      </trkpt>
      <trkpt lat="43.7383" lon="3.57769">
        <ele>304</ele>
        <time>2022-05-12T07:30:15.503Z</time>
      </trkpt>
      <trkpt lat="43.73827" lon="3.57766">
        <ele>304</ele>
        <time>2022-05-12T07:30:16.180Z</time>
      </trkpt>
      <trkpt lat="43.73822" lon="3.57763">
        <ele>301</ele>
        <time>2022-05-12T07:30:16.665Z</time>
      </trkpt>
      <trkpt lat="43.73818" lon="3.57761">
        <ele>301</ele>
        <time>2022-05-12T07:30:17.444Z</time>
      </trkpt>
      <trkpt lat="43.73815" lon="3.57759">
        <ele>301</ele>
        <time>2022-05-12T07:30:18.053Z</time>
      </trkpt>
      <trkpt lat="43.73812" lon="3.57759">
        <ele>301</ele>
        <time>2022-05-12T07:30:18.602Z</time>
      </trkpt>
      <trkpt lat="43.7381" lon="3.57757">
        <ele>301</ele>
        <time>2022-05-12T07:30:19.053Z</time>
      </trkpt>
      <trkpt lat="43.73808" lon="3.57755">
        <ele>301</ele>
        <time>2022-05-12T07:30:19.505Z</time>
      </trkpt>
      <trkpt lat="43.73807" lon="3.57753">
        <ele>301</ele>
        <time>2022-05-12T07:30:19.826Z</time>
      </trkpt>
      <trkpt lat="43.73806" lon="3.57749">
        <ele>301</ele>
        <time>2022-05-12T07:30:20.386Z</time>
      </trkpt>
      <trkpt lat="43.73805" lon="3.57745">
        <ele>301</ele>
        <time>2022-05-12T07:30:20.945Z</time>
      </trkpt>
      <trkpt lat="43.73805" lon="3.5774">
        <ele>301</ele>
        <time>2022-05-12T07:30:21.606Z</time>
      </trkpt>
      <trkpt lat="43.73805" lon="3.57735">
        <ele>300</ele>
        <time>2022-05-12T07:30:21.928Z</time>
      </trkpt>
      <trkpt lat="43.73804" lon="3.5773">
        <ele>300</ele>
        <time>2022-05-12T07:30:22.613Z</time>
      </trkpt>
      <trkpt lat="43.73803" lon="3.57725">
        <ele>300</ele>
        <time>2022-05-12T07:30:23.299Z</time>
      </trkpt>
      <trkpt lat="43.73802" lon="3.57722">
        <ele>300</ele>
        <time>2022-05-12T07:30:23.736Z</time>
      </trkpt>
      <trkpt lat="43.73802" lon="3.57718">
        <ele>300</ele>
        <time>2022-05-12T07:30:24.265Z</time>
      </trkpt>
      <trkpt lat="43.73801" lon="3.57715">
        <ele>300</ele>
        <time>2022-05-12T07:30:24.701Z</time>
      </trkpt>
      <trkpt lat="43.738" lon="3.57712">
        <ele>300</ele>
        <time>2022-05-12T07:30:25.138Z</time>
      </trkpt>
      <trkpt lat="43.73799" lon="3.57709">
        <ele>300</ele>
        <time>2022-05-12T07:30:25.575Z</time>
      </trkpt>
      <trkpt lat="43.73797" lon="3.57707">
        <ele>300</ele>
        <time>2022-05-12T07:30:26.026Z</time>
      </trkpt>
      <trkpt lat="43.73795" lon="3.57705">
        <ele>300</ele>
        <time>2022-05-12T07:30:26.478Z</time>
      </trkpt>
      <trkpt lat="43.73793" lon="3.57703">
        <ele>299</ele>
        <time>2022-05-12T07:30:26.697Z</time>
      </trkpt>
      <trkpt lat="43.73791" lon="3.57702">
        <ele>299</ele>
        <time>2022-05-12T07:30:27.087Z</time>
      </trkpt>
      <trkpt lat="43.7379" lon="3.577">
        <ele>299</ele>
        <time>2022-05-12T07:30:27.408Z</time>
      </trkpt>
      <trkpt lat="43.73785" lon="3.57697">
        <ele>299</ele>
        <time>2022-05-12T07:30:28.405Z</time>
      </trkpt>
      <trkpt lat="43.73783" lon="3.57695">
        <ele>299</ele>
        <time>2022-05-12T07:30:28.857Z</time>
      </trkpt>
      <trkpt lat="43.73781" lon="3.57694">
        <ele>299</ele>
        <time>2022-05-12T07:30:29.246Z</time>
      </trkpt>
      <trkpt lat="43.73778" lon="3.57693">
        <ele>299</ele>
        <time>2022-05-12T07:30:29.810Z</time>
      </trkpt>
      <trkpt lat="43.73776" lon="3.57692">
        <ele>299</ele>
        <time>2022-05-12T07:30:30.199Z</time>
      </trkpt>
      <trkpt lat="43.73774" lon="3.5769">
        <ele>299</ele>
        <time>2022-05-12T07:30:30.651Z</time>
      </trkpt>
      <trkpt lat="43.73772" lon="3.57687">
        <ele>300</ele>
        <time>2022-05-12T07:30:32.732Z</time>
      </trkpt>
      <trkpt lat="43.73771" lon="3.57684">
        <ele>300</ele>
        <time>2022-05-12T07:30:33.169Z</time>
      </trkpt>
      <trkpt lat="43.73768" lon="3.57681">
        <ele>300</ele>
        <time>2022-05-12T07:30:33.846Z</time>
      </trkpt>
      <trkpt lat="43.73765" lon="3.57678">
        <ele>300</ele>
        <time>2022-05-12T07:30:34.523Z</time>
      </trkpt>
      <trkpt lat="43.73762" lon="3.57676">
        <ele>300</ele>
        <time>2022-05-12T07:30:35.132Z</time>
      </trkpt>
      <trkpt lat="43.73758" lon="3.57672">
        <ele>300</ele>
        <time>2022-05-12T07:30:36.035Z</time>
      </trkpt>
      <trkpt lat="43.73754" lon="3.57668">
        <ele>300</ele>
        <time>2022-05-12T07:30:36.938Z</time>
      </trkpt>
      <trkpt lat="43.7375" lon="3.57665">
        <ele>300</ele>
        <time>2022-05-12T07:30:37.770Z</time>
      </trkpt>
      <trkpt lat="43.73746" lon="3.57663">
        <ele>300</ele>
        <time>2022-05-12T07:30:38.548Z</time>
      </trkpt>
      <trkpt lat="43.73742" lon="3.57661">
        <ele>300</ele>
        <time>2022-05-12T07:30:39.327Z</time>
      </trkpt>
      <trkpt lat="43.73738" lon="3.57661">
        <ele>298</ele>
        <time>2022-05-12T07:30:39.683Z</time>
      </trkpt>
      <trkpt lat="43.73734" lon="3.57661">
        <ele>298</ele>
        <time>2022-05-12T07:30:40.415Z</time>
      </trkpt>
      <trkpt lat="43.73731" lon="3.57662">
        <ele>298</ele>
        <time>2022-05-12T07:30:40.979Z</time>
      </trkpt>
      <trkpt lat="43.73727" lon="3.57663">
        <ele>298</ele>
        <time>2022-05-12T07:30:41.723Z</time>
      </trkpt>
      <trkpt lat="43.73724" lon="3.57664">
        <ele>298</ele>
        <time>2022-05-12T07:30:42.287Z</time>
      </trkpt>
      <trkpt lat="43.73722" lon="3.57665">
        <ele>298</ele>
        <time>2022-05-12T07:30:42.676Z</time>
      </trkpt>
      <trkpt lat="43.73719" lon="3.57666">
        <ele>298</ele>
        <time>2022-05-12T07:30:43.241Z</time>
      </trkpt>
      <trkpt lat="43.73716" lon="3.57666">
        <ele>298</ele>
        <time>2022-05-12T07:30:43.790Z</time>
      </trkpt>
      <trkpt lat="43.73713" lon="3.57667">
        <ele>298</ele>
        <time>2022-05-12T07:30:44.354Z</time>
      </trkpt>
      <trkpt lat="43.7371" lon="3.57668">
        <ele>298</ele>
        <time>2022-05-12T07:30:44.919Z</time>
      </trkpt>
      <trkpt lat="43.73707" lon="3.57669">
        <ele>297</ele>
        <time>2022-05-12T07:30:45.194Z</time>
      </trkpt>
      <trkpt lat="43.73705" lon="3.57669">
        <ele>297</ele>
        <time>2022-05-12T07:30:45.560Z</time>
      </trkpt>
      <trkpt lat="43.73702" lon="3.57669">
        <ele>297</ele>
        <time>2022-05-12T07:30:46.108Z</time>
      </trkpt>
      <trkpt lat="43.737" lon="3.57668">
        <ele>297</ele>
        <time>2022-05-12T07:30:46.498Z</time>
      </trkpt>
      <trkpt lat="43.73698" lon="3.57667">
        <ele>297</ele>
        <time>2022-05-12T07:30:46.887Z</time>
      </trkpt>
      <trkpt lat="43.73695" lon="3.57667">
        <ele>297</ele>
        <time>2022-05-12T07:30:47.435Z</time>
      </trkpt>
      <trkpt lat="43.73693" lon="3.57666">
        <ele>297</ele>
        <time>2022-05-12T07:30:47.825Z</time>
      </trkpt>
      <trkpt lat="43.73686" lon="3.57666">
        <ele>297</ele>
        <time>2022-05-12T07:30:49.105Z</time>
      </trkpt>
      <trkpt lat="43.73683" lon="3.57664">
        <ele>298</ele>
        <time>2022-05-12T07:30:51.455Z</time>
      </trkpt>
      <trkpt lat="43.73681" lon="3.57663">
        <ele>298</ele>
        <time>2022-05-12T07:30:51.844Z</time>
      </trkpt>
      <trkpt lat="43.73679" lon="3.57662">
        <ele>298</ele>
        <time>2022-05-12T07:30:52.233Z</time>
      </trkpt>
      <trkpt lat="43.73675" lon="3.57661">
        <ele>298</ele>
        <time>2022-05-12T07:30:52.977Z</time>
      </trkpt>
      <trkpt lat="43.73672" lon="3.5766">
        <ele>298</ele>
        <time>2022-05-12T07:30:53.542Z</time>
      </trkpt>
      <trkpt lat="43.73668" lon="3.57659">
        <ele>298</ele>
        <time>2022-05-12T07:30:54.285Z</time>
      </trkpt>
      <trkpt lat="43.73664" lon="3.57659">
        <ele>298</ele>
        <time>2022-05-12T07:30:55.017Z</time>
      </trkpt>
      <trkpt lat="43.7366" lon="3.57658">
        <ele>298</ele>
        <time>2022-05-12T07:30:55.761Z</time>
      </trkpt>
      <trkpt lat="43.73656" lon="3.57658">
        <ele>298</ele>
        <time>2022-05-12T07:30:56.493Z</time>
      </trkpt>
      <trkpt lat="43.73645" lon="3.57654">
        <ele>298</ele>
        <time>2022-05-12T07:30:58.573Z</time>
      </trkpt>
      <trkpt lat="43.73641" lon="3.57654">
        <ele>298</ele>
        <time>2022-05-12T07:30:59.305Z</time>
      </trkpt>
      <trkpt lat="43.73638" lon="3.57654">
        <ele>298</ele>
        <time>2022-05-12T07:30:59.854Z</time>
      </trkpt>
      <trkpt lat="43.73634" lon="3.57653">
        <ele>298</ele>
        <time>2022-05-12T07:31:00.598Z</time>
      </trkpt>
      <trkpt lat="43.73624" lon="3.57649">
        <ele>298</ele>
        <time>2022-05-12T07:31:02.502Z</time>
      </trkpt>
      <trkpt lat="43.73614" lon="3.57646">
        <ele>298</ele>
        <time>2022-05-12T07:31:04.374Z</time>
      </trkpt>
      <trkpt lat="43.73605" lon="3.57642">
        <ele>297</ele>
        <time>2022-05-12T07:31:05.216Z</time>
      </trkpt>
      <trkpt lat="43.73592" lon="3.57639">
        <ele>297</ele>
        <time>2022-05-12T07:31:07.627Z</time>
      </trkpt>
      <trkpt lat="43.73588" lon="3.57637">
        <ele>297</ele>
        <time>2022-05-12T07:31:08.405Z</time>
      </trkpt>
      <trkpt lat="43.73584" lon="3.57635">
        <ele>297</ele>
        <time>2022-05-12T07:31:09.183Z</time>
      </trkpt>
      <trkpt lat="43.7358" lon="3.57632">
        <ele>297</ele>
        <time>2022-05-12T07:31:10.016Z</time>
      </trkpt>
      <trkpt lat="43.73575" lon="3.5763">
        <ele>297</ele>
        <time>2022-05-12T07:31:10.968Z</time>
      </trkpt>
      <trkpt lat="43.73571" lon="3.57628">
        <ele>297</ele>
        <time>2022-05-12T07:31:11.746Z</time>
      </trkpt>
      <trkpt lat="43.73566" lon="3.57626">
        <ele>297</ele>
        <time>2022-05-12T07:31:12.698Z</time>
      </trkpt>
      <trkpt lat="43.73562" lon="3.57623">
        <ele>296</ele>
        <time>2022-05-12T07:31:13.103Z</time>
      </trkpt>
      <trkpt lat="43.73559" lon="3.57619">
        <ele>296</ele>
        <time>2022-05-12T07:31:13.866Z</time>
      </trkpt>
      <trkpt lat="43.73555" lon="3.57615">
        <ele>296</ele>
        <time>2022-05-12T07:31:14.768Z</time>
      </trkpt>
      <trkpt lat="43.7355" lon="3.57612">
        <ele>296</ele>
        <time>2022-05-12T07:31:15.765Z</time>
      </trkpt>
      <trkpt lat="43.73546" lon="3.57608">
        <ele>296</ele>
        <time>2022-05-12T07:31:16.668Z</time>
      </trkpt>
      <trkpt lat="43.73542" lon="3.57604">
        <ele>296</ele>
        <time>2022-05-12T07:31:17.571Z</time>
      </trkpt>
      <trkpt lat="43.73537" lon="3.576">
        <ele>296</ele>
        <time>2022-05-12T07:31:18.628Z</time>
      </trkpt>
      <trkpt lat="43.73532" lon="3.57597">
        <ele>296</ele>
        <time>2022-05-12T07:31:19.625Z</time>
      </trkpt>
      <trkpt lat="43.73528" lon="3.57594">
        <ele>296</ele>
        <time>2022-05-12T07:31:20.457Z</time>
      </trkpt>
      <trkpt lat="43.73525" lon="3.5759">
        <ele>296</ele>
        <time>2022-05-12T07:31:21.219Z</time>
      </trkpt>
      <trkpt lat="43.73522" lon="3.57586">
        <ele>294</ele>
        <time>2022-05-12T07:31:21.590Z</time>
      </trkpt>
      <trkpt lat="43.73519" lon="3.57582">
        <ele>294</ele>
        <time>2022-05-12T07:31:22.352Z</time>
      </trkpt>
      <trkpt lat="43.73516" lon="3.57577">
        <ele>294</ele>
        <time>2022-05-12T07:31:23.212Z</time>
      </trkpt>
      <trkpt lat="43.73513" lon="3.57571">
        <ele>294</ele>
        <time>2022-05-12T07:31:24.176Z</time>
      </trkpt>
      <trkpt lat="43.73511" lon="3.57566">
        <ele>294</ele>
        <time>2022-05-12T07:31:24.932Z</time>
      </trkpt>
      <trkpt lat="43.73509" lon="3.57562">
        <ele>294</ele>
        <time>2022-05-12T07:31:25.575Z</time>
      </trkpt>
      <trkpt lat="43.73507" lon="3.57557">
        <ele>294</ele>
        <time>2022-05-12T07:31:26.330Z</time>
      </trkpt>
      <trkpt lat="43.73506" lon="3.57553">
        <ele>294</ele>
        <time>2022-05-12T07:31:26.890Z</time>
      </trkpt>
      <trkpt lat="43.73504" lon="3.5755">
        <ele>294</ele>
        <time>2022-05-12T07:31:27.429Z</time>
      </trkpt>
      <trkpt lat="43.73502" lon="3.57547">
        <ele>294</ele>
        <time>2022-05-12T07:31:27.969Z</time>
      </trkpt>
      <trkpt lat="43.735" lon="3.57543">
        <ele>292</ele>
        <time>2022-05-12T07:31:28.282Z</time>
      </trkpt>
      <trkpt lat="43.73497" lon="3.5754">
        <ele>292</ele>
        <time>2022-05-12T07:31:28.959Z</time>
      </trkpt>
      <trkpt lat="43.73494" lon="3.57536">
        <ele>292</ele>
        <time>2022-05-12T07:31:29.721Z</time>
      </trkpt>
      <trkpt lat="43.73491" lon="3.57532">
        <ele>292</ele>
        <time>2022-05-12T07:31:30.483Z</time>
      </trkpt>
      <trkpt lat="43.73487" lon="3.57529">
        <ele>292</ele>
        <time>2022-05-12T07:31:31.316Z</time>
      </trkpt>
      <trkpt lat="43.73485" lon="3.57526">
        <ele>292</ele>
        <time>2022-05-12T07:31:31.855Z</time>
      </trkpt>
      <trkpt lat="43.73483" lon="3.57526">
        <ele>292</ele>
        <time>2022-05-12T07:31:32.221Z</time>
      </trkpt>
      <trkpt lat="43.7348" lon="3.5753">
        <ele>292</ele>
        <time>2022-05-12T07:31:32.983Z</time>
      </trkpt>
      <trkpt lat="43.73478" lon="3.57533">
        <ele>292</ele>
        <time>2022-05-12T07:31:33.523Z</time>
      </trkpt>
      <trkpt lat="43.73477" lon="3.57536">
        <ele>291</ele>
        <time>2022-05-12T07:31:33.736Z</time>
      </trkpt>
      <trkpt lat="43.73476" lon="3.57539">
        <ele>291</ele>
        <time>2022-05-12T07:31:34.172Z</time>
      </trkpt>
      <trkpt lat="43.73475" lon="3.57542">
        <ele>291</ele>
        <time>2022-05-12T07:31:34.609Z</time>
      </trkpt>
      <trkpt lat="43.73474" lon="3.57545">
        <ele>291</ele>
        <time>2022-05-12T07:31:35.046Z</time>
      </trkpt>
      <trkpt lat="43.73473" lon="3.57547">
        <ele>291</ele>
        <time>2022-05-12T07:31:35.367Z</time>
      </trkpt>
      <trkpt lat="43.73472" lon="3.5755">
        <ele>291</ele>
        <time>2022-05-12T07:31:35.804Z</time>
      </trkpt>
      <trkpt lat="43.73471" lon="3.57553">
        <ele>291</ele>
        <time>2022-05-12T07:31:36.241Z</time>
      </trkpt>
      <trkpt lat="43.73471" lon="3.57556">
        <ele>291</ele>
        <time>2022-05-12T07:31:36.637Z</time>
      </trkpt>
      <trkpt lat="43.73471" lon="3.57559">
        <ele>291</ele>
        <time>2022-05-12T07:31:37.034Z</time>
      </trkpt>
      <trkpt lat="43.73471" lon="3.57561">
        <ele>291</ele>
        <time>2022-05-12T07:31:37.298Z</time>
      </trkpt>
      <trkpt lat="43.7347" lon="3.57566">
        <ele>291</ele>
        <time>2022-05-12T07:31:37.984Z</time>
      </trkpt>
      <trkpt lat="43.7347" lon="3.57568">
        <ele>291</ele>
        <time>2022-05-12T07:31:38.249Z</time>
      </trkpt>
      <trkpt lat="43.73469" lon="3.57571">
        <ele>291</ele>
        <time>2022-05-12T07:31:38.685Z</time>
      </trkpt>
      <trkpt lat="43.73469" lon="3.57576">
        <ele>291</ele>
        <time>2022-05-12T07:31:39.346Z</time>
      </trkpt>
      <trkpt lat="43.73469" lon="3.57579">
        <ele>291</ele>
        <time>2022-05-12T07:31:39.743Z</time>
      </trkpt>
      <trkpt lat="43.73468" lon="3.57582">
        <ele>291</ele>
        <time>2022-05-12T07:31:40.180Z</time>
      </trkpt>
      <trkpt lat="43.73467" lon="3.57585">
        <ele>291</ele>
        <time>2022-05-12T07:31:40.616Z</time>
      </trkpt>
      <trkpt lat="43.73466" lon="3.57587">
        <ele>291</ele>
        <time>2022-05-12T07:31:40.938Z</time>
      </trkpt>
      <trkpt lat="43.73465" lon="3.5759">
        <ele>291</ele>
        <time>2022-05-12T07:31:41.375Z</time>
      </trkpt>
      <trkpt lat="43.73464" lon="3.57592">
        <ele>291</ele>
        <time>2022-05-12T07:31:41.696Z</time>
      </trkpt>
      <trkpt lat="43.73463" lon="3.57594">
        <ele>291</ele>
        <time>2022-05-12T07:31:42.018Z</time>
      </trkpt>
      <trkpt lat="43.73461" lon="3.57598">
        <ele>291</ele>
        <time>2022-05-12T07:31:42.661Z</time>
      </trkpt>
      <trkpt lat="43.73459" lon="3.57603">
        <ele>291</ele>
        <time>2022-05-12T07:31:43.416Z</time>
      </trkpt>
      <trkpt lat="43.73458" lon="3.57607">
        <ele>291</ele>
        <time>2022-05-12T07:31:43.976Z</time>
      </trkpt>
      <trkpt lat="43.73456" lon="3.57611">
        <ele>292</ele>
        <time>2022-05-12T07:31:46.456Z</time>
      </trkpt>
      <trkpt lat="43.73454" lon="3.57614">
        <ele>292</ele>
        <time>2022-05-12T07:31:46.996Z</time>
      </trkpt>
      <trkpt lat="43.73451" lon="3.57616">
        <ele>292</ele>
        <time>2022-05-12T07:31:47.605Z</time>
      </trkpt>
      <trkpt lat="43.73448" lon="3.57619">
        <ele>292</ele>
        <time>2022-05-12T07:31:48.282Z</time>
      </trkpt>
      <trkpt lat="43.73446" lon="3.57622">
        <ele>292</ele>
        <time>2022-05-12T07:31:48.822Z</time>
      </trkpt>
      <trkpt lat="43.73444" lon="3.57624">
        <ele>293</ele>
        <time>2022-05-12T07:31:50.563Z</time>
      </trkpt>
      <trkpt lat="43.73442" lon="3.57626">
        <ele>293</ele>
        <time>2022-05-12T07:31:51.015Z</time>
      </trkpt>
      <trkpt lat="43.7344" lon="3.57628">
        <ele>293</ele>
        <time>2022-05-12T07:31:51.466Z</time>
      </trkpt>
      <trkpt lat="43.73431" lon="3.57634">
        <ele>294</ele>
        <time>2022-05-12T07:31:56.224Z</time>
      </trkpt>
      <trkpt lat="43.73428" lon="3.57636">
        <ele>294</ele>
        <time>2022-05-12T07:31:56.833Z</time>
      </trkpt>
      <trkpt lat="43.73425" lon="3.57638">
        <ele>294</ele>
        <time>2022-05-12T07:31:57.442Z</time>
      </trkpt>
      <trkpt lat="43.73423" lon="3.5764">
        <ele>294</ele>
        <time>2022-05-12T07:31:57.894Z</time>
      </trkpt>
      <trkpt lat="43.7342" lon="3.57643">
        <ele>296</ele>
        <time>2022-05-12T07:32:00.505Z</time>
      </trkpt>
      <trkpt lat="43.73418" lon="3.57645">
        <ele>296</ele>
        <time>2022-05-12T07:32:00.957Z</time>
      </trkpt>
      <trkpt lat="43.73416" lon="3.57647">
        <ele>296</ele>
        <time>2022-05-12T07:32:01.408Z</time>
      </trkpt>
      <trkpt lat="43.73413" lon="3.57649">
        <ele>296</ele>
        <time>2022-05-12T07:32:02.018Z</time>
      </trkpt>
      <trkpt lat="43.73411" lon="3.57651">
        <ele>296</ele>
        <time>2022-05-12T07:32:02.469Z</time>
      </trkpt>
      <trkpt lat="43.73409" lon="3.57654">
        <ele>297</ele>
        <time>2022-05-12T07:32:04.550Z</time>
      </trkpt>
      <trkpt lat="43.73406" lon="3.57656">
        <ele>297</ele>
        <time>2022-05-12T07:32:05.160Z</time>
      </trkpt>
      <trkpt lat="43.73403" lon="3.57658">
        <ele>297</ele>
        <time>2022-05-12T07:32:05.769Z</time>
      </trkpt>
      <trkpt lat="43.73401" lon="3.57659">
        <ele>297</ele>
        <time>2022-05-12T07:32:06.158Z</time>
      </trkpt>
      <trkpt lat="43.73398" lon="3.5766">
        <ele>297</ele>
        <time>2022-05-12T07:32:06.723Z</time>
      </trkpt>
      <trkpt lat="43.73395" lon="3.57661">
        <ele>298</ele>
        <time>2022-05-12T07:32:08.900Z</time>
      </trkpt>
      <trkpt lat="43.73394" lon="3.57662">
        <ele>298</ele>
        <time>2022-05-12T07:32:09.126Z</time>
      </trkpt>
      <trkpt lat="43.7339" lon="3.57664">
        <ele>298</ele>
        <time>2022-05-12T07:32:09.904Z</time>
      </trkpt>
      <trkpt lat="43.73387" lon="3.57666">
        <ele>298</ele>
        <time>2022-05-12T07:32:10.513Z</time>
      </trkpt>
      <trkpt lat="43.73386" lon="3.57667">
        <ele>298</ele>
        <time>2022-05-12T07:32:10.739Z</time>
      </trkpt>
      <trkpt lat="43.73383" lon="3.57668">
        <ele>298</ele>
        <time>2022-05-12T07:32:11.304Z</time>
      </trkpt>
      <trkpt lat="43.73381" lon="3.57669">
        <ele>298</ele>
        <time>2022-05-12T07:32:11.693Z</time>
      </trkpt>
      <trkpt lat="43.7338" lon="3.57669">
        <ele>298</ele>
        <time>2022-05-12T07:32:11.876Z</time>
      </trkpt>
      <trkpt lat="43.73378" lon="3.5767">
        <ele>300</ele>
        <time>2022-05-12T07:32:13.376Z</time>
      </trkpt>
      <trkpt lat="43.73368" lon="3.57674">
        <ele>300</ele>
        <time>2022-05-12T07:32:15.281Z</time>
      </trkpt>
      <trkpt lat="43.73364" lon="3.57676">
        <ele>300</ele>
        <time>2022-05-12T07:32:16.059Z</time>
      </trkpt>
      <trkpt lat="43.73362" lon="3.57677">
        <ele>300</ele>
        <time>2022-05-12T07:32:16.448Z</time>
      </trkpt>
      <trkpt lat="43.7336" lon="3.57678">
        <ele>300</ele>
        <time>2022-05-12T07:32:16.837Z</time>
      </trkpt>
      <trkpt lat="43.73357" lon="3.57679">
        <ele>300</ele>
        <time>2022-05-12T07:32:17.402Z</time>
      </trkpt>
      <trkpt lat="43.73355" lon="3.5768">
        <ele>301</ele>
        <time>2022-05-12T07:32:18.902Z</time>
      </trkpt>
      <trkpt lat="43.73352" lon="3.57681">
        <ele>301</ele>
        <time>2022-05-12T07:32:19.467Z</time>
      </trkpt>
      <trkpt lat="43.7335" lon="3.57682">
        <ele>301</ele>
        <time>2022-05-12T07:32:19.856Z</time>
      </trkpt>
      <trkpt lat="43.73347" lon="3.57683">
        <ele>301</ele>
        <time>2022-05-12T07:32:20.420Z</time>
      </trkpt>
      <trkpt lat="43.73345" lon="3.57684">
        <ele>301</ele>
        <time>2022-05-12T07:32:20.809Z</time>
      </trkpt>
      <trkpt lat="43.73342" lon="3.57686">
        <ele>301</ele>
        <time>2022-05-12T07:32:21.419Z</time>
      </trkpt>
      <trkpt lat="43.7334" lon="3.57688">
        <ele>301</ele>
        <time>2022-05-12T07:32:21.870Z</time>
      </trkpt>
      <trkpt lat="43.73337" lon="3.57689">
        <ele>301</ele>
        <time>2022-05-12T07:32:22.435Z</time>
      </trkpt>
      <trkpt lat="43.73335" lon="3.57691">
        <ele>301</ele>
        <time>2022-05-12T07:32:22.886Z</time>
      </trkpt>
      <trkpt lat="43.73333" lon="3.57692">
        <ele>301</ele>
        <time>2022-05-12T07:32:23.275Z</time>
      </trkpt>
      <trkpt lat="43.73331" lon="3.57693">
        <ele>301</ele>
        <time>2022-05-12T07:32:23.664Z</time>
      </trkpt>
      <trkpt lat="43.73329" lon="3.57693">
        <ele>301</ele>
        <time>2022-05-12T07:32:24.030Z</time>
      </trkpt>
      <trkpt lat="43.73327" lon="3.57694">
        <ele>301</ele>
        <time>2022-05-12T07:32:24.419Z</time>
      </trkpt>
      <trkpt lat="43.73325" lon="3.57695">
        <ele>301</ele>
        <time>2022-05-12T07:32:24.808Z</time>
      </trkpt>
      <trkpt lat="43.73322" lon="3.57696">
        <ele>301</ele>
        <time>2022-05-12T07:32:25.373Z</time>
      </trkpt>
      <trkpt lat="43.7332" lon="3.57696">
        <ele>301</ele>
        <time>2022-05-12T07:32:25.739Z</time>
      </trkpt>
      <trkpt lat="43.73316" lon="3.57697">
        <ele>301</ele>
        <time>2022-05-12T07:32:26.482Z</time>
      </trkpt>
      <trkpt lat="43.73313" lon="3.57698">
        <ele>301</ele>
        <time>2022-05-12T07:32:27.047Z</time>
      </trkpt>
      <trkpt lat="43.73311" lon="3.57698">
        <ele>301</ele>
        <time>2022-05-12T07:32:27.413Z</time>
      </trkpt>
      <trkpt lat="43.73308" lon="3.57699">
        <ele>301</ele>
        <time>2022-05-12T07:32:27.978Z</time>
      </trkpt>
      <trkpt lat="43.73306" lon="3.577">
        <ele>301</ele>
        <time>2022-05-12T07:32:28.367Z</time>
      </trkpt>
      <trkpt lat="43.73303" lon="3.57702">
        <ele>301</ele>
        <time>2022-05-12T07:32:28.976Z</time>
      </trkpt>
      <trkpt lat="43.73301" lon="3.57703">
        <ele>301</ele>
        <time>2022-05-12T07:32:29.365Z</time>
      </trkpt>
      <trkpt lat="43.73299" lon="3.57704">
        <ele>301</ele>
        <time>2022-05-12T07:32:29.754Z</time>
      </trkpt>
      <trkpt lat="43.73297" lon="3.57707">
        <ele>301</ele>
        <time>2022-05-12T07:32:30.294Z</time>
      </trkpt>
      <trkpt lat="43.73295" lon="3.57708">
        <ele>301</ele>
        <time>2022-05-12T07:32:30.683Z</time>
      </trkpt>
      <trkpt lat="43.73293" lon="3.5771">
        <ele>301</ele>
        <time>2022-05-12T07:32:31.134Z</time>
      </trkpt>
      <trkpt lat="43.73291" lon="3.57712">
        <ele>301</ele>
        <time>2022-05-12T07:32:31.586Z</time>
      </trkpt>
      <trkpt lat="43.73289" lon="3.57714">
        <ele>301</ele>
        <time>2022-05-12T07:32:32.037Z</time>
      </trkpt>
      <trkpt lat="43.73287" lon="3.57715">
        <ele>301</ele>
        <time>2022-05-12T07:32:32.426Z</time>
      </trkpt>
      <trkpt lat="43.73286" lon="3.57717">
        <ele>301</ele>
        <time>2022-05-12T07:32:32.748Z</time>
      </trkpt>
      <trkpt lat="43.73284" lon="3.57719">
        <ele>301</ele>
        <time>2022-05-12T07:32:33.199Z</time>
      </trkpt>
      <trkpt lat="43.73282" lon="3.57721">
        <ele>301</ele>
        <time>2022-05-12T07:32:33.650Z</time>
      </trkpt>
      <trkpt lat="43.7328" lon="3.57723">
        <ele>301</ele>
        <time>2022-05-12T07:32:34.102Z</time>
      </trkpt>
      <trkpt lat="43.73279" lon="3.57725">
        <ele>301</ele>
        <time>2022-05-12T07:32:34.423Z</time>
      </trkpt>
      <trkpt lat="43.73277" lon="3.57727">
        <ele>301</ele>
        <time>2022-05-12T07:32:34.875Z</time>
      </trkpt>
      <trkpt lat="43.73275" lon="3.57728">
        <ele>301</ele>
        <time>2022-05-12T07:32:35.264Z</time>
      </trkpt>
      <trkpt lat="43.73273" lon="3.5773">
        <ele>301</ele>
        <time>2022-05-12T07:32:35.715Z</time>
      </trkpt>
      <trkpt lat="43.73272" lon="3.57732">
        <ele>301</ele>
        <time>2022-05-12T07:32:36.037Z</time>
      </trkpt>
      <trkpt lat="43.7327" lon="3.57734">
        <ele>301</ele>
        <time>2022-05-12T07:32:36.488Z</time>
      </trkpt>
      <trkpt lat="43.73268" lon="3.57736">
        <ele>302</ele>
        <time>2022-05-12T07:32:38.230Z</time>
      </trkpt>
      <trkpt lat="43.73267" lon="3.57739">
        <ele>302</ele>
        <time>2022-05-12T07:32:38.666Z</time>
      </trkpt>
      <trkpt lat="43.73266" lon="3.57741">
        <ele>302</ele>
        <time>2022-05-12T07:32:38.988Z</time>
      </trkpt>
      <trkpt lat="43.73264" lon="3.57743">
        <ele>302</ele>
        <time>2022-05-12T07:32:39.439Z</time>
      </trkpt>
      <trkpt lat="43.73262" lon="3.57745">
        <ele>302</ele>
        <time>2022-05-12T07:32:39.891Z</time>
      </trkpt>
      <trkpt lat="43.7326" lon="3.57747">
        <ele>302</ele>
        <time>2022-05-12T07:32:40.342Z</time>
      </trkpt>
      <trkpt lat="43.73259" lon="3.57749">
        <ele>302</ele>
        <time>2022-05-12T07:32:40.664Z</time>
      </trkpt>
      <trkpt lat="43.73256" lon="3.57751">
        <ele>302</ele>
        <time>2022-05-12T07:32:41.273Z</time>
      </trkpt>
      <trkpt lat="43.73254" lon="3.57753">
        <ele>302</ele>
        <time>2022-05-12T07:32:41.725Z</time>
      </trkpt>
      <trkpt lat="43.73253" lon="3.57755">
        <ele>302</ele>
        <time>2022-05-12T07:32:42.046Z</time>
      </trkpt>
      <trkpt lat="43.73251" lon="3.57757">
        <ele>302</ele>
        <time>2022-05-12T07:32:42.498Z</time>
      </trkpt>
      <trkpt lat="43.73248" lon="3.5776">
        <ele>302</ele>
        <time>2022-05-12T07:32:43.175Z</time>
      </trkpt>
      <trkpt lat="43.73246" lon="3.57763">
        <ele>302</ele>
        <time>2022-05-12T07:32:43.714Z</time>
      </trkpt>
      <trkpt lat="43.73244" lon="3.57766">
        <ele>302</ele>
        <time>2022-05-12T07:32:44.254Z</time>
      </trkpt>
      <trkpt lat="43.73242" lon="3.5777">
        <ele>302</ele>
        <time>2022-05-12T07:32:44.897Z</time>
      </trkpt>
      <trkpt lat="43.73239" lon="3.57773">
        <ele>302</ele>
        <time>2022-05-12T07:32:45.574Z</time>
      </trkpt>
      <trkpt lat="43.73238" lon="3.57777">
        <ele>302</ele>
        <time>2022-05-12T07:32:46.134Z</time>
      </trkpt>
      <trkpt lat="43.73236" lon="3.57781">
        <ele>302</ele>
        <time>2022-05-12T07:32:46.777Z</time>
      </trkpt>
      <trkpt lat="43.73234" lon="3.57785">
        <ele>302</ele>
        <time>2022-05-12T07:32:47.420Z</time>
      </trkpt>
      <trkpt lat="43.73232" lon="3.57789">
        <ele>302</ele>
        <time>2022-05-12T07:32:48.063Z</time>
      </trkpt>
      <trkpt lat="43.73229" lon="3.57792">
        <ele>302</ele>
        <time>2022-05-12T07:32:48.740Z</time>
      </trkpt>
      <trkpt lat="43.73226" lon="3.57796">
        <ele>302</ele>
        <time>2022-05-12T07:32:49.502Z</time>
      </trkpt>
      <trkpt lat="43.73224" lon="3.578">
        <ele>302</ele>
        <time>2022-05-12T07:32:50.145Z</time>
      </trkpt>
      <trkpt lat="43.73222" lon="3.57804">
        <ele>302</ele>
        <time>2022-05-12T07:32:50.788Z</time>
      </trkpt>
      <trkpt lat="43.7322" lon="3.57808">
        <ele>302</ele>
        <time>2022-05-12T07:32:51.431Z</time>
      </trkpt>
      <trkpt lat="43.73217" lon="3.57811">
        <ele>302</ele>
        <time>2022-05-12T07:32:52.109Z</time>
      </trkpt>
      <trkpt lat="43.73214" lon="3.57815">
        <ele>302</ele>
        <time>2022-05-12T07:32:52.871Z</time>
      </trkpt>
      <trkpt lat="43.73211" lon="3.57819">
        <ele>302</ele>
        <time>2022-05-12T07:32:53.633Z</time>
      </trkpt>
      <trkpt lat="43.73209" lon="3.57823">
        <ele>302</ele>
        <time>2022-05-12T07:32:54.276Z</time>
      </trkpt>
      <trkpt lat="43.73206" lon="3.57827">
        <ele>302</ele>
        <time>2022-05-12T07:32:55.038Z</time>
      </trkpt>
      <trkpt lat="43.73203" lon="3.57832">
        <ele>303</ele>
        <time>2022-05-12T07:32:58.352Z</time>
      </trkpt>
      <trkpt lat="43.732" lon="3.57835">
        <ele>303</ele>
        <time>2022-05-12T07:32:59.029Z</time>
      </trkpt>
      <trkpt lat="43.73198" lon="3.57836">
        <ele>303</ele>
        <time>2022-05-12T07:32:59.418Z</time>
      </trkpt>
      <trkpt lat="43.73195" lon="3.57837">
        <ele>303</ele>
        <time>2022-05-12T07:32:59.983Z</time>
      </trkpt>
      <trkpt lat="43.73192" lon="3.57838">
        <ele>303</ele>
        <time>2022-05-12T07:33:00.548Z</time>
      </trkpt>
      <trkpt lat="43.73177" lon="3.5784">
        <ele>303</ele>
        <time>2022-05-12T07:33:03.305Z</time>
      </trkpt>
      <trkpt lat="43.73165" lon="3.57837">
        <ele>303</ele>
        <time>2022-05-12T07:33:05.536Z</time>
      </trkpt>
      <trkpt lat="43.7316" lon="3.57835">
        <ele>302</ele>
        <time>2022-05-12T07:33:05.999Z</time>
      </trkpt>
      <trkpt lat="43.73154" lon="3.57836">
        <ele>302</ele>
        <time>2022-05-12T07:33:07.105Z</time>
      </trkpt>
      <trkpt lat="43.73149" lon="3.57838">
        <ele>302</ele>
        <time>2022-05-12T07:33:08.057Z</time>
      </trkpt>
      <trkpt lat="43.73144" lon="3.57842">
        <ele>302</ele>
        <time>2022-05-12T07:33:09.114Z</time>
      </trkpt>
      <trkpt lat="43.73139" lon="3.57846">
        <ele>302</ele>
        <time>2022-05-12T07:33:10.170Z</time>
      </trkpt>
      <trkpt lat="43.73134" lon="3.5785">
        <ele>302</ele>
        <time>2022-05-12T07:33:11.227Z</time>
      </trkpt>
      <trkpt lat="43.73129" lon="3.57853">
        <ele>302</ele>
        <time>2022-05-12T07:33:12.224Z</time>
      </trkpt>
      <trkpt lat="43.73124" lon="3.57855">
        <ele>302</ele>
        <time>2022-05-12T07:33:13.176Z</time>
      </trkpt>
      <trkpt lat="43.73119" lon="3.57857">
        <ele>302</ele>
        <time>2022-05-12T07:33:14.128Z</time>
      </trkpt>
      <trkpt lat="43.73114" lon="3.57858">
        <ele>302</ele>
        <time>2022-05-12T07:33:15.053Z</time>
      </trkpt>
      <trkpt lat="43.73109" lon="3.5786">
        <ele>302</ele>
        <time>2022-05-12T07:33:16.005Z</time>
      </trkpt>
      <trkpt lat="43.73103" lon="3.57861">
        <ele>301</ele>
        <time>2022-05-12T07:33:16.543Z</time>
      </trkpt>
      <trkpt lat="43.73098" lon="3.57863">
        <ele>301</ele>
        <time>2022-05-12T07:33:17.495Z</time>
      </trkpt>
      <trkpt lat="43.73092" lon="3.57864">
        <ele>301</ele>
        <time>2022-05-12T07:33:18.601Z</time>
      </trkpt>
      <trkpt lat="43.73087" lon="3.57865">
        <ele>301</ele>
        <time>2022-05-12T07:33:19.525Z</time>
      </trkpt>
      <trkpt lat="43.73081" lon="3.57867">
        <ele>301</ele>
        <time>2022-05-12T07:33:20.654Z</time>
      </trkpt>
      <trkpt lat="43.73076" lon="3.57869">
        <ele>301</ele>
        <time>2022-05-12T07:33:21.607Z</time>
      </trkpt>
      <trkpt lat="43.73065" lon="3.57873">
        <ele>301</ele>
        <time>2022-05-12T07:33:23.687Z</time>
      </trkpt>
      <trkpt lat="43.73053" lon="3.57878">
        <ele>300</ele>
        <time>2022-05-12T07:33:24.803Z</time>
      </trkpt>
      <trkpt lat="43.73042" lon="3.57883">
        <ele>300</ele>
        <time>2022-05-12T07:33:26.921Z</time>
      </trkpt>
      <trkpt lat="43.73031" lon="3.57887">
        <ele>300</ele>
        <time>2022-05-12T07:33:29.002Z</time>
      </trkpt>
      <trkpt lat="43.73019" lon="3.57887">
        <ele>300</ele>
        <time>2022-05-12T07:33:31.198Z</time>
      </trkpt>
      <trkpt lat="43.73008" lon="3.57887">
        <ele>300</ele>
        <time>2022-05-12T07:33:33.210Z</time>
      </trkpt>
      <trkpt lat="43.72997" lon="3.5788">
        <ele>300</ele>
        <time>2022-05-12T07:33:35.425Z</time>
      </trkpt>
      <trkpt lat="43.72986" lon="3.57873">
        <ele>300</ele>
        <time>2022-05-12T07:33:37.641Z</time>
      </trkpt>
      <trkpt lat="43.72981" lon="3.5787">
        <ele>300</ele>
        <time>2022-05-12T07:33:38.638Z</time>
      </trkpt>
      <trkpt lat="43.7297" lon="3.57866">
        <ele>300</ele>
        <time>2022-05-12T07:33:40.718Z</time>
      </trkpt>
      <trkpt lat="43.72959" lon="3.57868">
        <ele>300</ele>
        <time>2022-05-12T07:33:42.748Z</time>
      </trkpt>
      <trkpt lat="43.72948" lon="3.57869">
        <ele>299</ele>
        <time>2022-05-12T07:33:43.730Z</time>
      </trkpt>
      <trkpt lat="43.72946" lon="3.57867">
        <ele>299</ele>
        <time>2022-05-12T07:33:44.181Z</time>
      </trkpt>
      <trkpt lat="43.72945" lon="3.57865">
        <ele>299</ele>
        <time>2022-05-12T07:33:44.503Z</time>
      </trkpt>
      <trkpt lat="43.72945" lon="3.57862">
        <ele>299</ele>
        <time>2022-05-12T07:33:44.899Z</time>
      </trkpt>
      <trkpt lat="43.72946" lon="3.57859">
        <ele>299</ele>
        <time>2022-05-12T07:33:45.336Z</time>
      </trkpt>
      <trkpt lat="43.72947" lon="3.57857">
        <ele>299</ele>
        <time>2022-05-12T07:33:45.658Z</time>
      </trkpt>
      <trkpt lat="43.72949" lon="3.57855">
        <ele>299</ele>
        <time>2022-05-12T07:33:46.109Z</time>
      </trkpt>
      <trkpt lat="43.72951" lon="3.57852">
        <ele>299</ele>
        <time>2022-05-12T07:33:46.649Z</time>
      </trkpt>
      <trkpt lat="43.72954" lon="3.57849">
        <ele>299</ele>
        <time>2022-05-12T07:33:47.326Z</time>
      </trkpt>
      <trkpt lat="43.72956" lon="3.57846">
        <ele>299</ele>
        <time>2022-05-12T07:33:47.866Z</time>
      </trkpt>
      <trkpt lat="43.72959" lon="3.57842">
        <ele>298</ele>
        <time>2022-05-12T07:33:48.236Z</time>
      </trkpt>
      <trkpt lat="43.72961" lon="3.57839">
        <ele>298</ele>
        <time>2022-05-12T07:33:48.776Z</time>
      </trkpt>
      <trkpt lat="43.72964" lon="3.57836">
        <ele>298</ele>
        <time>2022-05-12T07:33:49.453Z</time>
      </trkpt>
      <trkpt lat="43.72966" lon="3.57832">
        <ele>298</ele>
        <time>2022-05-12T07:33:50.096Z</time>
      </trkpt>
      <trkpt lat="43.72968" lon="3.57829">
        <ele>298</ele>
        <time>2022-05-12T07:33:50.636Z</time>
      </trkpt>
      <trkpt lat="43.72971" lon="3.57825">
        <ele>298</ele>
        <time>2022-05-12T07:33:51.398Z</time>
      </trkpt>
      <trkpt lat="43.72972" lon="3.57821">
        <ele>298</ele>
        <time>2022-05-12T07:33:51.958Z</time>
      </trkpt>
      <trkpt lat="43.72974" lon="3.57817">
        <ele>298</ele>
        <time>2022-05-12T07:33:52.601Z</time>
      </trkpt>
      <trkpt lat="43.72975" lon="3.57811">
        <ele>298</ele>
        <time>2022-05-12T07:33:53.415Z</time>
      </trkpt>
      <trkpt lat="43.72976" lon="3.57806">
        <ele>298</ele>
        <time>2022-05-12T07:33:54.101Z</time>
      </trkpt>
      <trkpt lat="43.72978" lon="3.57801">
        <ele>298</ele>
        <time>2022-05-12T07:33:54.856Z</time>
      </trkpt>
      <trkpt lat="43.7298" lon="3.57796">
        <ele>298</ele>
        <time>2022-05-12T07:33:55.612Z</time>
      </trkpt>
      <trkpt lat="43.72982" lon="3.57792">
        <ele>298</ele>
        <time>2022-05-12T07:33:56.255Z</time>
      </trkpt>
      <trkpt lat="43.72984" lon="3.57787">
        <ele>298</ele>
        <time>2022-05-12T07:33:57.011Z</time>
      </trkpt>
      <trkpt lat="43.72986" lon="3.57783">
        <ele>298</ele>
        <time>2022-05-12T07:33:57.654Z</time>
      </trkpt>
      <trkpt lat="43.72986" lon="3.57779">
        <ele>298</ele>
        <time>2022-05-12T07:33:58.182Z</time>
      </trkpt>
      <trkpt lat="43.72986" lon="3.57775">
        <ele>298</ele>
        <time>2022-05-12T07:33:58.711Z</time>
      </trkpt>
      <trkpt lat="43.72986" lon="3.5777">
        <ele>298</ele>
        <time>2022-05-12T07:33:59.372Z</time>
      </trkpt>
      <trkpt lat="43.72985" lon="3.57765">
        <ele>298</ele>
        <time>2022-05-12T07:34:00.058Z</time>
      </trkpt>
      <trkpt lat="43.72984" lon="3.5776">
        <ele>298</ele>
        <time>2022-05-12T07:34:00.744Z</time>
      </trkpt>
      <trkpt lat="43.72984" lon="3.57755">
        <ele>299</ele>
        <time>2022-05-12T07:34:03.294Z</time>
      </trkpt>
      <trkpt lat="43.72983" lon="3.5775">
        <ele>299</ele>
        <time>2022-05-12T07:34:03.980Z</time>
      </trkpt>
      <trkpt lat="43.72982" lon="3.57745">
        <ele>299</ele>
        <time>2022-05-12T07:34:04.666Z</time>
      </trkpt>
      <trkpt lat="43.72981" lon="3.5774">
        <ele>299</ele>
        <time>2022-05-12T07:34:05.351Z</time>
      </trkpt>
      <trkpt lat="43.7298" lon="3.57735">
        <ele>299</ele>
        <time>2022-05-12T07:34:06.037Z</time>
      </trkpt>
      <trkpt lat="43.72978" lon="3.57729">
        <ele>299</ele>
        <time>2022-05-12T07:34:06.911Z</time>
      </trkpt>
      <trkpt lat="43.72977" lon="3.57724">
        <ele>299</ele>
        <time>2022-05-12T07:34:07.597Z</time>
      </trkpt>
      <trkpt lat="43.72976" lon="3.57718">
        <ele>299</ele>
        <time>2022-05-12T07:34:08.411Z</time>
      </trkpt>
      <trkpt lat="43.72975" lon="3.57712">
        <ele>299</ele>
        <time>2022-05-12T07:34:09.225Z</time>
      </trkpt>
      <trkpt lat="43.72975" lon="3.57706">
        <ele>299</ele>
        <time>2022-05-12T07:34:10.018Z</time>
      </trkpt>
      <trkpt lat="43.72975" lon="3.57701">
        <ele>299</ele>
        <time>2022-05-12T07:34:10.679Z</time>
      </trkpt>
      <trkpt lat="43.72975" lon="3.57696">
        <ele>299</ele>
        <time>2022-05-12T07:34:11.340Z</time>
      </trkpt>
      <trkpt lat="43.72975" lon="3.5769">
        <ele>299</ele>
        <time>2022-05-12T07:34:12.133Z</time>
      </trkpt>
      <trkpt lat="43.72975" lon="3.57685">
        <ele>299</ele>
        <time>2022-05-12T07:34:12.795Z</time>
      </trkpt>
      <trkpt lat="43.72975" lon="3.57669">
        <ele>299</ele>
        <time>2022-05-12T07:34:14.910Z</time>
      </trkpt>
      <trkpt lat="43.72973" lon="3.57657">
        <ele>299</ele>
        <time>2022-05-12T07:34:16.538Z</time>
      </trkpt>
      <trkpt lat="43.72973" lon="3.57651">
        <ele>299</ele>
        <time>2022-05-12T07:34:17.331Z</time>
      </trkpt>
      <trkpt lat="43.72973" lon="3.57645">
        <ele>299</ele>
        <time>2022-05-12T07:34:18.124Z</time>
      </trkpt>
      <trkpt lat="43.72973" lon="3.57639">
        <ele>299</ele>
        <time>2022-05-12T07:34:18.918Z</time>
      </trkpt>
      <trkpt lat="43.72973" lon="3.57632">
        <ele>299</ele>
        <time>2022-05-12T07:34:19.843Z</time>
      </trkpt>
      <trkpt lat="43.72973" lon="3.57626">
        <ele>299</ele>
        <time>2022-05-12T07:34:20.636Z</time>
      </trkpt>
      <trkpt lat="43.72973" lon="3.5762">
        <ele>299</ele>
        <time>2022-05-12T07:34:21.430Z</time>
      </trkpt>
      <trkpt lat="43.72973" lon="3.57614">
        <ele>299</ele>
        <time>2022-05-12T07:34:22.223Z</time>
      </trkpt>
      <trkpt lat="43.72973" lon="3.57608">
        <ele>299</ele>
        <time>2022-05-12T07:34:23.016Z</time>
      </trkpt>
      <trkpt lat="43.72973" lon="3.57602">
        <ele>299</ele>
        <time>2022-05-12T07:34:23.809Z</time>
      </trkpt>
      <trkpt lat="43.72973" lon="3.57595">
        <ele>299</ele>
        <time>2022-05-12T07:34:24.735Z</time>
      </trkpt>
      <trkpt lat="43.72973" lon="3.57589">
        <ele>299</ele>
        <time>2022-05-12T07:34:25.528Z</time>
      </trkpt>
      <trkpt lat="43.72973" lon="3.57583">
        <ele>299</ele>
        <time>2022-05-12T07:34:26.321Z</time>
      </trkpt>
      <trkpt lat="43.72973" lon="3.57577">
        <ele>299</ele>
        <time>2022-05-12T07:34:27.115Z</time>
      </trkpt>
      <trkpt lat="43.72973" lon="3.57571">
        <ele>299</ele>
        <time>2022-05-12T07:34:27.908Z</time>
      </trkpt>
      <trkpt lat="43.72973" lon="3.57564">
        <ele>299</ele>
        <time>2022-05-12T07:34:28.833Z</time>
      </trkpt>
      <trkpt lat="43.72973" lon="3.57558">
        <ele>299</ele>
        <time>2022-05-12T07:34:29.626Z</time>
      </trkpt>
      <trkpt lat="43.72972" lon="3.57552">
        <ele>299</ele>
        <time>2022-05-12T07:34:30.441Z</time>
      </trkpt>
      <trkpt lat="43.72971" lon="3.57546">
        <ele>299</ele>
        <time>2022-05-12T07:34:31.255Z</time>
      </trkpt>
      <trkpt lat="43.7297" lon="3.57541">
        <ele>299</ele>
        <time>2022-05-12T07:34:31.941Z</time>
      </trkpt>
      <trkpt lat="43.72968" lon="3.57536">
        <ele>299</ele>
        <time>2022-05-12T07:34:32.696Z</time>
      </trkpt>
      <trkpt lat="43.72966" lon="3.57531">
        <ele>299</ele>
        <time>2022-05-12T07:34:33.452Z</time>
      </trkpt>
      <trkpt lat="43.72964" lon="3.57526">
        <ele>298</ele>
        <time>2022-05-12T07:34:33.819Z</time>
      </trkpt>
      <trkpt lat="43.72961" lon="3.57522">
        <ele>298</ele>
        <time>2022-05-12T07:34:34.581Z</time>
      </trkpt>
      <trkpt lat="43.72958" lon="3.57517">
        <ele>298</ele>
        <time>2022-05-12T07:34:35.441Z</time>
      </trkpt>
      <trkpt lat="43.72955" lon="3.57512">
        <ele>298</ele>
        <time>2022-05-12T07:34:36.300Z</time>
      </trkpt>
      <trkpt lat="43.72952" lon="3.57507">
        <ele>298</ele>
        <time>2022-05-12T07:34:37.159Z</time>
      </trkpt>
      <trkpt lat="43.72949" lon="3.57503">
        <ele>298</ele>
        <time>2022-05-12T07:34:37.921Z</time>
      </trkpt>
      <trkpt lat="43.72945" lon="3.575">
        <ele>298</ele>
        <time>2022-05-12T07:34:38.754Z</time>
      </trkpt>
      <trkpt lat="43.7294" lon="3.57499">
        <ele>298</ele>
        <time>2022-05-12T07:34:39.678Z</time>
      </trkpt>
      <trkpt lat="43.72935" lon="3.57498">
        <ele>298</ele>
        <time>2022-05-12T07:34:40.602Z</time>
      </trkpt>
      <trkpt lat="43.72931" lon="3.57497">
        <ele>298</ele>
        <time>2022-05-12T07:34:41.346Z</time>
      </trkpt>
      <trkpt lat="43.72926" lon="3.57495">
        <ele>297</ele>
        <time>2022-05-12T07:34:41.809Z</time>
      </trkpt>
      <trkpt lat="43.72922" lon="3.57492">
        <ele>297</ele>
        <time>2022-05-12T07:34:42.642Z</time>
      </trkpt>
      <trkpt lat="43.72919" lon="3.57489">
        <ele>297</ele>
        <time>2022-05-12T07:34:43.319Z</time>
      </trkpt>
      <trkpt lat="43.72915" lon="3.57485">
        <ele>297</ele>
        <time>2022-05-12T07:34:44.222Z</time>
      </trkpt>
      <trkpt lat="43.72912" lon="3.5748">
        <ele>297</ele>
        <time>2022-05-12T07:34:45.081Z</time>
      </trkpt>
      <trkpt lat="43.72908" lon="3.57475">
        <ele>297</ele>
        <time>2022-05-12T07:34:46.067Z</time>
      </trkpt>
      <trkpt lat="43.72904" lon="3.5747">
        <ele>297</ele>
        <time>2022-05-12T07:34:47.053Z</time>
      </trkpt>
      <trkpt lat="43.72899" lon="3.57466">
        <ele>297</ele>
        <time>2022-05-12T07:34:48.110Z</time>
      </trkpt>
      <trkpt lat="43.72895" lon="3.57462">
        <ele>297</ele>
        <time>2022-05-12T07:34:49.013Z</time>
      </trkpt>
      <trkpt lat="43.72891" lon="3.57457">
        <ele>297</ele>
        <time>2022-05-12T07:34:49.999Z</time>
      </trkpt>
      <trkpt lat="43.72886" lon="3.57454">
        <ele>295</ele>
        <time>2022-05-12T07:34:50.484Z</time>
      </trkpt>
      <trkpt lat="43.72881" lon="3.57451">
        <ele>295</ele>
        <time>2022-05-12T07:34:51.481Z</time>
      </trkpt>
      <trkpt lat="43.72877" lon="3.57448">
        <ele>295</ele>
        <time>2022-05-12T07:34:52.314Z</time>
      </trkpt>
      <trkpt lat="43.72874" lon="3.57442">
        <ele>295</ele>
        <time>2022-05-12T07:34:53.278Z</time>
      </trkpt>
      <trkpt lat="43.72871" lon="3.57437">
        <ele>295</ele>
        <time>2022-05-12T07:34:54.138Z</time>
      </trkpt>
      <trkpt lat="43.7287" lon="3.57431">
        <ele>295</ele>
        <time>2022-05-12T07:34:54.952Z</time>
      </trkpt>
      <trkpt lat="43.72868" lon="3.57425">
        <ele>295</ele>
        <time>2022-05-12T07:34:55.825Z</time>
      </trkpt>
      <trkpt lat="43.72866" lon="3.57419">
        <ele>295</ele>
        <time>2022-05-12T07:34:56.699Z</time>
      </trkpt>
      <trkpt lat="43.72865" lon="3.57414">
        <ele>295</ele>
        <time>2022-05-12T07:34:57.385Z</time>
      </trkpt>
      <trkpt lat="43.72864" lon="3.57408">
        <ele>295</ele>
        <time>2022-05-12T07:34:58.199Z</time>
      </trkpt>
      <trkpt lat="43.72863" lon="3.57402">
        <ele>294</ele>
        <time>2022-05-12T07:34:58.595Z</time>
      </trkpt>
      <trkpt lat="43.72861" lon="3.57396">
        <ele>294</ele>
        <time>2022-05-12T07:34:59.469Z</time>
      </trkpt>
      <trkpt lat="43.7286" lon="3.5739">
        <ele>294</ele>
        <time>2022-05-12T07:35:00.283Z</time>
      </trkpt>
      <trkpt lat="43.72858" lon="3.57385">
        <ele>294</ele>
        <time>2022-05-12T07:35:01.038Z</time>
      </trkpt>
      <trkpt lat="43.72856" lon="3.57379">
        <ele>294</ele>
        <time>2022-05-12T07:35:01.912Z</time>
      </trkpt>
      <trkpt lat="43.72855" lon="3.57374">
        <ele>294</ele>
        <time>2022-05-12T07:35:02.598Z</time>
      </trkpt>
      <trkpt lat="43.72854" lon="3.57368">
        <ele>294</ele>
        <time>2022-05-12T07:35:03.412Z</time>
      </trkpt>
      <trkpt lat="43.72852" lon="3.57363">
        <ele>294</ele>
        <time>2022-05-12T07:35:04.167Z</time>
      </trkpt>
      <trkpt lat="43.7285" lon="3.57358">
        <ele>294</ele>
        <time>2022-05-12T07:35:04.923Z</time>
      </trkpt>
      <trkpt lat="43.72848" lon="3.57352">
        <ele>294</ele>
        <time>2022-05-12T07:35:05.796Z</time>
      </trkpt>
      <trkpt lat="43.72847" lon="3.57347">
        <ele>294</ele>
        <time>2022-05-12T07:35:06.482Z</time>
      </trkpt>
      <trkpt lat="43.72845" lon="3.57341">
        <ele>294</ele>
        <time>2022-05-12T07:35:07.356Z</time>
      </trkpt>
      <trkpt lat="43.72844" lon="3.57335">
        <ele>294</ele>
        <time>2022-05-12T07:35:08.170Z</time>
      </trkpt>
      <trkpt lat="43.72842" lon="3.57329">
        <ele>294</ele>
        <time>2022-05-12T07:35:09.044Z</time>
      </trkpt>
      <trkpt lat="43.72839" lon="3.57324">
        <ele>294</ele>
        <time>2022-05-12T07:35:09.903Z</time>
      </trkpt>
      <trkpt lat="43.72836" lon="3.57319">
        <ele>294</ele>
        <time>2022-05-12T07:35:10.762Z</time>
      </trkpt>
      <trkpt lat="43.72833" lon="3.57314">
        <ele>294</ele>
        <time>2022-05-12T07:35:11.621Z</time>
      </trkpt>
      <trkpt lat="43.72831" lon="3.57307">
        <ele>294</ele>
        <time>2022-05-12T07:35:12.616Z</time>
      </trkpt>
      <trkpt lat="43.72829" lon="3.57301">
        <ele>294</ele>
        <time>2022-05-12T07:35:13.490Z</time>
      </trkpt>
      <trkpt lat="43.72828" lon="3.57296">
        <ele>294</ele>
        <time>2022-05-12T07:35:14.176Z</time>
      </trkpt>
      <trkpt lat="43.72826" lon="3.5729">
        <ele>293</ele>
        <time>2022-05-12T07:35:14.601Z</time>
      </trkpt>
      <trkpt lat="43.72824" lon="3.57286">
        <ele>293</ele>
        <time>2022-05-12T07:35:15.244Z</time>
      </trkpt>
      <trkpt lat="43.72821" lon="3.57282">
        <ele>293</ele>
        <time>2022-05-12T07:35:16.006Z</time>
      </trkpt>
      <trkpt lat="43.72818" lon="3.57278">
        <ele>293</ele>
        <time>2022-05-12T07:35:16.769Z</time>
      </trkpt>
      <trkpt lat="43.72816" lon="3.57273">
        <ele>293</ele>
        <time>2022-05-12T07:35:17.524Z</time>
      </trkpt>
      <trkpt lat="43.72814" lon="3.57269">
        <ele>293</ele>
        <time>2022-05-12T07:35:18.167Z</time>
      </trkpt>
      <trkpt lat="43.72812" lon="3.57264">
        <ele>293</ele>
        <time>2022-05-12T07:35:18.923Z</time>
      </trkpt>
      <trkpt lat="43.7281" lon="3.57259">
        <ele>293</ele>
        <time>2022-05-12T07:35:19.678Z</time>
      </trkpt>
      <trkpt lat="43.72807" lon="3.57255">
        <ele>293</ele>
        <time>2022-05-12T07:35:20.441Z</time>
      </trkpt>
      <trkpt lat="43.72804" lon="3.57251">
        <ele>293</ele>
        <time>2022-05-12T07:35:21.203Z</time>
      </trkpt>
      <trkpt lat="43.72801" lon="3.57248">
        <ele>292</ele>
        <time>2022-05-12T07:35:21.532Z</time>
      </trkpt>
      <trkpt lat="43.72798" lon="3.57249">
        <ele>292</ele>
        <time>2022-05-12T07:35:22.097Z</time>
      </trkpt>
      <trkpt lat="43.72796" lon="3.57251">
        <ele>292</ele>
        <time>2022-05-12T07:35:22.548Z</time>
      </trkpt>
      <trkpt lat="43.72793" lon="3.57254">
        <ele>292</ele>
        <time>2022-05-12T07:35:23.225Z</time>
      </trkpt>
      <trkpt lat="43.72791" lon="3.57258">
        <ele>292</ele>
        <time>2022-05-12T07:35:23.869Z</time>
      </trkpt>
      <trkpt lat="43.7279" lon="3.57262">
        <ele>292</ele>
        <time>2022-05-12T07:35:24.428Z</time>
      </trkpt>
      <trkpt lat="43.72789" lon="3.57266">
        <ele>292</ele>
        <time>2022-05-12T07:35:24.988Z</time>
      </trkpt>
      <trkpt lat="43.72787" lon="3.5727">
        <ele>292</ele>
        <time>2022-05-12T07:35:25.631Z</time>
      </trkpt>
      <trkpt lat="43.72785" lon="3.57274">
        <ele>292</ele>
        <time>2022-05-12T07:35:26.274Z</time>
      </trkpt>
      <trkpt lat="43.72783" lon="3.57278">
        <ele>292</ele>
        <time>2022-05-12T07:35:26.917Z</time>
      </trkpt>
      <trkpt lat="43.72782" lon="3.57281">
        <ele>290</ele>
        <time>2022-05-12T07:35:27.130Z</time>
      </trkpt>
      <trkpt lat="43.7278" lon="3.57284">
        <ele>290</ele>
        <time>2022-05-12T07:35:27.669Z</time>
      </trkpt>
      <trkpt lat="43.72776" lon="3.57296">
        <ele>290</ele>
        <time>2022-05-12T07:35:29.416Z</time>
      </trkpt>
      <trkpt lat="43.72772" lon="3.57313">
        <ele>290</ele>
        <time>2022-05-12T07:35:31.780Z</time>
      </trkpt>
      <trkpt lat="43.72769" lon="3.57328">
        <ele>290</ele>
        <time>2022-05-12T07:35:33.838Z</time>
      </trkpt>
      <trkpt lat="43.72767" lon="3.57339">
        <ele>290</ele>
        <time>2022-05-12T07:35:35.338Z</time>
      </trkpt>
      <trkpt lat="43.72766" lon="3.57344">
        <ele>290</ele>
        <time>2022-05-12T07:35:36.023Z</time>
      </trkpt>
      <trkpt lat="43.72765" lon="3.5735">
        <ele>290</ele>
        <time>2022-05-12T07:35:36.838Z</time>
      </trkpt>
      <trkpt lat="43.72763" lon="3.57355">
        <ele>290</ele>
        <time>2022-05-12T07:35:37.593Z</time>
      </trkpt>
      <trkpt lat="43.72762" lon="3.57361">
        <ele>290</ele>
        <time>2022-05-12T07:35:38.407Z</time>
      </trkpt>
      <trkpt lat="43.72759" lon="3.57365">
        <ele>290</ele>
        <time>2022-05-12T07:35:39.169Z</time>
      </trkpt>
      <trkpt lat="43.72756" lon="3.57369">
        <ele>290</ele>
        <time>2022-05-12T07:35:39.932Z</time>
      </trkpt>
      <trkpt lat="43.72754" lon="3.57373">
        <ele>290</ele>
        <time>2022-05-12T07:35:40.575Z</time>
      </trkpt>
      <trkpt lat="43.72751" lon="3.57376">
        <ele>290</ele>
        <time>2022-05-12T07:35:41.252Z</time>
      </trkpt>
      <trkpt lat="43.72748" lon="3.57378">
        <ele>290</ele>
        <time>2022-05-12T07:35:41.861Z</time>
      </trkpt>
      <trkpt lat="43.72745" lon="3.57381">
        <ele>290</ele>
        <time>2022-05-12T07:35:42.538Z</time>
      </trkpt>
      <trkpt lat="43.72742" lon="3.57382">
        <ele>290</ele>
        <time>2022-05-12T07:35:43.103Z</time>
      </trkpt>
      <trkpt lat="43.72738" lon="3.57383">
        <ele>290</ele>
        <time>2022-05-12T07:35:43.847Z</time>
      </trkpt>
      <trkpt lat="43.72734" lon="3.57383">
        <ele>290</ele>
        <time>2022-05-12T07:35:44.578Z</time>
      </trkpt>
      <trkpt lat="43.72731" lon="3.57383">
        <ele>290</ele>
        <time>2022-05-12T07:35:45.127Z</time>
      </trkpt>
      <trkpt lat="43.72727" lon="3.57384">
        <ele>290</ele>
        <time>2022-05-12T07:35:45.871Z</time>
      </trkpt>
      <trkpt lat="43.72724" lon="3.57387">
        <ele>290</ele>
        <time>2022-05-12T07:35:46.548Z</time>
      </trkpt>
      <trkpt lat="43.72722" lon="3.57392">
        <ele>290</ele>
        <time>2022-05-12T07:35:47.304Z</time>
      </trkpt>
      <trkpt lat="43.72721" lon="3.57397">
        <ele>290</ele>
        <time>2022-05-12T07:35:47.990Z</time>
      </trkpt>
      <trkpt lat="43.72721" lon="3.57403">
        <ele>290</ele>
        <time>2022-05-12T07:35:48.783Z</time>
      </trkpt>
      <trkpt lat="43.72721" lon="3.57408">
        <ele>290</ele>
        <time>2022-05-12T07:35:49.444Z</time>
      </trkpt>
      <trkpt lat="43.72721" lon="3.57412">
        <ele>290</ele>
        <time>2022-05-12T07:35:49.973Z</time>
      </trkpt>
      <trkpt lat="43.7272" lon="3.57417">
        <ele>290</ele>
        <time>2022-05-12T07:35:50.659Z</time>
      </trkpt>
      <trkpt lat="43.7272" lon="3.57421">
        <ele>290</ele>
        <time>2022-05-12T07:35:51.188Z</time>
      </trkpt>
      <trkpt lat="43.7272" lon="3.57425">
        <ele>290</ele>
        <time>2022-05-12T07:35:51.716Z</time>
      </trkpt>
      <trkpt lat="43.7272" lon="3.57429">
        <ele>290</ele>
        <time>2022-05-12T07:35:52.245Z</time>
      </trkpt>
      <trkpt lat="43.7272" lon="3.57434">
        <ele>290</ele>
        <time>2022-05-12T07:35:52.906Z</time>
      </trkpt>
      <trkpt lat="43.7272" lon="3.57439">
        <ele>290</ele>
        <time>2022-05-12T07:35:53.567Z</time>
      </trkpt>
      <trkpt lat="43.7272" lon="3.57445">
        <ele>290</ele>
        <time>2022-05-12T07:35:54.361Z</time>
      </trkpt>
      <trkpt lat="43.72719" lon="3.5745">
        <ele>289</ele>
        <time>2022-05-12T07:35:54.695Z</time>
      </trkpt>
      <trkpt lat="43.72718" lon="3.57455">
        <ele>289</ele>
        <time>2022-05-12T07:35:55.380Z</time>
      </trkpt>
      <trkpt lat="43.72718" lon="3.5746">
        <ele>289</ele>
        <time>2022-05-12T07:35:56.041Z</time>
      </trkpt>
      <trkpt lat="43.72719" lon="3.57465">
        <ele>289</ele>
        <time>2022-05-12T07:35:56.727Z</time>
      </trkpt>
      <trkpt lat="43.72719" lon="3.5747">
        <ele>289</ele>
        <time>2022-05-12T07:35:57.388Z</time>
      </trkpt>
      <trkpt lat="43.72719" lon="3.57474">
        <ele>289</ele>
        <time>2022-05-12T07:35:57.917Z</time>
      </trkpt>
      <trkpt lat="43.72718" lon="3.57478">
        <ele>289</ele>
        <time>2022-05-12T07:35:58.477Z</time>
      </trkpt>
      <trkpt lat="43.72719" lon="3.57483">
        <ele>289</ele>
        <time>2022-05-12T07:35:59.163Z</time>
      </trkpt>
      <trkpt lat="43.72719" lon="3.57488">
        <ele>289</ele>
        <time>2022-05-12T07:35:59.824Z</time>
      </trkpt>
      <trkpt lat="43.72719" lon="3.57493">
        <ele>289</ele>
        <time>2022-05-12T07:36:00.485Z</time>
      </trkpt>
      <trkpt lat="43.72719" lon="3.57498">
        <ele>289</ele>
        <time>2022-05-12T07:36:01.146Z</time>
      </trkpt>
      <trkpt lat="43.72718" lon="3.57503">
        <ele>289</ele>
        <time>2022-05-12T07:36:01.832Z</time>
      </trkpt>
      <trkpt lat="43.72718" lon="3.57508">
        <ele>289</ele>
        <time>2022-05-12T07:36:02.493Z</time>
      </trkpt>
      <trkpt lat="43.72718" lon="3.57513">
        <ele>289</ele>
        <time>2022-05-12T07:36:03.154Z</time>
      </trkpt>
      <trkpt lat="43.72718" lon="3.57518">
        <ele>289</ele>
        <time>2022-05-12T07:36:03.815Z</time>
      </trkpt>
      <trkpt lat="43.72718" lon="3.57523">
        <ele>289</ele>
        <time>2022-05-12T07:36:04.476Z</time>
      </trkpt>
      <trkpt lat="43.72718" lon="3.57528">
        <ele>289</ele>
        <time>2022-05-12T07:36:05.137Z</time>
      </trkpt>
      <trkpt lat="43.72718" lon="3.57533">
        <ele>289</ele>
        <time>2022-05-12T07:36:05.798Z</time>
      </trkpt>
      <trkpt lat="43.72717" lon="3.57538">
        <ele>289</ele>
        <time>2022-05-12T07:36:06.484Z</time>
      </trkpt>
      <trkpt lat="43.72717" lon="3.57543">
        <ele>289</ele>
        <time>2022-05-12T07:36:07.145Z</time>
      </trkpt>
      <trkpt lat="43.72717" lon="3.57548">
        <ele>289</ele>
        <time>2022-05-12T07:36:07.806Z</time>
      </trkpt>
      <trkpt lat="43.72716" lon="3.57552">
        <ele>289</ele>
        <time>2022-05-12T07:36:08.366Z</time>
      </trkpt>
      <trkpt lat="43.72715" lon="3.57556">
        <ele>289</ele>
        <time>2022-05-12T07:36:08.926Z</time>
      </trkpt>
      <trkpt lat="43.72714" lon="3.5756">
        <ele>289</ele>
        <time>2022-05-12T07:36:09.485Z</time>
      </trkpt>
      <trkpt lat="43.72714" lon="3.57565">
        <ele>289</ele>
        <time>2022-05-12T07:36:10.146Z</time>
      </trkpt>
      <trkpt lat="43.72713" lon="3.5757">
        <ele>289</ele>
        <time>2022-05-12T07:36:10.832Z</time>
      </trkpt>
      <trkpt lat="43.72711" lon="3.57576">
        <ele>289</ele>
        <time>2022-05-12T07:36:11.706Z</time>
      </trkpt>
      <trkpt lat="43.72708" lon="3.57581">
        <ele>289</ele>
        <time>2022-05-12T07:36:12.565Z</time>
      </trkpt>
      <trkpt lat="43.72705" lon="3.57585">
        <ele>289</ele>
        <time>2022-05-12T07:36:13.327Z</time>
      </trkpt>
      <trkpt lat="43.72702" lon="3.57589">
        <ele>289</ele>
        <time>2022-05-12T07:36:14.089Z</time>
      </trkpt>
      <trkpt lat="43.72699" lon="3.57594">
        <ele>289</ele>
        <time>2022-05-12T07:36:14.949Z</time>
      </trkpt>
      <trkpt lat="43.72696" lon="3.57598">
        <ele>289</ele>
        <time>2022-05-12T07:36:15.711Z</time>
      </trkpt>
      <trkpt lat="43.72694" lon="3.57602">
        <ele>289</ele>
        <time>2022-05-12T07:36:16.354Z</time>
      </trkpt>
      <trkpt lat="43.72691" lon="3.57607">
        <ele>289</ele>
        <time>2022-05-12T07:36:17.213Z</time>
      </trkpt>
      <trkpt lat="43.72689" lon="3.57611">
        <ele>289</ele>
        <time>2022-05-12T07:36:17.856Z</time>
      </trkpt>
      <trkpt lat="43.72685" lon="3.57615">
        <ele>289</ele>
        <time>2022-05-12T07:36:18.759Z</time>
      </trkpt>
      <trkpt lat="43.72682" lon="3.57618">
        <ele>289</ele>
        <time>2022-05-12T07:36:19.436Z</time>
      </trkpt>
      <trkpt lat="43.72679" lon="3.57621">
        <ele>289</ele>
        <time>2022-05-12T07:36:20.114Z</time>
      </trkpt>
      <trkpt lat="43.72676" lon="3.57624">
        <ele>289</ele>
        <time>2022-05-12T07:36:20.791Z</time>
      </trkpt>
      <trkpt lat="43.72673" lon="3.57627">
        <ele>289</ele>
        <time>2022-05-12T07:36:21.468Z</time>
      </trkpt>
      <trkpt lat="43.72671" lon="3.57631">
        <ele>289</ele>
        <time>2022-05-12T07:36:22.111Z</time>
      </trkpt>
      <trkpt lat="43.72669" lon="3.57636">
        <ele>289</ele>
        <time>2022-05-12T07:36:22.867Z</time>
      </trkpt>
      <trkpt lat="43.72668" lon="3.57641">
        <ele>289</ele>
        <time>2022-05-12T07:36:23.553Z</time>
      </trkpt>
      <trkpt lat="43.72668" lon="3.57646">
        <ele>289</ele>
        <time>2022-05-12T07:36:24.214Z</time>
      </trkpt>
      <trkpt lat="43.72669" lon="3.57651">
        <ele>289</ele>
        <time>2022-05-12T07:36:24.900Z</time>
      </trkpt>
      <trkpt lat="43.7267" lon="3.57657">
        <ele>289</ele>
        <time>2022-05-12T07:36:25.714Z</time>
      </trkpt>
      <trkpt lat="43.72671" lon="3.57662">
        <ele>289</ele>
        <time>2022-05-12T07:36:26.400Z</time>
      </trkpt>
      <trkpt lat="43.72671" lon="3.57667">
        <ele>289</ele>
        <time>2022-05-12T07:36:27.061Z</time>
      </trkpt>
      <trkpt lat="43.7267" lon="3.57672">
        <ele>289</ele>
        <time>2022-05-12T07:36:27.747Z</time>
      </trkpt>
      <trkpt lat="43.72667" lon="3.57677">
        <ele>288</ele>
        <time>2022-05-12T07:36:28.165Z</time>
      </trkpt>
      <trkpt lat="43.72666" lon="3.57682">
        <ele>288</ele>
        <time>2022-05-12T07:36:28.851Z</time>
      </trkpt>
      <trkpt lat="43.7266" lon="3.57696">
        <ele>288</ele>
        <time>2022-05-12T07:36:31.003Z</time>
      </trkpt>
      <trkpt lat="43.72653" lon="3.57709">
        <ele>288</ele>
        <time>2022-05-12T07:36:33.146Z</time>
      </trkpt>
      <trkpt lat="43.7265" lon="3.57713">
        <ele>288</ele>
        <time>2022-05-12T07:36:33.908Z</time>
      </trkpt>
      <trkpt lat="43.72647" lon="3.57716">
        <ele>288</ele>
        <time>2022-05-12T07:36:34.585Z</time>
      </trkpt>
      <trkpt lat="43.72644" lon="3.57719">
        <ele>288</ele>
        <time>2022-05-12T07:36:35.263Z</time>
      </trkpt>
      <trkpt lat="43.72641" lon="3.57722">
        <ele>288</ele>
        <time>2022-05-12T07:36:35.940Z</time>
      </trkpt>
      <trkpt lat="43.72638" lon="3.57726">
        <ele>288</ele>
        <time>2022-05-12T07:36:36.702Z</time>
      </trkpt>
      <trkpt lat="43.72636" lon="3.5773">
        <ele>288</ele>
        <time>2022-05-12T07:36:37.345Z</time>
      </trkpt>
      <trkpt lat="43.72634" lon="3.57734">
        <ele>288</ele>
        <time>2022-05-12T07:36:37.988Z</time>
      </trkpt>
      <trkpt lat="43.72632" lon="3.57739">
        <ele>288</ele>
        <time>2022-05-12T07:36:38.744Z</time>
      </trkpt>
      <trkpt lat="43.7263" lon="3.57744">
        <ele>288</ele>
        <time>2022-05-12T07:36:39.499Z</time>
      </trkpt>
      <trkpt lat="43.72629" lon="3.57749">
        <ele>288</ele>
        <time>2022-05-12T07:36:40.185Z</time>
      </trkpt>
      <trkpt lat="43.72626" lon="3.57754">
        <ele>288</ele>
        <time>2022-05-12T07:36:41.045Z</time>
      </trkpt>
      <trkpt lat="43.72624" lon="3.57759">
        <ele>288</ele>
        <time>2022-05-12T07:36:41.800Z</time>
      </trkpt>
      <trkpt lat="43.72623" lon="3.57764">
        <ele>286</ele>
        <time>2022-05-12T07:36:42.134Z</time>
      </trkpt>
      <trkpt lat="43.72621" lon="3.57769">
        <ele>286</ele>
        <time>2022-05-12T07:36:42.890Z</time>
      </trkpt>
      <trkpt lat="43.72619" lon="3.57773">
        <ele>286</ele>
        <time>2022-05-12T07:36:43.533Z</time>
      </trkpt>
      <trkpt lat="43.72617" lon="3.57778">
        <ele>286</ele>
        <time>2022-05-12T07:36:44.288Z</time>
      </trkpt>
      <trkpt lat="43.72615" lon="3.57782">
        <ele>286</ele>
        <time>2022-05-12T07:36:44.931Z</time>
      </trkpt>
      <trkpt lat="43.72613" lon="3.57786">
        <ele>286</ele>
        <time>2022-05-12T07:36:45.574Z</time>
      </trkpt>
      <trkpt lat="43.72611" lon="3.5779">
        <ele>286</ele>
        <time>2022-05-12T07:36:46.218Z</time>
      </trkpt>
      <trkpt lat="43.72608" lon="3.57793">
        <ele>286</ele>
        <time>2022-05-12T07:36:46.895Z</time>
      </trkpt>
      <trkpt lat="43.72606" lon="3.57796">
        <ele>286</ele>
        <time>2022-05-12T07:36:47.434Z</time>
      </trkpt>
      <trkpt lat="43.72603" lon="3.578">
        <ele>286</ele>
        <time>2022-05-12T07:36:48.197Z</time>
      </trkpt>
      <trkpt lat="43.72601" lon="3.57805">
        <ele>285</ele>
        <time>2022-05-12T07:36:48.564Z</time>
      </trkpt>
      <trkpt lat="43.72599" lon="3.57809">
        <ele>285</ele>
        <time>2022-05-12T07:36:49.207Z</time>
      </trkpt>
      <trkpt lat="43.72596" lon="3.57813">
        <ele>285</ele>
        <time>2022-05-12T07:36:49.970Z</time>
      </trkpt>
      <trkpt lat="43.72593" lon="3.57818">
        <ele>285</ele>
        <time>2022-05-12T07:36:50.829Z</time>
      </trkpt>
      <trkpt lat="43.7259" lon="3.57821">
        <ele>285</ele>
        <time>2022-05-12T07:36:51.506Z</time>
      </trkpt>
      <trkpt lat="43.72586" lon="3.57824">
        <ele>285</ele>
        <time>2022-05-12T07:36:52.338Z</time>
      </trkpt>
      <trkpt lat="43.72583" lon="3.57826">
        <ele>285</ele>
        <time>2022-05-12T07:36:52.948Z</time>
      </trkpt>
      <trkpt lat="43.72571" lon="3.57834">
        <ele>285</ele>
        <time>2022-05-12T07:36:55.385Z</time>
      </trkpt>
      <trkpt lat="43.72563" lon="3.57841">
        <ele>285</ele>
        <time>2022-05-12T07:36:57.116Z</time>
      </trkpt>
      <trkpt lat="43.7256" lon="3.57845">
        <ele>285</ele>
        <time>2022-05-12T07:36:57.879Z</time>
      </trkpt>
      <trkpt lat="43.72557" lon="3.5785">
        <ele>285</ele>
        <time>2022-05-12T07:36:58.738Z</time>
      </trkpt>
      <trkpt lat="43.72554" lon="3.57855">
        <ele>285</ele>
        <time>2022-05-12T07:36:59.597Z</time>
      </trkpt>
      <trkpt lat="43.72552" lon="3.57859">
        <ele>285</ele>
        <time>2022-05-12T07:37:00.240Z</time>
      </trkpt>
      <trkpt lat="43.72549" lon="3.57863">
        <ele>285</ele>
        <time>2022-05-12T07:37:01.002Z</time>
      </trkpt>
      <trkpt lat="43.72546" lon="3.57866">
        <ele>285</ele>
        <time>2022-05-12T07:37:01.680Z</time>
      </trkpt>
      <trkpt lat="43.72544" lon="3.5787">
        <ele>285</ele>
        <time>2022-05-12T07:37:02.323Z</time>
      </trkpt>
      <trkpt lat="43.72541" lon="3.57874">
        <ele>285</ele>
        <time>2022-05-12T07:37:03.085Z</time>
      </trkpt>
      <trkpt lat="43.72538" lon="3.57877">
        <ele>285</ele>
        <time>2022-05-12T07:37:03.762Z</time>
      </trkpt>
      <trkpt lat="43.72534" lon="3.57879">
        <ele>285</ele>
        <time>2022-05-12T07:37:04.540Z</time>
      </trkpt>
      <trkpt lat="43.7253" lon="3.57879">
        <ele>285</ele>
        <time>2022-05-12T07:37:05.272Z</time>
      </trkpt>
      <trkpt lat="43.72526" lon="3.5788">
        <ele>285</ele>
        <time>2022-05-12T07:37:06.016Z</time>
      </trkpt>
      <trkpt lat="43.72522" lon="3.57883">
        <ele>285</ele>
        <time>2022-05-12T07:37:06.848Z</time>
      </trkpt>
      <trkpt lat="43.72515" lon="3.5789">
        <ele>285</ele>
        <time>2022-05-12T07:37:08.428Z</time>
      </trkpt>
      <trkpt lat="43.72507" lon="3.57897">
        <ele>285</ele>
        <time>2022-05-12T07:37:10.160Z</time>
      </trkpt>
      <trkpt lat="43.72503" lon="3.579">
        <ele>285</ele>
        <time>2022-05-12T07:37:10.992Z</time>
      </trkpt>
      <trkpt lat="43.72494" lon="3.57902">
        <ele>284</ele>
        <time>2022-05-12T07:37:11.804Z</time>
      </trkpt>
      <trkpt lat="43.72481" lon="3.57901">
        <ele>284</ele>
        <time>2022-05-12T07:37:14.186Z</time>
      </trkpt>
      <trkpt lat="43.72477" lon="3.579">
        <ele>284</ele>
        <time>2022-05-12T07:37:14.930Z</time>
      </trkpt>
      <trkpt lat="43.72473" lon="3.57899">
        <ele>284</ele>
        <time>2022-05-12T07:37:15.673Z</time>
      </trkpt>
      <trkpt lat="43.72469" lon="3.57897">
        <ele>284</ele>
        <time>2022-05-12T07:37:16.452Z</time>
      </trkpt>
      <trkpt lat="43.72465" lon="3.57896">
        <ele>284</ele>
        <time>2022-05-12T07:37:17.195Z</time>
      </trkpt>
      <trkpt lat="43.7246" lon="3.57896">
        <ele>284</ele>
        <time>2022-05-12T07:37:18.110Z</time>
      </trkpt>
      <trkpt lat="43.72455" lon="3.57896">
        <ele>284</ele>
        <time>2022-05-12T07:37:19.025Z</time>
      </trkpt>
      <trkpt lat="43.72451" lon="3.57894">
        <ele>284</ele>
        <time>2022-05-12T07:37:19.803Z</time>
      </trkpt>
      <trkpt lat="43.72447" lon="3.57892">
        <ele>284</ele>
        <time>2022-05-12T07:37:20.581Z</time>
      </trkpt>
      <trkpt lat="43.72442" lon="3.5789">
        <ele>284</ele>
        <time>2022-05-12T07:37:21.533Z</time>
      </trkpt>
      <trkpt lat="43.72439" lon="3.57889">
        <ele>284</ele>
        <time>2022-05-12T07:37:22.098Z</time>
      </trkpt>
      <trkpt lat="43.72431" lon="3.57886">
        <ele>284</ele>
        <time>2022-05-12T07:37:23.614Z</time>
      </trkpt>
      <trkpt lat="43.72428" lon="3.57885">
        <ele>284</ele>
        <time>2022-05-12T07:37:24.179Z</time>
      </trkpt>
      <trkpt lat="43.72424" lon="3.57883">
        <ele>284</ele>
        <time>2022-05-12T07:37:24.957Z</time>
      </trkpt>
      <trkpt lat="43.7242" lon="3.57883">
        <ele>284</ele>
        <time>2022-05-12T07:37:25.689Z</time>
      </trkpt>
      <trkpt lat="43.72416" lon="3.57882">
        <ele>285</ele>
        <time>2022-05-12T07:37:28.557Z</time>
      </trkpt>
      <trkpt lat="43.72412" lon="3.57881">
        <ele>285</ele>
        <time>2022-05-12T07:37:29.301Z</time>
      </trkpt>
      <trkpt lat="43.72409" lon="3.57879">
        <ele>285</ele>
        <time>2022-05-12T07:37:29.910Z</time>
      </trkpt>
      <trkpt lat="43.72406" lon="3.57875">
        <ele>285</ele>
        <time>2022-05-12T07:37:30.673Z</time>
      </trkpt>
      <trkpt lat="43.72403" lon="3.5787">
        <ele>285</ele>
        <time>2022-05-12T07:37:31.532Z</time>
      </trkpt>
      <trkpt lat="43.72402" lon="3.57865">
        <ele>285</ele>
        <time>2022-05-12T07:37:32.218Z</time>
      </trkpt>
      <trkpt lat="43.72401" lon="3.57859">
        <ele>285</ele>
        <time>2022-05-12T07:37:33.032Z</time>
      </trkpt>
      <trkpt lat="43.72401" lon="3.57853">
        <ele>285</ele>
        <time>2022-05-12T07:37:33.825Z</time>
      </trkpt>
      <trkpt lat="43.72401" lon="3.57847">
        <ele>285</ele>
        <time>2022-05-12T07:37:34.619Z</time>
      </trkpt>
      <trkpt lat="43.724" lon="3.57841">
        <ele>285</ele>
        <time>2022-05-12T07:37:35.433Z</time>
      </trkpt>
      <trkpt lat="43.724" lon="3.57835">
        <ele>286</ele>
        <time>2022-05-12T07:37:38.493Z</time>
      </trkpt>
      <trkpt lat="43.72399" lon="3.57828">
        <ele>286</ele>
        <time>2022-05-12T07:37:39.436Z</time>
      </trkpt>
      <trkpt lat="43.72399" lon="3.57822">
        <ele>286</ele>
        <time>2022-05-12T07:37:40.229Z</time>
      </trkpt>
      <trkpt lat="43.72399" lon="3.57816">
        <ele>286</ele>
        <time>2022-05-12T07:37:41.023Z</time>
      </trkpt>
      <trkpt lat="43.724" lon="3.5781">
        <ele>286</ele>
        <time>2022-05-12T07:37:41.837Z</time>
      </trkpt>
      <trkpt lat="43.72401" lon="3.57804">
        <ele>286</ele>
        <time>2022-05-12T07:37:42.651Z</time>
      </trkpt>
      <trkpt lat="43.72402" lon="3.57798">
        <ele>286</ele>
        <time>2022-05-12T07:37:43.465Z</time>
      </trkpt>
      <trkpt lat="43.72403" lon="3.57792">
        <ele>286</ele>
        <time>2022-05-12T07:37:44.279Z</time>
      </trkpt>
      <trkpt lat="43.72404" lon="3.57787">
        <ele>286</ele>
        <time>2022-05-12T07:37:44.965Z</time>
      </trkpt>
      <trkpt lat="43.72405" lon="3.57781">
        <ele>286</ele>
        <time>2022-05-12T07:37:45.779Z</time>
      </trkpt>
      <trkpt lat="43.72406" lon="3.57776">
        <ele>287</ele>
        <time>2022-05-12T07:37:48.425Z</time>
      </trkpt>
      <trkpt lat="43.72407" lon="3.5777">
        <ele>287</ele>
        <time>2022-05-12T07:37:49.239Z</time>
      </trkpt>
      <trkpt lat="43.72407" lon="3.57764">
        <ele>287</ele>
        <time>2022-05-12T07:37:50.033Z</time>
      </trkpt>
      <trkpt lat="43.72408" lon="3.57758">
        <ele>287</ele>
        <time>2022-05-12T07:37:50.847Z</time>
      </trkpt>
      <trkpt lat="43.72408" lon="3.57752">
        <ele>287</ele>
        <time>2022-05-12T07:37:51.640Z</time>
      </trkpt>
      <trkpt lat="43.72408" lon="3.57746">
        <ele>287</ele>
        <time>2022-05-12T07:37:52.434Z</time>
      </trkpt>
      <trkpt lat="43.72408" lon="3.5774">
        <ele>287</ele>
        <time>2022-05-12T07:37:53.227Z</time>
      </trkpt>
      <trkpt lat="43.72407" lon="3.57734">
        <ele>287</ele>
        <time>2022-05-12T07:37:54.041Z</time>
      </trkpt>
      <trkpt lat="43.72407" lon="3.57728">
        <ele>287</ele>
        <time>2022-05-12T07:37:54.834Z</time>
      </trkpt>
      <trkpt lat="43.72406" lon="3.57722">
        <ele>287</ele>
        <time>2022-05-12T07:37:55.648Z</time>
      </trkpt>
      <trkpt lat="43.72406" lon="3.57716">
        <ele>288</ele>
        <time>2022-05-12T07:37:58.708Z</time>
      </trkpt>
      <trkpt lat="43.72405" lon="3.57709">
        <ele>288</ele>
        <time>2022-05-12T07:37:59.652Z</time>
      </trkpt>
      <trkpt lat="43.72405" lon="3.57703">
        <ele>288</ele>
        <time>2022-05-12T07:38:00.445Z</time>
      </trkpt>
      <trkpt lat="43.72405" lon="3.57697">
        <ele>288</ele>
        <time>2022-05-12T07:38:01.238Z</time>
      </trkpt>
      <trkpt lat="43.72405" lon="3.5769">
        <ele>288</ele>
        <time>2022-05-12T07:38:02.164Z</time>
      </trkpt>
      <trkpt lat="43.72405" lon="3.57683">
        <ele>288</ele>
        <time>2022-05-12T07:38:03.090Z</time>
      </trkpt>
      <trkpt lat="43.72404" lon="3.57677">
        <ele>288</ele>
        <time>2022-05-12T07:38:03.904Z</time>
      </trkpt>
      <trkpt lat="43.72404" lon="3.57671">
        <ele>288</ele>
        <time>2022-05-12T07:38:04.697Z</time>
      </trkpt>
      <trkpt lat="43.72404" lon="3.57665">
        <ele>288</ele>
        <time>2022-05-12T07:38:05.490Z</time>
      </trkpt>
      <trkpt lat="43.72403" lon="3.57659">
        <ele>288</ele>
        <time>2022-05-12T07:38:06.304Z</time>
      </trkpt>
      <trkpt lat="43.72402" lon="3.57654">
        <ele>288</ele>
        <time>2022-05-12T07:38:06.990Z</time>
      </trkpt>
      <trkpt lat="43.72401" lon="3.57649">
        <ele>288</ele>
        <time>2022-05-12T07:38:07.676Z</time>
      </trkpt>
      <trkpt lat="43.724" lon="3.57644">
        <ele>288</ele>
        <time>2022-05-12T07:38:08.362Z</time>
      </trkpt>
      <trkpt lat="43.72398" lon="3.57639">
        <ele>288</ele>
        <time>2022-05-12T07:38:09.118Z</time>
      </trkpt>
      <trkpt lat="43.72397" lon="3.57634">
        <ele>288</ele>
        <time>2022-05-12T07:38:09.804Z</time>
      </trkpt>
      <trkpt lat="43.72395" lon="3.57628">
        <ele>288</ele>
        <time>2022-05-12T07:38:10.677Z</time>
      </trkpt>
      <trkpt lat="43.72394" lon="3.57623">
        <ele>288</ele>
        <time>2022-05-12T07:38:11.363Z</time>
      </trkpt>
      <trkpt lat="43.72392" lon="3.57619">
        <ele>288</ele>
        <time>2022-05-12T07:38:12.007Z</time>
      </trkpt>
      <trkpt lat="43.72391" lon="3.57614">
        <ele>288</ele>
        <time>2022-05-12T07:38:12.693Z</time>
      </trkpt>
      <trkpt lat="43.72389" lon="3.57608">
        <ele>288</ele>
        <time>2022-05-12T07:38:13.566Z</time>
      </trkpt>
      <trkpt lat="43.72387" lon="3.57603">
        <ele>288</ele>
        <time>2022-05-12T07:38:14.322Z</time>
      </trkpt>
      <trkpt lat="43.72386" lon="3.57598">
        <ele>288</ele>
        <time>2022-05-12T07:38:15.008Z</time>
      </trkpt>
      <trkpt lat="43.72383" lon="3.57594">
        <ele>288</ele>
        <time>2022-05-12T07:38:15.770Z</time>
      </trkpt>
      <trkpt lat="43.7238" lon="3.5759">
        <ele>288</ele>
        <time>2022-05-12T07:38:16.532Z</time>
      </trkpt>
      <trkpt lat="43.72378" lon="3.57585">
        <ele>288</ele>
        <time>2022-05-12T07:38:17.288Z</time>
      </trkpt>
      <trkpt lat="43.72372" lon="3.57573">
        <ele>288</ele>
        <time>2022-05-12T07:38:19.217Z</time>
      </trkpt>
      <trkpt lat="43.72369" lon="3.5756">
        <ele>288</ele>
        <time>2022-05-12T07:38:21.022Z</time>
      </trkpt>
      <trkpt lat="43.72366" lon="3.57544">
        <ele>288</ele>
        <time>2022-05-12T07:38:23.207Z</time>
      </trkpt>
      <trkpt lat="43.72363" lon="3.57529">
        <ele>288</ele>
        <time>2022-05-12T07:38:25.265Z</time>
      </trkpt>
      <trkpt lat="43.72362" lon="3.57521">
        <ele>288</ele>
        <time>2022-05-12T07:38:26.338Z</time>
      </trkpt>
      <trkpt lat="43.72361" lon="3.57512">
        <ele>288</ele>
        <time>2022-05-12T07:38:27.542Z</time>
      </trkpt>
      <trkpt lat="43.72361" lon="3.57504">
        <ele>288</ele>
        <time>2022-05-12T07:38:28.600Z</time>
      </trkpt>
      <trkpt lat="43.7236" lon="3.57496">
        <ele>288</ele>
        <time>2022-05-12T07:38:29.674Z</time>
      </trkpt>
      <trkpt lat="43.72361" lon="3.57488">
        <ele>288</ele>
        <time>2022-05-12T07:38:30.747Z</time>
      </trkpt>
      <trkpt lat="43.72362" lon="3.57479">
        <ele>288</ele>
        <time>2022-05-12T07:38:31.951Z</time>
      </trkpt>
      <trkpt lat="43.72364" lon="3.57471">
        <ele>288</ele>
        <time>2022-05-12T07:38:33.070Z</time>
      </trkpt>
      <trkpt lat="43.72366" lon="3.57464">
        <ele>285</ele>
        <time>2022-05-12T07:38:33.555Z</time>
      </trkpt>
      <trkpt lat="43.72367" lon="3.57456">
        <ele>285</ele>
        <time>2022-05-12T07:38:34.628Z</time>
      </trkpt>
      <trkpt lat="43.72368" lon="3.57448">
        <ele>285</ele>
        <time>2022-05-12T07:38:35.702Z</time>
      </trkpt>
      <trkpt lat="43.72369" lon="3.5744">
        <ele>285</ele>
        <time>2022-05-12T07:38:36.775Z</time>
      </trkpt>
      <trkpt lat="43.7237" lon="3.57432">
        <ele>285</ele>
        <time>2022-05-12T07:38:37.849Z</time>
      </trkpt>
      <trkpt lat="43.72371" lon="3.57424">
        <ele>285</ele>
        <time>2022-05-12T07:38:38.922Z</time>
      </trkpt>
      <trkpt lat="43.72373" lon="3.57416">
        <ele>285</ele>
        <time>2022-05-12T07:38:40.041Z</time>
      </trkpt>
      <trkpt lat="43.72375" lon="3.57408">
        <ele>285</ele>
        <time>2022-05-12T07:38:41.161Z</time>
      </trkpt>
      <trkpt lat="43.72378" lon="3.574">
        <ele>285</ele>
        <time>2022-05-12T07:38:42.352Z</time>
      </trkpt>
      <trkpt lat="43.7238" lon="3.57392">
        <ele>285</ele>
        <time>2022-05-12T07:38:43.471Z</time>
      </trkpt>
      <trkpt lat="43.72382" lon="3.57384">
        <ele>283</ele>
        <time>2022-05-12T07:38:44.016Z</time>
      </trkpt>
      <trkpt lat="43.72384" lon="3.57376">
        <ele>283</ele>
        <time>2022-05-12T07:38:45.135Z</time>
      </trkpt>
      <trkpt lat="43.72386" lon="3.57368">
        <ele>283</ele>
        <time>2022-05-12T07:38:46.255Z</time>
      </trkpt>
      <trkpt lat="43.72387" lon="3.57359">
        <ele>283</ele>
        <time>2022-05-12T07:38:47.459Z</time>
      </trkpt>
      <trkpt lat="43.72387" lon="3.57351">
        <ele>283</ele>
        <time>2022-05-12T07:38:48.516Z</time>
      </trkpt>
      <trkpt lat="43.72387" lon="3.57342">
        <ele>283</ele>
        <time>2022-05-12T07:38:49.706Z</time>
      </trkpt>
      <trkpt lat="43.72385" lon="3.57324">
        <ele>283</ele>
        <time>2022-05-12T07:38:52.114Z</time>
      </trkpt>
      <trkpt lat="43.72384" lon="3.57307">
        <ele>283</ele>
        <time>2022-05-12T07:38:54.369Z</time>
      </trkpt>
      <trkpt lat="43.72384" lon="3.5729">
        <ele>282</ele>
        <time>2022-05-12T07:38:55.463Z</time>
      </trkpt>
      <trkpt lat="43.72386" lon="3.57273">
        <ele>282</ele>
        <time>2022-05-12T07:38:57.741Z</time>
      </trkpt>
      <trkpt lat="43.72388" lon="3.57265">
        <ele>282</ele>
        <time>2022-05-12T07:38:58.860Z</time>
      </trkpt>
      <trkpt lat="43.7239" lon="3.57257">
        <ele>282</ele>
        <time>2022-05-12T07:38:59.979Z</time>
      </trkpt>
      <trkpt lat="43.72393" lon="3.57249">
        <ele>282</ele>
        <time>2022-05-12T07:39:01.171Z</time>
      </trkpt>
      <trkpt lat="43.72396" lon="3.57242">
        <ele>282</ele>
        <time>2022-05-12T07:39:02.247Z</time>
      </trkpt>
      <trkpt lat="43.72399" lon="3.57235">
        <ele>282</ele>
        <time>2022-05-12T07:39:03.323Z</time>
      </trkpt>
      <trkpt lat="43.72402" lon="3.57228">
        <ele>282</ele>
        <time>2022-05-12T07:39:04.399Z</time>
      </trkpt>
      <trkpt lat="43.72405" lon="3.57221">
        <ele>280</ele>
        <time>2022-05-12T07:39:04.923Z</time>
      </trkpt>
      <trkpt lat="43.72408" lon="3.57213">
        <ele>280</ele>
        <time>2022-05-12T07:39:06.114Z</time>
      </trkpt>
      <trkpt lat="43.72411" lon="3.57206">
        <ele>280</ele>
        <time>2022-05-12T07:39:07.190Z</time>
      </trkpt>
      <trkpt lat="43.72414" lon="3.57198">
        <ele>280</ele>
        <time>2022-05-12T07:39:08.382Z</time>
      </trkpt>
      <trkpt lat="43.72416" lon="3.5719">
        <ele>280</ele>
        <time>2022-05-12T07:39:09.501Z</time>
      </trkpt>
      <trkpt lat="43.72419" lon="3.57182">
        <ele>280</ele>
        <time>2022-05-12T07:39:10.693Z</time>
      </trkpt>
      <trkpt lat="43.72422" lon="3.57174">
        <ele>280</ele>
        <time>2022-05-12T07:39:11.885Z</time>
      </trkpt>
      <trkpt lat="43.72425" lon="3.57166">
        <ele>280</ele>
        <time>2022-05-12T07:39:13.076Z</time>
      </trkpt>
      <trkpt lat="43.7243" lon="3.57159">
        <ele>280</ele>
        <time>2022-05-12T07:39:14.378Z</time>
      </trkpt>
      <trkpt lat="43.72435" lon="3.57153">
        <ele>280</ele>
        <time>2022-05-12T07:39:15.588Z</time>
      </trkpt>
      <trkpt lat="43.7244" lon="3.57147">
        <ele>278</ele>
        <time>2022-05-12T07:39:16.178Z</time>
      </trkpt>
      <trkpt lat="43.72446" lon="3.57143">
        <ele>278</ele>
        <time>2022-05-12T07:39:17.396Z</time>
      </trkpt>
      <trkpt lat="43.72452" lon="3.57138">
        <ele>278</ele>
        <time>2022-05-12T07:39:18.678Z</time>
      </trkpt>
      <trkpt lat="43.72458" lon="3.57134">
        <ele>278</ele>
        <time>2022-05-12T07:39:19.896Z</time>
      </trkpt>
      <trkpt lat="43.72464" lon="3.57129">
        <ele>278</ele>
        <time>2022-05-12T07:39:21.178Z</time>
      </trkpt>
      <trkpt lat="43.7247" lon="3.57124">
        <ele>278</ele>
        <time>2022-05-12T07:39:22.459Z</time>
      </trkpt>
      <trkpt lat="43.72476" lon="3.57119">
        <ele>278</ele>
        <time>2022-05-12T07:39:23.740Z</time>
      </trkpt>
      <trkpt lat="43.72481" lon="3.57114">
        <ele>278</ele>
        <time>2022-05-12T07:39:24.869Z</time>
      </trkpt>
      <trkpt lat="43.72487" lon="3.57109">
        <ele>278</ele>
        <time>2022-05-12T07:39:26.151Z</time>
      </trkpt>
      <trkpt lat="43.72493" lon="3.57105">
        <ele>278</ele>
        <time>2022-05-12T07:39:27.369Z</time>
      </trkpt>
      <trkpt lat="43.72498" lon="3.571">
        <ele>276</ele>
        <time>2022-05-12T07:39:27.918Z</time>
      </trkpt>
      <trkpt lat="43.72503" lon="3.57095">
        <ele>276</ele>
        <time>2022-05-12T07:39:29.047Z</time>
      </trkpt>
      <trkpt lat="43.72508" lon="3.5709">
        <ele>276</ele>
        <time>2022-05-12T07:39:30.176Z</time>
      </trkpt>
      <trkpt lat="43.72513" lon="3.57085">
        <ele>276</ele>
        <time>2022-05-12T07:39:31.304Z</time>
      </trkpt>
      <trkpt lat="43.72518" lon="3.5708">
        <ele>276</ele>
        <time>2022-05-12T07:39:32.433Z</time>
      </trkpt>
      <trkpt lat="43.72523" lon="3.57075">
        <ele>276</ele>
        <time>2022-05-12T07:39:33.562Z</time>
      </trkpt>
      <trkpt lat="43.72527" lon="3.5707">
        <ele>276</ele>
        <time>2022-05-12T07:39:34.548Z</time>
      </trkpt>
      <trkpt lat="43.72532" lon="3.57066">
        <ele>276</ele>
        <time>2022-05-12T07:39:35.604Z</time>
      </trkpt>
      <trkpt lat="43.72536" lon="3.57061">
        <ele>276</ele>
        <time>2022-05-12T07:39:36.591Z</time>
      </trkpt>
      <trkpt lat="43.7254" lon="3.57057">
        <ele>276</ele>
        <time>2022-05-12T07:39:37.494Z</time>
      </trkpt>
      <trkpt lat="43.72545" lon="3.57053">
        <ele>276</ele>
        <time>2022-05-12T07:39:38.550Z</time>
      </trkpt>
      <trkpt lat="43.72549" lon="3.57048">
        <ele>276</ele>
        <time>2022-05-12T07:39:39.536Z</time>
      </trkpt>
      <trkpt lat="43.72554" lon="3.57044">
        <ele>276</ele>
        <time>2022-05-12T07:39:40.593Z</time>
      </trkpt>
      <trkpt lat="43.72558" lon="3.57039">
        <ele>276</ele>
        <time>2022-05-12T07:39:41.579Z</time>
      </trkpt>
      <trkpt lat="43.72562" lon="3.57034">
        <ele>276</ele>
        <time>2022-05-12T07:39:42.566Z</time>
      </trkpt>
      <trkpt lat="43.72566" lon="3.57028">
        <ele>276</ele>
        <time>2022-05-12T07:39:43.645Z</time>
      </trkpt>
      <trkpt lat="43.72571" lon="3.57022">
        <ele>276</ele>
        <time>2022-05-12T07:39:44.856Z</time>
      </trkpt>
      <trkpt lat="43.72575" lon="3.57016">
        <ele>276</ele>
        <time>2022-05-12T07:39:45.935Z</time>
      </trkpt>
      <trkpt lat="43.72579" lon="3.57009">
        <ele>276</ele>
        <time>2022-05-12T07:39:47.115Z</time>
      </trkpt>
      <trkpt lat="43.72583" lon="3.57002">
        <ele>276</ele>
        <time>2022-05-12T07:39:48.295Z</time>
      </trkpt>
      <trkpt lat="43.72586" lon="3.56996">
        <ele>276</ele>
        <time>2022-05-12T07:39:49.259Z</time>
      </trkpt>
      <trkpt lat="43.7259" lon="3.56989">
        <ele>276</ele>
        <time>2022-05-12T07:39:50.439Z</time>
      </trkpt>
      <trkpt lat="43.72593" lon="3.56982">
        <ele>276</ele>
        <time>2022-05-12T07:39:51.515Z</time>
      </trkpt>
      <trkpt lat="43.72596" lon="3.56975">
        <ele>276</ele>
        <time>2022-05-12T07:39:52.591Z</time>
      </trkpt>
      <trkpt lat="43.726" lon="3.56968">
        <ele>276</ele>
        <time>2022-05-12T07:39:53.771Z</time>
      </trkpt>
      <trkpt lat="43.72603" lon="3.56961">
        <ele>276</ele>
        <time>2022-05-12T07:39:54.847Z</time>
      </trkpt>
      <trkpt lat="43.72605" lon="3.56954">
        <ele>276</ele>
        <time>2022-05-12T07:39:55.843Z</time>
      </trkpt>
      <trkpt lat="43.72608" lon="3.56947">
        <ele>276</ele>
        <time>2022-05-12T07:39:56.919Z</time>
      </trkpt>
      <trkpt lat="43.7261" lon="3.5694">
        <ele>276</ele>
        <time>2022-05-12T07:39:57.914Z</time>
      </trkpt>
      <trkpt lat="43.72612" lon="3.56932">
        <ele>276</ele>
        <time>2022-05-12T07:39:59.033Z</time>
      </trkpt>
      <trkpt lat="43.72614" lon="3.56925">
        <ele>276</ele>
        <time>2022-05-12T07:40:00.028Z</time>
      </trkpt>
      <trkpt lat="43.72615" lon="3.56917">
        <ele>276</ele>
        <time>2022-05-12T07:40:01.102Z</time>
      </trkpt>
      <trkpt lat="43.72616" lon="3.56909">
        <ele>276</ele>
        <time>2022-05-12T07:40:02.175Z</time>
      </trkpt>
      <trkpt lat="43.72617" lon="3.56901">
        <ele>276</ele>
        <time>2022-05-12T07:40:03.248Z</time>
      </trkpt>
      <trkpt lat="43.72618" lon="3.56893">
        <ele>276</ele>
        <time>2022-05-12T07:40:04.322Z</time>
      </trkpt>
      <trkpt lat="43.7262" lon="3.56884">
        <ele>276</ele>
        <time>2022-05-12T07:40:05.567Z</time>
      </trkpt>
      <trkpt lat="43.72622" lon="3.56876">
        <ele>276</ele>
        <time>2022-05-12T07:40:06.686Z</time>
      </trkpt>
      <trkpt lat="43.72624" lon="3.56868">
        <ele>276</ele>
        <time>2022-05-12T07:40:07.805Z</time>
      </trkpt>
      <trkpt lat="43.72626" lon="3.56861">
        <ele>276</ele>
        <time>2022-05-12T07:40:08.800Z</time>
      </trkpt>
      <trkpt lat="43.72628" lon="3.56853">
        <ele>276</ele>
        <time>2022-05-12T07:40:09.920Z</time>
      </trkpt>
      <trkpt lat="43.7263" lon="3.56845">
        <ele>276</ele>
        <time>2022-05-12T07:40:11.039Z</time>
      </trkpt>
      <trkpt lat="43.72632" lon="3.56837">
        <ele>276</ele>
        <time>2022-05-12T07:40:12.158Z</time>
      </trkpt>
      <trkpt lat="43.72633" lon="3.56829">
        <ele>276</ele>
        <time>2022-05-12T07:40:13.232Z</time>
      </trkpt>
      <trkpt lat="43.72633" lon="3.56821">
        <ele>276</ele>
        <time>2022-05-12T07:40:14.289Z</time>
      </trkpt>
      <trkpt lat="43.72634" lon="3.56813">
        <ele>276</ele>
        <time>2022-05-12T07:40:15.363Z</time>
      </trkpt>
      <trkpt lat="43.72634" lon="3.56804">
        <ele>276</ele>
        <time>2022-05-12T07:40:16.553Z</time>
      </trkpt>
      <trkpt lat="43.72634" lon="3.56796">
        <ele>276</ele>
        <time>2022-05-12T07:40:17.610Z</time>
      </trkpt>
      <trkpt lat="43.72634" lon="3.56788">
        <ele>276</ele>
        <time>2022-05-12T07:40:18.668Z</time>
      </trkpt>
      <trkpt lat="43.72633" lon="3.56779">
        <ele>276</ele>
        <time>2022-05-12T07:40:19.872Z</time>
      </trkpt>
      <trkpt lat="43.72633" lon="3.56771">
        <ele>276</ele>
        <time>2022-05-12T07:40:20.930Z</time>
      </trkpt>
      <trkpt lat="43.72633" lon="3.56763">
        <ele>276</ele>
        <time>2022-05-12T07:40:21.987Z</time>
      </trkpt>
      <trkpt lat="43.72633" lon="3.56754">
        <ele>276</ele>
        <time>2022-05-12T07:40:23.177Z</time>
      </trkpt>
      <trkpt lat="43.72635" lon="3.56746">
        <ele>276</ele>
        <time>2022-05-12T07:40:24.297Z</time>
      </trkpt>
      <trkpt lat="43.72637" lon="3.56738">
        <ele>276</ele>
        <time>2022-05-12T07:40:25.416Z</time>
      </trkpt>
      <trkpt lat="43.7264" lon="3.5673">
        <ele>276</ele>
        <time>2022-05-12T07:40:26.607Z</time>
      </trkpt>
      <trkpt lat="43.72643" lon="3.56722">
        <ele>276</ele>
        <time>2022-05-12T07:40:27.799Z</time>
      </trkpt>
      <trkpt lat="43.72646" lon="3.56714">
        <ele>276</ele>
        <time>2022-05-12T07:40:28.991Z</time>
      </trkpt>
      <trkpt lat="43.72649" lon="3.56706">
        <ele>276</ele>
        <time>2022-05-12T07:40:30.182Z</time>
      </trkpt>
      <trkpt lat="43.72652" lon="3.56699">
        <ele>276</ele>
        <time>2022-05-12T07:40:31.258Z</time>
      </trkpt>
      <trkpt lat="43.72655" lon="3.56691">
        <ele>276</ele>
        <time>2022-05-12T07:40:32.450Z</time>
      </trkpt>
      <trkpt lat="43.72658" lon="3.56683">
        <ele>276</ele>
        <time>2022-05-12T07:40:33.642Z</time>
      </trkpt>
      <trkpt lat="43.72661" lon="3.56675">
        <ele>276</ele>
        <time>2022-05-12T07:40:34.833Z</time>
      </trkpt>
      <trkpt lat="43.72665" lon="3.56668">
        <ele>276</ele>
        <time>2022-05-12T07:40:36.013Z</time>
      </trkpt>
      <trkpt lat="43.72668" lon="3.56661">
        <ele>276</ele>
        <time>2022-05-12T07:40:37.089Z</time>
      </trkpt>
      <trkpt lat="43.72672" lon="3.56654">
        <ele>276</ele>
        <time>2022-05-12T07:40:38.269Z</time>
      </trkpt>
      <trkpt lat="43.72676" lon="3.56649">
        <ele>276</ele>
        <time>2022-05-12T07:40:39.255Z</time>
      </trkpt>
      <trkpt lat="43.72681" lon="3.56644">
        <ele>276</ele>
        <time>2022-05-12T07:40:40.384Z</time>
      </trkpt>
      <trkpt lat="43.72686" lon="3.5664">
        <ele>276</ele>
        <time>2022-05-12T07:40:41.441Z</time>
      </trkpt>
      <trkpt lat="43.72691" lon="3.56637">
        <ele>276</ele>
        <time>2022-05-12T07:40:42.438Z</time>
      </trkpt>
      <trkpt lat="43.72696" lon="3.56636">
        <ele>276</ele>
        <time>2022-05-12T07:40:43.362Z</time>
      </trkpt>
      <trkpt lat="43.72701" lon="3.56635">
        <ele>276</ele>
        <time>2022-05-12T07:40:44.286Z</time>
      </trkpt>
      <trkpt lat="43.72706" lon="3.56635">
        <ele>276</ele>
        <time>2022-05-12T07:40:45.201Z</time>
      </trkpt>
      <trkpt lat="43.72711" lon="3.56635">
        <ele>276</ele>
        <time>2022-05-12T07:40:46.116Z</time>
      </trkpt>
      <trkpt lat="43.72715" lon="3.56636">
        <ele>276</ele>
        <time>2022-05-12T07:40:46.860Z</time>
      </trkpt>
      <trkpt lat="43.7272" lon="3.56637">
        <ele>276</ele>
        <time>2022-05-12T07:40:47.784Z</time>
      </trkpt>
      <trkpt lat="43.72724" lon="3.5664">
        <ele>276</ele>
        <time>2022-05-12T07:40:48.616Z</time>
      </trkpt>
      <trkpt lat="43.72727" lon="3.56644">
        <ele>276</ele>
        <time>2022-05-12T07:40:49.379Z</time>
      </trkpt>
      <trkpt lat="43.7273" lon="3.56649">
        <ele>276</ele>
        <time>2022-05-12T07:40:50.238Z</time>
      </trkpt>
      <trkpt lat="43.72733" lon="3.56655">
        <ele>276</ele>
        <time>2022-05-12T07:40:51.202Z</time>
      </trkpt>
      <trkpt lat="43.72735" lon="3.5666">
        <ele>276</ele>
        <time>2022-05-12T07:40:51.958Z</time>
      </trkpt>
      <trkpt lat="43.72737" lon="3.56666">
        <ele>276</ele>
        <time>2022-05-12T07:40:52.832Z</time>
      </trkpt>
      <trkpt lat="43.72739" lon="3.56672">
        <ele>276</ele>
        <time>2022-05-12T07:40:53.705Z</time>
      </trkpt>
      <trkpt lat="43.72742" lon="3.56677">
        <ele>276</ele>
        <time>2022-05-12T07:40:54.564Z</time>
      </trkpt>
      <trkpt lat="43.72744" lon="3.56682">
        <ele>276</ele>
        <time>2022-05-12T07:40:55.320Z</time>
      </trkpt>
      <trkpt lat="43.72747" lon="3.56687">
        <ele>276</ele>
        <time>2022-05-12T07:40:56.179Z</time>
      </trkpt>
      <trkpt lat="43.7275" lon="3.56691">
        <ele>276</ele>
        <time>2022-05-12T07:40:56.941Z</time>
      </trkpt>
      <trkpt lat="43.72753" lon="3.56695">
        <ele>276</ele>
        <time>2022-05-12T07:40:57.704Z</time>
      </trkpt>
      <trkpt lat="43.72755" lon="3.567">
        <ele>276</ele>
        <time>2022-05-12T07:40:58.459Z</time>
      </trkpt>
      <trkpt lat="43.72758" lon="3.56703">
        <ele>276</ele>
        <time>2022-05-12T07:40:59.136Z</time>
      </trkpt>
      <trkpt lat="43.72761" lon="3.56707">
        <ele>276</ele>
        <time>2022-05-12T07:40:59.899Z</time>
      </trkpt>
      <trkpt lat="43.72763" lon="3.56711">
        <ele>277</ele>
        <time>2022-05-12T07:41:02.379Z</time>
      </trkpt>
      <trkpt lat="43.72766" lon="3.56714">
        <ele>277</ele>
        <time>2022-05-12T07:41:03.056Z</time>
      </trkpt>
      <trkpt lat="43.72769" lon="3.56717">
        <ele>277</ele>
        <time>2022-05-12T07:41:03.733Z</time>
      </trkpt>
      <trkpt lat="43.72772" lon="3.56721">
        <ele>277</ele>
        <time>2022-05-12T07:41:04.496Z</time>
      </trkpt>
      <trkpt lat="43.72775" lon="3.56724">
        <ele>277</ele>
        <time>2022-05-12T07:41:05.173Z</time>
      </trkpt>
      <trkpt lat="43.72777" lon="3.56727">
        <ele>277</ele>
        <time>2022-05-12T07:41:05.712Z</time>
      </trkpt>
      <trkpt lat="43.7278" lon="3.5673">
        <ele>277</ele>
        <time>2022-05-12T07:41:06.390Z</time>
      </trkpt>
      <trkpt lat="43.72782" lon="3.5673">
        <ele>277</ele>
        <time>2022-05-12T07:41:06.756Z</time>
      </trkpt>
      <trkpt lat="43.72784" lon="3.56729">
        <ele>277</ele>
        <time>2022-05-12T07:41:07.145Z</time>
      </trkpt>
      <trkpt lat="43.72786" lon="3.56726">
        <ele>277</ele>
        <time>2022-05-12T07:41:07.684Z</time>
      </trkpt>
      <trkpt lat="43.72789" lon="3.56723">
        <ele>277</ele>
        <time>2022-05-12T07:41:08.361Z</time>
      </trkpt>
      <trkpt lat="43.72792" lon="3.5672">
        <ele>277</ele>
        <time>2022-05-12T07:41:09.039Z</time>
      </trkpt>
      <trkpt lat="43.72796" lon="3.56716">
        <ele>277</ele>
        <time>2022-05-12T07:41:09.942Z</time>
      </trkpt>
      <trkpt lat="43.728" lon="3.56712">
        <ele>277</ele>
        <time>2022-05-12T07:41:10.844Z</time>
      </trkpt>
      <trkpt lat="43.72805" lon="3.56708">
        <ele>277</ele>
        <time>2022-05-12T07:41:11.901Z</time>
      </trkpt>
      <trkpt lat="43.72809" lon="3.56705">
        <ele>277</ele>
        <time>2022-05-12T07:41:12.734Z</time>
      </trkpt>
      <trkpt lat="43.72813" lon="3.56704">
        <ele>277</ele>
        <time>2022-05-12T07:41:13.477Z</time>
      </trkpt>
      <trkpt lat="43.72816" lon="3.56703">
        <ele>277</ele>
        <time>2022-05-12T07:41:14.042Z</time>
      </trkpt>
      <trkpt lat="43.72818" lon="3.56701">
        <ele>277</ele>
        <time>2022-05-12T07:41:14.493Z</time>
      </trkpt>
      <trkpt lat="43.72821" lon="3.56701">
        <ele>277</ele>
        <time>2022-05-12T07:41:15.042Z</time>
      </trkpt>
      <trkpt lat="43.72824" lon="3.56702">
        <ele>276</ele>
        <time>2022-05-12T07:41:15.317Z</time>
      </trkpt>
      <trkpt lat="43.72827" lon="3.56705">
        <ele>276</ele>
        <time>2022-05-12T07:41:15.994Z</time>
      </trkpt>
      <trkpt lat="43.7283" lon="3.56708">
        <ele>276</ele>
        <time>2022-05-12T07:41:16.671Z</time>
      </trkpt>
      <trkpt lat="43.72832" lon="3.5671">
        <ele>276</ele>
        <time>2022-05-12T07:41:17.123Z</time>
      </trkpt>
      <trkpt lat="43.72833" lon="3.56713">
        <ele>276</ele>
        <time>2022-05-12T07:41:17.559Z</time>
      </trkpt>
      <trkpt lat="43.72834" lon="3.56717">
        <ele>276</ele>
        <time>2022-05-12T07:41:18.119Z</time>
      </trkpt>
      <trkpt lat="43.72837" lon="3.5672">
        <ele>276</ele>
        <time>2022-05-12T07:41:18.796Z</time>
      </trkpt>
      <trkpt lat="43.72839" lon="3.56721">
        <ele>276</ele>
        <time>2022-05-12T07:41:19.185Z</time>
      </trkpt>
      <trkpt lat="43.72841" lon="3.56722">
        <ele>276</ele>
        <time>2022-05-12T07:41:19.574Z</time>
      </trkpt>
      <trkpt lat="43.72843" lon="3.56721">
        <ele>276</ele>
        <time>2022-05-12T07:41:19.963Z</time>
      </trkpt>
      <trkpt lat="43.72846" lon="3.5672">
        <ele>276</ele>
        <time>2022-05-12T07:41:20.528Z</time>
      </trkpt>
      <trkpt lat="43.72848" lon="3.56718">
        <ele>276</ele>
        <time>2022-05-12T07:41:20.979Z</time>
      </trkpt>
      <trkpt lat="43.72849" lon="3.56716">
        <ele>276</ele>
        <time>2022-05-12T07:41:21.301Z</time>
      </trkpt>
      <trkpt lat="43.72851" lon="3.56714">
        <ele>276</ele>
        <time>2022-05-12T07:41:21.752Z</time>
      </trkpt>
      <trkpt lat="43.72851" lon="3.56712">
        <ele>276</ele>
        <time>2022-05-12T07:41:22.017Z</time>
      </trkpt>
      <trkpt lat="43.72852" lon="3.56709">
        <ele>276</ele>
        <time>2022-05-12T07:41:22.454Z</time>
      </trkpt>
      <trkpt lat="43.72853" lon="3.56707">
        <ele>276</ele>
        <time>2022-05-12T07:41:22.775Z</time>
      </trkpt>
      <trkpt lat="43.72854" lon="3.56703">
        <ele>275</ele>
        <time>2022-05-12T07:41:23.048Z</time>
      </trkpt>
      <trkpt lat="43.72854" lon="3.56699">
        <ele>275</ele>
        <time>2022-05-12T07:41:23.576Z</time>
      </trkpt>
      <trkpt lat="43.72855" lon="3.56696">
        <ele>275</ele>
        <time>2022-05-12T07:41:24.013Z</time>
      </trkpt>
      <trkpt lat="43.72857" lon="3.56695">
        <ele>275</ele>
        <time>2022-05-12T07:41:24.402Z</time>
      </trkpt>
      <trkpt lat="43.72859" lon="3.56694">
        <ele>275</ele>
        <time>2022-05-12T07:41:24.791Z</time>
      </trkpt>
      <trkpt lat="43.72861" lon="3.56693">
        <ele>275</ele>
        <time>2022-05-12T07:41:25.180Z</time>
      </trkpt>
      <trkpt lat="43.72863" lon="3.56693">
        <ele>275</ele>
        <time>2022-05-12T07:41:25.546Z</time>
      </trkpt>
      <trkpt lat="43.72865" lon="3.56694">
        <ele>275</ele>
        <time>2022-05-12T07:41:25.935Z</time>
      </trkpt>
      <trkpt lat="43.72867" lon="3.56696">
        <ele>275</ele>
        <time>2022-05-12T07:41:26.387Z</time>
      </trkpt>
      <trkpt lat="43.72868" lon="3.56697">
        <ele>275</ele>
        <time>2022-05-12T07:41:26.613Z</time>
      </trkpt>
      <trkpt lat="43.72872" lon="3.56698">
        <ele>276</ele>
        <time>2022-05-12T07:41:29.481Z</time>
      </trkpt>
      <trkpt lat="43.72878" lon="3.56699">
        <ele>276</ele>
        <time>2022-05-12T07:41:30.587Z</time>
      </trkpt>
      <trkpt lat="43.7288" lon="3.56699">
        <ele>276</ele>
        <time>2022-05-12T07:41:30.953Z</time>
      </trkpt>
      <trkpt lat="43.72884" lon="3.56699">
        <ele>276</ele>
        <time>2022-05-12T07:41:31.684Z</time>
      </trkpt>
      <trkpt lat="43.72886" lon="3.56699">
        <ele>276</ele>
        <time>2022-05-12T07:41:32.050Z</time>
      </trkpt>
      <trkpt lat="43.72889" lon="3.567">
        <ele>276</ele>
        <time>2022-05-12T07:41:32.615Z</time>
      </trkpt>
      <trkpt lat="43.72898" lon="3.56704">
        <ele>276</ele>
        <time>2022-05-12T07:41:34.344Z</time>
      </trkpt>
      <trkpt lat="43.7291" lon="3.56707">
        <ele>276</ele>
        <time>2022-05-12T07:41:36.575Z</time>
      </trkpt>
      <trkpt lat="43.72921" lon="3.56709">
        <ele>276</ele>
        <time>2022-05-12T07:41:38.605Z</time>
      </trkpt>
      <trkpt lat="43.72927" lon="3.56713">
        <ele>276</ele>
        <time>2022-05-12T07:41:39.824Z</time>
      </trkpt>
      <trkpt lat="43.7293" lon="3.56713">
        <ele>276</ele>
        <time>2022-05-12T07:41:40.373Z</time>
      </trkpt>
      <trkpt lat="43.72933" lon="3.56713">
        <ele>276</ele>
        <time>2022-05-12T07:41:40.922Z</time>
      </trkpt>
      <trkpt lat="43.72939" lon="3.56713">
        <ele>276</ele>
        <time>2022-05-12T07:41:42.019Z</time>
      </trkpt>
      <trkpt lat="43.72942" lon="3.56713">
        <ele>276</ele>
        <time>2022-05-12T07:41:42.568Z</time>
      </trkpt>
      <trkpt lat="43.72945" lon="3.56714">
        <ele>276</ele>
        <time>2022-05-12T07:41:43.133Z</time>
      </trkpt>
      <trkpt lat="43.72949" lon="3.56715">
        <ele>276</ele>
        <time>2022-05-12T07:41:43.876Z</time>
      </trkpt>
      <trkpt lat="43.72952" lon="3.56715">
        <ele>276</ele>
        <time>2022-05-12T07:41:44.425Z</time>
      </trkpt>
      <trkpt lat="43.72955" lon="3.56716">
        <ele>276</ele>
        <time>2022-05-12T07:41:44.990Z</time>
      </trkpt>
      <trkpt lat="43.72958" lon="3.56717">
        <ele>275</ele>
        <time>2022-05-12T07:41:45.265Z</time>
      </trkpt>
      <trkpt lat="43.72962" lon="3.56716">
        <ele>275</ele>
        <time>2022-05-12T07:41:46.008Z</time>
      </trkpt>
      <trkpt lat="43.72965" lon="3.56715">
        <ele>275</ele>
        <time>2022-05-12T07:41:46.573Z</time>
      </trkpt>
      <trkpt lat="43.72968" lon="3.56714">
        <ele>275</ele>
        <time>2022-05-12T07:41:47.137Z</time>
      </trkpt>
      <trkpt lat="43.7297" lon="3.56714">
        <ele>275</ele>
        <time>2022-05-12T07:41:47.503Z</time>
      </trkpt>
      <trkpt lat="43.72973" lon="3.56712">
        <ele>275</ele>
        <time>2022-05-12T07:41:48.113Z</time>
      </trkpt>
      <trkpt lat="43.72974" lon="3.5671">
        <ele>275</ele>
        <time>2022-05-12T07:41:48.434Z</time>
      </trkpt>
      <trkpt lat="43.72976" lon="3.56708">
        <ele>275</ele>
        <time>2022-05-12T07:41:48.886Z</time>
      </trkpt>
      <trkpt lat="43.72978" lon="3.56706">
        <ele>275</ele>
        <time>2022-05-12T07:41:49.337Z</time>
      </trkpt>
      <trkpt lat="43.7298" lon="3.56705">
        <ele>275</ele>
        <time>2022-05-12T07:41:49.726Z</time>
      </trkpt>
      <trkpt lat="43.72982" lon="3.56703">
        <ele>275</ele>
        <time>2022-05-12T07:41:50.177Z</time>
      </trkpt>
      <trkpt lat="43.72985" lon="3.56703">
        <ele>275</ele>
        <time>2022-05-12T07:41:50.726Z</time>
      </trkpt>
      <trkpt lat="43.72988" lon="3.56704">
        <ele>275</ele>
        <time>2022-05-12T07:41:51.291Z</time>
      </trkpt>
      <trkpt lat="43.72991" lon="3.56703">
        <ele>275</ele>
        <time>2022-05-12T07:41:51.856Z</time>
      </trkpt>
      <trkpt lat="43.72994" lon="3.56702">
        <ele>275</ele>
        <time>2022-05-12T07:41:52.420Z</time>
      </trkpt>
      <trkpt lat="43.72996" lon="3.56702">
        <ele>275</ele>
        <time>2022-05-12T07:41:52.786Z</time>
      </trkpt>
      <trkpt lat="43.72999" lon="3.56702">
        <ele>275</ele>
        <time>2022-05-12T07:41:53.335Z</time>
      </trkpt>
      <trkpt lat="43.73002" lon="3.56703">
        <ele>275</ele>
        <time>2022-05-12T07:41:53.899Z</time>
      </trkpt>
      <trkpt lat="43.73005" lon="3.56704">
        <ele>275</ele>
        <time>2022-05-12T07:41:54.464Z</time>
      </trkpt>
      <trkpt lat="43.73007" lon="3.56705">
        <ele>275</ele>
        <time>2022-05-12T07:41:54.853Z</time>
      </trkpt>
      <trkpt lat="43.7301" lon="3.56706">
        <ele>275</ele>
        <time>2022-05-12T07:41:55.418Z</time>
      </trkpt>
      <trkpt lat="43.73013" lon="3.56707">
        <ele>275</ele>
        <time>2022-05-12T07:41:55.982Z</time>
      </trkpt>
      <trkpt lat="43.73016" lon="3.56708">
        <ele>275</ele>
        <time>2022-05-12T07:41:56.547Z</time>
      </trkpt>
      <trkpt lat="43.73018" lon="3.5671">
        <ele>275</ele>
        <time>2022-05-12T07:41:56.998Z</time>
      </trkpt>
      <trkpt lat="43.73021" lon="3.56711">
        <ele>275</ele>
        <time>2022-05-12T07:41:57.563Z</time>
      </trkpt>
      <trkpt lat="43.73024" lon="3.56711">
        <ele>275</ele>
        <time>2022-05-12T07:41:58.112Z</time>
      </trkpt>
      <trkpt lat="43.73026" lon="3.56711">
        <ele>275</ele>
        <time>2022-05-12T07:41:58.478Z</time>
      </trkpt>
      <trkpt lat="43.73029" lon="3.56711">
        <ele>275</ele>
        <time>2022-05-12T07:41:59.026Z</time>
      </trkpt>
      <trkpt lat="43.73032" lon="3.56711">
        <ele>275</ele>
        <time>2022-05-12T07:41:59.575Z</time>
      </trkpt>
      <trkpt lat="43.73035" lon="3.5671">
        <ele>275</ele>
        <time>2022-05-12T07:42:00.140Z</time>
      </trkpt>
      <trkpt lat="43.73038" lon="3.5671">
        <ele>274</ele>
        <time>2022-05-12T07:42:00.407Z</time>
      </trkpt>
      <trkpt lat="43.73041" lon="3.56709">
        <ele>274</ele>
        <time>2022-05-12T07:42:00.972Z</time>
      </trkpt>
      <trkpt lat="43.73044" lon="3.56709">
        <ele>274</ele>
        <time>2022-05-12T07:42:01.520Z</time>
      </trkpt>
      <trkpt lat="43.73046" lon="3.56708">
        <ele>274</ele>
        <time>2022-05-12T07:42:01.910Z</time>
      </trkpt>
      <trkpt lat="43.73049" lon="3.56706">
        <ele>274</ele>
        <time>2022-05-12T07:42:02.519Z</time>
      </trkpt>
      <trkpt lat="43.73051" lon="3.56705">
        <ele>274</ele>
        <time>2022-05-12T07:42:02.908Z</time>
      </trkpt>
      <trkpt lat="43.73054" lon="3.56704">
        <ele>274</ele>
        <time>2022-05-12T07:42:03.472Z</time>
      </trkpt>
      <trkpt lat="43.73056" lon="3.56704">
        <ele>274</ele>
        <time>2022-05-12T07:42:03.838Z</time>
      </trkpt>
      <trkpt lat="43.73059" lon="3.56704">
        <ele>274</ele>
        <time>2022-05-12T07:42:04.387Z</time>
      </trkpt>
      <trkpt lat="43.73061" lon="3.56705">
        <ele>274</ele>
        <time>2022-05-12T07:42:04.776Z</time>
      </trkpt>
      <trkpt lat="43.73063" lon="3.56705">
        <ele>274</ele>
        <time>2022-05-12T07:42:05.142Z</time>
      </trkpt>
      <trkpt lat="43.73066" lon="3.56704">
        <ele>274</ele>
        <time>2022-05-12T07:42:05.707Z</time>
      </trkpt>
      <trkpt lat="43.73068" lon="3.56704">
        <ele>274</ele>
        <time>2022-05-12T07:42:06.073Z</time>
      </trkpt>
      <trkpt lat="43.73071" lon="3.56704">
        <ele>274</ele>
        <time>2022-05-12T07:42:06.622Z</time>
      </trkpt>
      <trkpt lat="43.73073" lon="3.56704">
        <ele>274</ele>
        <time>2022-05-12T07:42:06.987Z</time>
      </trkpt>
      <trkpt lat="43.73076" lon="3.56704">
        <ele>274</ele>
        <time>2022-05-12T07:42:07.536Z</time>
      </trkpt>
      <trkpt lat="43.73078" lon="3.56704">
        <ele>274</ele>
        <time>2022-05-12T07:42:07.902Z</time>
      </trkpt>
      <trkpt lat="43.7308" lon="3.56704">
        <ele>274</ele>
        <time>2022-05-12T07:42:08.268Z</time>
      </trkpt>
      <trkpt lat="43.73082" lon="3.56704">
        <ele>274</ele>
        <time>2022-05-12T07:42:08.634Z</time>
      </trkpt>
      <trkpt lat="43.73084" lon="3.56703">
        <ele>274</ele>
        <time>2022-05-12T07:42:09.023Z</time>
      </trkpt>
      <trkpt lat="43.73086" lon="3.56703">
        <ele>274</ele>
        <time>2022-05-12T07:42:09.389Z</time>
      </trkpt>
      <trkpt lat="43.73089" lon="3.56703">
        <ele>274</ele>
        <time>2022-05-12T07:42:09.938Z</time>
      </trkpt>
      <trkpt lat="43.73091" lon="3.56703">
        <ele>274</ele>
        <time>2022-05-12T07:42:10.304Z</time>
      </trkpt>
      <trkpt lat="43.73093" lon="3.56704">
        <ele>274</ele>
        <time>2022-05-12T07:42:10.693Z</time>
      </trkpt>
      <trkpt lat="43.73095" lon="3.56705">
        <ele>274</ele>
        <time>2022-05-12T07:42:11.082Z</time>
      </trkpt>
      <trkpt lat="43.73098" lon="3.56707">
        <ele>274</ele>
        <time>2022-05-12T07:42:11.691Z</time>
      </trkpt>
      <trkpt lat="43.731" lon="3.56708">
        <ele>274</ele>
        <time>2022-05-12T07:42:12.080Z</time>
      </trkpt>
      <trkpt lat="43.73102" lon="3.5671">
        <ele>274</ele>
        <time>2022-05-12T07:42:12.532Z</time>
      </trkpt>
      <trkpt lat="43.73104" lon="3.56711">
        <ele>274</ele>
        <time>2022-05-12T07:42:12.921Z</time>
      </trkpt>
      <trkpt lat="43.73107" lon="3.56712">
        <ele>274</ele>
        <time>2022-05-12T07:42:13.485Z</time>
      </trkpt>
      <trkpt lat="43.7311" lon="3.56714">
        <ele>274</ele>
        <time>2022-05-12T07:42:14.095Z</time>
      </trkpt>
      <trkpt lat="43.73112" lon="3.56715">
        <ele>274</ele>
        <time>2022-05-12T07:42:14.484Z</time>
      </trkpt>
      <trkpt lat="43.73115" lon="3.56717">
        <ele>274</ele>
        <time>2022-05-12T07:42:15.093Z</time>
      </trkpt>
      <trkpt lat="43.73118" lon="3.56719">
        <ele>274</ele>
        <time>2022-05-12T07:42:15.702Z</time>
      </trkpt>
      <trkpt lat="43.7312" lon="3.5672">
        <ele>274</ele>
        <time>2022-05-12T07:42:16.091Z</time>
      </trkpt>
      <trkpt lat="43.73123" lon="3.56722">
        <ele>274</ele>
        <time>2022-05-12T07:42:16.700Z</time>
      </trkpt>
      <trkpt lat="43.73126" lon="3.56723">
        <ele>274</ele>
        <time>2022-05-12T07:42:17.265Z</time>
      </trkpt>
      <trkpt lat="43.73129" lon="3.56724">
        <ele>274</ele>
        <time>2022-05-12T07:42:17.830Z</time>
      </trkpt>
      <trkpt lat="43.73132" lon="3.56725">
        <ele>274</ele>
        <time>2022-05-12T07:42:18.394Z</time>
      </trkpt>
      <trkpt lat="43.73135" lon="3.56726">
        <ele>274</ele>
        <time>2022-05-12T07:42:18.959Z</time>
      </trkpt>
      <trkpt lat="43.73138" lon="3.56727">
        <ele>275</ele>
        <time>2022-05-12T07:42:21.136Z</time>
      </trkpt>
      <trkpt lat="43.73141" lon="3.56727">
        <ele>275</ele>
        <time>2022-05-12T07:42:21.685Z</time>
      </trkpt>
      <trkpt lat="43.73143" lon="3.56727">
        <ele>275</ele>
        <time>2022-05-12T07:42:22.051Z</time>
      </trkpt>
      <trkpt lat="43.73146" lon="3.56727">
        <ele>275</ele>
        <time>2022-05-12T07:42:22.600Z</time>
      </trkpt>
      <trkpt lat="43.73149" lon="3.56728">
        <ele>275</ele>
        <time>2022-05-12T07:42:23.165Z</time>
      </trkpt>
      <trkpt lat="43.73151" lon="3.5673">
        <ele>275</ele>
        <time>2022-05-12T07:42:23.616Z</time>
      </trkpt>
      <trkpt lat="43.73154" lon="3.56732">
        <ele>275</ele>
        <time>2022-05-12T07:42:24.225Z</time>
      </trkpt>
      <trkpt lat="43.73156" lon="3.56733">
        <ele>275</ele>
        <time>2022-05-12T07:42:24.614Z</time>
      </trkpt>
      <trkpt lat="43.73158" lon="3.56733">
        <ele>275</ele>
        <time>2022-05-12T07:42:24.980Z</time>
      </trkpt>
      <trkpt lat="43.73161" lon="3.56733">
        <ele>275</ele>
        <time>2022-05-12T07:42:25.529Z</time>
      </trkpt>
      <trkpt lat="43.73163" lon="3.56733">
        <ele>276</ele>
        <time>2022-05-12T07:42:26.941Z</time>
      </trkpt>
      <trkpt lat="43.73165" lon="3.56734">
        <ele>276</ele>
        <time>2022-05-12T07:42:27.330Z</time>
      </trkpt>
      <trkpt lat="43.73168" lon="3.56735">
        <ele>276</ele>
        <time>2022-05-12T07:42:27.894Z</time>
      </trkpt>
      <trkpt lat="43.7317" lon="3.56737">
        <ele>276</ele>
        <time>2022-05-12T07:42:28.346Z</time>
      </trkpt>
      <trkpt lat="43.73173" lon="3.56737">
        <ele>276</ele>
        <time>2022-05-12T07:42:28.895Z</time>
      </trkpt>
      <trkpt lat="43.73176" lon="3.56738">
        <ele>276</ele>
        <time>2022-05-12T07:42:29.459Z</time>
      </trkpt>
      <trkpt lat="43.73179" lon="3.56738">
        <ele>276</ele>
        <time>2022-05-12T07:42:30.008Z</time>
      </trkpt>
      <trkpt lat="43.73182" lon="3.5674">
        <ele>276</ele>
        <time>2022-05-12T07:42:30.617Z</time>
      </trkpt>
      <trkpt lat="43.73184" lon="3.56743">
        <ele>276</ele>
        <time>2022-05-12T07:42:31.157Z</time>
      </trkpt>
      <trkpt lat="43.73187" lon="3.56745">
        <ele>276</ele>
        <time>2022-05-12T07:42:31.766Z</time>
      </trkpt>
      <trkpt lat="43.7319" lon="3.56747">
        <ele>277</ele>
        <time>2022-05-12T07:42:34.116Z</time>
      </trkpt>
      <trkpt lat="43.73192" lon="3.56749">
        <ele>277</ele>
        <time>2022-05-12T07:42:34.567Z</time>
      </trkpt>
      <trkpt lat="43.73195" lon="3.5675">
        <ele>277</ele>
        <time>2022-05-12T07:42:35.132Z</time>
      </trkpt>
      <trkpt lat="43.73199" lon="3.56751">
        <ele>277</ele>
        <time>2022-05-12T07:42:35.876Z</time>
      </trkpt>
      <trkpt lat="43.73202" lon="3.56752">
        <ele>277</ele>
        <time>2022-05-12T07:42:36.440Z</time>
      </trkpt>
      <trkpt lat="43.73204" lon="3.56753">
        <ele>277</ele>
        <time>2022-05-12T07:42:36.829Z</time>
      </trkpt>
      <trkpt lat="43.73207" lon="3.56754">
        <ele>277</ele>
        <time>2022-05-12T07:42:37.394Z</time>
      </trkpt>
      <trkpt lat="43.7321" lon="3.56755">
        <ele>277</ele>
        <time>2022-05-12T07:42:37.958Z</time>
      </trkpt>
      <trkpt lat="43.73213" lon="3.56757">
        <ele>277</ele>
        <time>2022-05-12T07:42:38.568Z</time>
      </trkpt>
      <trkpt lat="43.73216" lon="3.56758">
        <ele>277</ele>
        <time>2022-05-12T07:42:39.132Z</time>
      </trkpt>
      <trkpt lat="43.73219" lon="3.5676">
        <ele>277</ele>
        <time>2022-05-12T07:42:39.742Z</time>
      </trkpt>
      <trkpt lat="43.73223" lon="3.56762">
        <ele>277</ele>
        <time>2022-05-12T07:42:40.520Z</time>
      </trkpt>
      <trkpt lat="43.73226" lon="3.56764">
        <ele>277</ele>
        <time>2022-05-12T07:42:41.129Z</time>
      </trkpt>
      <trkpt lat="43.73229" lon="3.56764">
        <ele>277</ele>
        <time>2022-05-12T07:42:41.678Z</time>
      </trkpt>
      <trkpt lat="43.73239" lon="3.56764">
        <ele>277</ele>
        <time>2022-05-12T07:42:43.507Z</time>
      </trkpt>
      <trkpt lat="43.73249" lon="3.56768">
        <ele>277</ele>
        <time>2022-05-12T07:42:45.412Z</time>
      </trkpt>
      <trkpt lat="43.73259" lon="3.56772">
        <ele>277</ele>
        <time>2022-05-12T07:42:47.316Z</time>
      </trkpt>
      <trkpt lat="43.73269" lon="3.56774">
        <ele>277</ele>
        <time>2022-05-12T07:42:49.165Z</time>
      </trkpt>
      <trkpt lat="43.73279" lon="3.56775">
        <ele>277</ele>
        <time>2022-05-12T07:42:50.999Z</time>
      </trkpt>
      <trkpt lat="43.73288" lon="3.56777">
        <ele>278</ele>
        <time>2022-05-12T07:42:55.789Z</time>
      </trkpt>
      <trkpt lat="43.73299" lon="3.5678">
        <ele>278</ele>
        <time>2022-05-12T07:42:57.840Z</time>
      </trkpt>
      <trkpt lat="43.73311" lon="3.56782">
        <ele>278</ele>
        <time>2022-05-12T07:43:00.052Z</time>
      </trkpt>
      <trkpt lat="43.73322" lon="3.56783">
        <ele>278</ele>
        <time>2022-05-12T07:43:02.069Z</time>
      </trkpt>
      <trkpt lat="43.73334" lon="3.56784">
        <ele>278</ele>
        <time>2022-05-12T07:43:04.268Z</time>
      </trkpt>
      <trkpt lat="43.73344" lon="3.56787">
        <ele>278</ele>
        <time>2022-05-12T07:43:06.140Z</time>
      </trkpt>
      <trkpt lat="43.73357" lon="3.5679">
        <ele>278</ele>
        <time>2022-05-12T07:43:08.551Z</time>
      </trkpt>
      <trkpt lat="43.7337" lon="3.56793">
        <ele>279</ele>
        <time>2022-05-12T07:43:13.629Z</time>
      </trkpt>
      <trkpt lat="43.73382" lon="3.56792">
        <ele>279</ele>
        <time>2022-05-12T07:43:15.828Z</time>
      </trkpt>
      <trkpt lat="43.73394" lon="3.56795">
        <ele>279</ele>
        <time>2022-05-12T07:43:18.059Z</time>
      </trkpt>
      <trkpt lat="43.73406" lon="3.56797">
        <ele>280</ele>
        <time>2022-05-12T07:43:22.982Z</time>
      </trkpt>
      <trkpt lat="43.73414" lon="3.56796">
        <ele>280</ele>
        <time>2022-05-12T07:43:24.451Z</time>
      </trkpt>
      <trkpt lat="43.73418" lon="3.56795">
        <ele>280</ele>
        <time>2022-05-12T07:43:25.195Z</time>
      </trkpt>
      <trkpt lat="43.73422" lon="3.56796">
        <ele>280</ele>
        <time>2022-05-12T07:43:25.939Z</time>
      </trkpt>
      <trkpt lat="43.73426" lon="3.56796">
        <ele>280</ele>
        <time>2022-05-12T07:43:26.670Z</time>
      </trkpt>
      <trkpt lat="43.73429" lon="3.56796">
        <ele>280</ele>
        <time>2022-05-12T07:43:27.219Z</time>
      </trkpt>
      <trkpt lat="43.73433" lon="3.56797">
        <ele>280</ele>
        <time>2022-05-12T07:43:27.963Z</time>
      </trkpt>
      <trkpt lat="43.73437" lon="3.56798">
        <ele>280</ele>
        <time>2022-05-12T07:43:28.707Z</time>
      </trkpt>
      <trkpt lat="43.73441" lon="3.56799">
        <ele>280</ele>
        <time>2022-05-12T07:43:29.450Z</time>
      </trkpt>
      <trkpt lat="43.73445" lon="3.56801">
        <ele>280</ele>
        <time>2022-05-12T07:43:30.228Z</time>
      </trkpt>
      <trkpt lat="43.73449" lon="3.56803">
        <ele>280</ele>
        <time>2022-05-12T07:43:31.007Z</time>
      </trkpt>
      <trkpt lat="43.73452" lon="3.56805">
        <ele>280</ele>
        <time>2022-05-12T07:43:31.616Z</time>
      </trkpt>
      <trkpt lat="43.73456" lon="3.56806">
        <ele>280</ele>
        <time>2022-05-12T07:43:32.359Z</time>
      </trkpt>
      <trkpt lat="43.7346" lon="3.56807">
        <ele>280</ele>
        <time>2022-05-12T07:43:33.103Z</time>
      </trkpt>
      <trkpt lat="43.73464" lon="3.56809">
        <ele>280</ele>
        <time>2022-05-12T07:43:33.881Z</time>
      </trkpt>
      <trkpt lat="43.73468" lon="3.56811">
        <ele>280</ele>
        <time>2022-05-12T07:43:34.659Z</time>
      </trkpt>
      <trkpt lat="43.73472" lon="3.56814">
        <ele>280</ele>
        <time>2022-05-12T07:43:35.492Z</time>
      </trkpt>
      <trkpt lat="43.73475" lon="3.56818">
        <ele>280</ele>
        <time>2022-05-12T07:43:36.254Z</time>
      </trkpt>
      <trkpt lat="43.73478" lon="3.56823">
        <ele>281</ele>
        <time>2022-05-12T07:43:39.568Z</time>
      </trkpt>
      <trkpt lat="43.7348" lon="3.56828">
        <ele>281</ele>
        <time>2022-05-12T07:43:40.323Z</time>
      </trkpt>
      <trkpt lat="43.73482" lon="3.56834">
        <ele>281</ele>
        <time>2022-05-12T07:43:41.197Z</time>
      </trkpt>
      <trkpt lat="43.73484" lon="3.56839">
        <ele>281</ele>
        <time>2022-05-12T07:43:41.952Z</time>
      </trkpt>
      <trkpt lat="43.73487" lon="3.56843">
        <ele>281</ele>
        <time>2022-05-12T07:43:42.714Z</time>
      </trkpt>
      <trkpt lat="43.73491" lon="3.56845">
        <ele>281</ele>
        <time>2022-05-12T07:43:43.493Z</time>
      </trkpt>
      <trkpt lat="43.73494" lon="3.56848">
        <ele>281</ele>
        <time>2022-05-12T07:43:44.170Z</time>
      </trkpt>
      <trkpt lat="43.73497" lon="3.56851">
        <ele>281</ele>
        <time>2022-05-12T07:43:44.847Z</time>
      </trkpt>
      <trkpt lat="43.73499" lon="3.56853">
        <ele>281</ele>
        <time>2022-05-12T07:43:45.298Z</time>
      </trkpt>
      <trkpt lat="43.73502" lon="3.56855">
        <ele>281</ele>
        <time>2022-05-12T07:43:45.908Z</time>
      </trkpt>
      <trkpt lat="43.73505" lon="3.56857">
        <ele>282</ele>
        <time>2022-05-12T07:43:48.258Z</time>
      </trkpt>
      <trkpt lat="43.73509" lon="3.56859">
        <ele>282</ele>
        <time>2022-05-12T07:43:49.036Z</time>
      </trkpt>
      <trkpt lat="43.73511" lon="3.56861">
        <ele>282</ele>
        <time>2022-05-12T07:43:49.487Z</time>
      </trkpt>
      <trkpt lat="43.73514" lon="3.56864">
        <ele>282</ele>
        <time>2022-05-12T07:43:50.164Z</time>
      </trkpt>
      <trkpt lat="43.73517" lon="3.56866">
        <ele>282</ele>
        <time>2022-05-12T07:43:50.773Z</time>
      </trkpt>
      <trkpt lat="43.73519" lon="3.56869">
        <ele>282</ele>
        <time>2022-05-12T07:43:51.313Z</time>
      </trkpt>
      <trkpt lat="43.73521" lon="3.56871">
        <ele>282</ele>
        <time>2022-05-12T07:43:51.765Z</time>
      </trkpt>
      <trkpt lat="43.73523" lon="3.56874">
        <ele>282</ele>
        <time>2022-05-12T07:43:52.304Z</time>
      </trkpt>
      <trkpt lat="43.73526" lon="3.56876">
        <ele>282</ele>
        <time>2022-05-12T07:43:52.913Z</time>
      </trkpt>
      <trkpt lat="43.73528" lon="3.56878">
        <ele>282</ele>
        <time>2022-05-12T07:43:53.365Z</time>
      </trkpt>
      <trkpt lat="43.73531" lon="3.56881">
        <ele>282</ele>
        <time>2022-05-12T07:43:54.042Z</time>
      </trkpt>
      <trkpt lat="43.73533" lon="3.56885">
        <ele>282</ele>
        <time>2022-05-12T07:43:54.685Z</time>
      </trkpt>
      <trkpt lat="43.73535" lon="3.56889">
        <ele>282</ele>
        <time>2022-05-12T07:43:55.328Z</time>
      </trkpt>
      <trkpt lat="43.73537" lon="3.56893">
        <ele>282</ele>
        <time>2022-05-12T07:43:55.971Z</time>
      </trkpt>
      <trkpt lat="43.73539" lon="3.56896">
        <ele>282</ele>
        <time>2022-05-12T07:43:56.511Z</time>
      </trkpt>
      <trkpt lat="43.73542" lon="3.56897">
        <ele>282</ele>
        <time>2022-05-12T07:43:57.075Z</time>
      </trkpt>
      <trkpt lat="43.73545" lon="3.56896">
        <ele>282</ele>
        <time>2022-05-12T07:43:57.640Z</time>
      </trkpt>
      <trkpt lat="43.73548" lon="3.56894">
        <ele>282</ele>
        <time>2022-05-12T07:43:58.249Z</time>
      </trkpt>
      <trkpt lat="43.7355" lon="3.56893">
        <ele>282</ele>
        <time>2022-05-12T07:43:58.638Z</time>
      </trkpt>
      <trkpt lat="43.73552" lon="3.56891">
        <ele>282</ele>
        <time>2022-05-12T07:43:59.090Z</time>
      </trkpt>
      <trkpt lat="43.73554" lon="3.56889">
        <ele>282</ele>
        <time>2022-05-12T07:43:59.541Z</time>
      </trkpt>
      <trkpt lat="43.73556" lon="3.56888">
        <ele>282</ele>
        <time>2022-05-12T07:43:59.930Z</time>
      </trkpt>
      <trkpt lat="43.73558" lon="3.56887">
        <ele>282</ele>
        <time>2022-05-12T07:44:00.319Z</time>
      </trkpt>
      <trkpt lat="43.73561" lon="3.56885">
        <ele>282</ele>
        <time>2022-05-12T07:44:00.928Z</time>
      </trkpt>
      <trkpt lat="43.73563" lon="3.56884">
        <ele>282</ele>
        <time>2022-05-12T07:44:01.317Z</time>
      </trkpt>
      <trkpt lat="43.73565" lon="3.56883">
        <ele>282</ele>
        <time>2022-05-12T07:44:01.706Z</time>
      </trkpt>
      <trkpt lat="43.73567" lon="3.56882">
        <ele>282</ele>
        <time>2022-05-12T07:44:02.096Z</time>
      </trkpt>
      <trkpt lat="43.73569" lon="3.56882">
        <ele>282</ele>
        <time>2022-05-12T07:44:02.461Z</time>
      </trkpt>
      <trkpt lat="43.73571" lon="3.56883">
        <ele>282</ele>
        <time>2022-05-12T07:44:02.851Z</time>
      </trkpt>
      <trkpt lat="43.73574" lon="3.56885">
        <ele>282</ele>
        <time>2022-05-12T07:44:03.460Z</time>
      </trkpt>
      <trkpt lat="43.73576" lon="3.56886">
        <ele>282</ele>
        <time>2022-05-12T07:44:03.849Z</time>
      </trkpt>
      <trkpt lat="43.73578" lon="3.56888">
        <ele>282</ele>
        <time>2022-05-12T07:44:04.300Z</time>
      </trkpt>
      <trkpt lat="43.73581" lon="3.5689">
        <ele>282</ele>
        <time>2022-05-12T07:44:04.909Z</time>
      </trkpt>
      <trkpt lat="43.73583" lon="3.56893">
        <ele>282</ele>
        <time>2022-05-12T07:44:05.449Z</time>
      </trkpt>
      <trkpt lat="43.73585" lon="3.56896">
        <ele>282</ele>
        <time>2022-05-12T07:44:05.989Z</time>
      </trkpt>
      <trkpt lat="43.73587" lon="3.56899">
        <ele>282</ele>
        <time>2022-05-12T07:44:06.528Z</time>
      </trkpt>
      <trkpt lat="43.73587" lon="3.56904">
        <ele>282</ele>
        <time>2022-05-12T07:44:07.189Z</time>
      </trkpt>
      <trkpt lat="43.73586" lon="3.56908">
        <ele>283</ele>
        <time>2022-05-12T07:44:09.347Z</time>
      </trkpt>
      <trkpt lat="43.73584" lon="3.56911">
        <ele>283</ele>
        <time>2022-05-12T07:44:09.887Z</time>
      </trkpt>
      <trkpt lat="43.73582" lon="3.56915">
        <ele>283</ele>
        <time>2022-05-12T07:44:10.530Z</time>
      </trkpt>
      <trkpt lat="43.73579" lon="3.56919">
        <ele>283</ele>
        <time>2022-05-12T07:44:11.292Z</time>
      </trkpt>
      <trkpt lat="43.73577" lon="3.56922">
        <ele>283</ele>
        <time>2022-05-12T07:44:11.832Z</time>
      </trkpt>
      <trkpt lat="43.73574" lon="3.56926">
        <ele>283</ele>
        <time>2022-05-12T07:44:12.594Z</time>
      </trkpt>
      <trkpt lat="43.7357" lon="3.5693">
        <ele>283</ele>
        <time>2022-05-12T07:44:13.497Z</time>
      </trkpt>
      <trkpt lat="43.73567" lon="3.56932">
        <ele>283</ele>
        <time>2022-05-12T07:44:14.106Z</time>
      </trkpt>
      <trkpt lat="43.73565" lon="3.56936">
        <ele>283</ele>
        <time>2022-05-12T07:44:14.749Z</time>
      </trkpt>
      <trkpt lat="43.73563" lon="3.5694">
        <ele>283</ele>
        <time>2022-05-12T07:44:15.392Z</time>
      </trkpt>
      <trkpt lat="43.73563" lon="3.56945">
        <ele>282</ele>
        <time>2022-05-12T07:44:15.714Z</time>
      </trkpt>
      <trkpt lat="43.73564" lon="3.5695">
        <ele>282</ele>
        <time>2022-05-12T07:44:16.400Z</time>
      </trkpt>
      <trkpt lat="43.73566" lon="3.56955">
        <ele>282</ele>
        <time>2022-05-12T07:44:17.155Z</time>
      </trkpt>
      <trkpt lat="43.73568" lon="3.5696">
        <ele>282</ele>
        <time>2022-05-12T07:44:17.911Z</time>
      </trkpt>
      <trkpt lat="43.73571" lon="3.56964">
        <ele>282</ele>
        <time>2022-05-12T07:44:18.673Z</time>
      </trkpt>
      <trkpt lat="43.73574" lon="3.56968">
        <ele>282</ele>
        <time>2022-05-12T07:44:19.435Z</time>
      </trkpt>
      <trkpt lat="43.73577" lon="3.56971">
        <ele>282</ele>
        <time>2022-05-12T07:44:20.112Z</time>
      </trkpt>
      <trkpt lat="43.73581" lon="3.56975">
        <ele>282</ele>
        <time>2022-05-12T07:44:21.015Z</time>
      </trkpt>
      <trkpt lat="43.73583" lon="3.56979">
        <ele>282</ele>
        <time>2022-05-12T07:44:21.658Z</time>
      </trkpt>
      <trkpt lat="43.73587" lon="3.56984">
        <ele>282</ele>
        <time>2022-05-12T07:44:22.644Z</time>
      </trkpt>
      <trkpt lat="43.7359" lon="3.56988">
        <ele>281</ele>
        <time>2022-05-12T07:44:23.015Z</time>
      </trkpt>
      <trkpt lat="43.73594" lon="3.56993">
        <ele>281</ele>
        <time>2022-05-12T07:44:24.001Z</time>
      </trkpt>
      <trkpt lat="43.73598" lon="3.56996">
        <ele>281</ele>
        <time>2022-05-12T07:44:24.833Z</time>
      </trkpt>
      <trkpt lat="43.73602" lon="3.57001">
        <ele>281</ele>
        <time>2022-05-12T07:44:25.820Z</time>
      </trkpt>
      <trkpt lat="43.73604" lon="3.57006">
        <ele>281</ele>
        <time>2022-05-12T07:44:26.575Z</time>
      </trkpt>
      <trkpt lat="43.73607" lon="3.5701">
        <ele>281</ele>
        <time>2022-05-12T07:44:27.337Z</time>
      </trkpt>
      <trkpt lat="43.73609" lon="3.57014">
        <ele>281</ele>
        <time>2022-05-12T07:44:27.980Z</time>
      </trkpt>
      <trkpt lat="43.73612" lon="3.57018">
        <ele>281</ele>
        <time>2022-05-12T07:44:28.742Z</time>
      </trkpt>
      <trkpt lat="43.73614" lon="3.57023">
        <ele>281</ele>
        <time>2022-05-12T07:44:29.498Z</time>
      </trkpt>
      <trkpt lat="43.73616" lon="3.57027">
        <ele>281</ele>
        <time>2022-05-12T07:44:30.141Z</time>
      </trkpt>
      <trkpt lat="43.73618" lon="3.57032">
        <ele>281</ele>
        <time>2022-05-12T07:44:30.896Z</time>
      </trkpt>
      <trkpt lat="43.73622" lon="3.57036">
        <ele>281</ele>
        <time>2022-05-12T07:44:31.799Z</time>
      </trkpt>
      <trkpt lat="43.73626" lon="3.57041">
        <ele>281</ele>
        <time>2022-05-12T07:44:32.785Z</time>
      </trkpt>
      <trkpt lat="43.7363" lon="3.57046">
        <ele>281</ele>
        <time>2022-05-12T07:44:33.772Z</time>
      </trkpt>
      <trkpt lat="43.73634" lon="3.57051">
        <ele>281</ele>
        <time>2022-05-12T07:44:34.758Z</time>
      </trkpt>
      <trkpt lat="43.73639" lon="3.57056">
        <ele>281</ele>
        <time>2022-05-12T07:44:35.886Z</time>
      </trkpt>
      <trkpt lat="43.73644" lon="3.57061">
        <ele>281</ele>
        <time>2022-05-12T07:44:37.015Z</time>
      </trkpt>
      <trkpt lat="43.7365" lon="3.57065">
        <ele>281</ele>
        <time>2022-05-12T07:44:38.233Z</time>
      </trkpt>
      <trkpt lat="43.73656" lon="3.57068">
        <ele>281</ele>
        <time>2022-05-12T07:44:39.401Z</time>
      </trkpt>
      <trkpt lat="43.73661" lon="3.57071">
        <ele>281</ele>
        <time>2022-05-12T07:44:40.398Z</time>
      </trkpt>
      <trkpt lat="43.73667" lon="3.57072">
        <ele>280</ele>
        <time>2022-05-12T07:44:40.936Z</time>
      </trkpt>
      <trkpt lat="43.73677" lon="3.57078">
        <ele>280</ele>
        <time>2022-05-12T07:44:42.930Z</time>
      </trkpt>
      <trkpt lat="43.73679" lon="3.57079">
        <ele>280</ele>
        <time>2022-05-12T07:44:43.319Z</time>
      </trkpt>
      <trkpt lat="43.73678" lon="3.57079">
        <ele>281</ele>
        <time>2022-05-12T07:44:44.024Z</time>
      </trkpt>
      <trkpt lat="43.73679" lon="3.57067">
        <ele>280</ele>
        <time>2022-05-12T07:44:44.802Z</time>
      </trkpt>
      <trkpt lat="43.73679" lon="3.57064">
        <ele>280</ele>
        <time>2022-05-12T07:44:45.198Z</time>
      </trkpt>
      <trkpt lat="43.73678" lon="3.57061">
        <ele>280</ele>
        <time>2022-05-12T07:44:45.635Z</time>
      </trkpt>
      <trkpt lat="43.73677" lon="3.57058">
        <ele>280</ele>
        <time>2022-05-12T07:44:46.072Z</time>
      </trkpt>
      <trkpt lat="43.73677" lon="3.57055">
        <ele>280</ele>
        <time>2022-05-12T07:44:46.468Z</time>
      </trkpt>
      <trkpt lat="43.73677" lon="3.57052">
        <ele>280</ele>
        <time>2022-05-12T07:44:46.865Z</time>
      </trkpt>
      <trkpt lat="43.73677" lon="3.57048">
        <ele>280</ele>
        <time>2022-05-12T07:44:47.393Z</time>
      </trkpt>
      <trkpt lat="43.73677" lon="3.57045">
        <ele>280</ele>
        <time>2022-05-12T07:44:47.790Z</time>
      </trkpt>
      <trkpt lat="43.73677" lon="3.57042">
        <ele>280</ele>
        <time>2022-05-12T07:44:48.187Z</time>
      </trkpt>
      <trkpt lat="43.73677" lon="3.57038">
        <ele>280</ele>
        <time>2022-05-12T07:44:48.715Z</time>
      </trkpt>
      <trkpt lat="43.73677" lon="3.57035">
        <ele>280</ele>
        <time>2022-05-12T07:44:49.112Z</time>
      </trkpt>
      <trkpt lat="43.73677" lon="3.57022">
        <ele>280</ele>
        <time>2022-05-12T07:44:50.830Z</time>
      </trkpt>
      <trkpt lat="43.73678" lon="3.57018">
        <ele>280</ele>
        <time>2022-05-12T07:44:51.390Z</time>
      </trkpt>
      <trkpt lat="43.73679" lon="3.57013">
        <ele>280</ele>
        <time>2022-05-12T07:44:52.076Z</time>
      </trkpt>
      <trkpt lat="43.7368" lon="3.57009">
        <ele>280</ele>
        <time>2022-05-12T07:44:52.635Z</time>
      </trkpt>
      <trkpt lat="43.73681" lon="3.57005">
        <ele>280</ele>
        <time>2022-05-12T07:44:53.195Z</time>
      </trkpt>
      <trkpt lat="43.73682" lon="3.57">
        <ele>280</ele>
        <time>2022-05-12T07:44:53.881Z</time>
      </trkpt>
      <trkpt lat="43.73683" lon="3.56995">
        <ele>280</ele>
        <time>2022-05-12T07:44:54.566Z</time>
      </trkpt>
      <trkpt lat="43.73684" lon="3.56991">
        <ele>280</ele>
        <time>2022-05-12T07:44:55.126Z</time>
      </trkpt>
      <trkpt lat="43.73687" lon="3.56987">
        <ele>280</ele>
        <time>2022-05-12T07:44:55.888Z</time>
      </trkpt>
      <trkpt lat="43.73689" lon="3.56984">
        <ele>280</ele>
        <time>2022-05-12T07:44:56.428Z</time>
      </trkpt>
      <trkpt lat="43.73691" lon="3.5698">
        <ele>280</ele>
        <time>2022-05-12T07:44:57.071Z</time>
      </trkpt>
      <trkpt lat="43.73694" lon="3.56977">
        <ele>280</ele>
        <time>2022-05-12T07:44:57.748Z</time>
      </trkpt>
      <trkpt lat="43.73697" lon="3.56974">
        <ele>280</ele>
        <time>2022-05-12T07:44:58.425Z</time>
      </trkpt>
      <trkpt lat="43.737" lon="3.56971">
        <ele>280</ele>
        <time>2022-05-12T07:44:59.102Z</time>
      </trkpt>
      <trkpt lat="43.73703" lon="3.56968">
        <ele>280</ele>
        <time>2022-05-12T07:44:59.779Z</time>
      </trkpt>
      <trkpt lat="43.73704" lon="3.56964">
        <ele>280</ele>
        <time>2022-05-12T07:45:00.339Z</time>
      </trkpt>
      <trkpt lat="43.73703" lon="3.56954">
        <ele>279</ele>
        <time>2022-05-12T07:45:00.988Z</time>
      </trkpt>
      <trkpt lat="43.73702" lon="3.56949">
        <ele>279</ele>
        <time>2022-05-12T07:45:01.674Z</time>
      </trkpt>
      <trkpt lat="43.73701" lon="3.56944">
        <ele>279</ele>
        <time>2022-05-12T07:45:02.360Z</time>
      </trkpt>
      <trkpt lat="43.73701" lon="3.56935">
        <ele>279</ele>
        <time>2022-05-12T07:45:03.550Z</time>
      </trkpt>
      <trkpt lat="43.73701" lon="3.56926">
        <ele>279</ele>
        <time>2022-05-12T07:45:04.739Z</time>
      </trkpt>
      <trkpt lat="43.73701" lon="3.56922">
        <ele>279</ele>
        <time>2022-05-12T07:45:05.268Z</time>
      </trkpt>
      <trkpt lat="43.73701" lon="3.56917">
        <ele>279</ele>
        <time>2022-05-12T07:45:05.929Z</time>
      </trkpt>
      <trkpt lat="43.73701" lon="3.56912">
        <ele>279</ele>
        <time>2022-05-12T07:45:06.590Z</time>
      </trkpt>
      <trkpt lat="43.73702" lon="3.56908">
        <ele>281</ele>
        <time>2022-05-12T07:45:08.748Z</time>
      </trkpt>
      <trkpt lat="43.73703" lon="3.56903">
        <ele>281</ele>
        <time>2022-05-12T07:45:09.434Z</time>
      </trkpt>
      <trkpt lat="43.73705" lon="3.56899">
        <ele>281</ele>
        <time>2022-05-12T07:45:10.077Z</time>
      </trkpt>
      <trkpt lat="43.73706" lon="3.56895">
        <ele>281</ele>
        <time>2022-05-12T07:45:10.637Z</time>
      </trkpt>
      <trkpt lat="43.73712" lon="3.56882">
        <ele>281</ele>
        <time>2022-05-12T07:45:12.676Z</time>
      </trkpt>
      <trkpt lat="43.73714" lon="3.56877">
        <ele>281</ele>
        <time>2022-05-12T07:45:13.431Z</time>
      </trkpt>
      <trkpt lat="43.73717" lon="3.56873">
        <ele>281</ele>
        <time>2022-05-12T07:45:14.193Z</time>
      </trkpt>
      <trkpt lat="43.73719" lon="3.56868">
        <ele>281</ele>
        <time>2022-05-12T07:45:14.949Z</time>
      </trkpt>
      <trkpt lat="43.73721" lon="3.56863">
        <ele>281</ele>
        <time>2022-05-12T07:45:15.704Z</time>
      </trkpt>
      <trkpt lat="43.73725" lon="3.56853">
        <ele>281</ele>
        <time>2022-05-12T07:45:17.215Z</time>
      </trkpt>
      <trkpt lat="43.73727" lon="3.56848">
        <ele>281</ele>
        <time>2022-05-12T07:45:17.971Z</time>
      </trkpt>
      <trkpt lat="43.73728" lon="3.56844">
        <ele>281</ele>
        <time>2022-05-12T07:45:18.530Z</time>
      </trkpt>
      <trkpt lat="43.73729" lon="3.56839">
        <ele>281</ele>
        <time>2022-05-12T07:45:19.216Z</time>
      </trkpt>
      <trkpt lat="43.73734" lon="3.56825">
        <ele>281</ele>
        <time>2022-05-12T07:45:21.280Z</time>
      </trkpt>
      <trkpt lat="43.7374" lon="3.5681">
        <ele>281</ele>
        <time>2022-05-12T07:45:23.547Z</time>
      </trkpt>
      <trkpt lat="43.73741" lon="3.56805">
        <ele>281</ele>
        <time>2022-05-12T07:45:24.233Z</time>
      </trkpt>
      <trkpt lat="43.73741" lon="3.568">
        <ele>281</ele>
        <time>2022-05-12T07:45:24.894Z</time>
      </trkpt>
      <trkpt lat="43.73741" lon="3.56794">
        <ele>281</ele>
        <time>2022-05-12T07:45:25.687Z</time>
      </trkpt>
      <trkpt lat="43.73742" lon="3.56788">
        <ele>281</ele>
        <time>2022-05-12T07:45:26.501Z</time>
      </trkpt>
      <trkpt lat="43.73744" lon="3.56783">
        <ele>281</ele>
        <time>2022-05-12T07:45:27.256Z</time>
      </trkpt>
      <trkpt lat="43.73745" lon="3.56778">
        <ele>281</ele>
        <time>2022-05-12T07:45:27.942Z</time>
      </trkpt>
      <trkpt lat="43.73747" lon="3.56773">
        <ele>281</ele>
        <time>2022-05-12T07:45:28.698Z</time>
      </trkpt>
      <trkpt lat="43.73747" lon="3.56767">
        <ele>281</ele>
        <time>2022-05-12T07:45:29.491Z</time>
      </trkpt>
      <trkpt lat="43.73747" lon="3.56761">
        <ele>282</ele>
        <time>2022-05-12T07:45:32.550Z</time>
      </trkpt>
      <trkpt lat="43.73748" lon="3.56755">
        <ele>282</ele>
        <time>2022-05-12T07:45:33.364Z</time>
      </trkpt>
      <trkpt lat="43.73748" lon="3.56748">
        <ele>282</ele>
        <time>2022-05-12T07:45:34.289Z</time>
      </trkpt>
      <trkpt lat="43.73749" lon="3.5674">
        <ele>282</ele>
        <time>2022-05-12T07:45:35.362Z</time>
      </trkpt>
      <trkpt lat="43.73749" lon="3.56732">
        <ele>282</ele>
        <time>2022-05-12T07:45:36.420Z</time>
      </trkpt>
      <trkpt lat="43.7375" lon="3.56723">
        <ele>282</ele>
        <time>2022-05-12T07:45:37.624Z</time>
      </trkpt>
      <trkpt lat="43.7375" lon="3.56715">
        <ele>282</ele>
        <time>2022-05-12T07:45:38.681Z</time>
      </trkpt>
      <trkpt lat="43.7375" lon="3.56707">
        <ele>282</ele>
        <time>2022-05-12T07:45:39.739Z</time>
      </trkpt>
      <trkpt lat="43.7375" lon="3.56698">
        <ele>282</ele>
        <time>2022-05-12T07:45:40.928Z</time>
      </trkpt>
      <trkpt lat="43.73749" lon="3.56689">
        <ele>282</ele>
        <time>2022-05-12T07:45:42.132Z</time>
      </trkpt>
      <trkpt lat="43.73749" lon="3.56681">
        <ele>282</ele>
        <time>2022-05-12T07:45:43.190Z</time>
      </trkpt>
      <trkpt lat="43.7375" lon="3.56673">
        <ele>282</ele>
        <time>2022-05-12T07:45:44.263Z</time>
      </trkpt>
      <trkpt lat="43.73751" lon="3.56665">
        <ele>282</ele>
        <time>2022-05-12T07:45:45.336Z</time>
      </trkpt>
      <trkpt lat="43.73753" lon="3.56657">
        <ele>282</ele>
        <time>2022-05-12T07:45:46.455Z</time>
      </trkpt>
      <trkpt lat="43.73753" lon="3.56649">
        <ele>282</ele>
        <time>2022-05-12T07:45:47.513Z</time>
      </trkpt>
      <trkpt lat="43.73753" lon="3.56641">
        <ele>282</ele>
        <time>2022-05-12T07:45:48.570Z</time>
      </trkpt>
      <trkpt lat="43.73752" lon="3.56634">
        <ele>282</ele>
        <time>2022-05-12T07:45:49.513Z</time>
      </trkpt>
      <trkpt lat="43.7375" lon="3.56629">
        <ele>282</ele>
        <time>2022-05-12T07:45:50.269Z</time>
      </trkpt>
      <trkpt lat="43.73747" lon="3.56625">
        <ele>282</ele>
        <time>2022-05-12T07:45:51.031Z</time>
      </trkpt>
      <trkpt lat="43.73744" lon="3.56621">
        <ele>282</ele>
        <time>2022-05-12T07:45:51.793Z</time>
      </trkpt>
      <trkpt lat="43.73742" lon="3.56617">
        <ele>282</ele>
        <time>2022-05-12T07:45:52.436Z</time>
      </trkpt>
      <trkpt lat="43.73739" lon="3.56613">
        <ele>282</ele>
        <time>2022-05-12T07:45:53.198Z</time>
      </trkpt>
      <trkpt lat="43.73737" lon="3.56609">
        <ele>282</ele>
        <time>2022-05-12T07:45:53.841Z</time>
      </trkpt>
      <trkpt lat="43.73733" lon="3.56607">
        <ele>282</ele>
        <time>2022-05-12T07:45:54.619Z</time>
      </trkpt>
      <trkpt lat="43.7373" lon="3.56607">
        <ele>282</ele>
        <time>2022-05-12T07:45:55.168Z</time>
      </trkpt>
      <trkpt lat="43.73726" lon="3.56607">
        <ele>282</ele>
        <time>2022-05-12T07:45:55.900Z</time>
      </trkpt>
      <trkpt lat="43.73722" lon="3.56606">
        <ele>282</ele>
        <time>2022-05-12T07:45:56.644Z</time>
      </trkpt>
      <trkpt lat="43.73718" lon="3.56605">
        <ele>282</ele>
        <time>2022-05-12T07:45:57.388Z</time>
      </trkpt>
      <trkpt lat="43.73714" lon="3.56603">
        <ele>282</ele>
        <time>2022-05-12T07:45:58.166Z</time>
      </trkpt>
      <trkpt lat="43.7371" lon="3.56602">
        <ele>282</ele>
        <time>2022-05-12T07:45:58.909Z</time>
      </trkpt>
      <trkpt lat="43.73707" lon="3.566">
        <ele>283</ele>
        <time>2022-05-12T07:46:01.259Z</time>
      </trkpt>
      <trkpt lat="43.73703" lon="3.56598">
        <ele>283</ele>
        <time>2022-05-12T07:46:02.037Z</time>
      </trkpt>
      <trkpt lat="43.73699" lon="3.56596">
        <ele>283</ele>
        <time>2022-05-12T07:46:02.815Z</time>
      </trkpt>
      <trkpt lat="43.73695" lon="3.56595">
        <ele>283</ele>
        <time>2022-05-12T07:46:03.559Z</time>
      </trkpt>
      <trkpt lat="43.73692" lon="3.56594">
        <ele>283</ele>
        <time>2022-05-12T07:46:04.124Z</time>
      </trkpt>
      <trkpt lat="43.73687" lon="3.56592">
        <ele>283</ele>
        <time>2022-05-12T07:46:05.076Z</time>
      </trkpt>
      <trkpt lat="43.73678" lon="3.56588">
        <ele>283</ele>
        <time>2022-05-12T07:46:06.805Z</time>
      </trkpt>
      <trkpt lat="43.73668" lon="3.56585">
        <ele>283</ele>
        <time>2022-05-12T07:46:08.677Z</time>
      </trkpt>
      <trkpt lat="43.73658" lon="3.56581">
        <ele>283</ele>
        <time>2022-05-12T07:46:10.582Z</time>
      </trkpt>
      <trkpt lat="43.73654" lon="3.56579">
        <ele>283</ele>
        <time>2022-05-12T07:46:11.360Z</time>
      </trkpt>
      <trkpt lat="43.73649" lon="3.56577">
        <ele>283</ele>
        <time>2022-05-12T07:46:12.312Z</time>
      </trkpt>
      <trkpt lat="43.73644" lon="3.56575">
        <ele>283</ele>
        <time>2022-05-12T07:46:13.265Z</time>
      </trkpt>
      <trkpt lat="43.7364" lon="3.56573">
        <ele>283</ele>
        <time>2022-05-12T07:46:14.043Z</time>
      </trkpt>
      <trkpt lat="43.73635" lon="3.56571">
        <ele>283</ele>
        <time>2022-05-12T07:46:14.995Z</time>
      </trkpt>
      <trkpt lat="43.73631" lon="3.5657">
        <ele>283</ele>
        <time>2022-05-12T07:46:15.739Z</time>
      </trkpt>
      <trkpt lat="43.73627" lon="3.56568">
        <ele>283</ele>
        <time>2022-05-12T07:46:16.517Z</time>
      </trkpt>
      <trkpt lat="43.73622" lon="3.56567">
        <ele>283</ele>
        <time>2022-05-12T07:46:17.441Z</time>
      </trkpt>
      <trkpt lat="43.73617" lon="3.56565">
        <ele>283</ele>
        <time>2022-05-12T07:46:18.393Z</time>
      </trkpt>
      <trkpt lat="43.73612" lon="3.56564">
        <ele>283</ele>
        <time>2022-05-12T07:46:19.317Z</time>
      </trkpt>
      <trkpt lat="43.73606" lon="3.56561">
        <ele>283</ele>
        <time>2022-05-12T07:46:20.485Z</time>
      </trkpt>
      <trkpt lat="43.736" lon="3.56558">
        <ele>283</ele>
        <time>2022-05-12T07:46:21.652Z</time>
      </trkpt>
      <trkpt lat="43.73594" lon="3.56555">
        <ele>283</ele>
        <time>2022-05-12T07:46:22.819Z</time>
      </trkpt>
      <trkpt lat="43.73587" lon="3.56553">
        <ele>283</ele>
        <time>2022-05-12T07:46:24.127Z</time>
      </trkpt>
      <trkpt lat="43.7358" lon="3.56551">
        <ele>283</ele>
        <time>2022-05-12T07:46:25.434Z</time>
      </trkpt>
      <trkpt lat="43.73574" lon="3.56548">
        <ele>283</ele>
        <time>2022-05-12T07:46:26.602Z</time>
      </trkpt>
      <trkpt lat="43.73568" lon="3.56545">
        <ele>283</ele>
        <time>2022-05-12T07:46:27.769Z</time>
      </trkpt>
      <trkpt lat="43.73562" lon="3.56541">
        <ele>283</ele>
        <time>2022-05-12T07:46:28.987Z</time>
      </trkpt>
      <trkpt lat="43.73555" lon="3.56539">
        <ele>282</ele>
        <time>2022-05-12T07:46:29.624Z</time>
      </trkpt>
      <trkpt lat="43.7355" lon="3.56537">
        <ele>282</ele>
        <time>2022-05-12T07:46:30.576Z</time>
      </trkpt>
      <trkpt lat="43.73544" lon="3.56536">
        <ele>282</ele>
        <time>2022-05-12T07:46:31.682Z</time>
      </trkpt>
      <trkpt lat="43.73539" lon="3.56534">
        <ele>282</ele>
        <time>2022-05-12T07:46:32.634Z</time>
      </trkpt>
      <trkpt lat="43.73534" lon="3.56533">
        <ele>282</ele>
        <time>2022-05-12T07:46:33.558Z</time>
      </trkpt>
      <trkpt lat="43.73529" lon="3.56531">
        <ele>282</ele>
        <time>2022-05-12T07:46:34.510Z</time>
      </trkpt>
      <trkpt lat="43.73523" lon="3.56528">
        <ele>282</ele>
        <time>2022-05-12T07:46:35.678Z</time>
      </trkpt>
      <trkpt lat="43.73519" lon="3.56526">
        <ele>282</ele>
        <time>2022-05-12T07:46:36.456Z</time>
      </trkpt>
      <trkpt lat="43.73514" lon="3.56525">
        <ele>282</ele>
        <time>2022-05-12T07:46:37.380Z</time>
      </trkpt>
      <trkpt lat="43.7351" lon="3.56522">
        <ele>282</ele>
        <time>2022-05-12T07:46:38.212Z</time>
      </trkpt>
      <trkpt lat="43.73506" lon="3.5652">
        <ele>283</ele>
        <time>2022-05-12T07:46:41.214Z</time>
      </trkpt>
      <trkpt lat="43.73501" lon="3.56519">
        <ele>283</ele>
        <time>2022-05-12T07:46:42.138Z</time>
      </trkpt>
      <trkpt lat="43.73497" lon="3.56517">
        <ele>283</ele>
        <time>2022-05-12T07:46:42.916Z</time>
      </trkpt>
      <trkpt lat="43.73493" lon="3.56515">
        <ele>283</ele>
        <time>2022-05-12T07:46:43.694Z</time>
      </trkpt>
      <trkpt lat="43.73488" lon="3.56513">
        <ele>283</ele>
        <time>2022-05-12T07:46:44.646Z</time>
      </trkpt>
      <trkpt lat="43.73484" lon="3.56512">
        <ele>283</ele>
        <time>2022-05-12T07:46:45.390Z</time>
      </trkpt>
      <trkpt lat="43.73479" lon="3.5651">
        <ele>283</ele>
        <time>2022-05-12T07:46:46.342Z</time>
      </trkpt>
      <trkpt lat="43.73475" lon="3.56508">
        <ele>283</ele>
        <time>2022-05-12T07:46:47.120Z</time>
      </trkpt>
      <trkpt lat="43.7347" lon="3.56506">
        <ele>283</ele>
        <time>2022-05-12T07:46:48.073Z</time>
      </trkpt>
      <trkpt lat="43.73466" lon="3.56505">
        <ele>283</ele>
        <time>2022-05-12T07:46:48.816Z</time>
      </trkpt>
      <trkpt lat="43.73461" lon="3.56503">
        <ele>284</ele>
        <time>2022-05-12T07:46:52.489Z</time>
      </trkpt>
      <trkpt lat="43.73456" lon="3.56501">
        <ele>284</ele>
        <time>2022-05-12T07:46:53.442Z</time>
      </trkpt>
      <trkpt lat="43.73451" lon="3.56499">
        <ele>284</ele>
        <time>2022-05-12T07:46:54.394Z</time>
      </trkpt>
      <trkpt lat="43.73446" lon="3.56497">
        <ele>284</ele>
        <time>2022-05-12T07:46:55.346Z</time>
      </trkpt>
      <trkpt lat="43.73442" lon="3.56495">
        <ele>284</ele>
        <time>2022-05-12T07:46:56.124Z</time>
      </trkpt>
      <trkpt lat="43.73437" lon="3.56494">
        <ele>284</ele>
        <time>2022-05-12T07:46:57.048Z</time>
      </trkpt>
      <trkpt lat="43.73432" lon="3.56492">
        <ele>284</ele>
        <time>2022-05-12T07:46:58.001Z</time>
      </trkpt>
      <trkpt lat="43.73428" lon="3.56491">
        <ele>284</ele>
        <time>2022-05-12T07:46:58.744Z</time>
      </trkpt>
      <trkpt lat="43.73423" lon="3.56489">
        <ele>284</ele>
        <time>2022-05-12T07:46:59.697Z</time>
      </trkpt>
      <trkpt lat="43.73419" lon="3.56487">
        <ele>284</ele>
        <time>2022-05-12T07:47:00.475Z</time>
      </trkpt>
      <trkpt lat="43.73415" lon="3.56486">
        <ele>284</ele>
        <time>2022-05-12T07:47:01.218Z</time>
      </trkpt>
      <trkpt lat="43.7341" lon="3.56484">
        <ele>284</ele>
        <time>2022-05-12T07:47:02.171Z</time>
      </trkpt>
      <trkpt lat="43.73406" lon="3.56482">
        <ele>284</ele>
        <time>2022-05-12T07:47:02.949Z</time>
      </trkpt>
      <trkpt lat="43.73401" lon="3.5648">
        <ele>284</ele>
        <time>2022-05-12T07:47:03.901Z</time>
      </trkpt>
      <trkpt lat="43.73396" lon="3.56478">
        <ele>284</ele>
        <time>2022-05-12T07:47:04.853Z</time>
      </trkpt>
      <trkpt lat="43.73392" lon="3.56476">
        <ele>284</ele>
        <time>2022-05-12T07:47:05.631Z</time>
      </trkpt>
      <trkpt lat="43.73387" lon="3.56474">
        <ele>284</ele>
        <time>2022-05-12T07:47:06.584Z</time>
      </trkpt>
      <trkpt lat="43.73382" lon="3.56472">
        <ele>284</ele>
        <time>2022-05-12T07:47:07.536Z</time>
      </trkpt>
      <trkpt lat="43.73377" lon="3.5647">
        <ele>284</ele>
        <time>2022-05-12T07:47:08.488Z</time>
      </trkpt>
      <trkpt lat="43.73372" lon="3.56468">
        <ele>284</ele>
        <time>2022-05-12T07:47:09.440Z</time>
      </trkpt>
      <trkpt lat="43.73367" lon="3.56466">
        <ele>285</ele>
        <time>2022-05-12T07:47:13.113Z</time>
      </trkpt>
      <trkpt lat="43.73362" lon="3.56464">
        <ele>285</ele>
        <time>2022-05-12T07:47:14.065Z</time>
      </trkpt>
      <trkpt lat="43.73357" lon="3.56462">
        <ele>285</ele>
        <time>2022-05-12T07:47:15.018Z</time>
      </trkpt>
      <trkpt lat="43.73352" lon="3.56461">
        <ele>285</ele>
        <time>2022-05-12T07:47:15.942Z</time>
      </trkpt>
      <trkpt lat="43.73348" lon="3.5646">
        <ele>285</ele>
        <time>2022-05-12T07:47:16.686Z</time>
      </trkpt>
      <trkpt lat="43.73344" lon="3.56459">
        <ele>285</ele>
        <time>2022-05-12T07:47:17.429Z</time>
      </trkpt>
      <trkpt lat="43.73339" lon="3.56457">
        <ele>285</ele>
        <time>2022-05-12T07:47:18.381Z</time>
      </trkpt>
      <trkpt lat="43.73334" lon="3.56455">
        <ele>285</ele>
        <time>2022-05-12T07:47:19.334Z</time>
      </trkpt>
      <trkpt lat="43.7333" lon="3.56452">
        <ele>285</ele>
        <time>2022-05-12T07:47:20.166Z</time>
      </trkpt>
      <trkpt lat="43.7332" lon="3.56448">
        <ele>285</ele>
        <time>2022-05-12T07:47:22.071Z</time>
      </trkpt>
      <trkpt lat="43.73313" lon="3.56447">
        <ele>285</ele>
        <time>2022-05-12T07:47:23.358Z</time>
      </trkpt>
      <trkpt lat="43.7331" lon="3.56446">
        <ele>285</ele>
        <time>2022-05-12T07:47:23.923Z</time>
      </trkpt>
      <trkpt lat="43.73307" lon="3.56446">
        <ele>285</ele>
        <time>2022-05-12T07:47:24.472Z</time>
      </trkpt>
      <trkpt lat="43.73303" lon="3.56445">
        <ele>285</ele>
        <time>2022-05-12T07:47:25.215Z</time>
      </trkpt>
      <trkpt lat="43.733" lon="3.56444">
        <ele>285</ele>
        <time>2022-05-12T07:47:25.780Z</time>
      </trkpt>
      <trkpt lat="43.73297" lon="3.56442">
        <ele>285</ele>
        <time>2022-05-12T07:47:26.389Z</time>
      </trkpt>
      <trkpt lat="43.73294" lon="3.56441">
        <ele>285</ele>
        <time>2022-05-12T07:47:26.954Z</time>
      </trkpt>
      <trkpt lat="43.73292" lon="3.5644">
        <ele>286</ele>
        <time>2022-05-12T07:47:28.454Z</time>
      </trkpt>
      <trkpt lat="43.73289" lon="3.56438">
        <ele>286</ele>
        <time>2022-05-12T07:47:29.064Z</time>
      </trkpt>
      <trkpt lat="43.73286" lon="3.56437">
        <ele>286</ele>
        <time>2022-05-12T07:47:29.628Z</time>
      </trkpt>
      <trkpt lat="43.73284" lon="3.56436">
        <ele>286</ele>
        <time>2022-05-12T07:47:30.017Z</time>
      </trkpt>
      <trkpt lat="43.73281" lon="3.56435">
        <ele>286</ele>
        <time>2022-05-12T07:47:30.582Z</time>
      </trkpt>
      <trkpt lat="43.73279" lon="3.56434">
        <ele>286</ele>
        <time>2022-05-12T07:47:30.971Z</time>
      </trkpt>
      <trkpt lat="43.73276" lon="3.56433">
        <ele>286</ele>
        <time>2022-05-12T07:47:31.535Z</time>
      </trkpt>
      <trkpt lat="43.73273" lon="3.56431">
        <ele>286</ele>
        <time>2022-05-12T07:47:32.145Z</time>
      </trkpt>
      <trkpt lat="43.73271" lon="3.5643">
        <ele>286</ele>
        <time>2022-05-12T07:47:32.534Z</time>
      </trkpt>
      <trkpt lat="43.73268" lon="3.56429">
        <ele>286</ele>
        <time>2022-05-12T07:47:33.098Z</time>
      </trkpt>
      <trkpt lat="43.73265" lon="3.56428">
        <ele>287</ele>
        <time>2022-05-12T07:47:35.276Z</time>
      </trkpt>
      <trkpt lat="43.73259" lon="3.56424">
        <ele>287</ele>
        <time>2022-05-12T07:47:36.494Z</time>
      </trkpt>
      <trkpt lat="43.73256" lon="3.56422">
        <ele>287</ele>
        <time>2022-05-12T07:47:37.104Z</time>
      </trkpt>
      <trkpt lat="43.73254" lon="3.5642">
        <ele>287</ele>
        <time>2022-05-12T07:47:37.555Z</time>
      </trkpt>
      <trkpt lat="43.73251" lon="3.56419">
        <ele>287</ele>
        <time>2022-05-12T07:47:38.120Z</time>
      </trkpt>
      <trkpt lat="43.73248" lon="3.56418">
        <ele>287</ele>
        <time>2022-05-12T07:47:38.684Z</time>
      </trkpt>
      <trkpt lat="43.73245" lon="3.56417">
        <ele>287</ele>
        <time>2022-05-12T07:47:39.249Z</time>
      </trkpt>
      <trkpt lat="43.73242" lon="3.56416">
        <ele>287</ele>
        <time>2022-05-12T07:47:39.813Z</time>
      </trkpt>
      <trkpt lat="43.73238" lon="3.56416">
        <ele>287</ele>
        <time>2022-05-12T07:47:40.545Z</time>
      </trkpt>
      <trkpt lat="43.73235" lon="3.56416">
        <ele>288</ele>
        <time>2022-05-12T07:47:42.662Z</time>
      </trkpt>
      <trkpt lat="43.73231" lon="3.56416">
        <ele>288</ele>
        <time>2022-05-12T07:47:43.394Z</time>
      </trkpt>
      <trkpt lat="43.73227" lon="3.56414">
        <ele>288</ele>
        <time>2022-05-12T07:47:44.172Z</time>
      </trkpt>
      <trkpt lat="43.73223" lon="3.56413">
        <ele>288</ele>
        <time>2022-05-12T07:47:44.916Z</time>
      </trkpt>
      <trkpt lat="43.73219" lon="3.56411">
        <ele>288</ele>
        <time>2022-05-12T07:47:45.694Z</time>
      </trkpt>
      <trkpt lat="43.73216" lon="3.56409">
        <ele>288</ele>
        <time>2022-05-12T07:47:46.303Z</time>
      </trkpt>
      <trkpt lat="43.73211" lon="3.56408">
        <ele>288</ele>
        <time>2022-05-12T07:47:47.228Z</time>
      </trkpt>
      <trkpt lat="43.73207" lon="3.56406">
        <ele>288</ele>
        <time>2022-05-12T07:47:48.006Z</time>
      </trkpt>
      <trkpt lat="43.73203" lon="3.56405">
        <ele>288</ele>
        <time>2022-05-12T07:47:48.749Z</time>
      </trkpt>
      <trkpt lat="43.73199" lon="3.56403">
        <ele>288</ele>
        <time>2022-05-12T07:47:49.527Z</time>
      </trkpt>
      <trkpt lat="43.73196" lon="3.56402">
        <ele>288</ele>
        <time>2022-05-12T07:47:50.092Z</time>
      </trkpt>
      <trkpt lat="43.73192" lon="3.564">
        <ele>288</ele>
        <time>2022-05-12T07:47:50.870Z</time>
      </trkpt>
      <trkpt lat="43.73189" lon="3.56399">
        <ele>288</ele>
        <time>2022-05-12T07:47:51.435Z</time>
      </trkpt>
      <trkpt lat="43.73179" lon="3.56394">
        <ele>288</ele>
        <time>2022-05-12T07:47:53.380Z</time>
      </trkpt>
      <trkpt lat="43.7317" lon="3.5639">
        <ele>288</ele>
        <time>2022-05-12T07:47:55.110Z</time>
      </trkpt>
      <trkpt lat="43.73161" lon="3.56387">
        <ele>288</ele>
        <time>2022-05-12T07:47:56.803Z</time>
      </trkpt>
      <trkpt lat="43.73151" lon="3.56383">
        <ele>288</ele>
        <time>2022-05-12T07:47:58.708Z</time>
      </trkpt>
      <trkpt lat="43.73146" lon="3.56381">
        <ele>288</ele>
        <time>2022-05-12T07:47:59.660Z</time>
      </trkpt>
      <trkpt lat="43.73141" lon="3.56379">
        <ele>288</ele>
        <time>2022-05-12T07:48:00.612Z</time>
      </trkpt>
      <trkpt lat="43.73129" lon="3.56375">
        <ele>288</ele>
        <time>2022-05-12T07:48:02.870Z</time>
      </trkpt>
      <trkpt lat="43.73123" lon="3.56372">
        <ele>288</ele>
        <time>2022-05-12T07:48:04.038Z</time>
      </trkpt>
      <trkpt lat="43.73117" lon="3.5637">
        <ele>288</ele>
        <time>2022-05-12T07:48:05.167Z</time>
      </trkpt>
      <trkpt lat="43.73106" lon="3.56365">
        <ele>288</ele>
        <time>2022-05-12T07:48:07.285Z</time>
      </trkpt>
      <trkpt lat="43.73094" lon="3.56361">
        <ele>287</ele>
        <time>2022-05-12T07:48:08.384Z</time>
      </trkpt>
      <trkpt lat="43.73087" lon="3.56359">
        <ele>287</ele>
        <time>2022-05-12T07:48:09.692Z</time>
      </trkpt>
      <trkpt lat="43.73074" lon="3.56355">
        <ele>287</ele>
        <time>2022-05-12T07:48:12.128Z</time>
      </trkpt>
      <trkpt lat="43.7306" lon="3.5635">
        <ele>287</ele>
        <time>2022-05-12T07:48:14.774Z</time>
      </trkpt>
      <trkpt lat="43.73047" lon="3.56346">
        <ele>287</ele>
        <time>2022-05-12T07:48:17.210Z</time>
      </trkpt>
      <trkpt lat="43.73034" lon="3.56341">
        <ele>285</ele>
        <time>2022-05-12T07:48:18.411Z</time>
      </trkpt>
      <trkpt lat="43.73021" lon="3.56336">
        <ele>285</ele>
        <time>2022-05-12T07:48:20.880Z</time>
      </trkpt>
      <trkpt lat="43.7301" lon="3.56332">
        <ele>285</ele>
        <time>2022-05-12T07:48:22.961Z</time>
      </trkpt>
      <trkpt lat="43.72998" lon="3.56327">
        <ele>285</ele>
        <time>2022-05-12T07:48:25.254Z</time>
      </trkpt>
      <trkpt lat="43.72986" lon="3.56323">
        <ele>285</ele>
        <time>2022-05-12T07:48:27.512Z</time>
      </trkpt>
      <trkpt lat="43.72975" lon="3.56317">
        <ele>284</ele>
        <time>2022-05-12T07:48:28.565Z</time>
      </trkpt>
      <trkpt lat="43.72963" lon="3.56314">
        <ele>284</ele>
        <time>2022-05-12T07:48:30.796Z</time>
      </trkpt>
      <trkpt lat="43.72951" lon="3.5631">
        <ele>284</ele>
        <time>2022-05-12T07:48:33.054Z</time>
      </trkpt>
      <trkpt lat="43.72939" lon="3.56306">
        <ele>284</ele>
        <time>2022-05-12T07:48:35.312Z</time>
      </trkpt>
      <trkpt lat="43.72928" lon="3.563">
        <ele>284</ele>
        <time>2022-05-12T07:48:37.475Z</time>
      </trkpt>
      <trkpt lat="43.72916" lon="3.56296">
        <ele>283</ele>
        <time>2022-05-12T07:48:38.574Z</time>
      </trkpt>
      <trkpt lat="43.72908" lon="3.56289">
        <ele>283</ele>
        <time>2022-05-12T07:48:40.306Z</time>
      </trkpt>
      <trkpt lat="43.72907" lon="3.56281">
        <ele>283</ele>
        <time>2022-05-12T07:48:41.379Z</time>
      </trkpt>
      <trkpt lat="43.72908" lon="3.56278">
        <ele>283</ele>
        <time>2022-05-12T07:48:41.816Z</time>
      </trkpt>
      <trkpt lat="43.72909" lon="3.56274">
        <ele>283</ele>
        <time>2022-05-12T07:48:42.376Z</time>
      </trkpt>
      <trkpt lat="43.72911" lon="3.56269">
        <ele>283</ele>
        <time>2022-05-12T07:48:43.131Z</time>
      </trkpt>
      <trkpt lat="43.72913" lon="3.56265">
        <ele>283</ele>
        <time>2022-05-12T07:48:43.774Z</time>
      </trkpt>
      <trkpt lat="43.72917" lon="3.56261">
        <ele>283</ele>
        <time>2022-05-12T07:48:44.677Z</time>
      </trkpt>
      <trkpt lat="43.7292" lon="3.56257">
        <ele>283</ele>
        <time>2022-05-12T07:48:45.440Z</time>
      </trkpt>
      <trkpt lat="43.72923" lon="3.56253">
        <ele>283</ele>
        <time>2022-05-12T07:48:46.202Z</time>
      </trkpt>
      <trkpt lat="43.72927" lon="3.56248">
        <ele>283</ele>
        <time>2022-05-12T07:48:47.188Z</time>
      </trkpt>
      <trkpt lat="43.7293" lon="3.56243">
        <ele>283</ele>
        <time>2022-05-12T07:48:48.047Z</time>
      </trkpt>
      <trkpt lat="43.72933" lon="3.56237">
        <ele>283</ele>
        <time>2022-05-12T07:48:49.012Z</time>
      </trkpt>
      <trkpt lat="43.72937" lon="3.56232">
        <ele>283</ele>
        <time>2022-05-12T07:48:49.998Z</time>
      </trkpt>
      <trkpt lat="43.72941" lon="3.56227">
        <ele>283</ele>
        <time>2022-05-12T07:48:50.984Z</time>
      </trkpt>
      <trkpt lat="43.72946" lon="3.56223">
        <ele>283</ele>
        <time>2022-05-12T07:48:52.041Z</time>
      </trkpt>
      <trkpt lat="43.72951" lon="3.56219">
        <ele>281</ele>
        <time>2022-05-12T07:48:52.555Z</time>
      </trkpt>
      <trkpt lat="43.72956" lon="3.56216">
        <ele>281</ele>
        <time>2022-05-12T07:48:53.552Z</time>
      </trkpt>
      <trkpt lat="43.72961" lon="3.56212">
        <ele>281</ele>
        <time>2022-05-12T07:48:54.609Z</time>
      </trkpt>
      <trkpt lat="43.72967" lon="3.56208">
        <ele>281</ele>
        <time>2022-05-12T07:48:55.827Z</time>
      </trkpt>
      <trkpt lat="43.72972" lon="3.56206">
        <ele>281</ele>
        <time>2022-05-12T07:48:56.779Z</time>
      </trkpt>
      <trkpt lat="43.72978" lon="3.56204">
        <ele>281</ele>
        <time>2022-05-12T07:48:57.908Z</time>
      </trkpt>
      <trkpt lat="43.72984" lon="3.56205">
        <ele>281</ele>
        <time>2022-05-12T07:48:59.014Z</time>
      </trkpt>
      <trkpt lat="43.7299" lon="3.56205">
        <ele>281</ele>
        <time>2022-05-12T07:49:00.112Z</time>
      </trkpt>
      <trkpt lat="43.72995" lon="3.56207">
        <ele>281</ele>
        <time>2022-05-12T07:49:01.064Z</time>
      </trkpt>
      <trkpt lat="43.73" lon="3.56209">
        <ele>281</ele>
        <time>2022-05-12T07:49:02.016Z</time>
      </trkpt>
      <trkpt lat="43.73005" lon="3.56211">
        <ele>280</ele>
        <time>2022-05-12T07:49:02.480Z</time>
      </trkpt>
      <trkpt lat="43.7301" lon="3.56213">
        <ele>280</ele>
        <time>2022-05-12T07:49:03.432Z</time>
      </trkpt>
      <trkpt lat="43.73015" lon="3.56215">
        <ele>280</ele>
        <time>2022-05-12T07:49:04.384Z</time>
      </trkpt>
      <trkpt lat="43.73019" lon="3.56215">
        <ele>280</ele>
        <time>2022-05-12T07:49:05.116Z</time>
      </trkpt>
      <trkpt lat="43.73023" lon="3.56215">
        <ele>280</ele>
        <time>2022-05-12T07:49:05.848Z</time>
      </trkpt>
      <trkpt lat="43.73027" lon="3.56213">
        <ele>280</ele>
        <time>2022-05-12T07:49:06.626Z</time>
      </trkpt>
      <trkpt lat="43.73031" lon="3.5621">
        <ele>280</ele>
        <time>2022-05-12T07:49:07.458Z</time>
      </trkpt>
      <trkpt lat="43.73035" lon="3.56208">
        <ele>280</ele>
        <time>2022-05-12T07:49:08.237Z</time>
      </trkpt>
      <trkpt lat="43.73038" lon="3.56205">
        <ele>280</ele>
        <time>2022-05-12T07:49:08.914Z</time>
      </trkpt>
      <trkpt lat="43.73041" lon="3.56201">
        <ele>280</ele>
        <time>2022-05-12T07:49:09.676Z</time>
      </trkpt>
      <trkpt lat="43.73045" lon="3.56197">
        <ele>281</ele>
        <time>2022-05-12T07:49:13.159Z</time>
      </trkpt>
      <trkpt lat="43.73048" lon="3.56193">
        <ele>281</ele>
        <time>2022-05-12T07:49:13.921Z</time>
      </trkpt>
      <trkpt lat="43.73051" lon="3.5619">
        <ele>281</ele>
        <time>2022-05-12T07:49:14.598Z</time>
      </trkpt>
      <trkpt lat="43.73055" lon="3.56186">
        <ele>281</ele>
        <time>2022-05-12T07:49:15.501Z</time>
      </trkpt>
      <trkpt lat="43.73058" lon="3.56182">
        <ele>281</ele>
        <time>2022-05-12T07:49:16.263Z</time>
      </trkpt>
      <trkpt lat="43.73062" lon="3.56179">
        <ele>281</ele>
        <time>2022-05-12T07:49:17.095Z</time>
      </trkpt>
      <trkpt lat="43.73065" lon="3.56175">
        <ele>281</ele>
        <time>2022-05-12T07:49:17.858Z</time>
      </trkpt>
      <trkpt lat="43.73068" lon="3.56173">
        <ele>281</ele>
        <time>2022-05-12T07:49:18.467Z</time>
      </trkpt>
      <trkpt lat="43.73071" lon="3.5617">
        <ele>281</ele>
        <time>2022-05-12T07:49:19.144Z</time>
      </trkpt>
      <trkpt lat="43.73074" lon="3.56167">
        <ele>281</ele>
        <time>2022-05-12T07:49:19.821Z</time>
      </trkpt>
      <trkpt lat="43.73077" lon="3.56165">
        <ele>281</ele>
        <time>2022-05-12T07:49:20.430Z</time>
      </trkpt>
      <trkpt lat="43.73079" lon="3.56162">
        <ele>281</ele>
        <time>2022-05-12T07:49:20.970Z</time>
      </trkpt>
      <trkpt lat="43.73082" lon="3.56159">
        <ele>281</ele>
        <time>2022-05-12T07:49:21.647Z</time>
      </trkpt>
      <trkpt lat="43.73084" lon="3.56156">
        <ele>281</ele>
        <time>2022-05-12T07:49:22.187Z</time>
      </trkpt>
      <trkpt lat="43.73086" lon="3.56153">
        <ele>281</ele>
        <time>2022-05-12T07:49:22.726Z</time>
      </trkpt>
      <trkpt lat="43.73088" lon="3.5615">
        <ele>281</ele>
        <time>2022-05-12T07:49:23.266Z</time>
      </trkpt>
      <trkpt lat="43.7309" lon="3.56147">
        <ele>281</ele>
        <time>2022-05-12T07:49:23.806Z</time>
      </trkpt>
      <trkpt lat="43.73092" lon="3.56144">
        <ele>281</ele>
        <time>2022-05-12T07:49:24.345Z</time>
      </trkpt>
      <trkpt lat="43.73094" lon="3.56141">
        <ele>281</ele>
        <time>2022-05-12T07:49:24.885Z</time>
      </trkpt>
      <trkpt lat="43.73096" lon="3.56138">
        <ele>281</ele>
        <time>2022-05-12T07:49:25.425Z</time>
      </trkpt>
      <trkpt lat="43.73097" lon="3.56135">
        <ele>282</ele>
        <time>2022-05-12T07:49:27.109Z</time>
      </trkpt>
      <trkpt lat="43.73098" lon="3.56132">
        <ele>282</ele>
        <time>2022-05-12T07:49:27.546Z</time>
      </trkpt>
      <trkpt lat="43.73099" lon="3.56129">
        <ele>282</ele>
        <time>2022-05-12T07:49:27.983Z</time>
      </trkpt>
      <trkpt lat="43.73099" lon="3.56126">
        <ele>282</ele>
        <time>2022-05-12T07:49:28.379Z</time>
      </trkpt>
      <trkpt lat="43.731" lon="3.56124">
        <ele>282</ele>
        <time>2022-05-12T07:49:28.701Z</time>
      </trkpt>
      <trkpt lat="43.73101" lon="3.56121">
        <ele>282</ele>
        <time>2022-05-12T07:49:29.138Z</time>
      </trkpt>
      <trkpt lat="43.73102" lon="3.56118">
        <ele>282</ele>
        <time>2022-05-12T07:49:29.575Z</time>
      </trkpt>
      <trkpt lat="43.73103" lon="3.56116">
        <ele>282</ele>
        <time>2022-05-12T07:49:29.896Z</time>
      </trkpt>
      <trkpt lat="43.73103" lon="3.56113">
        <ele>282</ele>
        <time>2022-05-12T07:49:30.293Z</time>
      </trkpt>
      <trkpt lat="43.73104" lon="3.56111">
        <ele>282</ele>
        <time>2022-05-12T07:49:30.614Z</time>
      </trkpt>
      <trkpt lat="43.73105" lon="3.56108">
        <ele>283</ele>
        <time>2022-05-12T07:49:32.299Z</time>
      </trkpt>
      <trkpt lat="43.73106" lon="3.56107">
        <ele>283</ele>
        <time>2022-05-12T07:49:32.525Z</time>
      </trkpt>
      <trkpt lat="43.73108" lon="3.56102">
        <ele>283</ele>
        <time>2022-05-12T07:49:33.280Z</time>
      </trkpt>
      <trkpt lat="43.73109" lon="3.561">
        <ele>283</ele>
        <time>2022-05-12T07:49:33.602Z</time>
      </trkpt>
      <trkpt lat="43.7311" lon="3.56095">
        <ele>283</ele>
        <time>2022-05-12T07:49:34.288Z</time>
      </trkpt>
      <trkpt lat="43.7311" lon="3.56093">
        <ele>283</ele>
        <time>2022-05-12T07:49:34.552Z</time>
      </trkpt>
      <trkpt lat="43.7311" lon="3.5609">
        <ele>283</ele>
        <time>2022-05-12T07:49:34.949Z</time>
      </trkpt>
      <trkpt lat="43.73111" lon="3.56088">
        <ele>283</ele>
        <time>2022-05-12T07:49:35.270Z</time>
      </trkpt>
      <trkpt lat="43.73111" lon="3.56085">
        <ele>284</ele>
        <time>2022-05-12T07:49:36.800Z</time>
      </trkpt>
      <trkpt lat="43.73111" lon="3.56082">
        <ele>284</ele>
        <time>2022-05-12T07:49:37.197Z</time>
      </trkpt>
      <trkpt lat="43.73112" lon="3.56079">
        <ele>284</ele>
        <time>2022-05-12T07:49:37.633Z</time>
      </trkpt>
      <trkpt lat="43.73112" lon="3.56076">
        <ele>284</ele>
        <time>2022-05-12T07:49:38.030Z</time>
      </trkpt>
      <trkpt lat="43.73112" lon="3.56073">
        <ele>284</ele>
        <time>2022-05-12T07:49:38.427Z</time>
      </trkpt>
      <trkpt lat="43.73112" lon="3.5607">
        <ele>284</ele>
        <time>2022-05-12T07:49:38.823Z</time>
      </trkpt>
      <trkpt lat="43.73112" lon="3.56067">
        <ele>284</ele>
        <time>2022-05-12T07:49:39.220Z</time>
      </trkpt>
      <trkpt lat="43.73112" lon="3.56064">
        <ele>284</ele>
        <time>2022-05-12T07:49:39.616Z</time>
      </trkpt>
      <trkpt lat="43.73112" lon="3.56061">
        <ele>284</ele>
        <time>2022-05-12T07:49:40.013Z</time>
      </trkpt>
      <trkpt lat="43.73112" lon="3.56058">
        <ele>284</ele>
        <time>2022-05-12T07:49:40.410Z</time>
      </trkpt>
      <trkpt lat="43.73112" lon="3.56055">
        <ele>285</ele>
        <time>2022-05-12T07:49:41.939Z</time>
      </trkpt>
      <trkpt lat="43.73113" lon="3.56053">
        <ele>285</ele>
        <time>2022-05-12T07:49:42.261Z</time>
      </trkpt>
      <trkpt lat="43.73114" lon="3.5605">
        <ele>285</ele>
        <time>2022-05-12T07:49:42.698Z</time>
      </trkpt>
      <trkpt lat="43.73115" lon="3.56048">
        <ele>285</ele>
        <time>2022-05-12T07:49:43.019Z</time>
      </trkpt>
      <trkpt lat="43.73117" lon="3.56046">
        <ele>285</ele>
        <time>2022-05-12T07:49:43.471Z</time>
      </trkpt>
      <trkpt lat="43.73119" lon="3.56044">
        <ele>285</ele>
        <time>2022-05-12T07:49:43.922Z</time>
      </trkpt>
      <trkpt lat="43.73121" lon="3.56042">
        <ele>285</ele>
        <time>2022-05-12T07:49:44.374Z</time>
      </trkpt>
      <trkpt lat="43.73123" lon="3.56041">
        <ele>285</ele>
        <time>2022-05-12T07:49:44.763Z</time>
      </trkpt>
      <trkpt lat="43.73125" lon="3.56039">
        <ele>285</ele>
        <time>2022-05-12T07:49:45.214Z</time>
      </trkpt>
      <trkpt lat="43.73128" lon="3.56038">
        <ele>285</ele>
        <time>2022-05-12T07:49:45.779Z</time>
      </trkpt>
      <trkpt lat="43.7313" lon="3.56036">
        <ele>286</ele>
        <time>2022-05-12T07:49:47.520Z</time>
      </trkpt>
      <trkpt lat="43.73133" lon="3.56035">
        <ele>286</ele>
        <time>2022-05-12T07:49:48.085Z</time>
      </trkpt>
      <trkpt lat="43.73135" lon="3.56034">
        <ele>286</ele>
        <time>2022-05-12T07:49:48.474Z</time>
      </trkpt>
      <trkpt lat="43.73137" lon="3.56032">
        <ele>286</ele>
        <time>2022-05-12T07:49:48.925Z</time>
      </trkpt>
      <trkpt lat="43.73139" lon="3.56031">
        <ele>286</ele>
        <time>2022-05-12T07:49:49.314Z</time>
      </trkpt>
      <trkpt lat="43.73142" lon="3.5603">
        <ele>286</ele>
        <time>2022-05-12T07:49:49.879Z</time>
      </trkpt>
      <trkpt lat="43.73144" lon="3.56029">
        <ele>286</ele>
        <time>2022-05-12T07:49:50.268Z</time>
      </trkpt>
      <trkpt lat="43.73146" lon="3.56028">
        <ele>286</ele>
        <time>2022-05-12T07:49:50.657Z</time>
      </trkpt>
      <trkpt lat="43.73148" lon="3.56028">
        <ele>286</ele>
        <time>2022-05-12T07:49:51.023Z</time>
      </trkpt>
      <trkpt lat="43.7315" lon="3.56027">
        <ele>286</ele>
        <time>2022-05-12T07:49:51.412Z</time>
      </trkpt>
      <trkpt lat="43.73152" lon="3.56026">
        <ele>286</ele>
        <time>2022-05-12T07:49:51.801Z</time>
      </trkpt>
      <trkpt lat="43.73154" lon="3.56024">
        <ele>286</ele>
        <time>2022-05-12T07:49:52.252Z</time>
      </trkpt>
      <trkpt lat="43.73157" lon="3.56023">
        <ele>286</ele>
        <time>2022-05-12T07:49:52.817Z</time>
      </trkpt>
      <trkpt lat="43.73159" lon="3.56022">
        <ele>286</ele>
        <time>2022-05-12T07:49:53.206Z</time>
      </trkpt>
      <trkpt lat="43.73161" lon="3.5602">
        <ele>286</ele>
        <time>2022-05-12T07:49:53.657Z</time>
      </trkpt>
      <trkpt lat="43.73163" lon="3.56019">
        <ele>286</ele>
        <time>2022-05-12T07:49:54.047Z</time>
      </trkpt>
      <trkpt lat="43.73166" lon="3.56017">
        <ele>286</ele>
        <time>2022-05-12T07:49:54.656Z</time>
      </trkpt>
      <trkpt lat="43.73168" lon="3.56015">
        <ele>286</ele>
        <time>2022-05-12T07:49:55.107Z</time>
      </trkpt>
      <trkpt lat="43.7317" lon="3.56013">
        <ele>286</ele>
        <time>2022-05-12T07:49:55.559Z</time>
      </trkpt>
      <trkpt lat="43.73171" lon="3.5601">
        <ele>286</ele>
        <time>2022-05-12T07:49:55.995Z</time>
      </trkpt>
      <trkpt lat="43.73172" lon="3.56007">
        <ele>287</ele>
        <time>2022-05-12T07:49:57.680Z</time>
      </trkpt>
      <trkpt lat="43.73173" lon="3.56004">
        <ele>287</ele>
        <time>2022-05-12T07:49:58.117Z</time>
      </trkpt>
      <trkpt lat="43.73173" lon="3.56001">
        <ele>287</ele>
        <time>2022-05-12T07:49:58.514Z</time>
      </trkpt>
      <trkpt lat="43.73173" lon="3.55998">
        <ele>287</ele>
        <time>2022-05-12T07:49:58.910Z</time>
      </trkpt>
      <trkpt lat="43.73172" lon="3.55995">
        <ele>287</ele>
        <time>2022-05-12T07:49:59.347Z</time>
      </trkpt>
      <trkpt lat="43.73171" lon="3.55992">
        <ele>287</ele>
        <time>2022-05-12T07:49:59.784Z</time>
      </trkpt>
      <trkpt lat="43.73169" lon="3.55989">
        <ele>287</ele>
        <time>2022-05-12T07:50:00.323Z</time>
      </trkpt>
      <trkpt lat="43.73168" lon="3.55986">
        <ele>287</ele>
        <time>2022-05-12T07:50:00.760Z</time>
      </trkpt>
      <trkpt lat="43.73167" lon="3.55982">
        <ele>287</ele>
        <time>2022-05-12T07:50:01.320Z</time>
      </trkpt>
      <trkpt lat="43.73165" lon="3.55978">
        <ele>287</ele>
        <time>2022-05-12T07:50:01.963Z</time>
      </trkpt>
      <trkpt lat="43.73163" lon="3.55974">
        <ele>288</ele>
        <time>2022-05-12T07:50:04.443Z</time>
      </trkpt>
      <trkpt lat="43.73161" lon="3.5597">
        <ele>288</ele>
        <time>2022-05-12T07:50:05.086Z</time>
      </trkpt>
      <trkpt lat="43.73159" lon="3.55966">
        <ele>288</ele>
        <time>2022-05-12T07:50:05.729Z</time>
      </trkpt>
      <trkpt lat="43.7316" lon="3.55953">
        <ele>288</ele>
        <time>2022-05-12T07:50:07.458Z</time>
      </trkpt>
      <trkpt lat="43.73161" lon="3.55948">
        <ele>288</ele>
        <time>2022-05-12T07:50:08.143Z</time>
      </trkpt>
      <trkpt lat="43.73162" lon="3.55944">
        <ele>288</ele>
        <time>2022-05-12T07:50:08.703Z</time>
      </trkpt>
      <trkpt lat="43.73161" lon="3.5594">
        <ele>288</ele>
        <time>2022-05-12T07:50:09.263Z</time>
      </trkpt>
      <trkpt lat="43.73161" lon="3.55936">
        <ele>288</ele>
        <time>2022-05-12T07:50:09.791Z</time>
      </trkpt>
      <trkpt lat="43.7316" lon="3.55932">
        <ele>288</ele>
        <time>2022-05-12T07:50:10.351Z</time>
      </trkpt>
      <trkpt lat="43.73158" lon="3.55929">
        <ele>288</ele>
        <time>2022-05-12T07:50:10.891Z</time>
      </trkpt>
      <trkpt lat="43.73156" lon="3.55927">
        <ele>288</ele>
        <time>2022-05-12T07:50:11.342Z</time>
      </trkpt>
      <trkpt lat="43.73154" lon="3.55925">
        <ele>288</ele>
        <time>2022-05-12T07:50:11.794Z</time>
      </trkpt>
      <trkpt lat="43.73153" lon="3.55923">
        <ele>288</ele>
        <time>2022-05-12T07:50:12.115Z</time>
      </trkpt>
      <trkpt lat="43.73152" lon="3.5592">
        <ele>288</ele>
        <time>2022-05-12T07:50:12.552Z</time>
      </trkpt>
      <trkpt lat="43.73151" lon="3.55917">
        <ele>288</ele>
        <time>2022-05-12T07:50:12.989Z</time>
      </trkpt>
      <trkpt lat="43.73151" lon="3.55913">
        <ele>288</ele>
        <time>2022-05-12T07:50:13.517Z</time>
      </trkpt>
      <trkpt lat="43.73151" lon="3.5591">
        <ele>288</ele>
        <time>2022-05-12T07:50:13.914Z</time>
      </trkpt>
      <trkpt lat="43.73151" lon="3.55905">
        <ele>288</ele>
        <time>2022-05-12T07:50:14.575Z</time>
      </trkpt>
      <trkpt lat="43.73151" lon="3.55901">
        <ele>287</ele>
        <time>2022-05-12T07:50:14.832Z</time>
      </trkpt>
      <trkpt lat="43.73152" lon="3.55899">
        <ele>286</ele>
        <time>2022-05-12T07:50:14.989Z</time>
      </trkpt>
      <trkpt lat="43.73155" lon="3.55897">
        <ele>283</ele>
        <time>2022-05-12T07:50:15.285Z</time>
      </trkpt>
      <trkpt lat="43.73147" lon="3.55908">
        <ele>283</ele>
        <time>2022-05-12T07:50:17.349Z</time>
      </trkpt>
      <trkpt lat="43.73146" lon="3.5591">
        <ele>283</ele>
        <time>2022-05-12T07:50:17.670Z</time>
      </trkpt>
      <trkpt lat="43.73144" lon="3.55912">
        <ele>283</ele>
        <time>2022-05-12T07:50:18.122Z</time>
      </trkpt>
      <trkpt lat="43.73143" lon="3.55914">
        <ele>283</ele>
        <time>2022-05-12T07:50:18.443Z</time>
      </trkpt>
      <trkpt lat="43.73142" lon="3.55916">
        <ele>283</ele>
        <time>2022-05-12T07:50:18.765Z</time>
      </trkpt>
      <trkpt lat="43.7314" lon="3.55918">
        <ele>284</ele>
        <time>2022-05-12T07:50:20.506Z</time>
      </trkpt>
      <trkpt lat="43.73139" lon="3.5592">
        <ele>284</ele>
        <time>2022-05-12T07:50:20.827Z</time>
      </trkpt>
      <trkpt lat="43.73137" lon="3.55922">
        <ele>284</ele>
        <time>2022-05-12T07:50:21.279Z</time>
      </trkpt>
      <trkpt lat="43.73135" lon="3.55923">
        <ele>284</ele>
        <time>2022-05-12T07:50:21.668Z</time>
      </trkpt>
      <trkpt lat="43.73135" lon="3.55924">
        <ele>286</ele>
        <time>2022-05-12T07:50:22.178Z</time>
      </trkpt>
      <trkpt lat="43.73134" lon="3.55931">
        <ele>286</ele>
        <time>2022-05-12T07:50:23.121Z</time>
      </trkpt>
      <trkpt lat="43.73134" lon="3.55933">
        <ele>286</ele>
        <time>2022-05-12T07:50:23.386Z</time>
      </trkpt>
      <trkpt lat="43.73134" lon="3.55937">
        <ele>286</ele>
        <time>2022-05-12T07:50:23.914Z</time>
      </trkpt>
      <trkpt lat="43.73133" lon="3.55941">
        <ele>286</ele>
        <time>2022-05-12T07:50:24.474Z</time>
      </trkpt>
      <trkpt lat="43.73133" lon="3.55944">
        <ele>286</ele>
        <time>2022-05-12T07:50:24.871Z</time>
      </trkpt>
      <trkpt lat="43.73133" lon="3.55947">
        <ele>286</ele>
        <time>2022-05-12T07:50:25.267Z</time>
      </trkpt>
      <trkpt lat="43.73132" lon="3.55949">
        <ele>286</ele>
        <time>2022-05-12T07:50:25.589Z</time>
      </trkpt>
      <trkpt lat="43.73132" lon="3.55952">
        <ele>286</ele>
        <time>2022-05-12T07:50:25.985Z</time>
      </trkpt>
      <trkpt lat="43.73132" lon="3.55957">
        <ele>286</ele>
        <time>2022-05-12T07:50:26.646Z</time>
      </trkpt>
      <trkpt lat="43.73132" lon="3.55959">
        <ele>286</ele>
        <time>2022-05-12T07:50:26.911Z</time>
      </trkpt>
      <trkpt lat="43.73132" lon="3.55962">
        <ele>286</ele>
        <time>2022-05-12T07:50:27.307Z</time>
      </trkpt>
      <trkpt lat="43.73132" lon="3.55964">
        <ele>286</ele>
        <time>2022-05-12T07:50:27.572Z</time>
      </trkpt>
      <trkpt lat="43.73131" lon="3.55967">
        <ele>286</ele>
        <time>2022-05-12T07:50:28.009Z</time>
      </trkpt>
      <trkpt lat="43.7313" lon="3.5597">
        <ele>286</ele>
        <time>2022-05-12T07:50:28.445Z</time>
      </trkpt>
      <trkpt lat="43.7313" lon="3.55973">
        <ele>286</ele>
        <time>2022-05-12T07:50:28.842Z</time>
      </trkpt>
      <trkpt lat="43.73129" lon="3.55976">
        <ele>286</ele>
        <time>2022-05-12T07:50:29.279Z</time>
      </trkpt>
      <trkpt lat="43.73127" lon="3.55978">
        <ele>286</ele>
        <time>2022-05-12T07:50:29.730Z</time>
      </trkpt>
      <trkpt lat="43.73124" lon="3.55981">
        <ele>287</ele>
        <time>2022-05-12T07:50:32.342Z</time>
      </trkpt>
      <trkpt lat="43.73122" lon="3.55984">
        <ele>287</ele>
        <time>2022-05-12T07:50:32.882Z</time>
      </trkpt>
      <trkpt lat="43.7312" lon="3.55986">
        <ele>287</ele>
        <time>2022-05-12T07:50:33.333Z</time>
      </trkpt>
      <trkpt lat="43.73119" lon="3.5599">
        <ele>287</ele>
        <time>2022-05-12T07:50:33.893Z</time>
      </trkpt>
      <trkpt lat="43.73118" lon="3.55994">
        <ele>287</ele>
        <time>2022-05-12T07:50:34.452Z</time>
      </trkpt>
      <trkpt lat="43.73117" lon="3.55999">
        <ele>287</ele>
        <time>2022-05-12T07:50:35.138Z</time>
      </trkpt>
      <trkpt lat="43.73116" lon="3.56004">
        <ele>287</ele>
        <time>2022-05-12T07:50:35.824Z</time>
      </trkpt>
      <trkpt lat="43.73115" lon="3.56009">
        <ele>287</ele>
        <time>2022-05-12T07:50:36.510Z</time>
      </trkpt>
      <trkpt lat="43.73115" lon="3.56014">
        <ele>287</ele>
        <time>2022-05-12T07:50:37.171Z</time>
      </trkpt>
      <trkpt lat="43.73114" lon="3.56018">
        <ele>287</ele>
        <time>2022-05-12T07:50:37.731Z</time>
      </trkpt>
      <trkpt lat="43.73113" lon="3.56022">
        <ele>287</ele>
        <time>2022-05-12T07:50:38.290Z</time>
      </trkpt>
      <trkpt lat="43.73112" lon="3.56026">
        <ele>287</ele>
        <time>2022-05-12T07:50:38.850Z</time>
      </trkpt>
      <trkpt lat="43.73111" lon="3.56031">
        <ele>287</ele>
        <time>2022-05-12T07:50:39.536Z</time>
      </trkpt>
      <trkpt lat="43.7311" lon="3.56035">
        <ele>287</ele>
        <time>2022-05-12T07:50:40.095Z</time>
      </trkpt>
      <trkpt lat="43.7311" lon="3.56039">
        <ele>287</ele>
        <time>2022-05-12T07:50:40.624Z</time>
      </trkpt>
      <trkpt lat="43.7311" lon="3.56043">
        <ele>287</ele>
        <time>2022-05-12T07:50:41.153Z</time>
      </trkpt>
      <trkpt lat="43.7311" lon="3.56047">
        <ele>287</ele>
        <time>2022-05-12T07:50:41.682Z</time>
      </trkpt>
      <trkpt lat="43.73111" lon="3.56052">
        <ele>287</ele>
        <time>2022-05-12T07:50:42.368Z</time>
      </trkpt>
      <trkpt lat="43.73111" lon="3.56056">
        <ele>287</ele>
        <time>2022-05-12T07:50:42.896Z</time>
      </trkpt>
      <trkpt lat="43.73111" lon="3.56061">
        <ele>287</ele>
        <time>2022-05-12T07:50:43.557Z</time>
      </trkpt>
      <trkpt lat="43.73111" lon="3.56065">
        <ele>286</ele>
        <time>2022-05-12T07:50:43.815Z</time>
      </trkpt>
      <trkpt lat="43.73111" lon="3.5607">
        <ele>286</ele>
        <time>2022-05-12T07:50:44.476Z</time>
      </trkpt>
      <trkpt lat="43.73111" lon="3.56075">
        <ele>286</ele>
        <time>2022-05-12T07:50:45.137Z</time>
      </trkpt>
      <trkpt lat="43.7311" lon="3.56079">
        <ele>286</ele>
        <time>2022-05-12T07:50:45.696Z</time>
      </trkpt>
      <trkpt lat="43.7311" lon="3.56084">
        <ele>286</ele>
        <time>2022-05-12T07:50:46.357Z</time>
      </trkpt>
      <trkpt lat="43.7311" lon="3.56089">
        <ele>286</ele>
        <time>2022-05-12T07:50:47.018Z</time>
      </trkpt>
      <trkpt lat="43.73109" lon="3.56093">
        <ele>286</ele>
        <time>2022-05-12T07:50:47.578Z</time>
      </trkpt>
      <trkpt lat="43.73108" lon="3.56098">
        <ele>286</ele>
        <time>2022-05-12T07:50:48.264Z</time>
      </trkpt>
      <trkpt lat="43.73107" lon="3.56103">
        <ele>286</ele>
        <time>2022-05-12T07:50:48.950Z</time>
      </trkpt>
      <trkpt lat="43.73105" lon="3.56108">
        <ele>286</ele>
        <time>2022-05-12T07:50:49.705Z</time>
      </trkpt>
      <trkpt lat="43.73103" lon="3.56114">
        <ele>285</ele>
        <time>2022-05-12T07:50:50.130Z</time>
      </trkpt>
      <trkpt lat="43.73101" lon="3.56119">
        <ele>285</ele>
        <time>2022-05-12T07:50:50.886Z</time>
      </trkpt>
      <trkpt lat="43.73099" lon="3.56125">
        <ele>285</ele>
        <time>2022-05-12T07:50:51.759Z</time>
      </trkpt>
      <trkpt lat="43.73097" lon="3.56132">
        <ele>285</ele>
        <time>2022-05-12T07:50:52.755Z</time>
      </trkpt>
      <trkpt lat="43.73095" lon="3.56139">
        <ele>285</ele>
        <time>2022-05-12T07:50:53.750Z</time>
      </trkpt>
      <trkpt lat="43.73092" lon="3.56146">
        <ele>285</ele>
        <time>2022-05-12T07:50:54.826Z</time>
      </trkpt>
      <trkpt lat="43.73088" lon="3.56152">
        <ele>285</ele>
        <time>2022-05-12T07:50:55.905Z</time>
      </trkpt>
      <trkpt lat="43.73084" lon="3.56158">
        <ele>285</ele>
        <time>2022-05-12T07:50:56.984Z</time>
      </trkpt>
      <trkpt lat="43.7308" lon="3.56163">
        <ele>285</ele>
        <time>2022-05-12T07:50:57.970Z</time>
      </trkpt>
      <trkpt lat="43.73075" lon="3.56169">
        <ele>285</ele>
        <time>2022-05-12T07:50:59.181Z</time>
      </trkpt>
      <trkpt lat="43.7307" lon="3.56174">
        <ele>284</ele>
        <time>2022-05-12T07:50:59.730Z</time>
      </trkpt>
      <trkpt lat="43.73064" lon="3.56178">
        <ele>284</ele>
        <time>2022-05-12T07:51:00.949Z</time>
      </trkpt>
      <trkpt lat="43.73059" lon="3.56183">
        <ele>284</ele>
        <time>2022-05-12T07:51:02.077Z</time>
      </trkpt>
      <trkpt lat="43.73054" lon="3.56188">
        <ele>284</ele>
        <time>2022-05-12T07:51:03.206Z</time>
      </trkpt>
      <trkpt lat="43.73049" lon="3.56194">
        <ele>284</ele>
        <time>2022-05-12T07:51:04.417Z</time>
      </trkpt>
      <trkpt lat="43.73044" lon="3.56199">
        <ele>284</ele>
        <time>2022-05-12T07:51:05.545Z</time>
      </trkpt>
      <trkpt lat="43.73039" lon="3.56205">
        <ele>284</ele>
        <time>2022-05-12T07:51:06.756Z</time>
      </trkpt>
      <trkpt lat="43.73034" lon="3.5621">
        <ele>284</ele>
        <time>2022-05-12T07:51:07.885Z</time>
      </trkpt>
      <trkpt lat="43.73029" lon="3.56214">
        <ele>284</ele>
        <time>2022-05-12T07:51:08.942Z</time>
      </trkpt>
      <trkpt lat="43.73023" lon="3.56217">
        <ele>284</ele>
        <time>2022-05-12T07:51:10.109Z</time>
      </trkpt>
      <trkpt lat="43.73018" lon="3.56218">
        <ele>283</ele>
        <time>2022-05-12T07:51:10.559Z</time>
      </trkpt>
      <trkpt lat="43.73012" lon="3.56218">
        <ele>283</ele>
        <time>2022-05-12T07:51:11.656Z</time>
      </trkpt>
      <trkpt lat="43.73007" lon="3.56216">
        <ele>283</ele>
        <time>2022-05-12T07:51:12.609Z</time>
      </trkpt>
      <trkpt lat="43.73001" lon="3.56214">
        <ele>283</ele>
        <time>2022-05-12T07:51:13.738Z</time>
      </trkpt>
      <trkpt lat="43.72996" lon="3.56212">
        <ele>283</ele>
        <time>2022-05-12T07:51:14.690Z</time>
      </trkpt>
      <trkpt lat="43.72991" lon="3.5621">
        <ele>283</ele>
        <time>2022-05-12T07:51:15.642Z</time>
      </trkpt>
      <trkpt lat="43.72985" lon="3.56208">
        <ele>283</ele>
        <time>2022-05-12T07:51:16.771Z</time>
      </trkpt>
      <trkpt lat="43.7298" lon="3.56207">
        <ele>283</ele>
        <time>2022-05-12T07:51:17.696Z</time>
      </trkpt>
      <trkpt lat="43.72975" lon="3.56207">
        <ele>283</ele>
        <time>2022-05-12T07:51:18.610Z</time>
      </trkpt>
      <trkpt lat="43.7297" lon="3.56208">
        <ele>283</ele>
        <time>2022-05-12T07:51:19.535Z</time>
      </trkpt>
      <trkpt lat="43.72965" lon="3.5621">
        <ele>280</ele>
        <time>2022-05-12T07:51:19.998Z</time>
      </trkpt>
      <trkpt lat="43.72961" lon="3.56213">
        <ele>280</ele>
        <time>2022-05-12T07:51:20.830Z</time>
      </trkpt>
      <trkpt lat="43.72957" lon="3.56217">
        <ele>280</ele>
        <time>2022-05-12T07:51:21.733Z</time>
      </trkpt>
      <trkpt lat="43.72954" lon="3.5622">
        <ele>280</ele>
        <time>2022-05-12T07:51:22.411Z</time>
      </trkpt>
      <trkpt lat="43.7295" lon="3.56223">
        <ele>280</ele>
        <time>2022-05-12T07:51:23.243Z</time>
      </trkpt>
      <trkpt lat="43.72947" lon="3.56225">
        <ele>280</ele>
        <time>2022-05-12T07:51:23.852Z</time>
      </trkpt>
      <trkpt lat="43.72943" lon="3.56228">
        <ele>280</ele>
        <time>2022-05-12T07:51:24.685Z</time>
      </trkpt>
      <trkpt lat="43.7294" lon="3.56231">
        <ele>280</ele>
        <time>2022-05-12T07:51:25.362Z</time>
      </trkpt>
      <trkpt lat="43.72937" lon="3.56234">
        <ele>280</ele>
        <time>2022-05-12T07:51:26.039Z</time>
      </trkpt>
      <trkpt lat="43.72935" lon="3.56238">
        <ele>280</ele>
        <time>2022-05-12T07:51:26.682Z</time>
      </trkpt>
      <trkpt lat="43.72932" lon="3.56241">
        <ele>280</ele>
        <time>2022-05-12T07:51:27.359Z</time>
      </trkpt>
      <trkpt lat="43.7293" lon="3.56244">
        <ele>280</ele>
        <time>2022-05-12T07:51:27.899Z</time>
      </trkpt>
      <trkpt lat="43.72928" lon="3.56248">
        <ele>280</ele>
        <time>2022-05-12T07:51:28.542Z</time>
      </trkpt>
      <trkpt lat="43.72926" lon="3.56251">
        <ele>280</ele>
        <time>2022-05-12T07:51:29.082Z</time>
      </trkpt>
      <trkpt lat="43.72924" lon="3.56255">
        <ele>280</ele>
        <time>2022-05-12T07:51:29.725Z</time>
      </trkpt>
      <trkpt lat="43.72922" lon="3.56258">
        <ele>280</ele>
        <time>2022-05-12T07:51:30.264Z</time>
      </trkpt>
      <trkpt lat="43.7292" lon="3.56261">
        <ele>280</ele>
        <time>2022-05-12T07:51:30.804Z</time>
      </trkpt>
      <trkpt lat="43.72917" lon="3.56264">
        <ele>280</ele>
        <time>2022-05-12T07:51:31.481Z</time>
      </trkpt>
      <trkpt lat="43.72915" lon="3.56267">
        <ele>280</ele>
        <time>2022-05-12T07:51:32.021Z</time>
      </trkpt>
      <trkpt lat="43.72913" lon="3.56271">
        <ele>280</ele>
        <time>2022-05-12T07:51:32.664Z</time>
      </trkpt>
      <trkpt lat="43.72911" lon="3.56274">
        <ele>280</ele>
        <time>2022-05-12T07:51:33.203Z</time>
      </trkpt>
      <trkpt lat="43.72908" lon="3.56277">
        <ele>280</ele>
        <time>2022-05-12T07:51:33.881Z</time>
      </trkpt>
      <trkpt lat="43.72906" lon="3.5628">
        <ele>280</ele>
        <time>2022-05-12T07:51:34.420Z</time>
      </trkpt>
      <trkpt lat="43.72904" lon="3.56283">
        <ele>280</ele>
        <time>2022-05-12T07:51:34.960Z</time>
      </trkpt>
      <trkpt lat="43.72903" lon="3.56286">
        <ele>280</ele>
        <time>2022-05-12T07:51:35.397Z</time>
      </trkpt>
      <trkpt lat="43.72901" lon="3.56288">
        <ele>280</ele>
        <time>2022-05-12T07:51:35.848Z</time>
      </trkpt>
      <trkpt lat="43.72899" lon="3.56288">
        <ele>280</ele>
        <time>2022-05-12T07:51:36.214Z</time>
      </trkpt>
      <trkpt lat="43.72897" lon="3.56288">
        <ele>280</ele>
        <time>2022-05-12T07:51:36.580Z</time>
      </trkpt>
      <trkpt lat="43.72895" lon="3.56287">
        <ele>280</ele>
        <time>2022-05-12T07:51:36.969Z</time>
      </trkpt>
      <trkpt lat="43.72892" lon="3.56286">
        <ele>280</ele>
        <time>2022-05-12T07:51:37.534Z</time>
      </trkpt>
      <trkpt lat="43.72889" lon="3.56284">
        <ele>280</ele>
        <time>2022-05-12T07:51:38.143Z</time>
      </trkpt>
      <trkpt lat="43.72885" lon="3.56282">
        <ele>280</ele>
        <time>2022-05-12T07:51:38.921Z</time>
      </trkpt>
      <trkpt lat="43.72881" lon="3.56279">
        <ele>280</ele>
        <time>2022-05-12T07:51:39.753Z</time>
      </trkpt>
      <trkpt lat="43.72876" lon="3.56277">
        <ele>280</ele>
        <time>2022-05-12T07:51:40.706Z</time>
      </trkpt>
      <trkpt lat="43.72872" lon="3.56275">
        <ele>280</ele>
        <time>2022-05-12T07:51:41.484Z</time>
      </trkpt>
      <trkpt lat="43.72867" lon="3.56272">
        <ele>280</ele>
        <time>2022-05-12T07:51:42.481Z</time>
      </trkpt>
      <trkpt lat="43.72862" lon="3.5627">
        <ele>280</ele>
        <time>2022-05-12T07:51:43.433Z</time>
      </trkpt>
      <trkpt lat="43.72856" lon="3.56268">
        <ele>280</ele>
        <time>2022-05-12T07:51:44.562Z</time>
      </trkpt>
      <trkpt lat="43.72851" lon="3.56266">
        <ele>280</ele>
        <time>2022-05-12T07:51:45.514Z</time>
      </trkpt>
      <trkpt lat="43.72845" lon="3.56264">
        <ele>280</ele>
        <time>2022-05-12T07:51:46.644Z</time>
      </trkpt>
      <trkpt lat="43.72839" lon="3.56262">
        <ele>280</ele>
        <time>2022-05-12T07:51:47.773Z</time>
      </trkpt>
      <trkpt lat="43.72833" lon="3.5626">
        <ele>280</ele>
        <time>2022-05-12T07:51:48.902Z</time>
      </trkpt>
      <trkpt lat="43.72828" lon="3.56258">
        <ele>280</ele>
        <time>2022-05-12T07:51:49.854Z</time>
      </trkpt>
      <trkpt lat="43.72822" lon="3.56256">
        <ele>280</ele>
        <time>2022-05-12T07:51:50.983Z</time>
      </trkpt>
      <trkpt lat="43.72817" lon="3.56255">
        <ele>280</ele>
        <time>2022-05-12T07:51:51.908Z</time>
      </trkpt>
      <trkpt lat="43.72811" lon="3.56254">
        <ele>280</ele>
        <time>2022-05-12T07:51:53.013Z</time>
      </trkpt>
      <trkpt lat="43.72805" lon="3.56252">
        <ele>280</ele>
        <time>2022-05-12T07:51:54.142Z</time>
      </trkpt>
      <trkpt lat="43.72799" lon="3.5625">
        <ele>280</ele>
        <time>2022-05-12T07:51:55.272Z</time>
      </trkpt>
      <trkpt lat="43.72793" lon="3.56248">
        <ele>280</ele>
        <time>2022-05-12T07:51:56.401Z</time>
      </trkpt>
      <trkpt lat="43.72787" lon="3.56245">
        <ele>280</ele>
        <time>2022-05-12T07:51:57.568Z</time>
      </trkpt>
      <trkpt lat="43.72781" lon="3.56243">
        <ele>280</ele>
        <time>2022-05-12T07:51:58.697Z</time>
      </trkpt>
      <trkpt lat="43.72775" lon="3.5624">
        <ele>280</ele>
        <time>2022-05-12T07:51:59.864Z</time>
      </trkpt>
      <trkpt lat="43.7277" lon="3.56237">
        <ele>280</ele>
        <time>2022-05-12T07:52:00.861Z</time>
      </trkpt>
      <trkpt lat="43.72764" lon="3.56234">
        <ele>280</ele>
        <time>2022-05-12T07:52:02.029Z</time>
      </trkpt>
      <trkpt lat="43.72758" lon="3.56232">
        <ele>280</ele>
        <time>2022-05-12T07:52:03.158Z</time>
      </trkpt>
      <trkpt lat="43.72753" lon="3.5623">
        <ele>280</ele>
        <time>2022-05-12T07:52:04.110Z</time>
      </trkpt>
      <trkpt lat="43.72747" lon="3.56228">
        <ele>280</ele>
        <time>2022-05-12T07:52:05.239Z</time>
      </trkpt>
      <trkpt lat="43.72741" lon="3.56226">
        <ele>280</ele>
        <time>2022-05-12T07:52:06.368Z</time>
      </trkpt>
      <trkpt lat="43.72736" lon="3.56224">
        <ele>280</ele>
        <time>2022-05-12T07:52:07.320Z</time>
      </trkpt>
      <trkpt lat="43.7273" lon="3.56222">
        <ele>280</ele>
        <time>2022-05-12T07:52:08.450Z</time>
      </trkpt>
      <trkpt lat="43.72725" lon="3.5622">
        <ele>281</ele>
        <time>2022-05-12T07:52:12.123Z</time>
      </trkpt>
      <trkpt lat="43.72719" lon="3.56218">
        <ele>281</ele>
        <time>2022-05-12T07:52:13.252Z</time>
      </trkpt>
      <trkpt lat="43.72714" lon="3.56215">
        <ele>281</ele>
        <time>2022-05-12T07:52:14.249Z</time>
      </trkpt>
      <trkpt lat="43.72709" lon="3.56213">
        <ele>281</ele>
        <time>2022-05-12T07:52:15.201Z</time>
      </trkpt>
      <trkpt lat="43.72703" lon="3.56211">
        <ele>281</ele>
        <time>2022-05-12T07:52:16.330Z</time>
      </trkpt>
      <trkpt lat="43.72698" lon="3.56209">
        <ele>281</ele>
        <time>2022-05-12T07:52:17.282Z</time>
      </trkpt>
      <trkpt lat="43.72692" lon="3.56206">
        <ele>281</ele>
        <time>2022-05-12T07:52:18.450Z</time>
      </trkpt>
      <trkpt lat="43.72686" lon="3.56204">
        <ele>281</ele>
        <time>2022-05-12T07:52:19.579Z</time>
      </trkpt>
      <trkpt lat="43.72681" lon="3.56202">
        <ele>281</ele>
        <time>2022-05-12T07:52:20.531Z</time>
      </trkpt>
      <trkpt lat="43.72675" lon="3.562">
        <ele>281</ele>
        <time>2022-05-12T07:52:21.660Z</time>
      </trkpt>
      <trkpt lat="43.72669" lon="3.56197">
        <ele>281</ele>
        <time>2022-05-12T07:52:22.827Z</time>
      </trkpt>
      <trkpt lat="43.72664" lon="3.56195">
        <ele>281</ele>
        <time>2022-05-12T07:52:23.780Z</time>
      </trkpt>
      <trkpt lat="43.72658" lon="3.56193">
        <ele>281</ele>
        <time>2022-05-12T07:52:24.909Z</time>
      </trkpt>
      <trkpt lat="43.72653" lon="3.56191">
        <ele>281</ele>
        <time>2022-05-12T07:52:25.861Z</time>
      </trkpt>
      <trkpt lat="43.72647" lon="3.56189">
        <ele>281</ele>
        <time>2022-05-12T07:52:26.990Z</time>
      </trkpt>
      <trkpt lat="43.72642" lon="3.56187">
        <ele>281</ele>
        <time>2022-05-12T07:52:27.942Z</time>
      </trkpt>
      <trkpt lat="43.72637" lon="3.56185">
        <ele>281</ele>
        <time>2022-05-12T07:52:28.895Z</time>
      </trkpt>
      <trkpt lat="43.72631" lon="3.56183">
        <ele>281</ele>
        <time>2022-05-12T07:52:30.024Z</time>
      </trkpt>
      <trkpt lat="43.72626" lon="3.56181">
        <ele>281</ele>
        <time>2022-05-12T07:52:30.976Z</time>
      </trkpt>
      <trkpt lat="43.72621" lon="3.56179">
        <ele>281</ele>
        <time>2022-05-12T07:52:31.928Z</time>
      </trkpt>
      <trkpt lat="43.72616" lon="3.56178">
        <ele>282</ele>
        <time>2022-05-12T07:52:35.493Z</time>
      </trkpt>
      <trkpt lat="43.7261" lon="3.56176">
        <ele>282</ele>
        <time>2022-05-12T07:52:36.623Z</time>
      </trkpt>
      <trkpt lat="43.72605" lon="3.56174">
        <ele>282</ele>
        <time>2022-05-12T07:52:37.575Z</time>
      </trkpt>
      <trkpt lat="43.726" lon="3.56172">
        <ele>282</ele>
        <time>2022-05-12T07:52:38.527Z</time>
      </trkpt>
      <trkpt lat="43.72594" lon="3.5617">
        <ele>282</ele>
        <time>2022-05-12T07:52:39.656Z</time>
      </trkpt>
      <trkpt lat="43.72589" lon="3.56168">
        <ele>282</ele>
        <time>2022-05-12T07:52:40.608Z</time>
      </trkpt>
      <trkpt lat="43.72584" lon="3.56166">
        <ele>282</ele>
        <time>2022-05-12T07:52:41.561Z</time>
      </trkpt>
      <trkpt lat="43.7258" lon="3.56163">
        <ele>282</ele>
        <time>2022-05-12T07:52:42.393Z</time>
      </trkpt>
      <trkpt lat="43.72575" lon="3.56161">
        <ele>282</ele>
        <time>2022-05-12T07:52:43.345Z</time>
      </trkpt>
      <trkpt lat="43.7257" lon="3.56159">
        <ele>282</ele>
        <time>2022-05-12T07:52:44.298Z</time>
      </trkpt>
      <trkpt lat="43.72566" lon="3.56157">
        <ele>283</ele>
        <time>2022-05-12T07:52:47.299Z</time>
      </trkpt>
      <trkpt lat="43.72562" lon="3.56155">
        <ele>283</ele>
        <time>2022-05-12T07:52:48.077Z</time>
      </trkpt>
      <trkpt lat="43.72558" lon="3.56154">
        <ele>283</ele>
        <time>2022-05-12T07:52:48.821Z</time>
      </trkpt>
      <trkpt lat="43.72554" lon="3.56153">
        <ele>283</ele>
        <time>2022-05-12T07:52:49.564Z</time>
      </trkpt>
      <trkpt lat="43.7255" lon="3.56152">
        <ele>283</ele>
        <time>2022-05-12T07:52:50.308Z</time>
      </trkpt>
      <trkpt lat="43.72547" lon="3.56151">
        <ele>283</ele>
        <time>2022-05-12T07:52:50.873Z</time>
      </trkpt>
      <trkpt lat="43.72544" lon="3.5615">
        <ele>283</ele>
        <time>2022-05-12T07:52:51.437Z</time>
      </trkpt>
      <trkpt lat="43.72541" lon="3.56148">
        <ele>283</ele>
        <time>2022-05-12T07:52:52.047Z</time>
      </trkpt>
      <trkpt lat="43.72538" lon="3.56147">
        <ele>283</ele>
        <time>2022-05-12T07:52:52.611Z</time>
      </trkpt>
      <trkpt lat="43.72535" lon="3.56146">
        <ele>283</ele>
        <time>2022-05-12T07:52:53.176Z</time>
      </trkpt>
      <trkpt lat="43.72532" lon="3.56145">
        <ele>285</ele>
        <time>2022-05-12T07:52:55.353Z</time>
      </trkpt>
      <trkpt lat="43.72529" lon="3.56144">
        <ele>285</ele>
        <time>2022-05-12T07:52:55.918Z</time>
      </trkpt>
      <trkpt lat="43.72526" lon="3.56142">
        <ele>285</ele>
        <time>2022-05-12T07:52:56.527Z</time>
      </trkpt>
      <trkpt lat="43.72524" lon="3.56141">
        <ele>285</ele>
        <time>2022-05-12T07:52:56.916Z</time>
      </trkpt>
      <trkpt lat="43.72521" lon="3.5614">
        <ele>285</ele>
        <time>2022-05-12T07:52:57.481Z</time>
      </trkpt>
      <trkpt lat="43.72518" lon="3.56139">
        <ele>285</ele>
        <time>2022-05-12T07:52:58.045Z</time>
      </trkpt>
      <trkpt lat="43.72515" lon="3.56138">
        <ele>285</ele>
        <time>2022-05-12T07:52:58.610Z</time>
      </trkpt>
      <trkpt lat="43.72513" lon="3.56137">
        <ele>285</ele>
        <time>2022-05-12T07:52:58.999Z</time>
      </trkpt>
      <trkpt lat="43.7251" lon="3.56136">
        <ele>285</ele>
        <time>2022-05-12T07:52:59.564Z</time>
      </trkpt>
      <trkpt lat="43.72508" lon="3.56135">
        <ele>285</ele>
        <time>2022-05-12T07:52:59.953Z</time>
      </trkpt>
      <trkpt lat="43.72505" lon="3.56134">
        <ele>286</ele>
        <time>2022-05-12T07:53:02.130Z</time>
      </trkpt>
      <trkpt lat="43.72502" lon="3.56133">
        <ele>286</ele>
        <time>2022-05-12T07:53:02.695Z</time>
      </trkpt>
      <trkpt lat="43.725" lon="3.56133">
        <ele>286</ele>
        <time>2022-05-12T07:53:03.061Z</time>
      </trkpt>
      <trkpt lat="43.72497" lon="3.56132">
        <ele>286</ele>
        <time>2022-05-12T07:53:03.625Z</time>
      </trkpt>
      <trkpt lat="43.72494" lon="3.56131">
        <ele>286</ele>
        <time>2022-05-12T07:53:04.190Z</time>
      </trkpt>
      <trkpt lat="43.72491" lon="3.56129">
        <ele>286</ele>
        <time>2022-05-12T07:53:04.799Z</time>
      </trkpt>
      <trkpt lat="43.72488" lon="3.56128">
        <ele>286</ele>
        <time>2022-05-12T07:53:05.364Z</time>
      </trkpt>
      <trkpt lat="43.72485" lon="3.56127">
        <ele>286</ele>
        <time>2022-05-12T07:53:05.928Z</time>
      </trkpt>
      <trkpt lat="43.72483" lon="3.56126">
        <ele>286</ele>
        <time>2022-05-12T07:53:06.317Z</time>
      </trkpt>
      <trkpt lat="43.7248" lon="3.56125">
        <ele>286</ele>
        <time>2022-05-12T07:53:06.882Z</time>
      </trkpt>
      <trkpt lat="43.72477" lon="3.56124">
        <ele>287</ele>
        <time>2022-05-12T07:53:09.060Z</time>
      </trkpt>
      <trkpt lat="43.72474" lon="3.56123">
        <ele>287</ele>
        <time>2022-05-12T07:53:09.624Z</time>
      </trkpt>
      <trkpt lat="43.72471" lon="3.56121">
        <ele>287</ele>
        <time>2022-05-12T07:53:10.233Z</time>
      </trkpt>
      <trkpt lat="43.72468" lon="3.5612">
        <ele>287</ele>
        <time>2022-05-12T07:53:10.798Z</time>
      </trkpt>
      <trkpt lat="43.72465" lon="3.56119">
        <ele>287</ele>
        <time>2022-05-12T07:53:11.363Z</time>
      </trkpt>
      <trkpt lat="43.72463" lon="3.56117">
        <ele>287</ele>
        <time>2022-05-12T07:53:11.814Z</time>
      </trkpt>
      <trkpt lat="43.7246" lon="3.56115">
        <ele>287</ele>
        <time>2022-05-12T07:53:12.423Z</time>
      </trkpt>
      <trkpt lat="43.72457" lon="3.56114">
        <ele>287</ele>
        <time>2022-05-12T07:53:12.988Z</time>
      </trkpt>
      <trkpt lat="43.72455" lon="3.56112">
        <ele>287</ele>
        <time>2022-05-12T07:53:13.439Z</time>
      </trkpt>
      <trkpt lat="43.72452" lon="3.56111">
        <ele>287</ele>
        <time>2022-05-12T07:53:14.004Z</time>
      </trkpt>
      <trkpt lat="43.7245" lon="3.5611">
        <ele>289</ele>
        <time>2022-05-12T07:53:15.505Z</time>
      </trkpt>
      <trkpt lat="43.72448" lon="3.56108">
        <ele>289</ele>
        <time>2022-05-12T07:53:15.956Z</time>
      </trkpt>
      <trkpt lat="43.72446" lon="3.56107">
        <ele>289</ele>
        <time>2022-05-12T07:53:16.345Z</time>
      </trkpt>
      <trkpt lat="43.72443" lon="3.56106">
        <ele>289</ele>
        <time>2022-05-12T07:53:16.910Z</time>
      </trkpt>
      <trkpt lat="43.72441" lon="3.56104">
        <ele>289</ele>
        <time>2022-05-12T07:53:17.361Z</time>
      </trkpt>
      <trkpt lat="43.7244" lon="3.56102">
        <ele>289</ele>
        <time>2022-05-12T07:53:17.683Z</time>
      </trkpt>
      <trkpt lat="43.72438" lon="3.561">
        <ele>289</ele>
        <time>2022-05-12T07:53:18.134Z</time>
      </trkpt>
      <trkpt lat="43.72436" lon="3.56097">
        <ele>289</ele>
        <time>2022-05-12T07:53:18.674Z</time>
      </trkpt>
      <trkpt lat="43.72434" lon="3.56095">
        <ele>289</ele>
        <time>2022-05-12T07:53:19.125Z</time>
      </trkpt>
      <trkpt lat="43.72432" lon="3.56093">
        <ele>289</ele>
        <time>2022-05-12T07:53:19.577Z</time>
      </trkpt>
      <trkpt lat="43.7243" lon="3.5609">
        <ele>289</ele>
        <time>2022-05-12T07:53:20.117Z</time>
      </trkpt>
      <trkpt lat="43.72428" lon="3.56086">
        <ele>289</ele>
        <time>2022-05-12T07:53:20.760Z</time>
      </trkpt>
      <trkpt lat="43.72426" lon="3.56083">
        <ele>289</ele>
        <time>2022-05-12T07:53:21.299Z</time>
      </trkpt>
      <trkpt lat="43.72425" lon="3.56079">
        <ele>289</ele>
        <time>2022-05-12T07:53:21.859Z</time>
      </trkpt>
      <trkpt lat="43.72423" lon="3.56076">
        <ele>289</ele>
        <time>2022-05-12T07:53:22.399Z</time>
      </trkpt>
      <trkpt lat="43.72421" lon="3.56073">
        <ele>289</ele>
        <time>2022-05-12T07:53:22.938Z</time>
      </trkpt>
      <trkpt lat="43.7242" lon="3.5607">
        <ele>289</ele>
        <time>2022-05-12T07:53:23.375Z</time>
      </trkpt>
      <trkpt lat="43.72418" lon="3.56067">
        <ele>289</ele>
        <time>2022-05-12T07:53:23.915Z</time>
      </trkpt>
      <trkpt lat="43.72417" lon="3.56063">
        <ele>289</ele>
        <time>2022-05-12T07:53:24.474Z</time>
      </trkpt>
      <trkpt lat="43.72415" lon="3.56059">
        <ele>289</ele>
        <time>2022-05-12T07:53:25.117Z</time>
      </trkpt>
      <trkpt lat="43.72413" lon="3.56055">
        <ele>289</ele>
        <time>2022-05-12T07:53:25.761Z</time>
      </trkpt>
      <trkpt lat="43.72411" lon="3.56052">
        <ele>289</ele>
        <time>2022-05-12T07:53:26.300Z</time>
      </trkpt>
      <trkpt lat="43.72409" lon="3.56048">
        <ele>289</ele>
        <time>2022-05-12T07:53:26.943Z</time>
      </trkpt>
      <trkpt lat="43.72407" lon="3.56044">
        <ele>289</ele>
        <time>2022-05-12T07:53:27.587Z</time>
      </trkpt>
      <trkpt lat="43.72405" lon="3.5604">
        <ele>289</ele>
        <time>2022-05-12T07:53:28.230Z</time>
      </trkpt>
      <trkpt lat="43.72403" lon="3.56036">
        <ele>289</ele>
        <time>2022-05-12T07:53:28.873Z</time>
      </trkpt>
      <trkpt lat="43.72402" lon="3.56032">
        <ele>289</ele>
        <time>2022-05-12T07:53:29.432Z</time>
      </trkpt>
      <trkpt lat="43.724" lon="3.56028">
        <ele>289</ele>
        <time>2022-05-12T07:53:30.076Z</time>
      </trkpt>
      <trkpt lat="43.72399" lon="3.56023">
        <ele>289</ele>
        <time>2022-05-12T07:53:30.761Z</time>
      </trkpt>
      <trkpt lat="43.72398" lon="3.5602">
        <ele>289</ele>
        <time>2022-05-12T07:53:31.198Z</time>
      </trkpt>
      <trkpt lat="43.72395" lon="3.56016">
        <ele>289</ele>
        <time>2022-05-12T07:53:31.961Z</time>
      </trkpt>
      <trkpt lat="43.72393" lon="3.56013">
        <ele>289</ele>
        <time>2022-05-12T07:53:32.500Z</time>
      </trkpt>
      <trkpt lat="43.72391" lon="3.56009">
        <ele>289</ele>
        <time>2022-05-12T07:53:33.143Z</time>
      </trkpt>
      <trkpt lat="43.72388" lon="3.56005">
        <ele>289</ele>
        <time>2022-05-12T07:53:33.906Z</time>
      </trkpt>
      <trkpt lat="43.72386" lon="3.56001">
        <ele>289</ele>
        <time>2022-05-12T07:53:34.549Z</time>
      </trkpt>
      <trkpt lat="43.72384" lon="3.55997">
        <ele>289</ele>
        <time>2022-05-12T07:53:35.192Z</time>
      </trkpt>
      <trkpt lat="43.72382" lon="3.55993">
        <ele>289</ele>
        <time>2022-05-12T07:53:35.835Z</time>
      </trkpt>
      <trkpt lat="43.72381" lon="3.55989">
        <ele>289</ele>
        <time>2022-05-12T07:53:36.395Z</time>
      </trkpt>
      <trkpt lat="43.72379" lon="3.55984">
        <ele>289</ele>
        <time>2022-05-12T07:53:37.150Z</time>
      </trkpt>
      <trkpt lat="43.72378" lon="3.55979">
        <ele>289</ele>
        <time>2022-05-12T07:53:37.836Z</time>
      </trkpt>
      <trkpt lat="43.72376" lon="3.55974">
        <ele>289</ele>
        <time>2022-05-12T07:53:38.592Z</time>
      </trkpt>
      <trkpt lat="43.72375" lon="3.55969">
        <ele>289</ele>
        <time>2022-05-12T07:53:39.278Z</time>
      </trkpt>
      <trkpt lat="43.72373" lon="3.55963">
        <ele>289</ele>
        <time>2022-05-12T07:53:40.151Z</time>
      </trkpt>
      <trkpt lat="43.72371" lon="3.55958">
        <ele>289</ele>
        <time>2022-05-12T07:53:40.907Z</time>
      </trkpt>
      <trkpt lat="43.7237" lon="3.55953">
        <ele>289</ele>
        <time>2022-05-12T07:53:41.593Z</time>
      </trkpt>
      <trkpt lat="43.72368" lon="3.55949">
        <ele>289</ele>
        <time>2022-05-12T07:53:42.236Z</time>
      </trkpt>
      <trkpt lat="43.72367" lon="3.55946">
        <ele>289</ele>
        <time>2022-05-12T07:53:42.673Z</time>
      </trkpt>
      <trkpt lat="43.72366" lon="3.55943">
        <ele>289</ele>
        <time>2022-05-12T07:53:43.110Z</time>
      </trkpt>
      <trkpt lat="43.72363" lon="3.55941">
        <ele>289</ele>
        <time>2022-05-12T07:53:43.719Z</time>
      </trkpt>
      <trkpt lat="43.7236" lon="3.5594">
        <ele>288</ele>
        <time>2022-05-12T07:53:43.994Z</time>
      </trkpt>
      <trkpt lat="43.72358" lon="3.55938">
        <ele>288</ele>
        <time>2022-05-12T07:53:44.445Z</time>
      </trkpt>
      <trkpt lat="43.72357" lon="3.55937">
        <ele>288</ele>
        <time>2022-05-12T07:53:44.671Z</time>
      </trkpt>
      <trkpt lat="43.72355" lon="3.55936">
        <ele>288</ele>
        <time>2022-05-12T07:53:45.060Z</time>
      </trkpt>
      <trkpt lat="43.72353" lon="3.55936">
        <ele>288</ele>
        <time>2022-05-12T07:53:45.426Z</time>
      </trkpt>
      <trkpt lat="43.7235" lon="3.55936">
        <ele>288</ele>
        <time>2022-05-12T07:53:45.975Z</time>
      </trkpt>
      <trkpt lat="43.72348" lon="3.55936">
        <ele>288</ele>
        <time>2022-05-12T07:53:46.341Z</time>
      </trkpt>
      <trkpt lat="43.72345" lon="3.55938">
        <ele>288</ele>
        <time>2022-05-12T07:53:46.950Z</time>
      </trkpt>
      <trkpt lat="43.72343" lon="3.55941">
        <ele>288</ele>
        <time>2022-05-12T07:53:47.490Z</time>
      </trkpt>
      <trkpt lat="43.72341" lon="3.55943">
        <ele>287</ele>
        <time>2022-05-12T07:53:47.709Z</time>
      </trkpt>
      <trkpt lat="43.72339" lon="3.55945">
        <ele>287</ele>
        <time>2022-05-12T07:53:48.161Z</time>
      </trkpt>
      <trkpt lat="43.72337" lon="3.55948">
        <ele>287</ele>
        <time>2022-05-12T07:53:48.700Z</time>
      </trkpt>
      <trkpt lat="43.72335" lon="3.5595">
        <ele>287</ele>
        <time>2022-05-12T07:53:49.152Z</time>
      </trkpt>
      <trkpt lat="43.72334" lon="3.55953">
        <ele>287</ele>
        <time>2022-05-12T07:53:49.589Z</time>
      </trkpt>
      <trkpt lat="43.72334" lon="3.55956">
        <ele>287</ele>
        <time>2022-05-12T07:53:49.985Z</time>
      </trkpt>
      <trkpt lat="43.72334" lon="3.55959">
        <ele>287</ele>
        <time>2022-05-12T07:53:50.382Z</time>
      </trkpt>
      <trkpt lat="43.72333" lon="3.55961">
        <ele>287</ele>
        <time>2022-05-12T07:53:50.704Z</time>
      </trkpt>
      <trkpt lat="43.72332" lon="3.55963">
        <ele>287</ele>
        <time>2022-05-12T07:53:51.025Z</time>
      </trkpt>
      <trkpt lat="43.72331" lon="3.55968">
        <ele>286</ele>
        <time>2022-05-12T07:53:51.359Z</time>
      </trkpt>
      <trkpt lat="43.7233" lon="3.55971">
        <ele>286</ele>
        <time>2022-05-12T07:53:51.796Z</time>
      </trkpt>
      <trkpt lat="43.7233" lon="3.55975">
        <ele>286</ele>
        <time>2022-05-12T07:53:52.325Z</time>
      </trkpt>
      <trkpt lat="43.72327" lon="3.55979">
        <ele>286</ele>
        <time>2022-05-12T07:53:53.087Z</time>
      </trkpt>
      <trkpt lat="43.72325" lon="3.5598">
        <ele>286</ele>
        <time>2022-05-12T07:53:53.476Z</time>
      </trkpt>
      <trkpt lat="43.72322" lon="3.55983">
        <ele>286</ele>
        <time>2022-05-12T07:53:54.153Z</time>
      </trkpt>
      <trkpt lat="43.7232" lon="3.55985">
        <ele>286</ele>
        <time>2022-05-12T07:53:54.605Z</time>
      </trkpt>
      <trkpt lat="43.72319" lon="3.55987">
        <ele>286</ele>
        <time>2022-05-12T07:53:54.926Z</time>
      </trkpt>
      <trkpt lat="43.72317" lon="3.5599">
        <ele>286</ele>
        <time>2022-05-12T07:53:55.466Z</time>
      </trkpt>
      <trkpt lat="43.72316" lon="3.55992">
        <ele>286</ele>
        <time>2022-05-12T07:53:55.787Z</time>
      </trkpt>
      <trkpt lat="43.72314" lon="3.55995">
        <ele>286</ele>
        <time>2022-05-12T07:53:56.327Z</time>
      </trkpt>
      <trkpt lat="43.72313" lon="3.55997">
        <ele>286</ele>
        <time>2022-05-12T07:53:56.649Z</time>
      </trkpt>
      <trkpt lat="43.72311" lon="3.55999">
        <ele>286</ele>
        <time>2022-05-12T07:53:57.100Z</time>
      </trkpt>
      <trkpt lat="43.72311" lon="3.56002">
        <ele>286</ele>
        <time>2022-05-12T07:53:57.497Z</time>
      </trkpt>
      <trkpt lat="43.7231" lon="3.56004">
        <ele>286</ele>
        <time>2022-05-12T07:53:57.818Z</time>
      </trkpt>
      <trkpt lat="43.72308" lon="3.56007">
        <ele>286</ele>
        <time>2022-05-12T07:53:58.358Z</time>
      </trkpt>
      <trkpt lat="43.72307" lon="3.56009">
        <ele>285</ele>
        <time>2022-05-12T07:53:58.514Z</time>
      </trkpt>
      <trkpt lat="43.72305" lon="3.56011">
        <ele>285</ele>
        <time>2022-05-12T07:53:58.966Z</time>
      </trkpt>
      <trkpt lat="43.72303" lon="3.56013">
        <ele>285</ele>
        <time>2022-05-12T07:53:59.417Z</time>
      </trkpt>
      <trkpt lat="43.72302" lon="3.56015">
        <ele>285</ele>
        <time>2022-05-12T07:53:59.739Z</time>
      </trkpt>
      <trkpt lat="43.723" lon="3.56016">
        <ele>285</ele>
        <time>2022-05-12T07:54:00.128Z</time>
      </trkpt>
      <trkpt lat="43.72299" lon="3.56018">
        <ele>285</ele>
        <time>2022-05-12T07:54:00.450Z</time>
      </trkpt>
      <trkpt lat="43.72298" lon="3.56021">
        <ele>285</ele>
        <time>2022-05-12T07:54:00.886Z</time>
      </trkpt>
      <trkpt lat="43.72297" lon="3.56023">
        <ele>285</ele>
        <time>2022-05-12T07:54:01.208Z</time>
      </trkpt>
      <trkpt lat="43.72296" lon="3.56025">
        <ele>285</ele>
        <time>2022-05-12T07:54:01.530Z</time>
      </trkpt>
      <trkpt lat="43.72293" lon="3.56028">
        <ele>285</ele>
        <time>2022-05-12T07:54:02.207Z</time>
      </trkpt>
      <trkpt lat="43.72292" lon="3.5603">
        <ele>285</ele>
        <time>2022-05-12T07:54:02.528Z</time>
      </trkpt>
      <trkpt lat="43.72289" lon="3.56031">
        <ele>285</ele>
        <time>2022-05-12T07:54:03.093Z</time>
      </trkpt>
      <trkpt lat="43.72287" lon="3.56032">
        <ele>285</ele>
        <time>2022-05-12T07:54:03.482Z</time>
      </trkpt>
      <trkpt lat="43.72285" lon="3.56033">
        <ele>285</ele>
        <time>2022-05-12T07:54:03.871Z</time>
      </trkpt>
      <trkpt lat="43.72283" lon="3.56032">
        <ele>285</ele>
        <time>2022-05-12T07:54:04.260Z</time>
      </trkpt>
      <trkpt lat="43.7228" lon="3.56031">
        <ele>285</ele>
        <time>2022-05-12T07:54:04.825Z</time>
      </trkpt>
      <trkpt lat="43.72278" lon="3.56031">
        <ele>285</ele>
        <time>2022-05-12T07:54:05.191Z</time>
      </trkpt>
      <trkpt lat="43.72276" lon="3.56031">
        <ele>285</ele>
        <time>2022-05-12T07:54:05.556Z</time>
      </trkpt>
      <trkpt lat="43.72275" lon="3.56032">
        <ele>285</ele>
        <time>2022-05-12T07:54:05.782Z</time>
      </trkpt>
      <trkpt lat="43.72273" lon="3.56032">
        <ele>285</ele>
        <time>2022-05-12T07:54:06.148Z</time>
      </trkpt>
      <trkpt lat="43.72269" lon="3.56032">
        <ele>285</ele>
        <time>2022-05-12T07:54:06.880Z</time>
      </trkpt>
      <trkpt lat="43.72267" lon="3.56032">
        <ele>285</ele>
        <time>2022-05-12T07:54:07.246Z</time>
      </trkpt>
      <trkpt lat="43.72265" lon="3.56031">
        <ele>285</ele>
        <time>2022-05-12T07:54:07.635Z</time>
      </trkpt>
      <trkpt lat="43.72264" lon="3.56031">
        <ele>285</ele>
        <time>2022-05-12T07:54:07.818Z</time>
      </trkpt>
      <trkpt lat="43.72262" lon="3.5603">
        <ele>285</ele>
        <time>2022-05-12T07:54:08.207Z</time>
      </trkpt>
      <trkpt lat="43.72258" lon="3.5603">
        <ele>285</ele>
        <time>2022-05-12T07:54:08.939Z</time>
      </trkpt>
      <trkpt lat="43.72256" lon="3.56032">
        <ele>285</ele>
        <time>2022-05-12T07:54:09.390Z</time>
      </trkpt>
      <trkpt lat="43.72254" lon="3.56034">
        <ele>285</ele>
        <time>2022-05-12T07:54:09.842Z</time>
      </trkpt>
      <trkpt lat="43.72251" lon="3.56035">
        <ele>285</ele>
        <time>2022-05-12T07:54:10.406Z</time>
      </trkpt>
      <trkpt lat="43.72248" lon="3.56034">
        <ele>285</ele>
        <time>2022-05-12T07:54:10.971Z</time>
      </trkpt>
      <trkpt lat="43.72246" lon="3.56034">
        <ele>285</ele>
        <time>2022-05-12T07:54:11.337Z</time>
      </trkpt>
      <trkpt lat="43.72244" lon="3.56034">
        <ele>285</ele>
        <time>2022-05-12T07:54:11.703Z</time>
      </trkpt>
      <trkpt lat="43.7224" lon="3.56034">
        <ele>287</ele>
        <time>2022-05-12T07:54:14.526Z</time>
      </trkpt>
      <trkpt lat="43.72237" lon="3.56035">
        <ele>287</ele>
        <time>2022-05-12T07:54:15.090Z</time>
      </trkpt>
      <trkpt lat="43.72234" lon="3.56035">
        <ele>287</ele>
        <time>2022-05-12T07:54:15.639Z</time>
      </trkpt>
      <trkpt lat="43.72231" lon="3.56036">
        <ele>287</ele>
        <time>2022-05-12T07:54:16.204Z</time>
      </trkpt>
      <trkpt lat="43.72229" lon="3.56037">
        <ele>287</ele>
        <time>2022-05-12T07:54:16.593Z</time>
      </trkpt>
      <trkpt lat="43.72226" lon="3.56038">
        <ele>288</ele>
        <time>2022-05-12T07:54:18.770Z</time>
      </trkpt>
      <trkpt lat="43.72223" lon="3.56038">
        <ele>288</ele>
        <time>2022-05-12T07:54:19.319Z</time>
      </trkpt>
      <trkpt lat="43.7222" lon="3.56038">
        <ele>288</ele>
        <time>2022-05-12T07:54:19.868Z</time>
      </trkpt>
      <trkpt lat="43.72218" lon="3.56037">
        <ele>288</ele>
        <time>2022-05-12T07:54:20.257Z</time>
      </trkpt>
      <trkpt lat="43.72216" lon="3.56037">
        <ele>288</ele>
        <time>2022-05-12T07:54:20.623Z</time>
      </trkpt>
      <trkpt lat="43.72214" lon="3.56036">
        <ele>288</ele>
        <time>2022-05-12T07:54:21.012Z</time>
      </trkpt>
      <trkpt lat="43.72211" lon="3.56036">
        <ele>288</ele>
        <time>2022-05-12T07:54:21.561Z</time>
      </trkpt>
      <trkpt lat="43.72209" lon="3.56037">
        <ele>288</ele>
        <time>2022-05-12T07:54:21.950Z</time>
      </trkpt>
      <trkpt lat="43.72207" lon="3.56037">
        <ele>288</ele>
        <time>2022-05-12T07:54:22.316Z</time>
      </trkpt>
      <trkpt lat="43.72205" lon="3.56038">
        <ele>288</ele>
        <time>2022-05-12T07:54:22.705Z</time>
      </trkpt>
      <trkpt lat="43.72203" lon="3.56037">
        <ele>288</ele>
        <time>2022-05-12T07:54:23.094Z</time>
      </trkpt>
      <trkpt lat="43.72201" lon="3.56037">
        <ele>288</ele>
        <time>2022-05-12T07:54:23.460Z</time>
      </trkpt>
      <trkpt lat="43.72199" lon="3.56036">
        <ele>288</ele>
        <time>2022-05-12T07:54:23.849Z</time>
      </trkpt>
      <trkpt lat="43.72197" lon="3.56035">
        <ele>288</ele>
        <time>2022-05-12T07:54:24.238Z</time>
      </trkpt>
      <trkpt lat="43.72195" lon="3.56033">
        <ele>288</ele>
        <time>2022-05-12T07:54:24.690Z</time>
      </trkpt>
      <trkpt lat="43.72193" lon="3.56032">
        <ele>288</ele>
        <time>2022-05-12T07:54:25.079Z</time>
      </trkpt>
      <trkpt lat="43.7219" lon="3.56031">
        <ele>288</ele>
        <time>2022-05-12T07:54:25.643Z</time>
      </trkpt>
      <trkpt lat="43.72187" lon="3.56031">
        <ele>289</ele>
        <time>2022-05-12T07:54:27.760Z</time>
      </trkpt>
      <trkpt lat="43.72185" lon="3.5603">
        <ele>289</ele>
        <time>2022-05-12T07:54:28.149Z</time>
      </trkpt>
      <trkpt lat="43.72182" lon="3.5603">
        <ele>289</ele>
        <time>2022-05-12T07:54:28.698Z</time>
      </trkpt>
      <trkpt lat="43.72179" lon="3.56029">
        <ele>289</ele>
        <time>2022-05-12T07:54:29.263Z</time>
      </trkpt>
      <trkpt lat="43.72177" lon="3.56029">
        <ele>289</ele>
        <time>2022-05-12T07:54:29.629Z</time>
      </trkpt>
      <trkpt lat="43.72174" lon="3.56028">
        <ele>289</ele>
        <time>2022-05-12T07:54:30.193Z</time>
      </trkpt>
      <trkpt lat="43.72172" lon="3.56027">
        <ele>289</ele>
        <time>2022-05-12T07:54:30.582Z</time>
      </trkpt>
      <trkpt lat="43.7217" lon="3.56026">
        <ele>289</ele>
        <time>2022-05-12T07:54:30.972Z</time>
      </trkpt>
      <trkpt lat="43.72168" lon="3.56023">
        <ele>289</ele>
        <time>2022-05-12T07:54:31.511Z</time>
      </trkpt>
      <trkpt lat="43.72167" lon="3.56022">
        <ele>289</ele>
        <time>2022-05-12T07:54:31.737Z</time>
      </trkpt>
      <trkpt lat="43.72163" lon="3.56021">
        <ele>290</ele>
        <time>2022-05-12T07:54:34.605Z</time>
      </trkpt>
      <trkpt lat="43.72162" lon="3.56023">
        <ele>290</ele>
        <time>2022-05-12T07:54:34.927Z</time>
      </trkpt>
      <trkpt lat="43.7216" lon="3.56026">
        <ele>290</ele>
        <time>2022-05-12T07:54:35.467Z</time>
      </trkpt>
      <trkpt lat="43.72157" lon="3.56027">
        <ele>290</ele>
        <time>2022-05-12T07:54:36.031Z</time>
      </trkpt>
      <trkpt lat="43.72155" lon="3.56027">
        <ele>290</ele>
        <time>2022-05-12T07:54:36.397Z</time>
      </trkpt>
      <trkpt lat="43.72152" lon="3.56028">
        <ele>290</ele>
        <time>2022-05-12T07:54:36.962Z</time>
      </trkpt>
      <trkpt lat="43.7215" lon="3.5603">
        <ele>290</ele>
        <time>2022-05-12T07:54:37.413Z</time>
      </trkpt>
      <trkpt lat="43.72148" lon="3.56032">
        <ele>290</ele>
        <time>2022-05-12T07:54:37.865Z</time>
      </trkpt>
      <trkpt lat="43.72146" lon="3.56033">
        <ele>290</ele>
        <time>2022-05-12T07:54:38.254Z</time>
      </trkpt>
      <trkpt lat="43.72144" lon="3.56035">
        <ele>291</ele>
        <time>2022-05-12T07:54:39.995Z</time>
      </trkpt>
      <trkpt lat="43.72144" lon="3.56037">
        <ele>291</ele>
        <time>2022-05-12T07:54:40.260Z</time>
      </trkpt>
      <trkpt lat="43.72143" lon="3.5604">
        <ele>291</ele>
        <time>2022-05-12T07:54:40.696Z</time>
      </trkpt>
      <trkpt lat="43.72143" lon="3.56043">
        <ele>291</ele>
        <time>2022-05-12T07:54:41.093Z</time>
      </trkpt>
      <trkpt lat="43.72143" lon="3.56046">
        <ele>291</ele>
        <time>2022-05-12T07:54:41.490Z</time>
      </trkpt>
      <trkpt lat="43.72142" lon="3.56049">
        <ele>291</ele>
        <time>2022-05-12T07:54:41.927Z</time>
      </trkpt>
      <trkpt lat="43.72141" lon="3.56051">
        <ele>291</ele>
        <time>2022-05-12T07:54:42.248Z</time>
      </trkpt>
      <trkpt lat="43.7214" lon="3.56053">
        <ele>291</ele>
        <time>2022-05-12T07:54:42.570Z</time>
      </trkpt>
      <trkpt lat="43.72139" lon="3.56054">
        <ele>291</ele>
        <time>2022-05-12T07:54:42.796Z</time>
      </trkpt>
      <trkpt lat="43.72137" lon="3.56054">
        <ele>291</ele>
        <time>2022-05-12T07:54:43.161Z</time>
      </trkpt>
      <trkpt lat="43.72134" lon="3.56054">
        <ele>291</ele>
        <time>2022-05-12T07:54:43.710Z</time>
      </trkpt>
      <trkpt lat="43.72132" lon="3.56054">
        <ele>291</ele>
        <time>2022-05-12T07:54:44.076Z</time>
      </trkpt>
      <trkpt lat="43.7213" lon="3.56055">
        <ele>291</ele>
        <time>2022-05-12T07:54:44.465Z</time>
      </trkpt>
      <trkpt lat="43.72128" lon="3.56056">
        <ele>291</ele>
        <time>2022-05-12T07:54:44.854Z</time>
      </trkpt>
      <trkpt lat="43.72126" lon="3.56057">
        <ele>291</ele>
        <time>2022-05-12T07:54:45.243Z</time>
      </trkpt>
      <trkpt lat="43.72125" lon="3.56059">
        <ele>291</ele>
        <time>2022-05-12T07:54:45.565Z</time>
      </trkpt>
      <trkpt lat="43.72123" lon="3.56061">
        <ele>291</ele>
        <time>2022-05-12T07:54:46.017Z</time>
      </trkpt>
      <trkpt lat="43.72121" lon="3.56063">
        <ele>291</ele>
        <time>2022-05-12T07:54:46.468Z</time>
      </trkpt>
      <trkpt lat="43.72119" lon="3.56065">
        <ele>291</ele>
        <time>2022-05-12T07:54:46.919Z</time>
      </trkpt>
      <trkpt lat="43.72118" lon="3.56066">
        <ele>291</ele>
        <time>2022-05-12T07:54:47.145Z</time>
      </trkpt>
      <trkpt lat="43.72116" lon="3.56068">
        <ele>292</ele>
        <time>2022-05-12T07:54:48.887Z</time>
      </trkpt>
      <trkpt lat="43.72114" lon="3.5607">
        <ele>292</ele>
        <time>2022-05-12T07:54:49.338Z</time>
      </trkpt>
      <trkpt lat="43.72112" lon="3.56071">
        <ele>292</ele>
        <time>2022-05-12T07:54:49.727Z</time>
      </trkpt>
      <trkpt lat="43.7211" lon="3.56072">
        <ele>292</ele>
        <time>2022-05-12T07:54:50.116Z</time>
      </trkpt>
      <trkpt lat="43.72108" lon="3.56074">
        <ele>292</ele>
        <time>2022-05-12T07:54:50.568Z</time>
      </trkpt>
      <trkpt lat="43.72106" lon="3.56075">
        <ele>292</ele>
        <time>2022-05-12T07:54:50.957Z</time>
      </trkpt>
      <trkpt lat="43.72104" lon="3.56075">
        <ele>292</ele>
        <time>2022-05-12T07:54:51.323Z</time>
      </trkpt>
      <trkpt lat="43.72101" lon="3.56074">
        <ele>292</ele>
        <time>2022-05-12T07:54:51.887Z</time>
      </trkpt>
      <trkpt lat="43.72099" lon="3.56072">
        <ele>292</ele>
        <time>2022-05-12T07:54:52.339Z</time>
      </trkpt>
      <trkpt lat="43.72096" lon="3.56071">
        <ele>292</ele>
        <time>2022-05-12T07:54:52.903Z</time>
      </trkpt>
      <trkpt lat="43.72093" lon="3.56069">
        <ele>292</ele>
        <time>2022-05-12T07:54:53.513Z</time>
      </trkpt>
      <trkpt lat="43.72089" lon="3.56068">
        <ele>292</ele>
        <time>2022-05-12T07:54:54.256Z</time>
      </trkpt>
      <trkpt lat="43.72085" lon="3.56067">
        <ele>292</ele>
        <time>2022-05-12T07:54:55.000Z</time>
      </trkpt>
      <trkpt lat="43.72081" lon="3.56067">
        <ele>292</ele>
        <time>2022-05-12T07:54:55.732Z</time>
      </trkpt>
      <trkpt lat="43.72077" lon="3.56068">
        <ele>292</ele>
        <time>2022-05-12T07:54:56.475Z</time>
      </trkpt>
      <trkpt lat="43.72073" lon="3.56068">
        <ele>292</ele>
        <time>2022-05-12T07:54:57.207Z</time>
      </trkpt>
      <trkpt lat="43.7207" lon="3.56068">
        <ele>292</ele>
        <time>2022-05-12T07:54:57.756Z</time>
      </trkpt>
      <trkpt lat="43.72068" lon="3.56068">
        <ele>292</ele>
        <time>2022-05-12T07:54:58.122Z</time>
      </trkpt>
      <trkpt lat="43.72065" lon="3.56069">
        <ele>292</ele>
        <time>2022-05-12T07:54:58.687Z</time>
      </trkpt>
      <trkpt lat="43.72063" lon="3.56071">
        <ele>292</ele>
        <time>2022-05-12T07:54:59.138Z</time>
      </trkpt>
      <trkpt lat="43.72061" lon="3.56072">
        <ele>292</ele>
        <time>2022-05-12T07:54:59.527Z</time>
      </trkpt>
      <trkpt lat="43.72059" lon="3.56074">
        <ele>292</ele>
        <time>2022-05-12T07:54:59.979Z</time>
      </trkpt>
      <trkpt lat="43.72058" lon="3.56075">
        <ele>292</ele>
        <time>2022-05-12T07:55:00.204Z</time>
      </trkpt>
      <trkpt lat="43.72056" lon="3.56077">
        <ele>292</ele>
        <time>2022-05-12T07:55:00.656Z</time>
      </trkpt>
      <trkpt lat="43.72054" lon="3.56079">
        <ele>292</ele>
        <time>2022-05-12T07:55:01.107Z</time>
      </trkpt>
      <trkpt lat="43.72053" lon="3.56081">
        <ele>292</ele>
        <time>2022-05-12T07:55:01.429Z</time>
      </trkpt>
      <trkpt lat="43.72051" lon="3.56083">
        <ele>292</ele>
        <time>2022-05-12T07:55:01.880Z</time>
      </trkpt>
      <trkpt lat="43.72051" lon="3.56086">
        <ele>292</ele>
        <time>2022-05-12T07:55:02.277Z</time>
      </trkpt>
      <trkpt lat="43.7205" lon="3.56089">
        <ele>292</ele>
        <time>2022-05-12T07:55:02.714Z</time>
      </trkpt>
      <trkpt lat="43.72048" lon="3.56091">
        <ele>292</ele>
        <time>2022-05-12T07:55:03.165Z</time>
      </trkpt>
      <trkpt lat="43.72048" lon="3.56096">
        <ele>292</ele>
        <time>2022-05-12T07:55:03.827Z</time>
      </trkpt>
      <trkpt lat="43.72047" lon="3.56099">
        <ele>292</ele>
        <time>2022-05-12T07:55:04.263Z</time>
      </trkpt>
      <trkpt lat="43.72046" lon="3.56102">
        <ele>292</ele>
        <time>2022-05-12T07:55:04.700Z</time>
      </trkpt>
      <trkpt lat="43.72045" lon="3.56104">
        <ele>292</ele>
        <time>2022-05-12T07:55:05.022Z</time>
      </trkpt>
      <trkpt lat="43.72043" lon="3.56105">
        <ele>292</ele>
        <time>2022-05-12T07:55:05.411Z</time>
      </trkpt>
      <trkpt lat="43.72041" lon="3.56109">
        <ele>292</ele>
        <time>2022-05-12T07:55:06.054Z</time>
      </trkpt>
      <trkpt lat="43.72039" lon="3.56112">
        <ele>292</ele>
        <time>2022-05-12T07:55:06.594Z</time>
      </trkpt>
      <trkpt lat="43.72039" lon="3.56114">
        <ele>293</ele>
        <time>2022-05-12T07:55:07.614Z</time>
      </trkpt>
      <trkpt lat="43.7204" lon="3.56117">
        <ele>293</ele>
        <time>2022-05-12T07:55:08.051Z</time>
      </trkpt>
      <trkpt lat="43.7204" lon="3.5612">
        <ele>293</ele>
        <time>2022-05-12T07:55:08.447Z</time>
      </trkpt>
      <trkpt lat="43.7204" lon="3.56123">
        <ele>293</ele>
        <time>2022-05-12T07:55:08.844Z</time>
      </trkpt>
      <trkpt lat="43.7204" lon="3.56126">
        <ele>293</ele>
        <time>2022-05-12T07:55:09.241Z</time>
      </trkpt>
      <trkpt lat="43.72037" lon="3.56128">
        <ele>293</ele>
        <time>2022-05-12T07:55:09.850Z</time>
      </trkpt>
      <trkpt lat="43.72036" lon="3.5613">
        <ele>294</ele>
        <time>2022-05-12T07:55:11.090Z</time>
      </trkpt>
      <trkpt lat="43.72033" lon="3.56131">
        <ele>294</ele>
        <time>2022-05-12T07:55:11.655Z</time>
      </trkpt>
      <trkpt lat="43.7203" lon="3.56132">
        <ele>294</ele>
        <time>2022-05-12T07:55:12.219Z</time>
      </trkpt>
      <trkpt lat="43.72027" lon="3.56133">
        <ele>294</ele>
        <time>2022-05-12T07:55:12.784Z</time>
      </trkpt>
      <trkpt lat="43.72024" lon="3.56132">
        <ele>294</ele>
        <time>2022-05-12T07:55:13.349Z</time>
      </trkpt>
      <trkpt lat="43.72022" lon="3.56131">
        <ele>294</ele>
        <time>2022-05-12T07:55:13.738Z</time>
      </trkpt>
      <trkpt lat="43.72021" lon="3.56128">
        <ele>295</ele>
        <time>2022-05-12T07:55:15.423Z</time>
      </trkpt>
      <trkpt lat="43.72021" lon="3.56125">
        <ele>295</ele>
        <time>2022-05-12T07:55:15.819Z</time>
      </trkpt>
      <trkpt lat="43.7202" lon="3.56121">
        <ele>295</ele>
        <time>2022-05-12T07:55:16.379Z</time>
      </trkpt>
      <trkpt lat="43.72019" lon="3.56119">
        <ele>295</ele>
        <time>2022-05-12T07:55:16.701Z</time>
      </trkpt>
      <trkpt lat="43.72017" lon="3.56118">
        <ele>295</ele>
        <time>2022-05-12T07:55:17.090Z</time>
      </trkpt>
      <trkpt lat="43.72015" lon="3.56117">
        <ele>295</ele>
        <time>2022-05-12T07:55:17.479Z</time>
      </trkpt>
      <trkpt lat="43.72012" lon="3.56116">
        <ele>295</ele>
        <time>2022-05-12T07:55:18.043Z</time>
      </trkpt>
      <trkpt lat="43.72009" lon="3.56115">
        <ele>295</ele>
        <time>2022-05-12T07:55:18.608Z</time>
      </trkpt>
      <trkpt lat="43.72007" lon="3.56114">
        <ele>295</ele>
        <time>2022-05-12T07:55:18.997Z</time>
      </trkpt>
      <trkpt lat="43.72004" lon="3.56112">
        <ele>295</ele>
        <time>2022-05-12T07:55:19.606Z</time>
      </trkpt>
      <trkpt lat="43.72001" lon="3.56111">
        <ele>295</ele>
        <time>2022-05-12T07:55:20.171Z</time>
      </trkpt>
      <trkpt lat="43.71998" lon="3.56109">
        <ele>295</ele>
        <time>2022-05-12T07:55:20.780Z</time>
      </trkpt>
      <trkpt lat="43.71995" lon="3.56109">
        <ele>295</ele>
        <time>2022-05-12T07:55:21.329Z</time>
      </trkpt>
      <trkpt lat="43.71992" lon="3.56107">
        <ele>295</ele>
        <time>2022-05-12T07:55:21.938Z</time>
      </trkpt>
      <trkpt lat="43.7199" lon="3.56105">
        <ele>295</ele>
        <time>2022-05-12T07:55:22.390Z</time>
      </trkpt>
      <trkpt lat="43.71988" lon="3.56103">
        <ele>295</ele>
        <time>2022-05-12T07:55:22.841Z</time>
      </trkpt>
      <trkpt lat="43.71986" lon="3.56102">
        <ele>295</ele>
        <time>2022-05-12T07:55:23.230Z</time>
      </trkpt>
      <trkpt lat="43.71984" lon="3.56101">
        <ele>295</ele>
        <time>2022-05-12T07:55:23.619Z</time>
      </trkpt>
      <trkpt lat="43.71981" lon="3.561">
        <ele>294</ele>
        <time>2022-05-12T07:55:23.894Z</time>
      </trkpt>
      <trkpt lat="43.71978" lon="3.561">
        <ele>294</ele>
        <time>2022-05-12T07:55:24.443Z</time>
      </trkpt>
      <trkpt lat="43.71976" lon="3.561">
        <ele>294</ele>
        <time>2022-05-12T07:55:24.809Z</time>
      </trkpt>
      <trkpt lat="43.71973" lon="3.56099">
        <ele>294</ele>
        <time>2022-05-12T07:55:25.373Z</time>
      </trkpt>
      <trkpt lat="43.71971" lon="3.56096">
        <ele>294</ele>
        <time>2022-05-12T07:55:25.913Z</time>
      </trkpt>
      <trkpt lat="43.71968" lon="3.56093">
        <ele>294</ele>
        <time>2022-05-12T07:55:26.590Z</time>
      </trkpt>
      <trkpt lat="43.71965" lon="3.56088">
        <ele>294</ele>
        <time>2022-05-12T07:55:27.450Z</time>
      </trkpt>
      <trkpt lat="43.71963" lon="3.56083">
        <ele>294</ele>
        <time>2022-05-12T07:55:28.205Z</time>
      </trkpt>
      <trkpt lat="43.7196" lon="3.56078">
        <ele>294</ele>
        <time>2022-05-12T07:55:29.065Z</time>
      </trkpt>
      <trkpt lat="43.71956" lon="3.56074">
        <ele>294</ele>
        <time>2022-05-12T07:55:29.967Z</time>
      </trkpt>
      <trkpt lat="43.71953" lon="3.5607">
        <ele>293</ele>
        <time>2022-05-12T07:55:30.338Z</time>
      </trkpt>
      <trkpt lat="43.71952" lon="3.56065">
        <ele>293</ele>
        <time>2022-05-12T07:55:31.024Z</time>
      </trkpt>
      <trkpt lat="43.71951" lon="3.5606">
        <ele>293</ele>
        <time>2022-05-12T07:55:31.710Z</time>
      </trkpt>
      <trkpt lat="43.71951" lon="3.56054">
        <ele>293</ele>
        <time>2022-05-12T07:55:32.504Z</time>
      </trkpt>
      <trkpt lat="43.71952" lon="3.56049">
        <ele>293</ele>
        <time>2022-05-12T07:55:33.190Z</time>
      </trkpt>
      <trkpt lat="43.71952" lon="3.56043">
        <ele>293</ele>
        <time>2022-05-12T07:55:33.983Z</time>
      </trkpt>
      <trkpt lat="43.71951" lon="3.56037">
        <ele>293</ele>
        <time>2022-05-12T07:55:34.797Z</time>
      </trkpt>
      <trkpt lat="43.7195" lon="3.56031">
        <ele>293</ele>
        <time>2022-05-12T07:55:35.612Z</time>
      </trkpt>
      <trkpt lat="43.71947" lon="3.56026">
        <ele>293</ele>
        <time>2022-05-12T07:55:36.471Z</time>
      </trkpt>
      <trkpt lat="43.71944" lon="3.56021">
        <ele>293</ele>
        <time>2022-05-12T07:55:37.330Z</time>
      </trkpt>
      <trkpt lat="43.71941" lon="3.56017">
        <ele>293</ele>
        <time>2022-05-12T07:55:38.092Z</time>
      </trkpt>
      <trkpt lat="43.71938" lon="3.56013">
        <ele>293</ele>
        <time>2022-05-12T07:55:38.855Z</time>
      </trkpt>
      <trkpt lat="43.71934" lon="3.56011">
        <ele>293</ele>
        <time>2022-05-12T07:55:39.633Z</time>
      </trkpt>
      <trkpt lat="43.71931" lon="3.5601">
        <ele>293</ele>
        <time>2022-05-12T07:55:40.197Z</time>
      </trkpt>
      <trkpt lat="43.71928" lon="3.5601">
        <ele>293</ele>
        <time>2022-05-12T07:55:40.746Z</time>
      </trkpt>
      <trkpt lat="43.71925" lon="3.56009">
        <ele>293</ele>
        <time>2022-05-12T07:55:41.311Z</time>
      </trkpt>
      <trkpt lat="43.71922" lon="3.56007">
        <ele>293</ele>
        <time>2022-05-12T07:55:41.920Z</time>
      </trkpt>
      <trkpt lat="43.71919" lon="3.56005">
        <ele>293</ele>
        <time>2022-05-12T07:55:42.529Z</time>
      </trkpt>
      <trkpt lat="43.71916" lon="3.56003">
        <ele>293</ele>
        <time>2022-05-12T07:55:43.139Z</time>
      </trkpt>
      <trkpt lat="43.71912" lon="3.56004">
        <ele>293</ele>
        <time>2022-05-12T07:55:43.882Z</time>
      </trkpt>
      <trkpt lat="43.71909" lon="3.56005">
        <ele>293</ele>
        <time>2022-05-12T07:55:44.447Z</time>
      </trkpt>
      <trkpt lat="43.71906" lon="3.56007">
        <ele>293</ele>
        <time>2022-05-12T07:55:45.056Z</time>
      </trkpt>
      <trkpt lat="43.71903" lon="3.56008">
        <ele>293</ele>
        <time>2022-05-12T07:55:45.621Z</time>
      </trkpt>
      <trkpt lat="43.71901" lon="3.56009">
        <ele>293</ele>
        <time>2022-05-12T07:55:46.010Z</time>
      </trkpt>
      <trkpt lat="43.71898" lon="3.5601">
        <ele>293</ele>
        <time>2022-05-12T07:55:46.574Z</time>
      </trkpt>
      <trkpt lat="43.71896" lon="3.56011">
        <ele>293</ele>
        <time>2022-05-12T07:55:46.963Z</time>
      </trkpt>
      <trkpt lat="43.71893" lon="3.56012">
        <ele>293</ele>
        <time>2022-05-12T07:55:47.528Z</time>
      </trkpt>
      <trkpt lat="43.71891" lon="3.56012">
        <ele>293</ele>
        <time>2022-05-12T07:55:47.894Z</time>
      </trkpt>
      <trkpt lat="43.71889" lon="3.56013">
        <ele>293</ele>
        <time>2022-05-12T07:55:48.283Z</time>
      </trkpt>
      <trkpt lat="43.71886" lon="3.56013">
        <ele>293</ele>
        <time>2022-05-12T07:55:48.832Z</time>
      </trkpt>
      <trkpt lat="43.71883" lon="3.56013">
        <ele>293</ele>
        <time>2022-05-12T07:55:49.381Z</time>
      </trkpt>
      <trkpt lat="43.7188" lon="3.56012">
        <ele>293</ele>
        <time>2022-05-12T07:55:49.945Z</time>
      </trkpt>
      <trkpt lat="43.71877" lon="3.56012">
        <ele>293</ele>
        <time>2022-05-12T07:55:50.494Z</time>
      </trkpt>
      <trkpt lat="43.71874" lon="3.56011">
        <ele>293</ele>
        <time>2022-05-12T07:55:51.059Z</time>
      </trkpt>
      <trkpt lat="43.71871" lon="3.5601">
        <ele>293</ele>
        <time>2022-05-12T07:55:51.623Z</time>
      </trkpt>
      <trkpt lat="43.71868" lon="3.56009">
        <ele>293</ele>
        <time>2022-05-12T07:55:52.188Z</time>
      </trkpt>
      <trkpt lat="43.71865" lon="3.56009">
        <ele>293</ele>
        <time>2022-05-12T07:55:52.737Z</time>
      </trkpt>
      <trkpt lat="43.71863" lon="3.56009">
        <ele>293</ele>
        <time>2022-05-12T07:55:53.103Z</time>
      </trkpt>
      <trkpt lat="43.7186" lon="3.5601">
        <ele>293</ele>
        <time>2022-05-12T07:55:53.667Z</time>
      </trkpt>
      <trkpt lat="43.71857" lon="3.5601">
        <ele>293</ele>
        <time>2022-05-12T07:55:54.216Z</time>
      </trkpt>
      <trkpt lat="43.71855" lon="3.56011">
        <ele>293</ele>
        <time>2022-05-12T07:55:54.605Z</time>
      </trkpt>
      <trkpt lat="43.71853" lon="3.56013">
        <ele>293</ele>
        <time>2022-05-12T07:55:55.057Z</time>
      </trkpt>
      <trkpt lat="43.7185" lon="3.56014">
        <ele>293</ele>
        <time>2022-05-12T07:55:55.621Z</time>
      </trkpt>
      <trkpt lat="43.71848" lon="3.56016">
        <ele>293</ele>
        <time>2022-05-12T07:55:56.073Z</time>
      </trkpt>
      <trkpt lat="43.71845" lon="3.56017">
        <ele>293</ele>
        <time>2022-05-12T07:55:56.637Z</time>
      </trkpt>
      <trkpt lat="43.71843" lon="3.56018">
        <ele>293</ele>
        <time>2022-05-12T07:55:57.026Z</time>
      </trkpt>
      <trkpt lat="43.7184" lon="3.5602">
        <ele>293</ele>
        <time>2022-05-12T07:55:57.636Z</time>
      </trkpt>
      <trkpt lat="43.71838" lon="3.56021">
        <ele>293</ele>
        <time>2022-05-12T07:55:58.025Z</time>
      </trkpt>
      <trkpt lat="43.71835" lon="3.56022">
        <ele>293</ele>
        <time>2022-05-12T07:55:58.589Z</time>
      </trkpt>
      <trkpt lat="43.71832" lon="3.56022">
        <ele>293</ele>
        <time>2022-05-12T07:55:59.138Z</time>
      </trkpt>
      <trkpt lat="43.71829" lon="3.56022">
        <ele>294</ele>
        <time>2022-05-12T07:56:01.255Z</time>
      </trkpt>
      <trkpt lat="43.71826" lon="3.56021">
        <ele>294</ele>
        <time>2022-05-12T07:56:01.820Z</time>
      </trkpt>
      <trkpt lat="43.71823" lon="3.56019">
        <ele>294</ele>
        <time>2022-05-12T07:56:02.429Z</time>
      </trkpt>
      <trkpt lat="43.7182" lon="3.56017">
        <ele>294</ele>
        <time>2022-05-12T07:56:03.038Z</time>
      </trkpt>
      <trkpt lat="43.71817" lon="3.56014">
        <ele>294</ele>
        <time>2022-05-12T07:56:03.716Z</time>
      </trkpt>
      <trkpt lat="43.71814" lon="3.56012">
        <ele>294</ele>
        <time>2022-05-12T07:56:04.325Z</time>
      </trkpt>
      <trkpt lat="43.7181" lon="3.56011">
        <ele>294</ele>
        <time>2022-05-12T07:56:05.069Z</time>
      </trkpt>
      <trkpt lat="43.71807" lon="3.56009">
        <ele>294</ele>
        <time>2022-05-12T07:56:05.678Z</time>
      </trkpt>
      <trkpt lat="43.71803" lon="3.56009">
        <ele>294</ele>
        <time>2022-05-12T07:56:06.410Z</time>
      </trkpt>
      <trkpt lat="43.71799" lon="3.56009">
        <ele>294</ele>
        <time>2022-05-12T07:56:07.142Z</time>
      </trkpt>
      <trkpt lat="43.71796" lon="3.56009">
        <ele>294</ele>
        <time>2022-05-12T07:56:07.690Z</time>
      </trkpt>
      <trkpt lat="43.71792" lon="3.56008">
        <ele>294</ele>
        <time>2022-05-12T07:56:08.434Z</time>
      </trkpt>
      <trkpt lat="43.71788" lon="3.56008">
        <ele>294</ele>
        <time>2022-05-12T07:56:09.166Z</time>
      </trkpt>
      <trkpt lat="43.71785" lon="3.56007">
        <ele>294</ele>
        <time>2022-05-12T07:56:09.730Z</time>
      </trkpt>
      <trkpt lat="43.71782" lon="3.56007">
        <ele>294</ele>
        <time>2022-05-12T07:56:10.279Z</time>
      </trkpt>
      <trkpt lat="43.71778" lon="3.56007">
        <ele>294</ele>
        <time>2022-05-12T07:56:11.011Z</time>
      </trkpt>
      <trkpt lat="43.71775" lon="3.56008">
        <ele>294</ele>
        <time>2022-05-12T07:56:11.576Z</time>
      </trkpt>
      <trkpt lat="43.71771" lon="3.56008">
        <ele>294</ele>
        <time>2022-05-12T07:56:12.308Z</time>
      </trkpt>
      <trkpt lat="43.71768" lon="3.56008">
        <ele>294</ele>
        <time>2022-05-12T07:56:12.856Z</time>
      </trkpt>
      <trkpt lat="43.71765" lon="3.56008">
        <ele>294</ele>
        <time>2022-05-12T07:56:13.405Z</time>
      </trkpt>
      <trkpt lat="43.71761" lon="3.56008">
        <ele>295</ele>
        <time>2022-05-12T07:56:16.228Z</time>
      </trkpt>
      <trkpt lat="43.71758" lon="3.56007">
        <ele>295</ele>
        <time>2022-05-12T07:56:16.793Z</time>
      </trkpt>
      <trkpt lat="43.71755" lon="3.56006">
        <ele>295</ele>
        <time>2022-05-12T07:56:17.357Z</time>
      </trkpt>
      <trkpt lat="43.71752" lon="3.56006">
        <ele>295</ele>
        <time>2022-05-12T07:56:17.906Z</time>
      </trkpt>
      <trkpt lat="43.71748" lon="3.56006">
        <ele>295</ele>
        <time>2022-05-12T07:56:18.638Z</time>
      </trkpt>
      <trkpt lat="43.71745" lon="3.56006">
        <ele>295</ele>
        <time>2022-05-12T07:56:19.187Z</time>
      </trkpt>
      <trkpt lat="43.71741" lon="3.56007">
        <ele>295</ele>
        <time>2022-05-12T07:56:19.931Z</time>
      </trkpt>
      <trkpt lat="43.71737" lon="3.56007">
        <ele>295</ele>
        <time>2022-05-12T07:56:20.662Z</time>
      </trkpt>
      <trkpt lat="43.71733" lon="3.56008">
        <ele>295</ele>
        <time>2022-05-12T07:56:21.406Z</time>
      </trkpt>
      <trkpt lat="43.71729" lon="3.56009">
        <ele>295</ele>
        <time>2022-05-12T07:56:22.150Z</time>
      </trkpt>
      <trkpt lat="43.71725" lon="3.56009">
        <ele>295</ele>
        <time>2022-05-12T07:56:22.882Z</time>
      </trkpt>
      <trkpt lat="43.71722" lon="3.56009">
        <ele>295</ele>
        <time>2022-05-12T07:56:23.430Z</time>
      </trkpt>
      <trkpt lat="43.71718" lon="3.56009">
        <ele>295</ele>
        <time>2022-05-12T07:56:24.162Z</time>
      </trkpt>
      <trkpt lat="43.71715" lon="3.56008">
        <ele>295</ele>
        <time>2022-05-12T07:56:24.727Z</time>
      </trkpt>
      <trkpt lat="43.71712" lon="3.56008">
        <ele>295</ele>
        <time>2022-05-12T07:56:25.276Z</time>
      </trkpt>
      <trkpt lat="43.71708" lon="3.56007">
        <ele>295</ele>
        <time>2022-05-12T07:56:26.019Z</time>
      </trkpt>
      <trkpt lat="43.71705" lon="3.56006">
        <ele>295</ele>
        <time>2022-05-12T07:56:26.584Z</time>
      </trkpt>
      <trkpt lat="43.71702" lon="3.56006">
        <ele>295</ele>
        <time>2022-05-12T07:56:27.133Z</time>
      </trkpt>
      <trkpt lat="43.71699" lon="3.56007">
        <ele>295</ele>
        <time>2022-05-12T07:56:27.697Z</time>
      </trkpt>
      <trkpt lat="43.71697" lon="3.56008">
        <ele>295</ele>
        <time>2022-05-12T07:56:28.087Z</time>
      </trkpt>
      <trkpt lat="43.71695" lon="3.56009">
        <ele>296</ele>
        <time>2022-05-12T07:56:29.587Z</time>
      </trkpt>
      <trkpt lat="43.71694" lon="3.56012">
        <ele>296</ele>
        <time>2022-05-12T07:56:30.024Z</time>
      </trkpt>
      <trkpt lat="43.71694" lon="3.56015">
        <ele>296</ele>
        <time>2022-05-12T07:56:30.421Z</time>
      </trkpt>
      <trkpt lat="43.71694" lon="3.56018">
        <ele>296</ele>
        <time>2022-05-12T07:56:30.818Z</time>
      </trkpt>
      <trkpt lat="43.71695" lon="3.56021">
        <ele>296</ele>
        <time>2022-05-12T07:56:31.254Z</time>
      </trkpt>
      <trkpt lat="43.71696" lon="3.56024">
        <ele>296</ele>
        <time>2022-05-12T07:56:31.691Z</time>
      </trkpt>
      <trkpt lat="43.71697" lon="3.56027">
        <ele>296</ele>
        <time>2022-05-12T07:56:32.128Z</time>
      </trkpt>
      <trkpt lat="43.71698" lon="3.5603">
        <ele>296</ele>
        <time>2022-05-12T07:56:32.565Z</time>
      </trkpt>
      <trkpt lat="43.71698" lon="3.56034">
        <ele>296</ele>
        <time>2022-05-12T07:56:33.094Z</time>
      </trkpt>
      <trkpt lat="43.71699" lon="3.56037">
        <ele>296</ele>
        <time>2022-05-12T07:56:33.531Z</time>
      </trkpt>
      <trkpt lat="43.717" lon="3.5604">
        <ele>297</ele>
        <time>2022-05-12T07:56:35.216Z</time>
      </trkpt>
      <trkpt lat="43.717" lon="3.56044">
        <ele>297</ele>
        <time>2022-05-12T07:56:35.745Z</time>
      </trkpt>
      <trkpt lat="43.71701" lon="3.56048">
        <ele>297</ele>
        <time>2022-05-12T07:56:36.304Z</time>
      </trkpt>
      <trkpt lat="43.71701" lon="3.56052">
        <ele>297</ele>
        <time>2022-05-12T07:56:36.833Z</time>
      </trkpt>
      <trkpt lat="43.71702" lon="3.56057">
        <ele>297</ele>
        <time>2022-05-12T07:56:37.519Z</time>
      </trkpt>
      <trkpt lat="43.71702" lon="3.56062">
        <ele>297</ele>
        <time>2022-05-12T07:56:38.181Z</time>
      </trkpt>
      <trkpt lat="43.71702" lon="3.56066">
        <ele>297</ele>
        <time>2022-05-12T07:56:38.710Z</time>
      </trkpt>
      <trkpt lat="43.71702" lon="3.56071">
        <ele>297</ele>
        <time>2022-05-12T07:56:39.371Z</time>
      </trkpt>
      <trkpt lat="43.71703" lon="3.56075">
        <ele>297</ele>
        <time>2022-05-12T07:56:39.930Z</time>
      </trkpt>
      <trkpt lat="43.71703" lon="3.5608">
        <ele>297</ele>
        <time>2022-05-12T07:56:40.592Z</time>
      </trkpt>
      <trkpt lat="43.71704" lon="3.56085">
        <ele>297</ele>
        <time>2022-05-12T07:56:41.278Z</time>
      </trkpt>
      <trkpt lat="43.71704" lon="3.56089">
        <ele>297</ele>
        <time>2022-05-12T07:56:41.807Z</time>
      </trkpt>
      <trkpt lat="43.71705" lon="3.56094">
        <ele>297</ele>
        <time>2022-05-12T07:56:42.493Z</time>
      </trkpt>
      <trkpt lat="43.71705" lon="3.56098">
        <ele>297</ele>
        <time>2022-05-12T07:56:43.022Z</time>
      </trkpt>
      <trkpt lat="43.71706" lon="3.56103">
        <ele>297</ele>
        <time>2022-05-12T07:56:43.708Z</time>
      </trkpt>
      <trkpt lat="43.71707" lon="3.56107">
        <ele>297</ele>
        <time>2022-05-12T07:56:44.267Z</time>
      </trkpt>
      <trkpt lat="43.71707" lon="3.56112">
        <ele>297</ele>
        <time>2022-05-12T07:56:44.928Z</time>
      </trkpt>
      <trkpt lat="43.71708" lon="3.56117">
        <ele>297</ele>
        <time>2022-05-12T07:56:45.614Z</time>
      </trkpt>
      <trkpt lat="43.71708" lon="3.56122">
        <ele>297</ele>
        <time>2022-05-12T07:56:46.276Z</time>
      </trkpt>
      <trkpt lat="43.71709" lon="3.56127">
        <ele>297</ele>
        <time>2022-05-12T07:56:46.962Z</time>
      </trkpt>
      <trkpt lat="43.71709" lon="3.56132">
        <ele>297</ele>
        <time>2022-05-12T07:56:47.623Z</time>
      </trkpt>
      <trkpt lat="43.71709" lon="3.56137">
        <ele>297</ele>
        <time>2022-05-12T07:56:48.284Z</time>
      </trkpt>
      <trkpt lat="43.71709" lon="3.56142">
        <ele>297</ele>
        <time>2022-05-12T07:56:48.945Z</time>
      </trkpt>
      <trkpt lat="43.71709" lon="3.56146">
        <ele>297</ele>
        <time>2022-05-12T07:56:49.474Z</time>
      </trkpt>
      <trkpt lat="43.71709" lon="3.5615">
        <ele>297</ele>
        <time>2022-05-12T07:56:50.003Z</time>
      </trkpt>
      <trkpt lat="43.71709" lon="3.56154">
        <ele>297</ele>
        <time>2022-05-12T07:56:50.532Z</time>
      </trkpt>
      <trkpt lat="43.71709" lon="3.56158">
        <ele>297</ele>
        <time>2022-05-12T07:56:51.061Z</time>
      </trkpt>
      <trkpt lat="43.7171" lon="3.56162">
        <ele>297</ele>
        <time>2022-05-12T07:56:51.621Z</time>
      </trkpt>
      <trkpt lat="43.7171" lon="3.56165">
        <ele>297</ele>
        <time>2022-05-12T07:56:52.017Z</time>
      </trkpt>
      <trkpt lat="43.71711" lon="3.56169">
        <ele>297</ele>
        <time>2022-05-12T07:56:52.577Z</time>
      </trkpt>
      <trkpt lat="43.71712" lon="3.56172">
        <ele>298</ele>
        <time>2022-05-12T07:56:54.262Z</time>
      </trkpt>
      <trkpt lat="43.71714" lon="3.56175">
        <ele>298</ele>
        <time>2022-05-12T07:56:54.802Z</time>
      </trkpt>
      <trkpt lat="43.71715" lon="3.56178">
        <ele>298</ele>
        <time>2022-05-12T07:56:55.239Z</time>
      </trkpt>
      <trkpt lat="43.71717" lon="3.56181">
        <ele>298</ele>
        <time>2022-05-12T07:56:55.778Z</time>
      </trkpt>
      <trkpt lat="43.71718" lon="3.56184">
        <ele>298</ele>
        <time>2022-05-12T07:56:56.215Z</time>
      </trkpt>
      <trkpt lat="43.71719" lon="3.56187">
        <ele>298</ele>
        <time>2022-05-12T07:56:56.652Z</time>
      </trkpt>
      <trkpt lat="43.71721" lon="3.5619">
        <ele>298</ele>
        <time>2022-05-12T07:56:57.192Z</time>
      </trkpt>
      <trkpt lat="43.71722" lon="3.56194">
        <ele>298</ele>
        <time>2022-05-12T07:56:57.751Z</time>
      </trkpt>
      <trkpt lat="43.71723" lon="3.56197">
        <ele>298</ele>
        <time>2022-05-12T07:56:58.188Z</time>
      </trkpt>
      <trkpt lat="43.71724" lon="3.56201">
        <ele>298</ele>
        <time>2022-05-12T07:56:58.748Z</time>
      </trkpt>
      <trkpt lat="43.71725" lon="3.56205">
        <ele>298</ele>
        <time>2022-05-12T07:56:59.308Z</time>
      </trkpt>
      <trkpt lat="43.71725" lon="3.56208">
        <ele>298</ele>
        <time>2022-05-12T07:56:59.704Z</time>
      </trkpt>
      <trkpt lat="43.71726" lon="3.56212">
        <ele>298</ele>
        <time>2022-05-12T07:57:00.264Z</time>
      </trkpt>
      <trkpt lat="43.71727" lon="3.56216">
        <ele>298</ele>
        <time>2022-05-12T07:57:00.824Z</time>
      </trkpt>
      <trkpt lat="43.71727" lon="3.5622">
        <ele>298</ele>
        <time>2022-05-12T07:57:01.353Z</time>
      </trkpt>
      <trkpt lat="43.71728" lon="3.56223">
        <ele>298</ele>
        <time>2022-05-12T07:57:01.790Z</time>
      </trkpt>
      <trkpt lat="43.71729" lon="3.56227">
        <ele>298</ele>
        <time>2022-05-12T07:57:02.349Z</time>
      </trkpt>
      <trkpt lat="43.7173" lon="3.5623">
        <ele>298</ele>
        <time>2022-05-12T07:57:02.786Z</time>
      </trkpt>
      <trkpt lat="43.7173" lon="3.56234">
        <ele>298</ele>
        <time>2022-05-12T07:57:03.315Z</time>
      </trkpt>
      <trkpt lat="43.71731" lon="3.56238">
        <ele>298</ele>
        <time>2022-05-12T07:57:03.875Z</time>
      </trkpt>
      <trkpt lat="43.7173" lon="3.56242">
        <ele>299</ele>
        <time>2022-05-12T07:57:06.033Z</time>
      </trkpt>
      <trkpt lat="43.7173" lon="3.56246">
        <ele>299</ele>
        <time>2022-05-12T07:57:06.562Z</time>
      </trkpt>
      <trkpt lat="43.71729" lon="3.5625">
        <ele>299</ele>
        <time>2022-05-12T07:57:07.122Z</time>
      </trkpt>
      <trkpt lat="43.71728" lon="3.56255">
        <ele>299</ele>
        <time>2022-05-12T07:57:07.808Z</time>
      </trkpt>
      <trkpt lat="43.71727" lon="3.56259">
        <ele>299</ele>
        <time>2022-05-12T07:57:08.368Z</time>
      </trkpt>
      <trkpt lat="43.71725" lon="3.56262">
        <ele>299</ele>
        <time>2022-05-12T07:57:08.908Z</time>
      </trkpt>
      <trkpt lat="43.71723" lon="3.56266">
        <ele>299</ele>
        <time>2022-05-12T07:57:09.551Z</time>
      </trkpt>
      <trkpt lat="43.71721" lon="3.5627">
        <ele>299</ele>
        <time>2022-05-12T07:57:10.194Z</time>
      </trkpt>
      <trkpt lat="43.7172" lon="3.56274">
        <ele>299</ele>
        <time>2022-05-12T07:57:10.754Z</time>
      </trkpt>
      <trkpt lat="43.71719" lon="3.56278">
        <ele>299</ele>
        <time>2022-05-12T07:57:11.313Z</time>
      </trkpt>
      <trkpt lat="43.71717" lon="3.56282">
        <ele>298</ele>
        <time>2022-05-12T07:57:11.626Z</time>
      </trkpt>
      <trkpt lat="43.71716" lon="3.56286">
        <ele>298</ele>
        <time>2022-05-12T07:57:12.186Z</time>
      </trkpt>
      <trkpt lat="43.71716" lon="3.5629">
        <ele>298</ele>
        <time>2022-05-12T07:57:12.715Z</time>
      </trkpt>
      <trkpt lat="43.71715" lon="3.56295">
        <ele>298</ele>
        <time>2022-05-12T07:57:13.401Z</time>
      </trkpt>
      <trkpt lat="43.71715" lon="3.56299">
        <ele>298</ele>
        <time>2022-05-12T07:57:13.930Z</time>
      </trkpt>
      <trkpt lat="43.71716" lon="3.56304">
        <ele>298</ele>
        <time>2022-05-12T07:57:14.616Z</time>
      </trkpt>
      <trkpt lat="43.71717" lon="3.56308">
        <ele>298</ele>
        <time>2022-05-12T07:57:15.175Z</time>
      </trkpt>
      <trkpt lat="43.71718" lon="3.56312">
        <ele>298</ele>
        <time>2022-05-12T07:57:15.735Z</time>
      </trkpt>
      <trkpt lat="43.7172" lon="3.56316">
        <ele>298</ele>
        <time>2022-05-12T07:57:16.378Z</time>
      </trkpt>
      <trkpt lat="43.71722" lon="3.5632">
        <ele>298</ele>
        <time>2022-05-12T07:57:17.022Z</time>
      </trkpt>
      <trkpt lat="43.71725" lon="3.56325">
        <ele>298</ele>
        <time>2022-05-12T07:57:17.881Z</time>
      </trkpt>
      <trkpt lat="43.71727" lon="3.56329">
        <ele>298</ele>
        <time>2022-05-12T07:57:18.524Z</time>
      </trkpt>
      <trkpt lat="43.71729" lon="3.56334">
        <ele>298</ele>
        <time>2022-05-12T07:57:19.280Z</time>
      </trkpt>
      <trkpt lat="43.71731" lon="3.56338">
        <ele>298</ele>
        <time>2022-05-12T07:57:19.923Z</time>
      </trkpt>
      <trkpt lat="43.71732" lon="3.56343">
        <ele>298</ele>
        <time>2022-05-12T07:57:20.609Z</time>
      </trkpt>
      <trkpt lat="43.71734" lon="3.56348">
        <ele>298</ele>
        <time>2022-05-12T07:57:21.365Z</time>
      </trkpt>
      <trkpt lat="43.71735" lon="3.56354">
        <ele>298</ele>
        <time>2022-05-12T07:57:22.179Z</time>
      </trkpt>
      <trkpt lat="43.71736" lon="3.56359">
        <ele>298</ele>
        <time>2022-05-12T07:57:22.865Z</time>
      </trkpt>
      <trkpt lat="43.71737" lon="3.56365">
        <ele>298</ele>
        <time>2022-05-12T07:57:23.679Z</time>
      </trkpt>
      <trkpt lat="43.71738" lon="3.5637">
        <ele>298</ele>
        <time>2022-05-12T07:57:24.365Z</time>
      </trkpt>
      <trkpt lat="43.71739" lon="3.56376">
        <ele>298</ele>
        <time>2022-05-12T07:57:25.179Z</time>
      </trkpt>
      <trkpt lat="43.71739" lon="3.56381">
        <ele>298</ele>
        <time>2022-05-12T07:57:25.840Z</time>
      </trkpt>
      <trkpt lat="43.7174" lon="3.56387">
        <ele>298</ele>
        <time>2022-05-12T07:57:26.655Z</time>
      </trkpt>
      <trkpt lat="43.7174" lon="3.56392">
        <ele>298</ele>
        <time>2022-05-12T07:57:27.316Z</time>
      </trkpt>
      <trkpt lat="43.7174" lon="3.56398">
        <ele>298</ele>
        <time>2022-05-12T07:57:28.109Z</time>
      </trkpt>
      <trkpt lat="43.7174" lon="3.56403">
        <ele>298</ele>
        <time>2022-05-12T07:57:28.770Z</time>
      </trkpt>
      <trkpt lat="43.7174" lon="3.56409">
        <ele>298</ele>
        <time>2022-05-12T07:57:29.564Z</time>
      </trkpt>
      <trkpt lat="43.7174" lon="3.56414">
        <ele>298</ele>
        <time>2022-05-12T07:57:30.225Z</time>
      </trkpt>
      <trkpt lat="43.71739" lon="3.56419">
        <ele>298</ele>
        <time>2022-05-12T07:57:30.911Z</time>
      </trkpt>
      <trkpt lat="43.71738" lon="3.56424">
        <ele>298</ele>
        <time>2022-05-12T07:57:31.597Z</time>
      </trkpt>
      <trkpt lat="43.71737" lon="3.56428">
        <ele>298</ele>
        <time>2022-05-12T07:57:32.157Z</time>
      </trkpt>
      <trkpt lat="43.71736" lon="3.56434">
        <ele>298</ele>
        <time>2022-05-12T07:57:32.971Z</time>
      </trkpt>
      <trkpt lat="43.71735" lon="3.5644">
        <ele>298</ele>
        <time>2022-05-12T07:57:33.785Z</time>
      </trkpt>
      <trkpt lat="43.71734" lon="3.56446">
        <ele>298</ele>
        <time>2022-05-12T07:57:34.599Z</time>
      </trkpt>
      <trkpt lat="43.71734" lon="3.56452">
        <ele>298</ele>
        <time>2022-05-12T07:57:35.393Z</time>
      </trkpt>
      <trkpt lat="43.71734" lon="3.56458">
        <ele>298</ele>
        <time>2022-05-12T07:57:36.186Z</time>
      </trkpt>
      <trkpt lat="43.71734" lon="3.56464">
        <ele>298</ele>
        <time>2022-05-12T07:57:36.980Z</time>
      </trkpt>
      <trkpt lat="43.71734" lon="3.56469">
        <ele>298</ele>
        <time>2022-05-12T07:57:37.641Z</time>
      </trkpt>
      <trkpt lat="43.71734" lon="3.56475">
        <ele>298</ele>
        <time>2022-05-12T07:57:38.434Z</time>
      </trkpt>
      <trkpt lat="43.71734" lon="3.56481">
        <ele>298</ele>
        <time>2022-05-12T07:57:39.228Z</time>
      </trkpt>
      <trkpt lat="43.71734" lon="3.56487">
        <ele>295</ele>
        <time>2022-05-12T07:57:39.614Z</time>
      </trkpt>
      <trkpt lat="43.71734" lon="3.56493">
        <ele>295</ele>
        <time>2022-05-12T07:57:40.407Z</time>
      </trkpt>
      <trkpt lat="43.71733" lon="3.565">
        <ele>295</ele>
        <time>2022-05-12T07:57:41.351Z</time>
      </trkpt>
      <trkpt lat="43.71733" lon="3.56508">
        <ele>295</ele>
        <time>2022-05-12T07:57:42.409Z</time>
      </trkpt>
      <trkpt lat="43.71734" lon="3.56515">
        <ele>295</ele>
        <time>2022-05-12T07:57:43.352Z</time>
      </trkpt>
      <trkpt lat="43.71735" lon="3.56523">
        <ele>295</ele>
        <time>2022-05-12T07:57:44.426Z</time>
      </trkpt>
      <trkpt lat="43.71736" lon="3.5653">
        <ele>295</ele>
        <time>2022-05-12T07:57:45.369Z</time>
      </trkpt>
      <trkpt lat="43.71738" lon="3.56537">
        <ele>295</ele>
        <time>2022-05-12T07:57:46.365Z</time>
      </trkpt>
      <trkpt lat="43.7174" lon="3.56544">
        <ele>295</ele>
        <time>2022-05-12T07:57:47.360Z</time>
      </trkpt>
      <trkpt lat="43.71743" lon="3.5655">
        <ele>295</ele>
        <time>2022-05-12T07:57:48.325Z</time>
      </trkpt>
      <trkpt lat="43.71746" lon="3.56555">
        <ele>293</ele>
        <time>2022-05-12T07:57:48.743Z</time>
      </trkpt>
      <trkpt lat="43.7175" lon="3.56561">
        <ele>293</ele>
        <time>2022-05-12T07:57:49.822Z</time>
      </trkpt>
      <trkpt lat="43.71753" lon="3.56565">
        <ele>293</ele>
        <time>2022-05-12T07:57:50.584Z</time>
      </trkpt>
      <trkpt lat="43.71756" lon="3.5657">
        <ele>293</ele>
        <time>2022-05-12T07:57:51.444Z</time>
      </trkpt>
      <trkpt lat="43.71759" lon="3.56575">
        <ele>293</ele>
        <time>2022-05-12T07:57:52.303Z</time>
      </trkpt>
      <trkpt lat="43.71762" lon="3.56579">
        <ele>293</ele>
        <time>2022-05-12T07:57:53.065Z</time>
      </trkpt>
      <trkpt lat="43.71765" lon="3.56583">
        <ele>293</ele>
        <time>2022-05-12T07:57:53.828Z</time>
      </trkpt>
      <trkpt lat="43.71768" lon="3.56586">
        <ele>293</ele>
        <time>2022-05-12T07:57:54.505Z</time>
      </trkpt>
      <trkpt lat="43.71771" lon="3.56589">
        <ele>293</ele>
        <time>2022-05-12T07:57:55.182Z</time>
      </trkpt>
      <trkpt lat="43.71774" lon="3.56591">
        <ele>293</ele>
        <time>2022-05-12T07:57:55.791Z</time>
      </trkpt>
      <trkpt lat="43.71777" lon="3.56593">
        <ele>294</ele>
        <time>2022-05-12T07:57:58.141Z</time>
      </trkpt>
      <trkpt lat="43.7178" lon="3.56593">
        <ele>294</ele>
        <time>2022-05-12T07:57:58.690Z</time>
      </trkpt>
      <trkpt lat="43.71784" lon="3.56594">
        <ele>294</ele>
        <time>2022-05-12T07:57:59.434Z</time>
      </trkpt>
      <trkpt lat="43.71787" lon="3.56594">
        <ele>294</ele>
        <time>2022-05-12T07:57:59.983Z</time>
      </trkpt>
      <trkpt lat="43.71791" lon="3.56595">
        <ele>294</ele>
        <time>2022-05-12T07:58:00.726Z</time>
      </trkpt>
      <trkpt lat="43.71795" lon="3.56595">
        <ele>294</ele>
        <time>2022-05-12T07:58:01.458Z</time>
      </trkpt>
      <trkpt lat="43.71799" lon="3.56595">
        <ele>294</ele>
        <time>2022-05-12T07:58:02.190Z</time>
      </trkpt>
      <trkpt lat="43.71802" lon="3.56596">
        <ele>294</ele>
        <time>2022-05-12T07:58:02.755Z</time>
      </trkpt>
      <trkpt lat="43.71806" lon="3.56596">
        <ele>294</ele>
        <time>2022-05-12T07:58:03.486Z</time>
      </trkpt>
      <trkpt lat="43.7181" lon="3.56596">
        <ele>294</ele>
        <time>2022-05-12T07:58:04.218Z</time>
      </trkpt>
      <trkpt lat="43.71814" lon="3.56596">
        <ele>294</ele>
        <time>2022-05-12T07:58:04.950Z</time>
      </trkpt>
      <trkpt lat="43.71818" lon="3.56596">
        <ele>294</ele>
        <time>2022-05-12T07:58:05.682Z</time>
      </trkpt>
      <trkpt lat="43.71822" lon="3.56596">
        <ele>294</ele>
        <time>2022-05-12T07:58:06.414Z</time>
      </trkpt>
      <trkpt lat="43.71825" lon="3.56596">
        <ele>294</ele>
        <time>2022-05-12T07:58:06.963Z</time>
      </trkpt>
      <trkpt lat="43.71829" lon="3.56596">
        <ele>294</ele>
        <time>2022-05-12T07:58:07.695Z</time>
      </trkpt>
      <trkpt lat="43.71833" lon="3.56596">
        <ele>294</ele>
        <time>2022-05-12T07:58:08.426Z</time>
      </trkpt>
      <trkpt lat="43.71837" lon="3.56595">
        <ele>294</ele>
        <time>2022-05-12T07:58:09.170Z</time>
      </trkpt>
      <trkpt lat="43.7184" lon="3.56594">
        <ele>294</ele>
        <time>2022-05-12T07:58:09.735Z</time>
      </trkpt>
      <trkpt lat="43.71844" lon="3.56594">
        <ele>294</ele>
        <time>2022-05-12T07:58:10.466Z</time>
      </trkpt>
      <trkpt lat="43.71847" lon="3.56593">
        <ele>294</ele>
        <time>2022-05-12T07:58:11.031Z</time>
      </trkpt>
      <trkpt lat="43.71851" lon="3.56592">
        <ele>294</ele>
        <time>2022-05-12T07:58:11.775Z</time>
      </trkpt>
      <trkpt lat="43.71855" lon="3.56592">
        <ele>294</ele>
        <time>2022-05-12T07:58:12.507Z</time>
      </trkpt>
      <trkpt lat="43.71858" lon="3.56591">
        <ele>294</ele>
        <time>2022-05-12T07:58:13.071Z</time>
      </trkpt>
      <trkpt lat="43.71862" lon="3.56591">
        <ele>294</ele>
        <time>2022-05-12T07:58:13.803Z</time>
      </trkpt>
      <trkpt lat="43.71866" lon="3.56591">
        <ele>294</ele>
        <time>2022-05-12T07:58:14.535Z</time>
      </trkpt>
      <trkpt lat="43.7187" lon="3.56592">
        <ele>294</ele>
        <time>2022-05-12T07:58:15.278Z</time>
      </trkpt>
      <trkpt lat="43.71873" lon="3.56594">
        <ele>294</ele>
        <time>2022-05-12T07:58:15.888Z</time>
      </trkpt>
      <trkpt lat="43.71877" lon="3.56597">
        <ele>294</ele>
        <time>2022-05-12T07:58:16.720Z</time>
      </trkpt>
      <trkpt lat="43.7188" lon="3.566">
        <ele>294</ele>
        <time>2022-05-12T07:58:17.397Z</time>
      </trkpt>
      <trkpt lat="43.71883" lon="3.56604">
        <ele>294</ele>
        <time>2022-05-12T07:58:18.160Z</time>
      </trkpt>
      <trkpt lat="43.71887" lon="3.56607">
        <ele>294</ele>
        <time>2022-05-12T07:58:18.992Z</time>
      </trkpt>
      <trkpt lat="43.7189" lon="3.56611">
        <ele>294</ele>
        <time>2022-05-12T07:58:19.754Z</time>
      </trkpt>
      <trkpt lat="43.71893" lon="3.56614">
        <ele>294</ele>
        <time>2022-05-12T07:58:20.432Z</time>
      </trkpt>
      <trkpt lat="43.71896" lon="3.56618">
        <ele>294</ele>
        <time>2022-05-12T07:58:21.194Z</time>
      </trkpt>
      <trkpt lat="43.71899" lon="3.56623">
        <ele>294</ele>
        <time>2022-05-12T07:58:22.053Z</time>
      </trkpt>
      <trkpt lat="43.71901" lon="3.56628">
        <ele>294</ele>
        <time>2022-05-12T07:58:22.809Z</time>
      </trkpt>
      <trkpt lat="43.71904" lon="3.56632">
        <ele>294</ele>
        <time>2022-05-12T07:58:23.571Z</time>
      </trkpt>
      <trkpt lat="43.71907" lon="3.56637">
        <ele>294</ele>
        <time>2022-05-12T07:58:24.430Z</time>
      </trkpt>
      <trkpt lat="43.71911" lon="3.5664">
        <ele>294</ele>
        <time>2022-05-12T07:58:25.263Z</time>
      </trkpt>
      <trkpt lat="43.71915" lon="3.56643">
        <ele>294</ele>
        <time>2022-05-12T07:58:26.095Z</time>
      </trkpt>
      <trkpt lat="43.7192" lon="3.56646">
        <ele>293</ele>
        <time>2022-05-12T07:58:26.580Z</time>
      </trkpt>
      <trkpt lat="43.71924" lon="3.56648">
        <ele>293</ele>
        <time>2022-05-12T07:58:27.359Z</time>
      </trkpt>
      <trkpt lat="43.71929" lon="3.5665">
        <ele>293</ele>
        <time>2022-05-12T07:58:28.311Z</time>
      </trkpt>
      <trkpt lat="43.71934" lon="3.56653">
        <ele>293</ele>
        <time>2022-05-12T07:58:29.308Z</time>
      </trkpt>
      <trkpt lat="43.71938" lon="3.56657">
        <ele>293</ele>
        <time>2022-05-12T07:58:30.211Z</time>
      </trkpt>
      <trkpt lat="43.71941" lon="3.56663">
        <ele>293</ele>
        <time>2022-05-12T07:58:31.176Z</time>
      </trkpt>
      <trkpt lat="43.71944" lon="3.56669">
        <ele>293</ele>
        <time>2022-05-12T07:58:32.140Z</time>
      </trkpt>
      <trkpt lat="43.71947" lon="3.56674">
        <ele>293</ele>
        <time>2022-05-12T07:58:33.000Z</time>
      </trkpt>
      <trkpt lat="43.71949" lon="3.5668">
        <ele>293</ele>
        <time>2022-05-12T07:58:33.873Z</time>
      </trkpt>
      <trkpt lat="43.71953" lon="3.56686">
        <ele>293</ele>
        <time>2022-05-12T07:58:34.953Z</time>
      </trkpt>
      <trkpt lat="43.71956" lon="3.56692">
        <ele>292</ele>
        <time>2022-05-12T07:58:35.422Z</time>
      </trkpt>
      <trkpt lat="43.71958" lon="3.56698">
        <ele>292</ele>
        <time>2022-05-12T07:58:36.296Z</time>
      </trkpt>
      <trkpt lat="43.71961" lon="3.56704">
        <ele>292</ele>
        <time>2022-05-12T07:58:37.261Z</time>
      </trkpt>
      <trkpt lat="43.71963" lon="3.5671">
        <ele>292</ele>
        <time>2022-05-12T07:58:38.134Z</time>
      </trkpt>
      <trkpt lat="43.71966" lon="3.56715">
        <ele>292</ele>
        <time>2022-05-12T07:58:38.993Z</time>
      </trkpt>
      <trkpt lat="43.71969" lon="3.56721">
        <ele>292</ele>
        <time>2022-05-12T07:58:39.958Z</time>
      </trkpt>
      <trkpt lat="43.71972" lon="3.56727">
        <ele>292</ele>
        <time>2022-05-12T07:58:40.923Z</time>
      </trkpt>
      <trkpt lat="43.71975" lon="3.56734">
        <ele>292</ele>
        <time>2022-05-12T07:58:41.999Z</time>
      </trkpt>
      <trkpt lat="43.71976" lon="3.56741">
        <ele>292</ele>
        <time>2022-05-12T07:58:42.943Z</time>
      </trkpt>
      <trkpt lat="43.71977" lon="3.56748">
        <ele>292</ele>
        <time>2022-05-12T07:58:43.886Z</time>
      </trkpt>
      <trkpt lat="43.71979" lon="3.56756">
        <ele>290</ele>
        <time>2022-05-12T07:58:44.431Z</time>
      </trkpt>
      <trkpt lat="43.71981" lon="3.56763">
        <ele>290</ele>
        <time>2022-05-12T07:58:45.426Z</time>
      </trkpt>
      <trkpt lat="43.71985" lon="3.5677">
        <ele>290</ele>
        <time>2022-05-12T07:58:46.606Z</time>
      </trkpt>
      <trkpt lat="43.71989" lon="3.56776">
        <ele>290</ele>
        <time>2022-05-12T07:58:47.685Z</time>
      </trkpt>
      <trkpt lat="43.71993" lon="3.56783">
        <ele>290</ele>
        <time>2022-05-12T07:58:48.865Z</time>
      </trkpt>
      <trkpt lat="43.71995" lon="3.56791">
        <ele>290</ele>
        <time>2022-05-12T07:58:49.985Z</time>
      </trkpt>
      <trkpt lat="43.71997" lon="3.568">
        <ele>290</ele>
        <time>2022-05-12T07:58:51.230Z</time>
      </trkpt>
      <trkpt lat="43.71999" lon="3.56808">
        <ele>290</ele>
        <time>2022-05-12T07:58:52.349Z</time>
      </trkpt>
      <trkpt lat="43.72002" lon="3.56816">
        <ele>290</ele>
        <time>2022-05-12T07:58:53.541Z</time>
      </trkpt>
      <trkpt lat="43.72006" lon="3.56824">
        <ele>290</ele>
        <time>2022-05-12T07:58:54.827Z</time>
      </trkpt>
      <trkpt lat="43.7201" lon="3.56831">
        <ele>287</ele>
        <time>2022-05-12T07:58:55.401Z</time>
      </trkpt>
      <trkpt lat="43.72013" lon="3.56838">
        <ele>287</ele>
        <time>2022-05-12T07:58:56.477Z</time>
      </trkpt>
      <trkpt lat="43.72016" lon="3.56847">
        <ele>287</ele>
        <time>2022-05-12T07:58:57.788Z</time>
      </trkpt>
      <trkpt lat="43.72018" lon="3.56855">
        <ele>287</ele>
        <time>2022-05-12T07:58:58.907Z</time>
      </trkpt>
      <trkpt lat="43.7202" lon="3.56864">
        <ele>287</ele>
        <time>2022-05-12T07:59:00.152Z</time>
      </trkpt>
      <trkpt lat="43.7202" lon="3.56874">
        <ele>287</ele>
        <time>2022-05-12T07:59:01.475Z</time>
      </trkpt>
      <trkpt lat="43.72019" lon="3.56884">
        <ele>287</ele>
        <time>2022-05-12T07:59:02.809Z</time>
      </trkpt>
      <trkpt lat="43.72015" lon="3.56892">
        <ele>287</ele>
        <time>2022-05-12T07:59:04.096Z</time>
      </trkpt>
      <trkpt lat="43.72011" lon="3.56899">
        <ele>287</ele>
        <time>2022-05-12T07:59:05.276Z</time>
      </trkpt>
      <trkpt lat="43.72007" lon="3.56906">
        <ele>287</ele>
        <time>2022-05-12T07:59:06.456Z</time>
      </trkpt>
      <trkpt lat="43.72003" lon="3.56913">
        <ele>285</ele>
        <time>2022-05-12T07:59:07.030Z</time>
      </trkpt>
      <trkpt lat="43.72" lon="3.5692">
        <ele>285</ele>
        <time>2022-05-12T07:59:08.106Z</time>
      </trkpt>
      <trkpt lat="43.71998" lon="3.56928">
        <ele>285</ele>
        <time>2022-05-12T07:59:09.225Z</time>
      </trkpt>
      <trkpt lat="43.71996" lon="3.56935">
        <ele>285</ele>
        <time>2022-05-12T07:59:10.221Z</time>
      </trkpt>
      <trkpt lat="43.71995" lon="3.56943">
        <ele>285</ele>
        <time>2022-05-12T07:59:11.294Z</time>
      </trkpt>
      <trkpt lat="43.71995" lon="3.56951">
        <ele>285</ele>
        <time>2022-05-12T07:59:12.352Z</time>
      </trkpt>
      <trkpt lat="43.71994" lon="3.56959">
        <ele>285</ele>
        <time>2022-05-12T07:59:13.425Z</time>
      </trkpt>
      <trkpt lat="43.71994" lon="3.56968">
        <ele>285</ele>
        <time>2022-05-12T07:59:14.616Z</time>
      </trkpt>
      <trkpt lat="43.71993" lon="3.56976">
        <ele>285</ele>
        <time>2022-05-12T07:59:15.689Z</time>
      </trkpt>
      <trkpt lat="43.71991" lon="3.56984">
        <ele>285</ele>
        <time>2022-05-12T07:59:16.808Z</time>
      </trkpt>
      <trkpt lat="43.7199" lon="3.56993">
        <ele>283</ele>
        <time>2022-05-12T07:59:17.394Z</time>
      </trkpt>
      <trkpt lat="43.71989" lon="3.57001">
        <ele>283</ele>
        <time>2022-05-12T07:59:18.468Z</time>
      </trkpt>
      <trkpt lat="43.71988" lon="3.5701">
        <ele>283</ele>
        <time>2022-05-12T07:59:19.672Z</time>
      </trkpt>
      <trkpt lat="43.71987" lon="3.57018">
        <ele>283</ele>
        <time>2022-05-12T07:59:20.745Z</time>
      </trkpt>
      <trkpt lat="43.71986" lon="3.57027">
        <ele>283</ele>
        <time>2022-05-12T07:59:21.949Z</time>
      </trkpt>
      <trkpt lat="43.71984" lon="3.57035">
        <ele>283</ele>
        <time>2022-05-12T07:59:23.069Z</time>
      </trkpt>
      <trkpt lat="43.71981" lon="3.57043">
        <ele>283</ele>
        <time>2022-05-12T07:59:24.261Z</time>
      </trkpt>
      <trkpt lat="43.71979" lon="3.5705">
        <ele>283</ele>
        <time>2022-05-12T07:59:25.256Z</time>
      </trkpt>
      <trkpt lat="43.71976" lon="3.57058">
        <ele>283</ele>
        <time>2022-05-12T07:59:26.448Z</time>
      </trkpt>
      <trkpt lat="43.71973" lon="3.57065">
        <ele>283</ele>
        <time>2022-05-12T07:59:27.524Z</time>
      </trkpt>
      <trkpt lat="43.7197" lon="3.57072">
        <ele>281</ele>
        <time>2022-05-12T07:59:28.047Z</time>
      </trkpt>
      <trkpt lat="43.71967" lon="3.57079">
        <ele>281</ele>
        <time>2022-05-12T07:59:29.123Z</time>
      </trkpt>
      <trkpt lat="43.71964" lon="3.57086">
        <ele>281</ele>
        <time>2022-05-12T07:59:30.200Z</time>
      </trkpt>
      <trkpt lat="43.7196" lon="3.57093">
        <ele>281</ele>
        <time>2022-05-12T07:59:31.380Z</time>
      </trkpt>
      <trkpt lat="43.71956" lon="3.57099">
        <ele>281</ele>
        <time>2022-05-12T07:59:32.459Z</time>
      </trkpt>
      <trkpt lat="43.71952" lon="3.57105">
        <ele>281</ele>
        <time>2022-05-12T07:59:33.538Z</time>
      </trkpt>
      <trkpt lat="43.71947" lon="3.5711">
        <ele>281</ele>
        <time>2022-05-12T07:59:34.667Z</time>
      </trkpt>
      <trkpt lat="43.71943" lon="3.57115">
        <ele>281</ele>
        <time>2022-05-12T07:59:35.653Z</time>
      </trkpt>
      <trkpt lat="43.71938" lon="3.57118">
        <ele>281</ele>
        <time>2022-05-12T07:59:36.650Z</time>
      </trkpt>
      <trkpt lat="43.71932" lon="3.57122">
        <ele>281</ele>
        <time>2022-05-12T07:59:37.869Z</time>
      </trkpt>
      <trkpt lat="43.71927" lon="3.57125">
        <ele>280</ele>
        <time>2022-05-12T07:59:38.354Z</time>
      </trkpt>
      <trkpt lat="43.71922" lon="3.57129">
        <ele>280</ele>
        <time>2022-05-12T07:59:39.411Z</time>
      </trkpt>
      <trkpt lat="43.71918" lon="3.57132">
        <ele>280</ele>
        <time>2022-05-12T07:59:40.243Z</time>
      </trkpt>
      <trkpt lat="43.71913" lon="3.57136">
        <ele>280</ele>
        <time>2022-05-12T07:59:41.300Z</time>
      </trkpt>
      <trkpt lat="43.71909" lon="3.57141">
        <ele>280</ele>
        <time>2022-05-12T07:59:42.286Z</time>
      </trkpt>
      <trkpt lat="43.71905" lon="3.57145">
        <ele>280</ele>
        <time>2022-05-12T07:59:43.189Z</time>
      </trkpt>
      <trkpt lat="43.71902" lon="3.57151">
        <ele>280</ele>
        <time>2022-05-12T07:59:44.154Z</time>
      </trkpt>
      <trkpt lat="43.71899" lon="3.57156">
        <ele>280</ele>
        <time>2022-05-12T07:59:45.013Z</time>
      </trkpt>
      <trkpt lat="43.71896" lon="3.57162">
        <ele>280</ele>
        <time>2022-05-12T07:59:45.978Z</time>
      </trkpt>
      <trkpt lat="43.71894" lon="3.57168">
        <ele>280</ele>
        <time>2022-05-12T07:59:46.852Z</time>
      </trkpt>
      <trkpt lat="43.71893" lon="3.57173">
        <ele>281</ele>
        <time>2022-05-12T07:59:49.498Z</time>
      </trkpt>
      <trkpt lat="43.71891" lon="3.57179">
        <ele>281</ele>
        <time>2022-05-12T07:59:50.371Z</time>
      </trkpt>
      <trkpt lat="43.7189" lon="3.57184">
        <ele>281</ele>
        <time>2022-05-12T07:59:51.057Z</time>
      </trkpt>
      <trkpt lat="43.71889" lon="3.5719">
        <ele>281</ele>
        <time>2022-05-12T07:59:51.871Z</time>
      </trkpt>
      <trkpt lat="43.71889" lon="3.57195">
        <ele>281</ele>
        <time>2022-05-12T07:59:52.533Z</time>
      </trkpt>
      <trkpt lat="43.7189" lon="3.572">
        <ele>281</ele>
        <time>2022-05-12T07:59:53.219Z</time>
      </trkpt>
      <trkpt lat="43.71891" lon="3.57205">
        <ele>281</ele>
        <time>2022-05-12T07:59:53.905Z</time>
      </trkpt>
      <trkpt lat="43.71893" lon="3.57209">
        <ele>281</ele>
        <time>2022-05-12T07:59:54.548Z</time>
      </trkpt>
      <trkpt lat="43.71896" lon="3.57212">
        <ele>281</ele>
        <time>2022-05-12T07:59:55.225Z</time>
      </trkpt>
      <trkpt lat="43.71899" lon="3.57216">
        <ele>281</ele>
        <time>2022-05-12T07:59:55.987Z</time>
      </trkpt>
      <trkpt lat="43.71902" lon="3.57219">
        <ele>282</ele>
        <time>2022-05-12T07:59:58.599Z</time>
      </trkpt>
      <trkpt lat="43.71906" lon="3.57223">
        <ele>282</ele>
        <time>2022-05-12T07:59:59.502Z</time>
      </trkpt>
      <trkpt lat="43.71909" lon="3.57227">
        <ele>282</ele>
        <time>2022-05-12T08:00:00.265Z</time>
      </trkpt>
      <trkpt lat="43.71913" lon="3.57232">
        <ele>282</ele>
        <time>2022-05-12T08:00:01.251Z</time>
      </trkpt>
      <trkpt lat="43.71916" lon="3.57236">
        <ele>282</ele>
        <time>2022-05-12T08:00:02.013Z</time>
      </trkpt>
      <trkpt lat="43.71918" lon="3.57241">
        <ele>282</ele>
        <time>2022-05-12T08:00:02.769Z</time>
      </trkpt>
      <trkpt lat="43.7192" lon="3.57246">
        <ele>282</ele>
        <time>2022-05-12T08:00:03.524Z</time>
      </trkpt>
      <trkpt lat="43.71921" lon="3.57252">
        <ele>282</ele>
        <time>2022-05-12T08:00:04.339Z</time>
      </trkpt>
      <trkpt lat="43.71921" lon="3.57257">
        <ele>282</ele>
        <time>2022-05-12T08:00:05.000Z</time>
      </trkpt>
      <trkpt lat="43.7192" lon="3.57262">
        <ele>282</ele>
        <time>2022-05-12T08:00:05.686Z</time>
      </trkpt>
      <trkpt lat="43.71919" lon="3.57267">
        <ele>282</ele>
        <time>2022-05-12T08:00:06.372Z</time>
      </trkpt>
      <trkpt lat="43.71917" lon="3.57271">
        <ele>282</ele>
        <time>2022-05-12T08:00:07.015Z</time>
      </trkpt>
      <trkpt lat="43.71914" lon="3.57275">
        <ele>282</ele>
        <time>2022-05-12T08:00:07.777Z</time>
      </trkpt>
      <trkpt lat="43.71911" lon="3.57278">
        <ele>282</ele>
        <time>2022-05-12T08:00:08.454Z</time>
      </trkpt>
      <trkpt lat="43.71908" lon="3.57281">
        <ele>282</ele>
        <time>2022-05-12T08:00:09.132Z</time>
      </trkpt>
      <trkpt lat="43.71905" lon="3.57283">
        <ele>282</ele>
        <time>2022-05-12T08:00:09.741Z</time>
      </trkpt>
      <trkpt lat="43.71901" lon="3.57284">
        <ele>282</ele>
        <time>2022-05-12T08:00:10.485Z</time>
      </trkpt>
      <trkpt lat="43.71898" lon="3.57285">
        <ele>282</ele>
        <time>2022-05-12T08:00:11.049Z</time>
      </trkpt>
      <trkpt lat="43.71894" lon="3.57285">
        <ele>282</ele>
        <time>2022-05-12T08:00:11.781Z</time>
      </trkpt>
      <trkpt lat="43.7189" lon="3.57286">
        <ele>282</ele>
        <time>2022-05-12T08:00:12.525Z</time>
      </trkpt>
      <trkpt lat="43.71887" lon="3.57287">
        <ele>282</ele>
        <time>2022-05-12T08:00:13.089Z</time>
      </trkpt>
      <trkpt lat="43.71884" lon="3.57289">
        <ele>282</ele>
        <time>2022-05-12T08:00:13.699Z</time>
      </trkpt>
      <trkpt lat="43.71881" lon="3.57292">
        <ele>282</ele>
        <time>2022-05-12T08:00:14.376Z</time>
      </trkpt>
      <trkpt lat="43.71878" lon="3.57294">
        <ele>282</ele>
        <time>2022-05-12T08:00:14.985Z</time>
      </trkpt>
      <trkpt lat="43.71875" lon="3.57298">
        <ele>282</ele>
        <time>2022-05-12T08:00:15.747Z</time>
      </trkpt>
      <trkpt lat="43.71873" lon="3.57301">
        <ele>282</ele>
        <time>2022-05-12T08:00:16.287Z</time>
      </trkpt>
      <trkpt lat="43.71872" lon="3.57306">
        <ele>282</ele>
        <time>2022-05-12T08:00:16.973Z</time>
      </trkpt>
      <trkpt lat="43.7187" lon="3.5731">
        <ele>282</ele>
        <time>2022-05-12T08:00:17.616Z</time>
      </trkpt>
      <trkpt lat="43.71869" lon="3.57315">
        <ele>282</ele>
        <time>2022-05-12T08:00:18.302Z</time>
      </trkpt>
      <trkpt lat="43.71867" lon="3.57319">
        <ele>282</ele>
        <time>2022-05-12T08:00:18.945Z</time>
      </trkpt>
      <trkpt lat="43.71866" lon="3.57323">
        <ele>282</ele>
        <time>2022-05-12T08:00:19.505Z</time>
      </trkpt>
      <trkpt lat="43.71864" lon="3.57327">
        <ele>283</ele>
        <time>2022-05-12T08:00:21.986Z</time>
      </trkpt>
      <trkpt lat="43.71861" lon="3.57331">
        <ele>283</ele>
        <time>2022-05-12T08:00:22.748Z</time>
      </trkpt>
      <trkpt lat="43.71858" lon="3.57334">
        <ele>283</ele>
        <time>2022-05-12T08:00:23.425Z</time>
      </trkpt>
      <trkpt lat="43.71855" lon="3.57337">
        <ele>283</ele>
        <time>2022-05-12T08:00:24.102Z</time>
      </trkpt>
      <trkpt lat="43.71852" lon="3.57339">
        <ele>283</ele>
        <time>2022-05-12T08:00:24.712Z</time>
      </trkpt>
      <trkpt lat="43.71848" lon="3.57342">
        <ele>283</ele>
        <time>2022-05-12T08:00:25.544Z</time>
      </trkpt>
      <trkpt lat="43.71845" lon="3.57344">
        <ele>283</ele>
        <time>2022-05-12T08:00:26.153Z</time>
      </trkpt>
      <trkpt lat="43.71841" lon="3.57346">
        <ele>283</ele>
        <time>2022-05-12T08:00:26.932Z</time>
      </trkpt>
      <trkpt lat="43.71838" lon="3.57348">
        <ele>283</ele>
        <time>2022-05-12T08:00:27.541Z</time>
      </trkpt>
      <trkpt lat="43.71835" lon="3.5735">
        <ele>283</ele>
        <time>2022-05-12T08:00:28.150Z</time>
      </trkpt>
      <trkpt lat="43.71832" lon="3.57353">
        <ele>283</ele>
        <time>2022-05-12T08:00:28.827Z</time>
      </trkpt>
      <trkpt lat="43.71828" lon="3.57355">
        <ele>283</ele>
        <time>2022-05-12T08:00:29.605Z</time>
      </trkpt>
      <trkpt lat="43.71825" lon="3.57358">
        <ele>283</ele>
        <time>2022-05-12T08:00:30.283Z</time>
      </trkpt>
      <trkpt lat="43.71822" lon="3.57362">
        <ele>283</ele>
        <time>2022-05-12T08:00:31.045Z</time>
      </trkpt>
      <trkpt lat="43.71818" lon="3.57365">
        <ele>283</ele>
        <time>2022-05-12T08:00:31.877Z</time>
      </trkpt>
      <trkpt lat="43.71815" lon="3.57369">
        <ele>283</ele>
        <time>2022-05-12T08:00:32.640Z</time>
      </trkpt>
      <trkpt lat="43.71811" lon="3.57373">
        <ele>283</ele>
        <time>2022-05-12T08:00:33.543Z</time>
      </trkpt>
      <trkpt lat="43.71807" lon="3.57377">
        <ele>283</ele>
        <time>2022-05-12T08:00:34.446Z</time>
      </trkpt>
      <trkpt lat="43.71803" lon="3.57382">
        <ele>283</ele>
        <time>2022-05-12T08:00:35.432Z</time>
      </trkpt>
      <trkpt lat="43.71799" lon="3.57387">
        <ele>283</ele>
        <time>2022-05-12T08:00:36.418Z</time>
      </trkpt>
      <trkpt lat="43.71795" lon="3.57392">
        <ele>283</ele>
        <time>2022-05-12T08:00:37.404Z</time>
      </trkpt>
      <trkpt lat="43.71792" lon="3.57398">
        <ele>283</ele>
        <time>2022-05-12T08:00:38.369Z</time>
      </trkpt>
      <trkpt lat="43.71789" lon="3.57405">
        <ele>283</ele>
        <time>2022-05-12T08:00:39.445Z</time>
      </trkpt>
      <trkpt lat="43.71787" lon="3.57413">
        <ele>283</ele>
        <time>2022-05-12T08:00:40.565Z</time>
      </trkpt>
      <trkpt lat="43.71787" lon="3.57421">
        <ele>283</ele>
        <time>2022-05-12T08:00:41.622Z</time>
      </trkpt>
      <trkpt lat="43.71787" lon="3.57429">
        <ele>283</ele>
        <time>2022-05-12T08:00:42.680Z</time>
      </trkpt>
      <trkpt lat="43.71787" lon="3.57437">
        <ele>283</ele>
        <time>2022-05-12T08:00:43.738Z</time>
      </trkpt>
      <trkpt lat="43.71789" lon="3.57445">
        <ele>283</ele>
        <time>2022-05-12T08:00:44.858Z</time>
      </trkpt>
      <trkpt lat="43.71792" lon="3.57451">
        <ele>283</ele>
        <time>2022-05-12T08:00:45.822Z</time>
      </trkpt>
      <trkpt lat="43.71795" lon="3.57458">
        <ele>283</ele>
        <time>2022-05-12T08:00:46.898Z</time>
      </trkpt>
      <trkpt lat="43.71798" lon="3.57463">
        <ele>283</ele>
        <time>2022-05-12T08:00:47.758Z</time>
      </trkpt>
      <trkpt lat="43.71801" lon="3.57468">
        <ele>283</ele>
        <time>2022-05-12T08:00:48.617Z</time>
      </trkpt>
      <trkpt lat="43.71805" lon="3.57472">
        <ele>283</ele>
        <time>2022-05-12T08:00:49.520Z</time>
      </trkpt>
      <trkpt lat="43.71809" lon="3.57476">
        <ele>283</ele>
        <time>2022-05-12T08:00:50.423Z</time>
      </trkpt>
      <trkpt lat="43.71813" lon="3.5748">
        <ele>283</ele>
        <time>2022-05-12T08:00:51.326Z</time>
      </trkpt>
      <trkpt lat="43.71817" lon="3.57485">
        <ele>283</ele>
        <time>2022-05-12T08:00:52.312Z</time>
      </trkpt>
      <trkpt lat="43.71821" lon="3.57489">
        <ele>283</ele>
        <time>2022-05-12T08:00:53.215Z</time>
      </trkpt>
      <trkpt lat="43.71825" lon="3.57492">
        <ele>283</ele>
        <time>2022-05-12T08:00:54.048Z</time>
      </trkpt>
      <trkpt lat="43.7183" lon="3.57496">
        <ele>283</ele>
        <time>2022-05-12T08:00:55.104Z</time>
      </trkpt>
      <trkpt lat="43.71835" lon="3.57498">
        <ele>284</ele>
        <time>2022-05-12T08:00:58.777Z</time>
      </trkpt>
      <trkpt lat="43.71841" lon="3.57501">
        <ele>284</ele>
        <time>2022-05-12T08:00:59.944Z</time>
      </trkpt>
      <trkpt lat="43.71846" lon="3.57503">
        <ele>284</ele>
        <time>2022-05-12T08:01:00.897Z</time>
      </trkpt>
      <trkpt lat="43.71851" lon="3.57505">
        <ele>284</ele>
        <time>2022-05-12T08:01:01.849Z</time>
      </trkpt>
      <trkpt lat="43.71856" lon="3.57507">
        <ele>284</ele>
        <time>2022-05-12T08:01:02.801Z</time>
      </trkpt>
      <trkpt lat="43.71862" lon="3.5751">
        <ele>284</ele>
        <time>2022-05-12T08:01:03.968Z</time>
      </trkpt>
      <trkpt lat="43.71869" lon="3.57513">
        <ele>284</ele>
        <time>2022-05-12T08:01:05.309Z</time>
      </trkpt>
      <trkpt lat="43.71876" lon="3.57517">
        <ele>284</ele>
        <time>2022-05-12T08:01:06.695Z</time>
      </trkpt>
      <trkpt lat="43.71882" lon="3.5752">
        <ele>284</ele>
        <time>2022-05-12T08:01:07.862Z</time>
      </trkpt>
      <trkpt lat="43.71889" lon="3.57524">
        <ele>284</ele>
        <time>2022-05-12T08:01:09.248Z</time>
      </trkpt>
      <trkpt lat="43.71897" lon="3.57528">
        <ele>283</ele>
        <time>2022-05-12T08:01:10.005Z</time>
      </trkpt>
      <trkpt lat="43.71904" lon="3.57532">
        <ele>283</ele>
        <time>2022-05-12T08:01:11.391Z</time>
      </trkpt>
      <trkpt lat="43.71912" lon="3.57535">
        <ele>283</ele>
        <time>2022-05-12T08:01:12.907Z</time>
      </trkpt>
      <trkpt lat="43.71919" lon="3.57539">
        <ele>283</ele>
        <time>2022-05-12T08:01:14.293Z</time>
      </trkpt>
      <trkpt lat="43.71926" lon="3.57543">
        <ele>283</ele>
        <time>2022-05-12T08:01:15.678Z</time>
      </trkpt>
      <trkpt lat="43.71933" lon="3.57548">
        <ele>283</ele>
        <time>2022-05-12T08:01:17.120Z</time>
      </trkpt>
      <trkpt lat="43.7194" lon="3.57554">
        <ele>283</ele>
        <time>2022-05-12T08:01:18.626Z</time>
      </trkpt>
      <trkpt lat="43.71947" lon="3.57559">
        <ele>283</ele>
        <time>2022-05-12T08:01:20.067Z</time>
      </trkpt>
      <trkpt lat="43.71953" lon="3.57564">
        <ele>283</ele>
        <time>2022-05-12T08:01:21.349Z</time>
      </trkpt>
      <trkpt lat="43.71959" lon="3.57569">
        <ele>283</ele>
        <time>2022-05-12T08:01:22.630Z</time>
      </trkpt>
      <trkpt lat="43.71965" lon="3.57573">
        <ele>281</ele>
        <time>2022-05-12T08:01:23.223Z</time>
      </trkpt>
      <trkpt lat="43.71971" lon="3.57577">
        <ele>281</ele>
        <time>2022-05-12T08:01:24.442Z</time>
      </trkpt>
      <trkpt lat="43.71976" lon="3.5758">
        <ele>281</ele>
        <time>2022-05-12T08:01:25.439Z</time>
      </trkpt>
      <trkpt lat="43.71981" lon="3.57582">
        <ele>281</ele>
        <time>2022-05-12T08:01:26.391Z</time>
      </trkpt>
      <trkpt lat="43.71985" lon="3.57585">
        <ele>281</ele>
        <time>2022-05-12T08:01:27.224Z</time>
      </trkpt>
      <trkpt lat="43.71989" lon="3.57587">
        <ele>281</ele>
        <time>2022-05-12T08:01:28.002Z</time>
      </trkpt>
      <trkpt lat="43.71992" lon="3.5759">
        <ele>281</ele>
        <time>2022-05-12T08:01:28.679Z</time>
      </trkpt>
      <trkpt lat="43.71995" lon="3.57593">
        <ele>281</ele>
        <time>2022-05-12T08:01:29.356Z</time>
      </trkpt>
      <trkpt lat="43.71998" lon="3.57596">
        <ele>281</ele>
        <time>2022-05-12T08:01:30.033Z</time>
      </trkpt>
      <trkpt lat="43.72" lon="3.57599">
        <ele>281</ele>
        <time>2022-05-12T08:01:30.573Z</time>
      </trkpt>
      <trkpt lat="43.72002" lon="3.57603">
        <ele>283</ele>
        <time>2022-05-12T08:01:33.054Z</time>
      </trkpt>
      <trkpt lat="43.72004" lon="3.57606">
        <ele>283</ele>
        <time>2022-05-12T08:01:33.594Z</time>
      </trkpt>
      <trkpt lat="43.72006" lon="3.57609">
        <ele>283</ele>
        <time>2022-05-12T08:01:34.133Z</time>
      </trkpt>
      <trkpt lat="43.72007" lon="3.57613">
        <ele>283</ele>
        <time>2022-05-12T08:01:34.693Z</time>
      </trkpt>
      <trkpt lat="43.72009" lon="3.57616">
        <ele>283</ele>
        <time>2022-05-12T08:01:35.233Z</time>
      </trkpt>
      <trkpt lat="43.7201" lon="3.5762">
        <ele>283</ele>
        <time>2022-05-12T08:01:35.792Z</time>
      </trkpt>
      <trkpt lat="43.72011" lon="3.57623">
        <ele>283</ele>
        <time>2022-05-12T08:01:36.229Z</time>
      </trkpt>
      <trkpt lat="43.72013" lon="3.57626">
        <ele>283</ele>
        <time>2022-05-12T08:01:36.769Z</time>
      </trkpt>
      <trkpt lat="43.72014" lon="3.5763">
        <ele>283</ele>
        <time>2022-05-12T08:01:37.328Z</time>
      </trkpt>
      <trkpt lat="43.72015" lon="3.57633">
        <ele>283</ele>
        <time>2022-05-12T08:01:37.765Z</time>
      </trkpt>
      <trkpt lat="43.72017" lon="3.57636">
        <ele>284</ele>
        <time>2022-05-12T08:01:39.847Z</time>
      </trkpt>
      <trkpt lat="43.72019" lon="3.57638">
        <ele>284</ele>
        <time>2022-05-12T08:01:40.298Z</time>
      </trkpt>
      <trkpt lat="43.72021" lon="3.57641">
        <ele>284</ele>
        <time>2022-05-12T08:01:40.838Z</time>
      </trkpt>
      <trkpt lat="43.72023" lon="3.57644">
        <ele>284</ele>
        <time>2022-05-12T08:01:41.378Z</time>
      </trkpt>
      <trkpt lat="43.72025" lon="3.57647">
        <ele>284</ele>
        <time>2022-05-12T08:01:41.917Z</time>
      </trkpt>
      <trkpt lat="43.72027" lon="3.57649">
        <ele>284</ele>
        <time>2022-05-12T08:01:42.369Z</time>
      </trkpt>
      <trkpt lat="43.72029" lon="3.57652">
        <ele>284</ele>
        <time>2022-05-12T08:01:42.909Z</time>
      </trkpt>
      <trkpt lat="43.7203" lon="3.57654">
        <ele>284</ele>
        <time>2022-05-12T08:01:43.230Z</time>
      </trkpt>
      <trkpt lat="43.72032" lon="3.57656">
        <ele>284</ele>
        <time>2022-05-12T08:01:43.682Z</time>
      </trkpt>
      <trkpt lat="43.72034" lon="3.57658">
        <ele>284</ele>
        <time>2022-05-12T08:01:44.133Z</time>
      </trkpt>
      <trkpt lat="43.72036" lon="3.5766">
        <ele>285</ele>
        <time>2022-05-12T08:01:45.875Z</time>
      </trkpt>
      <trkpt lat="43.72038" lon="3.57661">
        <ele>285</ele>
        <time>2022-05-12T08:01:46.264Z</time>
      </trkpt>
      <trkpt lat="43.7204" lon="3.57662">
        <ele>285</ele>
        <time>2022-05-12T08:01:46.653Z</time>
      </trkpt>
      <trkpt lat="43.72042" lon="3.57663">
        <ele>285</ele>
        <time>2022-05-12T08:01:47.042Z</time>
      </trkpt>
      <trkpt lat="43.72044" lon="3.57664">
        <ele>285</ele>
        <time>2022-05-12T08:01:47.431Z</time>
      </trkpt>
      <trkpt lat="43.72046" lon="3.57665">
        <ele>285</ele>
        <time>2022-05-12T08:01:47.820Z</time>
      </trkpt>
      <trkpt lat="43.72048" lon="3.57665">
        <ele>285</ele>
        <time>2022-05-12T08:01:48.186Z</time>
      </trkpt>
      <trkpt lat="43.7205" lon="3.57666">
        <ele>285</ele>
        <time>2022-05-12T08:01:48.575Z</time>
      </trkpt>
      <trkpt lat="43.72053" lon="3.57667">
        <ele>285</ele>
        <time>2022-05-12T08:01:49.139Z</time>
      </trkpt>
      <trkpt lat="43.72055" lon="3.57667">
        <ele>285</ele>
        <time>2022-05-12T08:01:49.505Z</time>
      </trkpt>
      <trkpt lat="43.72057" lon="3.57668">
        <ele>286</ele>
        <time>2022-05-12T08:01:51.006Z</time>
      </trkpt>
      <trkpt lat="43.7206" lon="3.57668">
        <ele>286</ele>
        <time>2022-05-12T08:01:51.555Z</time>
      </trkpt>
      <trkpt lat="43.72062" lon="3.57669">
        <ele>286</ele>
        <time>2022-05-12T08:01:51.944Z</time>
      </trkpt>
      <trkpt lat="43.72065" lon="3.5767">
        <ele>286</ele>
        <time>2022-05-12T08:01:52.509Z</time>
      </trkpt>
      <trkpt lat="43.72067" lon="3.5767">
        <ele>286</ele>
        <time>2022-05-12T08:01:52.875Z</time>
      </trkpt>
      <trkpt lat="43.7207" lon="3.57671">
        <ele>286</ele>
        <time>2022-05-12T08:01:53.439Z</time>
      </trkpt>
      <trkpt lat="43.72072" lon="3.57672">
        <ele>286</ele>
        <time>2022-05-12T08:01:53.828Z</time>
      </trkpt>
      <trkpt lat="43.72075" lon="3.57672">
        <ele>286</ele>
        <time>2022-05-12T08:01:54.377Z</time>
      </trkpt>
      <trkpt lat="43.72078" lon="3.57673">
        <ele>286</ele>
        <time>2022-05-12T08:01:54.942Z</time>
      </trkpt>
      <trkpt lat="43.7208" lon="3.57674">
        <ele>286</ele>
        <time>2022-05-12T08:01:55.331Z</time>
      </trkpt>
      <trkpt lat="43.72083" lon="3.57675">
        <ele>286</ele>
        <time>2022-05-12T08:01:55.895Z</time>
      </trkpt>
      <trkpt lat="43.72085" lon="3.57675">
        <ele>286</ele>
        <time>2022-05-12T08:01:56.261Z</time>
      </trkpt>
      <trkpt lat="43.72088" lon="3.57676">
        <ele>286</ele>
        <time>2022-05-12T08:01:56.826Z</time>
      </trkpt>
      <trkpt lat="43.7209" lon="3.57677">
        <ele>286</ele>
        <time>2022-05-12T08:01:57.215Z</time>
      </trkpt>
      <trkpt lat="43.72093" lon="3.57677">
        <ele>286</ele>
        <time>2022-05-12T08:01:57.764Z</time>
      </trkpt>
      <trkpt lat="43.72095" lon="3.57678">
        <ele>286</ele>
        <time>2022-05-12T08:01:58.153Z</time>
      </trkpt>
      <trkpt lat="43.72098" lon="3.57678">
        <ele>286</ele>
        <time>2022-05-12T08:01:58.702Z</time>
      </trkpt>
      <trkpt lat="43.721" lon="3.57679">
        <ele>286</ele>
        <time>2022-05-12T08:01:59.091Z</time>
      </trkpt>
      <trkpt lat="43.72103" lon="3.57679">
        <ele>286</ele>
        <time>2022-05-12T08:01:59.640Z</time>
      </trkpt>
      <trkpt lat="43.72106" lon="3.5768">
        <ele>286</ele>
        <time>2022-05-12T08:02:00.204Z</time>
      </trkpt>
      <trkpt lat="43.72108" lon="3.57681">
        <ele>287</ele>
        <time>2022-05-12T08:02:01.705Z</time>
      </trkpt>
      <trkpt lat="43.72111" lon="3.57681">
        <ele>287</ele>
        <time>2022-05-12T08:02:02.254Z</time>
      </trkpt>
      <trkpt lat="43.72114" lon="3.57682">
        <ele>287</ele>
        <time>2022-05-12T08:02:02.818Z</time>
      </trkpt>
      <trkpt lat="43.72116" lon="3.57683">
        <ele>287</ele>
        <time>2022-05-12T08:02:03.207Z</time>
      </trkpt>
      <trkpt lat="43.72119" lon="3.57684">
        <ele>287</ele>
        <time>2022-05-12T08:02:03.772Z</time>
      </trkpt>
      <trkpt lat="43.72121" lon="3.57685">
        <ele>287</ele>
        <time>2022-05-12T08:02:04.161Z</time>
      </trkpt>
      <trkpt lat="43.72124" lon="3.57686">
        <ele>287</ele>
        <time>2022-05-12T08:02:04.726Z</time>
      </trkpt>
      <trkpt lat="43.72127" lon="3.57688">
        <ele>287</ele>
        <time>2022-05-12T08:02:05.335Z</time>
      </trkpt>
      <trkpt lat="43.7213" lon="3.57689">
        <ele>287</ele>
        <time>2022-05-12T08:02:05.899Z</time>
      </trkpt>
      <trkpt lat="43.72133" lon="3.57691">
        <ele>287</ele>
        <time>2022-05-12T08:02:06.509Z</time>
      </trkpt>
      <trkpt lat="43.72136" lon="3.57693">
        <ele>287</ele>
        <time>2022-05-12T08:02:07.118Z</time>
      </trkpt>
      <trkpt lat="43.72139" lon="3.57695">
        <ele>287</ele>
        <time>2022-05-12T08:02:07.727Z</time>
      </trkpt>
      <trkpt lat="43.72141" lon="3.57697">
        <ele>287</ele>
        <time>2022-05-12T08:02:08.179Z</time>
      </trkpt>
      <trkpt lat="43.72144" lon="3.577">
        <ele>287</ele>
        <time>2022-05-12T08:02:08.856Z</time>
      </trkpt>
      <trkpt lat="43.72147" lon="3.57702">
        <ele>287</ele>
        <time>2022-05-12T08:02:09.465Z</time>
      </trkpt>
      <trkpt lat="43.72149" lon="3.57706">
        <ele>287</ele>
        <time>2022-05-12T08:02:10.108Z</time>
      </trkpt>
      <trkpt lat="43.72151" lon="3.57709">
        <ele>287</ele>
        <time>2022-05-12T08:02:10.648Z</time>
      </trkpt>
      <trkpt lat="43.72151" lon="3.57712">
        <ele>287</ele>
        <time>2022-05-12T08:02:11.045Z</time>
      </trkpt>
      <trkpt lat="43.7215" lon="3.57717">
        <ele>287</ele>
        <time>2022-05-12T08:02:11.731Z</time>
      </trkpt>
      <trkpt lat="43.72148" lon="3.57732">
        <ele>288</ele>
        <time>2022-05-12T08:02:16.540Z</time>
      </trkpt>
      <trkpt lat="43.72148" lon="3.57738">
        <ele>288</ele>
        <time>2022-05-12T08:02:17.334Z</time>
      </trkpt>
      <trkpt lat="43.72148" lon="3.57743">
        <ele>288</ele>
        <time>2022-05-12T08:02:17.995Z</time>
      </trkpt>
      <trkpt lat="43.72148" lon="3.57749">
        <ele>288</ele>
        <time>2022-05-12T08:02:18.788Z</time>
      </trkpt>
      <trkpt lat="43.72148" lon="3.57754">
        <ele>288</ele>
        <time>2022-05-12T08:02:19.449Z</time>
      </trkpt>
      <trkpt lat="43.72148" lon="3.5776">
        <ele>288</ele>
        <time>2022-05-12T08:02:20.243Z</time>
      </trkpt>
      <trkpt lat="43.72148" lon="3.57765">
        <ele>288</ele>
        <time>2022-05-12T08:02:20.904Z</time>
      </trkpt>
      <trkpt lat="43.72149" lon="3.5777">
        <ele>288</ele>
        <time>2022-05-12T08:02:21.590Z</time>
      </trkpt>
      <trkpt lat="43.7215" lon="3.57774">
        <ele>288</ele>
        <time>2022-05-12T08:02:22.149Z</time>
      </trkpt>
      <trkpt lat="43.72152" lon="3.57778">
        <ele>288</ele>
        <time>2022-05-12T08:02:22.793Z</time>
      </trkpt>
      <trkpt lat="43.72153" lon="3.57782">
        <ele>289</ele>
        <time>2022-05-12T08:02:24.951Z</time>
      </trkpt>
      <trkpt lat="43.72154" lon="3.57786">
        <ele>289</ele>
        <time>2022-05-12T08:02:25.511Z</time>
      </trkpt>
      <trkpt lat="43.72154" lon="3.57789">
        <ele>289</ele>
        <time>2022-05-12T08:02:25.908Z</time>
      </trkpt>
      <trkpt lat="43.72155" lon="3.57792">
        <ele>289</ele>
        <time>2022-05-12T08:02:26.344Z</time>
      </trkpt>
      <trkpt lat="43.72155" lon="3.57795">
        <ele>289</ele>
        <time>2022-05-12T08:02:26.741Z</time>
      </trkpt>
      <trkpt lat="43.72155" lon="3.57798">
        <ele>289</ele>
        <time>2022-05-12T08:02:27.138Z</time>
      </trkpt>
      <trkpt lat="43.72154" lon="3.57801">
        <ele>289</ele>
        <time>2022-05-12T08:02:27.575Z</time>
      </trkpt>
      <trkpt lat="43.72153" lon="3.57804">
        <ele>289</ele>
        <time>2022-05-12T08:02:28.011Z</time>
      </trkpt>
      <trkpt lat="43.72152" lon="3.57807">
        <ele>289</ele>
        <time>2022-05-12T08:02:28.448Z</time>
      </trkpt>
      <trkpt lat="43.72151" lon="3.57809">
        <ele>289</ele>
        <time>2022-05-12T08:02:28.770Z</time>
      </trkpt>
      <trkpt lat="43.72149" lon="3.57812">
        <ele>290</ele>
        <time>2022-05-12T08:02:30.851Z</time>
      </trkpt>
      <trkpt lat="43.72147" lon="3.57813">
        <ele>290</ele>
        <time>2022-05-12T08:02:31.240Z</time>
      </trkpt>
      <trkpt lat="43.72145" lon="3.57814">
        <ele>290</ele>
        <time>2022-05-12T08:02:31.630Z</time>
      </trkpt>
      <trkpt lat="43.72142" lon="3.57815">
        <ele>290</ele>
        <time>2022-05-12T08:02:32.194Z</time>
      </trkpt>
      <trkpt lat="43.72139" lon="3.57815">
        <ele>290</ele>
        <time>2022-05-12T08:02:32.743Z</time>
      </trkpt>
      <trkpt lat="43.72136" lon="3.57815">
        <ele>290</ele>
        <time>2022-05-12T08:02:33.292Z</time>
      </trkpt>
      <trkpt lat="43.72133" lon="3.57815">
        <ele>290</ele>
        <time>2022-05-12T08:02:33.841Z</time>
      </trkpt>
      <trkpt lat="43.72129" lon="3.57814">
        <ele>290</ele>
        <time>2022-05-12T08:02:34.584Z</time>
      </trkpt>
      <trkpt lat="43.72126" lon="3.57815">
        <ele>290</ele>
        <time>2022-05-12T08:02:35.149Z</time>
      </trkpt>
      <trkpt lat="43.72122" lon="3.57815">
        <ele>290</ele>
        <time>2022-05-12T08:02:35.881Z</time>
      </trkpt>
      <trkpt lat="43.72119" lon="3.57816">
        <ele>289</ele>
        <time>2022-05-12T08:02:36.156Z</time>
      </trkpt>
      <trkpt lat="43.72116" lon="3.57818">
        <ele>289</ele>
        <time>2022-05-12T08:02:36.765Z</time>
      </trkpt>
      <trkpt lat="43.72112" lon="3.5782">
        <ele>289</ele>
        <time>2022-05-12T08:02:37.543Z</time>
      </trkpt>
      <trkpt lat="43.72109" lon="3.57821">
        <ele>289</ele>
        <time>2022-05-12T08:02:38.108Z</time>
      </trkpt>
      <trkpt lat="43.72106" lon="3.57824">
        <ele>289</ele>
        <time>2022-05-12T08:02:38.785Z</time>
      </trkpt>
      <trkpt lat="43.72104" lon="3.57826">
        <ele>289</ele>
        <time>2022-05-12T08:02:39.236Z</time>
      </trkpt>
      <trkpt lat="43.72102" lon="3.57829">
        <ele>289</ele>
        <time>2022-05-12T08:02:39.776Z</time>
      </trkpt>
      <trkpt lat="43.721" lon="3.57833">
        <ele>289</ele>
        <time>2022-05-12T08:02:40.419Z</time>
      </trkpt>
      <trkpt lat="43.72098" lon="3.57837">
        <ele>289</ele>
        <time>2022-05-12T08:02:41.062Z</time>
      </trkpt>
      <trkpt lat="43.72096" lon="3.57841">
        <ele>289</ele>
        <time>2022-05-12T08:02:41.705Z</time>
      </trkpt>
      <trkpt lat="43.72094" lon="3.57844">
        <ele>289</ele>
        <time>2022-05-12T08:02:42.245Z</time>
      </trkpt>
      <trkpt lat="43.7209" lon="3.57846">
        <ele>289</ele>
        <time>2022-05-12T08:02:43.023Z</time>
      </trkpt>
      <trkpt lat="43.72087" lon="3.57848">
        <ele>289</ele>
        <time>2022-05-12T08:02:43.632Z</time>
      </trkpt>
      <trkpt lat="43.72084" lon="3.5785">
        <ele>289</ele>
        <time>2022-05-12T08:02:44.242Z</time>
      </trkpt>
      <trkpt lat="43.7208" lon="3.57852">
        <ele>289</ele>
        <time>2022-05-12T08:02:45.020Z</time>
      </trkpt>
      <trkpt lat="43.72077" lon="3.57854">
        <ele>289</ele>
        <time>2022-05-12T08:02:45.629Z</time>
      </trkpt>
      <trkpt lat="43.72073" lon="3.57857">
        <ele>289</ele>
        <time>2022-05-12T08:02:46.462Z</time>
      </trkpt>
      <trkpt lat="43.72071" lon="3.57859">
        <ele>289</ele>
        <time>2022-05-12T08:02:46.913Z</time>
      </trkpt>
      <trkpt lat="43.72068" lon="3.57862">
        <ele>289</ele>
        <time>2022-05-12T08:02:47.590Z</time>
      </trkpt>
      <trkpt lat="43.72065" lon="3.57865">
        <ele>289</ele>
        <time>2022-05-12T08:02:48.267Z</time>
      </trkpt>
      <trkpt lat="43.72062" lon="3.57867">
        <ele>289</ele>
        <time>2022-05-12T08:02:48.877Z</time>
      </trkpt>
      <trkpt lat="43.72059" lon="3.57869">
        <ele>289</ele>
        <time>2022-05-12T08:02:49.486Z</time>
      </trkpt>
      <trkpt lat="43.72056" lon="3.57872">
        <ele>289</ele>
        <time>2022-05-12T08:02:50.163Z</time>
      </trkpt>
      <trkpt lat="43.72053" lon="3.57875">
        <ele>289</ele>
        <time>2022-05-12T08:02:50.840Z</time>
      </trkpt>
      <trkpt lat="43.72049" lon="3.57878">
        <ele>289</ele>
        <time>2022-05-12T08:02:51.673Z</time>
      </trkpt>
      <trkpt lat="43.72046" lon="3.5788">
        <ele>289</ele>
        <time>2022-05-12T08:02:52.282Z</time>
      </trkpt>
      <trkpt lat="43.72043" lon="3.57884">
        <ele>289</ele>
        <time>2022-05-12T08:02:53.044Z</time>
      </trkpt>
      <trkpt lat="43.7204" lon="3.57887">
        <ele>289</ele>
        <time>2022-05-12T08:02:53.722Z</time>
      </trkpt>
      <trkpt lat="43.72038" lon="3.57891">
        <ele>289</ele>
        <time>2022-05-12T08:02:54.365Z</time>
      </trkpt>
      <trkpt lat="43.72036" lon="3.57895">
        <ele>289</ele>
        <time>2022-05-12T08:02:55.008Z</time>
      </trkpt>
      <trkpt lat="43.72034" lon="3.579">
        <ele>288</ele>
        <time>2022-05-12T08:02:55.376Z</time>
      </trkpt>
      <trkpt lat="43.72032" lon="3.57904">
        <ele>288</ele>
        <time>2022-05-12T08:02:56.019Z</time>
      </trkpt>
      <trkpt lat="43.72031" lon="3.57909">
        <ele>288</ele>
        <time>2022-05-12T08:02:56.705Z</time>
      </trkpt>
      <trkpt lat="43.72029" lon="3.57914">
        <ele>288</ele>
        <time>2022-05-12T08:02:57.460Z</time>
      </trkpt>
      <trkpt lat="43.72027" lon="3.57918">
        <ele>288</ele>
        <time>2022-05-12T08:02:58.103Z</time>
      </trkpt>
      <trkpt lat="43.72026" lon="3.57922">
        <ele>288</ele>
        <time>2022-05-12T08:02:58.663Z</time>
      </trkpt>
      <trkpt lat="43.72025" lon="3.57927">
        <ele>288</ele>
        <time>2022-05-12T08:02:59.349Z</time>
      </trkpt>
      <trkpt lat="43.72023" lon="3.57931">
        <ele>288</ele>
        <time>2022-05-12T08:02:59.992Z</time>
      </trkpt>
      <trkpt lat="43.72022" lon="3.57934">
        <ele>288</ele>
        <time>2022-05-12T08:03:00.429Z</time>
      </trkpt>
      <trkpt lat="43.7202" lon="3.57938">
        <ele>288</ele>
        <time>2022-05-12T08:03:01.072Z</time>
      </trkpt>
      <trkpt lat="43.72017" lon="3.57941">
        <ele>289</ele>
        <time>2022-05-12T08:03:03.684Z</time>
      </trkpt>
      <trkpt lat="43.72015" lon="3.57943">
        <ele>289</ele>
        <time>2022-05-12T08:03:04.136Z</time>
      </trkpt>
      <trkpt lat="43.72011" lon="3.57943">
        <ele>289</ele>
        <time>2022-05-12T08:03:04.868Z</time>
      </trkpt>
      <trkpt lat="43.72008" lon="3.57943">
        <ele>289</ele>
        <time>2022-05-12T08:03:05.417Z</time>
      </trkpt>
      <trkpt lat="43.72004" lon="3.57941">
        <ele>289</ele>
        <time>2022-05-12T08:03:06.195Z</time>
      </trkpt>
      <trkpt lat="43.71999" lon="3.57939">
        <ele>289</ele>
        <time>2022-05-12T08:03:07.147Z</time>
      </trkpt>
      <trkpt lat="43.71994" lon="3.57937">
        <ele>289</ele>
        <time>2022-05-12T08:03:08.099Z</time>
      </trkpt>
      <trkpt lat="43.71989" lon="3.57934">
        <ele>289</ele>
        <time>2022-05-12T08:03:09.096Z</time>
      </trkpt>
      <trkpt lat="43.71984" lon="3.57931">
        <ele>289</ele>
        <time>2022-05-12T08:03:10.093Z</time>
      </trkpt>
      <trkpt lat="43.71979" lon="3.57929">
        <ele>289</ele>
        <time>2022-05-12T08:03:11.046Z</time>
      </trkpt>
      <trkpt lat="43.71974" lon="3.57926">
        <ele>287</ele>
        <time>2022-05-12T08:03:11.531Z</time>
      </trkpt>
      <trkpt lat="43.71969" lon="3.57923">
        <ele>287</ele>
        <time>2022-05-12T08:03:12.528Z</time>
      </trkpt>
      <trkpt lat="43.71965" lon="3.57921">
        <ele>287</ele>
        <time>2022-05-12T08:03:13.306Z</time>
      </trkpt>
      <trkpt lat="43.71962" lon="3.57919">
        <ele>287</ele>
        <time>2022-05-12T08:03:13.915Z</time>
      </trkpt>
      <trkpt lat="43.71959" lon="3.57917">
        <ele>287</ele>
        <time>2022-05-12T08:03:14.525Z</time>
      </trkpt>
      <trkpt lat="43.71956" lon="3.57916">
        <ele>287</ele>
        <time>2022-05-12T08:03:15.089Z</time>
      </trkpt>
      <trkpt lat="43.71953" lon="3.57914">
        <ele>287</ele>
        <time>2022-05-12T08:03:15.698Z</time>
      </trkpt>
      <trkpt lat="43.7195" lon="3.57913">
        <ele>287</ele>
        <time>2022-05-12T08:03:16.263Z</time>
      </trkpt>
      <trkpt lat="43.71947" lon="3.57911">
        <ele>287</ele>
        <time>2022-05-12T08:03:16.872Z</time>
      </trkpt>
      <trkpt lat="43.71945" lon="3.5791">
        <ele>287</ele>
        <time>2022-05-12T08:03:17.261Z</time>
      </trkpt>
      <trkpt lat="43.71942" lon="3.57909">
        <ele>287</ele>
        <time>2022-05-12T08:03:17.826Z</time>
      </trkpt>
      <trkpt lat="43.7194" lon="3.57907">
        <ele>287</ele>
        <time>2022-05-12T08:03:18.277Z</time>
      </trkpt>
      <trkpt lat="43.71937" lon="3.57906">
        <ele>287</ele>
        <time>2022-05-12T08:03:18.842Z</time>
      </trkpt>
      <trkpt lat="43.71935" lon="3.57905">
        <ele>287</ele>
        <time>2022-05-12T08:03:19.231Z</time>
      </trkpt>
      <trkpt lat="43.71933" lon="3.57903">
        <ele>287</ele>
        <time>2022-05-12T08:03:19.683Z</time>
      </trkpt>
      <trkpt lat="43.7193" lon="3.57901">
        <ele>287</ele>
        <time>2022-05-12T08:03:20.292Z</time>
      </trkpt>
      <trkpt lat="43.71928" lon="3.57899">
        <ele>287</ele>
        <time>2022-05-12T08:03:20.743Z</time>
      </trkpt>
      <trkpt lat="43.71926" lon="3.57897">
        <ele>287</ele>
        <time>2022-05-12T08:03:21.195Z</time>
      </trkpt>
      <trkpt lat="43.71924" lon="3.57895">
        <ele>287</ele>
        <time>2022-05-12T08:03:21.646Z</time>
      </trkpt>
      <trkpt lat="43.71922" lon="3.57892">
        <ele>287</ele>
        <time>2022-05-12T08:03:22.186Z</time>
      </trkpt>
      <trkpt lat="43.7192" lon="3.5789">
        <ele>288</ele>
        <time>2022-05-12T08:03:23.927Z</time>
      </trkpt>
      <trkpt lat="43.71919" lon="3.57887">
        <ele>288</ele>
        <time>2022-05-12T08:03:24.364Z</time>
      </trkpt>
      <trkpt lat="43.71917" lon="3.57884">
        <ele>288</ele>
        <time>2022-05-12T08:03:24.904Z</time>
      </trkpt>
      <trkpt lat="43.71915" lon="3.57883">
        <ele>288</ele>
        <time>2022-05-12T08:03:25.293Z</time>
      </trkpt>
      <trkpt lat="43.71912" lon="3.57882">
        <ele>288</ele>
        <time>2022-05-12T08:03:25.858Z</time>
      </trkpt>
      <trkpt lat="43.71909" lon="3.57882">
        <ele>288</ele>
        <time>2022-05-12T08:03:26.406Z</time>
      </trkpt>
      <trkpt lat="43.71905" lon="3.57883">
        <ele>288</ele>
        <time>2022-05-12T08:03:27.150Z</time>
      </trkpt>
      <trkpt lat="43.71901" lon="3.57885">
        <ele>288</ele>
        <time>2022-05-12T08:03:27.928Z</time>
      </trkpt>
      <trkpt lat="43.71898" lon="3.57887">
        <ele>288</ele>
        <time>2022-05-12T08:03:28.538Z</time>
      </trkpt>
      <trkpt lat="43.71895" lon="3.5789">
        <ele>288</ele>
        <time>2022-05-12T08:03:29.215Z</time>
      </trkpt>
      <trkpt lat="43.71893" lon="3.57894">
        <ele>287</ele>
        <time>2022-05-12T08:03:29.528Z</time>
      </trkpt>
      <trkpt lat="43.7189" lon="3.57898">
        <ele>287</ele>
        <time>2022-05-12T08:03:30.290Z</time>
      </trkpt>
      <trkpt lat="43.71886" lon="3.579">
        <ele>287</ele>
        <time>2022-05-12T08:03:31.068Z</time>
      </trkpt>
      <trkpt lat="43.71883" lon="3.57902">
        <ele>287</ele>
        <time>2022-05-12T08:03:31.677Z</time>
      </trkpt>
      <trkpt lat="43.71879" lon="3.57903">
        <ele>287</ele>
        <time>2022-05-12T08:03:32.421Z</time>
      </trkpt>
      <trkpt lat="43.71877" lon="3.57903">
        <ele>287</ele>
        <time>2022-05-12T08:03:32.787Z</time>
      </trkpt>
      <trkpt lat="43.71874" lon="3.57902">
        <ele>287</ele>
        <time>2022-05-12T08:03:33.352Z</time>
      </trkpt>
      <trkpt lat="43.71871" lon="3.57899">
        <ele>287</ele>
        <time>2022-05-12T08:03:34.029Z</time>
      </trkpt>
      <trkpt lat="43.71867" lon="3.57897">
        <ele>287</ele>
        <time>2022-05-12T08:03:34.807Z</time>
      </trkpt>
      <trkpt lat="43.71864" lon="3.57895">
        <ele>287</ele>
        <time>2022-05-12T08:03:35.416Z</time>
      </trkpt>
      <trkpt lat="43.71861" lon="3.57894">
        <ele>285</ele>
        <time>2022-05-12T08:03:35.691Z</time>
      </trkpt>
      <trkpt lat="43.71857" lon="3.57896">
        <ele>285</ele>
        <time>2022-05-12T08:03:36.469Z</time>
      </trkpt>
      <trkpt lat="43.71854" lon="3.57898">
        <ele>285</ele>
        <time>2022-05-12T08:03:37.078Z</time>
      </trkpt>
      <trkpt lat="43.7185" lon="3.57901">
        <ele>285</ele>
        <time>2022-05-12T08:03:37.911Z</time>
      </trkpt>
      <trkpt lat="43.71846" lon="3.57902">
        <ele>285</ele>
        <time>2022-05-12T08:03:38.654Z</time>
      </trkpt>
      <trkpt lat="43.71843" lon="3.57902">
        <ele>285</ele>
        <time>2022-05-12T08:03:39.203Z</time>
      </trkpt>
      <trkpt lat="43.7184" lon="3.57902">
        <ele>285</ele>
        <time>2022-05-12T08:03:39.752Z</time>
      </trkpt>
      <trkpt lat="43.71837" lon="3.57902">
        <ele>285</ele>
        <time>2022-05-12T08:03:40.301Z</time>
      </trkpt>
      <trkpt lat="43.71835" lon="3.57901">
        <ele>285</ele>
        <time>2022-05-12T08:03:40.690Z</time>
      </trkpt>
      <trkpt lat="43.71832" lon="3.57899">
        <ele>285</ele>
        <time>2022-05-12T08:03:41.299Z</time>
      </trkpt>
      <trkpt lat="43.7183" lon="3.57896">
        <ele>282</ele>
        <time>2022-05-12T08:03:41.562Z</time>
      </trkpt>
      <trkpt lat="43.71828" lon="3.57893">
        <ele>282</ele>
        <time>2022-05-12T08:03:42.102Z</time>
      </trkpt>
      <trkpt lat="43.71827" lon="3.5789">
        <ele>282</ele>
        <time>2022-05-12T08:03:42.539Z</time>
      </trkpt>
      <trkpt lat="43.71825" lon="3.57888">
        <ele>282</ele>
        <time>2022-05-12T08:03:42.990Z</time>
      </trkpt>
      <trkpt lat="43.71823" lon="3.57887">
        <ele>282</ele>
        <time>2022-05-12T08:03:43.379Z</time>
      </trkpt>
      <trkpt lat="43.71816" lon="3.57891">
        <ele>278</ele>
        <time>2022-05-12T08:03:44.053Z</time>
      </trkpt>
      <trkpt lat="43.71814" lon="3.57892">
        <ele>278</ele>
        <time>2022-05-12T08:03:44.442Z</time>
      </trkpt>
      <trkpt lat="43.71812" lon="3.57892">
        <ele>278</ele>
        <time>2022-05-12T08:03:44.808Z</time>
      </trkpt>
      <trkpt lat="43.7181" lon="3.57891">
        <ele>278</ele>
        <time>2022-05-12T08:03:45.197Z</time>
      </trkpt>
      <trkpt lat="43.71808" lon="3.5789">
        <ele>278</ele>
        <time>2022-05-12T08:03:45.587Z</time>
      </trkpt>
      <trkpt lat="43.71807" lon="3.57887">
        <ele>278</ele>
        <time>2022-05-12T08:03:46.023Z</time>
      </trkpt>
      <trkpt lat="43.71806" lon="3.57885">
        <ele>278</ele>
        <time>2022-05-12T08:03:46.345Z</time>
      </trkpt>
      <trkpt lat="43.71805" lon="3.57883">
        <ele>275</ele>
        <time>2022-05-12T08:03:46.501Z</time>
      </trkpt>
      <trkpt lat="43.71804" lon="3.5788">
        <ele>275</ele>
        <time>2022-05-12T08:03:46.938Z</time>
      </trkpt>
      <trkpt lat="43.71802" lon="3.57878">
        <ele>275</ele>
        <time>2022-05-12T08:03:47.390Z</time>
      </trkpt>
      <trkpt lat="43.71799" lon="3.57878">
        <ele>275</ele>
        <time>2022-05-12T08:03:47.939Z</time>
      </trkpt>
      <trkpt lat="43.71797" lon="3.57881">
        <ele>275</ele>
        <time>2022-05-12T08:03:48.478Z</time>
      </trkpt>
      <trkpt lat="43.71795" lon="3.57883">
        <ele>275</ele>
        <time>2022-05-12T08:03:48.930Z</time>
      </trkpt>
      <trkpt lat="43.71793" lon="3.57886">
        <ele>275</ele>
        <time>2022-05-12T08:03:49.470Z</time>
      </trkpt>
      <trkpt lat="43.71791" lon="3.57887">
        <ele>270</ele>
        <time>2022-05-12T08:03:49.659Z</time>
      </trkpt>
      <trkpt lat="43.71788" lon="3.57889">
        <ele>270</ele>
        <time>2022-05-12T08:03:50.268Z</time>
      </trkpt>
      <trkpt lat="43.71786" lon="3.57891">
        <ele>270</ele>
        <time>2022-05-12T08:03:50.720Z</time>
      </trkpt>
      <trkpt lat="43.71784" lon="3.57894">
        <ele>270</ele>
        <time>2022-05-12T08:03:51.259Z</time>
      </trkpt>
      <trkpt lat="43.71781" lon="3.57896">
        <ele>270</ele>
        <time>2022-05-12T08:03:51.869Z</time>
      </trkpt>
      <trkpt lat="43.71779" lon="3.57898">
        <ele>270</ele>
        <time>2022-05-12T08:03:52.320Z</time>
      </trkpt>
      <trkpt lat="43.71777" lon="3.57899">
        <ele>270</ele>
        <time>2022-05-12T08:03:52.709Z</time>
      </trkpt>
      <trkpt lat="43.71776" lon="3.57901">
        <ele>270</ele>
        <time>2022-05-12T08:03:53.031Z</time>
      </trkpt>
      <trkpt lat="43.71774" lon="3.57903">
        <ele>270</ele>
        <time>2022-05-12T08:03:53.482Z</time>
      </trkpt>
      <trkpt lat="43.71773" lon="3.57907">
        <ele>270</ele>
        <time>2022-05-12T08:03:54.042Z</time>
      </trkpt>
      <trkpt lat="43.71771" lon="3.57911">
        <ele>267</ele>
        <time>2022-05-12T08:03:54.355Z</time>
      </trkpt>
      <trkpt lat="43.71769" lon="3.57913">
        <ele>267</ele>
        <time>2022-05-12T08:03:54.806Z</time>
      </trkpt>
      <trkpt lat="43.71767" lon="3.57915">
        <ele>267</ele>
        <time>2022-05-12T08:03:55.258Z</time>
      </trkpt>
      <trkpt lat="43.71764" lon="3.57917">
        <ele>267</ele>
        <time>2022-05-12T08:03:55.867Z</time>
      </trkpt>
      <trkpt lat="43.71762" lon="3.57918">
        <ele>267</ele>
        <time>2022-05-12T08:03:56.256Z</time>
      </trkpt>
      <trkpt lat="43.71759" lon="3.57919">
        <ele>267</ele>
        <time>2022-05-12T08:03:56.821Z</time>
      </trkpt>
      <trkpt lat="43.71757" lon="3.57919">
        <ele>267</ele>
        <time>2022-05-12T08:03:57.187Z</time>
      </trkpt>
      <trkpt lat="43.71755" lon="3.57921">
        <ele>267</ele>
        <time>2022-05-12T08:03:57.638Z</time>
      </trkpt>
      <trkpt lat="43.71753" lon="3.57923">
        <ele>267</ele>
        <time>2022-05-12T08:03:58.090Z</time>
      </trkpt>
      <trkpt lat="43.71752" lon="3.57927">
        <ele>267</ele>
        <time>2022-05-12T08:03:58.649Z</time>
      </trkpt>
      <trkpt lat="43.71751" lon="3.57932">
        <ele>264</ele>
        <time>2022-05-12T08:03:58.983Z</time>
      </trkpt>
      <trkpt lat="43.71751" lon="3.57937">
        <ele>264</ele>
        <time>2022-05-12T08:03:59.644Z</time>
      </trkpt>
      <trkpt lat="43.71751" lon="3.57942">
        <ele>264</ele>
        <time>2022-05-12T08:04:00.305Z</time>
      </trkpt>
      <trkpt lat="43.71751" lon="3.57948">
        <ele>264</ele>
        <time>2022-05-12T08:04:01.099Z</time>
      </trkpt>
      <trkpt lat="43.71751" lon="3.57953">
        <ele>264</ele>
        <time>2022-05-12T08:04:01.760Z</time>
      </trkpt>
      <trkpt lat="43.7175" lon="3.57957">
        <ele>264</ele>
        <time>2022-05-12T08:04:02.320Z</time>
      </trkpt>
      <trkpt lat="43.71748" lon="3.57961">
        <ele>264</ele>
        <time>2022-05-12T08:04:02.963Z</time>
      </trkpt>
      <trkpt lat="43.71746" lon="3.57965">
        <ele>264</ele>
        <time>2022-05-12T08:04:03.606Z</time>
      </trkpt>
      <trkpt lat="43.71744" lon="3.57969">
        <ele>264</ele>
        <time>2022-05-12T08:04:04.249Z</time>
      </trkpt>
      <trkpt lat="43.71743" lon="3.57974">
        <ele>264</ele>
        <time>2022-05-12T08:04:04.935Z</time>
      </trkpt>
      <trkpt lat="43.71742" lon="3.57979">
        <ele>260</ele>
        <time>2022-05-12T08:04:05.269Z</time>
      </trkpt>
      <trkpt lat="43.71742" lon="3.57984">
        <ele>260</ele>
        <time>2022-05-12T08:04:05.930Z</time>
      </trkpt>
      <trkpt lat="43.71742" lon="3.57988">
        <ele>260</ele>
        <time>2022-05-12T08:04:06.459Z</time>
      </trkpt>
      <trkpt lat="43.71743" lon="3.57992">
        <ele>260</ele>
        <time>2022-05-12T08:04:07.019Z</time>
      </trkpt>
      <trkpt lat="43.71743" lon="3.57994">
        <ele>260</ele>
        <time>2022-05-12T08:04:07.283Z</time>
      </trkpt>
      <trkpt lat="43.7174" lon="3.57996">
        <ele>260</ele>
        <time>2022-05-12T08:04:07.893Z</time>
      </trkpt>
      <trkpt lat="43.71739" lon="3.57996">
        <ele>260</ele>
        <time>2022-05-12T08:04:08.076Z</time>
      </trkpt>
      <trkpt lat="43.71736" lon="3.57996">
        <ele>260</ele>
        <time>2022-05-12T08:04:08.624Z</time>
      </trkpt>
      <trkpt lat="43.71734" lon="3.57996">
        <ele>260</ele>
        <time>2022-05-12T08:04:08.990Z</time>
      </trkpt>
      <trkpt lat="43.71731" lon="3.57997">
        <ele>256</ele>
        <time>2022-05-12T08:04:09.265Z</time>
      </trkpt>
      <trkpt lat="43.71729" lon="3.57999">
        <ele>256</ele>
        <time>2022-05-12T08:04:09.717Z</time>
      </trkpt>
      <trkpt lat="43.71727" lon="3.58">
        <ele>256</ele>
        <time>2022-05-12T08:04:10.106Z</time>
      </trkpt>
      <trkpt lat="43.71724" lon="3.58">
        <ele>256</ele>
        <time>2022-05-12T08:04:10.655Z</time>
      </trkpt>
      <trkpt lat="43.7172" lon="3.57999">
        <ele>256</ele>
        <time>2022-05-12T08:04:11.398Z</time>
      </trkpt>
      <trkpt lat="43.71716" lon="3.57999">
        <ele>256</ele>
        <time>2022-05-12T08:04:12.130Z</time>
      </trkpt>
      <trkpt lat="43.71711" lon="3.57999">
        <ele>256</ele>
        <time>2022-05-12T08:04:13.045Z</time>
      </trkpt>
      <trkpt lat="43.71707" lon="3.57998">
        <ele>256</ele>
        <time>2022-05-12T08:04:13.788Z</time>
      </trkpt>
      <trkpt lat="43.71703" lon="3.57997">
        <ele>256</ele>
        <time>2022-05-12T08:04:14.532Z</time>
      </trkpt>
      <trkpt lat="43.717" lon="3.57997">
        <ele>256</ele>
        <time>2022-05-12T08:04:15.081Z</time>
      </trkpt>
      <trkpt lat="43.71696" lon="3.57998">
        <ele>253</ele>
        <time>2022-05-12T08:04:15.443Z</time>
      </trkpt>
      <trkpt lat="43.71692" lon="3.57998">
        <ele>253</ele>
        <time>2022-05-12T08:04:16.175Z</time>
      </trkpt>
      <trkpt lat="43.71688" lon="3.57998">
        <ele>253</ele>
        <time>2022-05-12T08:04:16.907Z</time>
      </trkpt>
      <trkpt lat="43.71686" lon="3.57998">
        <ele>253</ele>
        <time>2022-05-12T08:04:17.273Z</time>
      </trkpt>
      <trkpt lat="43.71684" lon="3.57999">
        <ele>253</ele>
        <time>2022-05-12T08:04:17.662Z</time>
      </trkpt>
      <trkpt lat="43.71681" lon="3.58001">
        <ele>253</ele>
        <time>2022-05-12T08:04:18.271Z</time>
      </trkpt>
      <trkpt lat="43.71679" lon="3.58003">
        <ele>253</ele>
        <time>2022-05-12T08:04:18.722Z</time>
      </trkpt>
      <trkpt lat="43.71676" lon="3.58006">
        <ele>253</ele>
        <time>2022-05-12T08:04:19.400Z</time>
      </trkpt>
      <trkpt lat="43.71674" lon="3.58009">
        <ele>253</ele>
        <time>2022-05-12T08:04:19.939Z</time>
      </trkpt>
      <trkpt lat="43.71672" lon="3.58011">
        <ele>253</ele>
        <time>2022-05-12T08:04:20.391Z</time>
      </trkpt>
      <trkpt lat="43.71669" lon="3.58013">
        <ele>248</ele>
        <time>2022-05-12T08:04:20.687Z</time>
      </trkpt>
      <trkpt lat="43.71667" lon="3.58015">
        <ele>248</ele>
        <time>2022-05-12T08:04:21.139Z</time>
      </trkpt>
      <trkpt lat="43.71665" lon="3.58016">
        <ele>248</ele>
        <time>2022-05-12T08:04:21.528Z</time>
      </trkpt>
      <trkpt lat="43.71663" lon="3.58017">
        <ele>248</ele>
        <time>2022-05-12T08:04:21.917Z</time>
      </trkpt>
      <trkpt lat="43.7166" lon="3.58018">
        <ele>248</ele>
        <time>2022-05-12T08:04:22.481Z</time>
      </trkpt>
      <trkpt lat="43.71658" lon="3.5802">
        <ele>248</ele>
        <time>2022-05-12T08:04:22.933Z</time>
      </trkpt>
      <trkpt lat="43.71657" lon="3.58023">
        <ele>248</ele>
        <time>2022-05-12T08:04:23.370Z</time>
      </trkpt>
      <trkpt lat="43.71655" lon="3.58027">
        <ele>248</ele>
        <time>2022-05-12T08:04:24.013Z</time>
      </trkpt>
      <trkpt lat="43.71654" lon="3.58033">
        <ele>248</ele>
        <time>2022-05-12T08:04:24.827Z</time>
      </trkpt>
      <trkpt lat="43.71654" lon="3.58039">
        <ele>248</ele>
        <time>2022-05-12T08:04:25.621Z</time>
      </trkpt>
      <trkpt lat="43.71653" lon="3.58046">
        <ele>243</ele>
        <time>2022-05-12T08:04:26.080Z</time>
      </trkpt>
      <trkpt lat="43.71654" lon="3.58053">
        <ele>243</ele>
        <time>2022-05-12T08:04:27.023Z</time>
      </trkpt>
      <trkpt lat="43.71655" lon="3.58059">
        <ele>243</ele>
        <time>2022-05-12T08:04:27.838Z</time>
      </trkpt>
      <trkpt lat="43.71655" lon="3.58064">
        <ele>243</ele>
        <time>2022-05-12T08:04:28.499Z</time>
      </trkpt>
      <trkpt lat="43.71655" lon="3.58069">
        <ele>243</ele>
        <time>2022-05-12T08:04:29.160Z</time>
      </trkpt>
      <trkpt lat="43.71655" lon="3.58074">
        <ele>243</ele>
        <time>2022-05-12T08:04:29.821Z</time>
      </trkpt>
      <trkpt lat="43.71656" lon="3.58079">
        <ele>243</ele>
        <time>2022-05-12T08:04:30.507Z</time>
      </trkpt>
      <trkpt lat="43.71658" lon="3.58085">
        <ele>243</ele>
        <time>2022-05-12T08:04:31.381Z</time>
      </trkpt>
      <trkpt lat="43.71659" lon="3.58091">
        <ele>243</ele>
        <time>2022-05-12T08:04:32.195Z</time>
      </trkpt>
      <trkpt lat="43.71659" lon="3.58095">
        <ele>243</ele>
        <time>2022-05-12T08:04:32.724Z</time>
      </trkpt>
      <trkpt lat="43.7166" lon="3.58099">
        <ele>238</ele>
        <time>2022-05-12T08:04:32.996Z</time>
      </trkpt>
      <trkpt lat="43.7166" lon="3.58102">
        <ele>238</ele>
        <time>2022-05-12T08:04:33.393Z</time>
      </trkpt>
      <trkpt lat="43.71658" lon="3.58104">
        <ele>238</ele>
        <time>2022-05-12T08:04:33.845Z</time>
      </trkpt>
      <trkpt lat="43.71656" lon="3.58107">
        <ele>238</ele>
        <time>2022-05-12T08:04:34.384Z</time>
      </trkpt>
      <trkpt lat="43.71654" lon="3.58108">
        <ele>238</ele>
        <time>2022-05-12T08:04:34.773Z</time>
      </trkpt>
      <trkpt lat="43.71651" lon="3.58109">
        <ele>238</ele>
        <time>2022-05-12T08:04:35.338Z</time>
      </trkpt>
      <trkpt lat="43.71649" lon="3.58109">
        <ele>238</ele>
        <time>2022-05-12T08:04:35.704Z</time>
      </trkpt>
      <trkpt lat="43.71646" lon="3.58109">
        <ele>238</ele>
        <time>2022-05-12T08:04:36.253Z</time>
      </trkpt>
      <trkpt lat="43.71644" lon="3.58108">
        <ele>238</ele>
        <time>2022-05-12T08:04:36.642Z</time>
      </trkpt>
      <trkpt lat="43.71642" lon="3.58106">
        <ele>238</ele>
        <time>2022-05-12T08:04:37.093Z</time>
      </trkpt>
      <trkpt lat="43.71639" lon="3.58105">
        <ele>232</ele>
        <time>2022-05-12T08:04:37.368Z</time>
      </trkpt>
      <trkpt lat="43.71636" lon="3.58104">
        <ele>232</ele>
        <time>2022-05-12T08:04:37.933Z</time>
      </trkpt>
      <trkpt lat="43.71632" lon="3.58103">
        <ele>232</ele>
        <time>2022-05-12T08:04:38.676Z</time>
      </trkpt>
      <trkpt lat="43.71629" lon="3.58101">
        <ele>232</ele>
        <time>2022-05-12T08:04:39.286Z</time>
      </trkpt>
      <trkpt lat="43.71624" lon="3.581">
        <ele>232</ele>
        <time>2022-05-12T08:04:40.210Z</time>
      </trkpt>
      <trkpt lat="43.7162" lon="3.58099">
        <ele>232</ele>
        <time>2022-05-12T08:04:40.954Z</time>
      </trkpt>
      <trkpt lat="43.71617" lon="3.58098">
        <ele>232</ele>
        <time>2022-05-12T08:04:41.518Z</time>
      </trkpt>
      <trkpt lat="43.71614" lon="3.58099">
        <ele>232</ele>
        <time>2022-05-12T08:04:42.083Z</time>
      </trkpt>
      <trkpt lat="43.71611" lon="3.58099">
        <ele>232</ele>
        <time>2022-05-12T08:04:42.632Z</time>
      </trkpt>
      <trkpt lat="43.71607" lon="3.58099">
        <ele>232</ele>
        <time>2022-05-12T08:04:43.363Z</time>
      </trkpt>
      <trkpt lat="43.71603" lon="3.58099">
        <ele>226</ele>
        <time>2022-05-12T08:04:43.720Z</time>
      </trkpt>
      <trkpt lat="43.71599" lon="3.58099">
        <ele>226</ele>
        <time>2022-05-12T08:04:44.451Z</time>
      </trkpt>
      <trkpt lat="43.71595" lon="3.58099">
        <ele>226</ele>
        <time>2022-05-12T08:04:45.183Z</time>
      </trkpt>
      <trkpt lat="43.71592" lon="3.581">
        <ele>226</ele>
        <time>2022-05-12T08:04:45.748Z</time>
      </trkpt>
      <trkpt lat="43.71588" lon="3.58101">
        <ele>226</ele>
        <time>2022-05-12T08:04:46.491Z</time>
      </trkpt>
      <trkpt lat="43.71584" lon="3.58103">
        <ele>226</ele>
        <time>2022-05-12T08:04:47.270Z</time>
      </trkpt>
      <trkpt lat="43.7158" lon="3.58102">
        <ele>226</ele>
        <time>2022-05-12T08:04:48.013Z</time>
      </trkpt>
      <trkpt lat="43.71576" lon="3.58101">
        <ele>226</ele>
        <time>2022-05-12T08:04:48.757Z</time>
      </trkpt>
      <trkpt lat="43.71571" lon="3.581">
        <ele>226</ele>
        <time>2022-05-12T08:04:49.681Z</time>
      </trkpt>
      <trkpt lat="43.71568" lon="3.58098">
        <ele>226</ele>
        <time>2022-05-12T08:04:50.291Z</time>
      </trkpt>
      <trkpt lat="43.71565" lon="3.58097">
        <ele>220</ele>
        <time>2022-05-12T08:04:50.565Z</time>
      </trkpt>
      <trkpt lat="43.71561" lon="3.58097">
        <ele>220</ele>
        <time>2022-05-12T08:04:51.297Z</time>
      </trkpt>
      <trkpt lat="43.71559" lon="3.58097">
        <ele>220</ele>
        <time>2022-05-12T08:04:51.663Z</time>
      </trkpt>
      <trkpt lat="43.71556" lon="3.581">
        <ele>220</ele>
        <time>2022-05-12T08:04:52.340Z</time>
      </trkpt>
      <trkpt lat="43.71554" lon="3.58104">
        <ele>220</ele>
        <time>2022-05-12T08:04:52.983Z</time>
      </trkpt>
      <trkpt lat="43.71553" lon="3.58109">
        <ele>220</ele>
        <time>2022-05-12T08:04:53.669Z</time>
      </trkpt>
      <trkpt lat="43.71551" lon="3.58115">
        <ele>220</ele>
        <time>2022-05-12T08:04:54.543Z</time>
      </trkpt>
      <trkpt lat="43.71549" lon="3.58119">
        <ele>220</ele>
        <time>2022-05-12T08:04:55.186Z</time>
      </trkpt>
      <trkpt lat="43.71546" lon="3.58122">
        <ele>220</ele>
        <time>2022-05-12T08:04:55.864Z</time>
      </trkpt>
      <trkpt lat="43.71543" lon="3.58122">
        <ele>220</ele>
        <time>2022-05-12T08:04:56.413Z</time>
      </trkpt>
      <trkpt lat="43.7154" lon="3.5812">
        <ele>220</ele>
        <time>2022-05-12T08:04:57.022Z</time>
      </trkpt>
      <trkpt lat="43.71539" lon="3.58118">
        <ele>213</ele>
        <time>2022-05-12T08:04:57.178Z</time>
      </trkpt>
      <trkpt lat="43.71536" lon="3.58117">
        <ele>213</ele>
        <time>2022-05-12T08:04:57.743Z</time>
      </trkpt>
      <trkpt lat="43.71533" lon="3.58115">
        <ele>213</ele>
        <time>2022-05-12T08:04:58.352Z</time>
      </trkpt>
      <trkpt lat="43.7153" lon="3.58112">
        <ele>213</ele>
        <time>2022-05-12T08:04:59.029Z</time>
      </trkpt>
      <trkpt lat="43.71528" lon="3.58107">
        <ele>213</ele>
        <time>2022-05-12T08:04:59.785Z</time>
      </trkpt>
      <trkpt lat="43.71527" lon="3.58103">
        <ele>213</ele>
        <time>2022-05-12T08:05:00.345Z</time>
      </trkpt>
      <trkpt lat="43.71525" lon="3.58099">
        <ele>213</ele>
        <time>2022-05-12T08:05:00.988Z</time>
      </trkpt>
      <trkpt lat="43.71524" lon="3.58094">
        <ele>213</ele>
        <time>2022-05-12T08:05:01.674Z</time>
      </trkpt>
      <trkpt lat="43.71524" lon="3.58088">
        <ele>213</ele>
        <time>2022-05-12T08:05:02.467Z</time>
      </trkpt>
      <trkpt lat="43.71525" lon="3.58083">
        <ele>207</ele>
        <time>2022-05-12T08:05:02.801Z</time>
      </trkpt>
      <trkpt lat="43.71525" lon="3.58079">
        <ele>207</ele>
        <time>2022-05-12T08:05:03.330Z</time>
      </trkpt>
      <trkpt lat="43.71524" lon="3.58074">
        <ele>207</ele>
        <time>2022-05-12T08:05:04.016Z</time>
      </trkpt>
      <trkpt lat="43.71523" lon="3.58069">
        <ele>207</ele>
        <time>2022-05-12T08:05:04.702Z</time>
      </trkpt>
      <trkpt lat="43.7152" lon="3.58064">
        <ele>207</ele>
        <time>2022-05-12T08:05:05.562Z</time>
      </trkpt>
      <trkpt lat="43.71518" lon="3.58061">
        <ele>207</ele>
        <time>2022-05-12T08:05:06.101Z</time>
      </trkpt>
      <trkpt lat="43.71515" lon="3.58059">
        <ele>207</ele>
        <time>2022-05-12T08:05:06.711Z</time>
      </trkpt>
      <trkpt lat="43.71513" lon="3.58059">
        <ele>207</ele>
        <time>2022-05-12T08:05:07.077Z</time>
      </trkpt>
      <trkpt lat="43.71511" lon="3.58061">
        <ele>207</ele>
        <time>2022-05-12T08:05:07.528Z</time>
      </trkpt>
      <trkpt lat="43.71508" lon="3.58064">
        <ele>207</ele>
        <time>2022-05-12T08:05:08.205Z</time>
      </trkpt>
      <trkpt lat="43.71505" lon="3.58069">
        <ele>204</ele>
        <time>2022-05-12T08:05:08.623Z</time>
      </trkpt>
      <trkpt lat="43.71503" lon="3.58073">
        <ele>204</ele>
        <time>2022-05-12T08:05:09.267Z</time>
      </trkpt>
      <trkpt lat="43.71502" lon="3.58077">
        <ele>204</ele>
        <time>2022-05-12T08:05:09.826Z</time>
      </trkpt>
      <trkpt lat="43.71501" lon="3.58082">
        <ele>204</ele>
        <time>2022-05-12T08:05:10.512Z</time>
      </trkpt>
      <trkpt lat="43.71499" lon="3.58088">
        <ele>204</ele>
        <time>2022-05-12T08:05:11.386Z</time>
      </trkpt>
      <trkpt lat="43.71498" lon="3.58094">
        <ele>204</ele>
        <time>2022-05-12T08:05:12.200Z</time>
      </trkpt>
      <trkpt lat="43.71496" lon="3.581">
        <ele>204</ele>
        <time>2022-05-12T08:05:13.074Z</time>
      </trkpt>
      <trkpt lat="43.71494" lon="3.58103">
        <ele>204</ele>
        <time>2022-05-12T08:05:13.614Z</time>
      </trkpt>
      <trkpt lat="43.71492" lon="3.58104">
        <ele>204</ele>
        <time>2022-05-12T08:05:14.003Z</time>
      </trkpt>
      <trkpt lat="43.7149" lon="3.581">
        <ele>197</ele>
        <time>2022-05-12T08:05:14.316Z</time>
      </trkpt>
      <trkpt lat="43.7149" lon="3.58097">
        <ele>197</ele>
        <time>2022-05-12T08:05:14.713Z</time>
      </trkpt>
      <trkpt lat="43.71491" lon="3.58094">
        <ele>197</ele>
        <time>2022-05-12T08:05:15.149Z</time>
      </trkpt>
      <trkpt lat="43.71492" lon="3.5809">
        <ele>197</ele>
        <time>2022-05-12T08:05:15.709Z</time>
      </trkpt>
      <trkpt lat="43.71491" lon="3.58087">
        <ele>197</ele>
        <time>2022-05-12T08:05:16.146Z</time>
      </trkpt>
      <trkpt lat="43.71489" lon="3.58084">
        <ele>197</ele>
        <time>2022-05-12T08:05:16.686Z</time>
      </trkpt>
      <trkpt lat="43.71487" lon="3.58081">
        <ele>197</ele>
        <time>2022-05-12T08:05:17.225Z</time>
      </trkpt>
      <trkpt lat="43.71482" lon="3.58079">
        <ele>197</ele>
        <time>2022-05-12T08:05:18.178Z</time>
      </trkpt>
      <trkpt lat="43.71478" lon="3.58077">
        <ele>197</ele>
        <time>2022-05-12T08:05:18.956Z</time>
      </trkpt>
      <trkpt lat="43.71474" lon="3.58077">
        <ele>197</ele>
        <time>2022-05-12T08:05:19.688Z</time>
      </trkpt>
      <trkpt lat="43.7147" lon="3.58077">
        <ele>193</ele>
        <time>2022-05-12T08:05:20.044Z</time>
      </trkpt>
      <trkpt lat="43.71468" lon="3.58078">
        <ele>193</ele>
        <time>2022-05-12T08:05:20.433Z</time>
      </trkpt>
      <trkpt lat="43.71465" lon="3.58077">
        <ele>193</ele>
        <time>2022-05-12T08:05:20.997Z</time>
      </trkpt>
      <trkpt lat="43.71467" lon="3.58079">
        <ele>193</ele>
        <time>2022-05-12T08:05:21.449Z</time>
      </trkpt>
      <trkpt lat="43.71469" lon="3.5808">
        <ele>191</ele>
        <time>2022-05-12T08:05:21.638Z</time>
      </trkpt>
      <trkpt lat="43.71471" lon="3.58079">
        <ele>191</ele>
        <time>2022-05-12T08:05:22.027Z</time>
      </trkpt>
      <trkpt lat="43.71471" lon="3.5808">
        <ele>189</ele>
        <time>2022-05-12T08:05:22.092Z</time>
      </trkpt>
      <trkpt lat="43.71454" lon="3.58078">
        <ele>182</ele>
        <time>2022-05-12T08:05:23.611Z</time>
      </trkpt>
      <trkpt lat="43.71451" lon="3.58077">
        <ele>182</ele>
        <time>2022-05-12T08:05:24.175Z</time>
      </trkpt>
      <trkpt lat="43.71448" lon="3.58074">
        <ele>182</ele>
        <time>2022-05-12T08:05:24.852Z</time>
      </trkpt>
      <trkpt lat="43.71445" lon="3.58072">
        <ele>182</ele>
        <time>2022-05-12T08:05:25.462Z</time>
      </trkpt>
      <trkpt lat="43.71442" lon="3.58068">
        <ele>182</ele>
        <time>2022-05-12T08:05:26.224Z</time>
      </trkpt>
      <trkpt lat="43.71439" lon="3.58065">
        <ele>182</ele>
        <time>2022-05-12T08:05:26.901Z</time>
      </trkpt>
      <trkpt lat="43.71435" lon="3.58061">
        <ele>182</ele>
        <time>2022-05-12T08:05:27.804Z</time>
      </trkpt>
      <trkpt lat="43.71432" lon="3.58056">
        <ele>182</ele>
        <time>2022-05-12T08:05:28.664Z</time>
      </trkpt>
      <trkpt lat="43.7143" lon="3.58051">
        <ele>182</ele>
        <time>2022-05-12T08:05:29.419Z</time>
      </trkpt>
      <trkpt lat="43.71428" lon="3.58046">
        <ele>182</ele>
        <time>2022-05-12T08:05:30.175Z</time>
      </trkpt>
      <trkpt lat="43.71426" lon="3.58041">
        <ele>177</ele>
        <time>2022-05-12T08:05:30.543Z</time>
      </trkpt>
      <trkpt lat="43.71424" lon="3.58037">
        <ele>177</ele>
        <time>2022-05-12T08:05:31.186Z</time>
      </trkpt>
      <trkpt lat="43.71422" lon="3.58032">
        <ele>177</ele>
        <time>2022-05-12T08:05:31.942Z</time>
      </trkpt>
      <trkpt lat="43.71421" lon="3.58027">
        <ele>177</ele>
        <time>2022-05-12T08:05:32.628Z</time>
      </trkpt>
      <trkpt lat="43.71419" lon="3.58022">
        <ele>177</ele>
        <time>2022-05-12T08:05:33.383Z</time>
      </trkpt>
      <trkpt lat="43.71417" lon="3.58017">
        <ele>177</ele>
        <time>2022-05-12T08:05:34.139Z</time>
      </trkpt>
      <trkpt lat="43.71415" lon="3.58012">
        <ele>177</ele>
        <time>2022-05-12T08:05:34.895Z</time>
      </trkpt>
      <trkpt lat="43.71413" lon="3.58007">
        <ele>177</ele>
        <time>2022-05-12T08:05:35.650Z</time>
      </trkpt>
      <trkpt lat="43.71412" lon="3.58001">
        <ele>177</ele>
        <time>2022-05-12T08:05:36.465Z</time>
      </trkpt>
      <trkpt lat="43.71411" lon="3.57996">
        <ele>177</ele>
        <time>2022-05-12T08:05:37.151Z</time>
      </trkpt>
      <trkpt lat="43.71411" lon="3.57991">
        <ele>173</ele>
        <time>2022-05-12T08:05:37.473Z</time>
      </trkpt>
      <trkpt lat="43.7141" lon="3.57988">
        <ele>173</ele>
        <time>2022-05-12T08:05:37.909Z</time>
      </trkpt>
      <trkpt lat="43.71409" lon="3.57986">
        <ele>173</ele>
        <time>2022-05-12T08:05:38.231Z</time>
      </trkpt>
      <trkpt lat="43.71407" lon="3.57983">
        <ele>173</ele>
        <time>2022-05-12T08:05:38.771Z</time>
      </trkpt>
      <trkpt lat="43.71406" lon="3.57985">
        <ele>173</ele>
        <time>2022-05-12T08:05:39.092Z</time>
      </trkpt>
      <trkpt lat="43.71406" lon="3.57988">
        <ele>173</ele>
        <time>2022-05-12T08:05:39.489Z</time>
      </trkpt>
      <trkpt lat="43.71406" lon="3.57991">
        <ele>170</ele>
        <time>2022-05-12T08:05:39.682Z</time>
      </trkpt>
      <trkpt lat="43.71406" lon="3.57994">
        <ele>170</ele>
        <time>2022-05-12T08:05:40.079Z</time>
      </trkpt>
      <trkpt lat="43.71406" lon="3.57996">
        <ele>170</ele>
        <time>2022-05-12T08:05:40.343Z</time>
      </trkpt>
      <trkpt lat="43.71406" lon="3.57999">
        <ele>170</ele>
        <time>2022-05-12T08:05:40.740Z</time>
      </trkpt>
      <trkpt lat="43.71407" lon="3.58003">
        <ele>170</ele>
        <time>2022-05-12T08:05:41.300Z</time>
      </trkpt>
      <trkpt lat="43.71408" lon="3.58005">
        <ele>170</ele>
        <time>2022-05-12T08:05:41.621Z</time>
      </trkpt>
      <trkpt lat="43.71408" lon="3.5801">
        <ele>170</ele>
        <time>2022-05-12T08:05:42.283Z</time>
      </trkpt>
      <trkpt lat="43.71407" lon="3.58013">
        <ele>169</ele>
        <time>2022-05-12T08:05:42.495Z</time>
      </trkpt>
      <trkpt lat="43.71405" lon="3.58016">
        <ele>169</ele>
        <time>2022-05-12T08:05:43.035Z</time>
      </trkpt>
      <trkpt lat="43.71402" lon="3.58019">
        <ele>169</ele>
        <time>2022-05-12T08:05:43.712Z</time>
      </trkpt>
      <trkpt lat="43.71401" lon="3.58023">
        <ele>169</ele>
        <time>2022-05-12T08:05:44.272Z</time>
      </trkpt>
      <trkpt lat="43.714" lon="3.58025">
        <ele>169</ele>
        <time>2022-05-12T08:05:44.593Z</time>
      </trkpt>
      <trkpt lat="43.71399" lon="3.58028">
        <ele>169</ele>
        <time>2022-05-12T08:05:45.030Z</time>
      </trkpt>
      <trkpt lat="43.71399" lon="3.58032">
        <ele>169</ele>
        <time>2022-05-12T08:05:45.559Z</time>
      </trkpt>
      <trkpt lat="43.71399" lon="3.58035">
        <ele>168</ele>
        <time>2022-05-12T08:05:45.752Z</time>
      </trkpt>
      <trkpt lat="43.71399" lon="3.58039">
        <ele>168</ele>
        <time>2022-05-12T08:05:46.281Z</time>
      </trkpt>
      <trkpt lat="43.71399" lon="3.58042">
        <ele>168</ele>
        <time>2022-05-12T08:05:46.678Z</time>
      </trkpt>
      <trkpt lat="43.71399" lon="3.58047">
        <ele>168</ele>
        <time>2022-05-12T08:05:47.339Z</time>
      </trkpt>
      <trkpt lat="43.71399" lon="3.5805">
        <ele>168</ele>
        <time>2022-05-12T08:05:47.736Z</time>
      </trkpt>
      <trkpt lat="43.71398" lon="3.58054">
        <ele>168</ele>
        <time>2022-05-12T08:05:48.296Z</time>
      </trkpt>
      <trkpt lat="43.71397" lon="3.58058">
        <ele>168</ele>
        <time>2022-05-12T08:05:48.855Z</time>
      </trkpt>
      <trkpt lat="43.71396" lon="3.58061">
        <ele>168</ele>
        <time>2022-05-12T08:05:49.292Z</time>
      </trkpt>
      <trkpt lat="43.71394" lon="3.58065">
        <ele>168</ele>
        <time>2022-05-12T08:05:49.935Z</time>
      </trkpt>
      <trkpt lat="43.71391" lon="3.58067">
        <ele>168</ele>
        <time>2022-05-12T08:05:50.545Z</time>
      </trkpt>
      <trkpt lat="43.71388" lon="3.58067">
        <ele>166</ele>
        <time>2022-05-12T08:05:50.812Z</time>
      </trkpt>
      <trkpt lat="43.71385" lon="3.58068">
        <ele>166</ele>
        <time>2022-05-12T08:05:51.376Z</time>
      </trkpt>
      <trkpt lat="43.71381" lon="3.58071">
        <ele>166</ele>
        <time>2022-05-12T08:05:52.209Z</time>
      </trkpt>
      <trkpt lat="43.71378" lon="3.58074">
        <ele>166</ele>
        <time>2022-05-12T08:05:52.886Z</time>
      </trkpt>
      <trkpt lat="43.71374" lon="3.58076">
        <ele>166</ele>
        <time>2022-05-12T08:05:53.664Z</time>
      </trkpt>
      <trkpt lat="43.71371" lon="3.58079">
        <ele>166</ele>
        <time>2022-05-12T08:05:54.341Z</time>
      </trkpt>
      <trkpt lat="43.71367" lon="3.58084">
        <ele>166</ele>
        <time>2022-05-12T08:05:55.328Z</time>
      </trkpt>
      <trkpt lat="43.71363" lon="3.58088">
        <ele>166</ele>
        <time>2022-05-12T08:05:56.231Z</time>
      </trkpt>
      <trkpt lat="43.7136" lon="3.58092">
        <ele>166</ele>
        <time>2022-05-12T08:05:56.993Z</time>
      </trkpt>
      <trkpt lat="43.71356" lon="3.58096">
        <ele>166</ele>
        <time>2022-05-12T08:05:57.896Z</time>
      </trkpt>
      <trkpt lat="43.71352" lon="3.58098">
        <ele>154</ele>
        <time>2022-05-12T08:05:58.275Z</time>
      </trkpt>
      <trkpt lat="43.71348" lon="3.58098">
        <ele>154</ele>
        <time>2022-05-12T08:05:59.006Z</time>
      </trkpt>
      <trkpt lat="43.71344" lon="3.58095">
        <ele>154</ele>
        <time>2022-05-12T08:05:59.839Z</time>
      </trkpt>
      <trkpt lat="43.7134" lon="3.5809">
        <ele>154</ele>
        <time>2022-05-12T08:06:00.825Z</time>
      </trkpt>
      <trkpt lat="43.71336" lon="3.58084">
        <ele>154</ele>
        <time>2022-05-12T08:06:01.905Z</time>
      </trkpt>
      <trkpt lat="43.71332" lon="3.58078">
        <ele>154</ele>
        <time>2022-05-12T08:06:02.984Z</time>
      </trkpt>
      <trkpt lat="43.71328" lon="3.58072">
        <ele>154</ele>
        <time>2022-05-12T08:06:04.064Z</time>
      </trkpt>
      <trkpt lat="43.71324" lon="3.58066">
        <ele>154</ele>
        <time>2022-05-12T08:06:05.143Z</time>
      </trkpt>
      <trkpt lat="43.71319" lon="3.58061">
        <ele>154</ele>
        <time>2022-05-12T08:06:06.272Z</time>
      </trkpt>
      <trkpt lat="43.71315" lon="3.58057">
        <ele>154</ele>
        <time>2022-05-12T08:06:07.175Z</time>
      </trkpt>
      <trkpt lat="43.71311" lon="3.58052">
        <ele>150</ele>
        <time>2022-05-12T08:06:07.655Z</time>
      </trkpt>
      <trkpt lat="43.71308" lon="3.58048">
        <ele>150</ele>
        <time>2022-05-12T08:06:08.417Z</time>
      </trkpt>
      <trkpt lat="43.71305" lon="3.58044">
        <ele>150</ele>
        <time>2022-05-12T08:06:09.179Z</time>
      </trkpt>
      <trkpt lat="43.71302" lon="3.58041">
        <ele>150</ele>
        <time>2022-05-12T08:06:09.856Z</time>
      </trkpt>
      <trkpt lat="43.713" lon="3.58038">
        <ele>150</ele>
        <time>2022-05-12T08:06:10.396Z</time>
      </trkpt>
      <trkpt lat="43.71297" lon="3.58035">
        <ele>150</ele>
        <time>2022-05-12T08:06:11.073Z</time>
      </trkpt>
      <trkpt lat="43.71295" lon="3.58032">
        <ele>150</ele>
        <time>2022-05-12T08:06:11.613Z</time>
      </trkpt>
      <trkpt lat="43.71293" lon="3.58029">
        <ele>150</ele>
        <time>2022-05-12T08:06:12.153Z</time>
      </trkpt>
      <trkpt lat="43.71291" lon="3.58027">
        <ele>150</ele>
        <time>2022-05-12T08:06:12.604Z</time>
      </trkpt>
      <trkpt lat="43.71289" lon="3.58025">
        <ele>150</ele>
        <time>2022-05-12T08:06:13.056Z</time>
      </trkpt>
      <trkpt lat="43.71287" lon="3.58022">
        <ele>148</ele>
        <time>2022-05-12T08:06:13.318Z</time>
      </trkpt>
      <trkpt lat="43.71284" lon="3.58021">
        <ele>148</ele>
        <time>2022-05-12T08:06:13.883Z</time>
      </trkpt>
      <trkpt lat="43.71282" lon="3.58024">
        <ele>148</ele>
        <time>2022-05-12T08:06:14.423Z</time>
      </trkpt>
      <trkpt lat="43.71281" lon="3.58026">
        <ele>148</ele>
        <time>2022-05-12T08:06:14.744Z</time>
      </trkpt>
      <trkpt lat="43.71279" lon="3.5803">
        <ele>148</ele>
        <time>2022-05-12T08:06:15.388Z</time>
      </trkpt>
      <trkpt lat="43.71278" lon="3.58035">
        <ele>148</ele>
        <time>2022-05-12T08:06:16.074Z</time>
      </trkpt>
      <trkpt lat="43.71276" lon="3.58039">
        <ele>148</ele>
        <time>2022-05-12T08:06:16.717Z</time>
      </trkpt>
      <trkpt lat="43.71275" lon="3.58044">
        <ele>144</ele>
        <time>2022-05-12T08:06:17.051Z</time>
      </trkpt>
      <trkpt lat="43.71273" lon="3.58049">
        <ele>144</ele>
        <time>2022-05-12T08:06:17.806Z</time>
      </trkpt>
      <trkpt lat="43.7127" lon="3.58055">
        <ele>144</ele>
        <time>2022-05-12T08:06:18.771Z</time>
      </trkpt>
      <trkpt lat="43.71267" lon="3.58062">
        <ele>144</ele>
        <time>2022-05-12T08:06:19.847Z</time>
      </trkpt>
      <trkpt lat="43.71264" lon="3.5807">
        <ele>144</ele>
        <time>2022-05-12T08:06:21.039Z</time>
      </trkpt>
      <trkpt lat="43.71261" lon="3.58078">
        <ele>144</ele>
        <time>2022-05-12T08:06:22.231Z</time>
      </trkpt>
      <trkpt lat="43.71256" lon="3.58087">
        <ele>144</ele>
        <time>2022-05-12T08:06:23.732Z</time>
      </trkpt>
      <trkpt lat="43.71252" lon="3.58096">
        <ele>144</ele>
        <time>2022-05-12T08:06:25.129Z</time>
      </trkpt>
      <trkpt lat="43.71247" lon="3.58105">
        <ele>144</ele>
        <time>2022-05-12T08:06:26.631Z</time>
      </trkpt>
      <trkpt lat="43.71243" lon="3.58114">
        <ele>144</ele>
        <time>2022-05-12T08:06:28.028Z</time>
      </trkpt>
      <trkpt lat="43.71239" lon="3.58123">
        <ele>137</ele>
        <time>2022-05-12T08:06:28.708Z</time>
      </trkpt>
      <trkpt lat="43.71234" lon="3.58131">
        <ele>137</ele>
        <time>2022-05-12T08:06:30.106Z</time>
      </trkpt>
      <trkpt lat="43.71228" lon="3.58139">
        <ele>137</ele>
        <time>2022-05-12T08:06:31.631Z</time>
      </trkpt>
      <trkpt lat="43.71222" lon="3.58147">
        <ele>137</ele>
        <time>2022-05-12T08:06:33.155Z</time>
      </trkpt>
      <trkpt lat="43.71214" lon="3.58153">
        <ele>137</ele>
        <time>2022-05-12T08:06:34.820Z</time>
      </trkpt>
      <trkpt lat="43.71205" lon="3.58158">
        <ele>137</ele>
        <time>2022-05-12T08:06:36.595Z</time>
      </trkpt>
      <trkpt lat="43.71197" lon="3.58163">
        <ele>137</ele>
        <time>2022-05-12T08:06:38.201Z</time>
      </trkpt>
      <trkpt lat="43.71188" lon="3.58168">
        <ele>137</ele>
        <time>2022-05-12T08:06:39.975Z</time>
      </trkpt>
      <trkpt lat="43.71179" lon="3.58172">
        <ele>137</ele>
        <time>2022-05-12T08:06:41.705Z</time>
      </trkpt>
      <trkpt lat="43.71171" lon="3.58176">
        <ele>137</ele>
        <time>2022-05-12T08:06:43.261Z</time>
      </trkpt>
      <trkpt lat="43.71163" lon="3.5818">
        <ele>128</ele>
        <time>2022-05-12T08:06:44.018Z</time>
      </trkpt>
      <trkpt lat="43.71155" lon="3.58183">
        <ele>128</ele>
        <time>2022-05-12T08:06:45.535Z</time>
      </trkpt>
      <trkpt lat="43.71146" lon="3.58185">
        <ele>128</ele>
        <time>2022-05-12T08:06:47.203Z</time>
      </trkpt>
      <trkpt lat="43.71138" lon="3.58186">
        <ele>128</ele>
        <time>2022-05-12T08:06:48.672Z</time>
      </trkpt>
      <trkpt lat="43.71129" lon="3.58187">
        <ele>128</ele>
        <time>2022-05-12T08:06:50.324Z</time>
      </trkpt>
      <trkpt lat="43.71122" lon="3.58188">
        <ele>128</ele>
        <time>2022-05-12T08:06:51.612Z</time>
      </trkpt>
      <trkpt lat="43.71117" lon="3.58188">
        <ele>128</ele>
        <time>2022-05-12T08:06:52.527Z</time>
      </trkpt>
      <trkpt lat="43.71114" lon="3.58188">
        <ele>128</ele>
        <time>2022-05-12T08:06:53.075Z</time>
      </trkpt>
      <trkpt lat="43.71111" lon="3.58187">
        <ele>128</ele>
        <time>2022-05-12T08:06:53.640Z</time>
      </trkpt>
      <trkpt lat="43.71109" lon="3.58184">
        <ele>128</ele>
        <time>2022-05-12T08:06:54.180Z</time>
      </trkpt>
      <trkpt lat="43.71107" lon="3.58179">
        <ele>121</ele>
        <time>2022-05-12T08:06:54.547Z</time>
      </trkpt>
      <trkpt lat="43.71105" lon="3.58173">
        <ele>121</ele>
        <time>2022-05-12T08:06:55.421Z</time>
      </trkpt>
      <trkpt lat="43.71103" lon="3.58166">
        <ele>121</ele>
        <time>2022-05-12T08:06:56.417Z</time>
      </trkpt>
      <trkpt lat="43.71099" lon="3.58158">
        <ele>121</ele>
        <time>2022-05-12T08:06:57.703Z</time>
      </trkpt>
      <trkpt lat="43.71096" lon="3.58151">
        <ele>121</ele>
        <time>2022-05-12T08:06:58.779Z</time>
      </trkpt>
      <trkpt lat="43.71092" lon="3.58143">
        <ele>121</ele>
        <time>2022-05-12T08:07:00.066Z</time>
      </trkpt>
      <trkpt lat="43.71088" lon="3.58136">
        <ele>121</ele>
        <time>2022-05-12T08:07:01.246Z</time>
      </trkpt>
      <trkpt lat="43.71085" lon="3.58127">
        <ele>121</ele>
        <time>2022-05-12T08:07:02.557Z</time>
      </trkpt>
      <trkpt lat="43.71083" lon="3.58118">
        <ele>121</ele>
        <time>2022-05-12T08:07:03.802Z</time>
      </trkpt>
      <trkpt lat="43.71081" lon="3.5811">
        <ele>121</ele>
        <time>2022-05-12T08:07:04.921Z</time>
      </trkpt>
      <trkpt lat="43.71079" lon="3.58101">
        <ele>119</ele>
        <time>2022-05-12T08:07:05.527Z</time>
      </trkpt>
      <trkpt lat="43.71078" lon="3.58093">
        <ele>119</ele>
        <time>2022-05-12T08:07:06.601Z</time>
      </trkpt>
      <trkpt lat="43.71076" lon="3.58085">
        <ele>119</ele>
        <time>2022-05-12T08:07:07.720Z</time>
      </trkpt>
      <trkpt lat="43.71074" lon="3.58077">
        <ele>119</ele>
        <time>2022-05-12T08:07:08.840Z</time>
      </trkpt>
      <trkpt lat="43.71071" lon="3.58069">
        <ele>119</ele>
        <time>2022-05-12T08:07:10.032Z</time>
      </trkpt>
      <trkpt lat="43.71068" lon="3.58061">
        <ele>119</ele>
        <time>2022-05-12T08:07:11.224Z</time>
      </trkpt>
      <trkpt lat="43.71065" lon="3.58052">
        <ele>119</ele>
        <time>2022-05-12T08:07:12.534Z</time>
      </trkpt>
      <trkpt lat="43.71062" lon="3.58043">
        <ele>119</ele>
        <time>2022-05-12T08:07:13.845Z</time>
      </trkpt>
      <trkpt lat="43.71059" lon="3.58034">
        <ele>119</ele>
        <time>2022-05-12T08:07:15.156Z</time>
      </trkpt>
      <trkpt lat="43.71057" lon="3.58025">
        <ele>119</ele>
        <time>2022-05-12T08:07:16.401Z</time>
      </trkpt>
      <trkpt lat="43.71053" lon="3.58016">
        <ele>118</ele>
        <time>2022-05-12T08:07:17.081Z</time>
      </trkpt>
      <trkpt lat="43.7105" lon="3.58007">
        <ele>118</ele>
        <time>2022-05-12T08:07:18.392Z</time>
      </trkpt>
      <trkpt lat="43.71047" lon="3.57998">
        <ele>118</ele>
        <time>2022-05-12T08:07:19.702Z</time>
      </trkpt>
      <trkpt lat="43.71044" lon="3.57988">
        <ele>118</ele>
        <time>2022-05-12T08:07:21.134Z</time>
      </trkpt>
      <trkpt lat="43.71041" lon="3.57979">
        <ele>118</ele>
        <time>2022-05-12T08:07:22.445Z</time>
      </trkpt>
      <trkpt lat="43.71038" lon="3.57971">
        <ele>118</ele>
        <time>2022-05-12T08:07:23.637Z</time>
      </trkpt>
      <trkpt lat="43.71033" lon="3.57962">
        <ele>118</ele>
        <time>2022-05-12T08:07:25.138Z</time>
      </trkpt>
      <trkpt lat="43.71029" lon="3.57954">
        <ele>118</ele>
        <time>2022-05-12T08:07:26.424Z</time>
      </trkpt>
      <trkpt lat="43.71024" lon="3.57946">
        <ele>118</ele>
        <time>2022-05-12T08:07:27.823Z</time>
      </trkpt>
      <trkpt lat="43.71019" lon="3.57938">
        <ele>118</ele>
        <time>2022-05-12T08:07:29.222Z</time>
      </trkpt>
      <trkpt lat="43.71013" lon="3.5793">
        <ele>115</ele>
        <time>2022-05-12T08:07:29.964Z</time>
      </trkpt>
      <trkpt lat="43.71008" lon="3.57921">
        <ele>115</ele>
        <time>2022-05-12T08:07:31.465Z</time>
      </trkpt>
      <trkpt lat="43.71002" lon="3.57912">
        <ele>115</ele>
        <time>2022-05-12T08:07:33.084Z</time>
      </trkpt>
      <trkpt lat="43.70995" lon="3.57904">
        <ele>115</ele>
        <time>2022-05-12T08:07:34.745Z</time>
      </trkpt>
      <trkpt lat="43.70988" lon="3.57897">
        <ele>115</ele>
        <time>2022-05-12T08:07:36.325Z</time>
      </trkpt>
      <trkpt lat="43.70982" lon="3.5789">
        <ele>115</ele>
        <time>2022-05-12T08:07:37.761Z</time>
      </trkpt>
      <trkpt lat="43.70976" lon="3.57883">
        <ele>115</ele>
        <time>2022-05-12T08:07:39.197Z</time>
      </trkpt>
      <trkpt lat="43.7097" lon="3.57875">
        <ele>115</ele>
        <time>2022-05-12T08:07:40.722Z</time>
      </trkpt>
      <trkpt lat="43.70964" lon="3.57865">
        <ele>115</ele>
        <time>2022-05-12T08:07:42.441Z</time>
      </trkpt>
      <trkpt lat="43.70958" lon="3.57856">
        <ele>115</ele>
        <time>2022-05-12T08:07:44.060Z</time>
      </trkpt>
      <trkpt lat="43.70952" lon="3.57847">
        <ele>110</ele>
        <time>2022-05-12T08:07:44.848Z</time>
      </trkpt>
      <trkpt lat="43.70947" lon="3.57837">
        <ele>110</ele>
        <time>2022-05-12T08:07:46.456Z</time>
      </trkpt>
      <trkpt lat="43.70942" lon="3.57827">
        <ele>110</ele>
        <time>2022-05-12T08:07:48.064Z</time>
      </trkpt>
      <trkpt lat="43.70938" lon="3.57817">
        <ele>110</ele>
        <time>2022-05-12T08:07:49.575Z</time>
      </trkpt>
      <trkpt lat="43.70933" lon="3.57808">
        <ele>110</ele>
        <time>2022-05-12T08:07:51.077Z</time>
      </trkpt>
      <trkpt lat="43.70929" lon="3.57798">
        <ele>110</ele>
        <time>2022-05-12T08:07:52.588Z</time>
      </trkpt>
      <trkpt lat="43.70925" lon="3.57788">
        <ele>110</ele>
        <time>2022-05-12T08:07:54.100Z</time>
      </trkpt>
      <trkpt lat="43.70921" lon="3.57778">
        <ele>110</ele>
        <time>2022-05-12T08:07:55.611Z</time>
      </trkpt>
      <trkpt lat="43.70917" lon="3.57768">
        <ele>110</ele>
        <time>2022-05-12T08:07:57.123Z</time>
      </trkpt>
      <trkpt lat="43.70914" lon="3.57757">
        <ele>110</ele>
        <time>2022-05-12T08:07:58.678Z</time>
      </trkpt>
      <trkpt lat="43.7091" lon="3.57746">
        <ele>105</ele>
        <time>2022-05-12T08:07:59.470Z</time>
      </trkpt>
      <trkpt lat="43.70907" lon="3.57735">
        <ele>105</ele>
        <time>2022-05-12T08:08:01.025Z</time>
      </trkpt>
      <trkpt lat="43.70903" lon="3.57725">
        <ele>105</ele>
        <time>2022-05-12T08:08:02.536Z</time>
      </trkpt>
      <trkpt lat="43.70899" lon="3.57717">
        <ele>105</ele>
        <time>2022-05-12T08:08:03.823Z</time>
      </trkpt>
      <trkpt lat="43.70896" lon="3.57708">
        <ele>105</ele>
        <time>2022-05-12T08:08:05.134Z</time>
      </trkpt>
      <trkpt lat="43.70893" lon="3.577">
        <ele>105</ele>
        <time>2022-05-12T08:08:06.325Z</time>
      </trkpt>
      <trkpt lat="43.70891" lon="3.57691">
        <ele>105</ele>
        <time>2022-05-12T08:08:07.571Z</time>
      </trkpt>
      <trkpt lat="43.70889" lon="3.57682">
        <ele>105</ele>
        <time>2022-05-12T08:08:08.816Z</time>
      </trkpt>
      <trkpt lat="43.70886" lon="3.57673">
        <ele>105</ele>
        <time>2022-05-12T08:08:10.127Z</time>
      </trkpt>
      <trkpt lat="43.70883" lon="3.57664">
        <ele>105</ele>
        <time>2022-05-12T08:08:11.437Z</time>
      </trkpt>
      <trkpt lat="43.7088" lon="3.57655">
        <ele>105</ele>
        <time>2022-05-12T08:08:12.748Z</time>
      </trkpt>
      <trkpt lat="43.70876" lon="3.57647">
        <ele>105</ele>
        <time>2022-05-12T08:08:14.035Z</time>
      </trkpt>
      <trkpt lat="43.70871" lon="3.57639">
        <ele>105</ele>
        <time>2022-05-12T08:08:15.433Z</time>
      </trkpt>
      <trkpt lat="43.70868" lon="3.5763">
        <ele>105</ele>
        <time>2022-05-12T08:08:16.744Z</time>
      </trkpt>
      <trkpt lat="43.70865" lon="3.57621">
        <ele>105</ele>
        <time>2022-05-12T08:08:18.055Z</time>
      </trkpt>
      <trkpt lat="43.70863" lon="3.57612">
        <ele>105</ele>
        <time>2022-05-12T08:08:19.300Z</time>
      </trkpt>
      <trkpt lat="43.70861" lon="3.57603">
        <ele>105</ele>
        <time>2022-05-12T08:08:20.545Z</time>
      </trkpt>
      <trkpt lat="43.7086" lon="3.57594">
        <ele>105</ele>
        <time>2022-05-12T08:08:21.750Z</time>
      </trkpt>
      <trkpt lat="43.70859" lon="3.57584">
        <ele>105</ele>
        <time>2022-05-12T08:08:23.085Z</time>
      </trkpt>
      <trkpt lat="43.70859" lon="3.57575">
        <ele>105</ele>
        <time>2022-05-12T08:08:24.275Z</time>
      </trkpt>
      <trkpt lat="43.70859" lon="3.57566">
        <ele>105</ele>
        <time>2022-05-12T08:08:25.465Z</time>
      </trkpt>
      <trkpt lat="43.7086" lon="3.57558">
        <ele>105</ele>
        <time>2022-05-12T08:08:26.539Z</time>
      </trkpt>
      <trkpt lat="43.70861" lon="3.5755">
        <ele>105</ele>
        <time>2022-05-12T08:08:27.613Z</time>
      </trkpt>
      <trkpt lat="43.70861" lon="3.57542">
        <ele>105</ele>
        <time>2022-05-12T08:08:28.671Z</time>
      </trkpt>
      <trkpt lat="43.7086" lon="3.57535">
        <ele>105</ele>
        <time>2022-05-12T08:08:29.614Z</time>
      </trkpt>
      <trkpt lat="43.70858" lon="3.57528">
        <ele>105</ele>
        <time>2022-05-12T08:08:30.610Z</time>
      </trkpt>
      <trkpt lat="43.70855" lon="3.5752">
        <ele>105</ele>
        <time>2022-05-12T08:08:31.802Z</time>
      </trkpt>
      <trkpt lat="43.70852" lon="3.57513">
        <ele>105</ele>
        <time>2022-05-12T08:08:32.878Z</time>
      </trkpt>
      <trkpt lat="43.7085" lon="3.57505">
        <ele>105</ele>
        <time>2022-05-12T08:08:33.998Z</time>
      </trkpt>
      <trkpt lat="43.70847" lon="3.57496">
        <ele>105</ele>
        <time>2022-05-12T08:08:35.308Z</time>
      </trkpt>
      <trkpt lat="43.70846" lon="3.57489">
        <ele>105</ele>
        <time>2022-05-12T08:08:36.252Z</time>
      </trkpt>
      <trkpt lat="43.70846" lon="3.57481">
        <ele>105</ele>
        <time>2022-05-12T08:08:37.310Z</time>
      </trkpt>
      <trkpt lat="43.70848" lon="3.57474">
        <ele>105</ele>
        <time>2022-05-12T08:08:38.306Z</time>
      </trkpt>
      <trkpt lat="43.7085" lon="3.57467">
        <ele>105</ele>
        <time>2022-05-12T08:08:39.301Z</time>
      </trkpt>
      <trkpt lat="43.70853" lon="3.57459">
        <ele>105</ele>
        <time>2022-05-12T08:08:40.493Z</time>
      </trkpt>
      <trkpt lat="43.70854" lon="3.5745">
        <ele>105</ele>
        <time>2022-05-12T08:08:41.697Z</time>
      </trkpt>
      <trkpt lat="43.70855" lon="3.5744">
        <ele>105</ele>
        <time>2022-05-12T08:08:43.032Z</time>
      </trkpt>
      <trkpt lat="43.70854" lon="3.57429">
        <ele>105</ele>
        <time>2022-05-12T08:08:44.499Z</time>
      </trkpt>
      <trkpt lat="43.70851" lon="3.57419">
        <ele>105</ele>
        <time>2022-05-12T08:08:45.931Z</time>
      </trkpt>
      <trkpt lat="43.70848" lon="3.57409">
        <ele>105</ele>
        <time>2022-05-12T08:08:47.362Z</time>
      </trkpt>
      <trkpt lat="43.70845" lon="3.57399">
        <ele>102</ele>
        <time>2022-05-12T08:08:48.059Z</time>
      </trkpt>
      <trkpt lat="43.70843" lon="3.5739">
        <ele>102</ele>
        <time>2022-05-12T08:08:49.304Z</time>
      </trkpt>
      <trkpt lat="43.70843" lon="3.57379">
        <ele>102</ele>
        <time>2022-05-12T08:08:50.759Z</time>
      </trkpt>
      <trkpt lat="43.70844" lon="3.57369">
        <ele>102</ele>
        <time>2022-05-12T08:08:52.094Z</time>
      </trkpt>
      <trkpt lat="43.70845" lon="3.57359">
        <ele>102</ele>
        <time>2022-05-12T08:08:53.430Z</time>
      </trkpt>
      <trkpt lat="43.70846" lon="3.57349">
        <ele>102</ele>
        <time>2022-05-12T08:08:54.765Z</time>
      </trkpt>
      <trkpt lat="43.70848" lon="3.57339">
        <ele>102</ele>
        <time>2022-05-12T08:08:56.137Z</time>
      </trkpt>
      <trkpt lat="43.70849" lon="3.57329">
        <ele>102</ele>
        <time>2022-05-12T08:08:57.472Z</time>
      </trkpt>
      <trkpt lat="43.70849" lon="3.57319">
        <ele>102</ele>
        <time>2022-05-12T08:08:58.795Z</time>
      </trkpt>
      <trkpt lat="43.7085" lon="3.5731">
        <ele>102</ele>
        <time>2022-05-12T08:08:59.999Z</time>
      </trkpt>
      <trkpt lat="43.70849" lon="3.57301">
        <ele>99</ele>
        <time>2022-05-12T08:09:00.585Z</time>
      </trkpt>
      <trkpt lat="43.70847" lon="3.57293">
        <ele>99</ele>
        <time>2022-05-12T08:09:01.704Z</time>
      </trkpt>
      <trkpt lat="43.70846" lon="3.57285">
        <ele>99</ele>
        <time>2022-05-12T08:09:02.778Z</time>
      </trkpt>
      <trkpt lat="43.70845" lon="3.57278">
        <ele>99</ele>
        <time>2022-05-12T08:09:03.722Z</time>
      </trkpt>
      <trkpt lat="43.70845" lon="3.57271">
        <ele>99</ele>
        <time>2022-05-12T08:09:04.648Z</time>
      </trkpt>
      <trkpt lat="43.70846" lon="3.57264">
        <ele>99</ele>
        <time>2022-05-12T08:09:05.591Z</time>
      </trkpt>
      <trkpt lat="43.70847" lon="3.57258">
        <ele>99</ele>
        <time>2022-05-12T08:09:06.406Z</time>
      </trkpt>
      <trkpt lat="43.70848" lon="3.57253">
        <ele>99</ele>
        <time>2022-05-12T08:09:07.092Z</time>
      </trkpt>
      <trkpt lat="43.70849" lon="3.57247">
        <ele>99</ele>
        <time>2022-05-12T08:09:07.906Z</time>
      </trkpt>
      <trkpt lat="43.70849" lon="3.57242">
        <ele>99</ele>
        <time>2022-05-12T08:09:08.567Z</time>
      </trkpt>
      <trkpt lat="43.70849" lon="3.57236">
        <ele>100</ele>
        <time>2022-05-12T08:09:11.628Z</time>
      </trkpt>
      <trkpt lat="43.70849" lon="3.57231">
        <ele>100</ele>
        <time>2022-05-12T08:09:12.289Z</time>
      </trkpt>
      <trkpt lat="43.70849" lon="3.57225">
        <ele>100</ele>
        <time>2022-05-12T08:09:13.083Z</time>
      </trkpt>
      <trkpt lat="43.70849" lon="3.5722">
        <ele>100</ele>
        <time>2022-05-12T08:09:13.744Z</time>
      </trkpt>
      <trkpt lat="43.70849" lon="3.57215">
        <ele>100</ele>
        <time>2022-05-12T08:09:14.405Z</time>
      </trkpt>
      <trkpt lat="43.70849" lon="3.57209">
        <ele>100</ele>
        <time>2022-05-12T08:09:15.199Z</time>
      </trkpt>
      <trkpt lat="43.7085" lon="3.57204">
        <ele>100</ele>
        <time>2022-05-12T08:09:15.885Z</time>
      </trkpt>
      <trkpt lat="43.7085" lon="3.57199">
        <ele>100</ele>
        <time>2022-05-12T08:09:16.546Z</time>
      </trkpt>
      <trkpt lat="43.7085" lon="3.57194">
        <ele>100</ele>
        <time>2022-05-12T08:09:17.208Z</time>
      </trkpt>
      <trkpt lat="43.7085" lon="3.57189">
        <ele>100</ele>
        <time>2022-05-12T08:09:17.869Z</time>
      </trkpt>
      <trkpt lat="43.7085" lon="3.57184">
        <ele>101</ele>
        <time>2022-05-12T08:09:20.419Z</time>
      </trkpt>
      <trkpt lat="43.7085" lon="3.57179">
        <ele>101</ele>
        <time>2022-05-12T08:09:21.081Z</time>
      </trkpt>
      <trkpt lat="43.7085" lon="3.57174">
        <ele>101</ele>
        <time>2022-05-12T08:09:21.742Z</time>
      </trkpt>
      <trkpt lat="43.7085" lon="3.57169">
        <ele>101</ele>
        <time>2022-05-12T08:09:22.403Z</time>
      </trkpt>
      <trkpt lat="43.7085" lon="3.57165">
        <ele>101</ele>
        <time>2022-05-12T08:09:22.932Z</time>
      </trkpt>
      <trkpt lat="43.70851" lon="3.5716">
        <ele>101</ele>
        <time>2022-05-12T08:09:23.618Z</time>
      </trkpt>
      <trkpt lat="43.70851" lon="3.57156">
        <ele>101</ele>
        <time>2022-05-12T08:09:24.147Z</time>
      </trkpt>
      <trkpt lat="43.70851" lon="3.57151">
        <ele>101</ele>
        <time>2022-05-12T08:09:24.809Z</time>
      </trkpt>
      <trkpt lat="43.70851" lon="3.57146">
        <ele>101</ele>
        <time>2022-05-12T08:09:25.470Z</time>
      </trkpt>
      <trkpt lat="43.70851" lon="3.57141">
        <ele>101</ele>
        <time>2022-05-12T08:09:26.131Z</time>
      </trkpt>
      <trkpt lat="43.7085" lon="3.57136">
        <ele>102</ele>
        <time>2022-05-12T08:09:28.778Z</time>
      </trkpt>
      <trkpt lat="43.7085" lon="3.5713">
        <ele>102</ele>
        <time>2022-05-12T08:09:29.571Z</time>
      </trkpt>
      <trkpt lat="43.7085" lon="3.57125">
        <ele>102</ele>
        <time>2022-05-12T08:09:30.232Z</time>
      </trkpt>
      <trkpt lat="43.7085" lon="3.57119">
        <ele>102</ele>
        <time>2022-05-12T08:09:31.026Z</time>
      </trkpt>
      <trkpt lat="43.7085" lon="3.57114">
        <ele>102</ele>
        <time>2022-05-12T08:09:31.687Z</time>
      </trkpt>
      <trkpt lat="43.7085" lon="3.57109">
        <ele>102</ele>
        <time>2022-05-12T08:09:32.349Z</time>
      </trkpt>
      <trkpt lat="43.7085" lon="3.57104">
        <ele>102</ele>
        <time>2022-05-12T08:09:33.010Z</time>
      </trkpt>
      <trkpt lat="43.7085" lon="3.57099">
        <ele>102</ele>
        <time>2022-05-12T08:09:33.671Z</time>
      </trkpt>
      <trkpt lat="43.7085" lon="3.57093">
        <ele>102</ele>
        <time>2022-05-12T08:09:34.465Z</time>
      </trkpt>
      <trkpt lat="43.7085" lon="3.57088">
        <ele>102</ele>
        <time>2022-05-12T08:09:35.126Z</time>
      </trkpt>
      <trkpt lat="43.7085" lon="3.57083">
        <ele>102</ele>
        <time>2022-05-12T08:09:35.787Z</time>
      </trkpt>
      <trkpt lat="43.7085" lon="3.57077">
        <ele>102</ele>
        <time>2022-05-12T08:09:36.581Z</time>
      </trkpt>
      <trkpt lat="43.7085" lon="3.57072">
        <ele>102</ele>
        <time>2022-05-12T08:09:37.242Z</time>
      </trkpt>
      <trkpt lat="43.7085" lon="3.57066">
        <ele>102</ele>
        <time>2022-05-12T08:09:38.035Z</time>
      </trkpt>
      <trkpt lat="43.7085" lon="3.57061">
        <ele>102</ele>
        <time>2022-05-12T08:09:38.697Z</time>
      </trkpt>
      <trkpt lat="43.70849" lon="3.57055">
        <ele>102</ele>
        <time>2022-05-12T08:09:39.511Z</time>
      </trkpt>
      <trkpt lat="43.70847" lon="3.57049">
        <ele>102</ele>
        <time>2022-05-12T08:09:40.385Z</time>
      </trkpt>
      <trkpt lat="43.70844" lon="3.57043">
        <ele>102</ele>
        <time>2022-05-12T08:09:41.350Z</time>
      </trkpt>
      <trkpt lat="43.70841" lon="3.57037">
        <ele>102</ele>
        <time>2022-05-12T08:09:42.315Z</time>
      </trkpt>
      <trkpt lat="43.70838" lon="3.57031">
        <ele>102</ele>
        <time>2022-05-12T08:09:43.279Z</time>
      </trkpt>
      <trkpt lat="43.70834" lon="3.57024">
        <ele>101</ele>
        <time>2022-05-12T08:09:43.854Z</time>
      </trkpt>
      <trkpt lat="43.70831" lon="3.57017">
        <ele>101</ele>
        <time>2022-05-12T08:09:44.930Z</time>
      </trkpt>
      <trkpt lat="43.70827" lon="3.5701">
        <ele>101</ele>
        <time>2022-05-12T08:09:46.110Z</time>
      </trkpt>
      <trkpt lat="43.70823" lon="3.57002">
        <ele>101</ele>
        <time>2022-05-12T08:09:47.397Z</time>
      </trkpt>
      <trkpt lat="43.70819" lon="3.56994">
        <ele>101</ele>
        <time>2022-05-12T08:09:48.683Z</time>
      </trkpt>
      <trkpt lat="43.70815" lon="3.56986">
        <ele>101</ele>
        <time>2022-05-12T08:09:49.969Z</time>
      </trkpt>
      <trkpt lat="43.70811" lon="3.56978">
        <ele>101</ele>
        <time>2022-05-12T08:09:51.256Z</time>
      </trkpt>
      <trkpt lat="43.70807" lon="3.56969">
        <ele>101</ele>
        <time>2022-05-12T08:09:52.653Z</time>
      </trkpt>
      <trkpt lat="43.70804" lon="3.5696">
        <ele>101</ele>
        <time>2022-05-12T08:09:53.964Z</time>
      </trkpt>
      <trkpt lat="43.70801" lon="3.56952">
        <ele>101</ele>
        <time>2022-05-12T08:09:55.156Z</time>
      </trkpt>
      <trkpt lat="43.70797" lon="3.56944">
        <ele>98</ele>
        <time>2022-05-12T08:09:55.782Z</time>
      </trkpt>
      <trkpt lat="43.70794" lon="3.56936">
        <ele>98</ele>
        <time>2022-05-12T08:09:56.974Z</time>
      </trkpt>
      <trkpt lat="43.70791" lon="3.56929">
        <ele>98</ele>
        <time>2022-05-12T08:09:58.050Z</time>
      </trkpt>
      <trkpt lat="43.70788" lon="3.56922">
        <ele>98</ele>
        <time>2022-05-12T08:09:59.126Z</time>
      </trkpt>
      <trkpt lat="43.70785" lon="3.56914">
        <ele>98</ele>
        <time>2022-05-12T08:10:00.318Z</time>
      </trkpt>
      <trkpt lat="43.70782" lon="3.56907">
        <ele>98</ele>
        <time>2022-05-12T08:10:01.395Z</time>
      </trkpt>
      <trkpt lat="43.70779" lon="3.56899">
        <ele>97</ele>
        <time>2022-05-12T08:10:01.975Z</time>
      </trkpt>
      <trkpt lat="43.70777" lon="3.56892">
        <ele>97</ele>
        <time>2022-05-12T08:10:02.970Z</time>
      </trkpt>
      <trkpt lat="43.70774" lon="3.56884">
        <ele>97</ele>
        <time>2022-05-12T08:10:04.162Z</time>
      </trkpt>
      <trkpt lat="43.70771" lon="3.56876">
        <ele>97</ele>
        <time>2022-05-12T08:10:05.354Z</time>
      </trkpt>
      <trkpt lat="43.70769" lon="3.56868">
        <ele>97</ele>
        <time>2022-05-12T08:10:06.473Z</time>
      </trkpt>
      <trkpt lat="43.70767" lon="3.56859">
        <ele>97</ele>
        <time>2022-05-12T08:10:07.719Z</time>
      </trkpt>
      <trkpt lat="43.70766" lon="3.5685">
        <ele>97</ele>
        <time>2022-05-12T08:10:08.923Z</time>
      </trkpt>
      <trkpt lat="43.70765" lon="3.56841">
        <ele>97</ele>
        <time>2022-05-12T08:10:10.127Z</time>
      </trkpt>
      <trkpt lat="43.70764" lon="3.56833">
        <ele>97</ele>
        <time>2022-05-12T08:10:11.201Z</time>
      </trkpt>
      <trkpt lat="43.70763" lon="3.56824">
        <ele>97</ele>
        <time>2022-05-12T08:10:12.405Z</time>
      </trkpt>
      <trkpt lat="43.70763" lon="3.56814">
        <ele>97</ele>
        <time>2022-05-12T08:10:13.728Z</time>
      </trkpt>
      <trkpt lat="43.70762" lon="3.56805">
        <ele>97</ele>
        <time>2022-05-12T08:10:14.932Z</time>
      </trkpt>
      <trkpt lat="43.70762" lon="3.56795">
        <ele>97</ele>
        <time>2022-05-12T08:10:16.255Z</time>
      </trkpt>
      <trkpt lat="43.70762" lon="3.56785">
        <ele>97</ele>
        <time>2022-05-12T08:10:17.577Z</time>
      </trkpt>
      <trkpt lat="43.70762" lon="3.56776">
        <ele>97</ele>
        <time>2022-05-12T08:10:18.768Z</time>
      </trkpt>
      <trkpt lat="43.70761" lon="3.56767">
        <ele>97</ele>
        <time>2022-05-12T08:10:19.972Z</time>
      </trkpt>
      <trkpt lat="43.70759" lon="3.56758">
        <ele>97</ele>
        <time>2022-05-12T08:10:21.217Z</time>
      </trkpt>
      <trkpt lat="43.70756" lon="3.5675">
        <ele>97</ele>
        <time>2022-05-12T08:10:22.409Z</time>
      </trkpt>
      <trkpt lat="43.70754" lon="3.56742">
        <ele>97</ele>
        <time>2022-05-12T08:10:23.529Z</time>
      </trkpt>
      <trkpt lat="43.70752" lon="3.56733">
        <ele>97</ele>
        <time>2022-05-12T08:10:24.774Z</time>
      </trkpt>
      <trkpt lat="43.7075" lon="3.56725">
        <ele>97</ele>
        <time>2022-05-12T08:10:25.893Z</time>
      </trkpt>
      <trkpt lat="43.7075" lon="3.56716">
        <ele>97</ele>
        <time>2022-05-12T08:10:27.084Z</time>
      </trkpt>
      <trkpt lat="43.7075" lon="3.56707">
        <ele>97</ele>
        <time>2022-05-12T08:10:28.274Z</time>
      </trkpt>
      <trkpt lat="43.7075" lon="3.56699">
        <ele>97</ele>
        <time>2022-05-12T08:10:29.332Z</time>
      </trkpt>
      <trkpt lat="43.7075" lon="3.5669">
        <ele>97</ele>
        <time>2022-05-12T08:10:30.522Z</time>
      </trkpt>
      <trkpt lat="43.7075" lon="3.56682">
        <ele>97</ele>
        <time>2022-05-12T08:10:31.580Z</time>
      </trkpt>
      <trkpt lat="43.70749" lon="3.56673">
        <ele>97</ele>
        <time>2022-05-12T08:10:32.785Z</time>
      </trkpt>
      <trkpt lat="43.70747" lon="3.56665">
        <ele>97</ele>
        <time>2022-05-12T08:10:33.904Z</time>
      </trkpt>
      <trkpt lat="43.70744" lon="3.56657">
        <ele>97</ele>
        <time>2022-05-12T08:10:35.096Z</time>
      </trkpt>
      <trkpt lat="43.70741" lon="3.56648">
        <ele>97</ele>
        <time>2022-05-12T08:10:36.407Z</time>
      </trkpt>
      <trkpt lat="43.70737" lon="3.56639">
        <ele>97</ele>
        <time>2022-05-12T08:10:37.804Z</time>
      </trkpt>
      <trkpt lat="43.70734" lon="3.5663">
        <ele>97</ele>
        <time>2022-05-12T08:10:39.115Z</time>
      </trkpt>
      <trkpt lat="43.7073" lon="3.56621">
        <ele>97</ele>
        <time>2022-05-12T08:10:40.512Z</time>
      </trkpt>
      <trkpt lat="43.70727" lon="3.56612">
        <ele>97</ele>
        <time>2022-05-12T08:10:41.823Z</time>
      </trkpt>
      <trkpt lat="43.70724" lon="3.56602">
        <ele>96</ele>
        <time>2022-05-12T08:10:42.520Z</time>
      </trkpt>
      <trkpt lat="43.70722" lon="3.56593">
        <ele>96</ele>
        <time>2022-05-12T08:10:43.765Z</time>
      </trkpt>
      <trkpt lat="43.70719" lon="3.56583">
        <ele>96</ele>
        <time>2022-05-12T08:10:45.197Z</time>
      </trkpt>
      <trkpt lat="43.70717" lon="3.56573">
        <ele>96</ele>
        <time>2022-05-12T08:10:46.569Z</time>
      </trkpt>
      <trkpt lat="43.70715" lon="3.56564">
        <ele>96</ele>
        <time>2022-05-12T08:10:47.815Z</time>
      </trkpt>
      <trkpt lat="43.70713" lon="3.56554">
        <ele>96</ele>
        <time>2022-05-12T08:10:49.187Z</time>
      </trkpt>
      <trkpt lat="43.70712" lon="3.56545">
        <ele>96</ele>
        <time>2022-05-12T08:10:50.391Z</time>
      </trkpt>
      <trkpt lat="43.70709" lon="3.56536">
        <ele>96</ele>
        <time>2022-05-12T08:10:51.702Z</time>
      </trkpt>
      <trkpt lat="43.70707" lon="3.56527">
        <ele>96</ele>
        <time>2022-05-12T08:10:52.947Z</time>
      </trkpt>
      <trkpt lat="43.70705" lon="3.56518">
        <ele>96</ele>
        <time>2022-05-12T08:10:54.193Z</time>
      </trkpt>
      <trkpt lat="43.70703" lon="3.56508">
        <ele>94</ele>
        <time>2022-05-12T08:10:54.860Z</time>
      </trkpt>
      <trkpt lat="43.70701" lon="3.56498">
        <ele>94</ele>
        <time>2022-05-12T08:10:56.233Z</time>
      </trkpt>
      <trkpt lat="43.707" lon="3.56488">
        <ele>94</ele>
        <time>2022-05-12T08:10:57.568Z</time>
      </trkpt>
      <trkpt lat="43.70699" lon="3.56478">
        <ele>94</ele>
        <time>2022-05-12T08:10:58.903Z</time>
      </trkpt>
      <trkpt lat="43.70697" lon="3.56469">
        <ele>94</ele>
        <time>2022-05-12T08:11:00.148Z</time>
      </trkpt>
      <trkpt lat="43.70695" lon="3.5646">
        <ele>94</ele>
        <time>2022-05-12T08:11:01.393Z</time>
      </trkpt>
      <trkpt lat="43.70692" lon="3.56452">
        <ele>94</ele>
        <time>2022-05-12T08:11:02.585Z</time>
      </trkpt>
      <trkpt lat="43.7069" lon="3.56444">
        <ele>94</ele>
        <time>2022-05-12T08:11:03.705Z</time>
      </trkpt>
      <trkpt lat="43.70688" lon="3.56435">
        <ele>94</ele>
        <time>2022-05-12T08:11:04.950Z</time>
      </trkpt>
      <trkpt lat="43.70686" lon="3.56425">
        <ele>94</ele>
        <time>2022-05-12T08:11:06.323Z</time>
      </trkpt>
      <trkpt lat="43.70685" lon="3.56416">
        <ele>93</ele>
        <time>2022-05-12T08:11:06.909Z</time>
      </trkpt>
      <trkpt lat="43.70683" lon="3.56406">
        <ele>93</ele>
        <time>2022-05-12T08:11:08.281Z</time>
      </trkpt>
      <trkpt lat="43.70681" lon="3.56396">
        <ele>93</ele>
        <time>2022-05-12T08:11:09.653Z</time>
      </trkpt>
      <trkpt lat="43.7068" lon="3.56385">
        <ele>93</ele>
        <time>2022-05-12T08:11:11.119Z</time>
      </trkpt>
      <trkpt lat="43.70678" lon="3.56375">
        <ele>93</ele>
        <time>2022-05-12T08:11:12.492Z</time>
      </trkpt>
      <trkpt lat="43.70678" lon="3.56365">
        <ele>93</ele>
        <time>2022-05-12T08:11:13.814Z</time>
      </trkpt>
      <trkpt lat="43.70677" lon="3.56354">
        <ele>93</ele>
        <time>2022-05-12T08:11:15.281Z</time>
      </trkpt>
      <trkpt lat="43.70676" lon="3.56344">
        <ele>93</ele>
        <time>2022-05-12T08:11:16.616Z</time>
      </trkpt>
      <trkpt lat="43.70676" lon="3.56333">
        <ele>93</ele>
        <time>2022-05-12T08:11:18.071Z</time>
      </trkpt>
      <trkpt lat="43.70676" lon="3.56322">
        <ele>93</ele>
        <time>2022-05-12T08:11:19.525Z</time>
      </trkpt>
      <trkpt lat="43.70676" lon="3.56311">
        <ele>90</ele>
        <time>2022-05-12T08:11:20.233Z</time>
      </trkpt>
      <trkpt lat="43.70675" lon="3.563">
        <ele>90</ele>
        <time>2022-05-12T08:11:21.700Z</time>
      </trkpt>
      <trkpt lat="43.70675" lon="3.56289">
        <ele>90</ele>
        <time>2022-05-12T08:11:23.154Z</time>
      </trkpt>
      <trkpt lat="43.70676" lon="3.56277">
        <ele>90</ele>
        <time>2022-05-12T08:11:24.752Z</time>
      </trkpt>
      <trkpt lat="43.70677" lon="3.56265">
        <ele>90</ele>
        <time>2022-05-12T08:11:26.350Z</time>
      </trkpt>
      <trkpt lat="43.70678" lon="3.56253">
        <ele>90</ele>
        <time>2022-05-12T08:11:27.947Z</time>
      </trkpt>
      <trkpt lat="43.70679" lon="3.56241">
        <ele>90</ele>
        <time>2022-05-12T08:11:29.545Z</time>
      </trkpt>
      <trkpt lat="43.70679" lon="3.56227">
        <ele>90</ele>
        <time>2022-05-12T08:11:31.396Z</time>
      </trkpt>
      <trkpt lat="43.70678" lon="3.56214">
        <ele>90</ele>
        <time>2022-05-12T08:11:33.126Z</time>
      </trkpt>
      <trkpt lat="43.70677" lon="3.56201">
        <ele>90</ele>
        <time>2022-05-12T08:11:34.855Z</time>
      </trkpt>
      <trkpt lat="43.70676" lon="3.56188">
        <ele>83</ele>
        <time>2022-05-12T08:11:35.696Z</time>
      </trkpt>
      <trkpt lat="43.70676" lon="3.56177">
        <ele>83</ele>
        <time>2022-05-12T08:11:37.151Z</time>
      </trkpt>
      <trkpt lat="43.70676" lon="3.56166">
        <ele>83</ele>
        <time>2022-05-12T08:11:38.606Z</time>
      </trkpt>
      <trkpt lat="43.70678" lon="3.56156">
        <ele>83</ele>
        <time>2022-05-12T08:11:39.978Z</time>
      </trkpt>
      <trkpt lat="43.70681" lon="3.56146">
        <ele>83</ele>
        <time>2022-05-12T08:11:41.410Z</time>
      </trkpt>
      <trkpt lat="43.70685" lon="3.56136">
        <ele>83</ele>
        <time>2022-05-12T08:11:42.921Z</time>
      </trkpt>
      <trkpt lat="43.7069" lon="3.56126">
        <ele>83</ele>
        <time>2022-05-12T08:11:44.529Z</time>
      </trkpt>
      <trkpt lat="43.70694" lon="3.56117">
        <ele>83</ele>
        <time>2022-05-12T08:11:45.927Z</time>
      </trkpt>
      <trkpt lat="43.70698" lon="3.56108">
        <ele>83</ele>
        <time>2022-05-12T08:11:47.324Z</time>
      </trkpt>
      <trkpt lat="43.70699" lon="3.56098">
        <ele>83</ele>
        <time>2022-05-12T08:11:48.659Z</time>
      </trkpt>
      <trkpt lat="43.707" lon="3.56089">
        <ele>81</ele>
        <time>2022-05-12T08:11:49.245Z</time>
      </trkpt>
      <trkpt lat="43.70702" lon="3.5608">
        <ele>81</ele>
        <time>2022-05-12T08:11:50.491Z</time>
      </trkpt>
      <trkpt lat="43.70703" lon="3.56071">
        <ele>81</ele>
        <time>2022-05-12T08:11:51.695Z</time>
      </trkpt>
      <trkpt lat="43.70704" lon="3.56062">
        <ele>81</ele>
        <time>2022-05-12T08:11:52.899Z</time>
      </trkpt>
      <trkpt lat="43.70704" lon="3.56053">
        <ele>81</ele>
        <time>2022-05-12T08:11:54.089Z</time>
      </trkpt>
      <trkpt lat="43.70703" lon="3.56043">
        <ele>81</ele>
        <time>2022-05-12T08:11:55.425Z</time>
      </trkpt>
      <trkpt lat="43.707" lon="3.56036">
        <ele>81</ele>
        <time>2022-05-12T08:11:56.501Z</time>
      </trkpt>
      <trkpt lat="43.70697" lon="3.56031">
        <ele>81</ele>
        <time>2022-05-12T08:11:57.360Z</time>
      </trkpt>
      <trkpt lat="43.70694" lon="3.56025">
        <ele>81</ele>
        <time>2022-05-12T08:11:58.325Z</time>
      </trkpt>
      <trkpt lat="43.70694" lon="3.56018">
        <ele>81</ele>
        <time>2022-05-12T08:11:59.251Z</time>
      </trkpt>
      <trkpt lat="43.70695" lon="3.5601">
        <ele>77</ele>
        <time>2022-05-12T08:11:59.773Z</time>
      </trkpt>
      <trkpt lat="43.70697" lon="3.56003">
        <ele>77</ele>
        <time>2022-05-12T08:12:00.769Z</time>
      </trkpt>
      <trkpt lat="43.70699" lon="3.55995">
        <ele>77</ele>
        <time>2022-05-12T08:12:01.888Z</time>
      </trkpt>
      <trkpt lat="43.70703" lon="3.55988">
        <ele>77</ele>
        <time>2022-05-12T08:12:03.069Z</time>
      </trkpt>
      <trkpt lat="43.70707" lon="3.55979">
        <ele>77</ele>
        <time>2022-05-12T08:12:04.466Z</time>
      </trkpt>
      <trkpt lat="43.7071" lon="3.55972">
        <ele>77</ele>
        <time>2022-05-12T08:12:05.542Z</time>
      </trkpt>
      <trkpt lat="43.70712" lon="3.55968">
        <ele>77</ele>
        <time>2022-05-12T08:12:06.185Z</time>
      </trkpt>
      <trkpt lat="43.70713" lon="3.55965">
        <ele>77</ele>
        <time>2022-05-12T08:12:06.622Z</time>
      </trkpt>
      <trkpt lat="43.70714" lon="3.55962">
        <ele>77</ele>
        <time>2022-05-12T08:12:07.059Z</time>
      </trkpt>
      <trkpt lat="43.70715" lon="3.55959">
        <ele>77</ele>
        <time>2022-05-12T08:12:07.496Z</time>
      </trkpt>
      <trkpt lat="43.70716" lon="3.55956">
        <ele>75</ele>
        <time>2022-05-12T08:12:07.709Z</time>
      </trkpt>
      <trkpt lat="43.70717" lon="3.55953">
        <ele>75</ele>
        <time>2022-05-12T08:12:08.146Z</time>
      </trkpt>
      <trkpt lat="43.70717" lon="3.5595">
        <ele>75</ele>
        <time>2022-05-12T08:12:08.542Z</time>
      </trkpt>
      <trkpt lat="43.70718" lon="3.55945">
        <ele>75</ele>
        <time>2022-05-12T08:12:09.229Z</time>
      </trkpt>
      <trkpt lat="43.70717" lon="3.55941">
        <ele>75</ele>
        <time>2022-05-12T08:12:09.788Z</time>
      </trkpt>
      <trkpt lat="43.70717" lon="3.55937">
        <ele>75</ele>
        <time>2022-05-12T08:12:10.317Z</time>
      </trkpt>
      <trkpt lat="43.70717" lon="3.55933">
        <ele>75</ele>
        <time>2022-05-12T08:12:10.846Z</time>
      </trkpt>
      <trkpt lat="43.70717" lon="3.5593">
        <ele>73</ele>
        <time>2022-05-12T08:12:11.040Z</time>
      </trkpt>
      <trkpt lat="43.70716" lon="3.55927">
        <ele>73</ele>
        <time>2022-05-12T08:12:11.476Z</time>
      </trkpt>
      <trkpt lat="43.70715" lon="3.55922">
        <ele>73</ele>
        <time>2022-05-12T08:12:12.163Z</time>
      </trkpt>
      <trkpt lat="43.70714" lon="3.5592">
        <ele>73</ele>
        <time>2022-05-12T08:12:12.484Z</time>
      </trkpt>
      <trkpt lat="43.70713" lon="3.55917">
        <ele>73</ele>
        <time>2022-05-12T08:12:12.921Z</time>
      </trkpt>
      <trkpt lat="43.70713" lon="3.55914">
        <ele>73</ele>
        <time>2022-05-12T08:12:13.318Z</time>
      </trkpt>
      <trkpt lat="43.70714" lon="3.5591">
        <ele>73</ele>
        <time>2022-05-12T08:12:13.878Z</time>
      </trkpt>
      <trkpt lat="43.70715" lon="3.55906">
        <ele>73</ele>
        <time>2022-05-12T08:12:14.437Z</time>
      </trkpt>
      <trkpt lat="43.70717" lon="3.55902">
        <ele>71</ele>
        <time>2022-05-12T08:12:14.750Z</time>
      </trkpt>
      <trkpt lat="43.70717" lon="3.55897">
        <ele>71</ele>
        <time>2022-05-12T08:12:15.412Z</time>
      </trkpt>
      <trkpt lat="43.70716" lon="3.55894">
        <ele>71</ele>
        <time>2022-05-12T08:12:15.849Z</time>
      </trkpt>
      <trkpt lat="43.70713" lon="3.55894">
        <ele>71</ele>
        <time>2022-05-12T08:12:16.398Z</time>
      </trkpt>
      <trkpt lat="43.70711" lon="3.55898">
        <ele>71</ele>
        <time>2022-05-12T08:12:17.041Z</time>
      </trkpt>
      <trkpt lat="43.70709" lon="3.55902">
        <ele>71</ele>
        <time>2022-05-12T08:12:17.684Z</time>
      </trkpt>
      <trkpt lat="43.70707" lon="3.55906">
        <ele>71</ele>
        <time>2022-05-12T08:12:18.327Z</time>
      </trkpt>
      <trkpt lat="43.70705" lon="3.5591">
        <ele>71</ele>
        <time>2022-05-12T08:12:18.970Z</time>
      </trkpt>
      <trkpt lat="43.70702" lon="3.55915">
        <ele>70</ele>
        <time>2022-05-12T08:12:19.389Z</time>
      </trkpt>
      <trkpt lat="43.70699" lon="3.55919">
        <ele>70</ele>
        <time>2022-05-12T08:12:20.151Z</time>
      </trkpt>
      <trkpt lat="43.70696" lon="3.55924">
        <ele>70</ele>
        <time>2022-05-12T08:12:21.010Z</time>
      </trkpt>
      <trkpt lat="43.70693" lon="3.55928">
        <ele>70</ele>
        <time>2022-05-12T08:12:21.773Z</time>
      </trkpt>
      <trkpt lat="43.7069" lon="3.55933">
        <ele>70</ele>
        <time>2022-05-12T08:12:22.632Z</time>
      </trkpt>
      <trkpt lat="43.70687" lon="3.55938">
        <ele>70</ele>
        <time>2022-05-12T08:12:23.492Z</time>
      </trkpt>
      <trkpt lat="43.70684" lon="3.55942">
        <ele>70</ele>
        <time>2022-05-12T08:12:24.254Z</time>
      </trkpt>
      <trkpt lat="43.70682" lon="3.55947">
        <ele>70</ele>
        <time>2022-05-12T08:12:25.010Z</time>
      </trkpt>
      <trkpt lat="43.70679" lon="3.55951">
        <ele>70</ele>
        <time>2022-05-12T08:12:25.772Z</time>
      </trkpt>
      <trkpt lat="43.70676" lon="3.55955">
        <ele>70</ele>
        <time>2022-05-12T08:12:26.534Z</time>
      </trkpt>
      <trkpt lat="43.70673" lon="3.55959">
        <ele>70</ele>
        <time>2022-05-12T08:12:27.297Z</time>
      </trkpt>
      <trkpt lat="43.7067" lon="3.55963">
        <ele>70</ele>
        <time>2022-05-12T08:12:28.059Z</time>
      </trkpt>
      <trkpt lat="43.70668" lon="3.55966">
        <ele>70</ele>
        <time>2022-05-12T08:12:28.599Z</time>
      </trkpt>
      <trkpt lat="43.70665" lon="3.55969">
        <ele>70</ele>
        <time>2022-05-12T08:12:29.276Z</time>
      </trkpt>
      <trkpt lat="43.70663" lon="3.55972">
        <ele>70</ele>
        <time>2022-05-12T08:12:29.816Z</time>
      </trkpt>
      <trkpt lat="43.70661" lon="3.55974">
        <ele>70</ele>
        <time>2022-05-12T08:12:30.267Z</time>
      </trkpt>
      <trkpt lat="43.70659" lon="3.55976">
        <ele>70</ele>
        <time>2022-05-12T08:12:30.719Z</time>
      </trkpt>
      <trkpt lat="43.70657" lon="3.55978">
        <ele>70</ele>
        <time>2022-05-12T08:12:31.170Z</time>
      </trkpt>
      <trkpt lat="43.70655" lon="3.5598">
        <ele>70</ele>
        <time>2022-05-12T08:12:31.622Z</time>
      </trkpt>
      <trkpt lat="43.70652" lon="3.55981">
        <ele>70</ele>
        <time>2022-05-12T08:12:32.186Z</time>
      </trkpt>
      <trkpt lat="43.7065" lon="3.55983">
        <ele>69</ele>
        <time>2022-05-12T08:12:32.406Z</time>
      </trkpt>
      <trkpt lat="43.70648" lon="3.55984">
        <ele>69</ele>
        <time>2022-05-12T08:12:32.795Z</time>
      </trkpt>
      <trkpt lat="43.70646" lon="3.55985">
        <ele>69</ele>
        <time>2022-05-12T08:12:33.184Z</time>
      </trkpt>
      <trkpt lat="43.70644" lon="3.55987">
        <ele>69</ele>
        <time>2022-05-12T08:12:33.636Z</time>
      </trkpt>
      <trkpt lat="43.70642" lon="3.55988">
        <ele>69</ele>
        <time>2022-05-12T08:12:34.025Z</time>
      </trkpt>
      <trkpt lat="43.70639" lon="3.5599">
        <ele>69</ele>
        <time>2022-05-12T08:12:34.634Z</time>
      </trkpt>
      <trkpt lat="43.70636" lon="3.55992">
        <ele>69</ele>
        <time>2022-05-12T08:12:35.243Z</time>
      </trkpt>
      <trkpt lat="43.70633" lon="3.55994">
        <ele>69</ele>
        <time>2022-05-12T08:12:35.853Z</time>
      </trkpt>
      <trkpt lat="43.7063" lon="3.55996">
        <ele>69</ele>
        <time>2022-05-12T08:12:36.462Z</time>
      </trkpt>
      <trkpt lat="43.70627" lon="3.55999">
        <ele>69</ele>
        <time>2022-05-12T08:12:37.139Z</time>
      </trkpt>
      <trkpt lat="43.70624" lon="3.56001">
        <ele>69</ele>
        <time>2022-05-12T08:12:37.748Z</time>
      </trkpt>
      <trkpt lat="43.70621" lon="3.56003">
        <ele>69</ele>
        <time>2022-05-12T08:12:38.358Z</time>
      </trkpt>
      <trkpt lat="43.70618" lon="3.56004">
        <ele>69</ele>
        <time>2022-05-12T08:12:38.922Z</time>
      </trkpt>
      <trkpt lat="43.70615" lon="3.56006">
        <ele>69</ele>
        <time>2022-05-12T08:12:39.532Z</time>
      </trkpt>
      <trkpt lat="43.70612" lon="3.56008">
        <ele>69</ele>
        <time>2022-05-12T08:12:40.141Z</time>
      </trkpt>
      <trkpt lat="43.70608" lon="3.56011">
        <ele>69</ele>
        <time>2022-05-12T08:12:40.973Z</time>
      </trkpt>
      <trkpt lat="43.70605" lon="3.56014">
        <ele>69</ele>
        <time>2022-05-12T08:12:41.651Z</time>
      </trkpt>
      <trkpt lat="43.70601" lon="3.56017">
        <ele>69</ele>
        <time>2022-05-12T08:12:42.483Z</time>
      </trkpt>
      <trkpt lat="43.70597" lon="3.5602">
        <ele>69</ele>
        <time>2022-05-12T08:12:43.316Z</time>
      </trkpt>
      <trkpt lat="43.70594" lon="3.5602">
        <ele>69</ele>
        <time>2022-05-12T08:12:43.865Z</time>
      </trkpt>
      <trkpt lat="43.70592" lon="3.56017">
        <ele>68</ele>
        <time>2022-05-12T08:12:44.127Z</time>
      </trkpt>
      <trkpt lat="43.70589" lon="3.56013">
        <ele>68</ele>
        <time>2022-05-12T08:12:44.889Z</time>
      </trkpt>
      <trkpt lat="43.70586" lon="3.5601">
        <ele>68</ele>
        <time>2022-05-12T08:12:45.567Z</time>
      </trkpt>
      <trkpt lat="43.70583" lon="3.56007">
        <ele>68</ele>
        <time>2022-05-12T08:12:46.244Z</time>
      </trkpt>
      <trkpt lat="43.70579" lon="3.56005">
        <ele>68</ele>
        <time>2022-05-12T08:12:47.022Z</time>
      </trkpt>
      <trkpt lat="43.70574" lon="3.56004">
        <ele>68</ele>
        <time>2022-05-12T08:12:47.946Z</time>
      </trkpt>
      <trkpt lat="43.7057" lon="3.56005">
        <ele>68</ele>
        <time>2022-05-12T08:12:48.690Z</time>
      </trkpt>
      <trkpt lat="43.70565" lon="3.56006">
        <ele>68</ele>
        <time>2022-05-12T08:12:49.614Z</time>
      </trkpt>
      <trkpt lat="43.7056" lon="3.56007">
        <ele>68</ele>
        <time>2022-05-12T08:12:50.539Z</time>
      </trkpt>
      <trkpt lat="43.70556" lon="3.56009">
        <ele>68</ele>
        <time>2022-05-12T08:12:51.317Z</time>
      </trkpt>
      <trkpt lat="43.70551" lon="3.56011">
        <ele>68</ele>
        <time>2022-05-12T08:12:52.269Z</time>
      </trkpt>
      <trkpt lat="43.70547" lon="3.56013">
        <ele>68</ele>
        <time>2022-05-12T08:12:53.047Z</time>
      </trkpt>
      <trkpt lat="43.70542" lon="3.56015">
        <ele>68</ele>
        <time>2022-05-12T08:12:54.000Z</time>
      </trkpt>
      <trkpt lat="43.70538" lon="3.56017">
        <ele>68</ele>
        <time>2022-05-12T08:12:54.778Z</time>
      </trkpt>
      <trkpt lat="43.70532" lon="3.5602">
        <ele>68</ele>
        <time>2022-05-12T08:12:55.945Z</time>
      </trkpt>
      <trkpt lat="43.70528" lon="3.56023">
        <ele>68</ele>
        <time>2022-05-12T08:12:56.778Z</time>
      </trkpt>
      <trkpt lat="43.70523" lon="3.56025">
        <ele>68</ele>
        <time>2022-05-12T08:12:57.730Z</time>
      </trkpt>
      <trkpt lat="43.70519" lon="3.56026">
        <ele>68</ele>
        <time>2022-05-12T08:12:58.474Z</time>
      </trkpt>
      <trkpt lat="43.70514" lon="3.56028">
        <ele>68</ele>
        <time>2022-05-12T08:12:59.426Z</time>
      </trkpt>
      <trkpt lat="43.70509" lon="3.56029">
        <ele>68</ele>
        <time>2022-05-12T08:13:00.350Z</time>
      </trkpt>
      <trkpt lat="43.70505" lon="3.5603">
        <ele>67</ele>
        <time>2022-05-12T08:13:00.712Z</time>
      </trkpt>
      <trkpt lat="43.705" lon="3.56031">
        <ele>67</ele>
        <time>2022-05-12T08:13:01.636Z</time>
      </trkpt>
      <trkpt lat="43.70494" lon="3.56032">
        <ele>67</ele>
        <time>2022-05-12T08:13:02.742Z</time>
      </trkpt>
      <trkpt lat="43.70489" lon="3.56032">
        <ele>67</ele>
        <time>2022-05-12T08:13:03.657Z</time>
      </trkpt>
      <trkpt lat="43.70484" lon="3.56032">
        <ele>67</ele>
        <time>2022-05-12T08:13:04.572Z</time>
      </trkpt>
      <trkpt lat="43.70478" lon="3.56032">
        <ele>67</ele>
        <time>2022-05-12T08:13:05.669Z</time>
      </trkpt>
      <trkpt lat="43.70473" lon="3.56032">
        <ele>67</ele>
        <time>2022-05-12T08:13:06.584Z</time>
      </trkpt>
      <trkpt lat="43.70467" lon="3.56031">
        <ele>67</ele>
        <time>2022-05-12T08:13:07.690Z</time>
      </trkpt>
      <trkpt lat="43.70461" lon="3.56029">
        <ele>67</ele>
        <time>2022-05-12T08:13:08.819Z</time>
      </trkpt>
      <trkpt lat="43.70456" lon="3.56027">
        <ele>67</ele>
        <time>2022-05-12T08:13:09.771Z</time>
      </trkpt>
      <trkpt lat="43.7045" lon="3.56025">
        <ele>66</ele>
        <time>2022-05-12T08:13:10.321Z</time>
      </trkpt>
      <trkpt lat="43.70446" lon="3.56022">
        <ele>66</ele>
        <time>2022-05-12T08:13:11.153Z</time>
      </trkpt>
      <trkpt lat="43.70441" lon="3.56019">
        <ele>66</ele>
        <time>2022-05-12T08:13:12.150Z</time>
      </trkpt>
      <trkpt lat="43.70435" lon="3.56017">
        <ele>66</ele>
        <time>2022-05-12T08:13:13.279Z</time>
      </trkpt>
      <trkpt lat="43.7043" lon="3.56016">
        <ele>66</ele>
        <time>2022-05-12T08:13:14.204Z</time>
      </trkpt>
      <trkpt lat="43.70425" lon="3.56014">
        <ele>66</ele>
        <time>2022-05-12T08:13:15.156Z</time>
      </trkpt>
      <trkpt lat="43.7042" lon="3.56014">
        <ele>66</ele>
        <time>2022-05-12T08:13:16.071Z</time>
      </trkpt>
      <trkpt lat="43.70414" lon="3.56013">
        <ele>66</ele>
        <time>2022-05-12T08:13:17.177Z</time>
      </trkpt>
      <trkpt lat="43.70409" lon="3.56012">
        <ele>66</ele>
        <time>2022-05-12T08:13:18.101Z</time>
      </trkpt>
      <trkpt lat="43.70404" lon="3.5601">
        <ele>66</ele>
        <time>2022-05-12T08:13:19.053Z</time>
      </trkpt>
      <trkpt lat="43.70399" lon="3.56009">
        <ele>66</ele>
        <time>2022-05-12T08:13:19.977Z</time>
      </trkpt>
      <trkpt lat="43.70394" lon="3.56008">
        <ele>66</ele>
        <time>2022-05-12T08:13:20.902Z</time>
      </trkpt>
      <trkpt lat="43.70389" lon="3.56007">
        <ele>66</ele>
        <time>2022-05-12T08:13:21.826Z</time>
      </trkpt>
      <trkpt lat="43.70385" lon="3.56007">
        <ele>66</ele>
        <time>2022-05-12T08:13:22.558Z</time>
      </trkpt>
      <trkpt lat="43.7038" lon="3.56006">
        <ele>66</ele>
        <time>2022-05-12T08:13:23.482Z</time>
      </trkpt>
      <trkpt lat="43.70376" lon="3.56006">
        <ele>66</ele>
        <time>2022-05-12T08:13:24.214Z</time>
      </trkpt>
      <trkpt lat="43.70371" lon="3.56005">
        <ele>66</ele>
        <time>2022-05-12T08:13:25.138Z</time>
      </trkpt>
      <trkpt lat="43.70366" lon="3.56003">
        <ele>66</ele>
        <time>2022-05-12T08:13:26.091Z</time>
      </trkpt>
      <trkpt lat="43.70361" lon="3.56002">
        <ele>66</ele>
        <time>2022-05-12T08:13:27.015Z</time>
      </trkpt>
      <trkpt lat="43.70355" lon="3.56">
        <ele>66</ele>
        <time>2022-05-12T08:13:28.144Z</time>
      </trkpt>
      <trkpt lat="43.7035" lon="3.55998">
        <ele>65</ele>
        <time>2022-05-12T08:13:28.607Z</time>
      </trkpt>
      <trkpt lat="43.70344" lon="3.55997">
        <ele>65</ele>
        <time>2022-05-12T08:13:29.713Z</time>
      </trkpt>
      <trkpt lat="43.70338" lon="3.55997">
        <ele>65</ele>
        <time>2022-05-12T08:13:30.811Z</time>
      </trkpt>
      <trkpt lat="43.70332" lon="3.55997">
        <ele>65</ele>
        <time>2022-05-12T08:13:31.909Z</time>
      </trkpt>
      <trkpt lat="43.70326" lon="3.55999">
        <ele>65</ele>
        <time>2022-05-12T08:13:33.038Z</time>
      </trkpt>
      <trkpt lat="43.7032" lon="3.56001">
        <ele>65</ele>
        <time>2022-05-12T08:13:34.167Z</time>
      </trkpt>
      <trkpt lat="43.70316" lon="3.56006">
        <ele>65</ele>
        <time>2022-05-12T08:13:35.153Z</time>
      </trkpt>
      <trkpt lat="43.70314" lon="3.56012">
        <ele>65</ele>
        <time>2022-05-12T08:13:36.027Z</time>
      </trkpt>
      <trkpt lat="43.70311" lon="3.56019">
        <ele>65</ele>
        <time>2022-05-12T08:13:37.104Z</time>
      </trkpt>
      <trkpt lat="43.70308" lon="3.56025">
        <ele>65</ele>
        <time>2022-05-12T08:13:38.068Z</time>
      </trkpt>
      <trkpt lat="43.70306" lon="3.56031">
        <ele>64</ele>
        <time>2022-05-12T08:13:38.494Z</time>
      </trkpt>
      <trkpt lat="43.70305" lon="3.56037">
        <ele>64</ele>
        <time>2022-05-12T08:13:39.308Z</time>
      </trkpt>
      <trkpt lat="43.70306" lon="3.56043">
        <ele>64</ele>
        <time>2022-05-12T08:13:40.122Z</time>
      </trkpt>
      <trkpt lat="43.70306" lon="3.56049">
        <ele>64</ele>
        <time>2022-05-12T08:13:40.916Z</time>
      </trkpt>
      <trkpt lat="43.70305" lon="3.56054">
        <ele>64</ele>
        <time>2022-05-12T08:13:41.602Z</time>
      </trkpt>
      <trkpt lat="43.70305" lon="3.5606">
        <ele>64</ele>
        <time>2022-05-12T08:13:42.396Z</time>
      </trkpt>
      <trkpt lat="43.70305" lon="3.56066">
        <ele>64</ele>
        <time>2022-05-12T08:13:43.189Z</time>
      </trkpt>
      <trkpt lat="43.70305" lon="3.56072">
        <ele>64</ele>
        <time>2022-05-12T08:13:43.983Z</time>
      </trkpt>
      <trkpt lat="43.70305" lon="3.56077">
        <ele>64</ele>
        <time>2022-05-12T08:13:44.644Z</time>
      </trkpt>
      <trkpt lat="43.70307" lon="3.56081">
        <ele>64</ele>
        <time>2022-05-12T08:13:45.288Z</time>
      </trkpt>
      <trkpt lat="43.7031" lon="3.56083">
        <ele>63</ele>
        <time>2022-05-12T08:13:45.584Z</time>
      </trkpt>
      <trkpt lat="43.70313" lon="3.56084">
        <ele>63</ele>
        <time>2022-05-12T08:13:46.149Z</time>
      </trkpt>
      <trkpt lat="43.70318" lon="3.56084">
        <ele>63</ele>
        <time>2022-05-12T08:13:47.064Z</time>
      </trkpt>
      <trkpt lat="43.70322" lon="3.56083">
        <ele>63</ele>
        <time>2022-05-12T08:13:47.807Z</time>
      </trkpt>
      <trkpt lat="43.70326" lon="3.56083">
        <ele>63</ele>
        <time>2022-05-12T08:13:48.539Z</time>
      </trkpt>
      <trkpt lat="43.70329" lon="3.56082">
        <ele>63</ele>
        <time>2022-05-12T08:13:49.104Z</time>
      </trkpt>
      <trkpt lat="43.70333" lon="3.56082">
        <ele>63</ele>
        <time>2022-05-12T08:13:49.835Z</time>
      </trkpt>
      <trkpt lat="43.70336" lon="3.56082">
        <ele>63</ele>
        <time>2022-05-12T08:13:50.384Z</time>
      </trkpt>
      <trkpt lat="43.7034" lon="3.56082">
        <ele>63</ele>
        <time>2022-05-12T08:13:51.116Z</time>
      </trkpt>
      <trkpt lat="43.70343" lon="3.56082">
        <ele>63</ele>
        <time>2022-05-12T08:13:51.665Z</time>
      </trkpt>
      <trkpt lat="43.70347" lon="3.56082">
        <ele>63</ele>
        <time>2022-05-12T08:13:52.397Z</time>
      </trkpt>
      <trkpt lat="43.7035" lon="3.56081">
        <ele>63</ele>
        <time>2022-05-12T08:13:52.961Z</time>
      </trkpt>
      <trkpt lat="43.70353" lon="3.56081">
        <ele>63</ele>
        <time>2022-05-12T08:13:53.510Z</time>
      </trkpt>
      <trkpt lat="43.70357" lon="3.56081">
        <ele>63</ele>
        <time>2022-05-12T08:13:54.242Z</time>
      </trkpt>
      <trkpt lat="43.7036" lon="3.5608">
        <ele>63</ele>
        <time>2022-05-12T08:13:54.807Z</time>
      </trkpt>
      <trkpt lat="43.70364" lon="3.5608">
        <ele>63</ele>
        <time>2022-05-12T08:13:55.539Z</time>
      </trkpt>
      <trkpt lat="43.70367" lon="3.5608">
        <ele>63</ele>
        <time>2022-05-12T08:13:56.087Z</time>
      </trkpt>
      <trkpt lat="43.7037" lon="3.5608">
        <ele>63</ele>
        <time>2022-05-12T08:13:56.636Z</time>
      </trkpt>
      <trkpt lat="43.70374" lon="3.56079">
        <ele>63</ele>
        <time>2022-05-12T08:13:57.380Z</time>
      </trkpt>
      <trkpt lat="43.70377" lon="3.56079">
        <ele>63</ele>
        <time>2022-05-12T08:13:57.929Z</time>
      </trkpt>
      <trkpt lat="43.7038" lon="3.56079">
        <ele>64</ele>
        <time>2022-05-12T08:14:00.046Z</time>
      </trkpt>
      <trkpt lat="43.70383" lon="3.56079">
        <ele>64</ele>
        <time>2022-05-12T08:14:00.595Z</time>
      </trkpt>
      <trkpt lat="43.70385" lon="3.56079">
        <ele>64</ele>
        <time>2022-05-12T08:14:00.961Z</time>
      </trkpt>
      <trkpt lat="43.70388" lon="3.56078">
        <ele>64</ele>
        <time>2022-05-12T08:14:01.525Z</time>
      </trkpt>
      <trkpt lat="43.70391" lon="3.56078">
        <ele>64</ele>
        <time>2022-05-12T08:14:02.074Z</time>
      </trkpt>
      <trkpt lat="43.70393" lon="3.56078">
        <ele>64</ele>
        <time>2022-05-12T08:14:02.440Z</time>
      </trkpt>
      <trkpt lat="43.70396" lon="3.56078">
        <ele>64</ele>
        <time>2022-05-12T08:14:02.989Z</time>
      </trkpt>
      <trkpt lat="43.70399" lon="3.56078">
        <ele>64</ele>
        <time>2022-05-12T08:14:03.538Z</time>
      </trkpt>
      <trkpt lat="43.70402" lon="3.56078">
        <ele>64</ele>
        <time>2022-05-12T08:14:04.087Z</time>
      </trkpt>
      <trkpt lat="43.70405" lon="3.56078">
        <ele>64</ele>
        <time>2022-05-12T08:14:04.636Z</time>
      </trkpt>
      <trkpt lat="43.70408" lon="3.56078">
        <ele>66</ele>
        <time>2022-05-12T08:14:06.753Z</time>
      </trkpt>
      <trkpt lat="43.70414" lon="3.56077">
        <ele>66</ele>
        <time>2022-05-12T08:14:07.858Z</time>
      </trkpt>
      <trkpt lat="43.70416" lon="3.56077">
        <ele>66</ele>
        <time>2022-05-12T08:14:08.224Z</time>
      </trkpt>
      <trkpt lat="43.70419" lon="3.56078">
        <ele>66</ele>
        <time>2022-05-12T08:14:08.789Z</time>
      </trkpt>
      <trkpt lat="43.70421" lon="3.56077">
        <ele>66</ele>
        <time>2022-05-12T08:14:09.178Z</time>
      </trkpt>
      <trkpt lat="43.70423" lon="3.56076">
        <ele>66</ele>
        <time>2022-05-12T08:14:09.567Z</time>
      </trkpt>
      <trkpt lat="43.70425" lon="3.56075">
        <ele>66</ele>
        <time>2022-05-12T08:14:09.956Z</time>
      </trkpt>
      <trkpt lat="43.70426" lon="3.56073">
        <ele>66</ele>
        <time>2022-05-12T08:14:10.278Z</time>
      </trkpt>
    </trkseg>
  </trk>
</gpx>